<?xml version="1.0" encoding="UTF-8" standalone="no" ?>
<gpx xmlns="http://www.topografix.com/GPX/1/1" xmlns:xsi="http://www.w3.org/2001/XMLSchema-instance" xsi:schemaLocation="http://www.topografix.com/GPX/1/1 http://www.topografix.com/GPX/1/1/gpx.xsd" version="1.1" creator="VisuGPX - https://www.visugpx.com">
  <metadata>
    <name>Saint-Sauveur-Roure Mt Autcellier</name>
    <desc><![CDATA[Très beau parcours, la montée par la route est un peu longue, mais la descente de 1300m est superbe !
2 points délicats : 
- la 1ere partie de la descente arrive sur une piste qu'on prend à droite puis on arrive à la balise à droite qui indique la descente vers la chapelle Tiecs, à 200m on retrouve une balise qui indique la direction mais très vite le chemin n'est plus visible, il faut vraiment chercher en allant vers la droite et vérifiant sur le GPS puis on retrouve les marque jaune et le chemin.
- Vers la fin lorsqu"on arrive au canal couvert, il faut le prendre à gauche pour trouver la descente finale qui arrive au pont sur la Tinée.]]></desc>
  </metadata>
  <trk>
    <name><![CDATA[Saint-Sauveur-sur-Tinée Cyclisme]]></name>
    <trkseg>
      <trkpt lat="44.08403" lon="7.10415">
        <ele>493.60000610352</ele>
        <time>2020-07-30T07:07:35.000Z</time>
      </trkpt>
      <trkpt lat="44.08406" lon="7.10422">
        <ele>493.60000610352</ele>
        <time>2020-07-30T07:07:41.000Z</time>
      </trkpt>
      <trkpt lat="44.08409" lon="7.10424">
        <ele>494</ele>
        <time>2020-07-30T07:07:49.000Z</time>
      </trkpt>
      <trkpt lat="44.08408" lon="7.10424">
        <ele>494</ele>
        <time>2020-07-30T07:07:50.000Z</time>
      </trkpt>
      <trkpt lat="44.08411" lon="7.10426">
        <ele>493.79998779297</ele>
        <time>2020-07-30T07:07:54.000Z</time>
      </trkpt>
      <trkpt lat="44.08411" lon="7.10428">
        <ele>493.79998779297</ele>
        <time>2020-07-30T07:08:02.000Z</time>
      </trkpt>
      <trkpt lat="44.08413" lon="7.10428">
        <ele>494</ele>
        <time>2020-07-30T07:08:08.000Z</time>
      </trkpt>
      <trkpt lat="44.08414" lon="7.10427">
        <ele>493.79998779297</ele>
        <time>2020-07-30T07:08:18.000Z</time>
      </trkpt>
      <trkpt lat="44.08415" lon="7.10428">
        <ele>494.20001220703</ele>
        <time>2020-07-30T07:08:22.000Z</time>
      </trkpt>
      <trkpt lat="44.08415" lon="7.10428">
        <ele>494.20001220703</ele>
        <time>2020-07-30T07:08:27.000Z</time>
      </trkpt>
      <trkpt lat="44.08417" lon="7.10429">
        <ele>494.20001220703</ele>
        <time>2020-07-30T07:08:34.000Z</time>
      </trkpt>
      <trkpt lat="44.08417" lon="7.10429">
        <ele>494</ele>
        <time>2020-07-30T07:08:41.000Z</time>
      </trkpt>
      <trkpt lat="44.08419" lon="7.10429">
        <ele>494.20001220703</ele>
        <time>2020-07-30T07:08:43.000Z</time>
      </trkpt>
      <trkpt lat="44.08419" lon="7.1043">
        <ele>494.20001220703</ele>
        <time>2020-07-30T07:08:45.000Z</time>
      </trkpt>
      <trkpt lat="44.08418" lon="7.10431">
        <ele>494.39999389648</ele>
        <time>2020-07-30T07:08:51.000Z</time>
      </trkpt>
      <trkpt lat="44.08418" lon="7.10435">
        <ele>494.39999389648</ele>
        <time>2020-07-30T07:08:53.000Z</time>
      </trkpt>
      <trkpt lat="44.08418" lon="7.10442">
        <ele>494</ele>
        <time>2020-07-30T07:08:56.000Z</time>
      </trkpt>
      <trkpt lat="44.08423" lon="7.10472">
        <ele>494.60000610352</ele>
        <time>2020-07-30T07:09:06.000Z</time>
      </trkpt>
      <trkpt lat="44.08432" lon="7.10505">
        <ele>495.79998779297</ele>
        <time>2020-07-30T07:09:17.000Z</time>
      </trkpt>
      <trkpt lat="44.08436" lon="7.10515">
        <ele>496.79998779297</ele>
        <time>2020-07-30T07:09:22.000Z</time>
      </trkpt>
      <trkpt lat="44.08437" lon="7.10518">
        <ele>497</ele>
        <time>2020-07-30T07:09:23.000Z</time>
      </trkpt>
      <trkpt lat="44.08441" lon="7.10533">
        <ele>498</ele>
        <time>2020-07-30T07:09:29.000Z</time>
      </trkpt>
      <trkpt lat="44.08442" lon="7.10535">
        <ele>498.20001220703</ele>
        <time>2020-07-30T07:09:30.000Z</time>
      </trkpt>
      <trkpt lat="44.08451" lon="7.10546">
        <ele>498.79998779297</ele>
        <time>2020-07-30T07:09:36.000Z</time>
      </trkpt>
      <trkpt lat="44.08456" lon="7.10546">
        <ele>498.60000610352</ele>
        <time>2020-07-30T07:09:38.000Z</time>
      </trkpt>
      <trkpt lat="44.08462" lon="7.10544">
        <ele>498.60000610352</ele>
        <time>2020-07-30T07:09:40.000Z</time>
      </trkpt>
      <trkpt lat="44.08476" lon="7.10541">
        <ele>498.20001220703</ele>
        <time>2020-07-30T07:09:44.000Z</time>
      </trkpt>
      <trkpt lat="44.08479" lon="7.10544">
        <ele>498</ele>
        <time>2020-07-30T07:09:45.000Z</time>
      </trkpt>
      <trkpt lat="44.08498" lon="7.10559">
        <ele>497.39999389648</ele>
        <time>2020-07-30T07:09:51.000Z</time>
      </trkpt>
      <trkpt lat="44.08507" lon="7.10561">
        <ele>496.60000610352</ele>
        <time>2020-07-30T07:09:53.000Z</time>
      </trkpt>
      <trkpt lat="44.08519" lon="7.1056">
        <ele>496</ele>
        <time>2020-07-30T07:09:56.000Z</time>
      </trkpt>
      <trkpt lat="44.0854" lon="7.10548">
        <ele>496.60000610352</ele>
        <time>2020-07-30T07:10:03.000Z</time>
      </trkpt>
      <trkpt lat="44.08558" lon="7.10531">
        <ele>497</ele>
        <time>2020-07-30T07:10:10.000Z</time>
      </trkpt>
      <trkpt lat="44.08576" lon="7.10504">
        <ele>497.79998779297</ele>
        <time>2020-07-30T07:10:18.000Z</time>
      </trkpt>
      <trkpt lat="44.08581" lon="7.10498">
        <ele>498</ele>
        <time>2020-07-30T07:10:20.000Z</time>
      </trkpt>
      <trkpt lat="44.086" lon="7.1047">
        <ele>498.79998779297</ele>
        <time>2020-07-30T07:10:28.000Z</time>
      </trkpt>
      <trkpt lat="44.08603" lon="7.10466">
        <ele>498.79998779297</ele>
        <time>2020-07-30T07:10:29.000Z</time>
      </trkpt>
      <trkpt lat="44.08617" lon="7.1045">
        <ele>499.60000610352</ele>
        <time>2020-07-30T07:10:35.000Z</time>
      </trkpt>
      <trkpt lat="44.08618" lon="7.10449">
        <ele>499.79998779297</ele>
        <time>2020-07-30T07:10:36.000Z</time>
      </trkpt>
      <trkpt lat="44.08621" lon="7.10447">
        <ele>500.39999389648</ele>
        <time>2020-07-30T07:10:38.000Z</time>
      </trkpt>
      <trkpt lat="44.08624" lon="7.10447">
        <ele>500.79998779297</ele>
        <time>2020-07-30T07:10:40.000Z</time>
      </trkpt>
      <trkpt lat="44.08626" lon="7.1045">
        <ele>501.20001220703</ele>
        <time>2020-07-30T07:10:41.000Z</time>
      </trkpt>
      <trkpt lat="44.08632" lon="7.10458">
        <ele>502</ele>
        <time>2020-07-30T07:10:45.000Z</time>
      </trkpt>
      <trkpt lat="44.08639" lon="7.10469">
        <ele>502</ele>
        <time>2020-07-30T07:10:50.000Z</time>
      </trkpt>
      <trkpt lat="44.08638" lon="7.10471">
        <ele>501.79998779297</ele>
        <time>2020-07-30T07:10:51.000Z</time>
      </trkpt>
      <trkpt lat="44.08633" lon="7.10484">
        <ele>501.60000610352</ele>
        <time>2020-07-30T07:10:55.000Z</time>
      </trkpt>
      <trkpt lat="44.08634" lon="7.10498">
        <ele>501.20001220703</ele>
        <time>2020-07-30T07:10:59.000Z</time>
      </trkpt>
      <trkpt lat="44.08636" lon="7.10501">
        <ele>501</ele>
        <time>2020-07-30T07:11:00.000Z</time>
      </trkpt>
      <trkpt lat="44.08642" lon="7.10522">
        <ele>500.79998779297</ele>
        <time>2020-07-30T07:11:05.000Z</time>
      </trkpt>
      <trkpt lat="44.08659" lon="7.10539">
        <ele>500.39999389648</ele>
        <time>2020-07-30T07:11:11.000Z</time>
      </trkpt>
      <trkpt lat="44.08686" lon="7.10566">
        <ele>500.39999389648</ele>
        <time>2020-07-30T07:11:19.000Z</time>
      </trkpt>
      <trkpt lat="44.08705" lon="7.10585">
        <ele>500.60000610352</ele>
        <time>2020-07-30T07:11:25.000Z</time>
      </trkpt>
      <trkpt lat="44.08723" lon="7.10603">
        <ele>501.79998779297</ele>
        <time>2020-07-30T07:11:31.000Z</time>
      </trkpt>
      <trkpt lat="44.08738" lon="7.10614">
        <ele>502</ele>
        <time>2020-07-30T07:11:36.000Z</time>
      </trkpt>
      <trkpt lat="44.08743" lon="7.10614">
        <ele>502.39999389648</ele>
        <time>2020-07-30T07:11:38.000Z</time>
      </trkpt>
      <trkpt lat="44.08753" lon="7.10615">
        <ele>503.60000610352</ele>
        <time>2020-07-30T07:11:42.000Z</time>
      </trkpt>
      <trkpt lat="44.08756" lon="7.10614">
        <ele>503.79998779297</ele>
        <time>2020-07-30T07:11:43.000Z</time>
      </trkpt>
      <trkpt lat="44.08775" lon="7.10609">
        <ele>503.60000610352</ele>
        <time>2020-07-30T07:11:50.000Z</time>
      </trkpt>
      <trkpt lat="44.08786" lon="7.10619">
        <ele>504</ele>
        <time>2020-07-30T07:11:55.000Z</time>
      </trkpt>
      <trkpt lat="44.08793" lon="7.10628">
        <ele>504.79998779297</ele>
        <time>2020-07-30T07:11:59.000Z</time>
      </trkpt>
      <trkpt lat="44.08794" lon="7.10633">
        <ele>505</ele>
        <time>2020-07-30T07:12:01.000Z</time>
      </trkpt>
      <trkpt lat="44.0879" lon="7.10639">
        <ele>505.79998779297</ele>
        <time>2020-07-30T07:12:05.000Z</time>
      </trkpt>
      <trkpt lat="44.08789" lon="7.10637">
        <ele>505.79998779297</ele>
        <time>2020-07-30T07:12:06.000Z</time>
      </trkpt>
      <trkpt lat="44.08791" lon="7.10634">
        <ele>505.79998779297</ele>
        <time>2020-07-30T07:12:08.000Z</time>
      </trkpt>
      <trkpt lat="44.08794" lon="7.10633">
        <ele>505.79998779297</ele>
        <time>2020-07-30T07:12:10.000Z</time>
      </trkpt>
      <trkpt lat="44.08797" lon="7.10634">
        <ele>505.60000610352</ele>
        <time>2020-07-30T07:12:13.000Z</time>
      </trkpt>
      <trkpt lat="44.08799" lon="7.10633">
        <ele>505.79998779297</ele>
        <time>2020-07-30T07:12:20.000Z</time>
      </trkpt>
      <trkpt lat="44.08799" lon="7.10634">
        <ele>505.79998779297</ele>
        <time>2020-07-30T07:12:21.000Z</time>
      </trkpt>
      <trkpt lat="44.08799" lon="7.10637">
        <ele>505.79998779297</ele>
        <time>2020-07-30T07:12:26.000Z</time>
      </trkpt>
      <trkpt lat="44.088" lon="7.10638">
        <ele>505</ele>
        <time>2020-07-30T07:12:35.000Z</time>
      </trkpt>
      <trkpt lat="44.088" lon="7.10638">
        <ele>504.79998779297</ele>
        <time>2020-07-30T07:12:40.000Z</time>
      </trkpt>
      <trkpt lat="44.088" lon="7.10638">
        <ele>504.79998779297</ele>
        <time>2020-07-30T07:12:41.000Z</time>
      </trkpt>
      <trkpt lat="44.088" lon="7.10641">
        <ele>505.20001220703</ele>
        <time>2020-07-30T07:12:47.000Z</time>
      </trkpt>
      <trkpt lat="44.08801" lon="7.10644">
        <ele>506</ele>
        <time>2020-07-30T07:12:50.000Z</time>
      </trkpt>
      <trkpt lat="44.08801" lon="7.10645">
        <ele>506.20001220703</ele>
        <time>2020-07-30T07:12:52.000Z</time>
      </trkpt>
      <trkpt lat="44.08802" lon="7.10656">
        <ele>506</ele>
        <time>2020-07-30T07:12:56.000Z</time>
      </trkpt>
      <trkpt lat="44.08806" lon="7.10672">
        <ele>507</ele>
        <time>2020-07-30T07:13:03.000Z</time>
      </trkpt>
      <trkpt lat="44.08807" lon="7.10674">
        <ele>507</ele>
        <time>2020-07-30T07:13:04.000Z</time>
      </trkpt>
      <trkpt lat="44.08814" lon="7.10679">
        <ele>507.60000610352</ele>
        <time>2020-07-30T07:13:08.000Z</time>
      </trkpt>
      <trkpt lat="44.08822" lon="7.1068">
        <ele>508</ele>
        <time>2020-07-30T07:13:12.000Z</time>
      </trkpt>
      <trkpt lat="44.08826" lon="7.10682">
        <ele>508.60000610352</ele>
        <time>2020-07-30T07:13:14.000Z</time>
      </trkpt>
      <trkpt lat="44.08832" lon="7.10684">
        <ele>509</ele>
        <time>2020-07-30T07:13:17.000Z</time>
      </trkpt>
      <trkpt lat="44.08833" lon="7.10685">
        <ele>509.20001220703</ele>
        <time>2020-07-30T07:13:18.000Z</time>
      </trkpt>
      <trkpt lat="44.0884" lon="7.10688">
        <ele>510.20001220703</ele>
        <time>2020-07-30T07:13:23.000Z</time>
      </trkpt>
      <trkpt lat="44.0884" lon="7.10688">
        <ele>510.20001220703</ele>
        <time>2020-07-30T07:13:24.000Z</time>
      </trkpt>
      <trkpt lat="44.08842" lon="7.10688">
        <ele>510.79998779297</ele>
        <time>2020-07-30T07:13:28.000Z</time>
      </trkpt>
      <trkpt lat="44.08843" lon="7.10688">
        <ele>511</ele>
        <time>2020-07-30T07:13:34.000Z</time>
      </trkpt>
      <trkpt lat="44.08845" lon="7.1069">
        <ele>510.60000610352</ele>
        <time>2020-07-30T07:13:40.000Z</time>
      </trkpt>
      <trkpt lat="44.08851" lon="7.10696">
        <ele>510.79998779297</ele>
        <time>2020-07-30T07:13:46.000Z</time>
      </trkpt>
      <trkpt lat="44.08857" lon="7.10702">
        <ele>511.39999389648</ele>
        <time>2020-07-30T07:13:50.000Z</time>
      </trkpt>
      <trkpt lat="44.08859" lon="7.10705">
        <ele>511.60000610352</ele>
        <time>2020-07-30T07:13:52.000Z</time>
      </trkpt>
      <trkpt lat="44.0886" lon="7.1071">
        <ele>512.20001220703</ele>
        <time>2020-07-30T07:13:55.000Z</time>
      </trkpt>
      <trkpt lat="44.08859" lon="7.10711">
        <ele>512.40002441406</ele>
        <time>2020-07-30T07:13:56.000Z</time>
      </trkpt>
      <trkpt lat="44.0886" lon="7.10712">
        <ele>512.40002441406</ele>
        <time>2020-07-30T07:13:57.000Z</time>
      </trkpt>
      <trkpt lat="44.0886" lon="7.10712">
        <ele>512.79998779297</ele>
        <time>2020-07-30T07:14:03.000Z</time>
      </trkpt>
      <trkpt lat="44.08861" lon="7.10712">
        <ele>512.79998779297</ele>
        <time>2020-07-30T07:14:16.000Z</time>
      </trkpt>
      <trkpt lat="44.08864" lon="7.10711">
        <ele>512.79998779297</ele>
        <time>2020-07-30T07:14:22.000Z</time>
      </trkpt>
      <trkpt lat="44.08865" lon="7.10711">
        <ele>512.79998779297</ele>
        <time>2020-07-30T07:14:23.000Z</time>
      </trkpt>
      <trkpt lat="44.08867" lon="7.10709">
        <ele>513</ele>
        <time>2020-07-30T07:14:27.000Z</time>
      </trkpt>
      <trkpt lat="44.08867" lon="7.1071">
        <ele>513.40002441406</ele>
        <time>2020-07-30T07:14:29.000Z</time>
      </trkpt>
      <trkpt lat="44.08867" lon="7.1071">
        <ele>513.79998779297</ele>
        <time>2020-07-30T07:14:34.000Z</time>
      </trkpt>
      <trkpt lat="44.08867" lon="7.1071">
        <ele>513.79998779297</ele>
        <time>2020-07-30T07:14:44.000Z</time>
      </trkpt>
      <trkpt lat="44.08867" lon="7.10711">
        <ele>513.59997558594</ele>
        <time>2020-07-30T07:14:52.000Z</time>
      </trkpt>
      <trkpt lat="44.08867" lon="7.10711">
        <ele>512.59997558594</ele>
        <time>2020-07-30T07:15:00.000Z</time>
      </trkpt>
      <trkpt lat="44.08867" lon="7.10711">
        <ele>512.79998779297</ele>
        <time>2020-07-30T07:15:06.000Z</time>
      </trkpt>
      <trkpt lat="44.08867" lon="7.10712">
        <ele>512.59997558594</ele>
        <time>2020-07-30T07:15:20.000Z</time>
      </trkpt>
      <trkpt lat="44.0887" lon="7.10712">
        <ele>512.59997558594</ele>
        <time>2020-07-30T07:15:40.000Z</time>
      </trkpt>
      <trkpt lat="44.08872" lon="7.10711">
        <ele>512.59997558594</ele>
        <time>2020-07-30T07:15:48.000Z</time>
      </trkpt>
      <trkpt lat="44.08872" lon="7.1071">
        <ele>513.40002441406</ele>
        <time>2020-07-30T07:16:05.000Z</time>
      </trkpt>
      <trkpt lat="44.08872" lon="7.1071">
        <ele>513.59997558594</ele>
        <time>2020-07-30T07:16:19.000Z</time>
      </trkpt>
      <trkpt lat="44.08871" lon="7.1071">
        <ele>512.59997558594</ele>
        <time>2020-07-30T07:16:29.000Z</time>
      </trkpt>
      <trkpt lat="44.08871" lon="7.1071">
        <ele>512.40002441406</ele>
        <time>2020-07-30T07:16:37.000Z</time>
      </trkpt>
      <trkpt lat="44.08872" lon="7.10711">
        <ele>512.59997558594</ele>
        <time>2020-07-30T07:16:48.000Z</time>
      </trkpt>
      <trkpt lat="44.08872" lon="7.10711">
        <ele>513.59997558594</ele>
        <time>2020-07-30T07:16:57.000Z</time>
      </trkpt>
      <trkpt lat="44.08872" lon="7.10711">
        <ele>513.79998779297</ele>
        <time>2020-07-30T07:16:59.000Z</time>
      </trkpt>
      <trkpt lat="44.08871" lon="7.10711">
        <ele>513.59997558594</ele>
        <time>2020-07-30T07:17:03.000Z</time>
      </trkpt>
      <trkpt lat="44.08871" lon="7.10709">
        <ele>513.20001220703</ele>
        <time>2020-07-30T07:17:11.000Z</time>
      </trkpt>
      <trkpt lat="44.08869" lon="7.10706">
        <ele>512.79998779297</ele>
        <time>2020-07-30T07:17:22.000Z</time>
      </trkpt>
      <trkpt lat="44.0887" lon="7.10706">
        <ele>512.59997558594</ele>
        <time>2020-07-30T07:17:28.000Z</time>
      </trkpt>
      <trkpt lat="44.0887" lon="7.10706">
        <ele>512.59997558594</ele>
        <time>2020-07-30T07:17:29.000Z</time>
      </trkpt>
      <trkpt lat="44.08869" lon="7.10705">
        <ele>513.20001220703</ele>
        <time>2020-07-30T07:17:36.000Z</time>
      </trkpt>
      <trkpt lat="44.08869" lon="7.10704">
        <ele>513</ele>
        <time>2020-07-30T07:17:42.000Z</time>
      </trkpt>
      <trkpt lat="44.08867" lon="7.10702">
        <ele>512.79998779297</ele>
        <time>2020-07-30T07:17:46.000Z</time>
      </trkpt>
      <trkpt lat="44.08864" lon="7.107">
        <ele>512.59997558594</ele>
        <time>2020-07-30T07:17:48.000Z</time>
      </trkpt>
      <trkpt lat="44.08855" lon="7.10692">
        <ele>512.40002441406</ele>
        <time>2020-07-30T07:17:54.000Z</time>
      </trkpt>
      <trkpt lat="44.08848" lon="7.10687">
        <ele>511.79998779297</ele>
        <time>2020-07-30T07:18:00.000Z</time>
      </trkpt>
      <trkpt lat="44.08847" lon="7.10687">
        <ele>511.60000610352</ele>
        <time>2020-07-30T07:18:01.000Z</time>
      </trkpt>
      <trkpt lat="44.08846" lon="7.10684">
        <ele>511</ele>
        <time>2020-07-30T07:18:05.000Z</time>
      </trkpt>
      <trkpt lat="44.08845" lon="7.10685">
        <ele>510.60000610352</ele>
        <time>2020-07-30T07:18:13.000Z</time>
      </trkpt>
      <trkpt lat="44.08845" lon="7.10686">
        <ele>510.79998779297</ele>
        <time>2020-07-30T07:18:24.000Z</time>
      </trkpt>
      <trkpt lat="44.08844" lon="7.10684">
        <ele>510.79998779297</ele>
        <time>2020-07-30T07:18:34.000Z</time>
      </trkpt>
      <trkpt lat="44.08842" lon="7.10683">
        <ele>511</ele>
        <time>2020-07-30T07:18:44.000Z</time>
      </trkpt>
      <trkpt lat="44.08842" lon="7.10684">
        <ele>510.39999389648</ele>
        <time>2020-07-30T07:18:48.000Z</time>
      </trkpt>
      <trkpt lat="44.08843" lon="7.10684">
        <ele>509.79998779297</ele>
        <time>2020-07-30T07:18:52.000Z</time>
      </trkpt>
      <trkpt lat="44.08844" lon="7.10684">
        <ele>510</ele>
        <time>2020-07-30T07:19:03.000Z</time>
      </trkpt>
      <trkpt lat="44.08844" lon="7.10684">
        <ele>510.60000610352</ele>
        <time>2020-07-30T07:19:10.000Z</time>
      </trkpt>
      <trkpt lat="44.08844" lon="7.10683">
        <ele>510.79998779297</ele>
        <time>2020-07-30T07:19:17.000Z</time>
      </trkpt>
      <trkpt lat="44.08844" lon="7.10684">
        <ele>510.60000610352</ele>
        <time>2020-07-30T07:19:24.000Z</time>
      </trkpt>
      <trkpt lat="44.08845" lon="7.10683">
        <ele>511</ele>
        <time>2020-07-30T07:19:30.000Z</time>
      </trkpt>
      <trkpt lat="44.08845" lon="7.10681">
        <ele>511</ele>
        <time>2020-07-30T07:19:31.000Z</time>
      </trkpt>
      <trkpt lat="44.08845" lon="7.1068">
        <ele>510.79998779297</ele>
        <time>2020-07-30T07:19:35.000Z</time>
      </trkpt>
      <trkpt lat="44.08845" lon="7.1068">
        <ele>510.20001220703</ele>
        <time>2020-07-30T07:19:49.000Z</time>
      </trkpt>
      <trkpt lat="44.08845" lon="7.1068">
        <ele>510.60000610352</ele>
        <time>2020-07-30T07:20:02.000Z</time>
      </trkpt>
      <trkpt lat="44.08844" lon="7.10682">
        <ele>510.20001220703</ele>
        <time>2020-07-30T07:20:07.000Z</time>
      </trkpt>
      <trkpt lat="44.08842" lon="7.10682">
        <ele>510.79998779297</ele>
        <time>2020-07-30T07:20:15.000Z</time>
      </trkpt>
      <trkpt lat="44.0884" lon="7.10685">
        <ele>510.60000610352</ele>
        <time>2020-07-30T07:20:22.000Z</time>
      </trkpt>
      <trkpt lat="44.0884" lon="7.10689">
        <ele>510.39999389648</ele>
        <time>2020-07-30T07:20:28.000Z</time>
      </trkpt>
      <trkpt lat="44.08847" lon="7.10695">
        <ele>510.60000610352</ele>
        <time>2020-07-30T07:20:32.000Z</time>
      </trkpt>
      <trkpt lat="44.08859" lon="7.10703">
        <ele>511.60000610352</ele>
        <time>2020-07-30T07:20:37.000Z</time>
      </trkpt>
      <trkpt lat="44.08868" lon="7.10691">
        <ele>512.20001220703</ele>
        <time>2020-07-30T07:20:41.000Z</time>
      </trkpt>
      <trkpt lat="44.08873" lon="7.10676">
        <ele>512.40002441406</ele>
        <time>2020-07-30T07:20:44.000Z</time>
      </trkpt>
      <trkpt lat="44.08875" lon="7.10665">
        <ele>512.59997558594</ele>
        <time>2020-07-30T07:20:46.000Z</time>
      </trkpt>
      <trkpt lat="44.08875" lon="7.10659">
        <ele>512.59997558594</ele>
        <time>2020-07-30T07:20:47.000Z</time>
      </trkpt>
      <trkpt lat="44.08868" lon="7.10639">
        <ele>512.79998779297</ele>
        <time>2020-07-30T07:20:51.000Z</time>
      </trkpt>
      <trkpt lat="44.08862" lon="7.10633">
        <ele>513</ele>
        <time>2020-07-30T07:20:53.000Z</time>
      </trkpt>
      <trkpt lat="44.08855" lon="7.10628">
        <ele>513.59997558594</ele>
        <time>2020-07-30T07:20:55.000Z</time>
      </trkpt>
      <trkpt lat="44.08846" lon="7.1062">
        <ele>514.59997558594</ele>
        <time>2020-07-30T07:20:58.000Z</time>
      </trkpt>
      <trkpt lat="44.08843" lon="7.10617">
        <ele>514.79998779297</ele>
        <time>2020-07-30T07:20:59.000Z</time>
      </trkpt>
      <trkpt lat="44.08834" lon="7.10602">
        <ele>516</ele>
        <time>2020-07-30T07:21:03.000Z</time>
      </trkpt>
      <trkpt lat="44.08832" lon="7.10598">
        <ele>516.20001220703</ele>
        <time>2020-07-30T07:21:04.000Z</time>
      </trkpt>
      <trkpt lat="44.08826" lon="7.10585">
        <ele>517.20001220703</ele>
        <time>2020-07-30T07:21:07.000Z</time>
      </trkpt>
      <trkpt lat="44.08818" lon="7.10567">
        <ele>518.20001220703</ele>
        <time>2020-07-30T07:21:11.000Z</time>
      </trkpt>
      <trkpt lat="44.08817" lon="7.10563">
        <ele>518.59997558594</ele>
        <time>2020-07-30T07:21:12.000Z</time>
      </trkpt>
      <trkpt lat="44.08811" lon="7.1055">
        <ele>519.59997558594</ele>
        <time>2020-07-30T07:21:15.000Z</time>
      </trkpt>
      <trkpt lat="44.08803" lon="7.10535">
        <ele>520.79998779297</ele>
        <time>2020-07-30T07:21:19.000Z</time>
      </trkpt>
      <trkpt lat="44.08801" lon="7.10531">
        <ele>521</ele>
        <time>2020-07-30T07:21:20.000Z</time>
      </trkpt>
      <trkpt lat="44.08796" lon="7.10518">
        <ele>521.79998779297</ele>
        <time>2020-07-30T07:21:23.000Z</time>
      </trkpt>
      <trkpt lat="44.08789" lon="7.10502">
        <ele>522.79998779297</ele>
        <time>2020-07-30T07:21:27.000Z</time>
      </trkpt>
      <trkpt lat="44.08787" lon="7.10498">
        <ele>523</ele>
        <time>2020-07-30T07:21:28.000Z</time>
      </trkpt>
      <trkpt lat="44.08784" lon="7.10485">
        <ele>524</ele>
        <time>2020-07-30T07:21:31.000Z</time>
      </trkpt>
      <trkpt lat="44.08784" lon="7.1048">
        <ele>524.40002441406</ele>
        <time>2020-07-30T07:21:32.000Z</time>
      </trkpt>
      <trkpt lat="44.08783" lon="7.10476">
        <ele>524.59997558594</ele>
        <time>2020-07-30T07:21:33.000Z</time>
      </trkpt>
      <trkpt lat="44.08781" lon="7.10461">
        <ele>525.59997558594</ele>
        <time>2020-07-30T07:21:36.000Z</time>
      </trkpt>
      <trkpt lat="44.08776" lon="7.10444">
        <ele>526.79998779297</ele>
        <time>2020-07-30T07:21:40.000Z</time>
      </trkpt>
      <trkpt lat="44.08767" lon="7.10432">
        <ele>528</ele>
        <time>2020-07-30T07:21:44.000Z</time>
      </trkpt>
      <trkpt lat="44.08765" lon="7.10429">
        <ele>528.40002441406</ele>
        <time>2020-07-30T07:21:45.000Z</time>
      </trkpt>
      <trkpt lat="44.08754" lon="7.10419">
        <ele>529.20001220703</ele>
        <time>2020-07-30T07:21:49.000Z</time>
      </trkpt>
      <trkpt lat="44.08743" lon="7.10408">
        <ele>530.20001220703</ele>
        <time>2020-07-30T07:21:53.000Z</time>
      </trkpt>
      <trkpt lat="44.0874" lon="7.10406">
        <ele>530.40002441406</ele>
        <time>2020-07-30T07:21:54.000Z</time>
      </trkpt>
      <trkpt lat="44.08729" lon="7.10396">
        <ele>531.59997558594</ele>
        <time>2020-07-30T07:21:58.000Z</time>
      </trkpt>
      <trkpt lat="44.08723" lon="7.10391">
        <ele>532.20001220703</ele>
        <time>2020-07-30T07:22:00.000Z</time>
      </trkpt>
      <trkpt lat="44.08718" lon="7.10386">
        <ele>532.59997558594</ele>
        <time>2020-07-30T07:22:02.000Z</time>
      </trkpt>
      <trkpt lat="44.08707" lon="7.10377">
        <ele>533.79998779297</ele>
        <time>2020-07-30T07:22:06.000Z</time>
      </trkpt>
      <trkpt lat="44.08704" lon="7.10375">
        <ele>534</ele>
        <time>2020-07-30T07:22:07.000Z</time>
      </trkpt>
      <trkpt lat="44.08696" lon="7.10368">
        <ele>534.79998779297</ele>
        <time>2020-07-30T07:22:10.000Z</time>
      </trkpt>
      <trkpt lat="44.08684" lon="7.10362">
        <ele>535.79998779297</ele>
        <time>2020-07-30T07:22:14.000Z</time>
      </trkpt>
      <trkpt lat="44.08681" lon="7.10362">
        <ele>536</ele>
        <time>2020-07-30T07:22:15.000Z</time>
      </trkpt>
      <trkpt lat="44.08668" lon="7.10367">
        <ele>537</ele>
        <time>2020-07-30T07:22:19.000Z</time>
      </trkpt>
      <trkpt lat="44.08662" lon="7.1037">
        <ele>537.20001220703</ele>
        <time>2020-07-30T07:22:21.000Z</time>
      </trkpt>
      <trkpt lat="44.08649" lon="7.10373">
        <ele>538</ele>
        <time>2020-07-30T07:22:25.000Z</time>
      </trkpt>
      <trkpt lat="44.0864" lon="7.10374">
        <ele>539</ele>
        <time>2020-07-30T07:22:28.000Z</time>
      </trkpt>
      <trkpt lat="44.08637" lon="7.10375">
        <ele>539.20001220703</ele>
        <time>2020-07-30T07:22:29.000Z</time>
      </trkpt>
      <trkpt lat="44.0862" lon="7.10374">
        <ele>540.40002441406</ele>
        <time>2020-07-30T07:22:34.000Z</time>
      </trkpt>
      <trkpt lat="44.08617" lon="7.10372">
        <ele>540.59997558594</ele>
        <time>2020-07-30T07:22:35.000Z</time>
      </trkpt>
      <trkpt lat="44.08609" lon="7.10366">
        <ele>541.59997558594</ele>
        <time>2020-07-30T07:22:38.000Z</time>
      </trkpt>
      <trkpt lat="44.086" lon="7.10357">
        <ele>543</ele>
        <time>2020-07-30T07:22:42.000Z</time>
      </trkpt>
      <trkpt lat="44.08591" lon="7.10347">
        <ele>544</ele>
        <time>2020-07-30T07:22:46.000Z</time>
      </trkpt>
      <trkpt lat="44.08583" lon="7.10336">
        <ele>545</ele>
        <time>2020-07-30T07:22:50.000Z</time>
      </trkpt>
      <trkpt lat="44.08581" lon="7.10333">
        <ele>545.40002441406</ele>
        <time>2020-07-30T07:22:51.000Z</time>
      </trkpt>
      <trkpt lat="44.08573" lon="7.1032">
        <ele>546.20001220703</ele>
        <time>2020-07-30T07:22:55.000Z</time>
      </trkpt>
      <trkpt lat="44.08569" lon="7.10311">
        <ele>546.79998779297</ele>
        <time>2020-07-30T07:22:58.000Z</time>
      </trkpt>
      <trkpt lat="44.08566" lon="7.10304">
        <ele>547.20001220703</ele>
        <time>2020-07-30T07:23:00.000Z</time>
      </trkpt>
      <trkpt lat="44.08562" lon="7.1029">
        <ele>548</ele>
        <time>2020-07-30T07:23:04.000Z</time>
      </trkpt>
      <trkpt lat="44.08561" lon="7.10283">
        <ele>548.40002441406</ele>
        <time>2020-07-30T07:23:06.000Z</time>
      </trkpt>
      <trkpt lat="44.08563" lon="7.10268">
        <ele>549.20001220703</ele>
        <time>2020-07-30T07:23:10.000Z</time>
      </trkpt>
      <trkpt lat="44.08564" lon="7.10263">
        <ele>549.59997558594</ele>
        <time>2020-07-30T07:23:11.000Z</time>
      </trkpt>
      <trkpt lat="44.08566" lon="7.10248">
        <ele>550.59997558594</ele>
        <time>2020-07-30T07:23:15.000Z</time>
      </trkpt>
      <trkpt lat="44.08564" lon="7.10241">
        <ele>551.20001220703</ele>
        <time>2020-07-30T07:23:17.000Z</time>
      </trkpt>
      <trkpt lat="44.0856" lon="7.1023">
        <ele>551.79998779297</ele>
        <time>2020-07-30T07:23:20.000Z</time>
      </trkpt>
      <trkpt lat="44.08558" lon="7.10215">
        <ele>552.79998779297</ele>
        <time>2020-07-30T07:23:24.000Z</time>
      </trkpt>
      <trkpt lat="44.08557" lon="7.10211">
        <ele>553</ele>
        <time>2020-07-30T07:23:25.000Z</time>
      </trkpt>
      <trkpt lat="44.08551" lon="7.10192">
        <ele>554</ele>
        <time>2020-07-30T07:23:30.000Z</time>
      </trkpt>
      <trkpt lat="44.0855" lon="7.10189">
        <ele>554.20001220703</ele>
        <time>2020-07-30T07:23:31.000Z</time>
      </trkpt>
      <trkpt lat="44.08542" lon="7.1017">
        <ele>555.40002441406</ele>
        <time>2020-07-30T07:23:36.000Z</time>
      </trkpt>
      <trkpt lat="44.08541" lon="7.10162">
        <ele>555.59997558594</ele>
        <time>2020-07-30T07:23:38.000Z</time>
      </trkpt>
      <trkpt lat="44.08539" lon="7.10146">
        <ele>556.79998779297</ele>
        <time>2020-07-30T07:23:42.000Z</time>
      </trkpt>
      <trkpt lat="44.08535" lon="7.10136">
        <ele>557.79998779297</ele>
        <time>2020-07-30T07:23:45.000Z</time>
      </trkpt>
      <trkpt lat="44.08534" lon="7.10133">
        <ele>558</ele>
        <time>2020-07-30T07:23:46.000Z</time>
      </trkpt>
      <trkpt lat="44.08522" lon="7.10121">
        <ele>559.20001220703</ele>
        <time>2020-07-30T07:23:51.000Z</time>
      </trkpt>
      <trkpt lat="44.08511" lon="7.10118">
        <ele>560.20001220703</ele>
        <time>2020-07-30T07:23:55.000Z</time>
      </trkpt>
      <trkpt lat="44.085" lon="7.10117">
        <ele>561.20001220703</ele>
        <time>2020-07-30T07:23:59.000Z</time>
      </trkpt>
      <trkpt lat="44.08497" lon="7.10117">
        <ele>561.40002441406</ele>
        <time>2020-07-30T07:24:00.000Z</time>
      </trkpt>
      <trkpt lat="44.08484" lon="7.10121">
        <ele>562.40002441406</ele>
        <time>2020-07-30T07:24:05.000Z</time>
      </trkpt>
      <trkpt lat="44.08478" lon="7.1012">
        <ele>562.79998779297</ele>
        <time>2020-07-30T07:24:07.000Z</time>
      </trkpt>
      <trkpt lat="44.08474" lon="7.10114">
        <ele>563</ele>
        <time>2020-07-30T07:24:09.000Z</time>
      </trkpt>
      <trkpt lat="44.08479" lon="7.10105">
        <ele>563.40002441406</ele>
        <time>2020-07-30T07:24:12.000Z</time>
      </trkpt>
      <trkpt lat="44.08482" lon="7.10105">
        <ele>563.59997558594</ele>
        <time>2020-07-30T07:24:13.000Z</time>
      </trkpt>
      <trkpt lat="44.0849" lon="7.10106">
        <ele>564.40002441406</ele>
        <time>2020-07-30T07:24:16.000Z</time>
      </trkpt>
      <trkpt lat="44.08493" lon="7.10107">
        <ele>564.79998779297</ele>
        <time>2020-07-30T07:24:17.000Z</time>
      </trkpt>
      <trkpt lat="44.0851" lon="7.1011">
        <ele>565.79998779297</ele>
        <time>2020-07-30T07:24:23.000Z</time>
      </trkpt>
      <trkpt lat="44.0852" lon="7.1011">
        <ele>566.59997558594</ele>
        <time>2020-07-30T07:24:27.000Z</time>
      </trkpt>
      <trkpt lat="44.08523" lon="7.10111">
        <ele>566.79998779297</ele>
        <time>2020-07-30T07:24:28.000Z</time>
      </trkpt>
      <trkpt lat="44.08536" lon="7.10113">
        <ele>567.79998779297</ele>
        <time>2020-07-30T07:24:33.000Z</time>
      </trkpt>
      <trkpt lat="44.08548" lon="7.10121">
        <ele>569</ele>
        <time>2020-07-30T07:24:38.000Z</time>
      </trkpt>
      <trkpt lat="44.0855" lon="7.10124">
        <ele>569.40002441406</ele>
        <time>2020-07-30T07:24:39.000Z</time>
      </trkpt>
      <trkpt lat="44.08556" lon="7.10136">
        <ele>570.20001220703</ele>
        <time>2020-07-30T07:24:43.000Z</time>
      </trkpt>
      <trkpt lat="44.08559" lon="7.10142">
        <ele>570.79998779297</ele>
        <time>2020-07-30T07:24:46.000Z</time>
      </trkpt>
      <trkpt lat="44.08559" lon="7.10142">
        <ele>571.40002441406</ele>
        <time>2020-07-30T07:24:49.000Z</time>
      </trkpt>
      <trkpt lat="44.08559" lon="7.10142">
        <ele>571.40002441406</ele>
        <time>2020-07-30T07:24:50.000Z</time>
      </trkpt>
      <trkpt lat="44.0856" lon="7.10143">
        <ele>571.59997558594</ele>
        <time>2020-07-30T07:24:59.000Z</time>
      </trkpt>
      <trkpt lat="44.08561" lon="7.10143">
        <ele>571.59997558594</ele>
        <time>2020-07-30T07:25:06.000Z</time>
      </trkpt>
      <trkpt lat="44.08563" lon="7.10146">
        <ele>571.59997558594</ele>
        <time>2020-07-30T07:25:08.000Z</time>
      </trkpt>
      <trkpt lat="44.08567" lon="7.10153">
        <ele>571.79998779297</ele>
        <time>2020-07-30T07:25:11.000Z</time>
      </trkpt>
      <trkpt lat="44.08572" lon="7.10164">
        <ele>572.20001220703</ele>
        <time>2020-07-30T07:25:15.000Z</time>
      </trkpt>
      <trkpt lat="44.08573" lon="7.10168">
        <ele>572.40002441406</ele>
        <time>2020-07-30T07:25:16.000Z</time>
      </trkpt>
      <trkpt lat="44.08578" lon="7.10188">
        <ele>573.40002441406</ele>
        <time>2020-07-30T07:25:21.000Z</time>
      </trkpt>
      <trkpt lat="44.08579" lon="7.10191">
        <ele>573.59997558594</ele>
        <time>2020-07-30T07:25:22.000Z</time>
      </trkpt>
      <trkpt lat="44.08585" lon="7.10205">
        <ele>574.59997558594</ele>
        <time>2020-07-30T07:25:26.000Z</time>
      </trkpt>
      <trkpt lat="44.08589" lon="7.10216">
        <ele>575.40002441406</ele>
        <time>2020-07-30T07:25:29.000Z</time>
      </trkpt>
      <trkpt lat="44.0859" lon="7.1022">
        <ele>575.79998779297</ele>
        <time>2020-07-30T07:25:30.000Z</time>
      </trkpt>
      <trkpt lat="44.08599" lon="7.10238">
        <ele>576.79998779297</ele>
        <time>2020-07-30T07:25:35.000Z</time>
      </trkpt>
      <trkpt lat="44.08602" lon="7.1025">
        <ele>577.40002441406</ele>
        <time>2020-07-30T07:25:38.000Z</time>
      </trkpt>
      <trkpt lat="44.08603" lon="7.10259">
        <ele>577.79998779297</ele>
        <time>2020-07-30T07:25:40.000Z</time>
      </trkpt>
      <trkpt lat="44.08608" lon="7.10274">
        <ele>579</ele>
        <time>2020-07-30T07:25:44.000Z</time>
      </trkpt>
      <trkpt lat="44.08612" lon="7.10281">
        <ele>579.59997558594</ele>
        <time>2020-07-30T07:25:46.000Z</time>
      </trkpt>
      <trkpt lat="44.08618" lon="7.10289">
        <ele>580.40002441406</ele>
        <time>2020-07-30T07:25:49.000Z</time>
      </trkpt>
      <trkpt lat="44.08627" lon="7.103">
        <ele>581.40002441406</ele>
        <time>2020-07-30T07:25:53.000Z</time>
      </trkpt>
      <trkpt lat="44.08642" lon="7.10308">
        <ele>582.40002441406</ele>
        <time>2020-07-30T07:25:59.000Z</time>
      </trkpt>
      <trkpt lat="44.08653" lon="7.10305">
        <ele>583.20001220703</ele>
        <time>2020-07-30T07:26:03.000Z</time>
      </trkpt>
      <trkpt lat="44.08655" lon="7.10304">
        <ele>583.40002441406</ele>
        <time>2020-07-30T07:26:04.000Z</time>
      </trkpt>
      <trkpt lat="44.08669" lon="7.103">
        <ele>584.59997558594</ele>
        <time>2020-07-30T07:26:09.000Z</time>
      </trkpt>
      <trkpt lat="44.08675" lon="7.10298">
        <ele>585</ele>
        <time>2020-07-30T07:26:11.000Z</time>
      </trkpt>
      <trkpt lat="44.08683" lon="7.10293">
        <ele>585.79998779297</ele>
        <time>2020-07-30T07:26:14.000Z</time>
      </trkpt>
      <trkpt lat="44.08693" lon="7.10286">
        <ele>586.79998779297</ele>
        <time>2020-07-30T07:26:18.000Z</time>
      </trkpt>
      <trkpt lat="44.08696" lon="7.10284">
        <ele>587</ele>
        <time>2020-07-30T07:26:19.000Z</time>
      </trkpt>
      <trkpt lat="44.08707" lon="7.1028">
        <ele>588</ele>
        <time>2020-07-30T07:26:23.000Z</time>
      </trkpt>
      <trkpt lat="44.08715" lon="7.10279">
        <ele>588.79998779297</ele>
        <time>2020-07-30T07:26:26.000Z</time>
      </trkpt>
      <trkpt lat="44.08718" lon="7.10278">
        <ele>589.20001220703</ele>
        <time>2020-07-30T07:26:27.000Z</time>
      </trkpt>
      <trkpt lat="44.08732" lon="7.10278">
        <ele>590.20001220703</ele>
        <time>2020-07-30T07:26:32.000Z</time>
      </trkpt>
      <trkpt lat="44.08741" lon="7.10276">
        <ele>591</ele>
        <time>2020-07-30T07:26:35.000Z</time>
      </trkpt>
      <trkpt lat="44.08746" lon="7.10276">
        <ele>591.59997558594</ele>
        <time>2020-07-30T07:26:37.000Z</time>
      </trkpt>
      <trkpt lat="44.08758" lon="7.10275">
        <ele>592.59997558594</ele>
        <time>2020-07-30T07:26:41.000Z</time>
      </trkpt>
      <trkpt lat="44.08769" lon="7.10277">
        <ele>593.40002441406</ele>
        <time>2020-07-30T07:26:45.000Z</time>
      </trkpt>
      <trkpt lat="44.08775" lon="7.10279">
        <ele>593.59997558594</ele>
        <time>2020-07-30T07:26:47.000Z</time>
      </trkpt>
      <trkpt lat="44.08788" lon="7.10284">
        <ele>594.59997558594</ele>
        <time>2020-07-30T07:26:52.000Z</time>
      </trkpt>
      <trkpt lat="44.08797" lon="7.10288">
        <ele>595.40002441406</ele>
        <time>2020-07-30T07:26:55.000Z</time>
      </trkpt>
      <trkpt lat="44.08802" lon="7.10291">
        <ele>595.79998779297</ele>
        <time>2020-07-30T07:26:57.000Z</time>
      </trkpt>
      <trkpt lat="44.08816" lon="7.10294">
        <ele>597</ele>
        <time>2020-07-30T07:27:02.000Z</time>
      </trkpt>
      <trkpt lat="44.08828" lon="7.10293">
        <ele>598</ele>
        <time>2020-07-30T07:27:06.000Z</time>
      </trkpt>
      <trkpt lat="44.08833" lon="7.10295">
        <ele>598.40002441406</ele>
        <time>2020-07-30T07:27:08.000Z</time>
      </trkpt>
      <trkpt lat="44.08841" lon="7.10302">
        <ele>599</ele>
        <time>2020-07-30T07:27:11.000Z</time>
      </trkpt>
      <trkpt lat="44.08847" lon="7.1031">
        <ele>599.79998779297</ele>
        <time>2020-07-30T07:27:14.000Z</time>
      </trkpt>
      <trkpt lat="44.08849" lon="7.10313">
        <ele>600</ele>
        <time>2020-07-30T07:27:15.000Z</time>
      </trkpt>
      <trkpt lat="44.08862" lon="7.1032">
        <ele>600.79998779297</ele>
        <time>2020-07-30T07:27:20.000Z</time>
      </trkpt>
      <trkpt lat="44.08866" lon="7.10316">
        <ele>601</ele>
        <time>2020-07-30T07:27:22.000Z</time>
      </trkpt>
      <trkpt lat="44.08866" lon="7.10312">
        <ele>601.40002441406</ele>
        <time>2020-07-30T07:27:23.000Z</time>
      </trkpt>
      <trkpt lat="44.08862" lon="7.10302">
        <ele>602.20001220703</ele>
        <time>2020-07-30T07:27:26.000Z</time>
      </trkpt>
      <trkpt lat="44.0886" lon="7.10299">
        <ele>602.59997558594</ele>
        <time>2020-07-30T07:27:27.000Z</time>
      </trkpt>
      <trkpt lat="44.08855" lon="7.10292">
        <ele>603.20001220703</ele>
        <time>2020-07-30T07:27:29.000Z</time>
      </trkpt>
      <trkpt lat="44.08843" lon="7.10278">
        <ele>604.20001220703</ele>
        <time>2020-07-30T07:27:34.000Z</time>
      </trkpt>
      <trkpt lat="44.0884" lon="7.10275">
        <ele>604.40002441406</ele>
        <time>2020-07-30T07:27:35.000Z</time>
      </trkpt>
      <trkpt lat="44.08827" lon="7.10272">
        <ele>605</ele>
        <time>2020-07-30T07:27:39.000Z</time>
      </trkpt>
      <trkpt lat="44.08817" lon="7.1027">
        <ele>605.59997558594</ele>
        <time>2020-07-30T07:27:42.000Z</time>
      </trkpt>
      <trkpt lat="44.08809" lon="7.10263">
        <ele>606.20001220703</ele>
        <time>2020-07-30T07:27:45.000Z</time>
      </trkpt>
      <trkpt lat="44.08805" lon="7.10258">
        <ele>606.79998779297</ele>
        <time>2020-07-30T07:27:47.000Z</time>
      </trkpt>
      <trkpt lat="44.08798" lon="7.10247">
        <ele>608</ele>
        <time>2020-07-30T07:27:51.000Z</time>
      </trkpt>
      <trkpt lat="44.08794" lon="7.10241">
        <ele>608.40002441406</ele>
        <time>2020-07-30T07:27:53.000Z</time>
      </trkpt>
      <trkpt lat="44.08789" lon="7.10233">
        <ele>609.20001220703</ele>
        <time>2020-07-30T07:27:56.000Z</time>
      </trkpt>
      <trkpt lat="44.08778" lon="7.10221">
        <ele>610.40002441406</ele>
        <time>2020-07-30T07:28:01.000Z</time>
      </trkpt>
      <trkpt lat="44.08765" lon="7.10217">
        <ele>611.40002441406</ele>
        <time>2020-07-30T07:28:06.000Z</time>
      </trkpt>
      <trkpt lat="44.08763" lon="7.10217">
        <ele>611.59997558594</ele>
        <time>2020-07-30T07:28:07.000Z</time>
      </trkpt>
      <trkpt lat="44.08754" lon="7.10218">
        <ele>612.40002441406</ele>
        <time>2020-07-30T07:28:10.000Z</time>
      </trkpt>
      <trkpt lat="44.08737" lon="7.10223">
        <ele>613.40002441406</ele>
        <time>2020-07-30T07:28:16.000Z</time>
      </trkpt>
      <trkpt lat="44.08721" lon="7.10227">
        <ele>614.59997558594</ele>
        <time>2020-07-30T07:28:22.000Z</time>
      </trkpt>
      <trkpt lat="44.08715" lon="7.10228">
        <ele>615.20001220703</ele>
        <time>2020-07-30T07:28:24.000Z</time>
      </trkpt>
      <trkpt lat="44.08707" lon="7.10228">
        <ele>615.79998779297</ele>
        <time>2020-07-30T07:28:27.000Z</time>
      </trkpt>
      <trkpt lat="44.08693" lon="7.10228">
        <ele>616.79998779297</ele>
        <time>2020-07-30T07:28:32.000Z</time>
      </trkpt>
      <trkpt lat="44.0869" lon="7.10227">
        <ele>617</ele>
        <time>2020-07-30T07:28:33.000Z</time>
      </trkpt>
      <trkpt lat="44.08673" lon="7.1022">
        <ele>618.20001220703</ele>
        <time>2020-07-30T07:28:39.000Z</time>
      </trkpt>
      <trkpt lat="44.0866" lon="7.10211">
        <ele>619.40002441406</ele>
        <time>2020-07-30T07:28:44.000Z</time>
      </trkpt>
      <trkpt lat="44.08656" lon="7.10206">
        <ele>619.79998779297</ele>
        <time>2020-07-30T07:28:46.000Z</time>
      </trkpt>
      <trkpt lat="44.08651" lon="7.10196">
        <ele>620.40002441406</ele>
        <time>2020-07-30T07:28:49.000Z</time>
      </trkpt>
      <trkpt lat="44.08645" lon="7.10181">
        <ele>621.59997558594</ele>
        <time>2020-07-30T07:28:53.000Z</time>
      </trkpt>
      <trkpt lat="44.0864" lon="7.10162">
        <ele>622.59997558594</ele>
        <time>2020-07-30T07:28:58.000Z</time>
      </trkpt>
      <trkpt lat="44.08637" lon="7.10147">
        <ele>623.59997558594</ele>
        <time>2020-07-30T07:29:02.000Z</time>
      </trkpt>
      <trkpt lat="44.08637" lon="7.10143">
        <ele>624</ele>
        <time>2020-07-30T07:29:03.000Z</time>
      </trkpt>
      <trkpt lat="44.08634" lon="7.10127">
        <ele>624.79998779297</ele>
        <time>2020-07-30T07:29:07.000Z</time>
      </trkpt>
      <trkpt lat="44.08631" lon="7.10112">
        <ele>625.79998779297</ele>
        <time>2020-07-30T07:29:11.000Z</time>
      </trkpt>
      <trkpt lat="44.08631" lon="7.10109">
        <ele>626</ele>
        <time>2020-07-30T07:29:12.000Z</time>
      </trkpt>
      <trkpt lat="44.0863" lon="7.1009">
        <ele>627</ele>
        <time>2020-07-30T07:29:17.000Z</time>
      </trkpt>
      <trkpt lat="44.08629" lon="7.10082">
        <ele>627.59997558594</ele>
        <time>2020-07-30T07:29:19.000Z</time>
      </trkpt>
      <trkpt lat="44.08627" lon="7.10074">
        <ele>628</ele>
        <time>2020-07-30T07:29:21.000Z</time>
      </trkpt>
      <trkpt lat="44.08621" lon="7.10061">
        <ele>628.79998779297</ele>
        <time>2020-07-30T07:29:25.000Z</time>
      </trkpt>
      <trkpt lat="44.08619" lon="7.10058">
        <ele>629.20001220703</ele>
        <time>2020-07-30T07:29:26.000Z</time>
      </trkpt>
      <trkpt lat="44.0861" lon="7.10043">
        <ele>630.20001220703</ele>
        <time>2020-07-30T07:29:31.000Z</time>
      </trkpt>
      <trkpt lat="44.08606" lon="7.10036">
        <ele>630.59997558594</ele>
        <time>2020-07-30T07:29:33.000Z</time>
      </trkpt>
      <trkpt lat="44.08602" lon="7.10027">
        <ele>631.20001220703</ele>
        <time>2020-07-30T07:29:36.000Z</time>
      </trkpt>
      <trkpt lat="44.08594" lon="7.10011">
        <ele>632.40002441406</ele>
        <time>2020-07-30T07:29:41.000Z</time>
      </trkpt>
      <trkpt lat="44.08588" lon="7.09995">
        <ele>633.59997558594</ele>
        <time>2020-07-30T07:29:46.000Z</time>
      </trkpt>
      <trkpt lat="44.0858" lon="7.09984">
        <ele>634.59997558594</ele>
        <time>2020-07-30T07:29:50.000Z</time>
      </trkpt>
      <trkpt lat="44.08568" lon="7.09974">
        <ele>635.79998779297</ele>
        <time>2020-07-30T07:29:55.000Z</time>
      </trkpt>
      <trkpt lat="44.08563" lon="7.09972">
        <ele>636.20001220703</ele>
        <time>2020-07-30T07:29:57.000Z</time>
      </trkpt>
      <trkpt lat="44.08555" lon="7.0997">
        <ele>636.79998779297</ele>
        <time>2020-07-30T07:30:00.000Z</time>
      </trkpt>
      <trkpt lat="44.08545" lon="7.09965">
        <ele>638</ele>
        <time>2020-07-30T07:30:04.000Z</time>
      </trkpt>
      <trkpt lat="44.0854" lon="7.0996">
        <ele>638.40002441406</ele>
        <time>2020-07-30T07:30:06.000Z</time>
      </trkpt>
      <trkpt lat="44.08534" lon="7.09952">
        <ele>639.20001220703</ele>
        <time>2020-07-30T07:30:09.000Z</time>
      </trkpt>
      <trkpt lat="44.08524" lon="7.09939">
        <ele>640.20001220703</ele>
        <time>2020-07-30T07:30:14.000Z</time>
      </trkpt>
      <trkpt lat="44.0852" lon="7.09934">
        <ele>640.79998779297</ele>
        <time>2020-07-30T07:30:16.000Z</time>
      </trkpt>
      <trkpt lat="44.08513" lon="7.09925">
        <ele>641.40002441406</ele>
        <time>2020-07-30T07:30:19.000Z</time>
      </trkpt>
      <trkpt lat="44.08501" lon="7.09911">
        <ele>642.59997558594</ele>
        <time>2020-07-30T07:30:25.000Z</time>
      </trkpt>
      <trkpt lat="44.08499" lon="7.09909">
        <ele>642.79998779297</ele>
        <time>2020-07-30T07:30:26.000Z</time>
      </trkpt>
      <trkpt lat="44.08488" lon="7.09905">
        <ele>643.59997558594</ele>
        <time>2020-07-30T07:30:30.000Z</time>
      </trkpt>
      <trkpt lat="44.08477" lon="7.099">
        <ele>644.59997558594</ele>
        <time>2020-07-30T07:30:34.000Z</time>
      </trkpt>
      <trkpt lat="44.08474" lon="7.09899">
        <ele>644.59997558594</ele>
        <time>2020-07-30T07:30:35.000Z</time>
      </trkpt>
      <trkpt lat="44.08463" lon="7.09889">
        <ele>645.79998779297</ele>
        <time>2020-07-30T07:30:40.000Z</time>
      </trkpt>
      <trkpt lat="44.08461" lon="7.09887">
        <ele>646</ele>
        <time>2020-07-30T07:30:41.000Z</time>
      </trkpt>
      <trkpt lat="44.08452" lon="7.09878">
        <ele>646.79998779297</ele>
        <time>2020-07-30T07:30:45.000Z</time>
      </trkpt>
      <trkpt lat="44.08443" lon="7.09871">
        <ele>648</ele>
        <time>2020-07-30T07:30:49.000Z</time>
      </trkpt>
      <trkpt lat="44.08438" lon="7.09868">
        <ele>648.40002441406</ele>
        <time>2020-07-30T07:30:51.000Z</time>
      </trkpt>
      <trkpt lat="44.08428" lon="7.09864">
        <ele>649.20001220703</ele>
        <time>2020-07-30T07:30:55.000Z</time>
      </trkpt>
      <trkpt lat="44.08412" lon="7.0986">
        <ele>650.40002441406</ele>
        <time>2020-07-30T07:31:01.000Z</time>
      </trkpt>
      <trkpt lat="44.08398" lon="7.09859">
        <ele>651.40002441406</ele>
        <time>2020-07-30T07:31:06.000Z</time>
      </trkpt>
      <trkpt lat="44.08393" lon="7.0986">
        <ele>651.79998779297</ele>
        <time>2020-07-30T07:31:08.000Z</time>
      </trkpt>
      <trkpt lat="44.08384" lon="7.0986">
        <ele>652.40002441406</ele>
        <time>2020-07-30T07:31:11.000Z</time>
      </trkpt>
      <trkpt lat="44.08377" lon="7.09854">
        <ele>653.20001220703</ele>
        <time>2020-07-30T07:31:14.000Z</time>
      </trkpt>
      <trkpt lat="44.08374" lon="7.09848">
        <ele>653.59997558594</ele>
        <time>2020-07-30T07:31:16.000Z</time>
      </trkpt>
      <trkpt lat="44.08372" lon="7.09836">
        <ele>654.20001220703</ele>
        <time>2020-07-30T07:31:19.000Z</time>
      </trkpt>
      <trkpt lat="44.08371" lon="7.09829">
        <ele>654.59997558594</ele>
        <time>2020-07-30T07:31:21.000Z</time>
      </trkpt>
      <trkpt lat="44.08371" lon="7.09809">
        <ele>655.79998779297</ele>
        <time>2020-07-30T07:31:26.000Z</time>
      </trkpt>
      <trkpt lat="44.08371" lon="7.09806">
        <ele>656</ele>
        <time>2020-07-30T07:31:27.000Z</time>
      </trkpt>
      <trkpt lat="44.08379" lon="7.0979">
        <ele>657</ele>
        <time>2020-07-30T07:31:32.000Z</time>
      </trkpt>
      <trkpt lat="44.08388" lon="7.09784">
        <ele>658</ele>
        <time>2020-07-30T07:31:36.000Z</time>
      </trkpt>
      <trkpt lat="44.08393" lon="7.09782">
        <ele>658.40002441406</ele>
        <time>2020-07-30T07:31:38.000Z</time>
      </trkpt>
      <trkpt lat="44.08401" lon="7.09779">
        <ele>659.20001220703</ele>
        <time>2020-07-30T07:31:41.000Z</time>
      </trkpt>
      <trkpt lat="44.08412" lon="7.0977">
        <ele>660.20001220703</ele>
        <time>2020-07-30T07:31:46.000Z</time>
      </trkpt>
      <trkpt lat="44.08423" lon="7.09756">
        <ele>661.40002441406</ele>
        <time>2020-07-30T07:31:52.000Z</time>
      </trkpt>
      <trkpt lat="44.08429" lon="7.09749">
        <ele>662</ele>
        <time>2020-07-30T07:31:55.000Z</time>
      </trkpt>
      <trkpt lat="44.08432" lon="7.09743">
        <ele>662.40002441406</ele>
        <time>2020-07-30T07:31:57.000Z</time>
      </trkpt>
      <trkpt lat="44.08439" lon="7.09726">
        <ele>663.40002441406</ele>
        <time>2020-07-30T07:32:02.000Z</time>
      </trkpt>
      <trkpt lat="44.0844" lon="7.09722">
        <ele>663.59997558594</ele>
        <time>2020-07-30T07:32:03.000Z</time>
      </trkpt>
      <trkpt lat="44.08445" lon="7.09708">
        <ele>664.40002441406</ele>
        <time>2020-07-30T07:32:07.000Z</time>
      </trkpt>
      <trkpt lat="44.0845" lon="7.09693">
        <ele>665.40002441406</ele>
        <time>2020-07-30T07:32:11.000Z</time>
      </trkpt>
      <trkpt lat="44.08451" lon="7.09689">
        <ele>665.59997558594</ele>
        <time>2020-07-30T07:32:12.000Z</time>
      </trkpt>
      <trkpt lat="44.08461" lon="7.09669">
        <ele>666.79998779297</ele>
        <time>2020-07-30T07:32:18.000Z</time>
      </trkpt>
      <trkpt lat="44.08471" lon="7.09653">
        <ele>668</ele>
        <time>2020-07-30T07:32:23.000Z</time>
      </trkpt>
      <trkpt lat="44.08477" lon="7.09649">
        <ele>668.40002441406</ele>
        <time>2020-07-30T07:32:25.000Z</time>
      </trkpt>
      <trkpt lat="44.08485" lon="7.09645">
        <ele>669</ele>
        <time>2020-07-30T07:32:28.000Z</time>
      </trkpt>
      <trkpt lat="44.08494" lon="7.09643">
        <ele>669.59997558594</ele>
        <time>2020-07-30T07:32:31.000Z</time>
      </trkpt>
      <trkpt lat="44.085" lon="7.09642">
        <ele>670.20001220703</ele>
        <time>2020-07-30T07:32:33.000Z</time>
      </trkpt>
      <trkpt lat="44.0851" lon="7.09636">
        <ele>671.40002441406</ele>
        <time>2020-07-30T07:32:37.000Z</time>
      </trkpt>
      <trkpt lat="44.08521" lon="7.09623">
        <ele>672.59997558594</ele>
        <time>2020-07-30T07:32:42.000Z</time>
      </trkpt>
      <trkpt lat="44.08523" lon="7.09621">
        <ele>672.79998779297</ele>
        <time>2020-07-30T07:32:43.000Z</time>
      </trkpt>
      <trkpt lat="44.08531" lon="7.0961">
        <ele>673.59997558594</ele>
        <time>2020-07-30T07:32:47.000Z</time>
      </trkpt>
      <trkpt lat="44.08541" lon="7.09595">
        <ele>674.79998779297</ele>
        <time>2020-07-30T07:32:52.000Z</time>
      </trkpt>
      <trkpt lat="44.08543" lon="7.09592">
        <ele>675</ele>
        <time>2020-07-30T07:32:53.000Z</time>
      </trkpt>
      <trkpt lat="44.08551" lon="7.09581">
        <ele>676</ele>
        <time>2020-07-30T07:32:57.000Z</time>
      </trkpt>
      <trkpt lat="44.08557" lon="7.09568">
        <ele>676.79998779297</ele>
        <time>2020-07-30T07:33:01.000Z</time>
      </trkpt>
      <trkpt lat="44.08559" lon="7.09565">
        <ele>677</ele>
        <time>2020-07-30T07:33:02.000Z</time>
      </trkpt>
      <trkpt lat="44.0857" lon="7.09551">
        <ele>678.20001220703</ele>
        <time>2020-07-30T07:33:07.000Z</time>
      </trkpt>
      <trkpt lat="44.08574" lon="7.09545">
        <ele>678.59997558594</ele>
        <time>2020-07-30T07:33:09.000Z</time>
      </trkpt>
      <trkpt lat="44.0858" lon="7.09536">
        <ele>679.40002441406</ele>
        <time>2020-07-30T07:33:12.000Z</time>
      </trkpt>
      <trkpt lat="44.08589" lon="7.0952">
        <ele>680.59997558594</ele>
        <time>2020-07-30T07:33:17.000Z</time>
      </trkpt>
      <trkpt lat="44.08595" lon="7.09511">
        <ele>681.20001220703</ele>
        <time>2020-07-30T07:33:20.000Z</time>
      </trkpt>
      <trkpt lat="44.08599" lon="7.09506">
        <ele>681.59997558594</ele>
        <time>2020-07-30T07:33:22.000Z</time>
      </trkpt>
      <trkpt lat="44.08606" lon="7.09493">
        <ele>682.59997558594</ele>
        <time>2020-07-30T07:33:26.000Z</time>
      </trkpt>
      <trkpt lat="44.08614" lon="7.09481">
        <ele>683.59997558594</ele>
        <time>2020-07-30T07:33:30.000Z</time>
      </trkpt>
      <trkpt lat="44.08615" lon="7.09478">
        <ele>683.79998779297</ele>
        <time>2020-07-30T07:33:31.000Z</time>
      </trkpt>
      <trkpt lat="44.08623" lon="7.09462">
        <ele>684.79998779297</ele>
        <time>2020-07-30T07:33:36.000Z</time>
      </trkpt>
      <trkpt lat="44.08629" lon="7.09449">
        <ele>685.79998779297</ele>
        <time>2020-07-30T07:33:40.000Z</time>
      </trkpt>
      <trkpt lat="44.0863" lon="7.09445">
        <ele>686</ele>
        <time>2020-07-30T07:33:41.000Z</time>
      </trkpt>
      <trkpt lat="44.08635" lon="7.0943">
        <ele>687</ele>
        <time>2020-07-30T07:33:45.000Z</time>
      </trkpt>
      <trkpt lat="44.08638" lon="7.09419">
        <ele>687.59997558594</ele>
        <time>2020-07-30T07:33:48.000Z</time>
      </trkpt>
      <trkpt lat="44.0864" lon="7.09407">
        <ele>688.20001220703</ele>
        <time>2020-07-30T07:33:51.000Z</time>
      </trkpt>
      <trkpt lat="44.08643" lon="7.09388">
        <ele>689.40002441406</ele>
        <time>2020-07-30T07:33:56.000Z</time>
      </trkpt>
      <trkpt lat="44.08644" lon="7.09384">
        <ele>689.59997558594</ele>
        <time>2020-07-30T07:33:57.000Z</time>
      </trkpt>
      <trkpt lat="44.08649" lon="7.0937">
        <ele>690.40002441406</ele>
        <time>2020-07-30T07:34:01.000Z</time>
      </trkpt>
      <trkpt lat="44.08655" lon="7.09356">
        <ele>691.59997558594</ele>
        <time>2020-07-30T07:34:05.000Z</time>
      </trkpt>
      <trkpt lat="44.08658" lon="7.0934">
        <ele>692.59997558594</ele>
        <time>2020-07-30T07:34:09.000Z</time>
      </trkpt>
      <trkpt lat="44.08659" lon="7.09328">
        <ele>693.20001220703</ele>
        <time>2020-07-30T07:34:12.000Z</time>
      </trkpt>
      <trkpt lat="44.08658" lon="7.0932">
        <ele>693.59997558594</ele>
        <time>2020-07-30T07:34:14.000Z</time>
      </trkpt>
      <trkpt lat="44.08655" lon="7.09308">
        <ele>694.20001220703</ele>
        <time>2020-07-30T07:34:17.000Z</time>
      </trkpt>
      <trkpt lat="44.08651" lon="7.09298">
        <ele>694.79998779297</ele>
        <time>2020-07-30T07:34:20.000Z</time>
      </trkpt>
      <trkpt lat="44.08645" lon="7.09285">
        <ele>696</ele>
        <time>2020-07-30T07:34:24.000Z</time>
      </trkpt>
      <trkpt lat="44.08644" lon="7.09282">
        <ele>696.20001220703</ele>
        <time>2020-07-30T07:34:25.000Z</time>
      </trkpt>
      <trkpt lat="44.08641" lon="7.09266">
        <ele>697</ele>
        <time>2020-07-30T07:34:29.000Z</time>
      </trkpt>
      <trkpt lat="44.08641" lon="7.09262">
        <ele>697.20001220703</ele>
        <time>2020-07-30T07:34:30.000Z</time>
      </trkpt>
      <trkpt lat="44.08642" lon="7.09249">
        <ele>698</ele>
        <time>2020-07-30T07:34:33.000Z</time>
      </trkpt>
      <trkpt lat="44.08644" lon="7.09238">
        <ele>699</ele>
        <time>2020-07-30T07:34:36.000Z</time>
      </trkpt>
      <trkpt lat="44.08645" lon="7.0923">
        <ele>699.59997558594</ele>
        <time>2020-07-30T07:34:38.000Z</time>
      </trkpt>
      <trkpt lat="44.08646" lon="7.09223">
        <ele>700</ele>
        <time>2020-07-30T07:34:40.000Z</time>
      </trkpt>
      <trkpt lat="44.08648" lon="7.09208">
        <ele>701.20001220703</ele>
        <time>2020-07-30T07:34:44.000Z</time>
      </trkpt>
      <trkpt lat="44.08651" lon="7.09193">
        <ele>702</ele>
        <time>2020-07-30T07:34:48.000Z</time>
      </trkpt>
      <trkpt lat="44.08653" lon="7.09186">
        <ele>702.40002441406</ele>
        <time>2020-07-30T07:34:50.000Z</time>
      </trkpt>
      <trkpt lat="44.08657" lon="7.09168">
        <ele>703.40002441406</ele>
        <time>2020-07-30T07:34:55.000Z</time>
      </trkpt>
      <trkpt lat="44.08658" lon="7.09165">
        <ele>703.59997558594</ele>
        <time>2020-07-30T07:34:56.000Z</time>
      </trkpt>
      <trkpt lat="44.08658" lon="7.0915">
        <ele>704.40002441406</ele>
        <time>2020-07-30T07:35:00.000Z</time>
      </trkpt>
      <trkpt lat="44.08658" lon="7.09135">
        <ele>705.40002441406</ele>
        <time>2020-07-30T07:35:04.000Z</time>
      </trkpt>
      <trkpt lat="44.08657" lon="7.09131">
        <ele>705.59997558594</ele>
        <time>2020-07-30T07:35:05.000Z</time>
      </trkpt>
      <trkpt lat="44.08656" lon="7.09113">
        <ele>706.79998779297</ele>
        <time>2020-07-30T07:35:10.000Z</time>
      </trkpt>
      <trkpt lat="44.08654" lon="7.09094">
        <ele>707.79998779297</ele>
        <time>2020-07-30T07:35:15.000Z</time>
      </trkpt>
      <trkpt lat="44.08651" lon="7.09087">
        <ele>708.40002441406</ele>
        <time>2020-07-30T07:35:17.000Z</time>
      </trkpt>
      <trkpt lat="44.08646" lon="7.09078">
        <ele>709</ele>
        <time>2020-07-30T07:35:20.000Z</time>
      </trkpt>
      <trkpt lat="44.08638" lon="7.09063">
        <ele>710.20001220703</ele>
        <time>2020-07-30T07:35:25.000Z</time>
      </trkpt>
      <trkpt lat="44.08634" lon="7.09049">
        <ele>711.20001220703</ele>
        <time>2020-07-30T07:35:29.000Z</time>
      </trkpt>
      <trkpt lat="44.08566" lon="7.08962">
        <ele>717</ele>
        <time>2020-07-30T07:36:00.000Z</time>
      </trkpt>
      <trkpt lat="44.08564" lon="7.08971">
        <ele>717.79998779297</ele>
        <time>2020-07-30T07:36:04.000Z</time>
      </trkpt>
      <trkpt lat="44.08561" lon="7.08971">
        <ele>718</ele>
        <time>2020-07-30T07:36:05.000Z</time>
      </trkpt>
      <trkpt lat="44.08539" lon="7.08957">
        <ele>718.79998779297</ele>
        <time>2020-07-30T07:36:10.000Z</time>
      </trkpt>
      <trkpt lat="44.0853" lon="7.0895">
        <ele>719.59997558594</ele>
        <time>2020-07-30T07:36:13.000Z</time>
      </trkpt>
      <trkpt lat="44.08527" lon="7.08948">
        <ele>719.79998779297</ele>
        <time>2020-07-30T07:36:14.000Z</time>
      </trkpt>
      <trkpt lat="44.0852" lon="7.08934">
        <ele>721</ele>
        <time>2020-07-30T07:36:18.000Z</time>
      </trkpt>
      <trkpt lat="44.08518" lon="7.08926">
        <ele>721.59997558594</ele>
        <time>2020-07-30T07:36:20.000Z</time>
      </trkpt>
      <trkpt lat="44.08517" lon="7.08918">
        <ele>722</ele>
        <time>2020-07-30T07:36:22.000Z</time>
      </trkpt>
      <trkpt lat="44.08519" lon="7.08905">
        <ele>722.79998779297</ele>
        <time>2020-07-30T07:36:25.000Z</time>
      </trkpt>
      <trkpt lat="44.08521" lon="7.08896">
        <ele>723.20001220703</ele>
        <time>2020-07-30T07:36:27.000Z</time>
      </trkpt>
      <trkpt lat="44.08526" lon="7.08871">
        <ele>724.40002441406</ele>
        <time>2020-07-30T07:36:33.000Z</time>
      </trkpt>
      <trkpt lat="44.08527" lon="7.08867">
        <ele>724.59997558594</ele>
        <time>2020-07-30T07:36:34.000Z</time>
      </trkpt>
      <trkpt lat="44.08529" lon="7.08855">
        <ele>725.59997558594</ele>
        <time>2020-07-30T07:36:37.000Z</time>
      </trkpt>
      <trkpt lat="44.08531" lon="7.08838">
        <ele>726.59997558594</ele>
        <time>2020-07-30T07:36:41.000Z</time>
      </trkpt>
      <trkpt lat="44.08534" lon="7.08814">
        <ele>727.59997558594</ele>
        <time>2020-07-30T07:36:47.000Z</time>
      </trkpt>
      <trkpt lat="44.08537" lon="7.0879">
        <ele>728.79998779297</ele>
        <time>2020-07-30T07:36:53.000Z</time>
      </trkpt>
      <trkpt lat="44.08539" lon="7.0877">
        <ele>729.79998779297</ele>
        <time>2020-07-30T07:36:58.000Z</time>
      </trkpt>
      <trkpt lat="44.0854" lon="7.08762">
        <ele>730.40002441406</ele>
        <time>2020-07-30T07:37:00.000Z</time>
      </trkpt>
      <trkpt lat="44.08542" lon="7.0875">
        <ele>731</ele>
        <time>2020-07-30T07:37:03.000Z</time>
      </trkpt>
      <trkpt lat="44.08541" lon="7.08734">
        <ele>732.20001220703</ele>
        <time>2020-07-30T07:37:07.000Z</time>
      </trkpt>
      <trkpt lat="44.08541" lon="7.0873">
        <ele>732.40002441406</ele>
        <time>2020-07-30T07:37:08.000Z</time>
      </trkpt>
      <trkpt lat="44.08538" lon="7.08714">
        <ele>733.20001220703</ele>
        <time>2020-07-30T07:37:12.000Z</time>
      </trkpt>
      <trkpt lat="44.08534" lon="7.08695">
        <ele>734.40002441406</ele>
        <time>2020-07-30T07:37:17.000Z</time>
      </trkpt>
      <trkpt lat="44.08534" lon="7.08691">
        <ele>734.40002441406</ele>
        <time>2020-07-30T07:37:18.000Z</time>
      </trkpt>
      <trkpt lat="44.0853" lon="7.08672">
        <ele>735.40002441406</ele>
        <time>2020-07-30T07:37:23.000Z</time>
      </trkpt>
      <trkpt lat="44.08529" lon="7.0866">
        <ele>736</ele>
        <time>2020-07-30T07:37:26.000Z</time>
      </trkpt>
      <trkpt lat="44.0853" lon="7.08648">
        <ele>736.59997558594</ele>
        <time>2020-07-30T07:37:29.000Z</time>
      </trkpt>
      <trkpt lat="44.0853" lon="7.08633">
        <ele>737.40002441406</ele>
        <time>2020-07-30T07:37:33.000Z</time>
      </trkpt>
      <trkpt lat="44.0853" lon="7.08629">
        <ele>737.79998779297</ele>
        <time>2020-07-30T07:37:34.000Z</time>
      </trkpt>
      <trkpt lat="44.08527" lon="7.0861">
        <ele>739</ele>
        <time>2020-07-30T07:37:39.000Z</time>
      </trkpt>
      <trkpt lat="44.08525" lon="7.08599">
        <ele>739.40002441406</ele>
        <time>2020-07-30T07:37:42.000Z</time>
      </trkpt>
      <trkpt lat="44.08524" lon="7.08587">
        <ele>740</ele>
        <time>2020-07-30T07:37:45.000Z</time>
      </trkpt>
      <trkpt lat="44.08522" lon="7.08569">
        <ele>741</ele>
        <time>2020-07-30T07:37:50.000Z</time>
      </trkpt>
      <trkpt lat="44.08521" lon="7.08561">
        <ele>741.40002441406</ele>
        <time>2020-07-30T07:37:52.000Z</time>
      </trkpt>
      <trkpt lat="44.0852" lon="7.0855">
        <ele>742.20001220703</ele>
        <time>2020-07-30T07:37:55.000Z</time>
      </trkpt>
      <trkpt lat="44.08519" lon="7.08532">
        <ele>743.20001220703</ele>
        <time>2020-07-30T07:38:00.000Z</time>
      </trkpt>
      <trkpt lat="44.08518" lon="7.08529">
        <ele>743.40002441406</ele>
        <time>2020-07-30T07:38:01.000Z</time>
      </trkpt>
      <trkpt lat="44.08518" lon="7.08506">
        <ele>744.40002441406</ele>
        <time>2020-07-30T07:38:07.000Z</time>
      </trkpt>
      <trkpt lat="44.08519" lon="7.08494">
        <ele>745</ele>
        <time>2020-07-30T07:38:10.000Z</time>
      </trkpt>
      <trkpt lat="44.08523" lon="7.08483">
        <ele>745.40002441406</ele>
        <time>2020-07-30T07:38:13.000Z</time>
      </trkpt>
      <trkpt lat="44.08527" lon="7.08477">
        <ele>746</ele>
        <time>2020-07-30T07:38:15.000Z</time>
      </trkpt>
      <trkpt lat="44.08532" lon="7.08473">
        <ele>746.59997558594</ele>
        <time>2020-07-30T07:38:17.000Z</time>
      </trkpt>
      <trkpt lat="44.08543" lon="7.08464">
        <ele>747.59997558594</ele>
        <time>2020-07-30T07:38:22.000Z</time>
      </trkpt>
      <trkpt lat="44.08545" lon="7.08462">
        <ele>747.79998779297</ele>
        <time>2020-07-30T07:38:23.000Z</time>
      </trkpt>
      <trkpt lat="44.08555" lon="7.08453">
        <ele>748.79998779297</ele>
        <time>2020-07-30T07:38:28.000Z</time>
      </trkpt>
      <trkpt lat="44.08563" lon="7.08448">
        <ele>749.20001220703</ele>
        <time>2020-07-30T07:38:31.000Z</time>
      </trkpt>
      <trkpt lat="44.08574" lon="7.08442">
        <ele>750</ele>
        <time>2020-07-30T07:38:35.000Z</time>
      </trkpt>
      <trkpt lat="44.08581" lon="7.0844">
        <ele>750.79998779297</ele>
        <time>2020-07-30T07:38:38.000Z</time>
      </trkpt>
      <trkpt lat="44.08584" lon="7.08438">
        <ele>751.20001220703</ele>
        <time>2020-07-30T07:38:39.000Z</time>
      </trkpt>
      <trkpt lat="44.08593" lon="7.08429">
        <ele>752.20001220703</ele>
        <time>2020-07-30T07:38:43.000Z</time>
      </trkpt>
      <trkpt lat="44.08596" lon="7.08427">
        <ele>752.40002441406</ele>
        <time>2020-07-30T07:38:44.000Z</time>
      </trkpt>
      <trkpt lat="44.0864" lon="7.08368">
        <ele>756.40002441406</ele>
        <time>2020-07-30T07:39:04.000Z</time>
      </trkpt>
      <trkpt lat="44.08642" lon="7.08364">
        <ele>756.59997558594</ele>
        <time>2020-07-30T07:39:05.000Z</time>
      </trkpt>
      <trkpt lat="44.0865" lon="7.08351">
        <ele>757.79998779297</ele>
        <time>2020-07-30T07:39:09.000Z</time>
      </trkpt>
      <trkpt lat="44.08659" lon="7.0834">
        <ele>758.79998779297</ele>
        <time>2020-07-30T07:39:13.000Z</time>
      </trkpt>
      <trkpt lat="44.0867" lon="7.08325">
        <ele>759.79998779297</ele>
        <time>2020-07-30T07:39:18.000Z</time>
      </trkpt>
      <trkpt lat="44.0868" lon="7.08311">
        <ele>761.20001220703</ele>
        <time>2020-07-30T07:39:23.000Z</time>
      </trkpt>
      <trkpt lat="44.08682" lon="7.08307">
        <ele>761.40002441406</ele>
        <time>2020-07-30T07:39:24.000Z</time>
      </trkpt>
      <trkpt lat="44.0869" lon="7.08297">
        <ele>762.20001220703</ele>
        <time>2020-07-30T07:39:28.000Z</time>
      </trkpt>
      <trkpt lat="44.08695" lon="7.08282">
        <ele>763.20001220703</ele>
        <time>2020-07-30T07:39:32.000Z</time>
      </trkpt>
      <trkpt lat="44.08695" lon="7.08278">
        <ele>763.40002441406</ele>
        <time>2020-07-30T07:39:33.000Z</time>
      </trkpt>
      <trkpt lat="44.08698" lon="7.08267">
        <ele>764</ele>
        <time>2020-07-30T07:39:36.000Z</time>
      </trkpt>
      <trkpt lat="44.08701" lon="7.08267">
        <ele>764.20001220703</ele>
        <time>2020-07-30T07:39:37.000Z</time>
      </trkpt>
      <trkpt lat="44.08702" lon="7.08269">
        <ele>764.40002441406</ele>
        <time>2020-07-30T07:39:38.000Z</time>
      </trkpt>
      <trkpt lat="44.08703" lon="7.08273">
        <ele>764.40002441406</ele>
        <time>2020-07-30T07:39:39.000Z</time>
      </trkpt>
      <trkpt lat="44.087" lon="7.08283">
        <ele>765.20001220703</ele>
        <time>2020-07-30T07:39:42.000Z</time>
      </trkpt>
      <trkpt lat="44.08699" lon="7.08286">
        <ele>765.40002441406</ele>
        <time>2020-07-30T07:39:43.000Z</time>
      </trkpt>
      <trkpt lat="44.08698" lon="7.0829">
        <ele>765.59997558594</ele>
        <time>2020-07-30T07:39:44.000Z</time>
      </trkpt>
      <trkpt lat="44.08689" lon="7.08305">
        <ele>766.40002441406</ele>
        <time>2020-07-30T07:39:49.000Z</time>
      </trkpt>
      <trkpt lat="44.08688" lon="7.08307">
        <ele>766.79998779297</ele>
        <time>2020-07-30T07:39:50.000Z</time>
      </trkpt>
      <trkpt lat="44.0868" lon="7.08318">
        <ele>767.59997558594</ele>
        <time>2020-07-30T07:39:54.000Z</time>
      </trkpt>
      <trkpt lat="44.08668" lon="7.08333">
        <ele>768.79998779297</ele>
        <time>2020-07-30T07:40:00.000Z</time>
      </trkpt>
      <trkpt lat="44.08658" lon="7.08349">
        <ele>770</ele>
        <time>2020-07-30T07:40:06.000Z</time>
      </trkpt>
      <trkpt lat="44.08653" lon="7.08358">
        <ele>770.59997558594</ele>
        <time>2020-07-30T07:40:09.000Z</time>
      </trkpt>
      <trkpt lat="44.0865" lon="7.08368">
        <ele>771.20001220703</ele>
        <time>2020-07-30T07:40:12.000Z</time>
      </trkpt>
      <trkpt lat="44.08642" lon="7.08387">
        <ele>772.40002441406</ele>
        <time>2020-07-30T07:40:18.000Z</time>
      </trkpt>
      <trkpt lat="44.08641" lon="7.08391">
        <ele>772.59997558594</ele>
        <time>2020-07-30T07:40:19.000Z</time>
      </trkpt>
      <trkpt lat="44.08636" lon="7.08403">
        <ele>773.40002441406</ele>
        <time>2020-07-30T07:40:23.000Z</time>
      </trkpt>
      <trkpt lat="44.08631" lon="7.0842">
        <ele>774.59997558594</ele>
        <time>2020-07-30T07:40:28.000Z</time>
      </trkpt>
      <trkpt lat="44.08629" lon="7.08423">
        <ele>774.59997558594</ele>
        <time>2020-07-30T07:40:29.000Z</time>
      </trkpt>
      <trkpt lat="44.0862" lon="7.08437">
        <ele>775.59997558594</ele>
        <time>2020-07-30T07:40:34.000Z</time>
      </trkpt>
      <trkpt lat="44.08614" lon="7.08444">
        <ele>776.40002441406</ele>
        <time>2020-07-30T07:40:37.000Z</time>
      </trkpt>
      <trkpt lat="44.08609" lon="7.08448">
        <ele>776.79998779297</ele>
        <time>2020-07-30T07:40:39.000Z</time>
      </trkpt>
      <trkpt lat="44.08596" lon="7.08461">
        <ele>778</ele>
        <time>2020-07-30T07:40:45.000Z</time>
      </trkpt>
      <trkpt lat="44.08592" lon="7.08466">
        <ele>778.40002441406</ele>
        <time>2020-07-30T07:40:47.000Z</time>
      </trkpt>
      <trkpt lat="44.08582" lon="7.08479">
        <ele>779.20001220703</ele>
        <time>2020-07-30T07:40:52.000Z</time>
      </trkpt>
      <trkpt lat="44.08577" lon="7.08488">
        <ele>779.79998779297</ele>
        <time>2020-07-30T07:40:55.000Z</time>
      </trkpt>
      <trkpt lat="44.08573" lon="7.08493">
        <ele>780.20001220703</ele>
        <time>2020-07-30T07:40:57.000Z</time>
      </trkpt>
      <trkpt lat="44.08565" lon="7.08512">
        <ele>781.40002441406</ele>
        <time>2020-07-30T07:41:03.000Z</time>
      </trkpt>
      <trkpt lat="44.08562" lon="7.0853">
        <ele>782.40002441406</ele>
        <time>2020-07-30T07:41:08.000Z</time>
      </trkpt>
      <trkpt lat="44.08561" lon="7.08544">
        <ele>783.20001220703</ele>
        <time>2020-07-30T07:41:12.000Z</time>
      </trkpt>
      <trkpt lat="44.08561" lon="7.08547">
        <ele>783.59997558594</ele>
        <time>2020-07-30T07:41:13.000Z</time>
      </trkpt>
      <trkpt lat="44.08563" lon="7.08567">
        <ele>784.59997558594</ele>
        <time>2020-07-30T07:41:19.000Z</time>
      </trkpt>
      <trkpt lat="44.08564" lon="7.08576">
        <ele>785.20001220703</ele>
        <time>2020-07-30T07:41:22.000Z</time>
      </trkpt>
      <trkpt lat="44.08567" lon="7.08589">
        <ele>785.79998779297</ele>
        <time>2020-07-30T07:41:26.000Z</time>
      </trkpt>
      <trkpt lat="44.08571" lon="7.086">
        <ele>786.20001220703</ele>
        <time>2020-07-30T07:41:30.000Z</time>
      </trkpt>
      <trkpt lat="44.08574" lon="7.08609">
        <ele>786.79998779297</ele>
        <time>2020-07-30T07:41:33.000Z</time>
      </trkpt>
      <trkpt lat="44.08577" lon="7.08621">
        <ele>787.59997558594</ele>
        <time>2020-07-30T07:41:37.000Z</time>
      </trkpt>
      <trkpt lat="44.08578" lon="7.08628">
        <ele>788</ele>
        <time>2020-07-30T07:41:39.000Z</time>
      </trkpt>
      <trkpt lat="44.0858" lon="7.08646">
        <ele>788.79998779297</ele>
        <time>2020-07-30T07:41:45.000Z</time>
      </trkpt>
      <trkpt lat="44.0858" lon="7.08649">
        <ele>789</ele>
        <time>2020-07-30T07:41:46.000Z</time>
      </trkpt>
      <trkpt lat="44.08587" lon="7.08666">
        <ele>790</ele>
        <time>2020-07-30T07:41:52.000Z</time>
      </trkpt>
      <trkpt lat="44.08592" lon="7.0868">
        <ele>791.20001220703</ele>
        <time>2020-07-30T07:41:57.000Z</time>
      </trkpt>
      <trkpt lat="44.08592" lon="7.08686">
        <ele>791.59997558594</ele>
        <time>2020-07-30T07:41:59.000Z</time>
      </trkpt>
      <trkpt lat="44.08594" lon="7.08694">
        <ele>792.40002441406</ele>
        <time>2020-07-30T07:42:02.000Z</time>
      </trkpt>
      <trkpt lat="44.08595" lon="7.08706">
        <ele>793</ele>
        <time>2020-07-30T07:42:06.000Z</time>
      </trkpt>
      <trkpt lat="44.08596" lon="7.08716">
        <ele>793.40002441406</ele>
        <time>2020-07-30T07:42:09.000Z</time>
      </trkpt>
      <trkpt lat="44.08599" lon="7.08735">
        <ele>794.40002441406</ele>
        <time>2020-07-30T07:42:15.000Z</time>
      </trkpt>
      <trkpt lat="44.08599" lon="7.08738">
        <ele>794.40002441406</ele>
        <time>2020-07-30T07:42:16.000Z</time>
      </trkpt>
      <trkpt lat="44.08602" lon="7.0876">
        <ele>795.59997558594</ele>
        <time>2020-07-30T07:42:23.000Z</time>
      </trkpt>
      <trkpt lat="44.08604" lon="7.08777">
        <ele>796.79998779297</ele>
        <time>2020-07-30T07:42:29.000Z</time>
      </trkpt>
      <trkpt lat="44.08604" lon="7.08783">
        <ele>797</ele>
        <time>2020-07-30T07:42:31.000Z</time>
      </trkpt>
      <trkpt lat="44.08602" lon="7.08796">
        <ele>797.79998779297</ele>
        <time>2020-07-30T07:42:35.000Z</time>
      </trkpt>
      <trkpt lat="44.086" lon="7.08802">
        <ele>798.20001220703</ele>
        <time>2020-07-30T07:42:37.000Z</time>
      </trkpt>
      <trkpt lat="44.08598" lon="7.08817">
        <ele>798.79998779297</ele>
        <time>2020-07-30T07:42:42.000Z</time>
      </trkpt>
      <trkpt lat="44.08594" lon="7.08837">
        <ele>800</ele>
        <time>2020-07-30T07:42:49.000Z</time>
      </trkpt>
      <trkpt lat="44.08593" lon="7.0884">
        <ele>800.20001220703</ele>
        <time>2020-07-30T07:42:50.000Z</time>
      </trkpt>
      <trkpt lat="44.08591" lon="7.08845">
        <ele>800.40002441406</ele>
        <time>2020-07-30T07:42:52.000Z</time>
      </trkpt>
      <trkpt lat="44.08589" lon="7.08854">
        <ele>801</ele>
        <time>2020-07-30T07:42:55.000Z</time>
      </trkpt>
      <trkpt lat="44.0859" lon="7.08859">
        <ele>801.40002441406</ele>
        <time>2020-07-30T07:42:57.000Z</time>
      </trkpt>
      <trkpt lat="44.08594" lon="7.0887">
        <ele>802.20001220703</ele>
        <time>2020-07-30T07:43:01.000Z</time>
      </trkpt>
      <trkpt lat="44.08596" lon="7.08871">
        <ele>802.20001220703</ele>
        <time>2020-07-30T07:43:02.000Z</time>
      </trkpt>
      <trkpt lat="44.08598" lon="7.08872">
        <ele>802.40002441406</ele>
        <time>2020-07-30T07:43:03.000Z</time>
      </trkpt>
      <trkpt lat="44.08609" lon="7.08872">
        <ele>803.20001220703</ele>
        <time>2020-07-30T07:43:08.000Z</time>
      </trkpt>
      <trkpt lat="44.08616" lon="7.08874">
        <ele>803.79998779297</ele>
        <time>2020-07-30T07:43:11.000Z</time>
      </trkpt>
      <trkpt lat="44.08625" lon="7.08879">
        <ele>804.40002441406</ele>
        <time>2020-07-30T07:43:15.000Z</time>
      </trkpt>
      <trkpt lat="44.08629" lon="7.08882">
        <ele>804.79998779297</ele>
        <time>2020-07-30T07:43:17.000Z</time>
      </trkpt>
      <trkpt lat="44.08632" lon="7.08886">
        <ele>805.40002441406</ele>
        <time>2020-07-30T07:43:19.000Z</time>
      </trkpt>
      <trkpt lat="44.08638" lon="7.08893">
        <ele>806</ele>
        <time>2020-07-30T07:43:22.000Z</time>
      </trkpt>
      <trkpt lat="44.08641" lon="7.08903">
        <ele>806.40002441406</ele>
        <time>2020-07-30T07:43:25.000Z</time>
      </trkpt>
      <trkpt lat="44.08642" lon="7.08914">
        <ele>807</ele>
        <time>2020-07-30T07:43:28.000Z</time>
      </trkpt>
      <trkpt lat="44.08643" lon="7.08925">
        <ele>807.59997558594</ele>
        <time>2020-07-30T07:43:31.000Z</time>
      </trkpt>
      <trkpt lat="44.08647" lon="7.08937">
        <ele>808.20001220703</ele>
        <time>2020-07-30T07:43:35.000Z</time>
      </trkpt>
      <trkpt lat="44.08653" lon="7.0894">
        <ele>808.59997558594</ele>
        <time>2020-07-30T07:43:38.000Z</time>
      </trkpt>
      <trkpt lat="44.08655" lon="7.08941">
        <ele>808.59997558594</ele>
        <time>2020-07-30T07:43:39.000Z</time>
      </trkpt>
      <trkpt lat="44.08665" lon="7.08939">
        <ele>809.20001220703</ele>
        <time>2020-07-30T07:43:45.000Z</time>
      </trkpt>
      <trkpt lat="44.08668" lon="7.08937">
        <ele>809.59997558594</ele>
        <time>2020-07-30T07:43:47.000Z</time>
      </trkpt>
      <trkpt lat="44.0867" lon="7.08937">
        <ele>809.79998779297</ele>
        <time>2020-07-30T07:43:48.000Z</time>
      </trkpt>
      <trkpt lat="44.08671" lon="7.08937">
        <ele>809.79998779297</ele>
        <time>2020-07-30T07:43:49.000Z</time>
      </trkpt>
      <trkpt lat="44.08676" lon="7.08936">
        <ele>810.20001220703</ele>
        <time>2020-07-30T07:43:52.000Z</time>
      </trkpt>
      <trkpt lat="44.08679" lon="7.08934">
        <ele>810.40002441406</ele>
        <time>2020-07-30T07:43:54.000Z</time>
      </trkpt>
      <trkpt lat="44.08682" lon="7.08931">
        <ele>810.59997558594</ele>
        <time>2020-07-30T07:43:56.000Z</time>
      </trkpt>
      <trkpt lat="44.08684" lon="7.08928">
        <ele>810.79998779297</ele>
        <time>2020-07-30T07:43:57.000Z</time>
      </trkpt>
      <trkpt lat="44.08687" lon="7.08923">
        <ele>811</ele>
        <time>2020-07-30T07:43:59.000Z</time>
      </trkpt>
      <trkpt lat="44.08692" lon="7.08913">
        <ele>811.79998779297</ele>
        <time>2020-07-30T07:44:03.000Z</time>
      </trkpt>
      <trkpt lat="44.08693" lon="7.0891">
        <ele>812</ele>
        <time>2020-07-30T07:44:04.000Z</time>
      </trkpt>
      <trkpt lat="44.08694" lon="7.08908">
        <ele>812</ele>
        <time>2020-07-30T07:44:05.000Z</time>
      </trkpt>
      <trkpt lat="44.08705" lon="7.08902">
        <ele>812.79998779297</ele>
        <time>2020-07-30T07:44:09.000Z</time>
      </trkpt>
      <trkpt lat="44.08708" lon="7.08903">
        <ele>813</ele>
        <time>2020-07-30T07:44:10.000Z</time>
      </trkpt>
      <trkpt lat="44.08715" lon="7.08908">
        <ele>813.40002441406</ele>
        <time>2020-07-30T07:44:13.000Z</time>
      </trkpt>
      <trkpt lat="44.08717" lon="7.08911">
        <ele>813.59997558594</ele>
        <time>2020-07-30T07:44:14.000Z</time>
      </trkpt>
      <trkpt lat="44.08719" lon="7.08916">
        <ele>814</ele>
        <time>2020-07-30T07:44:16.000Z</time>
      </trkpt>
      <trkpt lat="44.08727" lon="7.08929">
        <ele>814.79998779297</ele>
        <time>2020-07-30T07:44:21.000Z</time>
      </trkpt>
      <trkpt lat="44.08731" lon="7.08932">
        <ele>815</ele>
        <time>2020-07-30T07:44:23.000Z</time>
      </trkpt>
      <trkpt lat="44.08741" lon="7.08945">
        <ele>816.40002441406</ele>
        <time>2020-07-30T07:44:29.000Z</time>
      </trkpt>
      <trkpt lat="44.08747" lon="7.08962">
        <ele>817.40002441406</ele>
        <time>2020-07-30T07:44:35.000Z</time>
      </trkpt>
      <trkpt lat="44.08746" lon="7.08979">
        <ele>818.40002441406</ele>
        <time>2020-07-30T07:44:41.000Z</time>
      </trkpt>
      <trkpt lat="44.08746" lon="7.08984">
        <ele>818.59997558594</ele>
        <time>2020-07-30T07:44:43.000Z</time>
      </trkpt>
      <trkpt lat="44.08743" lon="7.08995">
        <ele>819.40002441406</ele>
        <time>2020-07-30T07:44:48.000Z</time>
      </trkpt>
      <trkpt lat="44.08743" lon="7.08995">
        <ele>819.59997558594</ele>
        <time>2020-07-30T07:44:49.000Z</time>
      </trkpt>
      <trkpt lat="44.08743" lon="7.08994">
        <ele>819.79998779297</ele>
        <time>2020-07-30T07:44:51.000Z</time>
      </trkpt>
      <trkpt lat="44.08743" lon="7.08994">
        <ele>820</ele>
        <time>2020-07-30T07:44:52.000Z</time>
      </trkpt>
      <trkpt lat="44.08743" lon="7.08993">
        <ele>820</ele>
        <time>2020-07-30T07:45:01.000Z</time>
      </trkpt>
      <trkpt lat="44.08742" lon="7.08996">
        <ele>820</ele>
        <time>2020-07-30T07:45:07.000Z</time>
      </trkpt>
      <trkpt lat="44.08742" lon="7.09009">
        <ele>820.20001220703</ele>
        <time>2020-07-30T07:45:13.000Z</time>
      </trkpt>
      <trkpt lat="44.08741" lon="7.09012">
        <ele>820.40002441406</ele>
        <time>2020-07-30T07:45:14.000Z</time>
      </trkpt>
      <trkpt lat="44.08739" lon="7.09032">
        <ele>821.40002441406</ele>
        <time>2020-07-30T07:45:21.000Z</time>
      </trkpt>
      <trkpt lat="44.08739" lon="7.09035">
        <ele>821.59997558594</ele>
        <time>2020-07-30T07:45:22.000Z</time>
      </trkpt>
      <trkpt lat="44.08738" lon="7.09052">
        <ele>822.59997558594</ele>
        <time>2020-07-30T07:45:28.000Z</time>
      </trkpt>
      <trkpt lat="44.08738" lon="7.09061">
        <ele>823</ele>
        <time>2020-07-30T07:45:31.000Z</time>
      </trkpt>
      <trkpt lat="44.08738" lon="7.09073">
        <ele>823.79998779297</ele>
        <time>2020-07-30T07:45:35.000Z</time>
      </trkpt>
      <trkpt lat="44.0874" lon="7.09078">
        <ele>824</ele>
        <time>2020-07-30T07:45:37.000Z</time>
      </trkpt>
      <trkpt lat="44.08745" lon="7.09091">
        <ele>824.79998779297</ele>
        <time>2020-07-30T07:45:42.000Z</time>
      </trkpt>
      <trkpt lat="44.0875" lon="7.09103">
        <ele>825.59997558594</ele>
        <time>2020-07-30T07:45:47.000Z</time>
      </trkpt>
      <trkpt lat="44.08751" lon="7.09108">
        <ele>826</ele>
        <time>2020-07-30T07:45:49.000Z</time>
      </trkpt>
      <trkpt lat="44.08753" lon="7.09116">
        <ele>826.59997558594</ele>
        <time>2020-07-30T07:45:52.000Z</time>
      </trkpt>
      <trkpt lat="44.08755" lon="7.09124">
        <ele>827</ele>
        <time>2020-07-30T07:45:55.000Z</time>
      </trkpt>
      <trkpt lat="44.08757" lon="7.09138">
        <ele>827.79998779297</ele>
        <time>2020-07-30T07:46:00.000Z</time>
      </trkpt>
      <trkpt lat="44.08758" lon="7.09143">
        <ele>828.20001220703</ele>
        <time>2020-07-30T07:46:02.000Z</time>
      </trkpt>
      <trkpt lat="44.08758" lon="7.09157">
        <ele>829</ele>
        <time>2020-07-30T07:46:07.000Z</time>
      </trkpt>
      <trkpt lat="44.08758" lon="7.09162">
        <ele>829.20001220703</ele>
        <time>2020-07-30T07:46:09.000Z</time>
      </trkpt>
      <trkpt lat="44.08759" lon="7.09171">
        <ele>830</ele>
        <time>2020-07-30T07:46:13.000Z</time>
      </trkpt>
      <trkpt lat="44.08758" lon="7.09174">
        <ele>830.20001220703</ele>
        <time>2020-07-30T07:46:16.000Z</time>
      </trkpt>
      <trkpt lat="44.08758" lon="7.09174">
        <ele>830.20001220703</ele>
        <time>2020-07-30T07:46:18.000Z</time>
      </trkpt>
      <trkpt lat="44.08757" lon="7.09173">
        <ele>830.40002441406</ele>
        <time>2020-07-30T07:46:28.000Z</time>
      </trkpt>
      <trkpt lat="44.08758" lon="7.09175">
        <ele>830.59997558594</ele>
        <time>2020-07-30T07:46:35.000Z</time>
      </trkpt>
      <trkpt lat="44.08759" lon="7.09175">
        <ele>830.59997558594</ele>
        <time>2020-07-30T07:46:39.000Z</time>
      </trkpt>
      <trkpt lat="44.08759" lon="7.09176">
        <ele>830.59997558594</ele>
        <time>2020-07-30T07:46:40.000Z</time>
      </trkpt>
      <trkpt lat="44.08768" lon="7.0918">
        <ele>830.40002441406</ele>
        <time>2020-07-30T07:46:44.000Z</time>
      </trkpt>
      <trkpt lat="44.08785" lon="7.09193">
        <ele>831.20001220703</ele>
        <time>2020-07-30T07:46:51.000Z</time>
      </trkpt>
      <trkpt lat="44.08787" lon="7.09196">
        <ele>831.40002441406</ele>
        <time>2020-07-30T07:46:52.000Z</time>
      </trkpt>
      <trkpt lat="44.08796" lon="7.0921">
        <ele>832.40002441406</ele>
        <time>2020-07-30T07:46:57.000Z</time>
      </trkpt>
      <trkpt lat="44.08798" lon="7.09212">
        <ele>832.59997558594</ele>
        <time>2020-07-30T07:46:58.000Z</time>
      </trkpt>
      <trkpt lat="44.08807" lon="7.09222">
        <ele>833.59997558594</ele>
        <time>2020-07-30T07:47:02.000Z</time>
      </trkpt>
      <trkpt lat="44.08814" lon="7.09226">
        <ele>834</ele>
        <time>2020-07-30T07:47:05.000Z</time>
      </trkpt>
      <trkpt lat="44.08822" lon="7.09234">
        <ele>834.79998779297</ele>
        <time>2020-07-30T07:47:09.000Z</time>
      </trkpt>
      <trkpt lat="44.08827" lon="7.09242">
        <ele>835.20001220703</ele>
        <time>2020-07-30T07:47:12.000Z</time>
      </trkpt>
      <trkpt lat="44.08832" lon="7.0925">
        <ele>835.79998779297</ele>
        <time>2020-07-30T07:47:15.000Z</time>
      </trkpt>
      <trkpt lat="44.08835" lon="7.09258">
        <ele>836.40002441406</ele>
        <time>2020-07-30T07:47:18.000Z</time>
      </trkpt>
      <trkpt lat="44.08838" lon="7.09266">
        <ele>837</ele>
        <time>2020-07-30T07:47:21.000Z</time>
      </trkpt>
      <trkpt lat="44.08848" lon="7.09283">
        <ele>838</ele>
        <time>2020-07-30T07:47:28.000Z</time>
      </trkpt>
      <trkpt lat="44.08855" lon="7.09294">
        <ele>838.79998779297</ele>
        <time>2020-07-30T07:47:33.000Z</time>
      </trkpt>
      <trkpt lat="44.08857" lon="7.09296">
        <ele>839</ele>
        <time>2020-07-30T07:47:34.000Z</time>
      </trkpt>
      <trkpt lat="44.08864" lon="7.09312">
        <ele>840.20001220703</ele>
        <time>2020-07-30T07:47:40.000Z</time>
      </trkpt>
      <trkpt lat="44.08865" lon="7.09315">
        <ele>840.20001220703</ele>
        <time>2020-07-30T07:47:41.000Z</time>
      </trkpt>
      <trkpt lat="44.08868" lon="7.09331">
        <ele>841.20001220703</ele>
        <time>2020-07-30T07:47:46.000Z</time>
      </trkpt>
      <trkpt lat="44.08869" lon="7.09334">
        <ele>841.40002441406</ele>
        <time>2020-07-30T07:47:47.000Z</time>
      </trkpt>
      <trkpt lat="44.08872" lon="7.0935">
        <ele>842.20001220703</ele>
        <time>2020-07-30T07:47:52.000Z</time>
      </trkpt>
      <trkpt lat="44.08874" lon="7.09357">
        <ele>842.59997558594</ele>
        <time>2020-07-30T07:47:54.000Z</time>
      </trkpt>
      <trkpt lat="44.08874" lon="7.09371">
        <ele>843.40002441406</ele>
        <time>2020-07-30T07:47:58.000Z</time>
      </trkpt>
      <trkpt lat="44.08872" lon="7.09378">
        <ele>843.59997558594</ele>
        <time>2020-07-30T07:48:00.000Z</time>
      </trkpt>
      <trkpt lat="44.08871" lon="7.09389">
        <ele>844.40002441406</ele>
        <time>2020-07-30T07:48:04.000Z</time>
      </trkpt>
      <trkpt lat="44.08869" lon="7.09395">
        <ele>844.59997558594</ele>
        <time>2020-07-30T07:48:06.000Z</time>
      </trkpt>
      <trkpt lat="44.08867" lon="7.09409">
        <ele>845.40002441406</ele>
        <time>2020-07-30T07:48:11.000Z</time>
      </trkpt>
      <trkpt lat="44.08867" lon="7.09412">
        <ele>845.59997558594</ele>
        <time>2020-07-30T07:48:12.000Z</time>
      </trkpt>
      <trkpt lat="44.08867" lon="7.0943">
        <ele>846.59997558594</ele>
        <time>2020-07-30T07:48:18.000Z</time>
      </trkpt>
      <trkpt lat="44.08864" lon="7.09445">
        <ele>847.40002441406</ele>
        <time>2020-07-30T07:48:23.000Z</time>
      </trkpt>
      <trkpt lat="44.08863" lon="7.09448">
        <ele>847.59997558594</ele>
        <time>2020-07-30T07:48:24.000Z</time>
      </trkpt>
      <trkpt lat="44.08857" lon="7.09461">
        <ele>848.40002441406</ele>
        <time>2020-07-30T07:48:29.000Z</time>
      </trkpt>
      <trkpt lat="44.08855" lon="7.09466">
        <ele>848.79998779297</ele>
        <time>2020-07-30T07:48:31.000Z</time>
      </trkpt>
      <trkpt lat="44.08848" lon="7.0948">
        <ele>849.79998779297</ele>
        <time>2020-07-30T07:48:36.000Z</time>
      </trkpt>
      <trkpt lat="44.08847" lon="7.09482">
        <ele>849.79998779297</ele>
        <time>2020-07-30T07:48:37.000Z</time>
      </trkpt>
      <trkpt lat="44.08839" lon="7.09504">
        <ele>851</ele>
        <time>2020-07-30T07:48:44.000Z</time>
      </trkpt>
      <trkpt lat="44.08836" lon="7.09525">
        <ele>852</ele>
        <time>2020-07-30T07:48:50.000Z</time>
      </trkpt>
      <trkpt lat="44.08835" lon="7.09531">
        <ele>852.40002441406</ele>
        <time>2020-07-30T07:48:52.000Z</time>
      </trkpt>
      <trkpt lat="44.0883" lon="7.09544">
        <ele>853.20001220703</ele>
        <time>2020-07-30T07:48:56.000Z</time>
      </trkpt>
      <trkpt lat="44.08826" lon="7.09556">
        <ele>853.79998779297</ele>
        <time>2020-07-30T07:49:00.000Z</time>
      </trkpt>
      <trkpt lat="44.08824" lon="7.09565">
        <ele>854.20001220703</ele>
        <time>2020-07-30T07:49:03.000Z</time>
      </trkpt>
      <trkpt lat="44.08824" lon="7.09575">
        <ele>855</ele>
        <time>2020-07-30T07:49:06.000Z</time>
      </trkpt>
      <trkpt lat="44.08826" lon="7.09581">
        <ele>855.40002441406</ele>
        <time>2020-07-30T07:49:08.000Z</time>
      </trkpt>
      <trkpt lat="44.08833" lon="7.09591">
        <ele>856</ele>
        <time>2020-07-30T07:49:12.000Z</time>
      </trkpt>
      <trkpt lat="44.08837" lon="7.09595">
        <ele>856.59997558594</ele>
        <time>2020-07-30T07:49:14.000Z</time>
      </trkpt>
      <trkpt lat="44.08849" lon="7.09607">
        <ele>857.59997558594</ele>
        <time>2020-07-30T07:49:20.000Z</time>
      </trkpt>
      <trkpt lat="44.08851" lon="7.0961">
        <ele>857.79998779297</ele>
        <time>2020-07-30T07:49:21.000Z</time>
      </trkpt>
      <trkpt lat="44.08861" lon="7.09618">
        <ele>858.59997558594</ele>
        <time>2020-07-30T07:49:26.000Z</time>
      </trkpt>
      <trkpt lat="44.08866" lon="7.09624">
        <ele>859.20001220703</ele>
        <time>2020-07-30T07:49:29.000Z</time>
      </trkpt>
      <trkpt lat="44.0887" lon="7.09627">
        <ele>859.59997558594</ele>
        <time>2020-07-30T07:49:31.000Z</time>
      </trkpt>
      <trkpt lat="44.08881" lon="7.0964">
        <ele>860.79998779297</ele>
        <time>2020-07-30T07:49:37.000Z</time>
      </trkpt>
      <trkpt lat="44.08888" lon="7.09656">
        <ele>861.79998779297</ele>
        <time>2020-07-30T07:49:43.000Z</time>
      </trkpt>
      <trkpt lat="44.0889" lon="7.09659">
        <ele>862</ele>
        <time>2020-07-30T07:49:44.000Z</time>
      </trkpt>
      <trkpt lat="44.08897" lon="7.09676">
        <ele>863</ele>
        <time>2020-07-30T07:49:50.000Z</time>
      </trkpt>
      <trkpt lat="44.08897" lon="7.09679">
        <ele>863.20001220703</ele>
        <time>2020-07-30T07:49:51.000Z</time>
      </trkpt>
      <trkpt lat="44.089" lon="7.09698">
        <ele>864</ele>
        <time>2020-07-30T07:49:57.000Z</time>
      </trkpt>
      <trkpt lat="44.08901" lon="7.09701">
        <ele>864.20001220703</ele>
        <time>2020-07-30T07:49:58.000Z</time>
      </trkpt>
      <trkpt lat="44.08907" lon="7.09714">
        <ele>865</ele>
        <time>2020-07-30T07:50:03.000Z</time>
      </trkpt>
      <trkpt lat="44.08909" lon="7.0972">
        <ele>865.40002441406</ele>
        <time>2020-07-30T07:50:05.000Z</time>
      </trkpt>
      <trkpt lat="44.08915" lon="7.09729">
        <ele>866.20001220703</ele>
        <time>2020-07-30T07:50:09.000Z</time>
      </trkpt>
      <trkpt lat="44.08918" lon="7.09732">
        <ele>866.59997558594</ele>
        <time>2020-07-30T07:50:11.000Z</time>
      </trkpt>
      <trkpt lat="44.08922" lon="7.09735">
        <ele>867</ele>
        <time>2020-07-30T07:50:15.000Z</time>
      </trkpt>
      <trkpt lat="44.08921" lon="7.09733">
        <ele>867.20001220703</ele>
        <time>2020-07-30T07:50:17.000Z</time>
      </trkpt>
      <trkpt lat="44.08914" lon="7.09734">
        <ele>866.79998779297</ele>
        <time>2020-07-30T07:50:21.000Z</time>
      </trkpt>
      <trkpt lat="44.08913" lon="7.09733">
        <ele>867</ele>
        <time>2020-07-30T07:50:25.000Z</time>
      </trkpt>
      <trkpt lat="44.08912" lon="7.09732">
        <ele>867</ele>
        <time>2020-07-30T07:50:30.000Z</time>
      </trkpt>
      <trkpt lat="44.08914" lon="7.09733">
        <ele>866.79998779297</ele>
        <time>2020-07-30T07:50:36.000Z</time>
      </trkpt>
      <trkpt lat="44.08914" lon="7.09733">
        <ele>867</ele>
        <time>2020-07-30T07:50:43.000Z</time>
      </trkpt>
      <trkpt lat="44.08915" lon="7.09732">
        <ele>866.79998779297</ele>
        <time>2020-07-30T07:50:50.000Z</time>
      </trkpt>
      <trkpt lat="44.08915" lon="7.09732">
        <ele>867.20001220703</ele>
        <time>2020-07-30T07:50:59.000Z</time>
      </trkpt>
      <trkpt lat="44.08915" lon="7.09732">
        <ele>867.40002441406</ele>
        <time>2020-07-30T07:51:00.000Z</time>
      </trkpt>
      <trkpt lat="44.08913" lon="7.09733">
        <ele>867.20001220703</ele>
        <time>2020-07-30T07:51:08.000Z</time>
      </trkpt>
      <trkpt lat="44.08913" lon="7.09733">
        <ele>867.20001220703</ele>
        <time>2020-07-30T07:51:25.000Z</time>
      </trkpt>
      <trkpt lat="44.08914" lon="7.09733">
        <ele>866.59997558594</ele>
        <time>2020-07-30T07:51:37.000Z</time>
      </trkpt>
      <trkpt lat="44.08915" lon="7.09732">
        <ele>866.59997558594</ele>
        <time>2020-07-30T07:51:54.000Z</time>
      </trkpt>
      <trkpt lat="44.08915" lon="7.09731">
        <ele>866.59997558594</ele>
        <time>2020-07-30T07:52:00.000Z</time>
      </trkpt>
      <trkpt lat="44.08916" lon="7.09731">
        <ele>866.40002441406</ele>
        <time>2020-07-30T07:52:02.000Z</time>
      </trkpt>
      <trkpt lat="44.08916" lon="7.09732">
        <ele>866.79998779297</ele>
        <time>2020-07-30T07:52:14.000Z</time>
      </trkpt>
      <trkpt lat="44.08925" lon="7.09736">
        <ele>866.79998779297</ele>
        <time>2020-07-30T07:52:19.000Z</time>
      </trkpt>
      <trkpt lat="44.08941" lon="7.09737">
        <ele>867.59997558594</ele>
        <time>2020-07-30T07:52:25.000Z</time>
      </trkpt>
      <trkpt lat="44.08954" lon="7.09737">
        <ele>868.40002441406</ele>
        <time>2020-07-30T07:52:30.000Z</time>
      </trkpt>
      <trkpt lat="44.08963" lon="7.09736">
        <ele>869</ele>
        <time>2020-07-30T07:52:33.000Z</time>
      </trkpt>
      <trkpt lat="44.08972" lon="7.09737">
        <ele>869.59997558594</ele>
        <time>2020-07-30T07:52:36.000Z</time>
      </trkpt>
      <trkpt lat="44.08988" lon="7.09739">
        <ele>870.59997558594</ele>
        <time>2020-07-30T07:52:42.000Z</time>
      </trkpt>
      <trkpt lat="44.08994" lon="7.0974">
        <ele>871</ele>
        <time>2020-07-30T07:52:44.000Z</time>
      </trkpt>
      <trkpt lat="44.09005" lon="7.0974">
        <ele>871.79998779297</ele>
        <time>2020-07-30T07:52:48.000Z</time>
      </trkpt>
      <trkpt lat="44.09018" lon="7.09742">
        <ele>872.79998779297</ele>
        <time>2020-07-30T07:52:53.000Z</time>
      </trkpt>
      <trkpt lat="44.09024" lon="7.09744">
        <ele>873.20001220703</ele>
        <time>2020-07-30T07:52:55.000Z</time>
      </trkpt>
      <trkpt lat="44.09032" lon="7.09745">
        <ele>873.79998779297</ele>
        <time>2020-07-30T07:52:58.000Z</time>
      </trkpt>
      <trkpt lat="44.09042" lon="7.0975">
        <ele>874.59997558594</ele>
        <time>2020-07-30T07:53:02.000Z</time>
      </trkpt>
      <trkpt lat="44.09045" lon="7.09752">
        <ele>874.79998779297</ele>
        <time>2020-07-30T07:53:03.000Z</time>
      </trkpt>
      <trkpt lat="44.09057" lon="7.09761">
        <ele>876</ele>
        <time>2020-07-30T07:53:08.000Z</time>
      </trkpt>
      <trkpt lat="44.09064" lon="7.09767">
        <ele>876.79998779297</ele>
        <time>2020-07-30T07:53:11.000Z</time>
      </trkpt>
      <trkpt lat="44.09066" lon="7.09768">
        <ele>877</ele>
        <time>2020-07-30T07:53:12.000Z</time>
      </trkpt>
      <trkpt lat="44.09079" lon="7.09774">
        <ele>878</ele>
        <time>2020-07-30T07:53:17.000Z</time>
      </trkpt>
      <trkpt lat="44.09081" lon="7.09774">
        <ele>878.20001220703</ele>
        <time>2020-07-30T07:53:18.000Z</time>
      </trkpt>
      <trkpt lat="44.09091" lon="7.09775">
        <ele>879</ele>
        <time>2020-07-30T07:53:22.000Z</time>
      </trkpt>
      <trkpt lat="44.09102" lon="7.09775">
        <ele>880</ele>
        <time>2020-07-30T07:53:26.000Z</time>
      </trkpt>
      <trkpt lat="44.09104" lon="7.09774">
        <ele>880.20001220703</ele>
        <time>2020-07-30T07:53:27.000Z</time>
      </trkpt>
      <trkpt lat="44.09119" lon="7.09769">
        <ele>881.40002441406</ele>
        <time>2020-07-30T07:53:33.000Z</time>
      </trkpt>
      <trkpt lat="44.09122" lon="7.09768">
        <ele>881.40002441406</ele>
        <time>2020-07-30T07:53:34.000Z</time>
      </trkpt>
      <trkpt lat="44.09137" lon="7.0976">
        <ele>882.40002441406</ele>
        <time>2020-07-30T07:53:40.000Z</time>
      </trkpt>
      <trkpt lat="44.09142" lon="7.09756">
        <ele>882.79998779297</ele>
        <time>2020-07-30T07:53:42.000Z</time>
      </trkpt>
      <trkpt lat="44.09153" lon="7.09746">
        <ele>883.59997558594</ele>
        <time>2020-07-30T07:53:47.000Z</time>
      </trkpt>
      <trkpt lat="44.09159" lon="7.09745">
        <ele>884</ele>
        <time>2020-07-30T07:53:49.000Z</time>
      </trkpt>
      <trkpt lat="44.09167" lon="7.0975">
        <ele>885</ele>
        <time>2020-07-30T07:53:52.000Z</time>
      </trkpt>
      <trkpt lat="44.09169" lon="7.09752">
        <ele>885.40002441406</ele>
        <time>2020-07-30T07:53:53.000Z</time>
      </trkpt>
      <trkpt lat="44.09171" lon="7.09754">
        <ele>885.79998779297</ele>
        <time>2020-07-30T07:53:54.000Z</time>
      </trkpt>
      <trkpt lat="44.09173" lon="7.09756">
        <ele>886.20001220703</ele>
        <time>2020-07-30T07:53:55.000Z</time>
      </trkpt>
      <trkpt lat="44.09182" lon="7.0976">
        <ele>887.40002441406</ele>
        <time>2020-07-30T07:53:59.000Z</time>
      </trkpt>
      <trkpt lat="44.09193" lon="7.09752">
        <ele>888.20001220703</ele>
        <time>2020-07-30T07:54:04.000Z</time>
      </trkpt>
      <trkpt lat="44.09195" lon="7.09749">
        <ele>888.40002441406</ele>
        <time>2020-07-30T07:54:05.000Z</time>
      </trkpt>
      <trkpt lat="44.09207" lon="7.09734">
        <ele>889.40002441406</ele>
        <time>2020-07-30T07:54:11.000Z</time>
      </trkpt>
      <trkpt lat="44.09209" lon="7.09731">
        <ele>889.59997558594</ele>
        <time>2020-07-30T07:54:12.000Z</time>
      </trkpt>
      <trkpt lat="44.09218" lon="7.09719">
        <ele>890.40002441406</ele>
        <time>2020-07-30T07:54:17.000Z</time>
      </trkpt>
      <trkpt lat="44.09222" lon="7.09713">
        <ele>890.79998779297</ele>
        <time>2020-07-30T07:54:19.000Z</time>
      </trkpt>
      <trkpt lat="44.09232" lon="7.09701">
        <ele>891.59997558594</ele>
        <time>2020-07-30T07:54:24.000Z</time>
      </trkpt>
      <trkpt lat="44.09241" lon="7.09705">
        <ele>892.79998779297</ele>
        <time>2020-07-30T07:54:28.000Z</time>
      </trkpt>
      <trkpt lat="44.09243" lon="7.09706">
        <ele>893.20001220703</ele>
        <time>2020-07-30T07:54:29.000Z</time>
      </trkpt>
      <trkpt lat="44.09248" lon="7.09709">
        <ele>894</ele>
        <time>2020-07-30T07:54:31.000Z</time>
      </trkpt>
      <trkpt lat="44.09263" lon="7.09713">
        <ele>895.20001220703</ele>
        <time>2020-07-30T07:54:37.000Z</time>
      </trkpt>
      <trkpt lat="44.09266" lon="7.09714">
        <ele>895.40002441406</ele>
        <time>2020-07-30T07:54:38.000Z</time>
      </trkpt>
      <trkpt lat="44.09279" lon="7.09718">
        <ele>896.20001220703</ele>
        <time>2020-07-30T07:54:43.000Z</time>
      </trkpt>
      <trkpt lat="44.09289" lon="7.09725">
        <ele>896.79998779297</ele>
        <time>2020-07-30T07:54:47.000Z</time>
      </trkpt>
      <trkpt lat="44.09293" lon="7.0973">
        <ele>897.20001220703</ele>
        <time>2020-07-30T07:54:49.000Z</time>
      </trkpt>
      <trkpt lat="44.09301" lon="7.09745">
        <ele>898.40002441406</ele>
        <time>2020-07-30T07:54:54.000Z</time>
      </trkpt>
      <trkpt lat="44.09312" lon="7.09761">
        <ele>899.40002441406</ele>
        <time>2020-07-30T07:55:00.000Z</time>
      </trkpt>
      <trkpt lat="44.0932" lon="7.09771">
        <ele>900.20001220703</ele>
        <time>2020-07-30T07:55:04.000Z</time>
      </trkpt>
      <trkpt lat="44.09324" lon="7.09776">
        <ele>900.59997558594</ele>
        <time>2020-07-30T07:55:06.000Z</time>
      </trkpt>
      <trkpt lat="44.09334" lon="7.09794">
        <ele>901.59997558594</ele>
        <time>2020-07-30T07:55:12.000Z</time>
      </trkpt>
      <trkpt lat="44.09338" lon="7.09799">
        <ele>902</ele>
        <time>2020-07-30T07:55:14.000Z</time>
      </trkpt>
      <trkpt lat="44.09344" lon="7.09806">
        <ele>902.79998779297</ele>
        <time>2020-07-30T07:55:17.000Z</time>
      </trkpt>
      <trkpt lat="44.09354" lon="7.09813">
        <ele>903.59997558594</ele>
        <time>2020-07-30T07:55:21.000Z</time>
      </trkpt>
      <trkpt lat="44.09356" lon="7.09814">
        <ele>903.79998779297</ele>
        <time>2020-07-30T07:55:22.000Z</time>
      </trkpt>
      <trkpt lat="44.09368" lon="7.09825">
        <ele>904.79998779297</ele>
        <time>2020-07-30T07:55:27.000Z</time>
      </trkpt>
      <trkpt lat="44.0937" lon="7.09827">
        <ele>905</ele>
        <time>2020-07-30T07:55:28.000Z</time>
      </trkpt>
      <trkpt lat="44.09376" lon="7.09836">
        <ele>905.79998779297</ele>
        <time>2020-07-30T07:55:31.000Z</time>
      </trkpt>
      <trkpt lat="44.09383" lon="7.09851">
        <ele>907</ele>
        <time>2020-07-30T07:55:36.000Z</time>
      </trkpt>
      <trkpt lat="44.09395" lon="7.09867">
        <ele>907.59997558594</ele>
        <time>2020-07-30T07:55:43.000Z</time>
      </trkpt>
      <trkpt lat="44.09397" lon="7.09861">
        <ele>908</ele>
        <time>2020-07-30T07:55:45.000Z</time>
      </trkpt>
      <trkpt lat="44.09397" lon="7.09858">
        <ele>908.20001220703</ele>
        <time>2020-07-30T07:55:46.000Z</time>
      </trkpt>
      <trkpt lat="44.09394" lon="7.09851">
        <ele>908.40002441406</ele>
        <time>2020-07-30T07:55:48.000Z</time>
      </trkpt>
      <trkpt lat="44.09388" lon="7.09837">
        <ele>909</ele>
        <time>2020-07-30T07:55:52.000Z</time>
      </trkpt>
      <trkpt lat="44.0938" lon="7.09816">
        <ele>910</ele>
        <time>2020-07-30T07:55:58.000Z</time>
      </trkpt>
      <trkpt lat="44.09373" lon="7.09803">
        <ele>910.79998779297</ele>
        <time>2020-07-30T07:56:02.000Z</time>
      </trkpt>
      <trkpt lat="44.09371" lon="7.09801">
        <ele>911.20001220703</ele>
        <time>2020-07-30T07:56:03.000Z</time>
      </trkpt>
      <trkpt lat="44.09357" lon="7.09792">
        <ele>912.40002441406</ele>
        <time>2020-07-30T07:56:08.000Z</time>
      </trkpt>
      <trkpt lat="44.09354" lon="7.0979">
        <ele>912.59997558594</ele>
        <time>2020-07-30T07:56:09.000Z</time>
      </trkpt>
      <trkpt lat="44.09344" lon="7.09774">
        <ele>913.40002441406</ele>
        <time>2020-07-30T07:56:14.000Z</time>
      </trkpt>
      <trkpt lat="44.09343" lon="7.09771">
        <ele>913.79998779297</ele>
        <time>2020-07-30T07:56:15.000Z</time>
      </trkpt>
      <trkpt lat="44.09338" lon="7.09761">
        <ele>914.59997558594</ele>
        <time>2020-07-30T07:56:18.000Z</time>
      </trkpt>
      <trkpt lat="44.09331" lon="7.09748">
        <ele>915.79998779297</ele>
        <time>2020-07-30T07:56:22.000Z</time>
      </trkpt>
      <trkpt lat="44.09329" lon="7.09745">
        <ele>916</ele>
        <time>2020-07-30T07:56:23.000Z</time>
      </trkpt>
      <trkpt lat="44.09323" lon="7.09731">
        <ele>916.79998779297</ele>
        <time>2020-07-30T07:56:27.000Z</time>
      </trkpt>
      <trkpt lat="44.09316" lon="7.09715">
        <ele>918</ele>
        <time>2020-07-30T07:56:32.000Z</time>
      </trkpt>
      <trkpt lat="44.09308" lon="7.09698">
        <ele>919</ele>
        <time>2020-07-30T07:56:37.000Z</time>
      </trkpt>
      <trkpt lat="44.09301" lon="7.09682">
        <ele>920.20001220703</ele>
        <time>2020-07-30T07:56:42.000Z</time>
      </trkpt>
      <trkpt lat="44.09294" lon="7.09669">
        <ele>921.20001220703</ele>
        <time>2020-07-30T07:56:47.000Z</time>
      </trkpt>
      <trkpt lat="44.09291" lon="7.09664">
        <ele>921.59997558594</ele>
        <time>2020-07-30T07:56:49.000Z</time>
      </trkpt>
      <trkpt lat="44.09281" lon="7.09651">
        <ele>922.40002441406</ele>
        <time>2020-07-30T07:56:54.000Z</time>
      </trkpt>
      <trkpt lat="44.09272" lon="7.09643">
        <ele>923.40002441406</ele>
        <time>2020-07-30T07:56:58.000Z</time>
      </trkpt>
      <trkpt lat="44.0927" lon="7.0964">
        <ele>923.40002441406</ele>
        <time>2020-07-30T07:56:59.000Z</time>
      </trkpt>
      <trkpt lat="44.09258" lon="7.09623">
        <ele>924.59997558594</ele>
        <time>2020-07-30T07:57:05.000Z</time>
      </trkpt>
      <trkpt lat="44.09253" lon="7.09605">
        <ele>925.79998779297</ele>
        <time>2020-07-30T07:57:10.000Z</time>
      </trkpt>
      <trkpt lat="44.09249" lon="7.09599">
        <ele>926.20001220703</ele>
        <time>2020-07-30T07:57:12.000Z</time>
      </trkpt>
      <trkpt lat="44.09241" lon="7.09595">
        <ele>926.79998779297</ele>
        <time>2020-07-30T07:57:15.000Z</time>
      </trkpt>
      <trkpt lat="44.09238" lon="7.09595">
        <ele>927</ele>
        <time>2020-07-30T07:57:16.000Z</time>
      </trkpt>
      <trkpt lat="44.09224" lon="7.09601">
        <ele>927.79998779297</ele>
        <time>2020-07-30T07:57:21.000Z</time>
      </trkpt>
      <trkpt lat="44.09219" lon="7.09604">
        <ele>928.40002441406</ele>
        <time>2020-07-30T07:57:23.000Z</time>
      </trkpt>
      <trkpt lat="44.09211" lon="7.09608">
        <ele>929</ele>
        <time>2020-07-30T07:57:26.000Z</time>
      </trkpt>
      <trkpt lat="44.09201" lon="7.09616">
        <ele>930</ele>
        <time>2020-07-30T07:57:30.000Z</time>
      </trkpt>
      <trkpt lat="44.09198" lon="7.09618">
        <ele>930.20001220703</ele>
        <time>2020-07-30T07:57:31.000Z</time>
      </trkpt>
      <trkpt lat="44.09185" lon="7.09626">
        <ele>931.40002441406</ele>
        <time>2020-07-30T07:57:36.000Z</time>
      </trkpt>
      <trkpt lat="44.09176" lon="7.09629">
        <ele>931.79998779297</ele>
        <time>2020-07-30T07:57:39.000Z</time>
      </trkpt>
      <trkpt lat="44.09171" lon="7.09629">
        <ele>932.40002441406</ele>
        <time>2020-07-30T07:57:41.000Z</time>
      </trkpt>
      <trkpt lat="44.09166" lon="7.09625">
        <ele>932.79998779297</ele>
        <time>2020-07-30T07:57:43.000Z</time>
      </trkpt>
      <trkpt lat="44.09159" lon="7.09618">
        <ele>933.40002441406</ele>
        <time>2020-07-30T07:57:46.000Z</time>
      </trkpt>
      <trkpt lat="44.09148" lon="7.09607">
        <ele>934.40002441406</ele>
        <time>2020-07-30T07:57:51.000Z</time>
      </trkpt>
      <trkpt lat="44.09135" lon="7.0961">
        <ele>935.59997558594</ele>
        <time>2020-07-30T07:57:56.000Z</time>
      </trkpt>
      <trkpt lat="44.09124" lon="7.09616">
        <ele>936.59997558594</ele>
        <time>2020-07-30T07:58:00.000Z</time>
      </trkpt>
      <trkpt lat="44.09111" lon="7.09621">
        <ele>937.59997558594</ele>
        <time>2020-07-30T07:58:05.000Z</time>
      </trkpt>
      <trkpt lat="44.09106" lon="7.09622">
        <ele>938</ele>
        <time>2020-07-30T07:58:07.000Z</time>
      </trkpt>
      <trkpt lat="44.09097" lon="7.09623">
        <ele>938.79998779297</ele>
        <time>2020-07-30T07:58:10.000Z</time>
      </trkpt>
      <trkpt lat="44.09081" lon="7.09621">
        <ele>940</ele>
        <time>2020-07-30T07:58:16.000Z</time>
      </trkpt>
      <trkpt lat="44.09078" lon="7.0962">
        <ele>940.20001220703</ele>
        <time>2020-07-30T07:58:17.000Z</time>
      </trkpt>
      <trkpt lat="44.09068" lon="7.09614">
        <ele>941</ele>
        <time>2020-07-30T07:58:21.000Z</time>
      </trkpt>
      <trkpt lat="44.09054" lon="7.09604">
        <ele>942.20001220703</ele>
        <time>2020-07-30T07:58:27.000Z</time>
      </trkpt>
      <trkpt lat="44.09046" lon="7.0959">
        <ele>943.20001220703</ele>
        <time>2020-07-30T07:58:33.000Z</time>
      </trkpt>
      <trkpt lat="44.09043" lon="7.09586">
        <ele>943.59997558594</ele>
        <time>2020-07-30T07:58:35.000Z</time>
      </trkpt>
      <trkpt lat="44.09032" lon="7.09575">
        <ele>944.20001220703</ele>
        <time>2020-07-30T07:58:41.000Z</time>
      </trkpt>
      <trkpt lat="44.09026" lon="7.09567">
        <ele>945</ele>
        <time>2020-07-30T07:58:45.000Z</time>
      </trkpt>
      <trkpt lat="44.09022" lon="7.09562">
        <ele>945.40002441406</ele>
        <time>2020-07-30T07:58:48.000Z</time>
      </trkpt>
      <trkpt lat="44.09014" lon="7.09552">
        <ele>946.20001220703</ele>
        <time>2020-07-30T07:58:53.000Z</time>
      </trkpt>
      <trkpt lat="44.09012" lon="7.09547">
        <ele>946.59997558594</ele>
        <time>2020-07-30T07:58:55.000Z</time>
      </trkpt>
      <trkpt lat="44.09008" lon="7.09532">
        <ele>947.40002441406</ele>
        <time>2020-07-30T07:59:01.000Z</time>
      </trkpt>
      <trkpt lat="44.09008" lon="7.0953">
        <ele>947.59997558594</ele>
        <time>2020-07-30T07:59:02.000Z</time>
      </trkpt>
      <trkpt lat="44.09003" lon="7.09512">
        <ele>948.59997558594</ele>
        <time>2020-07-30T07:59:09.000Z</time>
      </trkpt>
      <trkpt lat="44.08995" lon="7.09492">
        <ele>949.79998779297</ele>
        <time>2020-07-30T07:59:17.000Z</time>
      </trkpt>
      <trkpt lat="44.08995" lon="7.0949">
        <ele>950</ele>
        <time>2020-07-30T07:59:18.000Z</time>
      </trkpt>
      <trkpt lat="44.08988" lon="7.09473">
        <ele>950.79998779297</ele>
        <time>2020-07-30T07:59:25.000Z</time>
      </trkpt>
      <trkpt lat="44.08986" lon="7.09466">
        <ele>951.40002441406</ele>
        <time>2020-07-30T07:59:28.000Z</time>
      </trkpt>
      <trkpt lat="44.08987" lon="7.09458">
        <ele>951.79998779297</ele>
        <time>2020-07-30T07:59:31.000Z</time>
      </trkpt>
      <trkpt lat="44.08988" lon="7.09456">
        <ele>952</ele>
        <time>2020-07-30T07:59:32.000Z</time>
      </trkpt>
      <trkpt lat="44.0899" lon="7.09455">
        <ele>952</ele>
        <time>2020-07-30T07:59:33.000Z</time>
      </trkpt>
      <trkpt lat="44.08996" lon="7.0946">
        <ele>952.59997558594</ele>
        <time>2020-07-30T07:59:37.000Z</time>
      </trkpt>
      <trkpt lat="44.08997" lon="7.09462">
        <ele>952.59997558594</ele>
        <time>2020-07-30T07:59:38.000Z</time>
      </trkpt>
      <trkpt lat="44.09" lon="7.09478">
        <ele>953</ele>
        <time>2020-07-30T07:59:44.000Z</time>
      </trkpt>
      <trkpt lat="44.09002" lon="7.09483">
        <ele>953.20001220703</ele>
        <time>2020-07-30T07:59:46.000Z</time>
      </trkpt>
      <trkpt lat="44.0901" lon="7.09499">
        <ele>954.20001220703</ele>
        <time>2020-07-30T07:59:53.000Z</time>
      </trkpt>
      <trkpt lat="44.09018" lon="7.09515">
        <ele>955.20001220703</ele>
        <time>2020-07-30T08:00:00.000Z</time>
      </trkpt>
      <trkpt lat="44.09022" lon="7.09521">
        <ele>955.59997558594</ele>
        <time>2020-07-30T08:00:03.000Z</time>
      </trkpt>
      <trkpt lat="44.09027" lon="7.09533">
        <ele>956.40002441406</ele>
        <time>2020-07-30T08:00:08.000Z</time>
      </trkpt>
      <trkpt lat="44.09031" lon="7.09539">
        <ele>956.59997558594</ele>
        <time>2020-07-30T08:00:11.000Z</time>
      </trkpt>
      <trkpt lat="44.0904" lon="7.0955">
        <ele>957.40002441406</ele>
        <time>2020-07-30T08:00:17.000Z</time>
      </trkpt>
      <trkpt lat="44.09041" lon="7.09551">
        <ele>957.40002441406</ele>
        <time>2020-07-30T08:00:18.000Z</time>
      </trkpt>
      <trkpt lat="44.09056" lon="7.09558">
        <ele>958.40002441406</ele>
        <time>2020-07-30T08:00:26.000Z</time>
      </trkpt>
      <trkpt lat="44.09058" lon="7.09559">
        <ele>958.59997558594</ele>
        <time>2020-07-30T08:00:27.000Z</time>
      </trkpt>
      <trkpt lat="44.0907" lon="7.09564">
        <ele>959.59997558594</ele>
        <time>2020-07-30T08:00:33.000Z</time>
      </trkpt>
      <trkpt lat="44.09079" lon="7.09566">
        <ele>960</ele>
        <time>2020-07-30T08:00:37.000Z</time>
      </trkpt>
      <trkpt lat="44.09087" lon="7.09568">
        <ele>960.59997558594</ele>
        <time>2020-07-30T08:00:41.000Z</time>
      </trkpt>
      <trkpt lat="44.09097" lon="7.09568">
        <ele>961.40002441406</ele>
        <time>2020-07-30T08:00:46.000Z</time>
      </trkpt>
      <trkpt lat="44.09102" lon="7.09566">
        <ele>961.79998779297</ele>
        <time>2020-07-30T08:00:48.000Z</time>
      </trkpt>
      <trkpt lat="44.09115" lon="7.09559">
        <ele>962.59997558594</ele>
        <time>2020-07-30T08:00:54.000Z</time>
      </trkpt>
      <trkpt lat="44.09118" lon="7.09557">
        <ele>963</ele>
        <time>2020-07-30T08:00:56.000Z</time>
      </trkpt>
      <trkpt lat="44.09126" lon="7.09553">
        <ele>963.79998779297</ele>
        <time>2020-07-30T08:01:00.000Z</time>
      </trkpt>
      <trkpt lat="44.0913" lon="7.09551">
        <ele>964</ele>
        <time>2020-07-30T08:01:02.000Z</time>
      </trkpt>
      <trkpt lat="44.0914" lon="7.09549">
        <ele>964.79998779297</ele>
        <time>2020-07-30T08:01:08.000Z</time>
      </trkpt>
      <trkpt lat="44.09142" lon="7.0955">
        <ele>965.20001220703</ele>
        <time>2020-07-30T08:01:09.000Z</time>
      </trkpt>
      <trkpt lat="44.09154" lon="7.09549">
        <ele>966.20001220703</ele>
        <time>2020-07-30T08:01:15.000Z</time>
      </trkpt>
      <trkpt lat="44.0917" lon="7.09535">
        <ele>967.20001220703</ele>
        <time>2020-07-30T08:01:23.000Z</time>
      </trkpt>
      <trkpt lat="44.09172" lon="7.09534">
        <ele>967.40002441406</ele>
        <time>2020-07-30T08:01:24.000Z</time>
      </trkpt>
      <trkpt lat="44.0918" lon="7.09528">
        <ele>968.20001220703</ele>
        <time>2020-07-30T08:01:28.000Z</time>
      </trkpt>
      <trkpt lat="44.09188" lon="7.09523">
        <ele>969</ele>
        <time>2020-07-30T08:01:32.000Z</time>
      </trkpt>
      <trkpt lat="44.09191" lon="7.09521">
        <ele>969.20001220703</ele>
        <time>2020-07-30T08:01:34.000Z</time>
      </trkpt>
      <trkpt lat="44.09198" lon="7.09518">
        <ele>969.59997558594</ele>
        <time>2020-07-30T08:01:38.000Z</time>
      </trkpt>
      <trkpt lat="44.09205" lon="7.09513">
        <ele>970.40002441406</ele>
        <time>2020-07-30T08:01:42.000Z</time>
      </trkpt>
      <trkpt lat="44.09208" lon="7.09511">
        <ele>970.59997558594</ele>
        <time>2020-07-30T08:01:44.000Z</time>
      </trkpt>
      <trkpt lat="44.09218" lon="7.09502">
        <ele>971.40002441406</ele>
        <time>2020-07-30T08:01:50.000Z</time>
      </trkpt>
      <trkpt lat="44.09233" lon="7.09497">
        <ele>972.40002441406</ele>
        <time>2020-07-30T08:01:57.000Z</time>
      </trkpt>
      <trkpt lat="44.0924" lon="7.09497">
        <ele>972.59997558594</ele>
        <time>2020-07-30T08:02:00.000Z</time>
      </trkpt>
      <trkpt lat="44.09246" lon="7.09498">
        <ele>973</ele>
        <time>2020-07-30T08:02:03.000Z</time>
      </trkpt>
      <trkpt lat="44.09252" lon="7.09499">
        <ele>973.59997558594</ele>
        <time>2020-07-30T08:02:06.000Z</time>
      </trkpt>
      <trkpt lat="44.0926" lon="7.09501">
        <ele>974.40002441406</ele>
        <time>2020-07-30T08:02:10.000Z</time>
      </trkpt>
      <trkpt lat="44.09262" lon="7.09503">
        <ele>974.59997558594</ele>
        <time>2020-07-30T08:02:11.000Z</time>
      </trkpt>
      <trkpt lat="44.0927" lon="7.09511">
        <ele>975.79998779297</ele>
        <time>2020-07-30T08:02:16.000Z</time>
      </trkpt>
      <trkpt lat="44.09273" lon="7.09514">
        <ele>976.20001220703</ele>
        <time>2020-07-30T08:02:18.000Z</time>
      </trkpt>
      <trkpt lat="44.09279" lon="7.09518">
        <ele>976.79998779297</ele>
        <time>2020-07-30T08:02:21.000Z</time>
      </trkpt>
      <trkpt lat="44.09288" lon="7.09519">
        <ele>977.20001220703</ele>
        <time>2020-07-30T08:02:25.000Z</time>
      </trkpt>
      <trkpt lat="44.09296" lon="7.09522">
        <ele>977.79998779297</ele>
        <time>2020-07-30T08:02:29.000Z</time>
      </trkpt>
      <trkpt lat="44.09302" lon="7.09527">
        <ele>978.20001220703</ele>
        <time>2020-07-30T08:02:32.000Z</time>
      </trkpt>
      <trkpt lat="44.0931" lon="7.09541">
        <ele>979</ele>
        <time>2020-07-30T08:02:38.000Z</time>
      </trkpt>
      <trkpt lat="44.09313" lon="7.09557">
        <ele>980.20001220703</ele>
        <time>2020-07-30T08:02:44.000Z</time>
      </trkpt>
      <trkpt lat="44.09316" lon="7.09562">
        <ele>980.40002441406</ele>
        <time>2020-07-30T08:02:46.000Z</time>
      </trkpt>
      <trkpt lat="44.09321" lon="7.0957">
        <ele>981.20001220703</ele>
        <time>2020-07-30T08:02:50.000Z</time>
      </trkpt>
      <trkpt lat="44.0933" lon="7.09587">
        <ele>982.40002441406</ele>
        <time>2020-07-30T08:02:57.000Z</time>
      </trkpt>
      <trkpt lat="44.09336" lon="7.09607">
        <ele>983.40002441406</ele>
        <time>2020-07-30T08:03:05.000Z</time>
      </trkpt>
      <trkpt lat="44.09338" lon="7.09612">
        <ele>983.59997558594</ele>
        <time>2020-07-30T08:03:07.000Z</time>
      </trkpt>
      <trkpt lat="44.09346" lon="7.09623">
        <ele>984.40002441406</ele>
        <time>2020-07-30T08:03:12.000Z</time>
      </trkpt>
      <trkpt lat="44.09349" lon="7.09627">
        <ele>984.79998779297</ele>
        <time>2020-07-30T08:03:14.000Z</time>
      </trkpt>
      <trkpt lat="44.09358" lon="7.09636">
        <ele>985.59997558594</ele>
        <time>2020-07-30T08:03:19.000Z</time>
      </trkpt>
      <trkpt lat="44.09364" lon="7.0964">
        <ele>986</ele>
        <time>2020-07-30T08:03:22.000Z</time>
      </trkpt>
      <trkpt lat="44.09371" lon="7.09646">
        <ele>986.59997558594</ele>
        <time>2020-07-30T08:03:26.000Z</time>
      </trkpt>
      <trkpt lat="44.09378" lon="7.0965">
        <ele>987.20001220703</ele>
        <time>2020-07-30T08:03:30.000Z</time>
      </trkpt>
      <trkpt lat="44.09384" lon="7.09654">
        <ele>987.79998779297</ele>
        <time>2020-07-30T08:03:33.000Z</time>
      </trkpt>
      <trkpt lat="44.09396" lon="7.0966">
        <ele>988.79998779297</ele>
        <time>2020-07-30T08:03:39.000Z</time>
      </trkpt>
      <trkpt lat="44.0941" lon="7.09665">
        <ele>990</ele>
        <time>2020-07-30T08:03:46.000Z</time>
      </trkpt>
      <trkpt lat="44.09414" lon="7.09665">
        <ele>990.40002441406</ele>
        <time>2020-07-30T08:03:48.000Z</time>
      </trkpt>
      <trkpt lat="44.09425" lon="7.09664">
        <ele>991</ele>
        <time>2020-07-30T08:03:53.000Z</time>
      </trkpt>
      <trkpt lat="44.09433" lon="7.09664">
        <ele>991.59997558594</ele>
        <time>2020-07-30T08:03:57.000Z</time>
      </trkpt>
      <trkpt lat="44.09442" lon="7.09663">
        <ele>992.20001220703</ele>
        <time>2020-07-30T08:04:01.000Z</time>
      </trkpt>
      <trkpt lat="44.0945" lon="7.09662">
        <ele>993</ele>
        <time>2020-07-30T08:04:05.000Z</time>
      </trkpt>
      <trkpt lat="44.09455" lon="7.09662">
        <ele>993.20001220703</ele>
        <time>2020-07-30T08:04:07.000Z</time>
      </trkpt>
      <trkpt lat="44.09467" lon="7.0966">
        <ele>994</ele>
        <time>2020-07-30T08:04:13.000Z</time>
      </trkpt>
      <trkpt lat="44.09472" lon="7.09659">
        <ele>994.40002441406</ele>
        <time>2020-07-30T08:04:15.000Z</time>
      </trkpt>
      <trkpt lat="44.09481" lon="7.09656">
        <ele>995</ele>
        <time>2020-07-30T08:04:20.000Z</time>
      </trkpt>
      <trkpt lat="44.09485" lon="7.09654">
        <ele>995.40002441406</ele>
        <time>2020-07-30T08:04:22.000Z</time>
      </trkpt>
      <trkpt lat="44.09497" lon="7.09648">
        <ele>996.40002441406</ele>
        <time>2020-07-30T08:04:28.000Z</time>
      </trkpt>
      <trkpt lat="44.09499" lon="7.09647">
        <ele>996.59997558594</ele>
        <time>2020-07-30T08:04:29.000Z</time>
      </trkpt>
      <trkpt lat="44.09509" lon="7.09638">
        <ele>997.40002441406</ele>
        <time>2020-07-30T08:04:35.000Z</time>
      </trkpt>
      <trkpt lat="44.0951" lon="7.09637">
        <ele>997.59997558594</ele>
        <time>2020-07-30T08:04:36.000Z</time>
      </trkpt>
      <trkpt lat="44.09519" lon="7.0963">
        <ele>998.40002441406</ele>
        <time>2020-07-30T08:04:41.000Z</time>
      </trkpt>
      <trkpt lat="44.0952" lon="7.09629">
        <ele>998.59997558594</ele>
        <time>2020-07-30T08:04:42.000Z</time>
      </trkpt>
      <trkpt lat="44.0953" lon="7.09621">
        <ele>999.59997558594</ele>
        <time>2020-07-30T08:04:48.000Z</time>
      </trkpt>
      <trkpt lat="44.09532" lon="7.09619">
        <ele>999.79998779297</ele>
        <time>2020-07-30T08:04:49.000Z</time>
      </trkpt>
      <trkpt lat="44.09542" lon="7.09611">
        <ele>1000.799987793</ele>
        <time>2020-07-30T08:04:55.000Z</time>
      </trkpt>
      <trkpt lat="44.09555" lon="7.09608">
        <ele>1001.799987793</ele>
        <time>2020-07-30T08:05:02.000Z</time>
      </trkpt>
      <trkpt lat="44.09567" lon="7.09611">
        <ele>1003</ele>
        <time>2020-07-30T08:05:08.000Z</time>
      </trkpt>
      <trkpt lat="44.09571" lon="7.09612">
        <ele>1003.200012207</ele>
        <time>2020-07-30T08:05:10.000Z</time>
      </trkpt>
      <trkpt lat="44.09581" lon="7.09611">
        <ele>1004</ele>
        <time>2020-07-30T08:05:15.000Z</time>
      </trkpt>
      <trkpt lat="44.09583" lon="7.0961">
        <ele>1004.200012207</ele>
        <time>2020-07-30T08:05:16.000Z</time>
      </trkpt>
      <trkpt lat="44.09596" lon="7.09602">
        <ele>1005</ele>
        <time>2020-07-30T08:05:23.000Z</time>
      </trkpt>
      <trkpt lat="44.09611" lon="7.09592">
        <ele>1006</ele>
        <time>2020-07-30T08:05:31.000Z</time>
      </trkpt>
      <trkpt lat="44.09625" lon="7.09584">
        <ele>1007.200012207</ele>
        <time>2020-07-30T08:05:39.000Z</time>
      </trkpt>
      <trkpt lat="44.09627" lon="7.09583">
        <ele>1007.4000244141</ele>
        <time>2020-07-30T08:05:40.000Z</time>
      </trkpt>
      <trkpt lat="44.09636" lon="7.09578">
        <ele>1008.200012207</ele>
        <time>2020-07-30T08:05:45.000Z</time>
      </trkpt>
      <trkpt lat="44.09639" lon="7.09574">
        <ele>1008.5999755859</ele>
        <time>2020-07-30T08:05:47.000Z</time>
      </trkpt>
      <trkpt lat="44.09646" lon="7.09566">
        <ele>1009.200012207</ele>
        <time>2020-07-30T08:05:51.000Z</time>
      </trkpt>
      <trkpt lat="44.09651" lon="7.09561">
        <ele>1009.799987793</ele>
        <time>2020-07-30T08:05:54.000Z</time>
      </trkpt>
      <trkpt lat="44.09658" lon="7.09554">
        <ele>1010.4000244141</ele>
        <time>2020-07-30T08:05:58.000Z</time>
      </trkpt>
      <trkpt lat="44.09664" lon="7.09548">
        <ele>1010.799987793</ele>
        <time>2020-07-30T08:06:01.000Z</time>
      </trkpt>
      <trkpt lat="44.09671" lon="7.09541">
        <ele>1011.4000244141</ele>
        <time>2020-07-30T08:06:05.000Z</time>
      </trkpt>
      <trkpt lat="44.09678" lon="7.09535">
        <ele>1012.200012207</ele>
        <time>2020-07-30T08:06:09.000Z</time>
      </trkpt>
      <trkpt lat="44.09681" lon="7.09531">
        <ele>1012.4000244141</ele>
        <time>2020-07-30T08:06:11.000Z</time>
      </trkpt>
      <trkpt lat="44.09693" lon="7.09526">
        <ele>1013.200012207</ele>
        <time>2020-07-30T08:06:17.000Z</time>
      </trkpt>
      <trkpt lat="44.09694" lon="7.09526">
        <ele>1013.4000244141</ele>
        <time>2020-07-30T08:06:18.000Z</time>
      </trkpt>
      <trkpt lat="44.09707" lon="7.09526">
        <ele>1014.5999755859</ele>
        <time>2020-07-30T08:06:25.000Z</time>
      </trkpt>
      <trkpt lat="44.09721" lon="7.09523">
        <ele>1015.5999755859</ele>
        <time>2020-07-30T08:06:32.000Z</time>
      </trkpt>
      <trkpt lat="44.09723" lon="7.09522">
        <ele>1015.799987793</ele>
        <time>2020-07-30T08:06:33.000Z</time>
      </trkpt>
      <trkpt lat="44.09735" lon="7.09515">
        <ele>1016.5999755859</ele>
        <time>2020-07-30T08:06:39.000Z</time>
      </trkpt>
      <trkpt lat="44.09739" lon="7.09514">
        <ele>1017</ele>
        <time>2020-07-30T08:06:41.000Z</time>
      </trkpt>
      <trkpt lat="44.09747" lon="7.09516">
        <ele>1017.799987793</ele>
        <time>2020-07-30T08:06:45.000Z</time>
      </trkpt>
      <trkpt lat="44.09751" lon="7.09519">
        <ele>1018.200012207</ele>
        <time>2020-07-30T08:06:47.000Z</time>
      </trkpt>
      <trkpt lat="44.09758" lon="7.09523">
        <ele>1018.799987793</ele>
        <time>2020-07-30T08:06:51.000Z</time>
      </trkpt>
      <trkpt lat="44.09761" lon="7.09524">
        <ele>1019.200012207</ele>
        <time>2020-07-30T08:06:53.000Z</time>
      </trkpt>
      <trkpt lat="44.09772" lon="7.09524">
        <ele>1020</ele>
        <time>2020-07-30T08:06:58.000Z</time>
      </trkpt>
      <trkpt lat="44.09785" lon="7.09518">
        <ele>1021</ele>
        <time>2020-07-30T08:07:05.000Z</time>
      </trkpt>
      <trkpt lat="44.09789" lon="7.09516">
        <ele>1021.4000244141</ele>
        <time>2020-07-30T08:07:07.000Z</time>
      </trkpt>
      <trkpt lat="44.098" lon="7.09509">
        <ele>1022.200012207</ele>
        <time>2020-07-30T08:07:13.000Z</time>
      </trkpt>
      <trkpt lat="44.09803" lon="7.09506">
        <ele>1022.4000244141</ele>
        <time>2020-07-30T08:07:15.000Z</time>
      </trkpt>
      <trkpt lat="44.09813" lon="7.09496">
        <ele>1023.200012207</ele>
        <time>2020-07-30T08:07:21.000Z</time>
      </trkpt>
      <trkpt lat="44.09816" lon="7.09493">
        <ele>1023.4000244141</ele>
        <time>2020-07-30T08:07:23.000Z</time>
      </trkpt>
      <trkpt lat="44.0982" lon="7.09487">
        <ele>1024</ele>
        <time>2020-07-30T08:07:28.000Z</time>
      </trkpt>
      <trkpt lat="44.0982" lon="7.09487">
        <ele>1024.4000244141</ele>
        <time>2020-07-30T08:07:31.000Z</time>
      </trkpt>
      <trkpt lat="44.0982" lon="7.09487">
        <ele>1024.4000244141</ele>
        <time>2020-07-30T08:07:34.000Z</time>
      </trkpt>
      <trkpt lat="44.0982" lon="7.09486">
        <ele>1024.4000244141</ele>
        <time>2020-07-30T08:07:42.000Z</time>
      </trkpt>
      <trkpt lat="44.09818" lon="7.09485">
        <ele>1024.4000244141</ele>
        <time>2020-07-30T08:07:49.000Z</time>
      </trkpt>
      <trkpt lat="44.09815" lon="7.09482">
        <ele>1024.4000244141</ele>
        <time>2020-07-30T08:08:06.000Z</time>
      </trkpt>
      <trkpt lat="44.09814" lon="7.09482">
        <ele>1024.1999511719</ele>
        <time>2020-07-30T08:08:26.000Z</time>
      </trkpt>
      <trkpt lat="44.09815" lon="7.09483">
        <ele>1024.1999511719</ele>
        <time>2020-07-30T08:08:36.000Z</time>
      </trkpt>
      <trkpt lat="44.09817" lon="7.09486">
        <ele>1024.1999511719</ele>
        <time>2020-07-30T08:08:51.000Z</time>
      </trkpt>
      <trkpt lat="44.09817" lon="7.09486">
        <ele>1024.1999511719</ele>
        <time>2020-07-30T08:09:02.000Z</time>
      </trkpt>
      <trkpt lat="44.09816" lon="7.09482">
        <ele>1024.1999511719</ele>
        <time>2020-07-30T08:09:11.000Z</time>
      </trkpt>
      <trkpt lat="44.09811" lon="7.09485">
        <ele>1024.1999511719</ele>
        <time>2020-07-30T08:09:15.000Z</time>
      </trkpt>
      <trkpt lat="44.0981" lon="7.09487">
        <ele>1024.4000244141</ele>
        <time>2020-07-30T08:09:16.000Z</time>
      </trkpt>
      <trkpt lat="44.09797" lon="7.09501">
        <ele>1024.8000488281</ele>
        <time>2020-07-30T08:09:23.000Z</time>
      </trkpt>
      <trkpt lat="44.09782" lon="7.09505">
        <ele>1025.4000244141</ele>
        <time>2020-07-30T08:09:29.000Z</time>
      </trkpt>
      <trkpt lat="44.09779" lon="7.09505">
        <ele>1025.4000244141</ele>
        <time>2020-07-30T08:09:30.000Z</time>
      </trkpt>
      <trkpt lat="44.09761" lon="7.09499">
        <ele>1026.1999511719</ele>
        <time>2020-07-30T08:09:37.000Z</time>
      </trkpt>
      <trkpt lat="44.09758" lon="7.09497">
        <ele>1026.4000244141</ele>
        <time>2020-07-30T08:09:38.000Z</time>
      </trkpt>
      <trkpt lat="44.09743" lon="7.09489">
        <ele>1027.4000244141</ele>
        <time>2020-07-30T08:09:44.000Z</time>
      </trkpt>
      <trkpt lat="44.0974" lon="7.09488">
        <ele>1027.5999755859</ele>
        <time>2020-07-30T08:09:45.000Z</time>
      </trkpt>
      <trkpt lat="44.09726" lon="7.09487">
        <ele>1028.5999755859</ele>
        <time>2020-07-30T08:09:50.000Z</time>
      </trkpt>
      <trkpt lat="44.09723" lon="7.09488">
        <ele>1028.5999755859</ele>
        <time>2020-07-30T08:09:51.000Z</time>
      </trkpt>
      <trkpt lat="44.09707" lon="7.09488">
        <ele>1029.5999755859</ele>
        <time>2020-07-30T08:09:57.000Z</time>
      </trkpt>
      <trkpt lat="44.09688" lon="7.09485">
        <ele>1030.8000488281</ele>
        <time>2020-07-30T08:10:04.000Z</time>
      </trkpt>
      <trkpt lat="44.09685" lon="7.09485">
        <ele>1031</ele>
        <time>2020-07-30T08:10:05.000Z</time>
      </trkpt>
      <trkpt lat="44.09669" lon="7.09492">
        <ele>1031.8000488281</ele>
        <time>2020-07-30T08:10:11.000Z</time>
      </trkpt>
      <trkpt lat="44.09666" lon="7.09493">
        <ele>1032</ele>
        <time>2020-07-30T08:10:12.000Z</time>
      </trkpt>
      <trkpt lat="44.09656" lon="7.09499">
        <ele>1032.8000488281</ele>
        <time>2020-07-30T08:10:16.000Z</time>
      </trkpt>
      <trkpt lat="44.09643" lon="7.09507">
        <ele>1033.5999755859</ele>
        <time>2020-07-30T08:10:21.000Z</time>
      </trkpt>
      <trkpt lat="44.09637" lon="7.09513">
        <ele>1034</ele>
        <time>2020-07-30T08:10:24.000Z</time>
      </trkpt>
      <trkpt lat="44.09625" lon="7.09523">
        <ele>1035</ele>
        <time>2020-07-30T08:10:29.000Z</time>
      </trkpt>
      <trkpt lat="44.09622" lon="7.09525">
        <ele>1035.1999511719</ele>
        <time>2020-07-30T08:10:30.000Z</time>
      </trkpt>
      <trkpt lat="44.09608" lon="7.09529">
        <ele>1036</ele>
        <time>2020-07-30T08:10:35.000Z</time>
      </trkpt>
      <trkpt lat="44.09605" lon="7.09529">
        <ele>1036.4000244141</ele>
        <time>2020-07-30T08:10:36.000Z</time>
      </trkpt>
      <trkpt lat="44.0959" lon="7.09527">
        <ele>1037.4000244141</ele>
        <time>2020-07-30T08:10:42.000Z</time>
      </trkpt>
      <trkpt lat="44.09585" lon="7.09526">
        <ele>1037.8000488281</ele>
        <time>2020-07-30T08:10:44.000Z</time>
      </trkpt>
      <trkpt lat="44.09577" lon="7.09524">
        <ele>1038.4000244141</ele>
        <time>2020-07-30T08:10:47.000Z</time>
      </trkpt>
      <trkpt lat="44.09568" lon="7.09524">
        <ele>1039.1999511719</ele>
        <time>2020-07-30T08:10:51.000Z</time>
      </trkpt>
      <trkpt lat="44.09561" lon="7.09524">
        <ele>1039.5999755859</ele>
        <time>2020-07-30T08:10:54.000Z</time>
      </trkpt>
      <trkpt lat="44.09549" lon="7.09526">
        <ele>1040.1999511719</ele>
        <time>2020-07-30T08:10:59.000Z</time>
      </trkpt>
      <trkpt lat="44.09541" lon="7.09528">
        <ele>1040.8000488281</ele>
        <time>2020-07-30T08:11:03.000Z</time>
      </trkpt>
      <trkpt lat="44.09529" lon="7.09532">
        <ele>1041.1999511719</ele>
        <time>2020-07-30T08:11:08.000Z</time>
      </trkpt>
      <trkpt lat="44.09519" lon="7.09537">
        <ele>1041.8000488281</ele>
        <time>2020-07-30T08:11:12.000Z</time>
      </trkpt>
      <trkpt lat="44.09505" lon="7.09545">
        <ele>1042.4000244141</ele>
        <time>2020-07-30T08:11:18.000Z</time>
      </trkpt>
      <trkpt lat="44.09497" lon="7.09548">
        <ele>1042.8000488281</ele>
        <time>2020-07-30T08:11:21.000Z</time>
      </trkpt>
      <trkpt lat="44.09481" lon="7.09553">
        <ele>1043.5999755859</ele>
        <time>2020-07-30T08:11:27.000Z</time>
      </trkpt>
      <trkpt lat="44.09476" lon="7.09554">
        <ele>1044</ele>
        <time>2020-07-30T08:11:29.000Z</time>
      </trkpt>
      <trkpt lat="44.09461" lon="7.09557">
        <ele>1044.8000488281</ele>
        <time>2020-07-30T08:11:35.000Z</time>
      </trkpt>
      <trkpt lat="44.09454" lon="7.09559">
        <ele>1045.1999511719</ele>
        <time>2020-07-30T08:11:38.000Z</time>
      </trkpt>
      <trkpt lat="44.09436" lon="7.09558">
        <ele>1045.8000488281</ele>
        <time>2020-07-30T08:11:45.000Z</time>
      </trkpt>
      <trkpt lat="44.09431" lon="7.09556">
        <ele>1046.1999511719</ele>
        <time>2020-07-30T08:11:47.000Z</time>
      </trkpt>
      <trkpt lat="44.09418" lon="7.09547">
        <ele>1047.1999511719</ele>
        <time>2020-07-30T08:11:53.000Z</time>
      </trkpt>
      <trkpt lat="44.09416" lon="7.09545">
        <ele>1047.4000244141</ele>
        <time>2020-07-30T08:11:54.000Z</time>
      </trkpt>
      <trkpt lat="44.094" lon="7.09529">
        <ele>1048.4000244141</ele>
        <time>2020-07-30T08:12:02.000Z</time>
      </trkpt>
      <trkpt lat="44.09399" lon="7.09527">
        <ele>1048.5999755859</ele>
        <time>2020-07-30T08:12:03.000Z</time>
      </trkpt>
      <trkpt lat="44.09392" lon="7.0951">
        <ele>1049.5999755859</ele>
        <time>2020-07-30T08:12:09.000Z</time>
      </trkpt>
      <trkpt lat="44.09392" lon="7.09507">
        <ele>1049.8000488281</ele>
        <time>2020-07-30T08:12:10.000Z</time>
      </trkpt>
      <trkpt lat="44.0939" lon="7.09491">
        <ele>1050.5999755859</ele>
        <time>2020-07-30T08:12:15.000Z</time>
      </trkpt>
      <trkpt lat="44.09386" lon="7.09475">
        <ele>1051.4000244141</ele>
        <time>2020-07-30T08:12:20.000Z</time>
      </trkpt>
      <trkpt lat="44.09384" lon="7.09469">
        <ele>1051.5999755859</ele>
        <time>2020-07-30T08:12:22.000Z</time>
      </trkpt>
      <trkpt lat="44.0938" lon="7.09445">
        <ele>1052.5999755859</ele>
        <time>2020-07-30T08:12:29.000Z</time>
      </trkpt>
      <trkpt lat="44.09384" lon="7.09422">
        <ele>1053.5999755859</ele>
        <time>2020-07-30T08:12:36.000Z</time>
      </trkpt>
      <trkpt lat="44.09384" lon="7.09419">
        <ele>1053.8000488281</ele>
        <time>2020-07-30T08:12:37.000Z</time>
      </trkpt>
      <trkpt lat="44.09386" lon="7.09402">
        <ele>1054.8000488281</ele>
        <time>2020-07-30T08:12:42.000Z</time>
      </trkpt>
      <trkpt lat="44.09386" lon="7.09389">
        <ele>1055.4000244141</ele>
        <time>2020-07-30T08:12:46.000Z</time>
      </trkpt>
      <trkpt lat="44.09385" lon="7.09379">
        <ele>1055.8000488281</ele>
        <time>2020-07-30T08:12:49.000Z</time>
      </trkpt>
      <trkpt lat="44.09383" lon="7.0936">
        <ele>1056.5999755859</ele>
        <time>2020-07-30T08:12:55.000Z</time>
      </trkpt>
      <trkpt lat="44.09382" lon="7.09355">
        <ele>1056.8000488281</ele>
        <time>2020-07-30T08:12:57.000Z</time>
      </trkpt>
      <trkpt lat="44.09377" lon="7.09346">
        <ele>1057.4000244141</ele>
        <time>2020-07-30T08:13:01.000Z</time>
      </trkpt>
      <trkpt lat="44.09372" lon="7.09341">
        <ele>1058</ele>
        <time>2020-07-30T08:13:05.000Z</time>
      </trkpt>
      <trkpt lat="44.09367" lon="7.09337">
        <ele>1058.1999511719</ele>
        <time>2020-07-30T08:13:08.000Z</time>
      </trkpt>
      <trkpt lat="44.09351" lon="7.09332">
        <ele>1059</ele>
        <time>2020-07-30T08:13:15.000Z</time>
      </trkpt>
      <trkpt lat="44.09332" lon="7.09333">
        <ele>1059.5999755859</ele>
        <time>2020-07-30T08:13:23.000Z</time>
      </trkpt>
      <trkpt lat="44.09328" lon="7.09333">
        <ele>1060</ele>
        <time>2020-07-30T08:13:26.000Z</time>
      </trkpt>
      <trkpt lat="44.09327" lon="7.09334">
        <ele>1060.1999511719</ele>
        <time>2020-07-30T08:13:28.000Z</time>
      </trkpt>
      <trkpt lat="44.09326" lon="7.09333">
        <ele>1060</ele>
        <time>2020-07-30T08:13:39.000Z</time>
      </trkpt>
      <trkpt lat="44.09325" lon="7.09333">
        <ele>1060</ele>
        <time>2020-07-30T08:13:40.000Z</time>
      </trkpt>
      <trkpt lat="44.09315" lon="7.09325">
        <ele>1060.1999511719</ele>
        <time>2020-07-30T08:13:46.000Z</time>
      </trkpt>
      <trkpt lat="44.09298" lon="7.09309">
        <ele>1060.5999755859</ele>
        <time>2020-07-30T08:13:54.000Z</time>
      </trkpt>
      <trkpt lat="44.09276" lon="7.09287">
        <ele>1060.5999755859</ele>
        <time>2020-07-30T08:14:02.000Z</time>
      </trkpt>
      <trkpt lat="44.09265" lon="7.09274">
        <ele>1061</ele>
        <time>2020-07-30T08:14:06.000Z</time>
      </trkpt>
      <trkpt lat="44.09252" lon="7.09256">
        <ele>1061.1999511719</ele>
        <time>2020-07-30T08:14:11.000Z</time>
      </trkpt>
      <trkpt lat="44.09233" lon="7.09236">
        <ele>1061.8000488281</ele>
        <time>2020-07-30T08:14:18.000Z</time>
      </trkpt>
      <trkpt lat="44.09218" lon="7.09228">
        <ele>1062</ele>
        <time>2020-07-30T08:14:24.000Z</time>
      </trkpt>
      <trkpt lat="44.09215" lon="7.09227">
        <ele>1062.1999511719</ele>
        <time>2020-07-30T08:14:25.000Z</time>
      </trkpt>
      <trkpt lat="44.0919" lon="7.09214">
        <ele>1062.8000488281</ele>
        <time>2020-07-30T08:14:35.000Z</time>
      </trkpt>
      <trkpt lat="44.09179" lon="7.0921">
        <ele>1063.1999511719</ele>
        <time>2020-07-30T08:14:39.000Z</time>
      </trkpt>
      <trkpt lat="44.09165" lon="7.09205">
        <ele>1063.4000244141</ele>
        <time>2020-07-30T08:14:44.000Z</time>
      </trkpt>
      <trkpt lat="44.09149" lon="7.09191">
        <ele>1063.8000488281</ele>
        <time>2020-07-30T08:14:50.000Z</time>
      </trkpt>
      <trkpt lat="44.09128" lon="7.09163">
        <ele>1063.8000488281</ele>
        <time>2020-07-30T08:14:59.000Z</time>
      </trkpt>
      <trkpt lat="44.09119" lon="7.09139">
        <ele>1064.1999511719</ele>
        <time>2020-07-30T08:15:05.000Z</time>
      </trkpt>
      <trkpt lat="44.09114" lon="7.091">
        <ele>1065</ele>
        <time>2020-07-30T08:15:14.000Z</time>
      </trkpt>
      <trkpt lat="44.09111" lon="7.09078">
        <ele>1065.1999511719</ele>
        <time>2020-07-30T08:15:19.000Z</time>
      </trkpt>
      <trkpt lat="44.0911" lon="7.09051">
        <ele>1065.8000488281</ele>
        <time>2020-07-30T08:15:25.000Z</time>
      </trkpt>
      <trkpt lat="44.0911" lon="7.09019">
        <ele>1066.1999511719</ele>
        <time>2020-07-30T08:15:32.000Z</time>
      </trkpt>
      <trkpt lat="44.09109" lon="7.09005">
        <ele>1066.4000244141</ele>
        <time>2020-07-30T08:15:35.000Z</time>
      </trkpt>
      <trkpt lat="44.09102" lon="7.08979">
        <ele>1066.5999755859</ele>
        <time>2020-07-30T08:15:41.000Z</time>
      </trkpt>
      <trkpt lat="44.09083" lon="7.08951">
        <ele>1067</ele>
        <time>2020-07-30T08:15:49.000Z</time>
      </trkpt>
      <trkpt lat="44.09076" lon="7.08934">
        <ele>1067.1999511719</ele>
        <time>2020-07-30T08:15:53.000Z</time>
      </trkpt>
      <trkpt lat="44.09072" lon="7.08925">
        <ele>1067.4000244141</ele>
        <time>2020-07-30T08:15:55.000Z</time>
      </trkpt>
      <trkpt lat="44.09062" lon="7.08898">
        <ele>1068.4000244141</ele>
        <time>2020-07-30T08:16:02.000Z</time>
      </trkpt>
      <trkpt lat="44.09061" lon="7.08891">
        <ele>1068.5999755859</ele>
        <time>2020-07-30T08:16:04.000Z</time>
      </trkpt>
      <trkpt lat="44.09057" lon="7.08864">
        <ele>1069.4000244141</ele>
        <time>2020-07-30T08:16:11.000Z</time>
      </trkpt>
      <trkpt lat="44.09055" lon="7.08857">
        <ele>1069.5999755859</ele>
        <time>2020-07-30T08:16:13.000Z</time>
      </trkpt>
      <trkpt lat="44.09051" lon="7.08836">
        <ele>1070.5999755859</ele>
        <time>2020-07-30T08:16:19.000Z</time>
      </trkpt>
      <trkpt lat="44.09048" lon="7.0883">
        <ele>1071</ele>
        <time>2020-07-30T08:16:21.000Z</time>
      </trkpt>
      <trkpt lat="44.09036" lon="7.08806">
        <ele>1071.1999511719</ele>
        <time>2020-07-30T08:16:29.000Z</time>
      </trkpt>
      <trkpt lat="44.09025" lon="7.08779">
        <ele>1071</ele>
        <time>2020-07-30T08:16:37.000Z</time>
      </trkpt>
      <trkpt lat="44.09023" lon="7.08755">
        <ele>1070.4000244141</ele>
        <time>2020-07-30T08:16:44.000Z</time>
      </trkpt>
      <trkpt lat="44.09022" lon="7.08754">
        <ele>1070.5999755859</ele>
        <time>2020-07-30T08:16:49.000Z</time>
      </trkpt>
      <trkpt lat="44.09012" lon="7.0875">
        <ele>1070.5999755859</ele>
        <time>2020-07-30T08:16:54.000Z</time>
      </trkpt>
      <trkpt lat="44.08997" lon="7.08747">
        <ele>1070.1999511719</ele>
        <time>2020-07-30T08:17:00.000Z</time>
      </trkpt>
      <trkpt lat="44.08976" lon="7.08756">
        <ele>1069.5999755859</ele>
        <time>2020-07-30T08:17:06.000Z</time>
      </trkpt>
      <trkpt lat="44.08969" lon="7.08758">
        <ele>1069.4000244141</ele>
        <time>2020-07-30T08:17:08.000Z</time>
      </trkpt>
      <trkpt lat="44.08959" lon="7.08763">
        <ele>1068.4000244141</ele>
        <time>2020-07-30T08:17:12.000Z</time>
      </trkpt>
      <trkpt lat="44.08955" lon="7.08768">
        <ele>1068</ele>
        <time>2020-07-30T08:17:16.000Z</time>
      </trkpt>
      <trkpt lat="44.08955" lon="7.08768">
        <ele>1068</ele>
        <time>2020-07-30T08:17:20.000Z</time>
      </trkpt>
      <trkpt lat="44.08955" lon="7.08768">
        <ele>1068</ele>
        <time>2020-07-30T08:17:22.000Z</time>
      </trkpt>
      <trkpt lat="44.08955" lon="7.08778">
        <ele>1067.8000488281</ele>
        <time>2020-07-30T08:17:27.000Z</time>
      </trkpt>
      <trkpt lat="44.08954" lon="7.08782">
        <ele>1067.1999511719</ele>
        <time>2020-07-30T08:17:29.000Z</time>
      </trkpt>
      <trkpt lat="44.08954" lon="7.08784">
        <ele>1066.5999755859</ele>
        <time>2020-07-30T08:17:32.000Z</time>
      </trkpt>
      <trkpt lat="44.0895" lon="7.08794">
        <ele>1066.4000244141</ele>
        <time>2020-07-30T08:17:36.000Z</time>
      </trkpt>
      <trkpt lat="44.08949" lon="7.08795">
        <ele>1066.1999511719</ele>
        <time>2020-07-30T08:17:37.000Z</time>
      </trkpt>
      <trkpt lat="44.08946" lon="7.08798">
        <ele>1065.1999511719</ele>
        <time>2020-07-30T08:17:40.000Z</time>
      </trkpt>
      <trkpt lat="44.08944" lon="7.08798">
        <ele>1065.1999511719</ele>
        <time>2020-07-30T08:17:41.000Z</time>
      </trkpt>
      <trkpt lat="44.0894" lon="7.08795">
        <ele>1065</ele>
        <time>2020-07-30T08:17:44.000Z</time>
      </trkpt>
      <trkpt lat="44.08937" lon="7.08793">
        <ele>1064.8000488281</ele>
        <time>2020-07-30T08:17:47.000Z</time>
      </trkpt>
      <trkpt lat="44.08934" lon="7.08794">
        <ele>1065</ele>
        <time>2020-07-30T08:17:54.000Z</time>
      </trkpt>
      <trkpt lat="44.08936" lon="7.08795">
        <ele>1065</ele>
        <time>2020-07-30T08:18:01.000Z</time>
      </trkpt>
      <trkpt lat="44.08947" lon="7.0879">
        <ele>1064.8000488281</ele>
        <time>2020-07-30T08:18:06.000Z</time>
      </trkpt>
      <trkpt lat="44.08952" lon="7.08778">
        <ele>1065.4000244141</ele>
        <time>2020-07-30T08:18:11.000Z</time>
      </trkpt>
      <trkpt lat="44.08953" lon="7.08774">
        <ele>1066.1999511719</ele>
        <time>2020-07-30T08:18:13.000Z</time>
      </trkpt>
      <trkpt lat="44.08954" lon="7.08766">
        <ele>1067</ele>
        <time>2020-07-30T08:18:17.000Z</time>
      </trkpt>
      <trkpt lat="44.08955" lon="7.08765">
        <ele>1067.1999511719</ele>
        <time>2020-07-30T08:18:18.000Z</time>
      </trkpt>
      <trkpt lat="44.08956" lon="7.08763">
        <ele>1067.4000244141</ele>
        <time>2020-07-30T08:18:20.000Z</time>
      </trkpt>
      <trkpt lat="44.08957" lon="7.08762">
        <ele>1067.5999755859</ele>
        <time>2020-07-30T08:18:21.000Z</time>
      </trkpt>
      <trkpt lat="44.08958" lon="7.08763">
        <ele>1068</ele>
        <time>2020-07-30T08:18:26.000Z</time>
      </trkpt>
      <trkpt lat="44.0896" lon="7.08761">
        <ele>1068</ele>
        <time>2020-07-30T08:18:31.000Z</time>
      </trkpt>
      <trkpt lat="44.0896" lon="7.08762">
        <ele>1068</ele>
        <time>2020-07-30T08:18:37.000Z</time>
      </trkpt>
      <trkpt lat="44.08958" lon="7.08763">
        <ele>1068</ele>
        <time>2020-07-30T08:18:39.000Z</time>
      </trkpt>
      <trkpt lat="44.08957" lon="7.08762">
        <ele>1068.1999511719</ele>
        <time>2020-07-30T08:18:42.000Z</time>
      </trkpt>
      <trkpt lat="44.08957" lon="7.08761">
        <ele>1067.8000488281</ele>
        <time>2020-07-30T08:18:48.000Z</time>
      </trkpt>
      <trkpt lat="44.08956" lon="7.08761">
        <ele>1068.4000244141</ele>
        <time>2020-07-30T08:18:53.000Z</time>
      </trkpt>
      <trkpt lat="44.08956" lon="7.08761">
        <ele>1068</ele>
        <time>2020-07-30T08:18:58.000Z</time>
      </trkpt>
      <trkpt lat="44.08955" lon="7.08761">
        <ele>1068.1999511719</ele>
        <time>2020-07-30T08:19:08.000Z</time>
      </trkpt>
      <trkpt lat="44.08955" lon="7.08761">
        <ele>1067.5999755859</ele>
        <time>2020-07-30T08:19:16.000Z</time>
      </trkpt>
      <trkpt lat="44.08955" lon="7.08761">
        <ele>1067.8000488281</ele>
        <time>2020-07-30T08:19:24.000Z</time>
      </trkpt>
      <trkpt lat="44.08955" lon="7.08761">
        <ele>1067.4000244141</ele>
        <time>2020-07-30T08:19:30.000Z</time>
      </trkpt>
      <trkpt lat="44.08954" lon="7.08761">
        <ele>1067.8000488281</ele>
        <time>2020-07-30T08:19:41.000Z</time>
      </trkpt>
      <trkpt lat="44.08954" lon="7.0876">
        <ele>1067.8000488281</ele>
        <time>2020-07-30T08:19:54.000Z</time>
      </trkpt>
      <trkpt lat="44.08954" lon="7.0876">
        <ele>1067.8000488281</ele>
        <time>2020-07-30T08:20:03.000Z</time>
      </trkpt>
      <trkpt lat="44.08953" lon="7.08761">
        <ele>1067.8000488281</ele>
        <time>2020-07-30T08:20:11.000Z</time>
      </trkpt>
      <trkpt lat="44.08953" lon="7.08761">
        <ele>1067.8000488281</ele>
        <time>2020-07-30T08:20:19.000Z</time>
      </trkpt>
      <trkpt lat="44.08953" lon="7.08761">
        <ele>1067.8000488281</ele>
        <time>2020-07-30T08:20:28.000Z</time>
      </trkpt>
      <trkpt lat="44.08952" lon="7.08763">
        <ele>1067.8000488281</ele>
        <time>2020-07-30T08:20:35.000Z</time>
      </trkpt>
      <trkpt lat="44.08951" lon="7.08764">
        <ele>1067.5999755859</ele>
        <time>2020-07-30T08:20:45.000Z</time>
      </trkpt>
      <trkpt lat="44.08951" lon="7.08763">
        <ele>1067.1999511719</ele>
        <time>2020-07-30T08:20:50.000Z</time>
      </trkpt>
      <trkpt lat="44.0895" lon="7.08764">
        <ele>1067.4000244141</ele>
        <time>2020-07-30T08:20:54.000Z</time>
      </trkpt>
      <trkpt lat="44.0895" lon="7.08764">
        <ele>1067.1999511719</ele>
        <time>2020-07-30T08:21:00.000Z</time>
      </trkpt>
      <trkpt lat="44.08949" lon="7.08765">
        <ele>1066.8000488281</ele>
        <time>2020-07-30T08:21:08.000Z</time>
      </trkpt>
      <trkpt lat="44.0895" lon="7.08765">
        <ele>1066.8000488281</ele>
        <time>2020-07-30T08:21:18.000Z</time>
      </trkpt>
      <trkpt lat="44.08951" lon="7.08764">
        <ele>1067.4000244141</ele>
        <time>2020-07-30T08:21:27.000Z</time>
      </trkpt>
      <trkpt lat="44.08951" lon="7.08766">
        <ele>1067</ele>
        <time>2020-07-30T08:21:34.000Z</time>
      </trkpt>
      <trkpt lat="44.0895" lon="7.08765">
        <ele>1067.4000244141</ele>
        <time>2020-07-30T08:21:40.000Z</time>
      </trkpt>
      <trkpt lat="44.08949" lon="7.08765">
        <ele>1067.1999511719</ele>
        <time>2020-07-30T08:21:48.000Z</time>
      </trkpt>
      <trkpt lat="44.08952" lon="7.08762">
        <ele>1067.4000244141</ele>
        <time>2020-07-30T08:21:53.000Z</time>
      </trkpt>
      <trkpt lat="44.08954" lon="7.0876">
        <ele>1067.4000244141</ele>
        <time>2020-07-30T08:21:57.000Z</time>
      </trkpt>
      <trkpt lat="44.08956" lon="7.08759">
        <ele>1067.1999511719</ele>
        <time>2020-07-30T08:22:00.000Z</time>
      </trkpt>
      <trkpt lat="44.08955" lon="7.0876">
        <ele>1067</ele>
        <time>2020-07-30T08:22:08.000Z</time>
      </trkpt>
      <trkpt lat="44.08959" lon="7.08761">
        <ele>1067.4000244141</ele>
        <time>2020-07-30T08:22:14.000Z</time>
      </trkpt>
      <trkpt lat="44.08961" lon="7.0876">
        <ele>1067.4000244141</ele>
        <time>2020-07-30T08:22:15.000Z</time>
      </trkpt>
      <trkpt lat="44.08968" lon="7.08757">
        <ele>1067.4000244141</ele>
        <time>2020-07-30T08:22:18.000Z</time>
      </trkpt>
      <trkpt lat="44.08984" lon="7.08752">
        <ele>1067.8000488281</ele>
        <time>2020-07-30T08:22:24.000Z</time>
      </trkpt>
      <trkpt lat="44.08997" lon="7.08745">
        <ele>1068.4000244141</ele>
        <time>2020-07-30T08:22:30.000Z</time>
      </trkpt>
      <trkpt lat="44.08998" lon="7.08745">
        <ele>1068.4000244141</ele>
        <time>2020-07-30T08:22:31.000Z</time>
      </trkpt>
      <trkpt lat="44.09" lon="7.08745">
        <ele>1068.8000488281</ele>
        <time>2020-07-30T08:22:35.000Z</time>
      </trkpt>
      <trkpt lat="44.09" lon="7.08745">
        <ele>1069</ele>
        <time>2020-07-30T08:22:39.000Z</time>
      </trkpt>
      <trkpt lat="44.09002" lon="7.08745">
        <ele>1069</ele>
        <time>2020-07-30T08:22:46.000Z</time>
      </trkpt>
      <trkpt lat="44.09005" lon="7.08745">
        <ele>1069</ele>
        <time>2020-07-30T08:22:48.000Z</time>
      </trkpt>
      <trkpt lat="44.0901" lon="7.08746">
        <ele>1068.8000488281</ele>
        <time>2020-07-30T08:22:50.000Z</time>
      </trkpt>
      <trkpt lat="44.09021" lon="7.08756">
        <ele>1068.8000488281</ele>
        <time>2020-07-30T08:22:54.000Z</time>
      </trkpt>
      <trkpt lat="44.09023" lon="7.08757">
        <ele>1068.8000488281</ele>
        <time>2020-07-30T08:22:55.000Z</time>
      </trkpt>
      <trkpt lat="44.09026" lon="7.08756">
        <ele>1068.5999755859</ele>
        <time>2020-07-30T08:22:56.000Z</time>
      </trkpt>
      <trkpt lat="44.09024" lon="7.08747">
        <ele>1068.5999755859</ele>
        <time>2020-07-30T08:22:59.000Z</time>
      </trkpt>
      <trkpt lat="44.09012" lon="7.08737">
        <ele>1069.4000244141</ele>
        <time>2020-07-30T08:23:04.000Z</time>
      </trkpt>
      <trkpt lat="44.09008" lon="7.08734">
        <ele>1070.5999755859</ele>
        <time>2020-07-30T08:23:06.000Z</time>
      </trkpt>
      <trkpt lat="44.09006" lon="7.08731">
        <ele>1071.4000244141</ele>
        <time>2020-07-30T08:23:07.000Z</time>
      </trkpt>
      <trkpt lat="44.09004" lon="7.08729">
        <ele>1071.8000488281</ele>
        <time>2020-07-30T08:23:08.000Z</time>
      </trkpt>
      <trkpt lat="44.08998" lon="7.08725">
        <ele>1073.1999511719</ele>
        <time>2020-07-30T08:23:11.000Z</time>
      </trkpt>
      <trkpt lat="44.08991" lon="7.08724">
        <ele>1073.8000488281</ele>
        <time>2020-07-30T08:23:14.000Z</time>
      </trkpt>
      <trkpt lat="44.08987" lon="7.08722">
        <ele>1074.4000244141</ele>
        <time>2020-07-30T08:23:16.000Z</time>
      </trkpt>
      <trkpt lat="44.08981" lon="7.0872">
        <ele>1075.4000244141</ele>
        <time>2020-07-30T08:23:20.000Z</time>
      </trkpt>
      <trkpt lat="44.08978" lon="7.0872">
        <ele>1076</ele>
        <time>2020-07-30T08:23:22.000Z</time>
      </trkpt>
      <trkpt lat="44.08975" lon="7.08719">
        <ele>1076.5999755859</ele>
        <time>2020-07-30T08:23:24.000Z</time>
      </trkpt>
      <trkpt lat="44.08968" lon="7.08715">
        <ele>1077.5999755859</ele>
        <time>2020-07-30T08:23:29.000Z</time>
      </trkpt>
      <trkpt lat="44.08967" lon="7.08714">
        <ele>1077.8000488281</ele>
        <time>2020-07-30T08:23:30.000Z</time>
      </trkpt>
      <trkpt lat="44.08967" lon="7.08708">
        <ele>1078.4000244141</ele>
        <time>2020-07-30T08:23:33.000Z</time>
      </trkpt>
      <trkpt lat="44.08969" lon="7.08707">
        <ele>1078.5999755859</ele>
        <time>2020-07-30T08:23:34.000Z</time>
      </trkpt>
      <trkpt lat="44.0897" lon="7.08708">
        <ele>1078.8000488281</ele>
        <time>2020-07-30T08:23:35.000Z</time>
      </trkpt>
      <trkpt lat="44.08973" lon="7.08709">
        <ele>1079.1999511719</ele>
        <time>2020-07-30T08:23:37.000Z</time>
      </trkpt>
      <trkpt lat="44.08978" lon="7.08709">
        <ele>1079.8000488281</ele>
        <time>2020-07-30T08:23:40.000Z</time>
      </trkpt>
      <trkpt lat="44.08985" lon="7.08711">
        <ele>1080.8000488281</ele>
        <time>2020-07-30T08:23:44.000Z</time>
      </trkpt>
      <trkpt lat="44.08987" lon="7.0871">
        <ele>1081</ele>
        <time>2020-07-30T08:23:45.000Z</time>
      </trkpt>
      <trkpt lat="44.08997" lon="7.0871">
        <ele>1082</ele>
        <time>2020-07-30T08:23:51.000Z</time>
      </trkpt>
      <trkpt lat="44.08999" lon="7.0871">
        <ele>1082.1999511719</ele>
        <time>2020-07-30T08:23:52.000Z</time>
      </trkpt>
      <trkpt lat="44.09008" lon="7.08712">
        <ele>1083</ele>
        <time>2020-07-30T08:23:57.000Z</time>
      </trkpt>
      <trkpt lat="44.09014" lon="7.08712">
        <ele>1083.8000488281</ele>
        <time>2020-07-30T08:24:00.000Z</time>
      </trkpt>
      <trkpt lat="44.09017" lon="7.08715">
        <ele>1084.1999511719</ele>
        <time>2020-07-30T08:24:02.000Z</time>
      </trkpt>
      <trkpt lat="44.09024" lon="7.08721">
        <ele>1085.4000244141</ele>
        <time>2020-07-30T08:24:07.000Z</time>
      </trkpt>
      <trkpt lat="44.09026" lon="7.08721">
        <ele>1085.8000488281</ele>
        <time>2020-07-30T08:24:09.000Z</time>
      </trkpt>
      <trkpt lat="44.09028" lon="7.08718">
        <ele>1086</ele>
        <time>2020-07-30T08:24:11.000Z</time>
      </trkpt>
      <trkpt lat="44.09028" lon="7.08712">
        <ele>1086.4000244141</ele>
        <time>2020-07-30T08:24:14.000Z</time>
      </trkpt>
      <trkpt lat="44.09026" lon="7.08708">
        <ele>1086.5999755859</ele>
        <time>2020-07-30T08:24:16.000Z</time>
      </trkpt>
      <trkpt lat="44.09024" lon="7.08706">
        <ele>1086.8000488281</ele>
        <time>2020-07-30T08:24:17.000Z</time>
      </trkpt>
      <trkpt lat="44.09018" lon="7.08703">
        <ele>1087.4000244141</ele>
        <time>2020-07-30T08:24:20.000Z</time>
      </trkpt>
      <trkpt lat="44.09016" lon="7.08703">
        <ele>1087.4000244141</ele>
        <time>2020-07-30T08:24:21.000Z</time>
      </trkpt>
      <trkpt lat="44.09" lon="7.08696">
        <ele>1088.4000244141</ele>
        <time>2020-07-30T08:24:30.000Z</time>
      </trkpt>
      <trkpt lat="44.08996" lon="7.08693">
        <ele>1088.5999755859</ele>
        <time>2020-07-30T08:24:32.000Z</time>
      </trkpt>
      <trkpt lat="44.08988" lon="7.08685">
        <ele>1089.8000488281</ele>
        <time>2020-07-30T08:24:37.000Z</time>
      </trkpt>
      <trkpt lat="44.08982" lon="7.08679">
        <ele>1090</ele>
        <time>2020-07-30T08:24:41.000Z</time>
      </trkpt>
      <trkpt lat="44.08978" lon="7.08673">
        <ele>1090.8000488281</ele>
        <time>2020-07-30T08:24:47.000Z</time>
      </trkpt>
      <trkpt lat="44.08977" lon="7.08673">
        <ele>1091</ele>
        <time>2020-07-30T08:24:54.000Z</time>
      </trkpt>
      <trkpt lat="44.08975" lon="7.08672">
        <ele>1091</ele>
        <time>2020-07-30T08:25:03.000Z</time>
      </trkpt>
      <trkpt lat="44.08973" lon="7.08668">
        <ele>1091.4000244141</ele>
        <time>2020-07-30T08:25:10.000Z</time>
      </trkpt>
      <trkpt lat="44.08971" lon="7.08666">
        <ele>1091.4000244141</ele>
        <time>2020-07-30T08:25:11.000Z</time>
      </trkpt>
      <trkpt lat="44.08965" lon="7.08661">
        <ele>1091.5999755859</ele>
        <time>2020-07-30T08:25:15.000Z</time>
      </trkpt>
      <trkpt lat="44.08964" lon="7.08659">
        <ele>1091.8000488281</ele>
        <time>2020-07-30T08:25:16.000Z</time>
      </trkpt>
      <trkpt lat="44.08958" lon="7.0865">
        <ele>1093</ele>
        <time>2020-07-30T08:25:21.000Z</time>
      </trkpt>
      <trkpt lat="44.08956" lon="7.08643">
        <ele>1093.4000244141</ele>
        <time>2020-07-30T08:25:24.000Z</time>
      </trkpt>
      <trkpt lat="44.08956" lon="7.08641">
        <ele>1093.8000488281</ele>
        <time>2020-07-30T08:25:25.000Z</time>
      </trkpt>
      <trkpt lat="44.08955" lon="7.08638">
        <ele>1094</ele>
        <time>2020-07-30T08:25:26.000Z</time>
      </trkpt>
      <trkpt lat="44.08956" lon="7.08628">
        <ele>1095.1999511719</ele>
        <time>2020-07-30T08:25:30.000Z</time>
      </trkpt>
      <trkpt lat="44.0896" lon="7.08618">
        <ele>1096.4000244141</ele>
        <time>2020-07-30T08:25:35.000Z</time>
      </trkpt>
      <trkpt lat="44.0896" lon="7.08616">
        <ele>1096.5999755859</ele>
        <time>2020-07-30T08:25:36.000Z</time>
      </trkpt>
      <trkpt lat="44.08963" lon="7.08609">
        <ele>1097.4000244141</ele>
        <time>2020-07-30T08:25:40.000Z</time>
      </trkpt>
      <trkpt lat="44.08967" lon="7.086">
        <ele>1098.4000244141</ele>
        <time>2020-07-30T08:25:45.000Z</time>
      </trkpt>
      <trkpt lat="44.08968" lon="7.08597">
        <ele>1099</ele>
        <time>2020-07-30T08:25:47.000Z</time>
      </trkpt>
      <trkpt lat="44.08969" lon="7.08592">
        <ele>1099.5999755859</ele>
        <time>2020-07-30T08:25:50.000Z</time>
      </trkpt>
      <trkpt lat="44.08971" lon="7.08583">
        <ele>1100.1999511719</ele>
        <time>2020-07-30T08:25:55.000Z</time>
      </trkpt>
      <trkpt lat="44.08973" lon="7.08578">
        <ele>1100.5999755859</ele>
        <time>2020-07-30T08:25:58.000Z</time>
      </trkpt>
      <trkpt lat="44.08977" lon="7.08563">
        <ele>1102</ele>
        <time>2020-07-30T08:26:05.000Z</time>
      </trkpt>
      <trkpt lat="44.08981" lon="7.08552">
        <ele>1103</ele>
        <time>2020-07-30T08:26:10.000Z</time>
      </trkpt>
      <trkpt lat="44.08983" lon="7.08548">
        <ele>1103.4000244141</ele>
        <time>2020-07-30T08:26:12.000Z</time>
      </trkpt>
      <trkpt lat="44.08987" lon="7.08537">
        <ele>1104.1999511719</ele>
        <time>2020-07-30T08:26:17.000Z</time>
      </trkpt>
      <trkpt lat="44.08994" lon="7.08527">
        <ele>1105.4000244141</ele>
        <time>2020-07-30T08:26:23.000Z</time>
      </trkpt>
      <trkpt lat="44.09002" lon="7.08521">
        <ele>1106.4000244141</ele>
        <time>2020-07-30T08:26:29.000Z</time>
      </trkpt>
      <trkpt lat="44.09004" lon="7.0852">
        <ele>1106.5999755859</ele>
        <time>2020-07-30T08:26:30.000Z</time>
      </trkpt>
      <trkpt lat="44.09011" lon="7.08522">
        <ele>1107.5999755859</ele>
        <time>2020-07-30T08:26:35.000Z</time>
      </trkpt>
      <trkpt lat="44.09013" lon="7.08523">
        <ele>1107.5999755859</ele>
        <time>2020-07-30T08:26:36.000Z</time>
      </trkpt>
      <trkpt lat="44.09014" lon="7.08524">
        <ele>1107.8000488281</ele>
        <time>2020-07-30T08:26:37.000Z</time>
      </trkpt>
      <trkpt lat="44.09019" lon="7.08527">
        <ele>1108.8000488281</ele>
        <time>2020-07-30T08:26:41.000Z</time>
      </trkpt>
      <trkpt lat="44.09023" lon="7.0853">
        <ele>1109.4000244141</ele>
        <time>2020-07-30T08:26:44.000Z</time>
      </trkpt>
      <trkpt lat="44.09027" lon="7.08533">
        <ele>1109.8000488281</ele>
        <time>2020-07-30T08:26:47.000Z</time>
      </trkpt>
      <trkpt lat="44.09032" lon="7.08537">
        <ele>1110.4000244141</ele>
        <time>2020-07-30T08:26:51.000Z</time>
      </trkpt>
      <trkpt lat="44.09036" lon="7.08545">
        <ele>1111</ele>
        <time>2020-07-30T08:26:56.000Z</time>
      </trkpt>
      <trkpt lat="44.09037" lon="7.08551">
        <ele>1111.5999755859</ele>
        <time>2020-07-30T08:26:59.000Z</time>
      </trkpt>
      <trkpt lat="44.09039" lon="7.08554">
        <ele>1112</ele>
        <time>2020-07-30T08:27:01.000Z</time>
      </trkpt>
      <trkpt lat="44.09044" lon="7.0856">
        <ele>1113</ele>
        <time>2020-07-30T08:27:06.000Z</time>
      </trkpt>
      <trkpt lat="44.09047" lon="7.08561">
        <ele>1113</ele>
        <time>2020-07-30T08:27:08.000Z</time>
      </trkpt>
      <trkpt lat="44.09057" lon="7.08563">
        <ele>1113.8000488281</ele>
        <time>2020-07-30T08:27:14.000Z</time>
      </trkpt>
      <trkpt lat="44.0906" lon="7.08563">
        <ele>1114.1999511719</ele>
        <time>2020-07-30T08:27:16.000Z</time>
      </trkpt>
      <trkpt lat="44.0907" lon="7.08563">
        <ele>1115.1999511719</ele>
        <time>2020-07-30T08:27:22.000Z</time>
      </trkpt>
      <trkpt lat="44.09072" lon="7.08563">
        <ele>1115.4000244141</ele>
        <time>2020-07-30T08:27:23.000Z</time>
      </trkpt>
      <trkpt lat="44.09083" lon="7.08566">
        <ele>1116.4000244141</ele>
        <time>2020-07-30T08:27:29.000Z</time>
      </trkpt>
      <trkpt lat="44.09088" lon="7.08568">
        <ele>1117</ele>
        <time>2020-07-30T08:27:32.000Z</time>
      </trkpt>
      <trkpt lat="44.09094" lon="7.08571">
        <ele>1117.5999755859</ele>
        <time>2020-07-30T08:27:35.000Z</time>
      </trkpt>
      <trkpt lat="44.09101" lon="7.08573">
        <ele>1118.8000488281</ele>
        <time>2020-07-30T08:27:39.000Z</time>
      </trkpt>
      <trkpt lat="44.09102" lon="7.08573">
        <ele>1119</ele>
        <time>2020-07-30T08:27:40.000Z</time>
      </trkpt>
      <trkpt lat="44.09109" lon="7.08571">
        <ele>1120</ele>
        <time>2020-07-30T08:27:44.000Z</time>
      </trkpt>
      <trkpt lat="44.09118" lon="7.08567">
        <ele>1120.8000488281</ele>
        <time>2020-07-30T08:27:49.000Z</time>
      </trkpt>
      <trkpt lat="44.09121" lon="7.08566">
        <ele>1121.1999511719</ele>
        <time>2020-07-30T08:27:51.000Z</time>
      </trkpt>
      <trkpt lat="44.09131" lon="7.08562">
        <ele>1122.1999511719</ele>
        <time>2020-07-30T08:27:57.000Z</time>
      </trkpt>
      <trkpt lat="44.09144" lon="7.08556">
        <ele>1123.4000244141</ele>
        <time>2020-07-30T08:28:04.000Z</time>
      </trkpt>
      <trkpt lat="44.09146" lon="7.08556">
        <ele>1123.8000488281</ele>
        <time>2020-07-30T08:28:05.000Z</time>
      </trkpt>
      <trkpt lat="44.09149" lon="7.08558">
        <ele>1124.1999511719</ele>
        <time>2020-07-30T08:28:07.000Z</time>
      </trkpt>
      <trkpt lat="44.0915" lon="7.0856">
        <ele>1124.4000244141</ele>
        <time>2020-07-30T08:28:08.000Z</time>
      </trkpt>
      <trkpt lat="44.09152" lon="7.08562">
        <ele>1125.4000244141</ele>
        <time>2020-07-30T08:28:10.000Z</time>
      </trkpt>
      <trkpt lat="44.09152" lon="7.08564">
        <ele>1125.8000488281</ele>
        <time>2020-07-30T08:28:11.000Z</time>
      </trkpt>
      <trkpt lat="44.09151" lon="7.08568">
        <ele>1126.5999755859</ele>
        <time>2020-07-30T08:28:14.000Z</time>
      </trkpt>
      <trkpt lat="44.0915" lon="7.0857">
        <ele>1126.5999755859</ele>
        <time>2020-07-30T08:28:15.000Z</time>
      </trkpt>
      <trkpt lat="44.09148" lon="7.08572">
        <ele>1127</ele>
        <time>2020-07-30T08:28:17.000Z</time>
      </trkpt>
      <trkpt lat="44.09138" lon="7.08582">
        <ele>1127.1999511719</ele>
        <time>2020-07-30T08:28:25.000Z</time>
      </trkpt>
      <trkpt lat="44.09124" lon="7.08592">
        <ele>1127.8000488281</ele>
        <time>2020-07-30T08:28:33.000Z</time>
      </trkpt>
      <trkpt lat="44.09121" lon="7.08595">
        <ele>1128</ele>
        <time>2020-07-30T08:28:35.000Z</time>
      </trkpt>
      <trkpt lat="44.0911" lon="7.08603">
        <ele>1128.5999755859</ele>
        <time>2020-07-30T08:28:41.000Z</time>
      </trkpt>
      <trkpt lat="44.09106" lon="7.08608">
        <ele>1128.8000488281</ele>
        <time>2020-07-30T08:28:44.000Z</time>
      </trkpt>
      <trkpt lat="44.09106" lon="7.08615">
        <ele>1129</ele>
        <time>2020-07-30T08:28:47.000Z</time>
      </trkpt>
      <trkpt lat="44.09116" lon="7.08638">
        <ele>1130</ele>
        <time>2020-07-30T08:28:56.000Z</time>
      </trkpt>
      <trkpt lat="44.09117" lon="7.08641">
        <ele>1130</ele>
        <time>2020-07-30T08:28:57.000Z</time>
      </trkpt>
      <trkpt lat="44.0912" lon="7.0865">
        <ele>1131</ele>
        <time>2020-07-30T08:29:03.000Z</time>
      </trkpt>
      <trkpt lat="44.09121" lon="7.0865">
        <ele>1131.1999511719</ele>
        <time>2020-07-30T08:29:04.000Z</time>
      </trkpt>
      <trkpt lat="44.09122" lon="7.08655">
        <ele>1131.5999755859</ele>
        <time>2020-07-30T08:29:08.000Z</time>
      </trkpt>
      <trkpt lat="44.09127" lon="7.08673">
        <ele>1131.8000488281</ele>
        <time>2020-07-30T08:29:14.000Z</time>
      </trkpt>
      <trkpt lat="44.09131" lon="7.08685">
        <ele>1132.4000244141</ele>
        <time>2020-07-30T08:29:18.000Z</time>
      </trkpt>
      <trkpt lat="44.09137" lon="7.08705">
        <ele>1133.5999755859</ele>
        <time>2020-07-30T08:29:24.000Z</time>
      </trkpt>
      <trkpt lat="44.09138" lon="7.08708">
        <ele>1133.5999755859</ele>
        <time>2020-07-30T08:29:25.000Z</time>
      </trkpt>
      <trkpt lat="44.09146" lon="7.0872">
        <ele>1134.8000488281</ele>
        <time>2020-07-30T08:29:30.000Z</time>
      </trkpt>
      <trkpt lat="44.09152" lon="7.08726">
        <ele>1135.4000244141</ele>
        <time>2020-07-30T08:29:33.000Z</time>
      </trkpt>
      <trkpt lat="44.09155" lon="7.0873">
        <ele>1135.8000488281</ele>
        <time>2020-07-30T08:29:35.000Z</time>
      </trkpt>
      <trkpt lat="44.09165" lon="7.08744">
        <ele>1137</ele>
        <time>2020-07-30T08:29:41.000Z</time>
      </trkpt>
      <trkpt lat="44.09174" lon="7.08769">
        <ele>1137.8000488281</ele>
        <time>2020-07-30T08:29:50.000Z</time>
      </trkpt>
      <trkpt lat="44.09175" lon="7.08772">
        <ele>1138</ele>
        <time>2020-07-30T08:29:51.000Z</time>
      </trkpt>
      <trkpt lat="44.0918" lon="7.08791">
        <ele>1138.8000488281</ele>
        <time>2020-07-30T08:29:58.000Z</time>
      </trkpt>
      <trkpt lat="44.09181" lon="7.08794">
        <ele>1139</ele>
        <time>2020-07-30T08:29:59.000Z</time>
      </trkpt>
      <trkpt lat="44.09186" lon="7.08816">
        <ele>1140</ele>
        <time>2020-07-30T08:30:07.000Z</time>
      </trkpt>
      <trkpt lat="44.09192" lon="7.08834">
        <ele>1141</ele>
        <time>2020-07-30T08:30:14.000Z</time>
      </trkpt>
      <trkpt lat="44.09194" lon="7.08842">
        <ele>1141.5999755859</ele>
        <time>2020-07-30T08:30:17.000Z</time>
      </trkpt>
      <trkpt lat="44.09197" lon="7.08851">
        <ele>1142.1999511719</ele>
        <time>2020-07-30T08:30:21.000Z</time>
      </trkpt>
      <trkpt lat="44.09201" lon="7.08865">
        <ele>1143</ele>
        <time>2020-07-30T08:30:27.000Z</time>
      </trkpt>
      <trkpt lat="44.09203" lon="7.0887">
        <ele>1143.1999511719</ele>
        <time>2020-07-30T08:30:29.000Z</time>
      </trkpt>
      <trkpt lat="44.09209" lon="7.08883">
        <ele>1144.1999511719</ele>
        <time>2020-07-30T08:30:35.000Z</time>
      </trkpt>
      <trkpt lat="44.0921" lon="7.08886">
        <ele>1144.1999511719</ele>
        <time>2020-07-30T08:30:36.000Z</time>
      </trkpt>
      <trkpt lat="44.09221" lon="7.08902">
        <ele>1145.1999511719</ele>
        <time>2020-07-30T08:30:44.000Z</time>
      </trkpt>
      <trkpt lat="44.09223" lon="7.08905">
        <ele>1145.4000244141</ele>
        <time>2020-07-30T08:30:45.000Z</time>
      </trkpt>
      <trkpt lat="44.09233" lon="7.08915">
        <ele>1146.4000244141</ele>
        <time>2020-07-30T08:30:51.000Z</time>
      </trkpt>
      <trkpt lat="44.09239" lon="7.08919">
        <ele>1147</ele>
        <time>2020-07-30T08:30:54.000Z</time>
      </trkpt>
      <trkpt lat="44.09245" lon="7.08923">
        <ele>1147.5999755859</ele>
        <time>2020-07-30T08:30:57.000Z</time>
      </trkpt>
      <trkpt lat="44.09257" lon="7.0893">
        <ele>1148.4000244141</ele>
        <time>2020-07-30T08:31:03.000Z</time>
      </trkpt>
      <trkpt lat="44.09259" lon="7.08931">
        <ele>1148.5999755859</ele>
        <time>2020-07-30T08:31:04.000Z</time>
      </trkpt>
      <trkpt lat="44.09271" lon="7.08937">
        <ele>1149.5999755859</ele>
        <time>2020-07-30T08:31:10.000Z</time>
      </trkpt>
      <trkpt lat="44.09283" lon="7.08945">
        <ele>1150.8000488281</ele>
        <time>2020-07-30T08:31:16.000Z</time>
      </trkpt>
      <trkpt lat="44.09288" lon="7.0895">
        <ele>1151</ele>
        <time>2020-07-30T08:31:19.000Z</time>
      </trkpt>
      <trkpt lat="44.09297" lon="7.08958">
        <ele>1151.8000488281</ele>
        <time>2020-07-30T08:31:24.000Z</time>
      </trkpt>
      <trkpt lat="44.09302" lon="7.08961">
        <ele>1152.1999511719</ele>
        <time>2020-07-30T08:31:27.000Z</time>
      </trkpt>
      <trkpt lat="44.09308" lon="7.08966">
        <ele>1153</ele>
        <time>2020-07-30T08:31:32.000Z</time>
      </trkpt>
      <trkpt lat="44.09309" lon="7.08967">
        <ele>1153</ele>
        <time>2020-07-30T08:31:33.000Z</time>
      </trkpt>
      <trkpt lat="44.09318" lon="7.0897">
        <ele>1153.4000244141</ele>
        <time>2020-07-30T08:31:39.000Z</time>
      </trkpt>
      <trkpt lat="44.09325" lon="7.08973">
        <ele>1154</ele>
        <time>2020-07-30T08:31:43.000Z</time>
      </trkpt>
      <trkpt lat="44.09334" lon="7.08976">
        <ele>1154.5999755859</ele>
        <time>2020-07-30T08:31:47.000Z</time>
      </trkpt>
      <trkpt lat="44.09343" lon="7.08978">
        <ele>1155</ele>
        <time>2020-07-30T08:31:51.000Z</time>
      </trkpt>
      <trkpt lat="44.09355" lon="7.08984">
        <ele>1156</ele>
        <time>2020-07-30T08:31:57.000Z</time>
      </trkpt>
      <trkpt lat="44.09357" lon="7.08986">
        <ele>1156.1999511719</ele>
        <time>2020-07-30T08:31:58.000Z</time>
      </trkpt>
      <trkpt lat="44.09367" lon="7.08996">
        <ele>1157.1999511719</ele>
        <time>2020-07-30T08:32:04.000Z</time>
      </trkpt>
      <trkpt lat="44.09371" lon="7.09">
        <ele>1157.4000244141</ele>
        <time>2020-07-30T08:32:06.000Z</time>
      </trkpt>
      <trkpt lat="44.0938" lon="7.09012">
        <ele>1158.1999511719</ele>
        <time>2020-07-30T08:32:12.000Z</time>
      </trkpt>
      <trkpt lat="44.09384" lon="7.09017">
        <ele>1158.5999755859</ele>
        <time>2020-07-30T08:32:15.000Z</time>
      </trkpt>
      <trkpt lat="44.0939" lon="7.09025">
        <ele>1159.4000244141</ele>
        <time>2020-07-30T08:32:19.000Z</time>
      </trkpt>
      <trkpt lat="44.094" lon="7.09037">
        <ele>1160.4000244141</ele>
        <time>2020-07-30T08:32:25.000Z</time>
      </trkpt>
      <trkpt lat="44.09412" lon="7.0905">
        <ele>1161.5999755859</ele>
        <time>2020-07-30T08:32:31.000Z</time>
      </trkpt>
      <trkpt lat="44.09416" lon="7.09053">
        <ele>1161.8000488281</ele>
        <time>2020-07-30T08:32:33.000Z</time>
      </trkpt>
      <trkpt lat="44.09424" lon="7.0906">
        <ele>1162.5999755859</ele>
        <time>2020-07-30T08:32:37.000Z</time>
      </trkpt>
      <trkpt lat="44.09431" lon="7.09069">
        <ele>1163.4000244141</ele>
        <time>2020-07-30T08:32:41.000Z</time>
      </trkpt>
      <trkpt lat="44.09433" lon="7.09071">
        <ele>1163.5999755859</ele>
        <time>2020-07-30T08:32:42.000Z</time>
      </trkpt>
      <trkpt lat="44.09442" lon="7.0908">
        <ele>1165</ele>
        <time>2020-07-30T08:32:47.000Z</time>
      </trkpt>
      <trkpt lat="44.09448" lon="7.09086">
        <ele>1165.4000244141</ele>
        <time>2020-07-30T08:32:51.000Z</time>
      </trkpt>
      <trkpt lat="44.09454" lon="7.09094">
        <ele>1166.1999511719</ele>
        <time>2020-07-30T08:32:56.000Z</time>
      </trkpt>
      <trkpt lat="44.0946" lon="7.09102">
        <ele>1166.5999755859</ele>
        <time>2020-07-30T08:33:00.000Z</time>
      </trkpt>
      <trkpt lat="44.09467" lon="7.09112">
        <ele>1167.4000244141</ele>
        <time>2020-07-30T08:33:05.000Z</time>
      </trkpt>
      <trkpt lat="44.09471" lon="7.09119">
        <ele>1167.5999755859</ele>
        <time>2020-07-30T08:33:08.000Z</time>
      </trkpt>
      <trkpt lat="44.09477" lon="7.09129">
        <ele>1168.4000244141</ele>
        <time>2020-07-30T08:33:13.000Z</time>
      </trkpt>
      <trkpt lat="44.09485" lon="7.0914">
        <ele>1169.1999511719</ele>
        <time>2020-07-30T08:33:19.000Z</time>
      </trkpt>
      <trkpt lat="44.09488" lon="7.09142">
        <ele>1169.4000244141</ele>
        <time>2020-07-30T08:33:21.000Z</time>
      </trkpt>
      <trkpt lat="44.09496" lon="7.09147">
        <ele>1170</ele>
        <time>2020-07-30T08:33:26.000Z</time>
      </trkpt>
      <trkpt lat="44.09501" lon="7.0915">
        <ele>1170.8000488281</ele>
        <time>2020-07-30T08:33:29.000Z</time>
      </trkpt>
      <trkpt lat="44.09508" lon="7.09156">
        <ele>1171.5999755859</ele>
        <time>2020-07-30T08:33:33.000Z</time>
      </trkpt>
      <trkpt lat="44.0951" lon="7.09158">
        <ele>1171.8000488281</ele>
        <time>2020-07-30T08:33:34.000Z</time>
      </trkpt>
      <trkpt lat="44.09516" lon="7.09169">
        <ele>1173</ele>
        <time>2020-07-30T08:33:39.000Z</time>
      </trkpt>
      <trkpt lat="44.09518" lon="7.09173">
        <ele>1173.5999755859</ele>
        <time>2020-07-30T08:33:41.000Z</time>
      </trkpt>
      <trkpt lat="44.09522" lon="7.09179">
        <ele>1174.1999511719</ele>
        <time>2020-07-30T08:33:44.000Z</time>
      </trkpt>
      <trkpt lat="44.09528" lon="7.09184">
        <ele>1175.1999511719</ele>
        <time>2020-07-30T08:33:48.000Z</time>
      </trkpt>
      <trkpt lat="44.09535" lon="7.09185">
        <ele>1176.1999511719</ele>
        <time>2020-07-30T08:33:52.000Z</time>
      </trkpt>
      <trkpt lat="44.09542" lon="7.09185">
        <ele>1177</ele>
        <time>2020-07-30T08:33:55.000Z</time>
      </trkpt>
      <trkpt lat="44.09546" lon="7.09188">
        <ele>1177.5999755859</ele>
        <time>2020-07-30T08:33:57.000Z</time>
      </trkpt>
      <trkpt lat="44.09549" lon="7.09192">
        <ele>1177.8000488281</ele>
        <time>2020-07-30T08:33:59.000Z</time>
      </trkpt>
      <trkpt lat="44.09549" lon="7.09197">
        <ele>1178.1999511719</ele>
        <time>2020-07-30T08:34:01.000Z</time>
      </trkpt>
      <trkpt lat="44.09549" lon="7.09201">
        <ele>1178.8000488281</ele>
        <time>2020-07-30T08:34:03.000Z</time>
      </trkpt>
      <trkpt lat="44.0955" lon="7.09205">
        <ele>1179.8000488281</ele>
        <time>2020-07-30T08:34:05.000Z</time>
      </trkpt>
      <trkpt lat="44.09552" lon="7.09207">
        <ele>1180.1999511719</ele>
        <time>2020-07-30T08:34:06.000Z</time>
      </trkpt>
      <trkpt lat="44.09553" lon="7.09208">
        <ele>1180.4000244141</ele>
        <time>2020-07-30T08:34:07.000Z</time>
      </trkpt>
      <trkpt lat="44.09556" lon="7.0921">
        <ele>1180.8000488281</ele>
        <time>2020-07-30T08:34:09.000Z</time>
      </trkpt>
      <trkpt lat="44.09559" lon="7.09211">
        <ele>1181.1999511719</ele>
        <time>2020-07-30T08:34:11.000Z</time>
      </trkpt>
      <trkpt lat="44.09562" lon="7.09211">
        <ele>1181.5999755859</ele>
        <time>2020-07-30T08:34:13.000Z</time>
      </trkpt>
      <trkpt lat="44.09568" lon="7.09211">
        <ele>1182.1999511719</ele>
        <time>2020-07-30T08:34:16.000Z</time>
      </trkpt>
      <trkpt lat="44.09578" lon="7.09209">
        <ele>1183</ele>
        <time>2020-07-30T08:34:22.000Z</time>
      </trkpt>
      <trkpt lat="44.0958" lon="7.09208">
        <ele>1183.4000244141</ele>
        <time>2020-07-30T08:34:23.000Z</time>
      </trkpt>
      <trkpt lat="44.09587" lon="7.09207">
        <ele>1184.4000244141</ele>
        <time>2020-07-30T08:34:27.000Z</time>
      </trkpt>
      <trkpt lat="44.09596" lon="7.09205">
        <ele>1185.1999511719</ele>
        <time>2020-07-30T08:34:32.000Z</time>
      </trkpt>
      <trkpt lat="44.09597" lon="7.09204">
        <ele>1185.4000244141</ele>
        <time>2020-07-30T08:34:33.000Z</time>
      </trkpt>
      <trkpt lat="44.09607" lon="7.092">
        <ele>1186.4000244141</ele>
        <time>2020-07-30T08:34:39.000Z</time>
      </trkpt>
      <trkpt lat="44.09612" lon="7.09199">
        <ele>1187.4000244141</ele>
        <time>2020-07-30T08:34:42.000Z</time>
      </trkpt>
      <trkpt lat="44.09614" lon="7.09199">
        <ele>1187.4000244141</ele>
        <time>2020-07-30T08:34:43.000Z</time>
      </trkpt>
      <trkpt lat="44.09616" lon="7.09198">
        <ele>1187.8000488281</ele>
        <time>2020-07-30T08:34:44.000Z</time>
      </trkpt>
      <trkpt lat="44.09622" lon="7.09196">
        <ele>1188.5999755859</ele>
        <time>2020-07-30T08:34:48.000Z</time>
      </trkpt>
      <trkpt lat="44.09624" lon="7.09195">
        <ele>1188.8000488281</ele>
        <time>2020-07-30T08:34:49.000Z</time>
      </trkpt>
      <trkpt lat="44.09631" lon="7.0919">
        <ele>1189.5999755859</ele>
        <time>2020-07-30T08:34:54.000Z</time>
      </trkpt>
      <trkpt lat="44.09635" lon="7.09189">
        <ele>1190</ele>
        <time>2020-07-30T08:34:56.000Z</time>
      </trkpt>
      <trkpt lat="44.09639" lon="7.09187">
        <ele>1190.8000488281</ele>
        <time>2020-07-30T08:34:59.000Z</time>
      </trkpt>
      <trkpt lat="44.09643" lon="7.09183">
        <ele>1191.5999755859</ele>
        <time>2020-07-30T08:35:02.000Z</time>
      </trkpt>
      <trkpt lat="44.09644" lon="7.09182">
        <ele>1191.8000488281</ele>
        <time>2020-07-30T08:35:03.000Z</time>
      </trkpt>
      <trkpt lat="44.09646" lon="7.09181">
        <ele>1192</ele>
        <time>2020-07-30T08:35:04.000Z</time>
      </trkpt>
      <trkpt lat="44.09649" lon="7.09181">
        <ele>1192.4000244141</ele>
        <time>2020-07-30T08:35:06.000Z</time>
      </trkpt>
      <trkpt lat="44.09651" lon="7.09178">
        <ele>1192.8000488281</ele>
        <time>2020-07-30T08:35:08.000Z</time>
      </trkpt>
      <trkpt lat="44.09652" lon="7.09176">
        <ele>1193</ele>
        <time>2020-07-30T08:35:09.000Z</time>
      </trkpt>
      <trkpt lat="44.09655" lon="7.09174">
        <ele>1193.5999755859</ele>
        <time>2020-07-30T08:35:14.000Z</time>
      </trkpt>
      <trkpt lat="44.09655" lon="7.09175">
        <ele>1193.5999755859</ele>
        <time>2020-07-30T08:35:29.000Z</time>
      </trkpt>
      <trkpt lat="44.09655" lon="7.09175">
        <ele>1194</ele>
        <time>2020-07-30T08:35:36.000Z</time>
      </trkpt>
      <trkpt lat="44.09655" lon="7.09175">
        <ele>1194.1999511719</ele>
        <time>2020-07-30T08:35:38.000Z</time>
      </trkpt>
      <trkpt lat="44.09655" lon="7.09175">
        <ele>1194</ele>
        <time>2020-07-30T08:35:58.000Z</time>
      </trkpt>
      <trkpt lat="44.09657" lon="7.09175">
        <ele>1194</ele>
        <time>2020-07-30T08:36:09.000Z</time>
      </trkpt>
      <trkpt lat="44.09658" lon="7.09175">
        <ele>1194</ele>
        <time>2020-07-30T08:36:10.000Z</time>
      </trkpt>
      <trkpt lat="44.09668" lon="7.09168">
        <ele>1194.4000244141</ele>
        <time>2020-07-30T08:36:16.000Z</time>
      </trkpt>
      <trkpt lat="44.09678" lon="7.09161">
        <ele>1195.1999511719</ele>
        <time>2020-07-30T08:36:21.000Z</time>
      </trkpt>
      <trkpt lat="44.09687" lon="7.09153">
        <ele>1196</ele>
        <time>2020-07-30T08:36:26.000Z</time>
      </trkpt>
      <trkpt lat="44.09689" lon="7.09151">
        <ele>1196.4000244141</ele>
        <time>2020-07-30T08:36:27.000Z</time>
      </trkpt>
      <trkpt lat="44.097" lon="7.09142">
        <ele>1197.4000244141</ele>
        <time>2020-07-30T08:36:32.000Z</time>
      </trkpt>
      <trkpt lat="44.09711" lon="7.09135">
        <ele>1198.5999755859</ele>
        <time>2020-07-30T08:36:37.000Z</time>
      </trkpt>
      <trkpt lat="44.09726" lon="7.09125">
        <ele>1199.8000488281</ele>
        <time>2020-07-30T08:36:44.000Z</time>
      </trkpt>
      <trkpt lat="44.09734" lon="7.09119">
        <ele>1200.8000488281</ele>
        <time>2020-07-30T08:36:48.000Z</time>
      </trkpt>
      <trkpt lat="44.09736" lon="7.09117">
        <ele>1201</ele>
        <time>2020-07-30T08:36:49.000Z</time>
      </trkpt>
      <trkpt lat="44.09739" lon="7.09108">
        <ele>1201.8000488281</ele>
        <time>2020-07-30T08:36:53.000Z</time>
      </trkpt>
      <trkpt lat="44.09735" lon="7.09106">
        <ele>1202.1999511719</ele>
        <time>2020-07-30T08:36:55.000Z</time>
      </trkpt>
      <trkpt lat="44.09734" lon="7.09106">
        <ele>1202.4000244141</ele>
        <time>2020-07-30T08:36:56.000Z</time>
      </trkpt>
      <trkpt lat="44.0973" lon="7.09108">
        <ele>1202.8000488281</ele>
        <time>2020-07-30T08:36:58.000Z</time>
      </trkpt>
      <trkpt lat="44.09725" lon="7.09111">
        <ele>1203.4000244141</ele>
        <time>2020-07-30T08:37:01.000Z</time>
      </trkpt>
      <trkpt lat="44.09722" lon="7.09113">
        <ele>1203.5999755859</ele>
        <time>2020-07-30T08:37:03.000Z</time>
      </trkpt>
      <trkpt lat="44.09711" lon="7.09117">
        <ele>1204.5999755859</ele>
        <time>2020-07-30T08:37:09.000Z</time>
      </trkpt>
      <trkpt lat="44.09702" lon="7.09119">
        <ele>1205</ele>
        <time>2020-07-30T08:37:14.000Z</time>
      </trkpt>
      <trkpt lat="44.09693" lon="7.0912">
        <ele>1205.8000488281</ele>
        <time>2020-07-30T08:37:19.000Z</time>
      </trkpt>
      <trkpt lat="44.09686" lon="7.09121">
        <ele>1206.4000244141</ele>
        <time>2020-07-30T08:37:23.000Z</time>
      </trkpt>
      <trkpt lat="44.09681" lon="7.09123">
        <ele>1206.8000488281</ele>
        <time>2020-07-30T08:37:26.000Z</time>
      </trkpt>
      <trkpt lat="44.09672" lon="7.09128">
        <ele>1207.4000244141</ele>
        <time>2020-07-30T08:37:31.000Z</time>
      </trkpt>
      <trkpt lat="44.09665" lon="7.09131">
        <ele>1207.8000488281</ele>
        <time>2020-07-30T08:37:35.000Z</time>
      </trkpt>
      <trkpt lat="44.09658" lon="7.09134">
        <ele>1208.4000244141</ele>
        <time>2020-07-30T08:37:39.000Z</time>
      </trkpt>
      <trkpt lat="44.0965" lon="7.09137">
        <ele>1209</ele>
        <time>2020-07-30T08:37:43.000Z</time>
      </trkpt>
      <trkpt lat="44.09641" lon="7.09139">
        <ele>1209.5999755859</ele>
        <time>2020-07-30T08:37:47.000Z</time>
      </trkpt>
      <trkpt lat="44.09623" lon="7.09146">
        <ele>1210</ele>
        <time>2020-07-30T08:37:55.000Z</time>
      </trkpt>
      <trkpt lat="44.09616" lon="7.09147">
        <ele>1210.4000244141</ele>
        <time>2020-07-30T08:37:58.000Z</time>
      </trkpt>
      <trkpt lat="44.09613" lon="7.09146">
        <ele>1210.8000488281</ele>
        <time>2020-07-30T08:37:59.000Z</time>
      </trkpt>
      <trkpt lat="44.0961" lon="7.09141">
        <ele>1211</ele>
        <time>2020-07-30T08:38:01.000Z</time>
      </trkpt>
      <trkpt lat="44.0961" lon="7.09138">
        <ele>1211.1999511719</ele>
        <time>2020-07-30T08:38:02.000Z</time>
      </trkpt>
      <trkpt lat="44.09611" lon="7.09136">
        <ele>1211.1999511719</ele>
        <time>2020-07-30T08:38:03.000Z</time>
      </trkpt>
      <trkpt lat="44.09613" lon="7.09135">
        <ele>1211.4000244141</ele>
        <time>2020-07-30T08:38:04.000Z</time>
      </trkpt>
      <trkpt lat="44.09615" lon="7.09135">
        <ele>1211.5999755859</ele>
        <time>2020-07-30T08:38:05.000Z</time>
      </trkpt>
      <trkpt lat="44.09622" lon="7.09134">
        <ele>1212.1999511719</ele>
        <time>2020-07-30T08:38:08.000Z</time>
      </trkpt>
      <trkpt lat="44.09631" lon="7.09132">
        <ele>1212.5999755859</ele>
        <time>2020-07-30T08:38:12.000Z</time>
      </trkpt>
      <trkpt lat="44.09639" lon="7.09129">
        <ele>1213.1999511719</ele>
        <time>2020-07-30T08:38:16.000Z</time>
      </trkpt>
      <trkpt lat="44.09651" lon="7.09121">
        <ele>1214</ele>
        <time>2020-07-30T08:38:22.000Z</time>
      </trkpt>
      <trkpt lat="44.09657" lon="7.09117">
        <ele>1214.1999511719</ele>
        <time>2020-07-30T08:38:25.000Z</time>
      </trkpt>
      <trkpt lat="44.09669" lon="7.09108">
        <ele>1214.8000488281</ele>
        <time>2020-07-30T08:38:31.000Z</time>
      </trkpt>
      <trkpt lat="44.09676" lon="7.09101">
        <ele>1215.4000244141</ele>
        <time>2020-07-30T08:38:35.000Z</time>
      </trkpt>
      <trkpt lat="44.09682" lon="7.09094">
        <ele>1216</ele>
        <time>2020-07-30T08:38:39.000Z</time>
      </trkpt>
      <trkpt lat="44.09687" lon="7.09088">
        <ele>1216.4000244141</ele>
        <time>2020-07-30T08:38:42.000Z</time>
      </trkpt>
      <trkpt lat="44.09695" lon="7.0908">
        <ele>1217.1999511719</ele>
        <time>2020-07-30T08:38:47.000Z</time>
      </trkpt>
      <trkpt lat="44.09698" lon="7.09079">
        <ele>1217.5999755859</ele>
        <time>2020-07-30T08:38:49.000Z</time>
      </trkpt>
      <trkpt lat="44.09705" lon="7.09076">
        <ele>1218.5999755859</ele>
        <time>2020-07-30T08:38:53.000Z</time>
      </trkpt>
      <trkpt lat="44.09707" lon="7.09075">
        <ele>1218.8000488281</ele>
        <time>2020-07-30T08:38:54.000Z</time>
      </trkpt>
      <trkpt lat="44.09715" lon="7.09072">
        <ele>1219.5999755859</ele>
        <time>2020-07-30T08:38:59.000Z</time>
      </trkpt>
      <trkpt lat="44.09724" lon="7.09066">
        <ele>1220.5999755859</ele>
        <time>2020-07-30T08:39:05.000Z</time>
      </trkpt>
      <trkpt lat="44.09725" lon="7.09065">
        <ele>1220.8000488281</ele>
        <time>2020-07-30T08:39:06.000Z</time>
      </trkpt>
      <trkpt lat="44.09734" lon="7.09058">
        <ele>1222</ele>
        <time>2020-07-30T08:39:12.000Z</time>
      </trkpt>
      <trkpt lat="44.0974" lon="7.09053">
        <ele>1222.4000244141</ele>
        <time>2020-07-30T08:39:16.000Z</time>
      </trkpt>
      <trkpt lat="44.09746" lon="7.09047">
        <ele>1223</ele>
        <time>2020-07-30T08:39:20.000Z</time>
      </trkpt>
      <trkpt lat="44.09755" lon="7.09039">
        <ele>1223.5999755859</ele>
        <time>2020-07-30T08:39:25.000Z</time>
      </trkpt>
      <trkpt lat="44.09758" lon="7.09035">
        <ele>1224</ele>
        <time>2020-07-30T08:39:27.000Z</time>
      </trkpt>
      <trkpt lat="44.09773" lon="7.09022">
        <ele>1224.4000244141</ele>
        <time>2020-07-30T08:39:34.000Z</time>
      </trkpt>
      <trkpt lat="44.09772" lon="7.09019">
        <ele>1224.5999755859</ele>
        <time>2020-07-30T08:39:35.000Z</time>
      </trkpt>
      <trkpt lat="44.09769" lon="7.09017">
        <ele>1224.5999755859</ele>
        <time>2020-07-30T08:39:37.000Z</time>
      </trkpt>
      <trkpt lat="44.09765" lon="7.09018">
        <ele>1224.8000488281</ele>
        <time>2020-07-30T08:39:39.000Z</time>
      </trkpt>
      <trkpt lat="44.09762" lon="7.09021">
        <ele>1225.1999511719</ele>
        <time>2020-07-30T08:39:41.000Z</time>
      </trkpt>
      <trkpt lat="44.09758" lon="7.09024">
        <ele>1225.5999755859</ele>
        <time>2020-07-30T08:39:43.000Z</time>
      </trkpt>
      <trkpt lat="44.09751" lon="7.0903">
        <ele>1226.1999511719</ele>
        <time>2020-07-30T08:39:47.000Z</time>
      </trkpt>
      <trkpt lat="44.09742" lon="7.09034">
        <ele>1227</ele>
        <time>2020-07-30T08:39:52.000Z</time>
      </trkpt>
      <trkpt lat="44.09734" lon="7.09036">
        <ele>1227.4000244141</ele>
        <time>2020-07-30T08:39:56.000Z</time>
      </trkpt>
      <trkpt lat="44.09727" lon="7.09037">
        <ele>1228.1999511719</ele>
        <time>2020-07-30T08:40:00.000Z</time>
      </trkpt>
      <trkpt lat="44.09725" lon="7.09037">
        <ele>1228.4000244141</ele>
        <time>2020-07-30T08:40:01.000Z</time>
      </trkpt>
      <trkpt lat="44.09712" lon="7.0904">
        <ele>1229.8000488281</ele>
        <time>2020-07-30T08:40:09.000Z</time>
      </trkpt>
      <trkpt lat="44.09702" lon="7.09042">
        <ele>1230.8000488281</ele>
        <time>2020-07-30T08:40:15.000Z</time>
      </trkpt>
      <trkpt lat="44.09698" lon="7.09043">
        <ele>1231.1999511719</ele>
        <time>2020-07-30T08:40:18.000Z</time>
      </trkpt>
      <trkpt lat="44.09693" lon="7.09044">
        <ele>1231.8000488281</ele>
        <time>2020-07-30T08:40:21.000Z</time>
      </trkpt>
      <trkpt lat="44.09683" lon="7.09048">
        <ele>1233</ele>
        <time>2020-07-30T08:40:27.000Z</time>
      </trkpt>
      <trkpt lat="44.09682" lon="7.09048">
        <ele>1233</ele>
        <time>2020-07-30T08:40:28.000Z</time>
      </trkpt>
      <trkpt lat="44.09667" lon="7.09054">
        <ele>1234.1999511719</ele>
        <time>2020-07-30T08:40:37.000Z</time>
      </trkpt>
      <trkpt lat="44.09665" lon="7.09055">
        <ele>1234.4000244141</ele>
        <time>2020-07-30T08:40:38.000Z</time>
      </trkpt>
      <trkpt lat="44.0966" lon="7.09053">
        <ele>1235.1999511719</ele>
        <time>2020-07-30T08:40:41.000Z</time>
      </trkpt>
      <trkpt lat="44.09656" lon="7.09048">
        <ele>1235.8000488281</ele>
        <time>2020-07-30T08:40:44.000Z</time>
      </trkpt>
      <trkpt lat="44.09654" lon="7.09042">
        <ele>1236.4000244141</ele>
        <time>2020-07-30T08:40:47.000Z</time>
      </trkpt>
      <trkpt lat="44.09649" lon="7.09033">
        <ele>1237</ele>
        <time>2020-07-30T08:40:52.000Z</time>
      </trkpt>
      <trkpt lat="44.09645" lon="7.09032">
        <ele>1237.4000244141</ele>
        <time>2020-07-30T08:40:54.000Z</time>
      </trkpt>
      <trkpt lat="44.0964" lon="7.09032">
        <ele>1238</ele>
        <time>2020-07-30T08:40:57.000Z</time>
      </trkpt>
      <trkpt lat="44.09637" lon="7.09032">
        <ele>1238.4000244141</ele>
        <time>2020-07-30T08:40:59.000Z</time>
      </trkpt>
      <trkpt lat="44.09625" lon="7.0903">
        <ele>1239.5999755859</ele>
        <time>2020-07-30T08:41:06.000Z</time>
      </trkpt>
      <trkpt lat="44.09623" lon="7.09029">
        <ele>1239.5999755859</ele>
        <time>2020-07-30T08:41:07.000Z</time>
      </trkpt>
      <trkpt lat="44.09615" lon="7.09025">
        <ele>1240.5999755859</ele>
        <time>2020-07-30T08:41:12.000Z</time>
      </trkpt>
      <trkpt lat="44.09611" lon="7.09024">
        <ele>1241.1999511719</ele>
        <time>2020-07-30T08:41:15.000Z</time>
      </trkpt>
      <trkpt lat="44.09605" lon="7.0902">
        <ele>1241.5999755859</ele>
        <time>2020-07-30T08:41:19.000Z</time>
      </trkpt>
      <trkpt lat="44.09595" lon="7.09014">
        <ele>1242.5999755859</ele>
        <time>2020-07-30T08:41:25.000Z</time>
      </trkpt>
      <trkpt lat="44.09594" lon="7.09012">
        <ele>1242.5999755859</ele>
        <time>2020-07-30T08:41:26.000Z</time>
      </trkpt>
      <trkpt lat="44.09586" lon="7.09003">
        <ele>1243.8000488281</ele>
        <time>2020-07-30T08:41:32.000Z</time>
      </trkpt>
      <trkpt lat="44.09582" lon="7.08999">
        <ele>1244.4000244141</ele>
        <time>2020-07-30T08:41:35.000Z</time>
      </trkpt>
      <trkpt lat="44.09578" lon="7.08995">
        <ele>1244.8000488281</ele>
        <time>2020-07-30T08:41:38.000Z</time>
      </trkpt>
      <trkpt lat="44.0957" lon="7.08988">
        <ele>1245.8000488281</ele>
        <time>2020-07-30T08:41:44.000Z</time>
      </trkpt>
      <trkpt lat="44.09568" lon="7.08986">
        <ele>1246</ele>
        <time>2020-07-30T08:41:45.000Z</time>
      </trkpt>
      <trkpt lat="44.09561" lon="7.0898">
        <ele>1247</ele>
        <time>2020-07-30T08:41:50.000Z</time>
      </trkpt>
      <trkpt lat="44.09554" lon="7.08975">
        <ele>1247.8000488281</ele>
        <time>2020-07-30T08:41:55.000Z</time>
      </trkpt>
      <trkpt lat="44.09551" lon="7.08973">
        <ele>1248</ele>
        <time>2020-07-30T08:41:57.000Z</time>
      </trkpt>
      <trkpt lat="44.09543" lon="7.08966">
        <ele>1248.8000488281</ele>
        <time>2020-07-30T08:42:02.000Z</time>
      </trkpt>
      <trkpt lat="44.09544" lon="7.08961">
        <ele>1249</ele>
        <time>2020-07-30T08:42:04.000Z</time>
      </trkpt>
      <trkpt lat="44.09545" lon="7.08959">
        <ele>1249.4000244141</ele>
        <time>2020-07-30T08:42:05.000Z</time>
      </trkpt>
      <trkpt lat="44.09547" lon="7.08959">
        <ele>1249.4000244141</ele>
        <time>2020-07-30T08:42:06.000Z</time>
      </trkpt>
      <trkpt lat="44.09555" lon="7.08963">
        <ele>1250.1999511719</ele>
        <time>2020-07-30T08:42:11.000Z</time>
      </trkpt>
      <trkpt lat="44.0956" lon="7.08967">
        <ele>1250.4000244141</ele>
        <time>2020-07-30T08:42:14.000Z</time>
      </trkpt>
      <trkpt lat="44.09575" lon="7.0897">
        <ele>1251.1999511719</ele>
        <time>2020-07-30T08:42:22.000Z</time>
      </trkpt>
      <trkpt lat="44.09577" lon="7.0897">
        <ele>1251.4000244141</ele>
        <time>2020-07-30T08:42:23.000Z</time>
      </trkpt>
      <trkpt lat="44.09582" lon="7.08969">
        <ele>1252.1999511719</ele>
        <time>2020-07-30T08:42:26.000Z</time>
      </trkpt>
      <trkpt lat="44.0959" lon="7.08968">
        <ele>1253.1999511719</ele>
        <time>2020-07-30T08:42:31.000Z</time>
      </trkpt>
      <trkpt lat="44.09604" lon="7.08965">
        <ele>1254.4000244141</ele>
        <time>2020-07-30T08:42:39.000Z</time>
      </trkpt>
      <trkpt lat="44.09607" lon="7.08964">
        <ele>1255</ele>
        <time>2020-07-30T08:42:41.000Z</time>
      </trkpt>
      <trkpt lat="44.09611" lon="7.08964">
        <ele>1255.5999755859</ele>
        <time>2020-07-30T08:42:44.000Z</time>
      </trkpt>
      <trkpt lat="44.09615" lon="7.08962">
        <ele>1256.1999511719</ele>
        <time>2020-07-30T08:42:47.000Z</time>
      </trkpt>
      <trkpt lat="44.09619" lon="7.08959">
        <ele>1256.8000488281</ele>
        <time>2020-07-30T08:42:50.000Z</time>
      </trkpt>
      <trkpt lat="44.09625" lon="7.08957">
        <ele>1257.4000244141</ele>
        <time>2020-07-30T08:42:54.000Z</time>
      </trkpt>
      <trkpt lat="44.09629" lon="7.08954">
        <ele>1257.8000488281</ele>
        <time>2020-07-30T08:42:57.000Z</time>
      </trkpt>
      <trkpt lat="44.09635" lon="7.08952">
        <ele>1258.8000488281</ele>
        <time>2020-07-30T08:43:01.000Z</time>
      </trkpt>
      <trkpt lat="44.09636" lon="7.08951">
        <ele>1259</ele>
        <time>2020-07-30T08:43:02.000Z</time>
      </trkpt>
      <trkpt lat="44.09643" lon="7.08949">
        <ele>1260</ele>
        <time>2020-07-30T08:43:07.000Z</time>
      </trkpt>
      <trkpt lat="44.09645" lon="7.08948">
        <ele>1260</ele>
        <time>2020-07-30T08:43:08.000Z</time>
      </trkpt>
      <trkpt lat="44.09654" lon="7.08944">
        <ele>1261</ele>
        <time>2020-07-30T08:43:15.000Z</time>
      </trkpt>
      <trkpt lat="44.09657" lon="7.08942">
        <ele>1261.5999755859</ele>
        <time>2020-07-30T08:43:17.000Z</time>
      </trkpt>
      <trkpt lat="44.09662" lon="7.0894">
        <ele>1262.1999511719</ele>
        <time>2020-07-30T08:43:20.000Z</time>
      </trkpt>
      <trkpt lat="44.0967" lon="7.08937">
        <ele>1263.1999511719</ele>
        <time>2020-07-30T08:43:26.000Z</time>
      </trkpt>
      <trkpt lat="44.09684" lon="7.08935">
        <ele>1264.1999511719</ele>
        <time>2020-07-30T08:43:35.000Z</time>
      </trkpt>
      <trkpt lat="44.09693" lon="7.08934">
        <ele>1265.4000244141</ele>
        <time>2020-07-30T08:43:41.000Z</time>
      </trkpt>
      <trkpt lat="44.09694" lon="7.08933">
        <ele>1265.5999755859</ele>
        <time>2020-07-30T08:43:42.000Z</time>
      </trkpt>
      <trkpt lat="44.09704" lon="7.08929">
        <ele>1266.4000244141</ele>
        <time>2020-07-30T08:43:49.000Z</time>
      </trkpt>
      <trkpt lat="44.09707" lon="7.08928">
        <ele>1266.8000488281</ele>
        <time>2020-07-30T08:43:51.000Z</time>
      </trkpt>
      <trkpt lat="44.09712" lon="7.08926">
        <ele>1267.5999755859</ele>
        <time>2020-07-30T08:43:54.000Z</time>
      </trkpt>
      <trkpt lat="44.0972" lon="7.08922">
        <ele>1268.5999755859</ele>
        <time>2020-07-30T08:44:00.000Z</time>
      </trkpt>
      <trkpt lat="44.09721" lon="7.08921">
        <ele>1268.8000488281</ele>
        <time>2020-07-30T08:44:01.000Z</time>
      </trkpt>
      <trkpt lat="44.09732" lon="7.08915">
        <ele>1269.8000488281</ele>
        <time>2020-07-30T08:44:09.000Z</time>
      </trkpt>
      <trkpt lat="44.09736" lon="7.08913">
        <ele>1270.4000244141</ele>
        <time>2020-07-30T08:44:12.000Z</time>
      </trkpt>
      <trkpt lat="44.0974" lon="7.08911">
        <ele>1271</ele>
        <time>2020-07-30T08:44:15.000Z</time>
      </trkpt>
      <trkpt lat="44.09749" lon="7.08906">
        <ele>1271.8000488281</ele>
        <time>2020-07-30T08:44:21.000Z</time>
      </trkpt>
      <trkpt lat="44.09753" lon="7.08904">
        <ele>1272</ele>
        <time>2020-07-30T08:44:24.000Z</time>
      </trkpt>
      <trkpt lat="44.09759" lon="7.089">
        <ele>1273.4000244141</ele>
        <time>2020-07-30T08:44:29.000Z</time>
      </trkpt>
      <trkpt lat="44.09767" lon="7.08895">
        <ele>1274.1999511719</ele>
        <time>2020-07-30T08:44:35.000Z</time>
      </trkpt>
      <trkpt lat="44.09769" lon="7.08894">
        <ele>1274.4000244141</ele>
        <time>2020-07-30T08:44:36.000Z</time>
      </trkpt>
      <trkpt lat="44.09777" lon="7.08889">
        <ele>1275</ele>
        <time>2020-07-30T08:44:42.000Z</time>
      </trkpt>
      <trkpt lat="44.09781" lon="7.08886">
        <ele>1275.4000244141</ele>
        <time>2020-07-30T08:44:45.000Z</time>
      </trkpt>
      <trkpt lat="44.09787" lon="7.08882">
        <ele>1276.4000244141</ele>
        <time>2020-07-30T08:44:50.000Z</time>
      </trkpt>
      <trkpt lat="44.09788" lon="7.08881">
        <ele>1276.5999755859</ele>
        <time>2020-07-30T08:44:51.000Z</time>
      </trkpt>
      <trkpt lat="44.09796" lon="7.08872">
        <ele>1277.4000244141</ele>
        <time>2020-07-30T08:44:58.000Z</time>
      </trkpt>
      <trkpt lat="44.09797" lon="7.08871">
        <ele>1277.5999755859</ele>
        <time>2020-07-30T08:44:59.000Z</time>
      </trkpt>
      <trkpt lat="44.09805" lon="7.08864">
        <ele>1279</ele>
        <time>2020-07-30T08:45:05.000Z</time>
      </trkpt>
      <trkpt lat="44.09806" lon="7.08864">
        <ele>1279.1999511719</ele>
        <time>2020-07-30T08:45:06.000Z</time>
      </trkpt>
      <trkpt lat="44.09813" lon="7.08863">
        <ele>1280</ele>
        <time>2020-07-30T08:45:11.000Z</time>
      </trkpt>
      <trkpt lat="44.09819" lon="7.08864">
        <ele>1280.8000488281</ele>
        <time>2020-07-30T08:45:15.000Z</time>
      </trkpt>
      <trkpt lat="44.09823" lon="7.08866">
        <ele>1281.1999511719</ele>
        <time>2020-07-30T08:45:18.000Z</time>
      </trkpt>
      <trkpt lat="44.09827" lon="7.08867">
        <ele>1281.8000488281</ele>
        <time>2020-07-30T08:45:21.000Z</time>
      </trkpt>
      <trkpt lat="44.09829" lon="7.08867">
        <ele>1282.1999511719</ele>
        <time>2020-07-30T08:45:23.000Z</time>
      </trkpt>
      <trkpt lat="44.09831" lon="7.08867">
        <ele>1282.4000244141</ele>
        <time>2020-07-30T08:45:24.000Z</time>
      </trkpt>
      <trkpt lat="44.09838" lon="7.08868">
        <ele>1283.1999511719</ele>
        <time>2020-07-30T08:45:30.000Z</time>
      </trkpt>
      <trkpt lat="44.09842" lon="7.08868">
        <ele>1283.5999755859</ele>
        <time>2020-07-30T08:45:33.000Z</time>
      </trkpt>
      <trkpt lat="44.09847" lon="7.08868">
        <ele>1284.4000244141</ele>
        <time>2020-07-30T08:45:37.000Z</time>
      </trkpt>
      <trkpt lat="44.09853" lon="7.08867">
        <ele>1285.1999511719</ele>
        <time>2020-07-30T08:45:41.000Z</time>
      </trkpt>
      <trkpt lat="44.09854" lon="7.08867">
        <ele>1285.4000244141</ele>
        <time>2020-07-30T08:45:42.000Z</time>
      </trkpt>
      <trkpt lat="44.09863" lon="7.08865">
        <ele>1286.5999755859</ele>
        <time>2020-07-30T08:45:49.000Z</time>
      </trkpt>
      <trkpt lat="44.09872" lon="7.08863">
        <ele>1287.5999755859</ele>
        <time>2020-07-30T08:45:55.000Z</time>
      </trkpt>
      <trkpt lat="44.0988" lon="7.08862">
        <ele>1288.5999755859</ele>
        <time>2020-07-30T08:46:01.000Z</time>
      </trkpt>
      <trkpt lat="44.09883" lon="7.08861">
        <ele>1289</ele>
        <time>2020-07-30T08:46:04.000Z</time>
      </trkpt>
      <trkpt lat="44.09888" lon="7.08857">
        <ele>1289.5999755859</ele>
        <time>2020-07-30T08:46:08.000Z</time>
      </trkpt>
      <trkpt lat="44.09892" lon="7.08854">
        <ele>1290.1999511719</ele>
        <time>2020-07-30T08:46:11.000Z</time>
      </trkpt>
      <trkpt lat="44.09895" lon="7.08851">
        <ele>1290.8000488281</ele>
        <time>2020-07-30T08:46:14.000Z</time>
      </trkpt>
      <trkpt lat="44.09899" lon="7.08848">
        <ele>1291.4000244141</ele>
        <time>2020-07-30T08:46:17.000Z</time>
      </trkpt>
      <trkpt lat="44.099" lon="7.08847">
        <ele>1291.4000244141</ele>
        <time>2020-07-30T08:46:18.000Z</time>
      </trkpt>
      <trkpt lat="44.09901" lon="7.08846">
        <ele>1291.8000488281</ele>
        <time>2020-07-30T08:46:19.000Z</time>
      </trkpt>
      <trkpt lat="44.09909" lon="7.08844">
        <ele>1293</ele>
        <time>2020-07-30T08:46:25.000Z</time>
      </trkpt>
      <trkpt lat="44.0991" lon="7.08843">
        <ele>1293.1999511719</ele>
        <time>2020-07-30T08:46:26.000Z</time>
      </trkpt>
      <trkpt lat="44.09918" lon="7.08839">
        <ele>1294.1999511719</ele>
        <time>2020-07-30T08:46:32.000Z</time>
      </trkpt>
      <trkpt lat="44.09921" lon="7.08839">
        <ele>1294.5999755859</ele>
        <time>2020-07-30T08:46:34.000Z</time>
      </trkpt>
      <trkpt lat="44.09928" lon="7.08845">
        <ele>1295.4000244141</ele>
        <time>2020-07-30T08:46:39.000Z</time>
      </trkpt>
      <trkpt lat="44.09929" lon="7.08846">
        <ele>1295.5999755859</ele>
        <time>2020-07-30T08:46:40.000Z</time>
      </trkpt>
      <trkpt lat="44.09936" lon="7.08853">
        <ele>1296.5999755859</ele>
        <time>2020-07-30T08:46:46.000Z</time>
      </trkpt>
      <trkpt lat="44.09943" lon="7.08859">
        <ele>1297.5999755859</ele>
        <time>2020-07-30T08:46:52.000Z</time>
      </trkpt>
      <trkpt lat="44.09946" lon="7.0886">
        <ele>1298</ele>
        <time>2020-07-30T08:46:54.000Z</time>
      </trkpt>
      <trkpt lat="44.0995" lon="7.08862">
        <ele>1298.5999755859</ele>
        <time>2020-07-30T08:46:57.000Z</time>
      </trkpt>
      <trkpt lat="44.09953" lon="7.08862">
        <ele>1299</ele>
        <time>2020-07-30T08:46:59.000Z</time>
      </trkpt>
      <trkpt lat="44.09956" lon="7.08862">
        <ele>1299.4000244141</ele>
        <time>2020-07-30T08:47:01.000Z</time>
      </trkpt>
      <trkpt lat="44.0996" lon="7.08862">
        <ele>1299.8000488281</ele>
        <time>2020-07-30T08:47:04.000Z</time>
      </trkpt>
      <trkpt lat="44.09967" lon="7.08859">
        <ele>1300.5999755859</ele>
        <time>2020-07-30T08:47:09.000Z</time>
      </trkpt>
      <trkpt lat="44.09969" lon="7.08859">
        <ele>1300.8000488281</ele>
        <time>2020-07-30T08:47:10.000Z</time>
      </trkpt>
      <trkpt lat="44.0998" lon="7.08856">
        <ele>1301.8000488281</ele>
        <time>2020-07-30T08:47:17.000Z</time>
      </trkpt>
      <trkpt lat="44.09983" lon="7.08855">
        <ele>1302</ele>
        <time>2020-07-30T08:47:19.000Z</time>
      </trkpt>
      <trkpt lat="44.09991" lon="7.08853">
        <ele>1303</ele>
        <time>2020-07-30T08:47:24.000Z</time>
      </trkpt>
      <trkpt lat="44.09995" lon="7.08851">
        <ele>1303.4000244141</ele>
        <time>2020-07-30T08:47:27.000Z</time>
      </trkpt>
      <trkpt lat="44.09999" lon="7.08849">
        <ele>1304</ele>
        <time>2020-07-30T08:47:30.000Z</time>
      </trkpt>
      <trkpt lat="44.10007" lon="7.08844">
        <ele>1305</ele>
        <time>2020-07-30T08:47:36.000Z</time>
      </trkpt>
      <trkpt lat="44.10008" lon="7.08843">
        <ele>1305.1999511719</ele>
        <time>2020-07-30T08:47:37.000Z</time>
      </trkpt>
      <trkpt lat="44.10015" lon="7.08839">
        <ele>1306</ele>
        <time>2020-07-30T08:47:42.000Z</time>
      </trkpt>
      <trkpt lat="44.10018" lon="7.08838">
        <ele>1306.4000244141</ele>
        <time>2020-07-30T08:47:44.000Z</time>
      </trkpt>
      <trkpt lat="44.10024" lon="7.08834">
        <ele>1307.1999511719</ele>
        <time>2020-07-30T08:47:49.000Z</time>
      </trkpt>
      <trkpt lat="44.10025" lon="7.08833">
        <ele>1307.4000244141</ele>
        <time>2020-07-30T08:47:50.000Z</time>
      </trkpt>
      <trkpt lat="44.10033" lon="7.08827">
        <ele>1308.5999755859</ele>
        <time>2020-07-30T08:47:56.000Z</time>
      </trkpt>
      <trkpt lat="44.10034" lon="7.08827">
        <ele>1308.8000488281</ele>
        <time>2020-07-30T08:47:57.000Z</time>
      </trkpt>
      <trkpt lat="44.10041" lon="7.08821">
        <ele>1309.5999755859</ele>
        <time>2020-07-30T08:48:03.000Z</time>
      </trkpt>
      <trkpt lat="44.10046" lon="7.08819">
        <ele>1310.8000488281</ele>
        <time>2020-07-30T08:48:07.000Z</time>
      </trkpt>
      <trkpt lat="44.10052" lon="7.08814">
        <ele>1311.8000488281</ele>
        <time>2020-07-30T08:48:12.000Z</time>
      </trkpt>
      <trkpt lat="44.10059" lon="7.08809">
        <ele>1312.4000244141</ele>
        <time>2020-07-30T08:48:17.000Z</time>
      </trkpt>
      <trkpt lat="44.10061" lon="7.08807">
        <ele>1312.8000488281</ele>
        <time>2020-07-30T08:48:19.000Z</time>
      </trkpt>
      <trkpt lat="44.10069" lon="7.088">
        <ele>1313.8000488281</ele>
        <time>2020-07-30T08:48:25.000Z</time>
      </trkpt>
      <trkpt lat="44.10077" lon="7.08796">
        <ele>1314.8000488281</ele>
        <time>2020-07-30T08:48:31.000Z</time>
      </trkpt>
      <trkpt lat="44.10079" lon="7.08796">
        <ele>1315</ele>
        <time>2020-07-30T08:48:32.000Z</time>
      </trkpt>
      <trkpt lat="44.10087" lon="7.08797">
        <ele>1315.8000488281</ele>
        <time>2020-07-30T08:48:38.000Z</time>
      </trkpt>
      <trkpt lat="44.10091" lon="7.08799">
        <ele>1316.1999511719</ele>
        <time>2020-07-30T08:48:41.000Z</time>
      </trkpt>
      <trkpt lat="44.10094" lon="7.08799">
        <ele>1316.8000488281</ele>
        <time>2020-07-30T08:48:44.000Z</time>
      </trkpt>
      <trkpt lat="44.10095" lon="7.08799">
        <ele>1317</ele>
        <time>2020-07-30T08:48:45.000Z</time>
      </trkpt>
      <trkpt lat="44.101" lon="7.08798">
        <ele>1317.8000488281</ele>
        <time>2020-07-30T08:48:49.000Z</time>
      </trkpt>
      <trkpt lat="44.10103" lon="7.08798">
        <ele>1318.1999511719</ele>
        <time>2020-07-30T08:48:51.000Z</time>
      </trkpt>
      <trkpt lat="44.1011" lon="7.08799">
        <ele>1319</ele>
        <time>2020-07-30T08:48:56.000Z</time>
      </trkpt>
      <trkpt lat="44.10113" lon="7.08801">
        <ele>1319.1999511719</ele>
        <time>2020-07-30T08:48:58.000Z</time>
      </trkpt>
      <trkpt lat="44.10121" lon="7.08802">
        <ele>1320.1999511719</ele>
        <time>2020-07-30T08:49:03.000Z</time>
      </trkpt>
      <trkpt lat="44.10122" lon="7.08802">
        <ele>1320.4000244141</ele>
        <time>2020-07-30T08:49:04.000Z</time>
      </trkpt>
      <trkpt lat="44.10132" lon="7.08805">
        <ele>1321.4000244141</ele>
        <time>2020-07-30T08:49:10.000Z</time>
      </trkpt>
      <trkpt lat="44.10133" lon="7.08805">
        <ele>1321.5999755859</ele>
        <time>2020-07-30T08:49:11.000Z</time>
      </trkpt>
      <trkpt lat="44.10138" lon="7.08805">
        <ele>1322.4000244141</ele>
        <time>2020-07-30T08:49:14.000Z</time>
      </trkpt>
      <trkpt lat="44.10141" lon="7.08805">
        <ele>1322.8000488281</ele>
        <time>2020-07-30T08:49:16.000Z</time>
      </trkpt>
      <trkpt lat="44.10144" lon="7.08805">
        <ele>1323</ele>
        <time>2020-07-30T08:49:18.000Z</time>
      </trkpt>
      <trkpt lat="44.10149" lon="7.08804">
        <ele>1323.5999755859</ele>
        <time>2020-07-30T08:49:21.000Z</time>
      </trkpt>
      <trkpt lat="44.10153" lon="7.08802">
        <ele>1324</ele>
        <time>2020-07-30T08:49:24.000Z</time>
      </trkpt>
      <trkpt lat="44.10161" lon="7.08798">
        <ele>1324.8000488281</ele>
        <time>2020-07-30T08:49:29.000Z</time>
      </trkpt>
      <trkpt lat="44.10164" lon="7.08795">
        <ele>1325</ele>
        <time>2020-07-30T08:49:31.000Z</time>
      </trkpt>
      <trkpt lat="44.10168" lon="7.08791">
        <ele>1325.8000488281</ele>
        <time>2020-07-30T08:49:34.000Z</time>
      </trkpt>
      <trkpt lat="44.10177" lon="7.0878">
        <ele>1326.4000244141</ele>
        <time>2020-07-30T08:49:40.000Z</time>
      </trkpt>
      <trkpt lat="44.10179" lon="7.08774">
        <ele>1326.8000488281</ele>
        <time>2020-07-30T08:49:44.000Z</time>
      </trkpt>
      <trkpt lat="44.10179" lon="7.08774">
        <ele>1327</ele>
        <time>2020-07-30T08:49:46.000Z</time>
      </trkpt>
      <trkpt lat="44.10183" lon="7.08772">
        <ele>1326.8000488281</ele>
        <time>2020-07-30T08:49:58.000Z</time>
      </trkpt>
      <trkpt lat="44.10192" lon="7.08759">
        <ele>1327.4000244141</ele>
        <time>2020-07-30T08:50:05.000Z</time>
      </trkpt>
      <trkpt lat="44.10197" lon="7.0875">
        <ele>1327.8000488281</ele>
        <time>2020-07-30T08:50:09.000Z</time>
      </trkpt>
      <trkpt lat="44.10201" lon="7.08738">
        <ele>1328.4000244141</ele>
        <time>2020-07-30T08:50:13.000Z</time>
      </trkpt>
      <trkpt lat="44.10206" lon="7.08728">
        <ele>1329</ele>
        <time>2020-07-30T08:50:17.000Z</time>
      </trkpt>
      <trkpt lat="44.1021" lon="7.08719">
        <ele>1329.5999755859</ele>
        <time>2020-07-30T08:50:21.000Z</time>
      </trkpt>
      <trkpt lat="44.10213" lon="7.08713">
        <ele>1330.1999511719</ele>
        <time>2020-07-30T08:50:24.000Z</time>
      </trkpt>
      <trkpt lat="44.10217" lon="7.087">
        <ele>1331.1999511719</ele>
        <time>2020-07-30T08:50:29.000Z</time>
      </trkpt>
      <trkpt lat="44.10223" lon="7.08686">
        <ele>1332.4000244141</ele>
        <time>2020-07-30T08:50:35.000Z</time>
      </trkpt>
      <trkpt lat="44.10225" lon="7.08681">
        <ele>1332.8000488281</ele>
        <time>2020-07-30T08:50:37.000Z</time>
      </trkpt>
      <trkpt lat="44.10231" lon="7.08674">
        <ele>1333.5999755859</ele>
        <time>2020-07-30T08:50:41.000Z</time>
      </trkpt>
      <trkpt lat="44.10234" lon="7.0867">
        <ele>1334.1999511719</ele>
        <time>2020-07-30T08:50:43.000Z</time>
      </trkpt>
      <trkpt lat="44.10236" lon="7.08666">
        <ele>1334.8000488281</ele>
        <time>2020-07-30T08:50:45.000Z</time>
      </trkpt>
      <trkpt lat="44.10238" lon="7.08657">
        <ele>1335.8000488281</ele>
        <time>2020-07-30T08:50:49.000Z</time>
      </trkpt>
      <trkpt lat="44.10239" lon="7.08655">
        <ele>1336</ele>
        <time>2020-07-30T08:50:50.000Z</time>
      </trkpt>
      <trkpt lat="44.10245" lon="7.08642">
        <ele>1337</ele>
        <time>2020-07-30T08:50:56.000Z</time>
      </trkpt>
      <trkpt lat="44.10249" lon="7.08637">
        <ele>1337.4000244141</ele>
        <time>2020-07-30T08:50:59.000Z</time>
      </trkpt>
      <trkpt lat="44.10251" lon="7.0863">
        <ele>1338.1999511719</ele>
        <time>2020-07-30T08:51:02.000Z</time>
      </trkpt>
      <trkpt lat="44.10255" lon="7.08617">
        <ele>1339</ele>
        <time>2020-07-30T08:51:07.000Z</time>
      </trkpt>
      <trkpt lat="44.10258" lon="7.08613">
        <ele>1339.1999511719</ele>
        <time>2020-07-30T08:51:09.000Z</time>
      </trkpt>
      <trkpt lat="44.10268" lon="7.08607">
        <ele>1339.8000488281</ele>
        <time>2020-07-30T08:51:14.000Z</time>
      </trkpt>
      <trkpt lat="44.10273" lon="7.08607">
        <ele>1340.1999511719</ele>
        <time>2020-07-30T08:51:17.000Z</time>
      </trkpt>
      <trkpt lat="44.10279" lon="7.08606">
        <ele>1341.1999511719</ele>
        <time>2020-07-30T08:51:20.000Z</time>
      </trkpt>
      <trkpt lat="44.10281" lon="7.08606">
        <ele>1341.4000244141</ele>
        <time>2020-07-30T08:51:21.000Z</time>
      </trkpt>
      <trkpt lat="44.10291" lon="7.08604">
        <ele>1342</ele>
        <time>2020-07-30T08:51:27.000Z</time>
      </trkpt>
      <trkpt lat="44.10296" lon="7.08603">
        <ele>1342.4000244141</ele>
        <time>2020-07-30T08:51:30.000Z</time>
      </trkpt>
      <trkpt lat="44.10305" lon="7.08599">
        <ele>1342.8000488281</ele>
        <time>2020-07-30T08:51:35.000Z</time>
      </trkpt>
      <trkpt lat="44.10312" lon="7.08596">
        <ele>1343.4000244141</ele>
        <time>2020-07-30T08:51:39.000Z</time>
      </trkpt>
      <trkpt lat="44.10317" lon="7.08593">
        <ele>1344</ele>
        <time>2020-07-30T08:51:42.000Z</time>
      </trkpt>
      <trkpt lat="44.10322" lon="7.0859">
        <ele>1344.5999755859</ele>
        <time>2020-07-30T08:51:45.000Z</time>
      </trkpt>
      <trkpt lat="44.10327" lon="7.08586">
        <ele>1345.1999511719</ele>
        <time>2020-07-30T08:51:49.000Z</time>
      </trkpt>
      <trkpt lat="44.10336" lon="7.08579">
        <ele>1345.5999755859</ele>
        <time>2020-07-30T08:51:54.000Z</time>
      </trkpt>
      <trkpt lat="44.10339" lon="7.08577">
        <ele>1346</ele>
        <time>2020-07-30T08:51:56.000Z</time>
      </trkpt>
      <trkpt lat="44.10346" lon="7.08572">
        <ele>1346.8000488281</ele>
        <time>2020-07-30T08:52:00.000Z</time>
      </trkpt>
      <trkpt lat="44.10354" lon="7.08565">
        <ele>1347.5999755859</ele>
        <time>2020-07-30T08:52:05.000Z</time>
      </trkpt>
      <trkpt lat="44.10355" lon="7.08564">
        <ele>1347.8000488281</ele>
        <time>2020-07-30T08:52:06.000Z</time>
      </trkpt>
      <trkpt lat="44.10364" lon="7.08555">
        <ele>1349</ele>
        <time>2020-07-30T08:52:12.000Z</time>
      </trkpt>
      <trkpt lat="44.10367" lon="7.08552">
        <ele>1349.4000244141</ele>
        <time>2020-07-30T08:52:14.000Z</time>
      </trkpt>
      <trkpt lat="44.1037" lon="7.08547">
        <ele>1350</ele>
        <time>2020-07-30T08:52:17.000Z</time>
      </trkpt>
      <trkpt lat="44.10376" lon="7.08541">
        <ele>1351</ele>
        <time>2020-07-30T08:52:22.000Z</time>
      </trkpt>
      <trkpt lat="44.10377" lon="7.0854">
        <ele>1351.5999755859</ele>
        <time>2020-07-30T08:52:29.000Z</time>
      </trkpt>
      <trkpt lat="44.10379" lon="7.08538">
        <ele>1351.4000244141</ele>
        <time>2020-07-30T08:52:43.000Z</time>
      </trkpt>
      <trkpt lat="44.10386" lon="7.08531">
        <ele>1351.8000488281</ele>
        <time>2020-07-30T08:52:49.000Z</time>
      </trkpt>
      <trkpt lat="44.10389" lon="7.08528">
        <ele>1352</ele>
        <time>2020-07-30T08:52:51.000Z</time>
      </trkpt>
      <trkpt lat="44.10398" lon="7.0852">
        <ele>1353</ele>
        <time>2020-07-30T08:52:57.000Z</time>
      </trkpt>
      <trkpt lat="44.10399" lon="7.08518">
        <ele>1353.1999511719</ele>
        <time>2020-07-30T08:52:58.000Z</time>
      </trkpt>
      <trkpt lat="44.10407" lon="7.08508">
        <ele>1354.1999511719</ele>
        <time>2020-07-30T08:53:05.000Z</time>
      </trkpt>
      <trkpt lat="44.10408" lon="7.08507">
        <ele>1354.4000244141</ele>
        <time>2020-07-30T08:53:06.000Z</time>
      </trkpt>
      <trkpt lat="44.10413" lon="7.08497">
        <ele>1355.4000244141</ele>
        <time>2020-07-30T08:53:11.000Z</time>
      </trkpt>
      <trkpt lat="44.10416" lon="7.08492">
        <ele>1356</ele>
        <time>2020-07-30T08:53:14.000Z</time>
      </trkpt>
      <trkpt lat="44.1042" lon="7.08487">
        <ele>1356.4000244141</ele>
        <time>2020-07-30T08:53:17.000Z</time>
      </trkpt>
      <trkpt lat="44.10428" lon="7.08476">
        <ele>1357.4000244141</ele>
        <time>2020-07-30T08:53:24.000Z</time>
      </trkpt>
      <trkpt lat="44.10429" lon="7.08475">
        <ele>1357.5999755859</ele>
        <time>2020-07-30T08:53:25.000Z</time>
      </trkpt>
      <trkpt lat="44.10435" lon="7.08464">
        <ele>1358.5999755859</ele>
        <time>2020-07-30T08:53:32.000Z</time>
      </trkpt>
      <trkpt lat="44.10439" lon="7.08461">
        <ele>1359.1999511719</ele>
        <time>2020-07-30T08:53:37.000Z</time>
      </trkpt>
      <trkpt lat="44.10441" lon="7.08461">
        <ele>1359</ele>
        <time>2020-07-30T08:53:54.000Z</time>
      </trkpt>
      <trkpt lat="44.10442" lon="7.08461">
        <ele>1359.4000244141</ele>
        <time>2020-07-30T08:54:04.000Z</time>
      </trkpt>
      <trkpt lat="44.10443" lon="7.0846">
        <ele>1359.4000244141</ele>
        <time>2020-07-30T08:54:25.000Z</time>
      </trkpt>
      <trkpt lat="44.10442" lon="7.0846">
        <ele>1359.4000244141</ele>
        <time>2020-07-30T08:54:44.000Z</time>
      </trkpt>
      <trkpt lat="44.10442" lon="7.08459">
        <ele>1359.4000244141</ele>
        <time>2020-07-30T08:55:12.000Z</time>
      </trkpt>
      <trkpt lat="44.10441" lon="7.08459">
        <ele>1359</ele>
        <time>2020-07-30T08:55:33.000Z</time>
      </trkpt>
      <trkpt lat="44.10441" lon="7.08459">
        <ele>1359</ele>
        <time>2020-07-30T08:55:54.000Z</time>
      </trkpt>
      <trkpt lat="44.10442" lon="7.08458">
        <ele>1359</ele>
        <time>2020-07-30T08:56:16.000Z</time>
      </trkpt>
      <trkpt lat="44.10442" lon="7.08458">
        <ele>1358.8000488281</ele>
        <time>2020-07-30T08:56:38.000Z</time>
      </trkpt>
      <trkpt lat="44.10442" lon="7.08458">
        <ele>1358.8000488281</ele>
        <time>2020-07-30T08:56:52.000Z</time>
      </trkpt>
      <trkpt lat="44.10442" lon="7.08458">
        <ele>1358.5999755859</ele>
        <time>2020-07-30T08:57:00.000Z</time>
      </trkpt>
      <trkpt lat="44.10445" lon="7.08453">
        <ele>1358.8000488281</ele>
        <time>2020-07-30T08:57:08.000Z</time>
      </trkpt>
      <trkpt lat="44.10451" lon="7.08441">
        <ele>1359.5999755859</ele>
        <time>2020-07-30T08:57:14.000Z</time>
      </trkpt>
      <trkpt lat="44.10452" lon="7.08438">
        <ele>1359.5999755859</ele>
        <time>2020-07-30T08:57:15.000Z</time>
      </trkpt>
      <trkpt lat="44.10458" lon="7.08427">
        <ele>1360.5999755859</ele>
        <time>2020-07-30T08:57:20.000Z</time>
      </trkpt>
      <trkpt lat="44.10459" lon="7.08422">
        <ele>1361</ele>
        <time>2020-07-30T08:57:22.000Z</time>
      </trkpt>
      <trkpt lat="44.10462" lon="7.08416">
        <ele>1361.5999755859</ele>
        <time>2020-07-30T08:57:25.000Z</time>
      </trkpt>
      <trkpt lat="44.10467" lon="7.08406">
        <ele>1362.8000488281</ele>
        <time>2020-07-30T08:57:30.000Z</time>
      </trkpt>
      <trkpt lat="44.10468" lon="7.08404">
        <ele>1363</ele>
        <time>2020-07-30T08:57:31.000Z</time>
      </trkpt>
      <trkpt lat="44.10474" lon="7.08392">
        <ele>1364</ele>
        <time>2020-07-30T08:57:37.000Z</time>
      </trkpt>
      <trkpt lat="44.10476" lon="7.08389">
        <ele>1364.1999511719</ele>
        <time>2020-07-30T08:57:39.000Z</time>
      </trkpt>
      <trkpt lat="44.10479" lon="7.0838">
        <ele>1365</ele>
        <time>2020-07-30T08:57:44.000Z</time>
      </trkpt>
      <trkpt lat="44.10479" lon="7.08377">
        <ele>1365</ele>
        <time>2020-07-30T08:57:45.000Z</time>
      </trkpt>
      <trkpt lat="44.10484" lon="7.08367">
        <ele>1366</ele>
        <time>2020-07-30T08:57:51.000Z</time>
      </trkpt>
      <trkpt lat="44.10485" lon="7.08366">
        <ele>1366.4000244141</ele>
        <time>2020-07-30T08:57:52.000Z</time>
      </trkpt>
      <trkpt lat="44.1049" lon="7.08358">
        <ele>1367</ele>
        <time>2020-07-30T08:57:57.000Z</time>
      </trkpt>
      <trkpt lat="44.10492" lon="7.08355">
        <ele>1367.4000244141</ele>
        <time>2020-07-30T08:57:59.000Z</time>
      </trkpt>
      <trkpt lat="44.10498" lon="7.08346">
        <ele>1368.1999511719</ele>
        <time>2020-07-30T08:58:05.000Z</time>
      </trkpt>
      <trkpt lat="44.10499" lon="7.08344">
        <ele>1368.4000244141</ele>
        <time>2020-07-30T08:58:06.000Z</time>
      </trkpt>
      <trkpt lat="44.10502" lon="7.0834">
        <ele>1369.4000244141</ele>
        <time>2020-07-30T08:58:09.000Z</time>
      </trkpt>
      <trkpt lat="44.10507" lon="7.08333">
        <ele>1370.1999511719</ele>
        <time>2020-07-30T08:58:14.000Z</time>
      </trkpt>
      <trkpt lat="44.1051" lon="7.08329">
        <ele>1370.4000244141</ele>
        <time>2020-07-30T08:58:17.000Z</time>
      </trkpt>
      <trkpt lat="44.10513" lon="7.08326">
        <ele>1370.5999755859</ele>
        <time>2020-07-30T08:58:19.000Z</time>
      </trkpt>
      <trkpt lat="44.10514" lon="7.08324">
        <ele>1370.8000488281</ele>
        <time>2020-07-30T08:58:20.000Z</time>
      </trkpt>
      <trkpt lat="44.10519" lon="7.08317">
        <ele>1371.5999755859</ele>
        <time>2020-07-30T08:58:25.000Z</time>
      </trkpt>
      <trkpt lat="44.10522" lon="7.08312">
        <ele>1372.1999511719</ele>
        <time>2020-07-30T08:58:28.000Z</time>
      </trkpt>
      <trkpt lat="44.10524" lon="7.08308">
        <ele>1372.5999755859</ele>
        <time>2020-07-30T08:58:30.000Z</time>
      </trkpt>
      <trkpt lat="44.10529" lon="7.083">
        <ele>1373.5999755859</ele>
        <time>2020-07-30T08:58:35.000Z</time>
      </trkpt>
      <trkpt lat="44.10536" lon="7.08287">
        <ele>1374.8000488281</ele>
        <time>2020-07-30T08:58:42.000Z</time>
      </trkpt>
      <trkpt lat="44.10537" lon="7.08286">
        <ele>1375</ele>
        <time>2020-07-30T08:58:43.000Z</time>
      </trkpt>
      <trkpt lat="44.10542" lon="7.08275">
        <ele>1375.8000488281</ele>
        <time>2020-07-30T08:58:49.000Z</time>
      </trkpt>
      <trkpt lat="44.10544" lon="7.08272">
        <ele>1376</ele>
        <time>2020-07-30T08:58:51.000Z</time>
      </trkpt>
      <trkpt lat="44.10546" lon="7.08267">
        <ele>1376.8000488281</ele>
        <time>2020-07-30T08:58:56.000Z</time>
      </trkpt>
      <trkpt lat="44.10546" lon="7.08266">
        <ele>1377</ele>
        <time>2020-07-30T08:58:57.000Z</time>
      </trkpt>
      <trkpt lat="44.10546" lon="7.08265">
        <ele>1377.1999511719</ele>
        <time>2020-07-30T08:59:12.000Z</time>
      </trkpt>
      <trkpt lat="44.10546" lon="7.08264">
        <ele>1377.4000244141</ele>
        <time>2020-07-30T08:59:35.000Z</time>
      </trkpt>
      <trkpt lat="44.10546" lon="7.08265">
        <ele>1377.1999511719</ele>
        <time>2020-07-30T08:59:54.000Z</time>
      </trkpt>
      <trkpt lat="44.10548" lon="7.08265">
        <ele>1377.1999511719</ele>
        <time>2020-07-30T09:00:17.000Z</time>
      </trkpt>
      <trkpt lat="44.10548" lon="7.08265">
        <ele>1377.4000244141</ele>
        <time>2020-07-30T09:00:36.000Z</time>
      </trkpt>
      <trkpt lat="44.10549" lon="7.08264">
        <ele>1376.8000488281</ele>
        <time>2020-07-30T09:00:48.000Z</time>
      </trkpt>
      <trkpt lat="44.10552" lon="7.08259">
        <ele>1377.1999511719</ele>
        <time>2020-07-30T09:00:53.000Z</time>
      </trkpt>
      <trkpt lat="44.10557" lon="7.0825">
        <ele>1378</ele>
        <time>2020-07-30T09:00:59.000Z</time>
      </trkpt>
      <trkpt lat="44.10561" lon="7.08243">
        <ele>1378.5999755859</ele>
        <time>2020-07-30T09:01:05.000Z</time>
      </trkpt>
      <trkpt lat="44.1056" lon="7.08247">
        <ele>1379</ele>
        <time>2020-07-30T09:01:08.000Z</time>
      </trkpt>
      <trkpt lat="44.10559" lon="7.08249">
        <ele>1379</ele>
        <time>2020-07-30T09:01:09.000Z</time>
      </trkpt>
      <trkpt lat="44.10557" lon="7.08253">
        <ele>1379</ele>
        <time>2020-07-30T09:01:10.000Z</time>
      </trkpt>
      <trkpt lat="44.10552" lon="7.08265">
        <ele>1378.1999511719</ele>
        <time>2020-07-30T09:01:14.000Z</time>
      </trkpt>
      <trkpt lat="44.10551" lon="7.08267">
        <ele>1378</ele>
        <time>2020-07-30T09:01:15.000Z</time>
      </trkpt>
      <trkpt lat="44.10547" lon="7.08275">
        <ele>1377</ele>
        <time>2020-07-30T09:01:19.000Z</time>
      </trkpt>
      <trkpt lat="44.10546" lon="7.08276">
        <ele>1376.8000488281</ele>
        <time>2020-07-30T09:01:20.000Z</time>
      </trkpt>
      <trkpt lat="44.10543" lon="7.08279">
        <ele>1376.1999511719</ele>
        <time>2020-07-30T09:01:23.000Z</time>
      </trkpt>
      <trkpt lat="44.10543" lon="7.08278">
        <ele>1376</ele>
        <time>2020-07-30T09:01:24.000Z</time>
      </trkpt>
      <trkpt lat="44.10543" lon="7.08276">
        <ele>1375.8000488281</ele>
        <time>2020-07-30T09:01:25.000Z</time>
      </trkpt>
      <trkpt lat="44.10544" lon="7.08274">
        <ele>1375.5999755859</ele>
        <time>2020-07-30T09:01:28.000Z</time>
      </trkpt>
      <trkpt lat="44.10547" lon="7.08264">
        <ele>1376</ele>
        <time>2020-07-30T09:01:33.000Z</time>
      </trkpt>
      <trkpt lat="44.10547" lon="7.08263">
        <ele>1377</ele>
        <time>2020-07-30T09:01:37.000Z</time>
      </trkpt>
      <trkpt lat="44.10547" lon="7.08263">
        <ele>1377.1999511719</ele>
        <time>2020-07-30T09:01:38.000Z</time>
      </trkpt>
      <trkpt lat="44.10547" lon="7.08262">
        <ele>1378</ele>
        <time>2020-07-30T09:01:41.000Z</time>
      </trkpt>
      <trkpt lat="44.10548" lon="7.0826">
        <ele>1378.5999755859</ele>
        <time>2020-07-30T09:01:44.000Z</time>
      </trkpt>
      <trkpt lat="44.10549" lon="7.08259">
        <ele>1379</ele>
        <time>2020-07-30T09:01:46.000Z</time>
      </trkpt>
      <trkpt lat="44.10553" lon="7.08253">
        <ele>1379.1999511719</ele>
        <time>2020-07-30T09:01:50.000Z</time>
      </trkpt>
      <trkpt lat="44.10558" lon="7.08241">
        <ele>1380</ele>
        <time>2020-07-30T09:01:56.000Z</time>
      </trkpt>
      <trkpt lat="44.10559" lon="7.08239">
        <ele>1380.1999511719</ele>
        <time>2020-07-30T09:01:57.000Z</time>
      </trkpt>
      <trkpt lat="44.10562" lon="7.08228">
        <ele>1381.1999511719</ele>
        <time>2020-07-30T09:02:02.000Z</time>
      </trkpt>
      <trkpt lat="44.10563" lon="7.08226">
        <ele>1381.4000244141</ele>
        <time>2020-07-30T09:02:03.000Z</time>
      </trkpt>
      <trkpt lat="44.10567" lon="7.08217">
        <ele>1382.4000244141</ele>
        <time>2020-07-30T09:02:08.000Z</time>
      </trkpt>
      <trkpt lat="44.10567" lon="7.08216">
        <ele>1382.5999755859</ele>
        <time>2020-07-30T09:02:09.000Z</time>
      </trkpt>
      <trkpt lat="44.1057" lon="7.08205">
        <ele>1383.4000244141</ele>
        <time>2020-07-30T09:02:14.000Z</time>
      </trkpt>
      <trkpt lat="44.10572" lon="7.08196">
        <ele>1384.4000244141</ele>
        <time>2020-07-30T09:02:18.000Z</time>
      </trkpt>
      <trkpt lat="44.10574" lon="7.08189">
        <ele>1385.1999511719</ele>
        <time>2020-07-30T09:02:21.000Z</time>
      </trkpt>
      <trkpt lat="44.10575" lon="7.08186">
        <ele>1385.8000488281</ele>
        <time>2020-07-30T09:02:23.000Z</time>
      </trkpt>
      <trkpt lat="44.10576" lon="7.08184">
        <ele>1386</ele>
        <time>2020-07-30T09:02:24.000Z</time>
      </trkpt>
      <trkpt lat="44.10578" lon="7.08177">
        <ele>1386.5999755859</ele>
        <time>2020-07-30T09:02:27.000Z</time>
      </trkpt>
      <trkpt lat="44.10579" lon="7.08175">
        <ele>1386.8000488281</ele>
        <time>2020-07-30T09:02:28.000Z</time>
      </trkpt>
      <trkpt lat="44.10581" lon="7.08166">
        <ele>1387.4000244141</ele>
        <time>2020-07-30T09:02:32.000Z</time>
      </trkpt>
      <trkpt lat="44.10582" lon="7.08162">
        <ele>1388</ele>
        <time>2020-07-30T09:02:34.000Z</time>
      </trkpt>
      <trkpt lat="44.10585" lon="7.08159">
        <ele>1389</ele>
        <time>2020-07-30T09:02:37.000Z</time>
      </trkpt>
      <trkpt lat="44.10587" lon="7.08157">
        <ele>1389.1999511719</ele>
        <time>2020-07-30T09:02:38.000Z</time>
      </trkpt>
      <trkpt lat="44.10589" lon="7.08148">
        <ele>1389.8000488281</ele>
        <time>2020-07-30T09:02:42.000Z</time>
      </trkpt>
      <trkpt lat="44.10591" lon="7.08141">
        <ele>1390.4000244141</ele>
        <time>2020-07-30T09:02:45.000Z</time>
      </trkpt>
      <trkpt lat="44.10592" lon="7.08137">
        <ele>1390.5999755859</ele>
        <time>2020-07-30T09:02:47.000Z</time>
      </trkpt>
      <trkpt lat="44.10595" lon="7.08127">
        <ele>1391.5999755859</ele>
        <time>2020-07-30T09:02:51.000Z</time>
      </trkpt>
      <trkpt lat="44.10597" lon="7.0812">
        <ele>1392.4000244141</ele>
        <time>2020-07-30T09:02:54.000Z</time>
      </trkpt>
      <trkpt lat="44.10597" lon="7.08118">
        <ele>1392.5999755859</ele>
        <time>2020-07-30T09:02:55.000Z</time>
      </trkpt>
      <trkpt lat="44.10599" lon="7.08108">
        <ele>1393.8000488281</ele>
        <time>2020-07-30T09:03:00.000Z</time>
      </trkpt>
      <trkpt lat="44.10601" lon="7.08106">
        <ele>1394</ele>
        <time>2020-07-30T09:03:01.000Z</time>
      </trkpt>
      <trkpt lat="44.10603" lon="7.081">
        <ele>1394.8000488281</ele>
        <time>2020-07-30T09:03:04.000Z</time>
      </trkpt>
      <trkpt lat="44.10606" lon="7.08096">
        <ele>1395.4000244141</ele>
        <time>2020-07-30T09:03:06.000Z</time>
      </trkpt>
      <trkpt lat="44.10608" lon="7.08093">
        <ele>1396</ele>
        <time>2020-07-30T09:03:08.000Z</time>
      </trkpt>
      <trkpt lat="44.10611" lon="7.08085">
        <ele>1397</ele>
        <time>2020-07-30T09:03:12.000Z</time>
      </trkpt>
      <trkpt lat="44.10611" lon="7.08083">
        <ele>1397.1999511719</ele>
        <time>2020-07-30T09:03:13.000Z</time>
      </trkpt>
      <trkpt lat="44.10613" lon="7.08072">
        <ele>1398</ele>
        <time>2020-07-30T09:03:17.000Z</time>
      </trkpt>
      <trkpt lat="44.10614" lon="7.0807">
        <ele>1398.1999511719</ele>
        <time>2020-07-30T09:03:18.000Z</time>
      </trkpt>
      <trkpt lat="44.10618" lon="7.08061">
        <ele>1399.4000244141</ele>
        <time>2020-07-30T09:03:22.000Z</time>
      </trkpt>
      <trkpt lat="44.1062" lon="7.08055">
        <ele>1400</ele>
        <time>2020-07-30T09:03:25.000Z</time>
      </trkpt>
      <trkpt lat="44.10622" lon="7.08051">
        <ele>1400.4000244141</ele>
        <time>2020-07-30T09:03:27.000Z</time>
      </trkpt>
      <trkpt lat="44.10626" lon="7.08041">
        <ele>1401</ele>
        <time>2020-07-30T09:03:31.000Z</time>
      </trkpt>
      <trkpt lat="44.10629" lon="7.08034">
        <ele>1401.5999755859</ele>
        <time>2020-07-30T09:03:34.000Z</time>
      </trkpt>
      <trkpt lat="44.10632" lon="7.08027">
        <ele>1402.1999511719</ele>
        <time>2020-07-30T09:03:37.000Z</time>
      </trkpt>
      <trkpt lat="44.10632" lon="7.08024">
        <ele>1402.5999755859</ele>
        <time>2020-07-30T09:03:38.000Z</time>
      </trkpt>
      <trkpt lat="44.10634" lon="7.08019">
        <ele>1402.8000488281</ele>
        <time>2020-07-30T09:03:40.000Z</time>
      </trkpt>
      <trkpt lat="44.10636" lon="7.08015">
        <ele>1403.1999511719</ele>
        <time>2020-07-30T09:03:42.000Z</time>
      </trkpt>
      <trkpt lat="44.10638" lon="7.08011">
        <ele>1403.5999755859</ele>
        <time>2020-07-30T09:03:44.000Z</time>
      </trkpt>
      <trkpt lat="44.1064" lon="7.08003">
        <ele>1404.1999511719</ele>
        <time>2020-07-30T09:03:47.000Z</time>
      </trkpt>
      <trkpt lat="44.10639" lon="7.08001">
        <ele>1404.4000244141</ele>
        <time>2020-07-30T09:03:48.000Z</time>
      </trkpt>
      <trkpt lat="44.10639" lon="7.07999">
        <ele>1404.8000488281</ele>
        <time>2020-07-30T09:03:49.000Z</time>
      </trkpt>
      <trkpt lat="44.1064" lon="7.07999">
        <ele>1405.1999511719</ele>
        <time>2020-07-30T09:03:51.000Z</time>
      </trkpt>
      <trkpt lat="44.1064" lon="7.07999">
        <ele>1405.8000488281</ele>
        <time>2020-07-30T09:03:53.000Z</time>
      </trkpt>
      <trkpt lat="44.10642" lon="7.07993">
        <ele>1405.5999755859</ele>
        <time>2020-07-30T09:03:58.000Z</time>
      </trkpt>
      <trkpt lat="44.10645" lon="7.07984">
        <ele>1405.8000488281</ele>
        <time>2020-07-30T09:04:02.000Z</time>
      </trkpt>
      <trkpt lat="44.10647" lon="7.07973">
        <ele>1406.8000488281</ele>
        <time>2020-07-30T09:04:07.000Z</time>
      </trkpt>
      <trkpt lat="44.10648" lon="7.07968">
        <ele>1407.1999511719</ele>
        <time>2020-07-30T09:04:09.000Z</time>
      </trkpt>
      <trkpt lat="44.1065" lon="7.0796">
        <ele>1408</ele>
        <time>2020-07-30T09:04:12.000Z</time>
      </trkpt>
      <trkpt lat="44.10653" lon="7.07953">
        <ele>1408.5999755859</ele>
        <time>2020-07-30T09:04:15.000Z</time>
      </trkpt>
      <trkpt lat="44.10655" lon="7.07946">
        <ele>1409.1999511719</ele>
        <time>2020-07-30T09:04:18.000Z</time>
      </trkpt>
      <trkpt lat="44.10659" lon="7.07934">
        <ele>1410</ele>
        <time>2020-07-30T09:04:23.000Z</time>
      </trkpt>
      <trkpt lat="44.1066" lon="7.07932">
        <ele>1410.1999511719</ele>
        <time>2020-07-30T09:04:24.000Z</time>
      </trkpt>
      <trkpt lat="44.10667" lon="7.07915">
        <ele>1410.8000488281</ele>
        <time>2020-07-30T09:04:31.000Z</time>
      </trkpt>
      <trkpt lat="44.1067" lon="7.07907">
        <ele>1411.1999511719</ele>
        <time>2020-07-30T09:04:34.000Z</time>
      </trkpt>
      <trkpt lat="44.10672" lon="7.07902">
        <ele>1411.4000244141</ele>
        <time>2020-07-30T09:04:36.000Z</time>
      </trkpt>
      <trkpt lat="44.10675" lon="7.07887">
        <ele>1412.4000244141</ele>
        <time>2020-07-30T09:04:41.000Z</time>
      </trkpt>
      <trkpt lat="44.10677" lon="7.07882">
        <ele>1412.8000488281</ele>
        <time>2020-07-30T09:04:43.000Z</time>
      </trkpt>
      <trkpt lat="44.10678" lon="7.07877">
        <ele>1413.4000244141</ele>
        <time>2020-07-30T09:04:45.000Z</time>
      </trkpt>
      <trkpt lat="44.10682" lon="7.07865">
        <ele>1414.1999511719</ele>
        <time>2020-07-30T09:04:49.000Z</time>
      </trkpt>
      <trkpt lat="44.10684" lon="7.07861">
        <ele>1414.5999755859</ele>
        <time>2020-07-30T09:04:51.000Z</time>
      </trkpt>
      <trkpt lat="44.10687" lon="7.07854">
        <ele>1415.1999511719</ele>
        <time>2020-07-30T09:04:54.000Z</time>
      </trkpt>
      <trkpt lat="44.10691" lon="7.07838">
        <ele>1415.5999755859</ele>
        <time>2020-07-30T09:04:59.000Z</time>
      </trkpt>
      <trkpt lat="44.10693" lon="7.07835">
        <ele>1415.8000488281</ele>
        <time>2020-07-30T09:05:00.000Z</time>
      </trkpt>
      <trkpt lat="44.10697" lon="7.0782">
        <ele>1416</ele>
        <time>2020-07-30T09:05:05.000Z</time>
      </trkpt>
      <trkpt lat="44.10704" lon="7.07797">
        <ele>1416.5999755859</ele>
        <time>2020-07-30T09:05:12.000Z</time>
      </trkpt>
      <trkpt lat="44.10705" lon="7.0779">
        <ele>1417</ele>
        <time>2020-07-30T09:05:14.000Z</time>
      </trkpt>
      <trkpt lat="44.10707" lon="7.07774">
        <ele>1418</ele>
        <time>2020-07-30T09:05:19.000Z</time>
      </trkpt>
      <trkpt lat="44.10707" lon="7.07772">
        <ele>1418.1999511719</ele>
        <time>2020-07-30T09:05:20.000Z</time>
      </trkpt>
      <trkpt lat="44.10706" lon="7.07768">
        <ele>1418.4000244141</ele>
        <time>2020-07-30T09:05:21.000Z</time>
      </trkpt>
      <trkpt lat="44.10704" lon="7.07759">
        <ele>1419</ele>
        <time>2020-07-30T09:05:24.000Z</time>
      </trkpt>
      <trkpt lat="44.10704" lon="7.07757">
        <ele>1419.4000244141</ele>
        <time>2020-07-30T09:05:25.000Z</time>
      </trkpt>
      <trkpt lat="44.10702" lon="7.07752">
        <ele>1420</ele>
        <time>2020-07-30T09:05:27.000Z</time>
      </trkpt>
      <trkpt lat="44.107" lon="7.07748">
        <ele>1420.4000244141</ele>
        <time>2020-07-30T09:05:29.000Z</time>
      </trkpt>
      <trkpt lat="44.10697" lon="7.07737">
        <ele>1421</ele>
        <time>2020-07-30T09:05:33.000Z</time>
      </trkpt>
      <trkpt lat="44.10698" lon="7.07728">
        <ele>1421.5999755859</ele>
        <time>2020-07-30T09:05:36.000Z</time>
      </trkpt>
      <trkpt lat="44.107" lon="7.07723">
        <ele>1422</ele>
        <time>2020-07-30T09:05:38.000Z</time>
      </trkpt>
      <trkpt lat="44.10701" lon="7.07718">
        <ele>1422.5999755859</ele>
        <time>2020-07-30T09:05:40.000Z</time>
      </trkpt>
      <trkpt lat="44.10705" lon="7.07707">
        <ele>1423.5999755859</ele>
        <time>2020-07-30T09:05:44.000Z</time>
      </trkpt>
      <trkpt lat="44.10708" lon="7.07695">
        <ele>1424.5999755859</ele>
        <time>2020-07-30T09:05:48.000Z</time>
      </trkpt>
      <trkpt lat="44.1071" lon="7.07689">
        <ele>1425.4000244141</ele>
        <time>2020-07-30T09:05:50.000Z</time>
      </trkpt>
      <trkpt lat="44.10713" lon="7.07684">
        <ele>1426</ele>
        <time>2020-07-30T09:05:52.000Z</time>
      </trkpt>
      <trkpt lat="44.10714" lon="7.07681">
        <ele>1426.1999511719</ele>
        <time>2020-07-30T09:05:53.000Z</time>
      </trkpt>
      <trkpt lat="44.10714" lon="7.07678">
        <ele>1426.5999755859</ele>
        <time>2020-07-30T09:05:54.000Z</time>
      </trkpt>
      <trkpt lat="44.10718" lon="7.07672">
        <ele>1427</ele>
        <time>2020-07-30T09:05:56.000Z</time>
      </trkpt>
      <trkpt lat="44.10719" lon="7.0767">
        <ele>1427.4000244141</ele>
        <time>2020-07-30T09:05:57.000Z</time>
      </trkpt>
      <trkpt lat="44.1072" lon="7.07667">
        <ele>1427.5999755859</ele>
        <time>2020-07-30T09:05:58.000Z</time>
      </trkpt>
      <trkpt lat="44.10723" lon="7.07662">
        <ele>1428.1999511719</ele>
        <time>2020-07-30T09:06:00.000Z</time>
      </trkpt>
      <trkpt lat="44.10727" lon="7.0765">
        <ele>1429.4000244141</ele>
        <time>2020-07-30T09:06:05.000Z</time>
      </trkpt>
      <trkpt lat="44.10731" lon="7.07641">
        <ele>1430.8000488281</ele>
        <time>2020-07-30T09:06:08.000Z</time>
      </trkpt>
      <trkpt lat="44.10732" lon="7.07635">
        <ele>1431.5999755859</ele>
        <time>2020-07-30T09:06:10.000Z</time>
      </trkpt>
      <trkpt lat="44.10733" lon="7.07632">
        <ele>1432</ele>
        <time>2020-07-30T09:06:11.000Z</time>
      </trkpt>
      <trkpt lat="44.10735" lon="7.07624">
        <ele>1433.1999511719</ele>
        <time>2020-07-30T09:06:14.000Z</time>
      </trkpt>
      <trkpt lat="44.10736" lon="7.07621">
        <ele>1433.5999755859</ele>
        <time>2020-07-30T09:06:15.000Z</time>
      </trkpt>
      <trkpt lat="44.10738" lon="7.07616">
        <ele>1434.4000244141</ele>
        <time>2020-07-30T09:06:17.000Z</time>
      </trkpt>
      <trkpt lat="44.10739" lon="7.0761">
        <ele>1434.8000488281</ele>
        <time>2020-07-30T09:06:19.000Z</time>
      </trkpt>
      <trkpt lat="44.10738" lon="7.07607">
        <ele>1435</ele>
        <time>2020-07-30T09:06:20.000Z</time>
      </trkpt>
      <trkpt lat="44.1074" lon="7.07601">
        <ele>1435.5999755859</ele>
        <time>2020-07-30T09:06:22.000Z</time>
      </trkpt>
      <trkpt lat="44.10741" lon="7.07597">
        <ele>1436.4000244141</ele>
        <time>2020-07-30T09:06:24.000Z</time>
      </trkpt>
      <trkpt lat="44.10741" lon="7.07594">
        <ele>1436.8000488281</ele>
        <time>2020-07-30T09:06:25.000Z</time>
      </trkpt>
      <trkpt lat="44.10742" lon="7.0759">
        <ele>1438</ele>
        <time>2020-07-30T09:06:27.000Z</time>
      </trkpt>
      <trkpt lat="44.10744" lon="7.07582">
        <ele>1439.4000244141</ele>
        <time>2020-07-30T09:06:30.000Z</time>
      </trkpt>
      <trkpt lat="44.10747" lon="7.0757">
        <ele>1440.5999755859</ele>
        <time>2020-07-30T09:06:34.000Z</time>
      </trkpt>
      <trkpt lat="44.10749" lon="7.07568">
        <ele>1441</ele>
        <time>2020-07-30T09:06:35.000Z</time>
      </trkpt>
      <trkpt lat="44.10749" lon="7.07565">
        <ele>1441.4000244141</ele>
        <time>2020-07-30T09:06:36.000Z</time>
      </trkpt>
      <trkpt lat="44.10751" lon="7.07561">
        <ele>1441.8000488281</ele>
        <time>2020-07-30T09:06:37.000Z</time>
      </trkpt>
      <trkpt lat="44.10754" lon="7.07555">
        <ele>1442.1999511719</ele>
        <time>2020-07-30T09:06:39.000Z</time>
      </trkpt>
      <trkpt lat="44.10756" lon="7.07549">
        <ele>1442.5999755859</ele>
        <time>2020-07-30T09:06:41.000Z</time>
      </trkpt>
      <trkpt lat="44.10756" lon="7.07546">
        <ele>1443</ele>
        <time>2020-07-30T09:06:42.000Z</time>
      </trkpt>
      <trkpt lat="44.10759" lon="7.07538">
        <ele>1443.8000488281</ele>
        <time>2020-07-30T09:06:45.000Z</time>
      </trkpt>
      <trkpt lat="44.10761" lon="7.07535">
        <ele>1444.1999511719</ele>
        <time>2020-07-30T09:06:46.000Z</time>
      </trkpt>
      <trkpt lat="44.10763" lon="7.07529">
        <ele>1445</ele>
        <time>2020-07-30T09:06:49.000Z</time>
      </trkpt>
      <trkpt lat="44.10764" lon="7.07525">
        <ele>1445.4000244141</ele>
        <time>2020-07-30T09:06:50.000Z</time>
      </trkpt>
      <trkpt lat="44.10768" lon="7.07515">
        <ele>1446.4000244141</ele>
        <time>2020-07-30T09:06:54.000Z</time>
      </trkpt>
      <trkpt lat="44.1077" lon="7.07506">
        <ele>1447.5999755859</ele>
        <time>2020-07-30T09:06:58.000Z</time>
      </trkpt>
      <trkpt lat="44.10771" lon="7.07503">
        <ele>1448</ele>
        <time>2020-07-30T09:06:59.000Z</time>
      </trkpt>
      <trkpt lat="44.10773" lon="7.075">
        <ele>1448.8000488281</ele>
        <time>2020-07-30T09:07:01.000Z</time>
      </trkpt>
      <trkpt lat="44.10774" lon="7.07496">
        <ele>1449.8000488281</ele>
        <time>2020-07-30T09:07:03.000Z</time>
      </trkpt>
      <trkpt lat="44.10774" lon="7.07496">
        <ele>1450.4000244141</ele>
        <time>2020-07-30T09:07:04.000Z</time>
      </trkpt>
      <trkpt lat="44.10774" lon="7.07496">
        <ele>1450.8000488281</ele>
        <time>2020-07-30T09:07:05.000Z</time>
      </trkpt>
      <trkpt lat="44.10775" lon="7.07494">
        <ele>1451.5999755859</ele>
        <time>2020-07-30T09:07:10.000Z</time>
      </trkpt>
      <trkpt lat="44.10775" lon="7.0749">
        <ele>1451.5999755859</ele>
        <time>2020-07-30T09:07:20.000Z</time>
      </trkpt>
      <trkpt lat="44.10776" lon="7.07489">
        <ele>1451.8000488281</ele>
        <time>2020-07-30T09:07:25.000Z</time>
      </trkpt>
      <trkpt lat="44.10776" lon="7.07488">
        <ele>1451.5999755859</ele>
        <time>2020-07-30T09:07:32.000Z</time>
      </trkpt>
      <trkpt lat="44.10776" lon="7.07486">
        <ele>1451.5999755859</ele>
        <time>2020-07-30T09:07:47.000Z</time>
      </trkpt>
      <trkpt lat="44.10777" lon="7.07486">
        <ele>1451.5999755859</ele>
        <time>2020-07-30T09:07:56.000Z</time>
      </trkpt>
      <trkpt lat="44.10777" lon="7.07484">
        <ele>1451.8000488281</ele>
        <time>2020-07-30T09:08:06.000Z</time>
      </trkpt>
      <trkpt lat="44.10781" lon="7.07484">
        <ele>1451.5999755859</ele>
        <time>2020-07-30T09:08:23.000Z</time>
      </trkpt>
      <trkpt lat="44.10783" lon="7.07484">
        <ele>1451.4000244141</ele>
        <time>2020-07-30T09:08:44.000Z</time>
      </trkpt>
      <trkpt lat="44.10783" lon="7.07483">
        <ele>1451.5999755859</ele>
        <time>2020-07-30T09:08:53.000Z</time>
      </trkpt>
      <trkpt lat="44.10781" lon="7.07481">
        <ele>1451.5999755859</ele>
        <time>2020-07-30T09:09:04.000Z</time>
      </trkpt>
      <trkpt lat="44.10778" lon="7.07478">
        <ele>1451.4000244141</ele>
        <time>2020-07-30T09:09:17.000Z</time>
      </trkpt>
      <trkpt lat="44.10776" lon="7.07476">
        <ele>1451.4000244141</ele>
        <time>2020-07-30T09:09:29.000Z</time>
      </trkpt>
      <trkpt lat="44.10776" lon="7.07477">
        <ele>1451.5999755859</ele>
        <time>2020-07-30T09:09:39.000Z</time>
      </trkpt>
      <trkpt lat="44.10774" lon="7.07476">
        <ele>1451.5999755859</ele>
        <time>2020-07-30T09:09:48.000Z</time>
      </trkpt>
      <trkpt lat="44.10774" lon="7.07476">
        <ele>1451.4000244141</ele>
        <time>2020-07-30T09:09:58.000Z</time>
      </trkpt>
      <trkpt lat="44.10774" lon="7.07478">
        <ele>1451.4000244141</ele>
        <time>2020-07-30T09:10:12.000Z</time>
      </trkpt>
      <trkpt lat="44.10774" lon="7.07479">
        <ele>1451.1999511719</ele>
        <time>2020-07-30T09:10:18.000Z</time>
      </trkpt>
      <trkpt lat="44.10772" lon="7.07477">
        <ele>1451.4000244141</ele>
        <time>2020-07-30T09:10:27.000Z</time>
      </trkpt>
      <trkpt lat="44.10772" lon="7.07475">
        <ele>1451.4000244141</ele>
        <time>2020-07-30T09:10:44.000Z</time>
      </trkpt>
      <trkpt lat="44.10769" lon="7.07471">
        <ele>1451.4000244141</ele>
        <time>2020-07-30T09:11:05.000Z</time>
      </trkpt>
      <trkpt lat="44.10771" lon="7.07473">
        <ele>1451.8000488281</ele>
        <time>2020-07-30T09:11:20.000Z</time>
      </trkpt>
      <trkpt lat="44.10775" lon="7.07478">
        <ele>1451.5999755859</ele>
        <time>2020-07-30T09:11:44.000Z</time>
      </trkpt>
      <trkpt lat="44.10776" lon="7.07479">
        <ele>1451.5999755859</ele>
        <time>2020-07-30T09:11:54.000Z</time>
      </trkpt>
      <trkpt lat="44.10777" lon="7.07478">
        <ele>1451.5999755859</ele>
        <time>2020-07-30T09:11:58.000Z</time>
      </trkpt>
      <trkpt lat="44.10778" lon="7.07473">
        <ele>1451.5999755859</ele>
        <time>2020-07-30T09:12:00.000Z</time>
      </trkpt>
      <trkpt lat="44.10783" lon="7.07461">
        <ele>1451.1999511719</ele>
        <time>2020-07-30T09:12:04.000Z</time>
      </trkpt>
      <trkpt lat="44.10788" lon="7.07449">
        <ele>1453.1999511719</ele>
        <time>2020-07-30T09:12:08.000Z</time>
      </trkpt>
      <trkpt lat="44.10788" lon="7.07446">
        <ele>1453.8000488281</ele>
        <time>2020-07-30T09:12:09.000Z</time>
      </trkpt>
      <trkpt lat="44.10791" lon="7.07441">
        <ele>1454.5999755859</ele>
        <time>2020-07-30T09:12:11.000Z</time>
      </trkpt>
      <trkpt lat="44.10793" lon="7.07436">
        <ele>1455.5999755859</ele>
        <time>2020-07-30T09:12:13.000Z</time>
      </trkpt>
      <trkpt lat="44.10794" lon="7.07434">
        <ele>1456</ele>
        <time>2020-07-30T09:12:14.000Z</time>
      </trkpt>
      <trkpt lat="44.10795" lon="7.07428">
        <ele>1456.8000488281</ele>
        <time>2020-07-30T09:12:16.000Z</time>
      </trkpt>
      <trkpt lat="44.10798" lon="7.07421">
        <ele>1458.1999511719</ele>
        <time>2020-07-30T09:12:19.000Z</time>
      </trkpt>
      <trkpt lat="44.10799" lon="7.07418">
        <ele>1458.8000488281</ele>
        <time>2020-07-30T09:12:20.000Z</time>
      </trkpt>
      <trkpt lat="44.108" lon="7.07415">
        <ele>1459.4000244141</ele>
        <time>2020-07-30T09:12:21.000Z</time>
      </trkpt>
      <trkpt lat="44.10801" lon="7.07414">
        <ele>1459.5999755859</ele>
        <time>2020-07-30T09:12:22.000Z</time>
      </trkpt>
      <trkpt lat="44.10803" lon="7.0741">
        <ele>1460.4000244141</ele>
        <time>2020-07-30T09:12:24.000Z</time>
      </trkpt>
      <trkpt lat="44.10805" lon="7.07408">
        <ele>1460.5999755859</ele>
        <time>2020-07-30T09:12:25.000Z</time>
      </trkpt>
      <trkpt lat="44.10807" lon="7.07404">
        <ele>1461.5999755859</ele>
        <time>2020-07-30T09:12:27.000Z</time>
      </trkpt>
      <trkpt lat="44.10809" lon="7.07398">
        <ele>1463.1999511719</ele>
        <time>2020-07-30T09:12:30.000Z</time>
      </trkpt>
      <trkpt lat="44.1081" lon="7.07395">
        <ele>1464.4000244141</ele>
        <time>2020-07-30T09:12:32.000Z</time>
      </trkpt>
      <trkpt lat="44.10813" lon="7.0739">
        <ele>1465.4000244141</ele>
        <time>2020-07-30T09:12:35.000Z</time>
      </trkpt>
      <trkpt lat="44.10814" lon="7.07389">
        <ele>1465.5999755859</ele>
        <time>2020-07-30T09:12:36.000Z</time>
      </trkpt>
      <trkpt lat="44.10815" lon="7.07386">
        <ele>1466.5999755859</ele>
        <time>2020-07-30T09:12:38.000Z</time>
      </trkpt>
      <trkpt lat="44.10816" lon="7.07381">
        <ele>1467.8000488281</ele>
        <time>2020-07-30T09:12:41.000Z</time>
      </trkpt>
      <trkpt lat="44.10817" lon="7.07378">
        <ele>1468.8000488281</ele>
        <time>2020-07-30T09:12:43.000Z</time>
      </trkpt>
      <trkpt lat="44.10818" lon="7.07376">
        <ele>1469.4000244141</ele>
        <time>2020-07-30T09:12:44.000Z</time>
      </trkpt>
      <trkpt lat="44.10819" lon="7.07374">
        <ele>1469.8000488281</ele>
        <time>2020-07-30T09:12:45.000Z</time>
      </trkpt>
      <trkpt lat="44.10819" lon="7.07372">
        <ele>1470.4000244141</ele>
        <time>2020-07-30T09:12:46.000Z</time>
      </trkpt>
      <trkpt lat="44.10821" lon="7.07368">
        <ele>1471</ele>
        <time>2020-07-30T09:12:48.000Z</time>
      </trkpt>
      <trkpt lat="44.10823" lon="7.07362">
        <ele>1472.1999511719</ele>
        <time>2020-07-30T09:12:51.000Z</time>
      </trkpt>
      <trkpt lat="44.10824" lon="7.07358">
        <ele>1472.5999755859</ele>
        <time>2020-07-30T09:12:53.000Z</time>
      </trkpt>
      <trkpt lat="44.10826" lon="7.07352">
        <ele>1473.4000244141</ele>
        <time>2020-07-30T09:12:56.000Z</time>
      </trkpt>
      <trkpt lat="44.10827" lon="7.07348">
        <ele>1474.1999511719</ele>
        <time>2020-07-30T09:12:58.000Z</time>
      </trkpt>
      <trkpt lat="44.10828" lon="7.07346">
        <ele>1474.5999755859</ele>
        <time>2020-07-30T09:12:59.000Z</time>
      </trkpt>
      <trkpt lat="44.10829" lon="7.0734">
        <ele>1475.5999755859</ele>
        <time>2020-07-30T09:13:02.000Z</time>
      </trkpt>
      <trkpt lat="44.1083" lon="7.07338">
        <ele>1476</ele>
        <time>2020-07-30T09:13:03.000Z</time>
      </trkpt>
      <trkpt lat="44.10831" lon="7.07334">
        <ele>1476.5999755859</ele>
        <time>2020-07-30T09:13:05.000Z</time>
      </trkpt>
      <trkpt lat="44.10833" lon="7.07326">
        <ele>1477.5999755859</ele>
        <time>2020-07-30T09:13:09.000Z</time>
      </trkpt>
      <trkpt lat="44.10835" lon="7.07319">
        <ele>1479</ele>
        <time>2020-07-30T09:13:13.000Z</time>
      </trkpt>
      <trkpt lat="44.10837" lon="7.07312">
        <ele>1479.8000488281</ele>
        <time>2020-07-30T09:13:16.000Z</time>
      </trkpt>
      <trkpt lat="44.10838" lon="7.0731">
        <ele>1480.1999511719</ele>
        <time>2020-07-30T09:13:17.000Z</time>
      </trkpt>
      <trkpt lat="44.10839" lon="7.07303">
        <ele>1481.1999511719</ele>
        <time>2020-07-30T09:13:20.000Z</time>
      </trkpt>
      <trkpt lat="44.1084" lon="7.073">
        <ele>1481.8000488281</ele>
        <time>2020-07-30T09:13:22.000Z</time>
      </trkpt>
      <trkpt lat="44.10841" lon="7.07295">
        <ele>1482.4000244141</ele>
        <time>2020-07-30T09:13:24.000Z</time>
      </trkpt>
      <trkpt lat="44.10843" lon="7.0729">
        <ele>1483.5999755859</ele>
        <time>2020-07-30T09:13:27.000Z</time>
      </trkpt>
      <trkpt lat="44.10847" lon="7.07279">
        <ele>1484.8000488281</ele>
        <time>2020-07-30T09:13:32.000Z</time>
      </trkpt>
      <trkpt lat="44.10849" lon="7.07275">
        <ele>1485.5999755859</ele>
        <time>2020-07-30T09:13:35.000Z</time>
      </trkpt>
      <trkpt lat="44.10849" lon="7.07273">
        <ele>1486</ele>
        <time>2020-07-30T09:13:36.000Z</time>
      </trkpt>
      <trkpt lat="44.10851" lon="7.07264">
        <ele>1487</ele>
        <time>2020-07-30T09:13:40.000Z</time>
      </trkpt>
      <trkpt lat="44.10853" lon="7.07256">
        <ele>1488.1999511719</ele>
        <time>2020-07-30T09:13:43.000Z</time>
      </trkpt>
      <trkpt lat="44.10854" lon="7.07252">
        <ele>1488.8000488281</ele>
        <time>2020-07-30T09:13:45.000Z</time>
      </trkpt>
      <trkpt lat="44.10854" lon="7.07249">
        <ele>1489.1999511719</ele>
        <time>2020-07-30T09:13:46.000Z</time>
      </trkpt>
      <trkpt lat="44.10855" lon="7.07246">
        <ele>1489.4000244141</ele>
        <time>2020-07-30T09:13:47.000Z</time>
      </trkpt>
      <trkpt lat="44.10856" lon="7.07241">
        <ele>1490.1999511719</ele>
        <time>2020-07-30T09:13:49.000Z</time>
      </trkpt>
      <trkpt lat="44.10857" lon="7.07238">
        <ele>1490.5999755859</ele>
        <time>2020-07-30T09:13:50.000Z</time>
      </trkpt>
      <trkpt lat="44.10858" lon="7.07235">
        <ele>1491.4000244141</ele>
        <time>2020-07-30T09:13:52.000Z</time>
      </trkpt>
      <trkpt lat="44.10859" lon="7.07233">
        <ele>1491.8000488281</ele>
        <time>2020-07-30T09:13:53.000Z</time>
      </trkpt>
      <trkpt lat="44.10861" lon="7.07226">
        <ele>1493.1999511719</ele>
        <time>2020-07-30T09:13:56.000Z</time>
      </trkpt>
      <trkpt lat="44.10863" lon="7.07221">
        <ele>1494</ele>
        <time>2020-07-30T09:13:58.000Z</time>
      </trkpt>
      <trkpt lat="44.10864" lon="7.07219">
        <ele>1494.1999511719</ele>
        <time>2020-07-30T09:13:59.000Z</time>
      </trkpt>
      <trkpt lat="44.10867" lon="7.07213">
        <ele>1495.1999511719</ele>
        <time>2020-07-30T09:14:02.000Z</time>
      </trkpt>
      <trkpt lat="44.1087" lon="7.07207">
        <ele>1496.1999511719</ele>
        <time>2020-07-30T09:14:05.000Z</time>
      </trkpt>
      <trkpt lat="44.10875" lon="7.07199">
        <ele>1497.5999755859</ele>
        <time>2020-07-30T09:14:09.000Z</time>
      </trkpt>
      <trkpt lat="44.10878" lon="7.07197">
        <ele>1498.1999511719</ele>
        <time>2020-07-30T09:14:11.000Z</time>
      </trkpt>
      <trkpt lat="44.10882" lon="7.07195">
        <ele>1498.8000488281</ele>
        <time>2020-07-30T09:14:13.000Z</time>
      </trkpt>
      <trkpt lat="44.10886" lon="7.07192">
        <ele>1499.4000244141</ele>
        <time>2020-07-30T09:14:16.000Z</time>
      </trkpt>
      <trkpt lat="44.10888" lon="7.07191">
        <ele>1499.5999755859</ele>
        <time>2020-07-30T09:14:17.000Z</time>
      </trkpt>
      <trkpt lat="44.10889" lon="7.0719">
        <ele>1500</ele>
        <time>2020-07-30T09:14:18.000Z</time>
      </trkpt>
      <trkpt lat="44.10892" lon="7.07186">
        <ele>1501</ele>
        <time>2020-07-30T09:14:22.000Z</time>
      </trkpt>
      <trkpt lat="44.10894" lon="7.07185">
        <ele>1501.4000244141</ele>
        <time>2020-07-30T09:14:28.000Z</time>
      </trkpt>
      <trkpt lat="44.10896" lon="7.07184">
        <ele>1501.5999755859</ele>
        <time>2020-07-30T09:14:34.000Z</time>
      </trkpt>
      <trkpt lat="44.10904" lon="7.07178">
        <ele>1502</ele>
        <time>2020-07-30T09:14:39.000Z</time>
      </trkpt>
      <trkpt lat="44.10906" lon="7.07176">
        <ele>1502.1999511719</ele>
        <time>2020-07-30T09:14:40.000Z</time>
      </trkpt>
      <trkpt lat="44.10909" lon="7.07173">
        <ele>1502.8000488281</ele>
        <time>2020-07-30T09:14:42.000Z</time>
      </trkpt>
      <trkpt lat="44.10911" lon="7.07173">
        <ele>1503.1999511719</ele>
        <time>2020-07-30T09:14:43.000Z</time>
      </trkpt>
      <trkpt lat="44.10912" lon="7.07172">
        <ele>1504.4000244141</ele>
        <time>2020-07-30T09:14:46.000Z</time>
      </trkpt>
      <trkpt lat="44.10912" lon="7.07171">
        <ele>1504.8000488281</ele>
        <time>2020-07-30T09:14:47.000Z</time>
      </trkpt>
      <trkpt lat="44.10912" lon="7.07171">
        <ele>1505.5999755859</ele>
        <time>2020-07-30T09:14:49.000Z</time>
      </trkpt>
      <trkpt lat="44.10917" lon="7.07167">
        <ele>1506</ele>
        <time>2020-07-30T09:14:53.000Z</time>
      </trkpt>
      <trkpt lat="44.10921" lon="7.0716">
        <ele>1506.8000488281</ele>
        <time>2020-07-30T09:14:58.000Z</time>
      </trkpt>
      <trkpt lat="44.10926" lon="7.07155">
        <ele>1508</ele>
        <time>2020-07-30T09:15:01.000Z</time>
      </trkpt>
      <trkpt lat="44.1093" lon="7.07151">
        <ele>1509</ele>
        <time>2020-07-30T09:15:04.000Z</time>
      </trkpt>
      <trkpt lat="44.10932" lon="7.07149">
        <ele>1510.1999511719</ele>
        <time>2020-07-30T09:15:06.000Z</time>
      </trkpt>
      <trkpt lat="44.10937" lon="7.07143">
        <ele>1511.1999511719</ele>
        <time>2020-07-30T09:15:09.000Z</time>
      </trkpt>
      <trkpt lat="44.10942" lon="7.07138">
        <ele>1512.1999511719</ele>
        <time>2020-07-30T09:15:13.000Z</time>
      </trkpt>
      <trkpt lat="44.10944" lon="7.07136">
        <ele>1512.5999755859</ele>
        <time>2020-07-30T09:15:14.000Z</time>
      </trkpt>
      <trkpt lat="44.10946" lon="7.07133">
        <ele>1513.1999511719</ele>
        <time>2020-07-30T09:15:16.000Z</time>
      </trkpt>
      <trkpt lat="44.10949" lon="7.07131">
        <ele>1514.1999511719</ele>
        <time>2020-07-30T09:15:18.000Z</time>
      </trkpt>
      <trkpt lat="44.1095" lon="7.07131">
        <ele>1514.4000244141</ele>
        <time>2020-07-30T09:15:19.000Z</time>
      </trkpt>
      <trkpt lat="44.10951" lon="7.07129">
        <ele>1515</ele>
        <time>2020-07-30T09:15:20.000Z</time>
      </trkpt>
      <trkpt lat="44.10954" lon="7.07126">
        <ele>1515.5999755859</ele>
        <time>2020-07-30T09:15:22.000Z</time>
      </trkpt>
      <trkpt lat="44.10956" lon="7.07123">
        <ele>1516.5999755859</ele>
        <time>2020-07-30T09:15:24.000Z</time>
      </trkpt>
      <trkpt lat="44.10957" lon="7.07122">
        <ele>1516.8000488281</ele>
        <time>2020-07-30T09:15:25.000Z</time>
      </trkpt>
      <trkpt lat="44.1096" lon="7.07119">
        <ele>1517.8000488281</ele>
        <time>2020-07-30T09:15:27.000Z</time>
      </trkpt>
      <trkpt lat="44.10961" lon="7.07119">
        <ele>1518.1999511719</ele>
        <time>2020-07-30T09:15:28.000Z</time>
      </trkpt>
      <trkpt lat="44.10964" lon="7.07117">
        <ele>1518.8000488281</ele>
        <time>2020-07-30T09:15:30.000Z</time>
      </trkpt>
      <trkpt lat="44.10965" lon="7.07115">
        <ele>1519.1999511719</ele>
        <time>2020-07-30T09:15:31.000Z</time>
      </trkpt>
      <trkpt lat="44.1097" lon="7.07113">
        <ele>1520.4000244141</ele>
        <time>2020-07-30T09:15:34.000Z</time>
      </trkpt>
      <trkpt lat="44.10972" lon="7.07112">
        <ele>1520.8000488281</ele>
        <time>2020-07-30T09:15:35.000Z</time>
      </trkpt>
      <trkpt lat="44.10973" lon="7.07111">
        <ele>1521</ele>
        <time>2020-07-30T09:15:36.000Z</time>
      </trkpt>
      <trkpt lat="44.10976" lon="7.07109">
        <ele>1521.5999755859</ele>
        <time>2020-07-30T09:15:38.000Z</time>
      </trkpt>
      <trkpt lat="44.10983" lon="7.07103">
        <ele>1522.8000488281</ele>
        <time>2020-07-30T09:15:42.000Z</time>
      </trkpt>
      <trkpt lat="44.10987" lon="7.071">
        <ele>1524.1999511719</ele>
        <time>2020-07-30T09:15:45.000Z</time>
      </trkpt>
      <trkpt lat="44.10991" lon="7.07094">
        <ele>1525.1999511719</ele>
        <time>2020-07-30T09:15:48.000Z</time>
      </trkpt>
      <trkpt lat="44.10997" lon="7.0709">
        <ele>1526.1999511719</ele>
        <time>2020-07-30T09:15:52.000Z</time>
      </trkpt>
      <trkpt lat="44.10999" lon="7.07087">
        <ele>1526.8000488281</ele>
        <time>2020-07-30T09:15:54.000Z</time>
      </trkpt>
      <trkpt lat="44.10997" lon="7.07083">
        <ele>1527.4000244141</ele>
        <time>2020-07-30T09:15:57.000Z</time>
      </trkpt>
      <trkpt lat="44.10996" lon="7.07083">
        <ele>1527.8000488281</ele>
        <time>2020-07-30T09:15:58.000Z</time>
      </trkpt>
      <trkpt lat="44.10994" lon="7.07082">
        <ele>1528.1999511719</ele>
        <time>2020-07-30T09:15:59.000Z</time>
      </trkpt>
      <trkpt lat="44.10992" lon="7.07081">
        <ele>1528.5999755859</ele>
        <time>2020-07-30T09:16:00.000Z</time>
      </trkpt>
      <trkpt lat="44.1099" lon="7.07078">
        <ele>1529.4000244141</ele>
        <time>2020-07-30T09:16:02.000Z</time>
      </trkpt>
      <trkpt lat="44.1099" lon="7.07075">
        <ele>1529.5999755859</ele>
        <time>2020-07-30T09:16:03.000Z</time>
      </trkpt>
      <trkpt lat="44.1099" lon="7.07073">
        <ele>1529.8000488281</ele>
        <time>2020-07-30T09:16:04.000Z</time>
      </trkpt>
      <trkpt lat="44.1099" lon="7.07069">
        <ele>1530.4000244141</ele>
        <time>2020-07-30T09:16:06.000Z</time>
      </trkpt>
      <trkpt lat="44.1099" lon="7.07067">
        <ele>1530.5999755859</ele>
        <time>2020-07-30T09:16:07.000Z</time>
      </trkpt>
      <trkpt lat="44.10991" lon="7.07065">
        <ele>1530.8000488281</ele>
        <time>2020-07-30T09:16:08.000Z</time>
      </trkpt>
      <trkpt lat="44.10994" lon="7.07058">
        <ele>1531.8000488281</ele>
        <time>2020-07-30T09:16:12.000Z</time>
      </trkpt>
      <trkpt lat="44.10994" lon="7.07055">
        <ele>1532.4000244141</ele>
        <time>2020-07-30T09:16:14.000Z</time>
      </trkpt>
      <trkpt lat="44.10992" lon="7.07051">
        <ele>1533</ele>
        <time>2020-07-30T09:16:16.000Z</time>
      </trkpt>
      <trkpt lat="44.1099" lon="7.07048">
        <ele>1533.5999755859</ele>
        <time>2020-07-30T09:16:18.000Z</time>
      </trkpt>
      <trkpt lat="44.10988" lon="7.07043">
        <ele>1534.4000244141</ele>
        <time>2020-07-30T09:16:20.000Z</time>
      </trkpt>
      <trkpt lat="44.10989" lon="7.07033">
        <ele>1535.5999755859</ele>
        <time>2020-07-30T09:16:24.000Z</time>
      </trkpt>
      <trkpt lat="44.10991" lon="7.07026">
        <ele>1536.8000488281</ele>
        <time>2020-07-30T09:16:28.000Z</time>
      </trkpt>
      <trkpt lat="44.10991" lon="7.07024">
        <ele>1537.1999511719</ele>
        <time>2020-07-30T09:16:29.000Z</time>
      </trkpt>
      <trkpt lat="44.1099" lon="7.07019">
        <ele>1538</ele>
        <time>2020-07-30T09:16:32.000Z</time>
      </trkpt>
      <trkpt lat="44.10991" lon="7.07015">
        <ele>1538.8000488281</ele>
        <time>2020-07-30T09:16:35.000Z</time>
      </trkpt>
      <trkpt lat="44.10991" lon="7.07013">
        <ele>1539</ele>
        <time>2020-07-30T09:16:36.000Z</time>
      </trkpt>
      <trkpt lat="44.10992" lon="7.07004">
        <ele>1540</ele>
        <time>2020-07-30T09:16:41.000Z</time>
      </trkpt>
      <trkpt lat="44.10992" lon="7.06995">
        <ele>1541</ele>
        <time>2020-07-30T09:16:47.000Z</time>
      </trkpt>
      <trkpt lat="44.10992" lon="7.06993">
        <ele>1541.1999511719</ele>
        <time>2020-07-30T09:16:48.000Z</time>
      </trkpt>
      <trkpt lat="44.10992" lon="7.06984">
        <ele>1542.4000244141</ele>
        <time>2020-07-30T09:16:52.000Z</time>
      </trkpt>
      <trkpt lat="44.10991" lon="7.06979">
        <ele>1543</ele>
        <time>2020-07-30T09:16:54.000Z</time>
      </trkpt>
      <trkpt lat="44.1099" lon="7.06975">
        <ele>1543.5999755859</ele>
        <time>2020-07-30T09:16:56.000Z</time>
      </trkpt>
      <trkpt lat="44.10987" lon="7.06969">
        <ele>1544.1999511719</ele>
        <time>2020-07-30T09:16:59.000Z</time>
      </trkpt>
      <trkpt lat="44.10985" lon="7.06964">
        <ele>1544.5999755859</ele>
        <time>2020-07-30T09:17:01.000Z</time>
      </trkpt>
      <trkpt lat="44.10982" lon="7.06956">
        <ele>1545.8000488281</ele>
        <time>2020-07-30T09:17:04.000Z</time>
      </trkpt>
      <trkpt lat="44.10982" lon="7.06952">
        <ele>1546.5999755859</ele>
        <time>2020-07-30T09:17:06.000Z</time>
      </trkpt>
      <trkpt lat="44.10981" lon="7.0695">
        <ele>1547</ele>
        <time>2020-07-30T09:17:07.000Z</time>
      </trkpt>
      <trkpt lat="44.1098" lon="7.06946">
        <ele>1548</ele>
        <time>2020-07-30T09:17:09.000Z</time>
      </trkpt>
      <trkpt lat="44.10979" lon="7.0694">
        <ele>1549.1999511719</ele>
        <time>2020-07-30T09:17:12.000Z</time>
      </trkpt>
      <trkpt lat="44.10978" lon="7.06938">
        <ele>1549.5999755859</ele>
        <time>2020-07-30T09:17:13.000Z</time>
      </trkpt>
      <trkpt lat="44.10976" lon="7.06934">
        <ele>1550.1999511719</ele>
        <time>2020-07-30T09:17:15.000Z</time>
      </trkpt>
      <trkpt lat="44.10975" lon="7.06927">
        <ele>1551.1999511719</ele>
        <time>2020-07-30T09:17:18.000Z</time>
      </trkpt>
      <trkpt lat="44.10975" lon="7.06928">
        <ele>1551.4000244141</ele>
        <time>2020-07-30T09:17:19.000Z</time>
      </trkpt>
      <trkpt lat="44.10975" lon="7.06925">
        <ele>1552.1999511719</ele>
        <time>2020-07-30T09:17:22.000Z</time>
      </trkpt>
      <trkpt lat="44.10975" lon="7.06925">
        <ele>1552.4000244141</ele>
        <time>2020-07-30T09:17:23.000Z</time>
      </trkpt>
      <trkpt lat="44.10975" lon="7.06923">
        <ele>1552.8000488281</ele>
        <time>2020-07-30T09:17:26.000Z</time>
      </trkpt>
      <trkpt lat="44.10974" lon="7.06921">
        <ele>1553</ele>
        <time>2020-07-30T09:17:33.000Z</time>
      </trkpt>
      <trkpt lat="44.10973" lon="7.06918">
        <ele>1553.5999755859</ele>
        <time>2020-07-30T09:17:38.000Z</time>
      </trkpt>
      <trkpt lat="44.10973" lon="7.06916">
        <ele>1553.5999755859</ele>
        <time>2020-07-30T09:17:40.000Z</time>
      </trkpt>
      <trkpt lat="44.10974" lon="7.06916">
        <ele>1553.8000488281</ele>
        <time>2020-07-30T09:17:45.000Z</time>
      </trkpt>
      <trkpt lat="44.10974" lon="7.06914">
        <ele>1553.5999755859</ele>
        <time>2020-07-30T09:17:48.000Z</time>
      </trkpt>
      <trkpt lat="44.10974" lon="7.06914">
        <ele>1553.5999755859</ele>
        <time>2020-07-30T09:17:49.000Z</time>
      </trkpt>
      <trkpt lat="44.10974" lon="7.06914">
        <ele>1554</ele>
        <time>2020-07-30T09:17:56.000Z</time>
      </trkpt>
      <trkpt lat="44.10973" lon="7.06905">
        <ele>1554</ele>
        <time>2020-07-30T09:18:01.000Z</time>
      </trkpt>
      <trkpt lat="44.10972" lon="7.06898">
        <ele>1554.5999755859</ele>
        <time>2020-07-30T09:18:04.000Z</time>
      </trkpt>
      <trkpt lat="44.10972" lon="7.06897">
        <ele>1555</ele>
        <time>2020-07-30T09:18:05.000Z</time>
      </trkpt>
      <trkpt lat="44.1097" lon="7.06893">
        <ele>1555.8000488281</ele>
        <time>2020-07-30T09:18:07.000Z</time>
      </trkpt>
      <trkpt lat="44.10968" lon="7.06886">
        <ele>1556.8000488281</ele>
        <time>2020-07-30T09:18:10.000Z</time>
      </trkpt>
      <trkpt lat="44.10966" lon="7.0688">
        <ele>1557.5999755859</ele>
        <time>2020-07-30T09:18:13.000Z</time>
      </trkpt>
      <trkpt lat="44.10966" lon="7.06878">
        <ele>1557.8000488281</ele>
        <time>2020-07-30T09:18:14.000Z</time>
      </trkpt>
      <trkpt lat="44.10964" lon="7.0687">
        <ele>1559</ele>
        <time>2020-07-30T09:18:18.000Z</time>
      </trkpt>
      <trkpt lat="44.10963" lon="7.06867">
        <ele>1559.1999511719</ele>
        <time>2020-07-30T09:18:19.000Z</time>
      </trkpt>
      <trkpt lat="44.10961" lon="7.06863">
        <ele>1560</ele>
        <time>2020-07-30T09:18:21.000Z</time>
      </trkpt>
      <trkpt lat="44.1096" lon="7.06859">
        <ele>1560.5999755859</ele>
        <time>2020-07-30T09:18:23.000Z</time>
      </trkpt>
      <trkpt lat="44.10959" lon="7.06855">
        <ele>1561.1999511719</ele>
        <time>2020-07-30T09:18:25.000Z</time>
      </trkpt>
      <trkpt lat="44.10959" lon="7.06848">
        <ele>1562.1999511719</ele>
        <time>2020-07-30T09:18:28.000Z</time>
      </trkpt>
      <trkpt lat="44.10958" lon="7.06847">
        <ele>1562.8000488281</ele>
        <time>2020-07-30T09:18:29.000Z</time>
      </trkpt>
      <trkpt lat="44.10957" lon="7.06843">
        <ele>1563.4000244141</ele>
        <time>2020-07-30T09:18:31.000Z</time>
      </trkpt>
      <trkpt lat="44.10955" lon="7.06836">
        <ele>1564.4000244141</ele>
        <time>2020-07-30T09:18:34.000Z</time>
      </trkpt>
      <trkpt lat="44.10954" lon="7.06833">
        <ele>1564.8000488281</ele>
        <time>2020-07-30T09:18:35.000Z</time>
      </trkpt>
      <trkpt lat="44.10954" lon="7.06827">
        <ele>1566</ele>
        <time>2020-07-30T09:18:38.000Z</time>
      </trkpt>
      <trkpt lat="44.10953" lon="7.06823">
        <ele>1566.5999755859</ele>
        <time>2020-07-30T09:18:40.000Z</time>
      </trkpt>
      <trkpt lat="44.10953" lon="7.06819">
        <ele>1567.5999755859</ele>
        <time>2020-07-30T09:18:42.000Z</time>
      </trkpt>
      <trkpt lat="44.10953" lon="7.06812">
        <ele>1568.8000488281</ele>
        <time>2020-07-30T09:18:45.000Z</time>
      </trkpt>
      <trkpt lat="44.10952" lon="7.06807">
        <ele>1569.4000244141</ele>
        <time>2020-07-30T09:18:47.000Z</time>
      </trkpt>
      <trkpt lat="44.10951" lon="7.06803">
        <ele>1570</ele>
        <time>2020-07-30T09:18:49.000Z</time>
      </trkpt>
      <trkpt lat="44.1095" lon="7.06798">
        <ele>1571.1999511719</ele>
        <time>2020-07-30T09:18:51.000Z</time>
      </trkpt>
      <trkpt lat="44.1095" lon="7.06794">
        <ele>1572.1999511719</ele>
        <time>2020-07-30T09:18:53.000Z</time>
      </trkpt>
      <trkpt lat="44.1095" lon="7.0679">
        <ele>1573.1999511719</ele>
        <time>2020-07-30T09:18:55.000Z</time>
      </trkpt>
      <trkpt lat="44.1095" lon="7.06784">
        <ele>1574.4000244141</ele>
        <time>2020-07-30T09:18:58.000Z</time>
      </trkpt>
      <trkpt lat="44.10947" lon="7.06779">
        <ele>1575.4000244141</ele>
        <time>2020-07-30T09:19:01.000Z</time>
      </trkpt>
      <trkpt lat="44.10947" lon="7.06777">
        <ele>1575.8000488281</ele>
        <time>2020-07-30T09:19:02.000Z</time>
      </trkpt>
      <trkpt lat="44.10946" lon="7.06772">
        <ele>1576.5999755859</ele>
        <time>2020-07-30T09:19:04.000Z</time>
      </trkpt>
      <trkpt lat="44.10945" lon="7.06765">
        <ele>1577.5999755859</ele>
        <time>2020-07-30T09:19:07.000Z</time>
      </trkpt>
      <trkpt lat="44.10946" lon="7.06759">
        <ele>1578.8000488281</ele>
        <time>2020-07-30T09:19:10.000Z</time>
      </trkpt>
      <trkpt lat="44.10945" lon="7.06754">
        <ele>1580.1999511719</ele>
        <time>2020-07-30T09:19:13.000Z</time>
      </trkpt>
      <trkpt lat="44.10945" lon="7.06749">
        <ele>1581.4000244141</ele>
        <time>2020-07-30T09:19:16.000Z</time>
      </trkpt>
      <trkpt lat="44.10944" lon="7.06748">
        <ele>1581.5999755859</ele>
        <time>2020-07-30T09:19:17.000Z</time>
      </trkpt>
      <trkpt lat="44.10943" lon="7.06746">
        <ele>1582</ele>
        <time>2020-07-30T09:19:18.000Z</time>
      </trkpt>
      <trkpt lat="44.10943" lon="7.06744">
        <ele>1582.4000244141</ele>
        <time>2020-07-30T09:19:19.000Z</time>
      </trkpt>
      <trkpt lat="44.10943" lon="7.06739">
        <ele>1583.1999511719</ele>
        <time>2020-07-30T09:19:21.000Z</time>
      </trkpt>
      <trkpt lat="44.10943" lon="7.06736">
        <ele>1583.5999755859</ele>
        <time>2020-07-30T09:19:22.000Z</time>
      </trkpt>
      <trkpt lat="44.10945" lon="7.0673">
        <ele>1585</ele>
        <time>2020-07-30T09:19:25.000Z</time>
      </trkpt>
      <trkpt lat="44.10946" lon="7.06725">
        <ele>1586</ele>
        <time>2020-07-30T09:19:27.000Z</time>
      </trkpt>
      <trkpt lat="44.10947" lon="7.06721">
        <ele>1587</ele>
        <time>2020-07-30T09:19:29.000Z</time>
      </trkpt>
      <trkpt lat="44.10947" lon="7.06716">
        <ele>1588</ele>
        <time>2020-07-30T09:19:31.000Z</time>
      </trkpt>
      <trkpt lat="44.10949" lon="7.06712">
        <ele>1589.1999511719</ele>
        <time>2020-07-30T09:19:33.000Z</time>
      </trkpt>
      <trkpt lat="44.1095" lon="7.06708">
        <ele>1590.1999511719</ele>
        <time>2020-07-30T09:19:35.000Z</time>
      </trkpt>
      <trkpt lat="44.10952" lon="7.06702">
        <ele>1591.5999755859</ele>
        <time>2020-07-30T09:19:38.000Z</time>
      </trkpt>
      <trkpt lat="44.10952" lon="7.06698">
        <ele>1592.4000244141</ele>
        <time>2020-07-30T09:19:40.000Z</time>
      </trkpt>
      <trkpt lat="44.10952" lon="7.06697">
        <ele>1593</ele>
        <time>2020-07-30T09:19:41.000Z</time>
      </trkpt>
      <trkpt lat="44.10951" lon="7.06695">
        <ele>1593.4000244141</ele>
        <time>2020-07-30T09:19:42.000Z</time>
      </trkpt>
      <trkpt lat="44.10951" lon="7.06693">
        <ele>1594</ele>
        <time>2020-07-30T09:19:44.000Z</time>
      </trkpt>
      <trkpt lat="44.10951" lon="7.06693">
        <ele>1594.4000244141</ele>
        <time>2020-07-30T09:19:45.000Z</time>
      </trkpt>
      <trkpt lat="44.10951" lon="7.06692">
        <ele>1595.4000244141</ele>
        <time>2020-07-30T09:19:49.000Z</time>
      </trkpt>
      <trkpt lat="44.1095" lon="7.06691">
        <ele>1595.5999755859</ele>
        <time>2020-07-30T09:19:57.000Z</time>
      </trkpt>
      <trkpt lat="44.1095" lon="7.06688">
        <ele>1595.5999755859</ele>
        <time>2020-07-30T09:20:04.000Z</time>
      </trkpt>
      <trkpt lat="44.1095" lon="7.06686">
        <ele>1595.5999755859</ele>
        <time>2020-07-30T09:20:05.000Z</time>
      </trkpt>
      <trkpt lat="44.10949" lon="7.06683">
        <ele>1596</ele>
        <time>2020-07-30T09:20:07.000Z</time>
      </trkpt>
      <trkpt lat="44.10948" lon="7.06678">
        <ele>1596.5999755859</ele>
        <time>2020-07-30T09:20:10.000Z</time>
      </trkpt>
      <trkpt lat="44.10948" lon="7.06676">
        <ele>1597</ele>
        <time>2020-07-30T09:20:11.000Z</time>
      </trkpt>
      <trkpt lat="44.10948" lon="7.06673">
        <ele>1598</ele>
        <time>2020-07-30T09:20:13.000Z</time>
      </trkpt>
      <trkpt lat="44.10948" lon="7.06669">
        <ele>1598.8000488281</ele>
        <time>2020-07-30T09:20:15.000Z</time>
      </trkpt>
      <trkpt lat="44.10949" lon="7.06667">
        <ele>1599.1999511719</ele>
        <time>2020-07-30T09:20:16.000Z</time>
      </trkpt>
      <trkpt lat="44.10949" lon="7.06661">
        <ele>1600.1999511719</ele>
        <time>2020-07-30T09:20:19.000Z</time>
      </trkpt>
      <trkpt lat="44.1095" lon="7.06658">
        <ele>1601.5999755859</ele>
        <time>2020-07-30T09:20:22.000Z</time>
      </trkpt>
      <trkpt lat="44.10949" lon="7.06658">
        <ele>1601.8000488281</ele>
        <time>2020-07-30T09:20:23.000Z</time>
      </trkpt>
      <trkpt lat="44.10949" lon="7.06657">
        <ele>1602.5999755859</ele>
        <time>2020-07-30T09:20:26.000Z</time>
      </trkpt>
      <trkpt lat="44.10949" lon="7.06655">
        <ele>1602.5999755859</ele>
        <time>2020-07-30T09:20:30.000Z</time>
      </trkpt>
      <trkpt lat="44.1095" lon="7.06652">
        <ele>1603</ele>
        <time>2020-07-30T09:20:36.000Z</time>
      </trkpt>
      <trkpt lat="44.1095" lon="7.06651">
        <ele>1603.5999755859</ele>
        <time>2020-07-30T09:20:40.000Z</time>
      </trkpt>
      <trkpt lat="44.1095" lon="7.0665">
        <ele>1603.8000488281</ele>
        <time>2020-07-30T09:20:41.000Z</time>
      </trkpt>
      <trkpt lat="44.10951" lon="7.0664">
        <ele>1604.8000488281</ele>
        <time>2020-07-30T09:20:46.000Z</time>
      </trkpt>
      <trkpt lat="44.10951" lon="7.06634">
        <ele>1606</ele>
        <time>2020-07-30T09:20:49.000Z</time>
      </trkpt>
      <trkpt lat="44.10951" lon="7.06626">
        <ele>1607</ele>
        <time>2020-07-30T09:20:52.000Z</time>
      </trkpt>
      <trkpt lat="44.1095" lon="7.06616">
        <ele>1608.1999511719</ele>
        <time>2020-07-30T09:20:56.000Z</time>
      </trkpt>
      <trkpt lat="44.10949" lon="7.06611">
        <ele>1609.1999511719</ele>
        <time>2020-07-30T09:20:58.000Z</time>
      </trkpt>
      <trkpt lat="44.10948" lon="7.0661">
        <ele>1609.8000488281</ele>
        <time>2020-07-30T09:20:59.000Z</time>
      </trkpt>
      <trkpt lat="44.10947" lon="7.06606">
        <ele>1611</ele>
        <time>2020-07-30T09:21:01.000Z</time>
      </trkpt>
      <trkpt lat="44.10947" lon="7.06602">
        <ele>1612.1999511719</ele>
        <time>2020-07-30T09:21:03.000Z</time>
      </trkpt>
      <trkpt lat="44.10947" lon="7.06597">
        <ele>1613</ele>
        <time>2020-07-30T09:21:05.000Z</time>
      </trkpt>
      <trkpt lat="44.10947" lon="7.06595">
        <ele>1613.1999511719</ele>
        <time>2020-07-30T09:21:06.000Z</time>
      </trkpt>
      <trkpt lat="44.10947" lon="7.06591">
        <ele>1613.8000488281</ele>
        <time>2020-07-30T09:21:08.000Z</time>
      </trkpt>
      <trkpt lat="44.10946" lon="7.06588">
        <ele>1614.1999511719</ele>
        <time>2020-07-30T09:21:10.000Z</time>
      </trkpt>
      <trkpt lat="44.10946" lon="7.06586">
        <ele>1614.4000244141</ele>
        <time>2020-07-30T09:21:11.000Z</time>
      </trkpt>
      <trkpt lat="44.10944" lon="7.0658">
        <ele>1615.5999755859</ele>
        <time>2020-07-30T09:21:14.000Z</time>
      </trkpt>
      <trkpt lat="44.10943" lon="7.06576">
        <ele>1616</ele>
        <time>2020-07-30T09:21:16.000Z</time>
      </trkpt>
      <trkpt lat="44.10938" lon="7.06567">
        <ele>1616.5999755859</ele>
        <time>2020-07-30T09:21:22.000Z</time>
      </trkpt>
      <trkpt lat="44.10928" lon="7.06555">
        <ele>1617.4000244141</ele>
        <time>2020-07-30T09:21:29.000Z</time>
      </trkpt>
      <trkpt lat="44.10915" lon="7.06543">
        <ele>1617.4000244141</ele>
        <time>2020-07-30T09:21:36.000Z</time>
      </trkpt>
      <trkpt lat="44.10901" lon="7.06533">
        <ele>1617.5999755859</ele>
        <time>2020-07-30T09:21:43.000Z</time>
      </trkpt>
      <trkpt lat="44.10899" lon="7.06531">
        <ele>1617.8000488281</ele>
        <time>2020-07-30T09:21:44.000Z</time>
      </trkpt>
      <trkpt lat="44.10887" lon="7.06523">
        <ele>1618</ele>
        <time>2020-07-30T09:21:49.000Z</time>
      </trkpt>
      <trkpt lat="44.10876" lon="7.06512">
        <ele>1619</ele>
        <time>2020-07-30T09:21:55.000Z</time>
      </trkpt>
      <trkpt lat="44.10874" lon="7.0651">
        <ele>1619.1999511719</ele>
        <time>2020-07-30T09:21:56.000Z</time>
      </trkpt>
      <trkpt lat="44.10866" lon="7.06498">
        <ele>1620</ele>
        <time>2020-07-30T09:22:01.000Z</time>
      </trkpt>
      <trkpt lat="44.10862" lon="7.06495">
        <ele>1620.1999511719</ele>
        <time>2020-07-30T09:22:03.000Z</time>
      </trkpt>
      <trkpt lat="44.10856" lon="7.06488">
        <ele>1621.1999511719</ele>
        <time>2020-07-30T09:22:07.000Z</time>
      </trkpt>
      <trkpt lat="44.10855" lon="7.06486">
        <ele>1621.1999511719</ele>
        <time>2020-07-30T09:22:08.000Z</time>
      </trkpt>
      <trkpt lat="44.10855" lon="7.06478">
        <ele>1621.5999755859</ele>
        <time>2020-07-30T09:22:11.000Z</time>
      </trkpt>
      <trkpt lat="44.10857" lon="7.06473">
        <ele>1622</ele>
        <time>2020-07-30T09:22:13.000Z</time>
      </trkpt>
      <trkpt lat="44.10857" lon="7.06471">
        <ele>1622.1999511719</ele>
        <time>2020-07-30T09:22:14.000Z</time>
      </trkpt>
      <trkpt lat="44.10856" lon="7.06466">
        <ele>1622.4000244141</ele>
        <time>2020-07-30T09:22:16.000Z</time>
      </trkpt>
      <trkpt lat="44.10856" lon="7.06462">
        <ele>1622.5999755859</ele>
        <time>2020-07-30T09:22:18.000Z</time>
      </trkpt>
      <trkpt lat="44.10854" lon="7.06458">
        <ele>1623.4000244141</ele>
        <time>2020-07-30T09:22:21.000Z</time>
      </trkpt>
      <trkpt lat="44.10854" lon="7.06458">
        <ele>1623.8000488281</ele>
        <time>2020-07-30T09:22:23.000Z</time>
      </trkpt>
      <trkpt lat="44.10853" lon="7.06457">
        <ele>1624.1999511719</ele>
        <time>2020-07-30T09:22:43.000Z</time>
      </trkpt>
      <trkpt lat="44.10853" lon="7.06457">
        <ele>1624.1999511719</ele>
        <time>2020-07-30T09:23:10.000Z</time>
      </trkpt>
      <trkpt lat="44.10853" lon="7.06458">
        <ele>1624.4000244141</ele>
        <time>2020-07-30T09:23:14.000Z</time>
      </trkpt>
      <trkpt lat="44.10853" lon="7.06458">
        <ele>1624.4000244141</ele>
        <time>2020-07-30T09:23:20.000Z</time>
      </trkpt>
      <trkpt lat="44.10852" lon="7.06457">
        <ele>1624.4000244141</ele>
        <time>2020-07-30T09:23:35.000Z</time>
      </trkpt>
      <trkpt lat="44.10849" lon="7.06456">
        <ele>1624</ele>
        <time>2020-07-30T09:23:47.000Z</time>
      </trkpt>
      <trkpt lat="44.1084" lon="7.06462">
        <ele>1624.1999511719</ele>
        <time>2020-07-30T09:23:51.000Z</time>
      </trkpt>
      <trkpt lat="44.10835" lon="7.06465">
        <ele>1624.1999511719</ele>
        <time>2020-07-30T09:23:54.000Z</time>
      </trkpt>
      <trkpt lat="44.10827" lon="7.06468">
        <ele>1624.4000244141</ele>
        <time>2020-07-30T09:23:58.000Z</time>
      </trkpt>
      <trkpt lat="44.10819" lon="7.06475">
        <ele>1624.5999755859</ele>
        <time>2020-07-30T09:24:02.000Z</time>
      </trkpt>
      <trkpt lat="44.10816" lon="7.06482">
        <ele>1624.5999755859</ele>
        <time>2020-07-30T09:24:05.000Z</time>
      </trkpt>
      <trkpt lat="44.10815" lon="7.06487">
        <ele>1624.5999755859</ele>
        <time>2020-07-30T09:24:07.000Z</time>
      </trkpt>
      <trkpt lat="44.10816" lon="7.06496">
        <ele>1625.1999511719</ele>
        <time>2020-07-30T09:24:11.000Z</time>
      </trkpt>
      <trkpt lat="44.10819" lon="7.065">
        <ele>1625.4000244141</ele>
        <time>2020-07-30T09:24:13.000Z</time>
      </trkpt>
      <trkpt lat="44.1082" lon="7.06501">
        <ele>1625.4000244141</ele>
        <time>2020-07-30T09:24:14.000Z</time>
      </trkpt>
      <trkpt lat="44.10825" lon="7.06506">
        <ele>1625.8000488281</ele>
        <time>2020-07-30T09:24:18.000Z</time>
      </trkpt>
      <trkpt lat="44.10828" lon="7.06508">
        <ele>1626</ele>
        <time>2020-07-30T09:24:20.000Z</time>
      </trkpt>
      <trkpt lat="44.10841" lon="7.06519">
        <ele>1626</ele>
        <time>2020-07-30T09:24:27.000Z</time>
      </trkpt>
      <trkpt lat="44.10849" lon="7.06531">
        <ele>1625.8000488281</ele>
        <time>2020-07-30T09:24:32.000Z</time>
      </trkpt>
      <trkpt lat="44.10856" lon="7.06542">
        <ele>1625.5999755859</ele>
        <time>2020-07-30T09:24:37.000Z</time>
      </trkpt>
      <trkpt lat="44.10867" lon="7.0656">
        <ele>1625.5999755859</ele>
        <time>2020-07-30T09:24:45.000Z</time>
      </trkpt>
      <trkpt lat="44.1087" lon="7.06577">
        <ele>1625.4000244141</ele>
        <time>2020-07-30T09:24:50.000Z</time>
      </trkpt>
      <trkpt lat="44.10864" lon="7.06597">
        <ele>1625.4000244141</ele>
        <time>2020-07-30T09:24:56.000Z</time>
      </trkpt>
      <trkpt lat="44.10854" lon="7.06616">
        <ele>1624.8000488281</ele>
        <time>2020-07-30T09:25:01.000Z</time>
      </trkpt>
      <trkpt lat="44.1085" lon="7.06625">
        <ele>1624.4000244141</ele>
        <time>2020-07-30T09:25:03.000Z</time>
      </trkpt>
      <trkpt lat="44.1084" lon="7.06645">
        <ele>1623.5999755859</ele>
        <time>2020-07-30T09:25:08.000Z</time>
      </trkpt>
      <trkpt lat="44.10837" lon="7.06653">
        <ele>1623.1999511719</ele>
        <time>2020-07-30T09:25:10.000Z</time>
      </trkpt>
      <trkpt lat="44.10828" lon="7.0667">
        <ele>1622.5999755859</ele>
        <time>2020-07-30T09:25:15.000Z</time>
      </trkpt>
      <trkpt lat="44.10822" lon="7.06682">
        <ele>1622</ele>
        <time>2020-07-30T09:25:18.000Z</time>
      </trkpt>
      <trkpt lat="44.10817" lon="7.06695">
        <ele>1621.5999755859</ele>
        <time>2020-07-30T09:25:21.000Z</time>
      </trkpt>
      <trkpt lat="44.10808" lon="7.06711">
        <ele>1621</ele>
        <time>2020-07-30T09:25:25.000Z</time>
      </trkpt>
      <trkpt lat="44.10806" lon="7.06716">
        <ele>1621</ele>
        <time>2020-07-30T09:25:26.000Z</time>
      </trkpt>
      <trkpt lat="44.10802" lon="7.06726">
        <ele>1620.8000488281</ele>
        <time>2020-07-30T09:25:28.000Z</time>
      </trkpt>
      <trkpt lat="44.108" lon="7.0673">
        <ele>1620.5999755859</ele>
        <time>2020-07-30T09:25:29.000Z</time>
      </trkpt>
      <trkpt lat="44.10795" lon="7.06739">
        <ele>1620</ele>
        <time>2020-07-30T09:25:31.000Z</time>
      </trkpt>
      <trkpt lat="44.10787" lon="7.06751">
        <ele>1618.8000488281</ele>
        <time>2020-07-30T09:25:34.000Z</time>
      </trkpt>
      <trkpt lat="44.10784" lon="7.06755">
        <ele>1618.5999755859</ele>
        <time>2020-07-30T09:25:35.000Z</time>
      </trkpt>
      <trkpt lat="44.10777" lon="7.06765">
        <ele>1617.5999755859</ele>
        <time>2020-07-30T09:25:38.000Z</time>
      </trkpt>
      <trkpt lat="44.10773" lon="7.06775">
        <ele>1617</ele>
        <time>2020-07-30T09:25:40.000Z</time>
      </trkpt>
      <trkpt lat="44.10769" lon="7.06783">
        <ele>1616.5999755859</ele>
        <time>2020-07-30T09:25:42.000Z</time>
      </trkpt>
      <trkpt lat="44.10755" lon="7.06814">
        <ele>1615.4000244141</ele>
        <time>2020-07-30T09:25:49.000Z</time>
      </trkpt>
      <trkpt lat="44.10745" lon="7.06833">
        <ele>1614.1999511719</ele>
        <time>2020-07-30T09:25:54.000Z</time>
      </trkpt>
      <trkpt lat="44.10743" lon="7.06837">
        <ele>1613.8000488281</ele>
        <time>2020-07-30T09:25:55.000Z</time>
      </trkpt>
      <trkpt lat="44.10737" lon="7.06849">
        <ele>1613</ele>
        <time>2020-07-30T09:25:58.000Z</time>
      </trkpt>
      <trkpt lat="44.10731" lon="7.0686">
        <ele>1612.1999511719</ele>
        <time>2020-07-30T09:26:01.000Z</time>
      </trkpt>
      <trkpt lat="44.10729" lon="7.06864">
        <ele>1611.8000488281</ele>
        <time>2020-07-30T09:26:02.000Z</time>
      </trkpt>
      <trkpt lat="44.10719" lon="7.06881">
        <ele>1610.5999755859</ele>
        <time>2020-07-30T09:26:06.000Z</time>
      </trkpt>
      <trkpt lat="44.10717" lon="7.06886">
        <ele>1610.1999511719</ele>
        <time>2020-07-30T09:26:07.000Z</time>
      </trkpt>
      <trkpt lat="44.1071" lon="7.069">
        <ele>1609.4000244141</ele>
        <time>2020-07-30T09:26:10.000Z</time>
      </trkpt>
      <trkpt lat="44.10706" lon="7.06911">
        <ele>1608.5999755859</ele>
        <time>2020-07-30T09:26:12.000Z</time>
      </trkpt>
      <trkpt lat="44.10705" lon="7.06916">
        <ele>1608.1999511719</ele>
        <time>2020-07-30T09:26:13.000Z</time>
      </trkpt>
      <trkpt lat="44.10698" lon="7.06952">
        <ele>1607.1999511719</ele>
        <time>2020-07-30T09:26:20.000Z</time>
      </trkpt>
      <trkpt lat="44.10697" lon="7.06957">
        <ele>1606.8000488281</ele>
        <time>2020-07-30T09:26:21.000Z</time>
      </trkpt>
      <trkpt lat="44.10693" lon="7.06974">
        <ele>1606</ele>
        <time>2020-07-30T09:26:24.000Z</time>
      </trkpt>
      <trkpt lat="44.10687" lon="7.06998">
        <ele>1605.1999511719</ele>
        <time>2020-07-30T09:26:28.000Z</time>
      </trkpt>
      <trkpt lat="44.10685" lon="7.07003">
        <ele>1604.8000488281</ele>
        <time>2020-07-30T09:26:29.000Z</time>
      </trkpt>
      <trkpt lat="44.10677" lon="7.07036">
        <ele>1603.5999755859</ele>
        <time>2020-07-30T09:26:33.000Z</time>
      </trkpt>
      <trkpt lat="44.1067" lon="7.07062">
        <ele>1602.1999511719</ele>
        <time>2020-07-30T09:26:36.000Z</time>
      </trkpt>
      <trkpt lat="44.10666" lon="7.07079">
        <ele>1601</ele>
        <time>2020-07-30T09:26:38.000Z</time>
      </trkpt>
      <trkpt lat="44.10663" lon="7.07087">
        <ele>1600.5999755859</ele>
        <time>2020-07-30T09:26:39.000Z</time>
      </trkpt>
      <trkpt lat="44.10659" lon="7.07104">
        <ele>1600</ele>
        <time>2020-07-30T09:26:41.000Z</time>
      </trkpt>
      <trkpt lat="44.1065" lon="7.07135">
        <ele>1598.5999755859</ele>
        <time>2020-07-30T09:26:45.000Z</time>
      </trkpt>
      <trkpt lat="44.10648" lon="7.07143">
        <ele>1598</ele>
        <time>2020-07-30T09:26:46.000Z</time>
      </trkpt>
      <trkpt lat="44.10642" lon="7.0716">
        <ele>1596.8000488281</ele>
        <time>2020-07-30T09:26:48.000Z</time>
      </trkpt>
      <trkpt lat="44.10634" lon="7.07183">
        <ele>1595.4000244141</ele>
        <time>2020-07-30T09:26:51.000Z</time>
      </trkpt>
      <trkpt lat="44.10623" lon="7.07215">
        <ele>1594</ele>
        <time>2020-07-30T09:26:56.000Z</time>
      </trkpt>
      <trkpt lat="44.10619" lon="7.07225">
        <ele>1592.8000488281</ele>
        <time>2020-07-30T09:26:58.000Z</time>
      </trkpt>
      <trkpt lat="44.10613" lon="7.07237">
        <ele>1591.8000488281</ele>
        <time>2020-07-30T09:27:01.000Z</time>
      </trkpt>
      <trkpt lat="44.10607" lon="7.07249">
        <ele>1591.4000244141</ele>
        <time>2020-07-30T09:27:04.000Z</time>
      </trkpt>
      <trkpt lat="44.10599" lon="7.07265">
        <ele>1590.5999755859</ele>
        <time>2020-07-30T09:27:07.000Z</time>
      </trkpt>
      <trkpt lat="44.10593" lon="7.07275">
        <ele>1590</ele>
        <time>2020-07-30T09:27:09.000Z</time>
      </trkpt>
      <trkpt lat="44.10591" lon="7.07281">
        <ele>1589.4000244141</ele>
        <time>2020-07-30T09:27:10.000Z</time>
      </trkpt>
      <trkpt lat="44.10582" lon="7.07299">
        <ele>1588.4000244141</ele>
        <time>2020-07-30T09:27:13.000Z</time>
      </trkpt>
      <trkpt lat="44.10576" lon="7.07313">
        <ele>1587.8000488281</ele>
        <time>2020-07-30T09:27:15.000Z</time>
      </trkpt>
      <trkpt lat="44.10569" lon="7.07325">
        <ele>1587.1999511719</ele>
        <time>2020-07-30T09:27:17.000Z</time>
      </trkpt>
      <trkpt lat="44.1056" lon="7.07342">
        <ele>1586</ele>
        <time>2020-07-30T09:27:20.000Z</time>
      </trkpt>
      <trkpt lat="44.10558" lon="7.07348">
        <ele>1585.5999755859</ele>
        <time>2020-07-30T09:27:21.000Z</time>
      </trkpt>
      <trkpt lat="44.10547" lon="7.07369">
        <ele>1584.8000488281</ele>
        <time>2020-07-30T09:27:25.000Z</time>
      </trkpt>
      <trkpt lat="44.10539" lon="7.07386">
        <ele>1583.5999755859</ele>
        <time>2020-07-30T09:27:28.000Z</time>
      </trkpt>
      <trkpt lat="44.10531" lon="7.07403">
        <ele>1582.4000244141</ele>
        <time>2020-07-30T09:27:31.000Z</time>
      </trkpt>
      <trkpt lat="44.10526" lon="7.07414">
        <ele>1581.1999511719</ele>
        <time>2020-07-30T09:27:33.000Z</time>
      </trkpt>
      <trkpt lat="44.10519" lon="7.07432">
        <ele>1580</ele>
        <time>2020-07-30T09:27:36.000Z</time>
      </trkpt>
      <trkpt lat="44.10516" lon="7.07437">
        <ele>1579.5999755859</ele>
        <time>2020-07-30T09:27:37.000Z</time>
      </trkpt>
      <trkpt lat="44.10508" lon="7.07453">
        <ele>1578.5999755859</ele>
        <time>2020-07-30T09:27:40.000Z</time>
      </trkpt>
      <trkpt lat="44.10506" lon="7.07459">
        <ele>1578.4000244141</ele>
        <time>2020-07-30T09:27:41.000Z</time>
      </trkpt>
      <trkpt lat="44.10503" lon="7.07464">
        <ele>1578.1999511719</ele>
        <time>2020-07-30T09:27:42.000Z</time>
      </trkpt>
      <trkpt lat="44.10499" lon="7.07476">
        <ele>1577.1999511719</ele>
        <time>2020-07-30T09:27:44.000Z</time>
      </trkpt>
      <trkpt lat="44.10491" lon="7.07494">
        <ele>1576</ele>
        <time>2020-07-30T09:27:47.000Z</time>
      </trkpt>
      <trkpt lat="44.10488" lon="7.075">
        <ele>1575.5999755859</ele>
        <time>2020-07-30T09:27:48.000Z</time>
      </trkpt>
      <trkpt lat="44.10485" lon="7.07506">
        <ele>1575.1999511719</ele>
        <time>2020-07-30T09:27:49.000Z</time>
      </trkpt>
      <trkpt lat="44.10481" lon="7.07512">
        <ele>1574.8000488281</ele>
        <time>2020-07-30T09:27:50.000Z</time>
      </trkpt>
      <trkpt lat="44.10469" lon="7.07532">
        <ele>1573.8000488281</ele>
        <time>2020-07-30T09:27:53.000Z</time>
      </trkpt>
      <trkpt lat="44.10466" lon="7.07539">
        <ele>1573.4000244141</ele>
        <time>2020-07-30T09:27:54.000Z</time>
      </trkpt>
      <trkpt lat="44.10462" lon="7.07547">
        <ele>1573.1999511719</ele>
        <time>2020-07-30T09:27:55.000Z</time>
      </trkpt>
      <trkpt lat="44.10455" lon="7.07565">
        <ele>1572</ele>
        <time>2020-07-30T09:27:57.000Z</time>
      </trkpt>
      <trkpt lat="44.10452" lon="7.07574">
        <ele>1571.4000244141</ele>
        <time>2020-07-30T09:27:58.000Z</time>
      </trkpt>
      <trkpt lat="44.10449" lon="7.07583">
        <ele>1571</ele>
        <time>2020-07-30T09:27:59.000Z</time>
      </trkpt>
      <trkpt lat="44.10441" lon="7.07603">
        <ele>1569.8000488281</ele>
        <time>2020-07-30T09:28:01.000Z</time>
      </trkpt>
      <trkpt lat="44.10434" lon="7.07624">
        <ele>1568.5999755859</ele>
        <time>2020-07-30T09:28:03.000Z</time>
      </trkpt>
      <trkpt lat="44.10427" lon="7.07645">
        <ele>1567.8000488281</ele>
        <time>2020-07-30T09:28:05.000Z</time>
      </trkpt>
      <trkpt lat="44.10423" lon="7.07657">
        <ele>1567.1999511719</ele>
        <time>2020-07-30T09:28:06.000Z</time>
      </trkpt>
      <trkpt lat="44.10417" lon="7.07682">
        <ele>1565.8000488281</ele>
        <time>2020-07-30T09:28:08.000Z</time>
      </trkpt>
      <trkpt lat="44.10414" lon="7.07694">
        <ele>1564.8000488281</ele>
        <time>2020-07-30T09:28:09.000Z</time>
      </trkpt>
      <trkpt lat="44.10411" lon="7.07707">
        <ele>1563.4000244141</ele>
        <time>2020-07-30T09:28:10.000Z</time>
      </trkpt>
      <trkpt lat="44.10408" lon="7.07728">
        <ele>1561.4000244141</ele>
        <time>2020-07-30T09:28:12.000Z</time>
      </trkpt>
      <trkpt lat="44.10407" lon="7.07736">
        <ele>1560.5999755859</ele>
        <time>2020-07-30T09:28:13.000Z</time>
      </trkpt>
      <trkpt lat="44.10406" lon="7.07742">
        <ele>1560.1999511719</ele>
        <time>2020-07-30T09:28:14.000Z</time>
      </trkpt>
      <trkpt lat="44.10405" lon="7.07751">
        <ele>1559.5999755859</ele>
        <time>2020-07-30T09:28:16.000Z</time>
      </trkpt>
      <trkpt lat="44.10405" lon="7.07753">
        <ele>1559</ele>
        <time>2020-07-30T09:28:19.000Z</time>
      </trkpt>
      <trkpt lat="44.10406" lon="7.07754">
        <ele>1559</ele>
        <time>2020-07-30T09:28:30.000Z</time>
      </trkpt>
      <trkpt lat="44.10407" lon="7.07752">
        <ele>1559</ele>
        <time>2020-07-30T09:28:32.000Z</time>
      </trkpt>
      <trkpt lat="44.10406" lon="7.07748">
        <ele>1559</ele>
        <time>2020-07-30T09:28:34.000Z</time>
      </trkpt>
      <trkpt lat="44.10407" lon="7.0774">
        <ele>1559.4000244141</ele>
        <time>2020-07-30T09:28:38.000Z</time>
      </trkpt>
      <trkpt lat="44.10407" lon="7.07738">
        <ele>1559.4000244141</ele>
        <time>2020-07-30T09:28:39.000Z</time>
      </trkpt>
      <trkpt lat="44.10409" lon="7.07719">
        <ele>1560.1999511719</ele>
        <time>2020-07-30T09:28:46.000Z</time>
      </trkpt>
      <trkpt lat="44.10412" lon="7.07698">
        <ele>1561.1999511719</ele>
        <time>2020-07-30T09:28:53.000Z</time>
      </trkpt>
      <trkpt lat="44.10417" lon="7.07678">
        <ele>1562.1999511719</ele>
        <time>2020-07-30T09:29:00.000Z</time>
      </trkpt>
      <trkpt lat="44.10417" lon="7.07676">
        <ele>1562.5999755859</ele>
        <time>2020-07-30T09:29:01.000Z</time>
      </trkpt>
      <trkpt lat="44.1042" lon="7.07666">
        <ele>1563.5999755859</ele>
        <time>2020-07-30T09:29:05.000Z</time>
      </trkpt>
      <trkpt lat="44.10421" lon="7.07662">
        <ele>1564</ele>
        <time>2020-07-30T09:29:07.000Z</time>
      </trkpt>
      <trkpt lat="44.10422" lon="7.07658">
        <ele>1564.4000244141</ele>
        <time>2020-07-30T09:29:09.000Z</time>
      </trkpt>
      <trkpt lat="44.10423" lon="7.07654">
        <ele>1564.8000488281</ele>
        <time>2020-07-30T09:29:11.000Z</time>
      </trkpt>
      <trkpt lat="44.10425" lon="7.0765">
        <ele>1565</ele>
        <time>2020-07-30T09:29:13.000Z</time>
      </trkpt>
      <trkpt lat="44.10429" lon="7.07639">
        <ele>1565.8000488281</ele>
        <time>2020-07-30T09:29:19.000Z</time>
      </trkpt>
      <trkpt lat="44.1043" lon="7.07634">
        <ele>1566</ele>
        <time>2020-07-30T09:29:21.000Z</time>
      </trkpt>
      <trkpt lat="44.10435" lon="7.07621">
        <ele>1566.8000488281</ele>
        <time>2020-07-30T09:29:27.000Z</time>
      </trkpt>
      <trkpt lat="44.10435" lon="7.07619">
        <ele>1567</ele>
        <time>2020-07-30T09:29:28.000Z</time>
      </trkpt>
      <trkpt lat="44.1044" lon="7.07607">
        <ele>1567.8000488281</ele>
        <time>2020-07-30T09:29:34.000Z</time>
      </trkpt>
      <trkpt lat="44.10446" lon="7.0759">
        <ele>1568.5999755859</ele>
        <time>2020-07-30T09:29:41.000Z</time>
      </trkpt>
      <trkpt lat="44.10449" lon="7.0758">
        <ele>1569</ele>
        <time>2020-07-30T09:29:45.000Z</time>
      </trkpt>
      <trkpt lat="44.10453" lon="7.07573">
        <ele>1569.4000244141</ele>
        <time>2020-07-30T09:29:48.000Z</time>
      </trkpt>
      <trkpt lat="44.10457" lon="7.07562">
        <ele>1570</ele>
        <time>2020-07-30T09:29:53.000Z</time>
      </trkpt>
      <trkpt lat="44.1046" lon="7.07555">
        <ele>1570.5999755859</ele>
        <time>2020-07-30T09:29:56.000Z</time>
      </trkpt>
      <trkpt lat="44.10462" lon="7.0755">
        <ele>1571.1999511719</ele>
        <time>2020-07-30T09:29:59.000Z</time>
      </trkpt>
      <trkpt lat="44.10469" lon="7.07536">
        <ele>1572</ele>
        <time>2020-07-30T09:30:05.000Z</time>
      </trkpt>
      <trkpt lat="44.10472" lon="7.07532">
        <ele>1572.1999511719</ele>
        <time>2020-07-30T09:30:07.000Z</time>
      </trkpt>
      <trkpt lat="44.10478" lon="7.07521">
        <ele>1572.8000488281</ele>
        <time>2020-07-30T09:30:12.000Z</time>
      </trkpt>
      <trkpt lat="44.10482" lon="7.07513">
        <ele>1573.4000244141</ele>
        <time>2020-07-30T09:30:16.000Z</time>
      </trkpt>
      <trkpt lat="44.10484" lon="7.0751">
        <ele>1573.8000488281</ele>
        <time>2020-07-30T09:30:18.000Z</time>
      </trkpt>
      <trkpt lat="44.1049" lon="7.07499">
        <ele>1574.1999511719</ele>
        <time>2020-07-30T09:30:23.000Z</time>
      </trkpt>
      <trkpt lat="44.10492" lon="7.07494">
        <ele>1574.4000244141</ele>
        <time>2020-07-30T09:30:25.000Z</time>
      </trkpt>
      <trkpt lat="44.10495" lon="7.07485">
        <ele>1574.8000488281</ele>
        <time>2020-07-30T09:30:29.000Z</time>
      </trkpt>
      <trkpt lat="44.10496" lon="7.07482">
        <ele>1575</ele>
        <time>2020-07-30T09:30:30.000Z</time>
      </trkpt>
      <trkpt lat="44.105" lon="7.07472">
        <ele>1575.4000244141</ele>
        <time>2020-07-30T09:30:34.000Z</time>
      </trkpt>
      <trkpt lat="44.10504" lon="7.07463">
        <ele>1575.8000488281</ele>
        <time>2020-07-30T09:30:38.000Z</time>
      </trkpt>
      <trkpt lat="44.10507" lon="7.07457">
        <ele>1576.4000244141</ele>
        <time>2020-07-30T09:30:41.000Z</time>
      </trkpt>
      <trkpt lat="44.10508" lon="7.07454">
        <ele>1576.4000244141</ele>
        <time>2020-07-30T09:30:42.000Z</time>
      </trkpt>
      <trkpt lat="44.10508" lon="7.07452">
        <ele>1576.5999755859</ele>
        <time>2020-07-30T09:30:43.000Z</time>
      </trkpt>
      <trkpt lat="44.10516" lon="7.0744">
        <ele>1577.5999755859</ele>
        <time>2020-07-30T09:30:50.000Z</time>
      </trkpt>
      <trkpt lat="44.10517" lon="7.07438">
        <ele>1577.8000488281</ele>
        <time>2020-07-30T09:30:51.000Z</time>
      </trkpt>
      <trkpt lat="44.10522" lon="7.07426">
        <ele>1578.5999755859</ele>
        <time>2020-07-30T09:30:57.000Z</time>
      </trkpt>
      <trkpt lat="44.10524" lon="7.07422">
        <ele>1579</ele>
        <time>2020-07-30T09:30:59.000Z</time>
      </trkpt>
      <trkpt lat="44.10528" lon="7.07413">
        <ele>1579.8000488281</ele>
        <time>2020-07-30T09:31:04.000Z</time>
      </trkpt>
      <trkpt lat="44.10529" lon="7.0741">
        <ele>1579.8000488281</ele>
        <time>2020-07-30T09:31:05.000Z</time>
      </trkpt>
      <trkpt lat="44.10535" lon="7.07399">
        <ele>1580.4000244141</ele>
        <time>2020-07-30T09:31:11.000Z</time>
      </trkpt>
      <trkpt lat="44.10536" lon="7.07397">
        <ele>1580.8000488281</ele>
        <time>2020-07-30T09:31:12.000Z</time>
      </trkpt>
      <trkpt lat="44.10543" lon="7.07381">
        <ele>1581.5999755859</ele>
        <time>2020-07-30T09:31:19.000Z</time>
      </trkpt>
      <trkpt lat="44.10543" lon="7.07379">
        <ele>1581.8000488281</ele>
        <time>2020-07-30T09:31:20.000Z</time>
      </trkpt>
      <trkpt lat="44.10548" lon="7.07366">
        <ele>1582.8000488281</ele>
        <time>2020-07-30T09:31:26.000Z</time>
      </trkpt>
      <trkpt lat="44.10554" lon="7.07354">
        <ele>1583.8000488281</ele>
        <time>2020-07-30T09:31:32.000Z</time>
      </trkpt>
      <trkpt lat="44.10558" lon="7.07349">
        <ele>1584</ele>
        <time>2020-07-30T09:31:35.000Z</time>
      </trkpt>
      <trkpt lat="44.10566" lon="7.07332">
        <ele>1585</ele>
        <time>2020-07-30T09:31:43.000Z</time>
      </trkpt>
      <trkpt lat="44.10576" lon="7.07314">
        <ele>1586</ele>
        <time>2020-07-30T09:31:52.000Z</time>
      </trkpt>
      <trkpt lat="44.10584" lon="7.07302">
        <ele>1586.8000488281</ele>
        <time>2020-07-30T09:31:59.000Z</time>
      </trkpt>
      <trkpt lat="44.10586" lon="7.07298">
        <ele>1587</ele>
        <time>2020-07-30T09:32:01.000Z</time>
      </trkpt>
      <trkpt lat="44.10591" lon="7.07292">
        <ele>1587.4000244141</ele>
        <time>2020-07-30T09:32:05.000Z</time>
      </trkpt>
      <trkpt lat="44.10592" lon="7.0729">
        <ele>1587.5999755859</ele>
        <time>2020-07-30T09:32:06.000Z</time>
      </trkpt>
      <trkpt lat="44.10599" lon="7.0728">
        <ele>1588.1999511719</ele>
        <time>2020-07-30T09:32:12.000Z</time>
      </trkpt>
      <trkpt lat="44.106" lon="7.07278">
        <ele>1588.1999511719</ele>
        <time>2020-07-30T09:32:13.000Z</time>
      </trkpt>
      <trkpt lat="44.10606" lon="7.07264">
        <ele>1589</ele>
        <time>2020-07-30T09:32:20.000Z</time>
      </trkpt>
      <trkpt lat="44.10608" lon="7.0726">
        <ele>1589.1999511719</ele>
        <time>2020-07-30T09:32:22.000Z</time>
      </trkpt>
      <trkpt lat="44.10609" lon="7.07259">
        <ele>1589.4000244141</ele>
        <time>2020-07-30T09:32:23.000Z</time>
      </trkpt>
      <trkpt lat="44.10613" lon="7.07253">
        <ele>1589.8000488281</ele>
        <time>2020-07-30T09:32:26.000Z</time>
      </trkpt>
      <trkpt lat="44.10616" lon="7.07248">
        <ele>1590.1999511719</ele>
        <time>2020-07-30T09:32:29.000Z</time>
      </trkpt>
      <trkpt lat="44.10621" lon="7.07238">
        <ele>1590.8000488281</ele>
        <time>2020-07-30T09:32:34.000Z</time>
      </trkpt>
      <trkpt lat="44.10627" lon="7.07223">
        <ele>1591.4000244141</ele>
        <time>2020-07-30T09:32:41.000Z</time>
      </trkpt>
      <trkpt lat="44.10628" lon="7.07221">
        <ele>1591.4000244141</ele>
        <time>2020-07-30T09:32:42.000Z</time>
      </trkpt>
      <trkpt lat="44.10634" lon="7.07205">
        <ele>1592.4000244141</ele>
        <time>2020-07-30T09:32:49.000Z</time>
      </trkpt>
      <trkpt lat="44.10638" lon="7.07192">
        <ele>1593.5999755859</ele>
        <time>2020-07-30T09:32:55.000Z</time>
      </trkpt>
      <trkpt lat="44.10639" lon="7.0719">
        <ele>1593.5999755859</ele>
        <time>2020-07-30T09:32:56.000Z</time>
      </trkpt>
      <trkpt lat="44.10643" lon="7.07178">
        <ele>1594.4000244141</ele>
        <time>2020-07-30T09:33:02.000Z</time>
      </trkpt>
      <trkpt lat="44.10644" lon="7.07174">
        <ele>1594.5999755859</ele>
        <time>2020-07-30T09:33:04.000Z</time>
      </trkpt>
      <trkpt lat="44.10647" lon="7.07168">
        <ele>1595</ele>
        <time>2020-07-30T09:33:07.000Z</time>
      </trkpt>
      <trkpt lat="44.10648" lon="7.07166">
        <ele>1595</ele>
        <time>2020-07-30T09:33:08.000Z</time>
      </trkpt>
      <trkpt lat="44.10651" lon="7.07158">
        <ele>1595.5999755859</ele>
        <time>2020-07-30T09:33:12.000Z</time>
      </trkpt>
      <trkpt lat="44.10653" lon="7.07153">
        <ele>1595.8000488281</ele>
        <time>2020-07-30T09:33:14.000Z</time>
      </trkpt>
      <trkpt lat="44.10653" lon="7.0715">
        <ele>1596</ele>
        <time>2020-07-30T09:33:15.000Z</time>
      </trkpt>
      <trkpt lat="44.10656" lon="7.07141">
        <ele>1596.4000244141</ele>
        <time>2020-07-30T09:33:19.000Z</time>
      </trkpt>
      <trkpt lat="44.10656" lon="7.07139">
        <ele>1596.5999755859</ele>
        <time>2020-07-30T09:33:20.000Z</time>
      </trkpt>
      <trkpt lat="44.10661" lon="7.07122">
        <ele>1597.8000488281</ele>
        <time>2020-07-30T09:33:27.000Z</time>
      </trkpt>
      <trkpt lat="44.10665" lon="7.07101">
        <ele>1599</ele>
        <time>2020-07-30T09:33:36.000Z</time>
      </trkpt>
      <trkpt lat="44.10667" lon="7.07092">
        <ele>1599.5999755859</ele>
        <time>2020-07-30T09:33:40.000Z</time>
      </trkpt>
      <trkpt lat="44.10668" lon="7.0709">
        <ele>1599.5999755859</ele>
        <time>2020-07-30T09:33:41.000Z</time>
      </trkpt>
      <trkpt lat="44.10669" lon="7.07085">
        <ele>1600</ele>
        <time>2020-07-30T09:33:43.000Z</time>
      </trkpt>
      <trkpt lat="44.10671" lon="7.07077">
        <ele>1600.5999755859</ele>
        <time>2020-07-30T09:33:47.000Z</time>
      </trkpt>
      <trkpt lat="44.10672" lon="7.07069">
        <ele>1600.8000488281</ele>
        <time>2020-07-30T09:33:50.000Z</time>
      </trkpt>
      <trkpt lat="44.10675" lon="7.07059">
        <ele>1601.1999511719</ele>
        <time>2020-07-30T09:33:54.000Z</time>
      </trkpt>
      <trkpt lat="44.1068" lon="7.07045">
        <ele>1601.4000244141</ele>
        <time>2020-07-30T09:34:00.000Z</time>
      </trkpt>
      <trkpt lat="44.10682" lon="7.07032">
        <ele>1602.1999511719</ele>
        <time>2020-07-30T09:34:05.000Z</time>
      </trkpt>
      <trkpt lat="44.10683" lon="7.0703">
        <ele>1602.4000244141</ele>
        <time>2020-07-30T09:34:06.000Z</time>
      </trkpt>
      <trkpt lat="44.10686" lon="7.07017">
        <ele>1603.1999511719</ele>
        <time>2020-07-30T09:34:12.000Z</time>
      </trkpt>
      <trkpt lat="44.10687" lon="7.07015">
        <ele>1603.4000244141</ele>
        <time>2020-07-30T09:34:13.000Z</time>
      </trkpt>
      <trkpt lat="44.1069" lon="7.07005">
        <ele>1604.1999511719</ele>
        <time>2020-07-30T09:34:19.000Z</time>
      </trkpt>
      <trkpt lat="44.10691" lon="7.07003">
        <ele>1604.1999511719</ele>
        <time>2020-07-30T09:34:20.000Z</time>
      </trkpt>
      <trkpt lat="44.10692" lon="7.06995">
        <ele>1604.8000488281</ele>
        <time>2020-07-30T09:34:23.000Z</time>
      </trkpt>
      <trkpt lat="44.10694" lon="7.0699">
        <ele>1604.8000488281</ele>
        <time>2020-07-30T09:34:25.000Z</time>
      </trkpt>
      <trkpt lat="44.10697" lon="7.06973">
        <ele>1605.4000244141</ele>
        <time>2020-07-30T09:34:31.000Z</time>
      </trkpt>
      <trkpt lat="44.10697" lon="7.0697">
        <ele>1605.1999511719</ele>
        <time>2020-07-30T09:34:32.000Z</time>
      </trkpt>
      <trkpt lat="44.107" lon="7.06954">
        <ele>1605.8000488281</ele>
        <time>2020-07-30T09:34:38.000Z</time>
      </trkpt>
      <trkpt lat="44.10701" lon="7.06943">
        <ele>1606.4000244141</ele>
        <time>2020-07-30T09:34:42.000Z</time>
      </trkpt>
      <trkpt lat="44.10702" lon="7.06935">
        <ele>1607</ele>
        <time>2020-07-30T09:34:45.000Z</time>
      </trkpt>
      <trkpt lat="44.10706" lon="7.06917">
        <ele>1607.5999755859</ele>
        <time>2020-07-30T09:34:52.000Z</time>
      </trkpt>
      <trkpt lat="44.10706" lon="7.06914">
        <ele>1607.5999755859</ele>
        <time>2020-07-30T09:34:53.000Z</time>
      </trkpt>
      <trkpt lat="44.10711" lon="7.06904">
        <ele>1608.1999511719</ele>
        <time>2020-07-30T09:34:58.000Z</time>
      </trkpt>
      <trkpt lat="44.10712" lon="7.06902">
        <ele>1608.4000244141</ele>
        <time>2020-07-30T09:34:59.000Z</time>
      </trkpt>
      <trkpt lat="44.10715" lon="7.06898">
        <ele>1608.5999755859</ele>
        <time>2020-07-30T09:35:01.000Z</time>
      </trkpt>
      <trkpt lat="44.10721" lon="7.0689">
        <ele>1609.4000244141</ele>
        <time>2020-07-30T09:35:06.000Z</time>
      </trkpt>
      <trkpt lat="44.10723" lon="7.06887">
        <ele>1609.5999755859</ele>
        <time>2020-07-30T09:35:07.000Z</time>
      </trkpt>
      <trkpt lat="44.10724" lon="7.06885">
        <ele>1609.8000488281</ele>
        <time>2020-07-30T09:35:08.000Z</time>
      </trkpt>
      <trkpt lat="44.10731" lon="7.06875">
        <ele>1610.8000488281</ele>
        <time>2020-07-30T09:35:14.000Z</time>
      </trkpt>
      <trkpt lat="44.10732" lon="7.06872">
        <ele>1611</ele>
        <time>2020-07-30T09:35:15.000Z</time>
      </trkpt>
      <trkpt lat="44.10738" lon="7.0686">
        <ele>1611.5999755859</ele>
        <time>2020-07-30T09:35:21.000Z</time>
      </trkpt>
      <trkpt lat="44.10742" lon="7.06856">
        <ele>1612</ele>
        <time>2020-07-30T09:35:24.000Z</time>
      </trkpt>
      <trkpt lat="44.10746" lon="7.06848">
        <ele>1612.5999755859</ele>
        <time>2020-07-30T09:35:28.000Z</time>
      </trkpt>
      <trkpt lat="44.1075" lon="7.06844">
        <ele>1613.1999511719</ele>
        <time>2020-07-30T09:35:31.000Z</time>
      </trkpt>
      <trkpt lat="44.10755" lon="7.06837">
        <ele>1613.8000488281</ele>
        <time>2020-07-30T09:35:35.000Z</time>
      </trkpt>
      <trkpt lat="44.10758" lon="7.06828">
        <ele>1614.1999511719</ele>
        <time>2020-07-30T09:35:39.000Z</time>
      </trkpt>
      <trkpt lat="44.10759" lon="7.06827">
        <ele>1614.4000244141</ele>
        <time>2020-07-30T09:35:40.000Z</time>
      </trkpt>
      <trkpt lat="44.10766" lon="7.06812">
        <ele>1615</ele>
        <time>2020-07-30T09:35:47.000Z</time>
      </trkpt>
      <trkpt lat="44.10768" lon="7.06808">
        <ele>1615.4000244141</ele>
        <time>2020-07-30T09:35:49.000Z</time>
      </trkpt>
      <trkpt lat="44.10773" lon="7.06797">
        <ele>1615.8000488281</ele>
        <time>2020-07-30T09:35:54.000Z</time>
      </trkpt>
      <trkpt lat="44.10778" lon="7.06789">
        <ele>1616.4000244141</ele>
        <time>2020-07-30T09:35:58.000Z</time>
      </trkpt>
      <trkpt lat="44.1078" lon="7.06785">
        <ele>1616.5999755859</ele>
        <time>2020-07-30T09:36:00.000Z</time>
      </trkpt>
      <trkpt lat="44.10787" lon="7.06774">
        <ele>1617.1999511719</ele>
        <time>2020-07-30T09:36:05.000Z</time>
      </trkpt>
      <trkpt lat="44.10789" lon="7.06767">
        <ele>1617.4000244141</ele>
        <time>2020-07-30T09:36:08.000Z</time>
      </trkpt>
      <trkpt lat="44.10796" lon="7.06757">
        <ele>1618.1999511719</ele>
        <time>2020-07-30T09:36:13.000Z</time>
      </trkpt>
      <trkpt lat="44.10799" lon="7.06753">
        <ele>1618.4000244141</ele>
        <time>2020-07-30T09:36:15.000Z</time>
      </trkpt>
      <trkpt lat="44.10803" lon="7.06744">
        <ele>1619</ele>
        <time>2020-07-30T09:36:19.000Z</time>
      </trkpt>
      <trkpt lat="44.10809" lon="7.06736">
        <ele>1619.5999755859</ele>
        <time>2020-07-30T09:36:23.000Z</time>
      </trkpt>
      <trkpt lat="44.10811" lon="7.06731">
        <ele>1619.5999755859</ele>
        <time>2020-07-30T09:36:25.000Z</time>
      </trkpt>
      <trkpt lat="44.10812" lon="7.06729">
        <ele>1619.8000488281</ele>
        <time>2020-07-30T09:36:26.000Z</time>
      </trkpt>
      <trkpt lat="44.1082" lon="7.06716">
        <ele>1620.5999755859</ele>
        <time>2020-07-30T09:36:32.000Z</time>
      </trkpt>
      <trkpt lat="44.10826" lon="7.06701">
        <ele>1621.1999511719</ele>
        <time>2020-07-30T09:36:38.000Z</time>
      </trkpt>
      <trkpt lat="44.10828" lon="7.06697">
        <ele>1621.5999755859</ele>
        <time>2020-07-30T09:36:40.000Z</time>
      </trkpt>
      <trkpt lat="44.10831" lon="7.06688">
        <ele>1621.8000488281</ele>
        <time>2020-07-30T09:36:43.000Z</time>
      </trkpt>
      <trkpt lat="44.10834" lon="7.06684">
        <ele>1621.8000488281</ele>
        <time>2020-07-30T09:36:45.000Z</time>
      </trkpt>
      <trkpt lat="44.10839" lon="7.06674">
        <ele>1622.4000244141</ele>
        <time>2020-07-30T09:36:50.000Z</time>
      </trkpt>
      <trkpt lat="44.10841" lon="7.0667">
        <ele>1622.5999755859</ele>
        <time>2020-07-30T09:36:52.000Z</time>
      </trkpt>
      <trkpt lat="44.10847" lon="7.06655">
        <ele>1623.1999511719</ele>
        <time>2020-07-30T09:36:57.000Z</time>
      </trkpt>
      <trkpt lat="44.10853" lon="7.06642">
        <ele>1623.8000488281</ele>
        <time>2020-07-30T09:37:02.000Z</time>
      </trkpt>
      <trkpt lat="44.10854" lon="7.06639">
        <ele>1623.8000488281</ele>
        <time>2020-07-30T09:37:03.000Z</time>
      </trkpt>
      <trkpt lat="44.10864" lon="7.06621">
        <ele>1624.8000488281</ele>
        <time>2020-07-30T09:37:10.000Z</time>
      </trkpt>
      <trkpt lat="44.10874" lon="7.06601">
        <ele>1625.8000488281</ele>
        <time>2020-07-30T09:37:18.000Z</time>
      </trkpt>
      <trkpt lat="44.10876" lon="7.06592">
        <ele>1626.1999511719</ele>
        <time>2020-07-30T09:37:21.000Z</time>
      </trkpt>
      <trkpt lat="44.10874" lon="7.06582">
        <ele>1626.4000244141</ele>
        <time>2020-07-30T09:37:24.000Z</time>
      </trkpt>
      <trkpt lat="44.10871" lon="7.06573">
        <ele>1626.4000244141</ele>
        <time>2020-07-30T09:37:27.000Z</time>
      </trkpt>
      <trkpt lat="44.10866" lon="7.06567">
        <ele>1626.4000244141</ele>
        <time>2020-07-30T09:37:30.000Z</time>
      </trkpt>
      <trkpt lat="44.10856" lon="7.0655">
        <ele>1626.4000244141</ele>
        <time>2020-07-30T09:37:36.000Z</time>
      </trkpt>
      <trkpt lat="44.10841" lon="7.06529">
        <ele>1626.4000244141</ele>
        <time>2020-07-30T09:37:43.000Z</time>
      </trkpt>
      <trkpt lat="44.10829" lon="7.06516">
        <ele>1626.8000488281</ele>
        <time>2020-07-30T09:37:49.000Z</time>
      </trkpt>
      <trkpt lat="44.10826" lon="7.06514">
        <ele>1626.8000488281</ele>
        <time>2020-07-30T09:37:50.000Z</time>
      </trkpt>
      <trkpt lat="44.10815" lon="7.06501">
        <ele>1626.5999755859</ele>
        <time>2020-07-30T09:37:55.000Z</time>
      </trkpt>
      <trkpt lat="44.10815" lon="7.06497">
        <ele>1626.5999755859</ele>
        <time>2020-07-30T09:37:56.000Z</time>
      </trkpt>
      <trkpt lat="44.10819" lon="7.06483">
        <ele>1626</ele>
        <time>2020-07-30T09:38:00.000Z</time>
      </trkpt>
      <trkpt lat="44.10821" lon="7.06481">
        <ele>1625.8000488281</ele>
        <time>2020-07-30T09:38:01.000Z</time>
      </trkpt>
      <trkpt lat="44.10826" lon="7.06477">
        <ele>1625.8000488281</ele>
        <time>2020-07-30T09:38:03.000Z</time>
      </trkpt>
      <trkpt lat="44.10828" lon="7.06475">
        <ele>1625.8000488281</ele>
        <time>2020-07-30T09:38:04.000Z</time>
      </trkpt>
      <trkpt lat="44.10837" lon="7.06468">
        <ele>1625.5999755859</ele>
        <time>2020-07-30T09:38:09.000Z</time>
      </trkpt>
      <trkpt lat="44.1085" lon="7.06454">
        <ele>1625.1999511719</ele>
        <time>2020-07-30T09:38:16.000Z</time>
      </trkpt>
      <trkpt lat="44.1085" lon="7.06451">
        <ele>1625.1999511719</ele>
        <time>2020-07-30T09:38:17.000Z</time>
      </trkpt>
      <trkpt lat="44.10852" lon="7.06446">
        <ele>1625.4000244141</ele>
        <time>2020-07-30T09:38:19.000Z</time>
      </trkpt>
      <trkpt lat="44.10852" lon="7.06443">
        <ele>1625.5999755859</ele>
        <time>2020-07-30T09:38:20.000Z</time>
      </trkpt>
      <trkpt lat="44.10856" lon="7.06429">
        <ele>1627</ele>
        <time>2020-07-30T09:38:26.000Z</time>
      </trkpt>
      <trkpt lat="44.10858" lon="7.06419">
        <ele>1628.1999511719</ele>
        <time>2020-07-30T09:38:31.000Z</time>
      </trkpt>
      <trkpt lat="44.10859" lon="7.06418">
        <ele>1628.4000244141</ele>
        <time>2020-07-30T09:38:32.000Z</time>
      </trkpt>
      <trkpt lat="44.10863" lon="7.0641">
        <ele>1629.4000244141</ele>
        <time>2020-07-30T09:38:36.000Z</time>
      </trkpt>
      <trkpt lat="44.10864" lon="7.06409">
        <ele>1629.8000488281</ele>
        <time>2020-07-30T09:38:38.000Z</time>
      </trkpt>
      <trkpt lat="44.10866" lon="7.06407">
        <ele>1630.1999511719</ele>
        <time>2020-07-30T09:38:40.000Z</time>
      </trkpt>
      <trkpt lat="44.1087" lon="7.064">
        <ele>1630.4000244141</ele>
        <time>2020-07-30T09:38:43.000Z</time>
      </trkpt>
      <trkpt lat="44.10874" lon="7.06396">
        <ele>1630.5999755859</ele>
        <time>2020-07-30T09:38:45.000Z</time>
      </trkpt>
      <trkpt lat="44.10881" lon="7.06391">
        <ele>1631.4000244141</ele>
        <time>2020-07-30T09:38:48.000Z</time>
      </trkpt>
      <trkpt lat="44.10883" lon="7.0639">
        <ele>1632</ele>
        <time>2020-07-30T09:38:49.000Z</time>
      </trkpt>
      <trkpt lat="44.10888" lon="7.06385">
        <ele>1633.1999511719</ele>
        <time>2020-07-30T09:38:52.000Z</time>
      </trkpt>
      <trkpt lat="44.10893" lon="7.06377">
        <ele>1634.1999511719</ele>
        <time>2020-07-30T09:38:55.000Z</time>
      </trkpt>
      <trkpt lat="44.10895" lon="7.06373">
        <ele>1634.5999755859</ele>
        <time>2020-07-30T09:38:56.000Z</time>
      </trkpt>
      <trkpt lat="44.10898" lon="7.06367">
        <ele>1635.4000244141</ele>
        <time>2020-07-30T09:38:58.000Z</time>
      </trkpt>
      <trkpt lat="44.10903" lon="7.0636">
        <ele>1636.5999755859</ele>
        <time>2020-07-30T09:39:01.000Z</time>
      </trkpt>
      <trkpt lat="44.10905" lon="7.06357">
        <ele>1637</ele>
        <time>2020-07-30T09:39:02.000Z</time>
      </trkpt>
      <trkpt lat="44.10908" lon="7.06353">
        <ele>1637.5999755859</ele>
        <time>2020-07-30T09:39:04.000Z</time>
      </trkpt>
      <trkpt lat="44.10912" lon="7.06348">
        <ele>1638.1999511719</ele>
        <time>2020-07-30T09:39:06.000Z</time>
      </trkpt>
      <trkpt lat="44.10913" lon="7.06345">
        <ele>1638.4000244141</ele>
        <time>2020-07-30T09:39:07.000Z</time>
      </trkpt>
      <trkpt lat="44.10915" lon="7.06342">
        <ele>1638.5999755859</ele>
        <time>2020-07-30T09:39:08.000Z</time>
      </trkpt>
      <trkpt lat="44.10921" lon="7.06334">
        <ele>1639.8000488281</ele>
        <time>2020-07-30T09:39:11.000Z</time>
      </trkpt>
      <trkpt lat="44.10925" lon="7.06329">
        <ele>1640.4000244141</ele>
        <time>2020-07-30T09:39:13.000Z</time>
      </trkpt>
      <trkpt lat="44.1093" lon="7.06322">
        <ele>1641</ele>
        <time>2020-07-30T09:39:16.000Z</time>
      </trkpt>
      <trkpt lat="44.10932" lon="7.0632">
        <ele>1641.1999511719</ele>
        <time>2020-07-30T09:39:17.000Z</time>
      </trkpt>
      <trkpt lat="44.10937" lon="7.06317">
        <ele>1641.5999755859</ele>
        <time>2020-07-30T09:39:19.000Z</time>
      </trkpt>
      <trkpt lat="44.10941" lon="7.06312">
        <ele>1642</ele>
        <time>2020-07-30T09:39:21.000Z</time>
      </trkpt>
      <trkpt lat="44.10948" lon="7.06301">
        <ele>1643</ele>
        <time>2020-07-30T09:39:25.000Z</time>
      </trkpt>
      <trkpt lat="44.10955" lon="7.06287">
        <ele>1644.4000244141</ele>
        <time>2020-07-30T09:39:29.000Z</time>
      </trkpt>
      <trkpt lat="44.10959" lon="7.06277">
        <ele>1645.5999755859</ele>
        <time>2020-07-30T09:39:32.000Z</time>
      </trkpt>
      <trkpt lat="44.10961" lon="7.06271">
        <ele>1646.8000488281</ele>
        <time>2020-07-30T09:39:34.000Z</time>
      </trkpt>
      <trkpt lat="44.10966" lon="7.06262">
        <ele>1648</ele>
        <time>2020-07-30T09:39:37.000Z</time>
      </trkpt>
      <trkpt lat="44.1097" lon="7.06253">
        <ele>1649</ele>
        <time>2020-07-30T09:39:40.000Z</time>
      </trkpt>
      <trkpt lat="44.10971" lon="7.0625">
        <ele>1649.1999511719</ele>
        <time>2020-07-30T09:39:41.000Z</time>
      </trkpt>
      <trkpt lat="44.10974" lon="7.06244">
        <ele>1649.8000488281</ele>
        <time>2020-07-30T09:39:43.000Z</time>
      </trkpt>
      <trkpt lat="44.10978" lon="7.06239">
        <ele>1650.1999511719</ele>
        <time>2020-07-30T09:39:45.000Z</time>
      </trkpt>
      <trkpt lat="44.10982" lon="7.06233">
        <ele>1650.8000488281</ele>
        <time>2020-07-30T09:39:47.000Z</time>
      </trkpt>
      <trkpt lat="44.10986" lon="7.06226">
        <ele>1651.1999511719</ele>
        <time>2020-07-30T09:39:49.000Z</time>
      </trkpt>
      <trkpt lat="44.10988" lon="7.06223">
        <ele>1651.5999755859</ele>
        <time>2020-07-30T09:39:50.000Z</time>
      </trkpt>
      <trkpt lat="44.1099" lon="7.06217">
        <ele>1652.4000244141</ele>
        <time>2020-07-30T09:39:52.000Z</time>
      </trkpt>
      <trkpt lat="44.10995" lon="7.06207">
        <ele>1653.5999755859</ele>
        <time>2020-07-30T09:39:55.000Z</time>
      </trkpt>
      <trkpt lat="44.11002" lon="7.06194">
        <ele>1654.8000488281</ele>
        <time>2020-07-30T09:39:59.000Z</time>
      </trkpt>
      <trkpt lat="44.11008" lon="7.06182">
        <ele>1655.8000488281</ele>
        <time>2020-07-30T09:40:02.000Z</time>
      </trkpt>
      <trkpt lat="44.11009" lon="7.06178">
        <ele>1656</ele>
        <time>2020-07-30T09:40:03.000Z</time>
      </trkpt>
      <trkpt lat="44.11021" lon="7.06156">
        <ele>1657.1999511719</ele>
        <time>2020-07-30T09:40:10.000Z</time>
      </trkpt>
      <trkpt lat="44.1103" lon="7.06141">
        <ele>1658.1999511719</ele>
        <time>2020-07-30T09:40:15.000Z</time>
      </trkpt>
      <trkpt lat="44.11034" lon="7.06136">
        <ele>1659</ele>
        <time>2020-07-30T09:40:17.000Z</time>
      </trkpt>
      <trkpt lat="44.11036" lon="7.06133">
        <ele>1659.4000244141</ele>
        <time>2020-07-30T09:40:18.000Z</time>
      </trkpt>
      <trkpt lat="44.11043" lon="7.06122">
        <ele>1660</ele>
        <time>2020-07-30T09:40:22.000Z</time>
      </trkpt>
      <trkpt lat="44.11046" lon="7.06116">
        <ele>1660.5999755859</ele>
        <time>2020-07-30T09:40:24.000Z</time>
      </trkpt>
      <trkpt lat="44.1105" lon="7.06111">
        <ele>1661.1999511719</ele>
        <time>2020-07-30T09:40:26.000Z</time>
      </trkpt>
      <trkpt lat="44.11057" lon="7.06099">
        <ele>1661.8000488281</ele>
        <time>2020-07-30T09:40:30.000Z</time>
      </trkpt>
      <trkpt lat="44.11058" lon="7.06095">
        <ele>1662</ele>
        <time>2020-07-30T09:40:31.000Z</time>
      </trkpt>
      <trkpt lat="44.11061" lon="7.06086">
        <ele>1663</ele>
        <time>2020-07-30T09:40:34.000Z</time>
      </trkpt>
      <trkpt lat="44.11064" lon="7.06075">
        <ele>1663.5999755859</ele>
        <time>2020-07-30T09:40:37.000Z</time>
      </trkpt>
      <trkpt lat="44.11066" lon="7.06064">
        <ele>1664</ele>
        <time>2020-07-30T09:40:40.000Z</time>
      </trkpt>
      <trkpt lat="44.11069" lon="7.06055">
        <ele>1664.5999755859</ele>
        <time>2020-07-30T09:40:43.000Z</time>
      </trkpt>
      <trkpt lat="44.11069" lon="7.06051">
        <ele>1665</ele>
        <time>2020-07-30T09:40:44.000Z</time>
      </trkpt>
      <trkpt lat="44.1107" lon="7.06047">
        <ele>1665.1999511719</ele>
        <time>2020-07-30T09:40:45.000Z</time>
      </trkpt>
      <trkpt lat="44.11073" lon="7.06041">
        <ele>1665.5999755859</ele>
        <time>2020-07-30T09:40:47.000Z</time>
      </trkpt>
      <trkpt lat="44.11079" lon="7.06028">
        <ele>1666.1999511719</ele>
        <time>2020-07-30T09:40:51.000Z</time>
      </trkpt>
      <trkpt lat="44.11081" lon="7.06026">
        <ele>1666.1999511719</ele>
        <time>2020-07-30T09:40:52.000Z</time>
      </trkpt>
      <trkpt lat="44.11088" lon="7.06016">
        <ele>1666.8000488281</ele>
        <time>2020-07-30T09:40:56.000Z</time>
      </trkpt>
      <trkpt lat="44.11093" lon="7.06006">
        <ele>1667.4000244141</ele>
        <time>2020-07-30T09:40:59.000Z</time>
      </trkpt>
      <trkpt lat="44.11096" lon="7.05999">
        <ele>1667.8000488281</ele>
        <time>2020-07-30T09:41:01.000Z</time>
      </trkpt>
      <trkpt lat="44.111" lon="7.05992">
        <ele>1668.4000244141</ele>
        <time>2020-07-30T09:41:03.000Z</time>
      </trkpt>
      <trkpt lat="44.11105" lon="7.05978">
        <ele>1669.8000488281</ele>
        <time>2020-07-30T09:41:07.000Z</time>
      </trkpt>
      <trkpt lat="44.11109" lon="7.05965">
        <ele>1671</ele>
        <time>2020-07-30T09:41:11.000Z</time>
      </trkpt>
      <trkpt lat="44.11111" lon="7.05963">
        <ele>1671.5999755859</ele>
        <time>2020-07-30T09:41:12.000Z</time>
      </trkpt>
      <trkpt lat="44.11112" lon="7.0596">
        <ele>1672.1999511719</ele>
        <time>2020-07-30T09:41:13.000Z</time>
      </trkpt>
      <trkpt lat="44.11115" lon="7.05951">
        <ele>1673.4000244141</ele>
        <time>2020-07-30T09:41:16.000Z</time>
      </trkpt>
      <trkpt lat="44.1112" lon="7.05938">
        <ele>1674.5999755859</ele>
        <time>2020-07-30T09:41:20.000Z</time>
      </trkpt>
      <trkpt lat="44.11123" lon="7.05932">
        <ele>1675</ele>
        <time>2020-07-30T09:41:22.000Z</time>
      </trkpt>
      <trkpt lat="44.11126" lon="7.05926">
        <ele>1675.5999755859</ele>
        <time>2020-07-30T09:41:24.000Z</time>
      </trkpt>
      <trkpt lat="44.11127" lon="7.05919">
        <ele>1676.1999511719</ele>
        <time>2020-07-30T09:41:26.000Z</time>
      </trkpt>
      <trkpt lat="44.11129" lon="7.05913">
        <ele>1676.5999755859</ele>
        <time>2020-07-30T09:41:28.000Z</time>
      </trkpt>
      <trkpt lat="44.11132" lon="7.05905">
        <ele>1677.8000488281</ele>
        <time>2020-07-30T09:41:31.000Z</time>
      </trkpt>
      <trkpt lat="44.11135" lon="7.059">
        <ele>1678.5999755859</ele>
        <time>2020-07-30T09:41:33.000Z</time>
      </trkpt>
      <trkpt lat="44.11137" lon="7.05897">
        <ele>1679</ele>
        <time>2020-07-30T09:41:34.000Z</time>
      </trkpt>
      <trkpt lat="44.1114" lon="7.05888">
        <ele>1680.1999511719</ele>
        <time>2020-07-30T09:41:37.000Z</time>
      </trkpt>
      <trkpt lat="44.11143" lon="7.05883">
        <ele>1681</ele>
        <time>2020-07-30T09:41:39.000Z</time>
      </trkpt>
      <trkpt lat="44.11144" lon="7.05881">
        <ele>1681.5999755859</ele>
        <time>2020-07-30T09:41:40.000Z</time>
      </trkpt>
      <trkpt lat="44.11146" lon="7.05876">
        <ele>1682.8000488281</ele>
        <time>2020-07-30T09:41:42.000Z</time>
      </trkpt>
      <trkpt lat="44.11147" lon="7.05871">
        <ele>1683.8000488281</ele>
        <time>2020-07-30T09:41:44.000Z</time>
      </trkpt>
      <trkpt lat="44.11149" lon="7.05869">
        <ele>1684.1999511719</ele>
        <time>2020-07-30T09:41:45.000Z</time>
      </trkpt>
      <trkpt lat="44.11155" lon="7.05862">
        <ele>1685.4000244141</ele>
        <time>2020-07-30T09:41:49.000Z</time>
      </trkpt>
      <trkpt lat="44.11156" lon="7.05861">
        <ele>1685.8000488281</ele>
        <time>2020-07-30T09:41:50.000Z</time>
      </trkpt>
      <trkpt lat="44.11161" lon="7.05856">
        <ele>1686.8000488281</ele>
        <time>2020-07-30T09:41:53.000Z</time>
      </trkpt>
      <trkpt lat="44.11167" lon="7.0585">
        <ele>1687.8000488281</ele>
        <time>2020-07-30T09:41:57.000Z</time>
      </trkpt>
      <trkpt lat="44.11174" lon="7.05837">
        <ele>1688.8000488281</ele>
        <time>2020-07-30T09:42:03.000Z</time>
      </trkpt>
      <trkpt lat="44.11175" lon="7.05835">
        <ele>1689.1999511719</ele>
        <time>2020-07-30T09:42:04.000Z</time>
      </trkpt>
      <trkpt lat="44.11179" lon="7.05832">
        <ele>1690.1999511719</ele>
        <time>2020-07-30T09:42:06.000Z</time>
      </trkpt>
      <trkpt lat="44.11188" lon="7.05821">
        <ele>1691.1999511719</ele>
        <time>2020-07-30T09:42:12.000Z</time>
      </trkpt>
      <trkpt lat="44.11198" lon="7.05808">
        <ele>1692.1999511719</ele>
        <time>2020-07-30T09:42:18.000Z</time>
      </trkpt>
      <trkpt lat="44.11204" lon="7.05799">
        <ele>1693.4000244141</ele>
        <time>2020-07-30T09:42:22.000Z</time>
      </trkpt>
      <trkpt lat="44.11204" lon="7.05797">
        <ele>1694</ele>
        <time>2020-07-30T09:42:23.000Z</time>
      </trkpt>
      <trkpt lat="44.11204" lon="7.05791">
        <ele>1694.8000488281</ele>
        <time>2020-07-30T09:42:25.000Z</time>
      </trkpt>
      <trkpt lat="44.11204" lon="7.0579">
        <ele>1695.8000488281</ele>
        <time>2020-07-30T09:42:27.000Z</time>
      </trkpt>
      <trkpt lat="44.11204" lon="7.05788">
        <ele>1696.8000488281</ele>
        <time>2020-07-30T09:42:29.000Z</time>
      </trkpt>
      <trkpt lat="44.11204" lon="7.05787">
        <ele>1697.4000244141</ele>
        <time>2020-07-30T09:42:33.000Z</time>
      </trkpt>
      <trkpt lat="44.11203" lon="7.05785">
        <ele>1697.5999755859</ele>
        <time>2020-07-30T09:42:43.000Z</time>
      </trkpt>
      <trkpt lat="44.11204" lon="7.05781">
        <ele>1698</ele>
        <time>2020-07-30T09:42:49.000Z</time>
      </trkpt>
      <trkpt lat="44.11205" lon="7.05776">
        <ele>1699.1999511719</ele>
        <time>2020-07-30T09:42:56.000Z</time>
      </trkpt>
      <trkpt lat="44.11206" lon="7.05772">
        <ele>1700.1999511719</ele>
        <time>2020-07-30T09:43:03.000Z</time>
      </trkpt>
      <trkpt lat="44.11206" lon="7.0577">
        <ele>1700.5999755859</ele>
        <time>2020-07-30T09:43:08.000Z</time>
      </trkpt>
      <trkpt lat="44.11207" lon="7.05766">
        <ele>1701.1999511719</ele>
        <time>2020-07-30T09:43:17.000Z</time>
      </trkpt>
      <trkpt lat="44.11207" lon="7.05766">
        <ele>1701.1999511719</ele>
        <time>2020-07-30T09:43:18.000Z</time>
      </trkpt>
      <trkpt lat="44.11208" lon="7.05761">
        <ele>1701.8000488281</ele>
        <time>2020-07-30T09:43:24.000Z</time>
      </trkpt>
      <trkpt lat="44.11209" lon="7.0576">
        <ele>1702.4000244141</ele>
        <time>2020-07-30T09:43:27.000Z</time>
      </trkpt>
      <trkpt lat="44.11209" lon="7.05759">
        <ele>1702.5999755859</ele>
        <time>2020-07-30T09:43:30.000Z</time>
      </trkpt>
      <trkpt lat="44.11209" lon="7.05757">
        <ele>1703.1999511719</ele>
        <time>2020-07-30T09:43:36.000Z</time>
      </trkpt>
      <trkpt lat="44.1121" lon="7.05756">
        <ele>1703.4000244141</ele>
        <time>2020-07-30T09:43:37.000Z</time>
      </trkpt>
      <trkpt lat="44.1121" lon="7.05756">
        <ele>1704</ele>
        <time>2020-07-30T09:43:43.000Z</time>
      </trkpt>
      <trkpt lat="44.11212" lon="7.05754">
        <ele>1704.4000244141</ele>
        <time>2020-07-30T09:43:50.000Z</time>
      </trkpt>
      <trkpt lat="44.11216" lon="7.05749">
        <ele>1704.8000488281</ele>
        <time>2020-07-30T09:43:57.000Z</time>
      </trkpt>
      <trkpt lat="44.11218" lon="7.05746">
        <ele>1705.1999511719</ele>
        <time>2020-07-30T09:44:03.000Z</time>
      </trkpt>
      <trkpt lat="44.11218" lon="7.05745">
        <ele>1705.4000244141</ele>
        <time>2020-07-30T09:44:05.000Z</time>
      </trkpt>
      <trkpt lat="44.11221" lon="7.05741">
        <ele>1706.1999511719</ele>
        <time>2020-07-30T09:44:10.000Z</time>
      </trkpt>
      <trkpt lat="44.11222" lon="7.05739">
        <ele>1706.5999755859</ele>
        <time>2020-07-30T09:44:12.000Z</time>
      </trkpt>
      <trkpt lat="44.11223" lon="7.05735">
        <ele>1707.1999511719</ele>
        <time>2020-07-30T09:44:17.000Z</time>
      </trkpt>
      <trkpt lat="44.11223" lon="7.05734">
        <ele>1707.5999755859</ele>
        <time>2020-07-30T09:44:20.000Z</time>
      </trkpt>
      <trkpt lat="44.11224" lon="7.05731">
        <ele>1708</ele>
        <time>2020-07-30T09:44:24.000Z</time>
      </trkpt>
      <trkpt lat="44.11226" lon="7.05729">
        <ele>1708.5999755859</ele>
        <time>2020-07-30T09:44:28.000Z</time>
      </trkpt>
      <trkpt lat="44.11226" lon="7.05728">
        <ele>1708.8000488281</ele>
        <time>2020-07-30T09:44:31.000Z</time>
      </trkpt>
      <trkpt lat="44.11228" lon="7.05724">
        <ele>1708.8000488281</ele>
        <time>2020-07-30T09:44:39.000Z</time>
      </trkpt>
      <trkpt lat="44.11233" lon="7.05713">
        <ele>1709.8000488281</ele>
        <time>2020-07-30T09:44:45.000Z</time>
      </trkpt>
      <trkpt lat="44.11234" lon="7.05709">
        <ele>1710.1999511719</ele>
        <time>2020-07-30T09:44:47.000Z</time>
      </trkpt>
      <trkpt lat="44.11234" lon="7.05708">
        <ele>1710.5999755859</ele>
        <time>2020-07-30T09:44:49.000Z</time>
      </trkpt>
      <trkpt lat="44.11235" lon="7.05707">
        <ele>1711</ele>
        <time>2020-07-30T09:44:50.000Z</time>
      </trkpt>
      <trkpt lat="44.11238" lon="7.05703">
        <ele>1711.4000244141</ele>
        <time>2020-07-30T09:44:54.000Z</time>
      </trkpt>
      <trkpt lat="44.11239" lon="7.05701">
        <ele>1711.4000244141</ele>
        <time>2020-07-30T09:44:55.000Z</time>
      </trkpt>
      <trkpt lat="44.11243" lon="7.05697">
        <ele>1711.8000488281</ele>
        <time>2020-07-30T09:44:58.000Z</time>
      </trkpt>
      <trkpt lat="44.11244" lon="7.05695">
        <ele>1712</ele>
        <time>2020-07-30T09:44:59.000Z</time>
      </trkpt>
      <trkpt lat="44.11246" lon="7.05693">
        <ele>1712.1999511719</ele>
        <time>2020-07-30T09:45:00.000Z</time>
      </trkpt>
      <trkpt lat="44.11251" lon="7.05679">
        <ele>1713.1999511719</ele>
        <time>2020-07-30T09:45:05.000Z</time>
      </trkpt>
      <trkpt lat="44.11252" lon="7.05677">
        <ele>1713.5999755859</ele>
        <time>2020-07-30T09:45:06.000Z</time>
      </trkpt>
      <trkpt lat="44.11253" lon="7.05674">
        <ele>1714.5999755859</ele>
        <time>2020-07-30T09:45:08.000Z</time>
      </trkpt>
      <trkpt lat="44.11251" lon="7.05671">
        <ele>1715.4000244141</ele>
        <time>2020-07-30T09:45:10.000Z</time>
      </trkpt>
      <trkpt lat="44.11251" lon="7.05671">
        <ele>1715.8000488281</ele>
        <time>2020-07-30T09:45:11.000Z</time>
      </trkpt>
      <trkpt lat="44.11251" lon="7.05671">
        <ele>1716.5999755859</ele>
        <time>2020-07-30T09:45:15.000Z</time>
      </trkpt>
      <trkpt lat="44.11251" lon="7.05671">
        <ele>1717</ele>
        <time>2020-07-30T09:45:18.000Z</time>
      </trkpt>
      <trkpt lat="44.11251" lon="7.05671">
        <ele>1716.8000488281</ele>
        <time>2020-07-30T09:45:23.000Z</time>
      </trkpt>
      <trkpt lat="44.11251" lon="7.05668">
        <ele>1717.5999755859</ele>
        <time>2020-07-30T09:45:30.000Z</time>
      </trkpt>
      <trkpt lat="44.11252" lon="7.05665">
        <ele>1718</ele>
        <time>2020-07-30T09:45:36.000Z</time>
      </trkpt>
      <trkpt lat="44.11253" lon="7.05661">
        <ele>1719</ele>
        <time>2020-07-30T09:45:43.000Z</time>
      </trkpt>
      <trkpt lat="44.11252" lon="7.05657">
        <ele>1719.1999511719</ele>
        <time>2020-07-30T09:45:51.000Z</time>
      </trkpt>
      <trkpt lat="44.11252" lon="7.05655">
        <ele>1719.1999511719</ele>
        <time>2020-07-30T09:45:52.000Z</time>
      </trkpt>
      <trkpt lat="44.11256" lon="7.05647">
        <ele>1720</ele>
        <time>2020-07-30T09:45:56.000Z</time>
      </trkpt>
      <trkpt lat="44.11258" lon="7.05644">
        <ele>1721.1999511719</ele>
        <time>2020-07-30T09:45:59.000Z</time>
      </trkpt>
      <trkpt lat="44.1126" lon="7.05642">
        <ele>1721.4000244141</ele>
        <time>2020-07-30T09:46:00.000Z</time>
      </trkpt>
      <trkpt lat="44.11263" lon="7.05639">
        <ele>1721.4000244141</ele>
        <time>2020-07-30T09:46:02.000Z</time>
      </trkpt>
      <trkpt lat="44.11266" lon="7.05634">
        <ele>1721.4000244141</ele>
        <time>2020-07-30T09:46:05.000Z</time>
      </trkpt>
      <trkpt lat="44.11269" lon="7.05631">
        <ele>1721.5999755859</ele>
        <time>2020-07-30T09:46:07.000Z</time>
      </trkpt>
      <trkpt lat="44.11269" lon="7.05629">
        <ele>1721.8000488281</ele>
        <time>2020-07-30T09:46:08.000Z</time>
      </trkpt>
      <trkpt lat="44.11272" lon="7.05622">
        <ele>1722.1999511719</ele>
        <time>2020-07-30T09:46:11.000Z</time>
      </trkpt>
      <trkpt lat="44.11277" lon="7.05619">
        <ele>1722.8000488281</ele>
        <time>2020-07-30T09:46:14.000Z</time>
      </trkpt>
      <trkpt lat="44.11278" lon="7.05618">
        <ele>1723.1999511719</ele>
        <time>2020-07-30T09:46:15.000Z</time>
      </trkpt>
      <trkpt lat="44.11284" lon="7.05613">
        <ele>1724.1999511719</ele>
        <time>2020-07-30T09:46:19.000Z</time>
      </trkpt>
      <trkpt lat="44.11286" lon="7.05611">
        <ele>1724.4000244141</ele>
        <time>2020-07-30T09:46:20.000Z</time>
      </trkpt>
      <trkpt lat="44.11296" lon="7.05602">
        <ele>1725.5999755859</ele>
        <time>2020-07-30T09:46:26.000Z</time>
      </trkpt>
      <trkpt lat="44.11305" lon="7.05592">
        <ele>1726.8000488281</ele>
        <time>2020-07-30T09:46:31.000Z</time>
      </trkpt>
      <trkpt lat="44.11308" lon="7.05589">
        <ele>1727.8000488281</ele>
        <time>2020-07-30T09:46:33.000Z</time>
      </trkpt>
      <trkpt lat="44.11309" lon="7.05587">
        <ele>1728</ele>
        <time>2020-07-30T09:46:34.000Z</time>
      </trkpt>
      <trkpt lat="44.1131" lon="7.05586">
        <ele>1729.1999511719</ele>
        <time>2020-07-30T09:46:37.000Z</time>
      </trkpt>
      <trkpt lat="44.1131" lon="7.05586">
        <ele>1730.4000244141</ele>
        <time>2020-07-30T09:46:40.000Z</time>
      </trkpt>
      <trkpt lat="44.11312" lon="7.05583">
        <ele>1730.1999511719</ele>
        <time>2020-07-30T09:46:46.000Z</time>
      </trkpt>
      <trkpt lat="44.11316" lon="7.05581">
        <ele>1730.8000488281</ele>
        <time>2020-07-30T09:46:50.000Z</time>
      </trkpt>
      <trkpt lat="44.11322" lon="7.05575">
        <ele>1731.4000244141</ele>
        <time>2020-07-30T09:46:55.000Z</time>
      </trkpt>
      <trkpt lat="44.11324" lon="7.05575">
        <ele>1732.1999511719</ele>
        <time>2020-07-30T09:46:58.000Z</time>
      </trkpt>
      <trkpt lat="44.11325" lon="7.05576">
        <ele>1732.5999755859</ele>
        <time>2020-07-30T09:46:59.000Z</time>
      </trkpt>
      <trkpt lat="44.11327" lon="7.05572">
        <ele>1733.1999511719</ele>
        <time>2020-07-30T09:47:04.000Z</time>
      </trkpt>
      <trkpt lat="44.11332" lon="7.05562">
        <ele>1733.5999755859</ele>
        <time>2020-07-30T09:47:08.000Z</time>
      </trkpt>
      <trkpt lat="44.11333" lon="7.0556">
        <ele>1734</ele>
        <time>2020-07-30T09:47:09.000Z</time>
      </trkpt>
      <trkpt lat="44.1134" lon="7.05553">
        <ele>1734.5999755859</ele>
        <time>2020-07-30T09:47:13.000Z</time>
      </trkpt>
      <trkpt lat="44.11344" lon="7.05549">
        <ele>1734.8000488281</ele>
        <time>2020-07-30T09:47:15.000Z</time>
      </trkpt>
      <trkpt lat="44.11351" lon="7.05544">
        <ele>1735.1999511719</ele>
        <time>2020-07-30T09:47:20.000Z</time>
      </trkpt>
      <trkpt lat="44.11355" lon="7.05538">
        <ele>1736</ele>
        <time>2020-07-30T09:47:23.000Z</time>
      </trkpt>
      <trkpt lat="44.11359" lon="7.05534">
        <ele>1737</ele>
        <time>2020-07-30T09:47:26.000Z</time>
      </trkpt>
      <trkpt lat="44.11365" lon="7.05525">
        <ele>1737.4000244141</ele>
        <time>2020-07-30T09:47:31.000Z</time>
      </trkpt>
      <trkpt lat="44.1137" lon="7.05519">
        <ele>1738</ele>
        <time>2020-07-30T09:47:35.000Z</time>
      </trkpt>
      <trkpt lat="44.11372" lon="7.05517">
        <ele>1738.1999511719</ele>
        <time>2020-07-30T09:47:36.000Z</time>
      </trkpt>
      <trkpt lat="44.11375" lon="7.05511">
        <ele>1739.1999511719</ele>
        <time>2020-07-30T09:47:39.000Z</time>
      </trkpt>
      <trkpt lat="44.11376" lon="7.0551">
        <ele>1740</ele>
        <time>2020-07-30T09:47:41.000Z</time>
      </trkpt>
      <trkpt lat="44.11376" lon="7.05509">
        <ele>1740.4000244141</ele>
        <time>2020-07-30T09:47:42.000Z</time>
      </trkpt>
      <trkpt lat="44.11378" lon="7.05506">
        <ele>1741</ele>
        <time>2020-07-30T09:47:47.000Z</time>
      </trkpt>
      <trkpt lat="44.11381" lon="7.05503">
        <ele>1741.4000244141</ele>
        <time>2020-07-30T09:47:50.000Z</time>
      </trkpt>
      <trkpt lat="44.11381" lon="7.05502">
        <ele>1741.5999755859</ele>
        <time>2020-07-30T09:47:51.000Z</time>
      </trkpt>
      <trkpt lat="44.11383" lon="7.055">
        <ele>1741.8000488281</ele>
        <time>2020-07-30T09:47:53.000Z</time>
      </trkpt>
      <trkpt lat="44.11387" lon="7.05495">
        <ele>1742.4000244141</ele>
        <time>2020-07-30T09:47:56.000Z</time>
      </trkpt>
      <trkpt lat="44.11395" lon="7.05485">
        <ele>1742.5999755859</ele>
        <time>2020-07-30T09:48:01.000Z</time>
      </trkpt>
      <trkpt lat="44.114" lon="7.05479">
        <ele>1743.5999755859</ele>
        <time>2020-07-30T09:48:04.000Z</time>
      </trkpt>
      <trkpt lat="44.11401" lon="7.05477">
        <ele>1744.5999755859</ele>
        <time>2020-07-30T09:48:07.000Z</time>
      </trkpt>
      <trkpt lat="44.11401" lon="7.05476">
        <ele>1744.8000488281</ele>
        <time>2020-07-30T09:48:08.000Z</time>
      </trkpt>
      <trkpt lat="44.11404" lon="7.05473">
        <ele>1745.4000244141</ele>
        <time>2020-07-30T09:48:12.000Z</time>
      </trkpt>
      <trkpt lat="44.11406" lon="7.05469">
        <ele>1745.5999755859</ele>
        <time>2020-07-30T09:48:14.000Z</time>
      </trkpt>
      <trkpt lat="44.11407" lon="7.05466">
        <ele>1746</ele>
        <time>2020-07-30T09:48:15.000Z</time>
      </trkpt>
      <trkpt lat="44.11409" lon="7.05462">
        <ele>1747.1999511719</ele>
        <time>2020-07-30T09:48:18.000Z</time>
      </trkpt>
      <trkpt lat="44.11409" lon="7.05461">
        <ele>1748.4000244141</ele>
        <time>2020-07-30T09:48:21.000Z</time>
      </trkpt>
      <trkpt lat="44.1141" lon="7.0546">
        <ele>1748.4000244141</ele>
        <time>2020-07-30T09:48:24.000Z</time>
      </trkpt>
      <trkpt lat="44.11411" lon="7.05457">
        <ele>1749.4000244141</ele>
        <time>2020-07-30T09:48:32.000Z</time>
      </trkpt>
      <trkpt lat="44.11414" lon="7.05453">
        <ele>1750.1999511719</ele>
        <time>2020-07-30T09:48:40.000Z</time>
      </trkpt>
      <trkpt lat="44.11414" lon="7.05453">
        <ele>1750.4000244141</ele>
        <time>2020-07-30T09:48:42.000Z</time>
      </trkpt>
      <trkpt lat="44.11414" lon="7.05451">
        <ele>1750.4000244141</ele>
        <time>2020-07-30T09:48:56.000Z</time>
      </trkpt>
      <trkpt lat="44.11418" lon="7.05448">
        <ele>1750.4000244141</ele>
        <time>2020-07-30T09:49:07.000Z</time>
      </trkpt>
      <trkpt lat="44.11425" lon="7.05444">
        <ele>1751.4000244141</ele>
        <time>2020-07-30T09:49:12.000Z</time>
      </trkpt>
      <trkpt lat="44.11425" lon="7.05445">
        <ele>1752.1999511719</ele>
        <time>2020-07-30T09:49:13.000Z</time>
      </trkpt>
      <trkpt lat="44.11426" lon="7.05443">
        <ele>1753.4000244141</ele>
        <time>2020-07-30T09:49:17.000Z</time>
      </trkpt>
      <trkpt lat="44.11427" lon="7.05442">
        <ele>1753.4000244141</ele>
        <time>2020-07-30T09:49:18.000Z</time>
      </trkpt>
      <trkpt lat="44.11427" lon="7.0544">
        <ele>1754.4000244141</ele>
        <time>2020-07-30T09:49:24.000Z</time>
      </trkpt>
      <trkpt lat="44.11434" lon="7.05431">
        <ele>1755</ele>
        <time>2020-07-30T09:49:30.000Z</time>
      </trkpt>
      <trkpt lat="44.11434" lon="7.05432">
        <ele>1755.4000244141</ele>
        <time>2020-07-30T09:49:31.000Z</time>
      </trkpt>
      <trkpt lat="44.11434" lon="7.05432">
        <ele>1756.1999511719</ele>
        <time>2020-07-30T09:49:33.000Z</time>
      </trkpt>
      <trkpt lat="44.11434" lon="7.05432">
        <ele>1756.5999755859</ele>
        <time>2020-07-30T09:49:34.000Z</time>
      </trkpt>
      <trkpt lat="44.11435" lon="7.0543">
        <ele>1756.8000488281</ele>
        <time>2020-07-30T09:49:39.000Z</time>
      </trkpt>
      <trkpt lat="44.11436" lon="7.05429">
        <ele>1757.8000488281</ele>
        <time>2020-07-30T09:49:46.000Z</time>
      </trkpt>
      <trkpt lat="44.11436" lon="7.05428">
        <ele>1757.8000488281</ele>
        <time>2020-07-30T09:49:47.000Z</time>
      </trkpt>
      <trkpt lat="44.11437" lon="7.05427">
        <ele>1758.5999755859</ele>
        <time>2020-07-30T09:49:54.000Z</time>
      </trkpt>
      <trkpt lat="44.11437" lon="7.05427">
        <ele>1758.8000488281</ele>
        <time>2020-07-30T09:49:55.000Z</time>
      </trkpt>
      <trkpt lat="44.11437" lon="7.05426">
        <ele>1758.5999755859</ele>
        <time>2020-07-30T09:49:59.000Z</time>
      </trkpt>
      <trkpt lat="44.11437" lon="7.05426">
        <ele>1759.1999511719</ele>
        <time>2020-07-30T09:50:11.000Z</time>
      </trkpt>
      <trkpt lat="44.11438" lon="7.05425">
        <ele>1759.1999511719</ele>
        <time>2020-07-30T09:50:16.000Z</time>
      </trkpt>
      <trkpt lat="44.11438" lon="7.05424">
        <ele>1759</ele>
        <time>2020-07-30T09:50:23.000Z</time>
      </trkpt>
      <trkpt lat="44.11438" lon="7.05422">
        <ele>1759.8000488281</ele>
        <time>2020-07-30T09:50:29.000Z</time>
      </trkpt>
      <trkpt lat="44.11439" lon="7.05422">
        <ele>1760.1999511719</ele>
        <time>2020-07-30T09:50:36.000Z</time>
      </trkpt>
      <trkpt lat="44.11441" lon="7.05422">
        <ele>1760.8000488281</ele>
        <time>2020-07-30T09:50:42.000Z</time>
      </trkpt>
      <trkpt lat="44.11442" lon="7.05422">
        <ele>1761</ele>
        <time>2020-07-30T09:50:43.000Z</time>
      </trkpt>
      <trkpt lat="44.11444" lon="7.05423">
        <ele>1761.8000488281</ele>
        <time>2020-07-30T09:50:48.000Z</time>
      </trkpt>
      <trkpt lat="44.11444" lon="7.05423">
        <ele>1762.4000244141</ele>
        <time>2020-07-30T09:50:51.000Z</time>
      </trkpt>
      <trkpt lat="44.11445" lon="7.05422">
        <ele>1762.8000488281</ele>
        <time>2020-07-30T09:50:58.000Z</time>
      </trkpt>
      <trkpt lat="44.11445" lon="7.05422">
        <ele>1763</ele>
        <time>2020-07-30T09:50:59.000Z</time>
      </trkpt>
      <trkpt lat="44.11447" lon="7.05418">
        <ele>1763.8000488281</ele>
        <time>2020-07-30T09:51:05.000Z</time>
      </trkpt>
      <trkpt lat="44.11448" lon="7.05418">
        <ele>1764</ele>
        <time>2020-07-30T09:51:06.000Z</time>
      </trkpt>
      <trkpt lat="44.11451" lon="7.05416">
        <ele>1764.8000488281</ele>
        <time>2020-07-30T09:51:12.000Z</time>
      </trkpt>
      <trkpt lat="44.11451" lon="7.05416">
        <ele>1765</ele>
        <time>2020-07-30T09:51:13.000Z</time>
      </trkpt>
      <trkpt lat="44.11452" lon="7.05415">
        <ele>1766</ele>
        <time>2020-07-30T09:51:20.000Z</time>
      </trkpt>
      <trkpt lat="44.11452" lon="7.05415">
        <ele>1766.1999511719</ele>
        <time>2020-07-30T09:51:27.000Z</time>
      </trkpt>
      <trkpt lat="44.11454" lon="7.05413">
        <ele>1766.4000244141</ele>
        <time>2020-07-30T09:51:35.000Z</time>
      </trkpt>
      <trkpt lat="44.11454" lon="7.05413">
        <ele>1767</ele>
        <time>2020-07-30T09:51:40.000Z</time>
      </trkpt>
      <trkpt lat="44.11454" lon="7.05412">
        <ele>1767.1999511719</ele>
        <time>2020-07-30T09:51:41.000Z</time>
      </trkpt>
      <trkpt lat="44.11456" lon="7.05409">
        <ele>1767.8000488281</ele>
        <time>2020-07-30T09:51:47.000Z</time>
      </trkpt>
      <trkpt lat="44.11457" lon="7.05408">
        <ele>1768</ele>
        <time>2020-07-30T09:51:48.000Z</time>
      </trkpt>
      <trkpt lat="44.11457" lon="7.05408">
        <ele>1768.4000244141</ele>
        <time>2020-07-30T09:51:54.000Z</time>
      </trkpt>
      <trkpt lat="44.11461" lon="7.05404">
        <ele>1768.5999755859</ele>
        <time>2020-07-30T09:51:59.000Z</time>
      </trkpt>
      <trkpt lat="44.11463" lon="7.05402">
        <ele>1769.4000244141</ele>
        <time>2020-07-30T09:52:02.000Z</time>
      </trkpt>
      <trkpt lat="44.11465" lon="7.054">
        <ele>1770.1999511719</ele>
        <time>2020-07-30T09:52:04.000Z</time>
      </trkpt>
      <trkpt lat="44.11466" lon="7.05399">
        <ele>1770.1999511719</ele>
        <time>2020-07-30T09:52:05.000Z</time>
      </trkpt>
      <trkpt lat="44.11468" lon="7.054">
        <ele>1770.5999755859</ele>
        <time>2020-07-30T09:52:06.000Z</time>
      </trkpt>
      <trkpt lat="44.11471" lon="7.05401">
        <ele>1771.1999511719</ele>
        <time>2020-07-30T09:52:09.000Z</time>
      </trkpt>
      <trkpt lat="44.11473" lon="7.05401">
        <ele>1771.5999755859</ele>
        <time>2020-07-30T09:52:10.000Z</time>
      </trkpt>
      <trkpt lat="44.11476" lon="7.05402">
        <ele>1772.8000488281</ele>
        <time>2020-07-30T09:52:13.000Z</time>
      </trkpt>
      <trkpt lat="44.11476" lon="7.05402">
        <ele>1773.4000244141</ele>
        <time>2020-07-30T09:52:14.000Z</time>
      </trkpt>
      <trkpt lat="44.11477" lon="7.05402">
        <ele>1774.1999511719</ele>
        <time>2020-07-30T09:52:16.000Z</time>
      </trkpt>
      <trkpt lat="44.11477" lon="7.05402">
        <ele>1775</ele>
        <time>2020-07-30T09:52:21.000Z</time>
      </trkpt>
      <trkpt lat="44.1148" lon="7.05401">
        <ele>1775.4000244141</ele>
        <time>2020-07-30T09:52:27.000Z</time>
      </trkpt>
      <trkpt lat="44.11481" lon="7.054">
        <ele>1775.8000488281</ele>
        <time>2020-07-30T09:52:29.000Z</time>
      </trkpt>
      <trkpt lat="44.11482" lon="7.05397">
        <ele>1776.4000244141</ele>
        <time>2020-07-30T09:52:35.000Z</time>
      </trkpt>
      <trkpt lat="44.11482" lon="7.05397">
        <ele>1776.4000244141</ele>
        <time>2020-07-30T09:52:36.000Z</time>
      </trkpt>
      <trkpt lat="44.11483" lon="7.05396">
        <ele>1776.5999755859</ele>
        <time>2020-07-30T09:52:42.000Z</time>
      </trkpt>
      <trkpt lat="44.11485" lon="7.05392">
        <ele>1776.8000488281</ele>
        <time>2020-07-30T09:52:44.000Z</time>
      </trkpt>
      <trkpt lat="44.11488" lon="7.05388">
        <ele>1777.5999755859</ele>
        <time>2020-07-30T09:52:47.000Z</time>
      </trkpt>
      <trkpt lat="44.11488" lon="7.05388">
        <ele>1778.1999511719</ele>
        <time>2020-07-30T09:52:49.000Z</time>
      </trkpt>
      <trkpt lat="44.1149" lon="7.05383">
        <ele>1778.5999755859</ele>
        <time>2020-07-30T09:52:52.000Z</time>
      </trkpt>
      <trkpt lat="44.11492" lon="7.05379">
        <ele>1778.5999755859</ele>
        <time>2020-07-30T09:52:54.000Z</time>
      </trkpt>
      <trkpt lat="44.11494" lon="7.05377">
        <ele>1779.4000244141</ele>
        <time>2020-07-30T09:52:59.000Z</time>
      </trkpt>
      <trkpt lat="44.11495" lon="7.05375">
        <ele>1779.5999755859</ele>
        <time>2020-07-30T09:53:06.000Z</time>
      </trkpt>
      <trkpt lat="44.11496" lon="7.05375">
        <ele>1780.5999755859</ele>
        <time>2020-07-30T09:53:14.000Z</time>
      </trkpt>
      <trkpt lat="44.11497" lon="7.05375">
        <ele>1780.5999755859</ele>
        <time>2020-07-30T09:53:15.000Z</time>
      </trkpt>
      <trkpt lat="44.11499" lon="7.05374">
        <ele>1781.4000244141</ele>
        <time>2020-07-30T09:53:21.000Z</time>
      </trkpt>
      <trkpt lat="44.115" lon="7.05373">
        <ele>1781.5999755859</ele>
        <time>2020-07-30T09:53:26.000Z</time>
      </trkpt>
      <trkpt lat="44.115" lon="7.05374">
        <ele>1781.8000488281</ele>
        <time>2020-07-30T09:53:32.000Z</time>
      </trkpt>
      <trkpt lat="44.115" lon="7.05375">
        <ele>1782</ele>
        <time>2020-07-30T09:53:43.000Z</time>
      </trkpt>
      <trkpt lat="44.115" lon="7.05375">
        <ele>1782</ele>
        <time>2020-07-30T09:54:07.000Z</time>
      </trkpt>
      <trkpt lat="44.11501" lon="7.05376">
        <ele>1782</ele>
        <time>2020-07-30T09:54:14.000Z</time>
      </trkpt>
      <trkpt lat="44.11503" lon="7.05378">
        <ele>1782.8000488281</ele>
        <time>2020-07-30T09:54:19.000Z</time>
      </trkpt>
      <trkpt lat="44.11505" lon="7.05379">
        <ele>1783.4000244141</ele>
        <time>2020-07-30T09:54:23.000Z</time>
      </trkpt>
      <trkpt lat="44.11506" lon="7.0538">
        <ele>1783.8000488281</ele>
        <time>2020-07-30T09:54:25.000Z</time>
      </trkpt>
      <trkpt lat="44.11509" lon="7.05384">
        <ele>1785</ele>
        <time>2020-07-30T09:54:31.000Z</time>
      </trkpt>
      <trkpt lat="44.11509" lon="7.05383">
        <ele>1785.1999511719</ele>
        <time>2020-07-30T09:54:32.000Z</time>
      </trkpt>
      <trkpt lat="44.1151" lon="7.05385">
        <ele>1786</ele>
        <time>2020-07-30T09:54:38.000Z</time>
      </trkpt>
      <trkpt lat="44.1151" lon="7.05384">
        <ele>1786</ele>
        <time>2020-07-30T09:54:47.000Z</time>
      </trkpt>
      <trkpt lat="44.1151" lon="7.05384">
        <ele>1785.8000488281</ele>
        <time>2020-07-30T09:55:02.000Z</time>
      </trkpt>
      <trkpt lat="44.11511" lon="7.05382">
        <ele>1785.8000488281</ele>
        <time>2020-07-30T09:55:07.000Z</time>
      </trkpt>
      <trkpt lat="44.11513" lon="7.05381">
        <ele>1786</ele>
        <time>2020-07-30T09:55:09.000Z</time>
      </trkpt>
      <trkpt lat="44.11514" lon="7.05379">
        <ele>1786</ele>
        <time>2020-07-30T09:55:10.000Z</time>
      </trkpt>
      <trkpt lat="44.11521" lon="7.05369">
        <ele>1786.8000488281</ele>
        <time>2020-07-30T09:55:15.000Z</time>
      </trkpt>
      <trkpt lat="44.11523" lon="7.05369">
        <ele>1787.1999511719</ele>
        <time>2020-07-30T09:55:16.000Z</time>
      </trkpt>
      <trkpt lat="44.11528" lon="7.05367">
        <ele>1788.4000244141</ele>
        <time>2020-07-30T09:55:19.000Z</time>
      </trkpt>
      <trkpt lat="44.11529" lon="7.05366">
        <ele>1789</ele>
        <time>2020-07-30T09:55:20.000Z</time>
      </trkpt>
      <trkpt lat="44.11534" lon="7.05364">
        <ele>1789.8000488281</ele>
        <time>2020-07-30T09:55:22.000Z</time>
      </trkpt>
      <trkpt lat="44.11535" lon="7.05363">
        <ele>1790.1999511719</ele>
        <time>2020-07-30T09:55:23.000Z</time>
      </trkpt>
      <trkpt lat="44.11538" lon="7.0536">
        <ele>1791</ele>
        <time>2020-07-30T09:55:25.000Z</time>
      </trkpt>
      <trkpt lat="44.11539" lon="7.05359">
        <ele>1792.5999755859</ele>
        <time>2020-07-30T09:55:28.000Z</time>
      </trkpt>
      <trkpt lat="44.11539" lon="7.05359">
        <ele>1792.5999755859</ele>
        <time>2020-07-30T09:55:29.000Z</time>
      </trkpt>
      <trkpt lat="44.1154" lon="7.05358">
        <ele>1793.5999755859</ele>
        <time>2020-07-30T09:55:35.000Z</time>
      </trkpt>
      <trkpt lat="44.11541" lon="7.05358">
        <ele>1793.8000488281</ele>
        <time>2020-07-30T09:55:38.000Z</time>
      </trkpt>
      <trkpt lat="44.11544" lon="7.05356">
        <ele>1794.1999511719</ele>
        <time>2020-07-30T09:55:41.000Z</time>
      </trkpt>
      <trkpt lat="44.11544" lon="7.05355">
        <ele>1794.5999755859</ele>
        <time>2020-07-30T09:55:43.000Z</time>
      </trkpt>
      <trkpt lat="44.11544" lon="7.05356">
        <ele>1795</ele>
        <time>2020-07-30T09:55:45.000Z</time>
      </trkpt>
      <trkpt lat="44.1155" lon="7.05355">
        <ele>1795</ele>
        <time>2020-07-30T09:55:49.000Z</time>
      </trkpt>
      <trkpt lat="44.11554" lon="7.05354">
        <ele>1795.8000488281</ele>
        <time>2020-07-30T09:55:54.000Z</time>
      </trkpt>
      <trkpt lat="44.11556" lon="7.05353">
        <ele>1796</ele>
        <time>2020-07-30T09:55:55.000Z</time>
      </trkpt>
      <trkpt lat="44.1156" lon="7.05351">
        <ele>1797</ele>
        <time>2020-07-30T09:56:00.000Z</time>
      </trkpt>
      <trkpt lat="44.11561" lon="7.05351">
        <ele>1797</ele>
        <time>2020-07-30T09:56:01.000Z</time>
      </trkpt>
      <trkpt lat="44.11562" lon="7.0535">
        <ele>1797.8000488281</ele>
        <time>2020-07-30T09:56:07.000Z</time>
      </trkpt>
      <trkpt lat="44.11564" lon="7.05348">
        <ele>1798</ele>
        <time>2020-07-30T09:56:12.000Z</time>
      </trkpt>
      <trkpt lat="44.11564" lon="7.05348">
        <ele>1798</ele>
        <time>2020-07-30T09:56:13.000Z</time>
      </trkpt>
      <trkpt lat="44.11564" lon="7.05347">
        <ele>1798.1999511719</ele>
        <time>2020-07-30T09:56:15.000Z</time>
      </trkpt>
      <trkpt lat="44.11565" lon="7.05347">
        <ele>1798.1999511719</ele>
        <time>2020-07-30T09:56:17.000Z</time>
      </trkpt>
      <trkpt lat="44.11569" lon="7.05342">
        <ele>1798.8000488281</ele>
        <time>2020-07-30T09:56:22.000Z</time>
      </trkpt>
      <trkpt lat="44.11571" lon="7.0534">
        <ele>1799</ele>
        <time>2020-07-30T09:56:24.000Z</time>
      </trkpt>
      <trkpt lat="44.11572" lon="7.05337">
        <ele>1799.5999755859</ele>
        <time>2020-07-30T09:56:26.000Z</time>
      </trkpt>
      <trkpt lat="44.11573" lon="7.05337">
        <ele>1800</ele>
        <time>2020-07-30T09:56:28.000Z</time>
      </trkpt>
      <trkpt lat="44.11573" lon="7.05337">
        <ele>1800.4000244141</ele>
        <time>2020-07-30T09:56:29.000Z</time>
      </trkpt>
      <trkpt lat="44.11573" lon="7.05336">
        <ele>1801.4000244141</ele>
        <time>2020-07-30T09:56:37.000Z</time>
      </trkpt>
      <trkpt lat="44.11573" lon="7.05336">
        <ele>1801.5999755859</ele>
        <time>2020-07-30T09:56:38.000Z</time>
      </trkpt>
      <trkpt lat="44.11576" lon="7.05331">
        <ele>1802.1999511719</ele>
        <time>2020-07-30T09:56:44.000Z</time>
      </trkpt>
      <trkpt lat="44.11577" lon="7.05328">
        <ele>1802.8000488281</ele>
        <time>2020-07-30T09:56:47.000Z</time>
      </trkpt>
      <trkpt lat="44.11578" lon="7.05325">
        <ele>1803.8000488281</ele>
        <time>2020-07-30T09:56:51.000Z</time>
      </trkpt>
      <trkpt lat="44.11578" lon="7.05324">
        <ele>1804.1999511719</ele>
        <time>2020-07-30T09:56:53.000Z</time>
      </trkpt>
      <trkpt lat="44.11578" lon="7.05322">
        <ele>1804.8000488281</ele>
        <time>2020-07-30T09:56:57.000Z</time>
      </trkpt>
      <trkpt lat="44.11578" lon="7.05321">
        <ele>1805.4000244141</ele>
        <time>2020-07-30T09:57:00.000Z</time>
      </trkpt>
      <trkpt lat="44.1158" lon="7.05318">
        <ele>1806</ele>
        <time>2020-07-30T09:57:04.000Z</time>
      </trkpt>
      <trkpt lat="44.1158" lon="7.05318">
        <ele>1806</ele>
        <time>2020-07-30T09:57:05.000Z</time>
      </trkpt>
      <trkpt lat="44.11582" lon="7.05315">
        <ele>1806.1999511719</ele>
        <time>2020-07-30T09:57:11.000Z</time>
      </trkpt>
      <trkpt lat="44.1159" lon="7.05307">
        <ele>1807</ele>
        <time>2020-07-30T09:57:16.000Z</time>
      </trkpt>
      <trkpt lat="44.11593" lon="7.05304">
        <ele>1807.1999511719</ele>
        <time>2020-07-30T09:57:18.000Z</time>
      </trkpt>
      <trkpt lat="44.11599" lon="7.05295">
        <ele>1808</ele>
        <time>2020-07-30T09:57:23.000Z</time>
      </trkpt>
      <trkpt lat="44.11601" lon="7.0529">
        <ele>1808.5999755859</ele>
        <time>2020-07-30T09:57:25.000Z</time>
      </trkpt>
      <trkpt lat="44.11604" lon="7.05287">
        <ele>1809.1999511719</ele>
        <time>2020-07-30T09:57:27.000Z</time>
      </trkpt>
      <trkpt lat="44.11608" lon="7.05282">
        <ele>1810.4000244141</ele>
        <time>2020-07-30T09:57:30.000Z</time>
      </trkpt>
      <trkpt lat="44.11611" lon="7.0528">
        <ele>1811.1999511719</ele>
        <time>2020-07-30T09:57:32.000Z</time>
      </trkpt>
      <trkpt lat="44.11613" lon="7.05279">
        <ele>1811.4000244141</ele>
        <time>2020-07-30T09:57:33.000Z</time>
      </trkpt>
      <trkpt lat="44.11626" lon="7.05272">
        <ele>1812.1999511719</ele>
        <time>2020-07-30T09:57:39.000Z</time>
      </trkpt>
      <trkpt lat="44.11629" lon="7.0527">
        <ele>1812.4000244141</ele>
        <time>2020-07-30T09:57:40.000Z</time>
      </trkpt>
      <trkpt lat="44.11637" lon="7.05263">
        <ele>1812</ele>
        <time>2020-07-30T09:57:44.000Z</time>
      </trkpt>
      <trkpt lat="44.11644" lon="7.05253">
        <ele>1813.1999511719</ele>
        <time>2020-07-30T09:57:50.000Z</time>
      </trkpt>
      <trkpt lat="44.11645" lon="7.05251">
        <ele>1813.5999755859</ele>
        <time>2020-07-30T09:57:53.000Z</time>
      </trkpt>
      <trkpt lat="44.11646" lon="7.0525">
        <ele>1814.8000488281</ele>
        <time>2020-07-30T09:57:58.000Z</time>
      </trkpt>
      <trkpt lat="44.11647" lon="7.05245">
        <ele>1815.8000488281</ele>
        <time>2020-07-30T09:58:04.000Z</time>
      </trkpt>
      <trkpt lat="44.11648" lon="7.05244">
        <ele>1816</ele>
        <time>2020-07-30T09:58:05.000Z</time>
      </trkpt>
      <trkpt lat="44.1165" lon="7.05243">
        <ele>1816.4000244141</ele>
        <time>2020-07-30T09:58:10.000Z</time>
      </trkpt>
      <trkpt lat="44.11658" lon="7.05234">
        <ele>1816.8000488281</ele>
        <time>2020-07-30T09:58:16.000Z</time>
      </trkpt>
      <trkpt lat="44.1166" lon="7.05233">
        <ele>1817</ele>
        <time>2020-07-30T09:58:17.000Z</time>
      </trkpt>
      <trkpt lat="44.11674" lon="7.05225">
        <ele>1817.1999511719</ele>
        <time>2020-07-30T09:58:22.000Z</time>
      </trkpt>
      <trkpt lat="44.1168" lon="7.05219">
        <ele>1817</ele>
        <time>2020-07-30T09:58:26.000Z</time>
      </trkpt>
      <trkpt lat="44.11686" lon="7.05208">
        <ele>1818.1999511719</ele>
        <time>2020-07-30T09:58:31.000Z</time>
      </trkpt>
      <trkpt lat="44.11688" lon="7.05204">
        <ele>1818.8000488281</ele>
        <time>2020-07-30T09:58:33.000Z</time>
      </trkpt>
      <trkpt lat="44.1169" lon="7.052">
        <ele>1819.5999755859</ele>
        <time>2020-07-30T09:58:35.000Z</time>
      </trkpt>
      <trkpt lat="44.11692" lon="7.05196">
        <ele>1820.5999755859</ele>
        <time>2020-07-30T09:58:37.000Z</time>
      </trkpt>
      <trkpt lat="44.11694" lon="7.05192">
        <ele>1821.5999755859</ele>
        <time>2020-07-30T09:58:39.000Z</time>
      </trkpt>
      <trkpt lat="44.11698" lon="7.05187">
        <ele>1822.8000488281</ele>
        <time>2020-07-30T09:58:42.000Z</time>
      </trkpt>
      <trkpt lat="44.11699" lon="7.05187">
        <ele>1823</ele>
        <time>2020-07-30T09:58:43.000Z</time>
      </trkpt>
      <trkpt lat="44.117" lon="7.05187">
        <ele>1823.4000244141</ele>
        <time>2020-07-30T09:58:44.000Z</time>
      </trkpt>
      <trkpt lat="44.11703" lon="7.05184">
        <ele>1823.8000488281</ele>
        <time>2020-07-30T09:58:46.000Z</time>
      </trkpt>
      <trkpt lat="44.11705" lon="7.05177">
        <ele>1824.4000244141</ele>
        <time>2020-07-30T09:58:49.000Z</time>
      </trkpt>
      <trkpt lat="44.11708" lon="7.05173">
        <ele>1824.5999755859</ele>
        <time>2020-07-30T09:58:51.000Z</time>
      </trkpt>
      <trkpt lat="44.11709" lon="7.05171">
        <ele>1825</ele>
        <time>2020-07-30T09:58:52.000Z</time>
      </trkpt>
      <trkpt lat="44.11712" lon="7.05167">
        <ele>1825.4000244141</ele>
        <time>2020-07-30T09:58:54.000Z</time>
      </trkpt>
      <trkpt lat="44.11714" lon="7.05163">
        <ele>1826</ele>
        <time>2020-07-30T09:58:56.000Z</time>
      </trkpt>
      <trkpt lat="44.11717" lon="7.05156">
        <ele>1826.8000488281</ele>
        <time>2020-07-30T09:58:59.000Z</time>
      </trkpt>
      <trkpt lat="44.11718" lon="7.05153">
        <ele>1827.1999511719</ele>
        <time>2020-07-30T09:59:00.000Z</time>
      </trkpt>
      <trkpt lat="44.11723" lon="7.05142">
        <ele>1828</ele>
        <time>2020-07-30T09:59:05.000Z</time>
      </trkpt>
      <trkpt lat="44.11724" lon="7.05139">
        <ele>1828.1999511719</ele>
        <time>2020-07-30T09:59:06.000Z</time>
      </trkpt>
      <trkpt lat="44.11725" lon="7.05137">
        <ele>1828.4000244141</ele>
        <time>2020-07-30T09:59:07.000Z</time>
      </trkpt>
      <trkpt lat="44.11726" lon="7.05129">
        <ele>1829.4000244141</ele>
        <time>2020-07-30T09:59:10.000Z</time>
      </trkpt>
      <trkpt lat="44.11728" lon="7.05127">
        <ele>1829.5999755859</ele>
        <time>2020-07-30T09:59:11.000Z</time>
      </trkpt>
      <trkpt lat="44.11731" lon="7.05119">
        <ele>1830.4000244141</ele>
        <time>2020-07-30T09:59:14.000Z</time>
      </trkpt>
      <trkpt lat="44.11732" lon="7.05115">
        <ele>1830.4000244141</ele>
        <time>2020-07-30T09:59:15.000Z</time>
      </trkpt>
      <trkpt lat="44.1174" lon="7.05106">
        <ele>1831.1999511719</ele>
        <time>2020-07-30T09:59:20.000Z</time>
      </trkpt>
      <trkpt lat="44.11741" lon="7.05104">
        <ele>1831.4000244141</ele>
        <time>2020-07-30T09:59:21.000Z</time>
      </trkpt>
      <trkpt lat="44.11748" lon="7.05094">
        <ele>1832</ele>
        <time>2020-07-30T09:59:26.000Z</time>
      </trkpt>
      <trkpt lat="44.11751" lon="7.05087">
        <ele>1832.5999755859</ele>
        <time>2020-07-30T09:59:29.000Z</time>
      </trkpt>
      <trkpt lat="44.11759" lon="7.0508">
        <ele>1833.1999511719</ele>
        <time>2020-07-30T09:59:33.000Z</time>
      </trkpt>
      <trkpt lat="44.11763" lon="7.05078">
        <ele>1833.8000488281</ele>
        <time>2020-07-30T09:59:35.000Z</time>
      </trkpt>
      <trkpt lat="44.11768" lon="7.05076">
        <ele>1834.8000488281</ele>
        <time>2020-07-30T09:59:38.000Z</time>
      </trkpt>
      <trkpt lat="44.1177" lon="7.05074">
        <ele>1834.8000488281</ele>
        <time>2020-07-30T09:59:39.000Z</time>
      </trkpt>
      <trkpt lat="44.11776" lon="7.05068">
        <ele>1835.1999511719</ele>
        <time>2020-07-30T09:59:43.000Z</time>
      </trkpt>
      <trkpt lat="44.1178" lon="7.05066">
        <ele>1836.1999511719</ele>
        <time>2020-07-30T09:59:45.000Z</time>
      </trkpt>
      <trkpt lat="44.11785" lon="7.05062">
        <ele>1837.4000244141</ele>
        <time>2020-07-30T09:59:48.000Z</time>
      </trkpt>
      <trkpt lat="44.1179" lon="7.05059">
        <ele>1837.8000488281</ele>
        <time>2020-07-30T09:59:51.000Z</time>
      </trkpt>
      <trkpt lat="44.11791" lon="7.05057">
        <ele>1838</ele>
        <time>2020-07-30T09:59:52.000Z</time>
      </trkpt>
      <trkpt lat="44.11796" lon="7.05051">
        <ele>1838.4000244141</ele>
        <time>2020-07-30T09:59:55.000Z</time>
      </trkpt>
      <trkpt lat="44.11798" lon="7.05044">
        <ele>1839.4000244141</ele>
        <time>2020-07-30T09:59:58.000Z</time>
      </trkpt>
      <trkpt lat="44.118" lon="7.05042">
        <ele>1839.5999755859</ele>
        <time>2020-07-30T09:59:59.000Z</time>
      </trkpt>
      <trkpt lat="44.11805" lon="7.05036">
        <ele>1841</ele>
        <time>2020-07-30T10:00:03.000Z</time>
      </trkpt>
      <trkpt lat="44.11808" lon="7.05032">
        <ele>1842</ele>
        <time>2020-07-30T10:00:05.000Z</time>
      </trkpt>
      <trkpt lat="44.1181" lon="7.0503">
        <ele>1842.1999511719</ele>
        <time>2020-07-30T10:00:06.000Z</time>
      </trkpt>
      <trkpt lat="44.11816" lon="7.05023">
        <ele>1843.1999511719</ele>
        <time>2020-07-30T10:00:10.000Z</time>
      </trkpt>
      <trkpt lat="44.11818" lon="7.05021">
        <ele>1843.4000244141</ele>
        <time>2020-07-30T10:00:11.000Z</time>
      </trkpt>
      <trkpt lat="44.11827" lon="7.05013">
        <ele>1844.1999511719</ele>
        <time>2020-07-30T10:00:17.000Z</time>
      </trkpt>
      <trkpt lat="44.11829" lon="7.05012">
        <ele>1844.4000244141</ele>
        <time>2020-07-30T10:00:18.000Z</time>
      </trkpt>
      <trkpt lat="44.11834" lon="7.05008">
        <ele>1845</ele>
        <time>2020-07-30T10:00:22.000Z</time>
      </trkpt>
      <trkpt lat="44.11836" lon="7.05008">
        <ele>1845.1999511719</ele>
        <time>2020-07-30T10:00:24.000Z</time>
      </trkpt>
      <trkpt lat="44.11837" lon="7.05009">
        <ele>1845.4000244141</ele>
        <time>2020-07-30T10:00:27.000Z</time>
      </trkpt>
      <trkpt lat="44.11837" lon="7.0501">
        <ele>1845</ele>
        <time>2020-07-30T10:00:34.000Z</time>
      </trkpt>
      <trkpt lat="44.11837" lon="7.05008">
        <ele>1845.1999511719</ele>
        <time>2020-07-30T10:00:40.000Z</time>
      </trkpt>
      <trkpt lat="44.11838" lon="7.05007">
        <ele>1845.5999755859</ele>
        <time>2020-07-30T10:00:49.000Z</time>
      </trkpt>
      <trkpt lat="44.11838" lon="7.05007">
        <ele>1845.1999511719</ele>
        <time>2020-07-30T10:00:55.000Z</time>
      </trkpt>
      <trkpt lat="44.11838" lon="7.05007">
        <ele>1845.5999755859</ele>
        <time>2020-07-30T10:01:03.000Z</time>
      </trkpt>
      <trkpt lat="44.11837" lon="7.05007">
        <ele>1845.4000244141</ele>
        <time>2020-07-30T10:01:09.000Z</time>
      </trkpt>
      <trkpt lat="44.11838" lon="7.05007">
        <ele>1845.1999511719</ele>
        <time>2020-07-30T10:01:16.000Z</time>
      </trkpt>
      <trkpt lat="44.11837" lon="7.05007">
        <ele>1845</ele>
        <time>2020-07-30T10:01:26.000Z</time>
      </trkpt>
      <trkpt lat="44.11837" lon="7.05007">
        <ele>1845.1999511719</ele>
        <time>2020-07-30T10:01:33.000Z</time>
      </trkpt>
      <trkpt lat="44.11837" lon="7.05005">
        <ele>1845</ele>
        <time>2020-07-30T10:01:39.000Z</time>
      </trkpt>
      <trkpt lat="44.11837" lon="7.05">
        <ele>1845</ele>
        <time>2020-07-30T10:01:45.000Z</time>
      </trkpt>
      <trkpt lat="44.11836" lon="7.04998">
        <ele>1844.8000488281</ele>
        <time>2020-07-30T10:01:56.000Z</time>
      </trkpt>
      <trkpt lat="44.11836" lon="7.04997">
        <ele>1844.8000488281</ele>
        <time>2020-07-30T10:02:05.000Z</time>
      </trkpt>
      <trkpt lat="44.11837" lon="7.04997">
        <ele>1844.8000488281</ele>
        <time>2020-07-30T10:02:17.000Z</time>
      </trkpt>
      <trkpt lat="44.11838" lon="7.05001">
        <ele>1845</ele>
        <time>2020-07-30T10:02:25.000Z</time>
      </trkpt>
      <trkpt lat="44.11839" lon="7.05002">
        <ele>1845.1999511719</ele>
        <time>2020-07-30T10:02:31.000Z</time>
      </trkpt>
      <trkpt lat="44.1184" lon="7.05002">
        <ele>1845.1999511719</ele>
        <time>2020-07-30T10:02:41.000Z</time>
      </trkpt>
      <trkpt lat="44.11841" lon="7.05002">
        <ele>1845</ele>
        <time>2020-07-30T10:02:49.000Z</time>
      </trkpt>
      <trkpt lat="44.11842" lon="7.05002">
        <ele>1845</ele>
        <time>2020-07-30T10:02:56.000Z</time>
      </trkpt>
      <trkpt lat="44.11842" lon="7.05002">
        <ele>1845</ele>
        <time>2020-07-30T10:03:06.000Z</time>
      </trkpt>
      <trkpt lat="44.11843" lon="7.05002">
        <ele>1845</ele>
        <time>2020-07-30T10:03:14.000Z</time>
      </trkpt>
      <trkpt lat="44.11843" lon="7.05002">
        <ele>1845</ele>
        <time>2020-07-30T10:03:21.000Z</time>
      </trkpt>
      <trkpt lat="44.11845" lon="7.05001">
        <ele>1845.1999511719</ele>
        <time>2020-07-30T10:03:35.000Z</time>
      </trkpt>
      <trkpt lat="44.11845" lon="7.05001">
        <ele>1844.8000488281</ele>
        <time>2020-07-30T10:03:43.000Z</time>
      </trkpt>
      <trkpt lat="44.11845" lon="7.05">
        <ele>1845.5999755859</ele>
        <time>2020-07-30T10:03:54.000Z</time>
      </trkpt>
      <trkpt lat="44.11845" lon="7.05">
        <ele>1845.4000244141</ele>
        <time>2020-07-30T10:04:05.000Z</time>
      </trkpt>
      <trkpt lat="44.11844" lon="7.05002">
        <ele>1845</ele>
        <time>2020-07-30T10:04:12.000Z</time>
      </trkpt>
      <trkpt lat="44.11841" lon="7.05">
        <ele>1845</ele>
        <time>2020-07-30T10:04:26.000Z</time>
      </trkpt>
      <trkpt lat="44.11839" lon="7.04999">
        <ele>1845.4000244141</ele>
        <time>2020-07-30T10:04:44.000Z</time>
      </trkpt>
      <trkpt lat="44.11837" lon="7.05001">
        <ele>1845.4000244141</ele>
        <time>2020-07-30T10:05:01.000Z</time>
      </trkpt>
      <trkpt lat="44.11836" lon="7.05002">
        <ele>1845.1999511719</ele>
        <time>2020-07-30T10:05:17.000Z</time>
      </trkpt>
      <trkpt lat="44.11836" lon="7.05002">
        <ele>1845</ele>
        <time>2020-07-30T10:05:36.000Z</time>
      </trkpt>
      <trkpt lat="44.11836" lon="7.05002">
        <ele>1845</ele>
        <time>2020-07-30T10:05:51.000Z</time>
      </trkpt>
      <trkpt lat="44.11836" lon="7.05003">
        <ele>1844.8000488281</ele>
        <time>2020-07-30T10:06:08.000Z</time>
      </trkpt>
      <trkpt lat="44.11835" lon="7.05003">
        <ele>1845</ele>
        <time>2020-07-30T10:06:21.000Z</time>
      </trkpt>
      <trkpt lat="44.11834" lon="7.05">
        <ele>1844.8000488281</ele>
        <time>2020-07-30T10:06:35.000Z</time>
      </trkpt>
      <trkpt lat="44.11833" lon="7.04997">
        <ele>1845</ele>
        <time>2020-07-30T10:06:47.000Z</time>
      </trkpt>
      <trkpt lat="44.11833" lon="7.04995">
        <ele>1844.8000488281</ele>
        <time>2020-07-30T10:06:59.000Z</time>
      </trkpt>
      <trkpt lat="44.11833" lon="7.04994">
        <ele>1845.4000244141</ele>
        <time>2020-07-30T10:07:10.000Z</time>
      </trkpt>
      <trkpt lat="44.11833" lon="7.04995">
        <ele>1845.4000244141</ele>
        <time>2020-07-30T10:07:20.000Z</time>
      </trkpt>
      <trkpt lat="44.11833" lon="7.04994">
        <ele>1845.4000244141</ele>
        <time>2020-07-30T10:07:29.000Z</time>
      </trkpt>
      <trkpt lat="44.11832" lon="7.04992">
        <ele>1845.4000244141</ele>
        <time>2020-07-30T10:07:42.000Z</time>
      </trkpt>
      <trkpt lat="44.11832" lon="7.04993">
        <ele>1845.1999511719</ele>
        <time>2020-07-30T10:07:56.000Z</time>
      </trkpt>
      <trkpt lat="44.11832" lon="7.04994">
        <ele>1845.1999511719</ele>
        <time>2020-07-30T10:08:08.000Z</time>
      </trkpt>
      <trkpt lat="44.11831" lon="7.04995">
        <ele>1845.5999755859</ele>
        <time>2020-07-30T10:08:24.000Z</time>
      </trkpt>
      <trkpt lat="44.11832" lon="7.04997">
        <ele>1845.5999755859</ele>
        <time>2020-07-30T10:08:38.000Z</time>
      </trkpt>
      <trkpt lat="44.11832" lon="7.04997">
        <ele>1845.5999755859</ele>
        <time>2020-07-30T10:08:58.000Z</time>
      </trkpt>
      <trkpt lat="44.11833" lon="7.04997">
        <ele>1845.4000244141</ele>
        <time>2020-07-30T10:09:11.000Z</time>
      </trkpt>
      <trkpt lat="44.11833" lon="7.04996">
        <ele>1845.4000244141</ele>
        <time>2020-07-30T10:09:27.000Z</time>
      </trkpt>
      <trkpt lat="44.11832" lon="7.04996">
        <ele>1845.4000244141</ele>
        <time>2020-07-30T10:09:47.000Z</time>
      </trkpt>
      <trkpt lat="44.11833" lon="7.04998">
        <ele>1845.1999511719</ele>
        <time>2020-07-30T10:09:58.000Z</time>
      </trkpt>
      <trkpt lat="44.11834" lon="7.04999">
        <ele>1845.1999511719</ele>
        <time>2020-07-30T10:10:12.000Z</time>
      </trkpt>
      <trkpt lat="44.11835" lon="7.04998">
        <ele>1845.4000244141</ele>
        <time>2020-07-30T10:10:30.000Z</time>
      </trkpt>
      <trkpt lat="44.11834" lon="7.04997">
        <ele>1845.5999755859</ele>
        <time>2020-07-30T10:10:44.000Z</time>
      </trkpt>
      <trkpt lat="44.11834" lon="7.04998">
        <ele>1845.1999511719</ele>
        <time>2020-07-30T10:10:57.000Z</time>
      </trkpt>
      <trkpt lat="44.11834" lon="7.04998">
        <ele>1845.5999755859</ele>
        <time>2020-07-30T10:11:11.000Z</time>
      </trkpt>
      <trkpt lat="44.11834" lon="7.04999">
        <ele>1845.5999755859</ele>
        <time>2020-07-30T10:11:30.000Z</time>
      </trkpt>
      <trkpt lat="44.11835" lon="7.04998">
        <ele>1846</ele>
        <time>2020-07-30T10:11:46.000Z</time>
      </trkpt>
      <trkpt lat="44.11834" lon="7.04997">
        <ele>1845.5999755859</ele>
        <time>2020-07-30T10:12:07.000Z</time>
      </trkpt>
      <trkpt lat="44.11834" lon="7.04998">
        <ele>1845.4000244141</ele>
        <time>2020-07-30T10:12:21.000Z</time>
      </trkpt>
      <trkpt lat="44.11835" lon="7.04997">
        <ele>1845.4000244141</ele>
        <time>2020-07-30T10:12:36.000Z</time>
      </trkpt>
      <trkpt lat="44.11834" lon="7.04996">
        <ele>1845.8000488281</ele>
        <time>2020-07-30T10:12:56.000Z</time>
      </trkpt>
      <trkpt lat="44.11834" lon="7.04995">
        <ele>1845.4000244141</ele>
        <time>2020-07-30T10:13:20.000Z</time>
      </trkpt>
      <trkpt lat="44.11833" lon="7.04995">
        <ele>1845.1999511719</ele>
        <time>2020-07-30T10:13:40.000Z</time>
      </trkpt>
      <trkpt lat="44.11833" lon="7.04995">
        <ele>1845.5999755859</ele>
        <time>2020-07-30T10:13:56.000Z</time>
      </trkpt>
      <trkpt lat="44.11833" lon="7.04996">
        <ele>1845.5999755859</ele>
        <time>2020-07-30T10:14:14.000Z</time>
      </trkpt>
      <trkpt lat="44.11832" lon="7.04997">
        <ele>1845.5999755859</ele>
        <time>2020-07-30T10:14:31.000Z</time>
      </trkpt>
      <trkpt lat="44.11833" lon="7.04997">
        <ele>1845.8000488281</ele>
        <time>2020-07-30T10:14:44.000Z</time>
      </trkpt>
      <trkpt lat="44.11832" lon="7.04997">
        <ele>1845.8000488281</ele>
        <time>2020-07-30T10:15:04.000Z</time>
      </trkpt>
      <trkpt lat="44.11833" lon="7.04998">
        <ele>1845.5999755859</ele>
        <time>2020-07-30T10:15:15.000Z</time>
      </trkpt>
      <trkpt lat="44.11833" lon="7.04999">
        <ele>1845.4000244141</ele>
        <time>2020-07-30T10:15:22.000Z</time>
      </trkpt>
      <trkpt lat="44.11834" lon="7.04999">
        <ele>1845.8000488281</ele>
        <time>2020-07-30T10:15:35.000Z</time>
      </trkpt>
      <trkpt lat="44.11835" lon="7.04999">
        <ele>1845.4000244141</ele>
        <time>2020-07-30T10:15:47.000Z</time>
      </trkpt>
      <trkpt lat="44.11834" lon="7.04998">
        <ele>1845.8000488281</ele>
        <time>2020-07-30T10:15:58.000Z</time>
      </trkpt>
      <trkpt lat="44.11835" lon="7.04999">
        <ele>1845.5999755859</ele>
        <time>2020-07-30T10:16:13.000Z</time>
      </trkpt>
      <trkpt lat="44.11834" lon="7.05001">
        <ele>1845.8000488281</ele>
        <time>2020-07-30T10:16:22.000Z</time>
      </trkpt>
      <trkpt lat="44.11834" lon="7.05001">
        <ele>1845.5999755859</ele>
        <time>2020-07-30T10:16:37.000Z</time>
      </trkpt>
      <trkpt lat="44.11832" lon="7.04999">
        <ele>1845.8000488281</ele>
        <time>2020-07-30T10:16:49.000Z</time>
      </trkpt>
      <trkpt lat="44.11832" lon="7.05">
        <ele>1845.8000488281</ele>
        <time>2020-07-30T10:17:03.000Z</time>
      </trkpt>
      <trkpt lat="44.11833" lon="7.05001">
        <ele>1845.8000488281</ele>
        <time>2020-07-30T10:17:17.000Z</time>
      </trkpt>
      <trkpt lat="44.11833" lon="7.05001">
        <ele>1845.8000488281</ele>
        <time>2020-07-30T10:17:32.000Z</time>
      </trkpt>
      <trkpt lat="44.11832" lon="7.05">
        <ele>1845.8000488281</ele>
        <time>2020-07-30T10:17:55.000Z</time>
      </trkpt>
      <trkpt lat="44.11832" lon="7.04999">
        <ele>1845.8000488281</ele>
        <time>2020-07-30T10:18:14.000Z</time>
      </trkpt>
      <trkpt lat="44.11832" lon="7.05">
        <ele>1846</ele>
        <time>2020-07-30T10:18:29.000Z</time>
      </trkpt>
      <trkpt lat="44.11833" lon="7.04999">
        <ele>1845.8000488281</ele>
        <time>2020-07-30T10:18:46.000Z</time>
      </trkpt>
      <trkpt lat="44.11833" lon="7.04999">
        <ele>1845.8000488281</ele>
        <time>2020-07-30T10:18:57.000Z</time>
      </trkpt>
      <trkpt lat="44.11834" lon="7.04999">
        <ele>1845.8000488281</ele>
        <time>2020-07-30T10:19:07.000Z</time>
      </trkpt>
      <trkpt lat="44.11834" lon="7.04999">
        <ele>1845.8000488281</ele>
        <time>2020-07-30T10:19:19.000Z</time>
      </trkpt>
      <trkpt lat="44.11834" lon="7.04999">
        <ele>1845.8000488281</ele>
        <time>2020-07-30T10:19:28.000Z</time>
      </trkpt>
      <trkpt lat="44.11833" lon="7.04998">
        <ele>1845.8000488281</ele>
        <time>2020-07-30T10:19:38.000Z</time>
      </trkpt>
      <trkpt lat="44.11834" lon="7.04999">
        <ele>1845.8000488281</ele>
        <time>2020-07-30T10:19:47.000Z</time>
      </trkpt>
      <trkpt lat="44.11834" lon="7.05001">
        <ele>1846</ele>
        <time>2020-07-30T10:19:57.000Z</time>
      </trkpt>
      <trkpt lat="44.11834" lon="7.05">
        <ele>1845.4000244141</ele>
        <time>2020-07-30T10:20:11.000Z</time>
      </trkpt>
      <trkpt lat="44.11834" lon="7.04999">
        <ele>1845.8000488281</ele>
        <time>2020-07-30T10:20:23.000Z</time>
      </trkpt>
      <trkpt lat="44.11834" lon="7.04997">
        <ele>1845.5999755859</ele>
        <time>2020-07-30T10:20:38.000Z</time>
      </trkpt>
      <trkpt lat="44.11833" lon="7.04996">
        <ele>1845.5999755859</ele>
        <time>2020-07-30T10:20:57.000Z</time>
      </trkpt>
      <trkpt lat="44.11833" lon="7.04997">
        <ele>1846</ele>
        <time>2020-07-30T10:21:19.000Z</time>
      </trkpt>
      <trkpt lat="44.11833" lon="7.04997">
        <ele>1846</ele>
        <time>2020-07-30T10:21:26.000Z</time>
      </trkpt>
      <trkpt lat="44.11833" lon="7.05">
        <ele>1846</ele>
        <time>2020-07-30T10:21:42.000Z</time>
      </trkpt>
      <trkpt lat="44.11833" lon="7.04999">
        <ele>1845.5999755859</ele>
        <time>2020-07-30T10:21:54.000Z</time>
      </trkpt>
      <trkpt lat="44.11833" lon="7.04995">
        <ele>1845.5999755859</ele>
        <time>2020-07-30T10:22:14.000Z</time>
      </trkpt>
      <trkpt lat="44.11834" lon="7.04994">
        <ele>1845.8000488281</ele>
        <time>2020-07-30T10:22:23.000Z</time>
      </trkpt>
      <trkpt lat="44.11836" lon="7.04996">
        <ele>1845.8000488281</ele>
        <time>2020-07-30T10:22:43.000Z</time>
      </trkpt>
      <trkpt lat="44.11838" lon="7.04997">
        <ele>1845.8000488281</ele>
        <time>2020-07-30T10:22:59.000Z</time>
      </trkpt>
      <trkpt lat="44.11838" lon="7.04996">
        <ele>1845.5999755859</ele>
        <time>2020-07-30T10:23:11.000Z</time>
      </trkpt>
      <trkpt lat="44.11838" lon="7.04993">
        <ele>1845.1999511719</ele>
        <time>2020-07-30T10:23:19.000Z</time>
      </trkpt>
      <trkpt lat="44.11839" lon="7.04995">
        <ele>1845.5999755859</ele>
        <time>2020-07-30T10:23:29.000Z</time>
      </trkpt>
      <trkpt lat="44.1184" lon="7.04996">
        <ele>1845.5999755859</ele>
        <time>2020-07-30T10:23:42.000Z</time>
      </trkpt>
      <trkpt lat="44.11841" lon="7.04997">
        <ele>1845.8000488281</ele>
        <time>2020-07-30T10:23:53.000Z</time>
      </trkpt>
      <trkpt lat="44.11841" lon="7.04999">
        <ele>1845.4000244141</ele>
        <time>2020-07-30T10:24:05.000Z</time>
      </trkpt>
      <trkpt lat="44.1184" lon="7.04999">
        <ele>1845.4000244141</ele>
        <time>2020-07-30T10:24:13.000Z</time>
      </trkpt>
      <trkpt lat="44.1184" lon="7.04999">
        <ele>1845.1999511719</ele>
        <time>2020-07-30T10:24:22.000Z</time>
      </trkpt>
      <trkpt lat="44.11841" lon="7.04999">
        <ele>1845.1999511719</ele>
        <time>2020-07-30T10:24:30.000Z</time>
      </trkpt>
      <trkpt lat="44.11842" lon="7.04999">
        <ele>1845.4000244141</ele>
        <time>2020-07-30T10:24:37.000Z</time>
      </trkpt>
      <trkpt lat="44.11842" lon="7.04999">
        <ele>1845.1999511719</ele>
        <time>2020-07-30T10:24:43.000Z</time>
      </trkpt>
      <trkpt lat="44.11841" lon="7.05001">
        <ele>1845.5999755859</ele>
        <time>2020-07-30T10:24:53.000Z</time>
      </trkpt>
      <trkpt lat="44.11841" lon="7.05001">
        <ele>1845.1999511719</ele>
        <time>2020-07-30T10:25:03.000Z</time>
      </trkpt>
      <trkpt lat="44.11841" lon="7.05002">
        <ele>1845.8000488281</ele>
        <time>2020-07-30T10:25:14.000Z</time>
      </trkpt>
      <trkpt lat="44.11842" lon="7.05002">
        <ele>1845.5999755859</ele>
        <time>2020-07-30T10:25:26.000Z</time>
      </trkpt>
      <trkpt lat="44.11843" lon="7.05001">
        <ele>1845.4000244141</ele>
        <time>2020-07-30T10:25:36.000Z</time>
      </trkpt>
      <trkpt lat="44.11844" lon="7.05001">
        <ele>1845.5999755859</ele>
        <time>2020-07-30T10:25:45.000Z</time>
      </trkpt>
      <trkpt lat="44.11846" lon="7.05001">
        <ele>1845.4000244141</ele>
        <time>2020-07-30T10:26:00.000Z</time>
      </trkpt>
      <trkpt lat="44.11846" lon="7.05002">
        <ele>1845.5999755859</ele>
        <time>2020-07-30T10:26:16.000Z</time>
      </trkpt>
      <trkpt lat="44.11846" lon="7.05001">
        <ele>1845.5999755859</ele>
        <time>2020-07-30T10:26:28.000Z</time>
      </trkpt>
      <trkpt lat="44.11846" lon="7.05">
        <ele>1845.8000488281</ele>
        <time>2020-07-30T10:26:42.000Z</time>
      </trkpt>
      <trkpt lat="44.11845" lon="7.05">
        <ele>1846</ele>
        <time>2020-07-30T10:26:52.000Z</time>
      </trkpt>
      <trkpt lat="44.11845" lon="7.05">
        <ele>1846.1999511719</ele>
        <time>2020-07-30T10:27:03.000Z</time>
      </trkpt>
      <trkpt lat="44.11845" lon="7.05">
        <ele>1846</ele>
        <time>2020-07-30T10:27:14.000Z</time>
      </trkpt>
      <trkpt lat="44.11844" lon="7.05002">
        <ele>1845.5999755859</ele>
        <time>2020-07-30T10:27:25.000Z</time>
      </trkpt>
      <trkpt lat="44.11842" lon="7.05003">
        <ele>1845.5999755859</ele>
        <time>2020-07-30T10:27:39.000Z</time>
      </trkpt>
      <trkpt lat="44.11841" lon="7.05002">
        <ele>1846</ele>
        <time>2020-07-30T10:27:49.000Z</time>
      </trkpt>
      <trkpt lat="44.11839" lon="7.05002">
        <ele>1846</ele>
        <time>2020-07-30T10:27:59.000Z</time>
      </trkpt>
      <trkpt lat="44.1184" lon="7.05001">
        <ele>1846</ele>
        <time>2020-07-30T10:28:09.000Z</time>
      </trkpt>
      <trkpt lat="44.1184" lon="7.05002">
        <ele>1845.8000488281</ele>
        <time>2020-07-30T10:28:30.000Z</time>
      </trkpt>
      <trkpt lat="44.1184" lon="7.05003">
        <ele>1845</ele>
        <time>2020-07-30T10:28:41.000Z</time>
      </trkpt>
      <trkpt lat="44.1184" lon="7.05004">
        <ele>1845.1999511719</ele>
        <time>2020-07-30T10:28:49.000Z</time>
      </trkpt>
      <trkpt lat="44.11839" lon="7.05004">
        <ele>1846</ele>
        <time>2020-07-30T10:28:58.000Z</time>
      </trkpt>
      <trkpt lat="44.1184" lon="7.05005">
        <ele>1845.5999755859</ele>
        <time>2020-07-30T10:29:04.000Z</time>
      </trkpt>
      <trkpt lat="44.1184" lon="7.05004">
        <ele>1846</ele>
        <time>2020-07-30T10:29:23.000Z</time>
      </trkpt>
      <trkpt lat="44.1184" lon="7.05004">
        <ele>1845.8000488281</ele>
        <time>2020-07-30T10:29:35.000Z</time>
      </trkpt>
      <trkpt lat="44.11841" lon="7.05004">
        <ele>1845.8000488281</ele>
        <time>2020-07-30T10:29:48.000Z</time>
      </trkpt>
      <trkpt lat="44.11842" lon="7.05003">
        <ele>1845.5999755859</ele>
        <time>2020-07-30T10:30:06.000Z</time>
      </trkpt>
      <trkpt lat="44.11842" lon="7.05002">
        <ele>1846</ele>
        <time>2020-07-30T10:30:25.000Z</time>
      </trkpt>
      <trkpt lat="44.1184" lon="7.05003">
        <ele>1846.1999511719</ele>
        <time>2020-07-30T10:30:43.000Z</time>
      </trkpt>
      <trkpt lat="44.11839" lon="7.05003">
        <ele>1846.1999511719</ele>
        <time>2020-07-30T10:31:02.000Z</time>
      </trkpt>
      <trkpt lat="44.11839" lon="7.05003">
        <ele>1846.1999511719</ele>
        <time>2020-07-30T10:31:27.000Z</time>
      </trkpt>
      <trkpt lat="44.11839" lon="7.05003">
        <ele>1846</ele>
        <time>2020-07-30T10:31:40.000Z</time>
      </trkpt>
      <trkpt lat="44.1184" lon="7.05003">
        <ele>1846</ele>
        <time>2020-07-30T10:31:58.000Z</time>
      </trkpt>
      <trkpt lat="44.1184" lon="7.05004">
        <ele>1846</ele>
        <time>2020-07-30T10:32:07.000Z</time>
      </trkpt>
      <trkpt lat="44.11838" lon="7.05005">
        <ele>1845.8000488281</ele>
        <time>2020-07-30T10:32:20.000Z</time>
      </trkpt>
      <trkpt lat="44.11839" lon="7.05004">
        <ele>1845.8000488281</ele>
        <time>2020-07-30T10:32:33.000Z</time>
      </trkpt>
      <trkpt lat="44.1184" lon="7.05004">
        <ele>1845.8000488281</ele>
        <time>2020-07-30T10:32:46.000Z</time>
      </trkpt>
      <trkpt lat="44.11843" lon="7.05004">
        <ele>1846</ele>
        <time>2020-07-30T10:32:59.000Z</time>
      </trkpt>
      <trkpt lat="44.11843" lon="7.05004">
        <ele>1845.5999755859</ele>
        <time>2020-07-30T10:33:07.000Z</time>
      </trkpt>
      <trkpt lat="44.11842" lon="7.05006">
        <ele>1845.8000488281</ele>
        <time>2020-07-30T10:33:19.000Z</time>
      </trkpt>
      <trkpt lat="44.1184" lon="7.05006">
        <ele>1846</ele>
        <time>2020-07-30T10:33:30.000Z</time>
      </trkpt>
      <trkpt lat="44.11839" lon="7.05006">
        <ele>1846.1999511719</ele>
        <time>2020-07-30T10:33:44.000Z</time>
      </trkpt>
      <trkpt lat="44.11838" lon="7.05007">
        <ele>1845.8000488281</ele>
        <time>2020-07-30T10:33:57.000Z</time>
      </trkpt>
      <trkpt lat="44.11838" lon="7.05007">
        <ele>1846.1999511719</ele>
        <time>2020-07-30T10:34:13.000Z</time>
      </trkpt>
      <trkpt lat="44.11838" lon="7.05005">
        <ele>1846</ele>
        <time>2020-07-30T10:34:24.000Z</time>
      </trkpt>
      <trkpt lat="44.11838" lon="7.05004">
        <ele>1845.5999755859</ele>
        <time>2020-07-30T10:34:34.000Z</time>
      </trkpt>
      <trkpt lat="44.11838" lon="7.05005">
        <ele>1846.1999511719</ele>
        <time>2020-07-30T10:34:48.000Z</time>
      </trkpt>
      <trkpt lat="44.11838" lon="7.05005">
        <ele>1845.8000488281</ele>
        <time>2020-07-30T10:34:59.000Z</time>
      </trkpt>
      <trkpt lat="44.11837" lon="7.05007">
        <ele>1845.8000488281</ele>
        <time>2020-07-30T10:35:12.000Z</time>
      </trkpt>
      <trkpt lat="44.11836" lon="7.05007">
        <ele>1846</ele>
        <time>2020-07-30T10:35:20.000Z</time>
      </trkpt>
      <trkpt lat="44.11836" lon="7.05007">
        <ele>1846.4000244141</ele>
        <time>2020-07-30T10:35:34.000Z</time>
      </trkpt>
      <trkpt lat="44.11835" lon="7.05007">
        <ele>1846.4000244141</ele>
        <time>2020-07-30T10:35:35.000Z</time>
      </trkpt>
      <trkpt lat="44.11835" lon="7.05009">
        <ele>1846.5999755859</ele>
        <time>2020-07-30T10:35:49.000Z</time>
      </trkpt>
      <trkpt lat="44.11835" lon="7.05008">
        <ele>1846.4000244141</ele>
        <time>2020-07-30T10:36:04.000Z</time>
      </trkpt>
      <trkpt lat="44.11834" lon="7.05007">
        <ele>1846.4000244141</ele>
        <time>2020-07-30T10:36:11.000Z</time>
      </trkpt>
      <trkpt lat="44.11834" lon="7.05005">
        <ele>1846.1999511719</ele>
        <time>2020-07-30T10:36:17.000Z</time>
      </trkpt>
      <trkpt lat="44.11835" lon="7.05004">
        <ele>1846.1999511719</ele>
        <time>2020-07-30T10:36:18.000Z</time>
      </trkpt>
      <trkpt lat="44.11836" lon="7.05004">
        <ele>1846</ele>
        <time>2020-07-30T10:36:22.000Z</time>
      </trkpt>
      <trkpt lat="44.11838" lon="7.05001">
        <ele>1846.5999755859</ele>
        <time>2020-07-30T10:36:34.000Z</time>
      </trkpt>
      <trkpt lat="44.11841" lon="7.04999">
        <ele>1846.1999511719</ele>
        <time>2020-07-30T10:36:54.000Z</time>
      </trkpt>
      <trkpt lat="44.11841" lon="7.04999">
        <ele>1845.8000488281</ele>
        <time>2020-07-30T10:37:03.000Z</time>
      </trkpt>
      <trkpt lat="44.11843" lon="7.05001">
        <ele>1846.1999511719</ele>
        <time>2020-07-30T10:37:11.000Z</time>
      </trkpt>
      <trkpt lat="44.11844" lon="7.05001">
        <ele>1846.1999511719</ele>
        <time>2020-07-30T10:37:12.000Z</time>
      </trkpt>
      <trkpt lat="44.11846" lon="7.05004">
        <ele>1846.5999755859</ele>
        <time>2020-07-30T10:37:16.000Z</time>
      </trkpt>
      <trkpt lat="44.11847" lon="7.05007">
        <ele>1846.5999755859</ele>
        <time>2020-07-30T10:37:22.000Z</time>
      </trkpt>
      <trkpt lat="44.11848" lon="7.05008">
        <ele>1847</ele>
        <time>2020-07-30T10:37:27.000Z</time>
      </trkpt>
      <trkpt lat="44.11848" lon="7.05012">
        <ele>1846.4000244141</ele>
        <time>2020-07-30T10:37:35.000Z</time>
      </trkpt>
      <trkpt lat="44.11849" lon="7.05014">
        <ele>1846.8000488281</ele>
        <time>2020-07-30T10:37:50.000Z</time>
      </trkpt>
      <trkpt lat="44.11848" lon="7.05013">
        <ele>1846.8000488281</ele>
        <time>2020-07-30T10:37:52.000Z</time>
      </trkpt>
      <trkpt lat="44.11848" lon="7.05011">
        <ele>1846.8000488281</ele>
        <time>2020-07-30T10:37:54.000Z</time>
      </trkpt>
      <trkpt lat="44.11847" lon="7.05009">
        <ele>1846.5999755859</ele>
        <time>2020-07-30T10:37:59.000Z</time>
      </trkpt>
      <trkpt lat="44.11845" lon="7.05009">
        <ele>1847</ele>
        <time>2020-07-30T10:38:08.000Z</time>
      </trkpt>
      <trkpt lat="44.11842" lon="7.05005">
        <ele>1847.1999511719</ele>
        <time>2020-07-30T10:38:15.000Z</time>
      </trkpt>
      <trkpt lat="44.11842" lon="7.05004">
        <ele>1847.1999511719</ele>
        <time>2020-07-30T10:38:22.000Z</time>
      </trkpt>
      <trkpt lat="44.11843" lon="7.05005">
        <ele>1847.1999511719</ele>
        <time>2020-07-30T10:38:24.000Z</time>
      </trkpt>
      <trkpt lat="44.11843" lon="7.05005">
        <ele>1847.4000244141</ele>
        <time>2020-07-30T10:38:26.000Z</time>
      </trkpt>
      <trkpt lat="44.11842" lon="7.05005">
        <ele>1846.5999755859</ele>
        <time>2020-07-30T10:38:33.000Z</time>
      </trkpt>
      <trkpt lat="44.1184" lon="7.05005">
        <ele>1846.4000244141</ele>
        <time>2020-07-30T10:38:35.000Z</time>
      </trkpt>
      <trkpt lat="44.11839" lon="7.05004">
        <ele>1846.5999755859</ele>
        <time>2020-07-30T10:38:38.000Z</time>
      </trkpt>
      <trkpt lat="44.1184" lon="7.05002">
        <ele>1847</ele>
        <time>2020-07-30T10:38:45.000Z</time>
      </trkpt>
      <trkpt lat="44.11841" lon="7.05003">
        <ele>1847.1999511719</ele>
        <time>2020-07-30T10:38:56.000Z</time>
      </trkpt>
      <trkpt lat="44.11842" lon="7.05002">
        <ele>1847</ele>
        <time>2020-07-30T10:39:05.000Z</time>
      </trkpt>
      <trkpt lat="44.11842" lon="7.05002">
        <ele>1847</ele>
        <time>2020-07-30T10:39:12.000Z</time>
      </trkpt>
      <trkpt lat="44.11842" lon="7.05003">
        <ele>1847.5999755859</ele>
        <time>2020-07-30T10:39:15.000Z</time>
      </trkpt>
      <trkpt lat="44.11842" lon="7.05002">
        <ele>1847.1999511719</ele>
        <time>2020-07-30T10:39:19.000Z</time>
      </trkpt>
      <trkpt lat="44.11841" lon="7.05002">
        <ele>1847.5999755859</ele>
        <time>2020-07-30T10:39:28.000Z</time>
      </trkpt>
      <trkpt lat="44.1184" lon="7.05002">
        <ele>1847.4000244141</ele>
        <time>2020-07-30T10:39:40.000Z</time>
      </trkpt>
      <trkpt lat="44.11839" lon="7.05002">
        <ele>1847.5999755859</ele>
        <time>2020-07-30T10:39:53.000Z</time>
      </trkpt>
      <trkpt lat="44.11838" lon="7.05003">
        <ele>1847.1999511719</ele>
        <time>2020-07-30T10:40:00.000Z</time>
      </trkpt>
      <trkpt lat="44.11838" lon="7.05003">
        <ele>1847.1999511719</ele>
        <time>2020-07-30T10:40:07.000Z</time>
      </trkpt>
      <trkpt lat="44.1184" lon="7.05002">
        <ele>1847.4000244141</ele>
        <time>2020-07-30T10:40:16.000Z</time>
      </trkpt>
      <trkpt lat="44.1184" lon="7.05001">
        <ele>1847.5999755859</ele>
        <time>2020-07-30T10:40:29.000Z</time>
      </trkpt>
      <trkpt lat="44.11839" lon="7.05001">
        <ele>1847.4000244141</ele>
        <time>2020-07-30T10:40:41.000Z</time>
      </trkpt>
      <trkpt lat="44.11839" lon="7.05001">
        <ele>1847</ele>
        <time>2020-07-30T10:40:48.000Z</time>
      </trkpt>
      <trkpt lat="44.1184" lon="7.05">
        <ele>1847.4000244141</ele>
        <time>2020-07-30T10:40:57.000Z</time>
      </trkpt>
      <trkpt lat="44.11841" lon="7.05">
        <ele>1847.4000244141</ele>
        <time>2020-07-30T10:41:06.000Z</time>
      </trkpt>
      <trkpt lat="44.11841" lon="7.05002">
        <ele>1847</ele>
        <time>2020-07-30T10:41:12.000Z</time>
      </trkpt>
      <trkpt lat="44.11841" lon="7.05001">
        <ele>1847.4000244141</ele>
        <time>2020-07-30T10:41:19.000Z</time>
      </trkpt>
      <trkpt lat="44.11841" lon="7.05001">
        <ele>1847.8000488281</ele>
        <time>2020-07-30T10:41:24.000Z</time>
      </trkpt>
      <trkpt lat="44.11841" lon="7.05">
        <ele>1847.4000244141</ele>
        <time>2020-07-30T10:41:35.000Z</time>
      </trkpt>
      <trkpt lat="44.11843" lon="7.04999">
        <ele>1847.5999755859</ele>
        <time>2020-07-30T10:41:38.000Z</time>
      </trkpt>
      <trkpt lat="44.11844" lon="7.04998">
        <ele>1847.8000488281</ele>
        <time>2020-07-30T10:41:40.000Z</time>
      </trkpt>
      <trkpt lat="44.1185" lon="7.04992">
        <ele>1848.4000244141</ele>
        <time>2020-07-30T10:41:46.000Z</time>
      </trkpt>
      <trkpt lat="44.11856" lon="7.04987">
        <ele>1848.5999755859</ele>
        <time>2020-07-30T10:41:50.000Z</time>
      </trkpt>
      <trkpt lat="44.11858" lon="7.04985">
        <ele>1848.8000488281</ele>
        <time>2020-07-30T10:41:52.000Z</time>
      </trkpt>
      <trkpt lat="44.11863" lon="7.04981">
        <ele>1849.5999755859</ele>
        <time>2020-07-30T10:41:57.000Z</time>
      </trkpt>
      <trkpt lat="44.11869" lon="7.04976">
        <ele>1850.5999755859</ele>
        <time>2020-07-30T10:42:03.000Z</time>
      </trkpt>
      <trkpt lat="44.11873" lon="7.04975">
        <ele>1851.4000244141</ele>
        <time>2020-07-30T10:42:06.000Z</time>
      </trkpt>
      <trkpt lat="44.11876" lon="7.04975">
        <ele>1851.8000488281</ele>
        <time>2020-07-30T10:42:08.000Z</time>
      </trkpt>
      <trkpt lat="44.11878" lon="7.04975">
        <ele>1852.1999511719</ele>
        <time>2020-07-30T10:42:09.000Z</time>
      </trkpt>
      <trkpt lat="44.11883" lon="7.04971">
        <ele>1853.1999511719</ele>
        <time>2020-07-30T10:42:12.000Z</time>
      </trkpt>
      <trkpt lat="44.11885" lon="7.04971">
        <ele>1853.4000244141</ele>
        <time>2020-07-30T10:42:13.000Z</time>
      </trkpt>
      <trkpt lat="44.11888" lon="7.0497">
        <ele>1854</ele>
        <time>2020-07-30T10:42:15.000Z</time>
      </trkpt>
      <trkpt lat="44.1189" lon="7.04969">
        <ele>1854.1999511719</ele>
        <time>2020-07-30T10:42:16.000Z</time>
      </trkpt>
      <trkpt lat="44.11901" lon="7.04965">
        <ele>1855.1999511719</ele>
        <time>2020-07-30T10:42:22.000Z</time>
      </trkpt>
      <trkpt lat="44.11902" lon="7.04965">
        <ele>1855.4000244141</ele>
        <time>2020-07-30T10:42:23.000Z</time>
      </trkpt>
      <trkpt lat="44.11914" lon="7.04964">
        <ele>1856.5999755859</ele>
        <time>2020-07-30T10:42:30.000Z</time>
      </trkpt>
      <trkpt lat="44.11917" lon="7.04963">
        <ele>1857.4000244141</ele>
        <time>2020-07-30T10:42:32.000Z</time>
      </trkpt>
      <trkpt lat="44.11918" lon="7.04963">
        <ele>1857.8000488281</ele>
        <time>2020-07-30T10:42:33.000Z</time>
      </trkpt>
      <trkpt lat="44.11921" lon="7.04962">
        <ele>1858.4000244141</ele>
        <time>2020-07-30T10:42:35.000Z</time>
      </trkpt>
      <trkpt lat="44.11922" lon="7.04961">
        <ele>1859</ele>
        <time>2020-07-30T10:42:36.000Z</time>
      </trkpt>
      <trkpt lat="44.11923" lon="7.0496">
        <ele>1859.4000244141</ele>
        <time>2020-07-30T10:42:37.000Z</time>
      </trkpt>
      <trkpt lat="44.11924" lon="7.04958">
        <ele>1859.8000488281</ele>
        <time>2020-07-30T10:42:38.000Z</time>
      </trkpt>
      <trkpt lat="44.11924" lon="7.04957">
        <ele>1860.1999511719</ele>
        <time>2020-07-30T10:42:39.000Z</time>
      </trkpt>
      <trkpt lat="44.11924" lon="7.04955">
        <ele>1860.8000488281</ele>
        <time>2020-07-30T10:42:41.000Z</time>
      </trkpt>
      <trkpt lat="44.11924" lon="7.04955">
        <ele>1861.1999511719</ele>
        <time>2020-07-30T10:42:43.000Z</time>
      </trkpt>
      <trkpt lat="44.11924" lon="7.04955">
        <ele>1861.8000488281</ele>
        <time>2020-07-30T10:42:47.000Z</time>
      </trkpt>
      <trkpt lat="44.11924" lon="7.04953">
        <ele>1862</ele>
        <time>2020-07-30T10:42:57.000Z</time>
      </trkpt>
      <trkpt lat="44.11926" lon="7.04951">
        <ele>1862</ele>
        <time>2020-07-30T10:43:03.000Z</time>
      </trkpt>
      <trkpt lat="44.11928" lon="7.0495">
        <ele>1862.4000244141</ele>
        <time>2020-07-30T10:43:06.000Z</time>
      </trkpt>
      <trkpt lat="44.11929" lon="7.04948">
        <ele>1863.1999511719</ele>
        <time>2020-07-30T10:43:11.000Z</time>
      </trkpt>
      <trkpt lat="44.11929" lon="7.04948">
        <ele>1863.4000244141</ele>
        <time>2020-07-30T10:43:12.000Z</time>
      </trkpt>
      <trkpt lat="44.11929" lon="7.04947">
        <ele>1863.5999755859</ele>
        <time>2020-07-30T10:43:16.000Z</time>
      </trkpt>
      <trkpt lat="44.11929" lon="7.04946">
        <ele>1863.4000244141</ele>
        <time>2020-07-30T10:43:17.000Z</time>
      </trkpt>
      <trkpt lat="44.11931" lon="7.04942">
        <ele>1863.4000244141</ele>
        <time>2020-07-30T10:43:20.000Z</time>
      </trkpt>
      <trkpt lat="44.11932" lon="7.04939">
        <ele>1864.1999511719</ele>
        <time>2020-07-30T10:43:25.000Z</time>
      </trkpt>
      <trkpt lat="44.11932" lon="7.04938">
        <ele>1864.5999755859</ele>
        <time>2020-07-30T10:43:26.000Z</time>
      </trkpt>
      <trkpt lat="44.11933" lon="7.04937">
        <ele>1865</ele>
        <time>2020-07-30T10:43:33.000Z</time>
      </trkpt>
      <trkpt lat="44.11933" lon="7.04936">
        <ele>1865.5999755859</ele>
        <time>2020-07-30T10:43:38.000Z</time>
      </trkpt>
      <trkpt lat="44.11933" lon="7.04936">
        <ele>1865.5999755859</ele>
        <time>2020-07-30T10:43:39.000Z</time>
      </trkpt>
      <trkpt lat="44.11935" lon="7.04933">
        <ele>1866.5999755859</ele>
        <time>2020-07-30T10:43:47.000Z</time>
      </trkpt>
      <trkpt lat="44.11936" lon="7.04933">
        <ele>1866.8000488281</ele>
        <time>2020-07-30T10:43:48.000Z</time>
      </trkpt>
      <trkpt lat="44.11939" lon="7.04931">
        <ele>1867</ele>
        <time>2020-07-30T10:43:53.000Z</time>
      </trkpt>
      <trkpt lat="44.1194" lon="7.04931">
        <ele>1867.8000488281</ele>
        <time>2020-07-30T10:43:57.000Z</time>
      </trkpt>
      <trkpt lat="44.11941" lon="7.04929">
        <ele>1868.5999755859</ele>
        <time>2020-07-30T10:44:00.000Z</time>
      </trkpt>
      <trkpt lat="44.11941" lon="7.04928">
        <ele>1868.8000488281</ele>
        <time>2020-07-30T10:44:01.000Z</time>
      </trkpt>
      <trkpt lat="44.11943" lon="7.04925">
        <ele>1870</ele>
        <time>2020-07-30T10:44:06.000Z</time>
      </trkpt>
      <trkpt lat="44.11943" lon="7.04925">
        <ele>1870.1999511719</ele>
        <time>2020-07-30T10:44:07.000Z</time>
      </trkpt>
      <trkpt lat="44.11945" lon="7.04923">
        <ele>1870.8000488281</ele>
        <time>2020-07-30T10:44:12.000Z</time>
      </trkpt>
      <trkpt lat="44.11945" lon="7.04923">
        <ele>1871</ele>
        <time>2020-07-30T10:44:13.000Z</time>
      </trkpt>
      <trkpt lat="44.11946" lon="7.04922">
        <ele>1871.5999755859</ele>
        <time>2020-07-30T10:44:18.000Z</time>
      </trkpt>
      <trkpt lat="44.1195" lon="7.04917">
        <ele>1871.8000488281</ele>
        <time>2020-07-30T10:44:23.000Z</time>
      </trkpt>
      <trkpt lat="44.11951" lon="7.04916">
        <ele>1872</ele>
        <time>2020-07-30T10:44:24.000Z</time>
      </trkpt>
      <trkpt lat="44.11951" lon="7.04915">
        <ele>1872.1999511719</ele>
        <time>2020-07-30T10:44:25.000Z</time>
      </trkpt>
      <trkpt lat="44.11951" lon="7.04914">
        <ele>1872.5999755859</ele>
        <time>2020-07-30T10:44:27.000Z</time>
      </trkpt>
      <trkpt lat="44.11953" lon="7.04911">
        <ele>1873</ele>
        <time>2020-07-30T10:44:32.000Z</time>
      </trkpt>
      <trkpt lat="44.11954" lon="7.04911">
        <ele>1873.4000244141</ele>
        <time>2020-07-30T10:44:34.000Z</time>
      </trkpt>
      <trkpt lat="44.11955" lon="7.04909">
        <ele>1874.4000244141</ele>
        <time>2020-07-30T10:44:38.000Z</time>
      </trkpt>
      <trkpt lat="44.11959" lon="7.04902">
        <ele>1874.4000244141</ele>
        <time>2020-07-30T10:44:42.000Z</time>
      </trkpt>
      <trkpt lat="44.11962" lon="7.04899">
        <ele>1874.8000488281</ele>
        <time>2020-07-30T10:44:44.000Z</time>
      </trkpt>
      <trkpt lat="44.11967" lon="7.04894">
        <ele>1875.5999755859</ele>
        <time>2020-07-30T10:44:48.000Z</time>
      </trkpt>
      <trkpt lat="44.11969" lon="7.04893">
        <ele>1876</ele>
        <time>2020-07-30T10:44:50.000Z</time>
      </trkpt>
      <trkpt lat="44.11971" lon="7.04891">
        <ele>1877</ele>
        <time>2020-07-30T10:44:52.000Z</time>
      </trkpt>
      <trkpt lat="44.11975" lon="7.04887">
        <ele>1878</ele>
        <time>2020-07-30T10:44:55.000Z</time>
      </trkpt>
      <trkpt lat="44.11975" lon="7.04885">
        <ele>1879.1999511719</ele>
        <time>2020-07-30T10:45:00.000Z</time>
      </trkpt>
      <trkpt lat="44.11975" lon="7.04884">
        <ele>1879.1999511719</ele>
        <time>2020-07-30T10:45:04.000Z</time>
      </trkpt>
      <trkpt lat="44.11975" lon="7.04884">
        <ele>1879.4000244141</ele>
        <time>2020-07-30T10:45:11.000Z</time>
      </trkpt>
      <trkpt lat="44.11976" lon="7.04882">
        <ele>1880.1999511719</ele>
        <time>2020-07-30T10:45:19.000Z</time>
      </trkpt>
      <trkpt lat="44.11976" lon="7.04881">
        <ele>1880.1999511719</ele>
        <time>2020-07-30T10:45:20.000Z</time>
      </trkpt>
      <trkpt lat="44.11979" lon="7.04875">
        <ele>1880.5999755859</ele>
        <time>2020-07-30T10:45:26.000Z</time>
      </trkpt>
      <trkpt lat="44.11982" lon="7.04872">
        <ele>1881.1999511719</ele>
        <time>2020-07-30T10:45:33.000Z</time>
      </trkpt>
      <trkpt lat="44.11982" lon="7.04872">
        <ele>1881.4000244141</ele>
        <time>2020-07-30T10:45:34.000Z</time>
      </trkpt>
      <trkpt lat="44.11985" lon="7.04865">
        <ele>1881.4000244141</ele>
        <time>2020-07-30T10:45:42.000Z</time>
      </trkpt>
      <trkpt lat="44.11988" lon="7.0486">
        <ele>1882</ele>
        <time>2020-07-30T10:45:47.000Z</time>
      </trkpt>
      <trkpt lat="44.11989" lon="7.04859">
        <ele>1882.4000244141</ele>
        <time>2020-07-30T10:45:49.000Z</time>
      </trkpt>
      <trkpt lat="44.11988" lon="7.04857">
        <ele>1882.8000488281</ele>
        <time>2020-07-30T10:45:53.000Z</time>
      </trkpt>
      <trkpt lat="44.11989" lon="7.04855">
        <ele>1882.5999755859</ele>
        <time>2020-07-30T10:45:54.000Z</time>
      </trkpt>
      <trkpt lat="44.11992" lon="7.0485">
        <ele>1883.1999511719</ele>
        <time>2020-07-30T10:46:00.000Z</time>
      </trkpt>
      <trkpt lat="44.11992" lon="7.0485">
        <ele>1883.5999755859</ele>
        <time>2020-07-30T10:46:02.000Z</time>
      </trkpt>
      <trkpt lat="44.11993" lon="7.04848">
        <ele>1884</ele>
        <time>2020-07-30T10:46:06.000Z</time>
      </trkpt>
      <trkpt lat="44.11996" lon="7.04845">
        <ele>1884.1999511719</ele>
        <time>2020-07-30T10:46:11.000Z</time>
      </trkpt>
      <trkpt lat="44.11998" lon="7.04841">
        <ele>1884.5999755859</ele>
        <time>2020-07-30T10:46:15.000Z</time>
      </trkpt>
      <trkpt lat="44.11999" lon="7.0484">
        <ele>1884.5999755859</ele>
        <time>2020-07-30T10:46:16.000Z</time>
      </trkpt>
      <trkpt lat="44.12004" lon="7.04831">
        <ele>1884.5999755859</ele>
        <time>2020-07-30T10:46:21.000Z</time>
      </trkpt>
      <trkpt lat="44.12008" lon="7.04821">
        <ele>1885.8000488281</ele>
        <time>2020-07-30T10:46:26.000Z</time>
      </trkpt>
      <trkpt lat="44.12008" lon="7.0482">
        <ele>1886.1999511719</ele>
        <time>2020-07-30T10:46:27.000Z</time>
      </trkpt>
      <trkpt lat="44.12009" lon="7.04814">
        <ele>1887.1999511719</ele>
        <time>2020-07-30T10:46:31.000Z</time>
      </trkpt>
      <trkpt lat="44.12009" lon="7.04814">
        <ele>1887.1999511719</ele>
        <time>2020-07-30T10:46:33.000Z</time>
      </trkpt>
      <trkpt lat="44.12011" lon="7.04806">
        <ele>1887.4000244141</ele>
        <time>2020-07-30T10:46:40.000Z</time>
      </trkpt>
      <trkpt lat="44.12013" lon="7.04803">
        <ele>1887.8000488281</ele>
        <time>2020-07-30T10:46:44.000Z</time>
      </trkpt>
      <trkpt lat="44.12017" lon="7.04799">
        <ele>1888.4000244141</ele>
        <time>2020-07-30T10:46:48.000Z</time>
      </trkpt>
      <trkpt lat="44.12018" lon="7.04799">
        <ele>1888.4000244141</ele>
        <time>2020-07-30T10:46:49.000Z</time>
      </trkpt>
      <trkpt lat="44.12025" lon="7.04796">
        <ele>1888.8000488281</ele>
        <time>2020-07-30T10:46:54.000Z</time>
      </trkpt>
      <trkpt lat="44.12033" lon="7.04794">
        <ele>1889.5999755859</ele>
        <time>2020-07-30T10:46:58.000Z</time>
      </trkpt>
      <trkpt lat="44.12036" lon="7.04792">
        <ele>1890</ele>
        <time>2020-07-30T10:47:00.000Z</time>
      </trkpt>
      <trkpt lat="44.1204" lon="7.04792">
        <ele>1891</ele>
        <time>2020-07-30T10:47:02.000Z</time>
      </trkpt>
      <trkpt lat="44.12042" lon="7.04793">
        <ele>1892.1999511719</ele>
        <time>2020-07-30T10:47:05.000Z</time>
      </trkpt>
      <trkpt lat="44.12042" lon="7.04793">
        <ele>1893.1999511719</ele>
        <time>2020-07-30T10:47:07.000Z</time>
      </trkpt>
      <trkpt lat="44.12044" lon="7.04794">
        <ele>1894</ele>
        <time>2020-07-30T10:47:11.000Z</time>
      </trkpt>
      <trkpt lat="44.12044" lon="7.04794">
        <ele>1894.4000244141</ele>
        <time>2020-07-30T10:47:13.000Z</time>
      </trkpt>
      <trkpt lat="44.12045" lon="7.04794">
        <ele>1894.8000488281</ele>
        <time>2020-07-30T10:47:16.000Z</time>
      </trkpt>
      <trkpt lat="44.12047" lon="7.04794">
        <ele>1895.4000244141</ele>
        <time>2020-07-30T10:47:19.000Z</time>
      </trkpt>
      <trkpt lat="44.12048" lon="7.04794">
        <ele>1895.8000488281</ele>
        <time>2020-07-30T10:47:24.000Z</time>
      </trkpt>
      <trkpt lat="44.12054" lon="7.0479">
        <ele>1896</ele>
        <time>2020-07-30T10:47:29.000Z</time>
      </trkpt>
      <trkpt lat="44.1206" lon="7.04788">
        <ele>1896.5999755859</ele>
        <time>2020-07-30T10:47:33.000Z</time>
      </trkpt>
      <trkpt lat="44.12066" lon="7.04786">
        <ele>1897.5999755859</ele>
        <time>2020-07-30T10:47:36.000Z</time>
      </trkpt>
      <trkpt lat="44.12072" lon="7.04785">
        <ele>1898.8000488281</ele>
        <time>2020-07-30T10:47:40.000Z</time>
      </trkpt>
      <trkpt lat="44.12076" lon="7.04785">
        <ele>1899.5999755859</ele>
        <time>2020-07-30T10:47:42.000Z</time>
      </trkpt>
      <trkpt lat="44.12078" lon="7.04785">
        <ele>1899.8000488281</ele>
        <time>2020-07-30T10:47:43.000Z</time>
      </trkpt>
      <trkpt lat="44.12082" lon="7.04783">
        <ele>1901.1999511719</ele>
        <time>2020-07-30T10:47:46.000Z</time>
      </trkpt>
      <trkpt lat="44.12087" lon="7.04784">
        <ele>1902.4000244141</ele>
        <time>2020-07-30T10:47:49.000Z</time>
      </trkpt>
      <trkpt lat="44.12089" lon="7.04784">
        <ele>1903</ele>
        <time>2020-07-30T10:47:50.000Z</time>
      </trkpt>
      <trkpt lat="44.1209" lon="7.04785">
        <ele>1903.5999755859</ele>
        <time>2020-07-30T10:47:51.000Z</time>
      </trkpt>
      <trkpt lat="44.12092" lon="7.04785">
        <ele>1904.8000488281</ele>
        <time>2020-07-30T10:47:53.000Z</time>
      </trkpt>
      <trkpt lat="44.12097" lon="7.04784">
        <ele>1906</ele>
        <time>2020-07-30T10:47:56.000Z</time>
      </trkpt>
      <trkpt lat="44.12103" lon="7.04784">
        <ele>1907</ele>
        <time>2020-07-30T10:48:00.000Z</time>
      </trkpt>
      <trkpt lat="44.12106" lon="7.04783">
        <ele>1907.8000488281</ele>
        <time>2020-07-30T10:48:02.000Z</time>
      </trkpt>
      <trkpt lat="44.12109" lon="7.04783">
        <ele>1908.4000244141</ele>
        <time>2020-07-30T10:48:04.000Z</time>
      </trkpt>
      <trkpt lat="44.12112" lon="7.04782">
        <ele>1909</ele>
        <time>2020-07-30T10:48:06.000Z</time>
      </trkpt>
      <trkpt lat="44.12114" lon="7.04782">
        <ele>1909.5999755859</ele>
        <time>2020-07-30T10:48:07.000Z</time>
      </trkpt>
      <trkpt lat="44.12116" lon="7.04781">
        <ele>1910.5999755859</ele>
        <time>2020-07-30T10:48:09.000Z</time>
      </trkpt>
      <trkpt lat="44.12118" lon="7.0478">
        <ele>1910.8000488281</ele>
        <time>2020-07-30T10:48:10.000Z</time>
      </trkpt>
      <trkpt lat="44.12119" lon="7.04779">
        <ele>1911.1999511719</ele>
        <time>2020-07-30T10:48:11.000Z</time>
      </trkpt>
      <trkpt lat="44.12126" lon="7.04779">
        <ele>1912</ele>
        <time>2020-07-30T10:48:15.000Z</time>
      </trkpt>
      <trkpt lat="44.12134" lon="7.04786">
        <ele>1913</ele>
        <time>2020-07-30T10:48:20.000Z</time>
      </trkpt>
      <trkpt lat="44.12135" lon="7.04787">
        <ele>1913.4000244141</ele>
        <time>2020-07-30T10:48:21.000Z</time>
      </trkpt>
      <trkpt lat="44.12138" lon="7.04788">
        <ele>1914.4000244141</ele>
        <time>2020-07-30T10:48:23.000Z</time>
      </trkpt>
      <trkpt lat="44.12142" lon="7.04787">
        <ele>1915.5999755859</ele>
        <time>2020-07-30T10:48:25.000Z</time>
      </trkpt>
      <trkpt lat="44.12147" lon="7.04786">
        <ele>1917</ele>
        <time>2020-07-30T10:48:28.000Z</time>
      </trkpt>
      <trkpt lat="44.12151" lon="7.04787">
        <ele>1918.4000244141</ele>
        <time>2020-07-30T10:48:31.000Z</time>
      </trkpt>
      <trkpt lat="44.12153" lon="7.04788">
        <ele>1918.5999755859</ele>
        <time>2020-07-30T10:48:32.000Z</time>
      </trkpt>
      <trkpt lat="44.12158" lon="7.04788">
        <ele>1919.4000244141</ele>
        <time>2020-07-30T10:48:35.000Z</time>
      </trkpt>
      <trkpt lat="44.12163" lon="7.04789">
        <ele>1920</ele>
        <time>2020-07-30T10:48:38.000Z</time>
      </trkpt>
      <trkpt lat="44.12166" lon="7.04791">
        <ele>1920.8000488281</ele>
        <time>2020-07-30T10:48:40.000Z</time>
      </trkpt>
      <trkpt lat="44.12171" lon="7.04796">
        <ele>1922</ele>
        <time>2020-07-30T10:48:44.000Z</time>
      </trkpt>
      <trkpt lat="44.12173" lon="7.04797">
        <ele>1922.4000244141</ele>
        <time>2020-07-30T10:48:45.000Z</time>
      </trkpt>
      <trkpt lat="44.12179" lon="7.048">
        <ele>1923</ele>
        <time>2020-07-30T10:48:48.000Z</time>
      </trkpt>
      <trkpt lat="44.12188" lon="7.04802">
        <ele>1923.8000488281</ele>
        <time>2020-07-30T10:48:53.000Z</time>
      </trkpt>
      <trkpt lat="44.12193" lon="7.04803">
        <ele>1924.1999511719</ele>
        <time>2020-07-30T10:48:55.000Z</time>
      </trkpt>
      <trkpt lat="44.12199" lon="7.04804">
        <ele>1925.1999511719</ele>
        <time>2020-07-30T10:48:59.000Z</time>
      </trkpt>
      <trkpt lat="44.12203" lon="7.04804">
        <ele>1926.4000244141</ele>
        <time>2020-07-30T10:49:01.000Z</time>
      </trkpt>
      <trkpt lat="44.12207" lon="7.04805">
        <ele>1927.4000244141</ele>
        <time>2020-07-30T10:49:03.000Z</time>
      </trkpt>
      <trkpt lat="44.12212" lon="7.04804">
        <ele>1928.5999755859</ele>
        <time>2020-07-30T10:49:06.000Z</time>
      </trkpt>
      <trkpt lat="44.12219" lon="7.04805">
        <ele>1930</ele>
        <time>2020-07-30T10:49:10.000Z</time>
      </trkpt>
      <trkpt lat="44.12222" lon="7.04806">
        <ele>1930.4000244141</ele>
        <time>2020-07-30T10:49:12.000Z</time>
      </trkpt>
      <trkpt lat="44.12223" lon="7.04806">
        <ele>1930.8000488281</ele>
        <time>2020-07-30T10:49:13.000Z</time>
      </trkpt>
      <trkpt lat="44.12224" lon="7.04807">
        <ele>1931</ele>
        <time>2020-07-30T10:49:14.000Z</time>
      </trkpt>
      <trkpt lat="44.12225" lon="7.04809">
        <ele>1931.1999511719</ele>
        <time>2020-07-30T10:49:15.000Z</time>
      </trkpt>
      <trkpt lat="44.12225" lon="7.04808">
        <ele>1931.5999755859</ele>
        <time>2020-07-30T10:49:17.000Z</time>
      </trkpt>
      <trkpt lat="44.12225" lon="7.04807">
        <ele>1932.1999511719</ele>
        <time>2020-07-30T10:49:19.000Z</time>
      </trkpt>
      <trkpt lat="44.12226" lon="7.04808">
        <ele>1932.5999755859</ele>
        <time>2020-07-30T10:49:22.000Z</time>
      </trkpt>
      <trkpt lat="44.12229" lon="7.04809">
        <ele>1932.5999755859</ele>
        <time>2020-07-30T10:49:27.000Z</time>
      </trkpt>
      <trkpt lat="44.1223" lon="7.0481">
        <ele>1933</ele>
        <time>2020-07-30T10:49:33.000Z</time>
      </trkpt>
      <trkpt lat="44.1223" lon="7.0481">
        <ele>1933.1999511719</ele>
        <time>2020-07-30T10:49:37.000Z</time>
      </trkpt>
      <trkpt lat="44.12232" lon="7.04811">
        <ele>1933.1999511719</ele>
        <time>2020-07-30T10:49:41.000Z</time>
      </trkpt>
      <trkpt lat="44.12237" lon="7.04814">
        <ele>1933</ele>
        <time>2020-07-30T10:49:46.000Z</time>
      </trkpt>
      <trkpt lat="44.12246" lon="7.04817">
        <ele>1934.1999511719</ele>
        <time>2020-07-30T10:49:52.000Z</time>
      </trkpt>
      <trkpt lat="44.12247" lon="7.04818">
        <ele>1934.5999755859</ele>
        <time>2020-07-30T10:49:53.000Z</time>
      </trkpt>
      <trkpt lat="44.1225" lon="7.04818">
        <ele>1935.4000244141</ele>
        <time>2020-07-30T10:49:55.000Z</time>
      </trkpt>
      <trkpt lat="44.12255" lon="7.04819">
        <ele>1936</ele>
        <time>2020-07-30T10:49:58.000Z</time>
      </trkpt>
      <trkpt lat="44.12262" lon="7.04821">
        <ele>1936.5999755859</ele>
        <time>2020-07-30T10:50:02.000Z</time>
      </trkpt>
      <trkpt lat="44.12269" lon="7.04823">
        <ele>1937.4000244141</ele>
        <time>2020-07-30T10:50:06.000Z</time>
      </trkpt>
      <trkpt lat="44.12273" lon="7.04823">
        <ele>1937.8000488281</ele>
        <time>2020-07-30T10:50:08.000Z</time>
      </trkpt>
      <trkpt lat="44.1228" lon="7.04823">
        <ele>1939</ele>
        <time>2020-07-30T10:50:12.000Z</time>
      </trkpt>
      <trkpt lat="44.12284" lon="7.04822">
        <ele>1939.8000488281</ele>
        <time>2020-07-30T10:50:14.000Z</time>
      </trkpt>
      <trkpt lat="44.12287" lon="7.04821">
        <ele>1940.4000244141</ele>
        <time>2020-07-30T10:50:16.000Z</time>
      </trkpt>
      <trkpt lat="44.12295" lon="7.04818">
        <ele>1941.4000244141</ele>
        <time>2020-07-30T10:50:20.000Z</time>
      </trkpt>
      <trkpt lat="44.12299" lon="7.04817">
        <ele>1942</ele>
        <time>2020-07-30T10:50:22.000Z</time>
      </trkpt>
      <trkpt lat="44.12302" lon="7.04817">
        <ele>1942.4000244141</ele>
        <time>2020-07-30T10:50:24.000Z</time>
      </trkpt>
      <trkpt lat="44.12311" lon="7.04814">
        <ele>1943</ele>
        <time>2020-07-30T10:50:28.000Z</time>
      </trkpt>
      <trkpt lat="44.12314" lon="7.04814">
        <ele>1944</ele>
        <time>2020-07-30T10:50:30.000Z</time>
      </trkpt>
      <trkpt lat="44.12318" lon="7.04813">
        <ele>1945.1999511719</ele>
        <time>2020-07-30T10:50:32.000Z</time>
      </trkpt>
      <trkpt lat="44.12321" lon="7.04811">
        <ele>1946.1999511719</ele>
        <time>2020-07-30T10:50:34.000Z</time>
      </trkpt>
      <trkpt lat="44.1233" lon="7.04809">
        <ele>1947.4000244141</ele>
        <time>2020-07-30T10:50:39.000Z</time>
      </trkpt>
      <trkpt lat="44.12335" lon="7.04807">
        <ele>1948</ele>
        <time>2020-07-30T10:50:42.000Z</time>
      </trkpt>
      <trkpt lat="44.12341" lon="7.04804">
        <ele>1948.5999755859</ele>
        <time>2020-07-30T10:50:45.000Z</time>
      </trkpt>
      <trkpt lat="44.12347" lon="7.048">
        <ele>1949.5999755859</ele>
        <time>2020-07-30T10:50:49.000Z</time>
      </trkpt>
      <trkpt lat="44.12348" lon="7.04799">
        <ele>1949.8000488281</ele>
        <time>2020-07-30T10:50:50.000Z</time>
      </trkpt>
      <trkpt lat="44.12358" lon="7.04794">
        <ele>1950.5999755859</ele>
        <time>2020-07-30T10:50:56.000Z</time>
      </trkpt>
      <trkpt lat="44.1236" lon="7.04793">
        <ele>1950.8000488281</ele>
        <time>2020-07-30T10:50:57.000Z</time>
      </trkpt>
      <trkpt lat="44.12375" lon="7.04782">
        <ele>1951.5999755859</ele>
        <time>2020-07-30T10:51:06.000Z</time>
      </trkpt>
      <trkpt lat="44.1239" lon="7.04768">
        <ele>1952.8000488281</ele>
        <time>2020-07-30T10:51:15.000Z</time>
      </trkpt>
      <trkpt lat="44.12399" lon="7.0476">
        <ele>1953.5999755859</ele>
        <time>2020-07-30T10:51:21.000Z</time>
      </trkpt>
      <trkpt lat="44.124" lon="7.04758">
        <ele>1954</ele>
        <time>2020-07-30T10:51:22.000Z</time>
      </trkpt>
      <trkpt lat="44.12409" lon="7.04753">
        <ele>1955</ele>
        <time>2020-07-30T10:51:27.000Z</time>
      </trkpt>
      <trkpt lat="44.12412" lon="7.0475">
        <ele>1955.1999511719</ele>
        <time>2020-07-30T10:51:29.000Z</time>
      </trkpt>
      <trkpt lat="44.12427" lon="7.0474">
        <ele>1955.8000488281</ele>
        <time>2020-07-30T10:51:37.000Z</time>
      </trkpt>
      <trkpt lat="44.12432" lon="7.04731">
        <ele>1956</ele>
        <time>2020-07-30T10:51:41.000Z</time>
      </trkpt>
      <trkpt lat="44.12434" lon="7.04727">
        <ele>1956.8000488281</ele>
        <time>2020-07-30T10:51:43.000Z</time>
      </trkpt>
      <trkpt lat="44.12435" lon="7.04726">
        <ele>1957</ele>
        <time>2020-07-30T10:51:44.000Z</time>
      </trkpt>
      <trkpt lat="44.12442" lon="7.04717">
        <ele>1958.1999511719</ele>
        <time>2020-07-30T10:51:49.000Z</time>
      </trkpt>
      <trkpt lat="44.12445" lon="7.04713">
        <ele>1959</ele>
        <time>2020-07-30T10:51:51.000Z</time>
      </trkpt>
      <trkpt lat="44.12447" lon="7.04709">
        <ele>1959.5999755859</ele>
        <time>2020-07-30T10:51:53.000Z</time>
      </trkpt>
      <trkpt lat="44.12454" lon="7.04704">
        <ele>1960.5999755859</ele>
        <time>2020-07-30T10:51:57.000Z</time>
      </trkpt>
      <trkpt lat="44.12456" lon="7.04703">
        <ele>1961</ele>
        <time>2020-07-30T10:51:58.000Z</time>
      </trkpt>
      <trkpt lat="44.12462" lon="7.04696">
        <ele>1962.1999511719</ele>
        <time>2020-07-30T10:52:02.000Z</time>
      </trkpt>
      <trkpt lat="44.12466" lon="7.04693">
        <ele>1962.8000488281</ele>
        <time>2020-07-30T10:52:04.000Z</time>
      </trkpt>
      <trkpt lat="44.12468" lon="7.04692">
        <ele>1963.1999511719</ele>
        <time>2020-07-30T10:52:05.000Z</time>
      </trkpt>
      <trkpt lat="44.12472" lon="7.04689">
        <ele>1964.5999755859</ele>
        <time>2020-07-30T10:52:08.000Z</time>
      </trkpt>
      <trkpt lat="44.12479" lon="7.04684">
        <ele>1965.4000244141</ele>
        <time>2020-07-30T10:52:12.000Z</time>
      </trkpt>
      <trkpt lat="44.12481" lon="7.04683">
        <ele>1965.5999755859</ele>
        <time>2020-07-30T10:52:13.000Z</time>
      </trkpt>
      <trkpt lat="44.12491" lon="7.04677">
        <ele>1967</ele>
        <time>2020-07-30T10:52:18.000Z</time>
      </trkpt>
      <trkpt lat="44.12493" lon="7.04675">
        <ele>1967.4000244141</ele>
        <time>2020-07-30T10:52:19.000Z</time>
      </trkpt>
      <trkpt lat="44.12496" lon="7.04672">
        <ele>1968.5999755859</ele>
        <time>2020-07-30T10:52:21.000Z</time>
      </trkpt>
      <trkpt lat="44.12499" lon="7.0467">
        <ele>1969.8000488281</ele>
        <time>2020-07-30T10:52:23.000Z</time>
      </trkpt>
      <trkpt lat="44.12501" lon="7.04669">
        <ele>1970.1999511719</ele>
        <time>2020-07-30T10:52:24.000Z</time>
      </trkpt>
      <trkpt lat="44.12502" lon="7.04668">
        <ele>1970.8000488281</ele>
        <time>2020-07-30T10:52:25.000Z</time>
      </trkpt>
      <trkpt lat="44.12506" lon="7.04664">
        <ele>1972</ele>
        <time>2020-07-30T10:52:28.000Z</time>
      </trkpt>
      <trkpt lat="44.12512" lon="7.04659">
        <ele>1972.8000488281</ele>
        <time>2020-07-30T10:52:32.000Z</time>
      </trkpt>
      <trkpt lat="44.12515" lon="7.04656">
        <ele>1973.1999511719</ele>
        <time>2020-07-30T10:52:34.000Z</time>
      </trkpt>
      <trkpt lat="44.12518" lon="7.04651">
        <ele>1974.4000244141</ele>
        <time>2020-07-30T10:52:37.000Z</time>
      </trkpt>
      <trkpt lat="44.12521" lon="7.04646">
        <ele>1975.8000488281</ele>
        <time>2020-07-30T10:52:40.000Z</time>
      </trkpt>
      <trkpt lat="44.12524" lon="7.0464">
        <ele>1977</ele>
        <time>2020-07-30T10:52:43.000Z</time>
      </trkpt>
      <trkpt lat="44.12528" lon="7.04636">
        <ele>1978</ele>
        <time>2020-07-30T10:52:46.000Z</time>
      </trkpt>
      <trkpt lat="44.12529" lon="7.04636">
        <ele>1978.1999511719</ele>
        <time>2020-07-30T10:52:47.000Z</time>
      </trkpt>
      <trkpt lat="44.12535" lon="7.04638">
        <ele>1979</ele>
        <time>2020-07-30T10:52:50.000Z</time>
      </trkpt>
      <trkpt lat="44.12537" lon="7.04637">
        <ele>1980</ele>
        <time>2020-07-30T10:52:52.000Z</time>
      </trkpt>
      <trkpt lat="44.12536" lon="7.04631">
        <ele>1981.5999755859</ele>
        <time>2020-07-30T10:52:55.000Z</time>
      </trkpt>
      <trkpt lat="44.12536" lon="7.04628">
        <ele>1982</ele>
        <time>2020-07-30T10:52:56.000Z</time>
      </trkpt>
      <trkpt lat="44.12536" lon="7.04626">
        <ele>1982.4000244141</ele>
        <time>2020-07-30T10:52:57.000Z</time>
      </trkpt>
      <trkpt lat="44.12536" lon="7.04624">
        <ele>1982.8000488281</ele>
        <time>2020-07-30T10:52:58.000Z</time>
      </trkpt>
      <trkpt lat="44.12537" lon="7.04619">
        <ele>1983.8000488281</ele>
        <time>2020-07-30T10:53:01.000Z</time>
      </trkpt>
      <trkpt lat="44.12538" lon="7.04618">
        <ele>1984.1999511719</ele>
        <time>2020-07-30T10:53:02.000Z</time>
      </trkpt>
      <trkpt lat="44.12544" lon="7.04618">
        <ele>1985.1999511719</ele>
        <time>2020-07-30T10:53:06.000Z</time>
      </trkpt>
      <trkpt lat="44.12546" lon="7.04618">
        <ele>1985.4000244141</ele>
        <time>2020-07-30T10:53:07.000Z</time>
      </trkpt>
      <trkpt lat="44.12549" lon="7.04614">
        <ele>1985.8000488281</ele>
        <time>2020-07-30T10:53:10.000Z</time>
      </trkpt>
      <trkpt lat="44.12551" lon="7.04611">
        <ele>1986</ele>
        <time>2020-07-30T10:53:12.000Z</time>
      </trkpt>
      <trkpt lat="44.12552" lon="7.04609">
        <ele>1986.1999511719</ele>
        <time>2020-07-30T10:53:13.000Z</time>
      </trkpt>
      <trkpt lat="44.12557" lon="7.04602">
        <ele>1987.4000244141</ele>
        <time>2020-07-30T10:53:18.000Z</time>
      </trkpt>
      <trkpt lat="44.12559" lon="7.04598">
        <ele>1988</ele>
        <time>2020-07-30T10:53:21.000Z</time>
      </trkpt>
      <trkpt lat="44.1256" lon="7.04594">
        <ele>1988.5999755859</ele>
        <time>2020-07-30T10:53:23.000Z</time>
      </trkpt>
      <trkpt lat="44.1256" lon="7.04587">
        <ele>1989.5999755859</ele>
        <time>2020-07-30T10:53:27.000Z</time>
      </trkpt>
      <trkpt lat="44.12559" lon="7.04585">
        <ele>1990</ele>
        <time>2020-07-30T10:53:28.000Z</time>
      </trkpt>
      <trkpt lat="44.12561" lon="7.04578">
        <ele>1991.1999511719</ele>
        <time>2020-07-30T10:53:31.000Z</time>
      </trkpt>
      <trkpt lat="44.12561" lon="7.04576">
        <ele>1991.8000488281</ele>
        <time>2020-07-30T10:53:32.000Z</time>
      </trkpt>
      <trkpt lat="44.12561" lon="7.04574">
        <ele>1992.4000244141</ele>
        <time>2020-07-30T10:53:33.000Z</time>
      </trkpt>
      <trkpt lat="44.12562" lon="7.04572">
        <ele>1992.8000488281</ele>
        <time>2020-07-30T10:53:34.000Z</time>
      </trkpt>
      <trkpt lat="44.12563" lon="7.04568">
        <ele>1993.5999755859</ele>
        <time>2020-07-30T10:53:36.000Z</time>
      </trkpt>
      <trkpt lat="44.12565" lon="7.04562">
        <ele>1994.4000244141</ele>
        <time>2020-07-30T10:53:39.000Z</time>
      </trkpt>
      <trkpt lat="44.12567" lon="7.0456">
        <ele>1994.8000488281</ele>
        <time>2020-07-30T10:53:40.000Z</time>
      </trkpt>
      <trkpt lat="44.12569" lon="7.04554">
        <ele>1995.8000488281</ele>
        <time>2020-07-30T10:53:44.000Z</time>
      </trkpt>
      <trkpt lat="44.12571" lon="7.04549">
        <ele>1996.8000488281</ele>
        <time>2020-07-30T10:53:47.000Z</time>
      </trkpt>
      <trkpt lat="44.12573" lon="7.04544">
        <ele>1998</ele>
        <time>2020-07-30T10:53:50.000Z</time>
      </trkpt>
      <trkpt lat="44.12573" lon="7.0454">
        <ele>1998.5999755859</ele>
        <time>2020-07-30T10:53:52.000Z</time>
      </trkpt>
      <trkpt lat="44.12573" lon="7.04536">
        <ele>1999</ele>
        <time>2020-07-30T10:53:54.000Z</time>
      </trkpt>
      <trkpt lat="44.12574" lon="7.04529">
        <ele>2000.1999511719</ele>
        <time>2020-07-30T10:53:58.000Z</time>
      </trkpt>
      <trkpt lat="44.12574" lon="7.04521">
        <ele>2001.1999511719</ele>
        <time>2020-07-30T10:54:02.000Z</time>
      </trkpt>
      <trkpt lat="44.12574" lon="7.0452">
        <ele>2001.5999755859</ele>
        <time>2020-07-30T10:54:03.000Z</time>
      </trkpt>
      <trkpt lat="44.12574" lon="7.04516">
        <ele>2002.4000244141</ele>
        <time>2020-07-30T10:54:05.000Z</time>
      </trkpt>
      <trkpt lat="44.12575" lon="7.0451">
        <ele>2003.4000244141</ele>
        <time>2020-07-30T10:54:08.000Z</time>
      </trkpt>
      <trkpt lat="44.12576" lon="7.04508">
        <ele>2003.8000488281</ele>
        <time>2020-07-30T10:54:09.000Z</time>
      </trkpt>
      <trkpt lat="44.12576" lon="7.04505">
        <ele>2004.5999755859</ele>
        <time>2020-07-30T10:54:11.000Z</time>
      </trkpt>
      <trkpt lat="44.12577" lon="7.04497">
        <ele>2005.5999755859</ele>
        <time>2020-07-30T10:54:15.000Z</time>
      </trkpt>
      <trkpt lat="44.12578" lon="7.04487">
        <ele>2006.8000488281</ele>
        <time>2020-07-30T10:54:20.000Z</time>
      </trkpt>
      <trkpt lat="44.12579" lon="7.04483">
        <ele>2007.5999755859</ele>
        <time>2020-07-30T10:54:22.000Z</time>
      </trkpt>
      <trkpt lat="44.12579" lon="7.04481">
        <ele>2008</ele>
        <time>2020-07-30T10:54:23.000Z</time>
      </trkpt>
      <trkpt lat="44.12581" lon="7.04471">
        <ele>2009.1999511719</ele>
        <time>2020-07-30T10:54:28.000Z</time>
      </trkpt>
      <trkpt lat="44.12582" lon="7.0447">
        <ele>2009.4000244141</ele>
        <time>2020-07-30T10:54:29.000Z</time>
      </trkpt>
      <trkpt lat="44.12584" lon="7.04463">
        <ele>2010.4000244141</ele>
        <time>2020-07-30T10:54:33.000Z</time>
      </trkpt>
      <trkpt lat="44.12584" lon="7.04457">
        <ele>2010.8000488281</ele>
        <time>2020-07-30T10:54:36.000Z</time>
      </trkpt>
      <trkpt lat="44.12587" lon="7.04449">
        <ele>2011.5999755859</ele>
        <time>2020-07-30T10:54:40.000Z</time>
      </trkpt>
      <trkpt lat="44.12589" lon="7.04442">
        <ele>2012.8000488281</ele>
        <time>2020-07-30T10:54:44.000Z</time>
      </trkpt>
      <trkpt lat="44.1259" lon="7.04431">
        <ele>2013.8000488281</ele>
        <time>2020-07-30T10:54:49.000Z</time>
      </trkpt>
      <trkpt lat="44.12592" lon="7.04423">
        <ele>2014.1999511719</ele>
        <time>2020-07-30T10:54:53.000Z</time>
      </trkpt>
      <trkpt lat="44.12594" lon="7.04415">
        <ele>2014.8000488281</ele>
        <time>2020-07-30T10:54:57.000Z</time>
      </trkpt>
      <trkpt lat="44.12596" lon="7.04411">
        <ele>2015.5999755859</ele>
        <time>2020-07-30T10:54:59.000Z</time>
      </trkpt>
      <trkpt lat="44.12597" lon="7.04406">
        <ele>2016.1999511719</ele>
        <time>2020-07-30T10:55:01.000Z</time>
      </trkpt>
      <trkpt lat="44.12602" lon="7.04395">
        <ele>2017.1999511719</ele>
        <time>2020-07-30T10:55:06.000Z</time>
      </trkpt>
      <trkpt lat="44.12603" lon="7.04394">
        <ele>2017.4000244141</ele>
        <time>2020-07-30T10:55:07.000Z</time>
      </trkpt>
      <trkpt lat="44.12606" lon="7.04386">
        <ele>2018.5999755859</ele>
        <time>2020-07-30T10:55:11.000Z</time>
      </trkpt>
      <trkpt lat="44.12612" lon="7.04377">
        <ele>2019.8000488281</ele>
        <time>2020-07-30T10:55:16.000Z</time>
      </trkpt>
      <trkpt lat="44.12618" lon="7.04365">
        <ele>2020.8000488281</ele>
        <time>2020-07-30T10:55:23.000Z</time>
      </trkpt>
      <trkpt lat="44.12619" lon="7.04364">
        <ele>2020.8000488281</ele>
        <time>2020-07-30T10:55:24.000Z</time>
      </trkpt>
      <trkpt lat="44.12623" lon="7.04355">
        <ele>2021.8000488281</ele>
        <time>2020-07-30T10:55:29.000Z</time>
      </trkpt>
      <trkpt lat="44.12625" lon="7.04352">
        <ele>2022</ele>
        <time>2020-07-30T10:55:30.000Z</time>
      </trkpt>
      <trkpt lat="44.12629" lon="7.04345">
        <ele>2023</ele>
        <time>2020-07-30T10:55:34.000Z</time>
      </trkpt>
      <trkpt lat="44.1263" lon="7.0434">
        <ele>2023.5999755859</ele>
        <time>2020-07-30T10:55:36.000Z</time>
      </trkpt>
      <trkpt lat="44.12632" lon="7.04336">
        <ele>2024</ele>
        <time>2020-07-30T10:55:38.000Z</time>
      </trkpt>
      <trkpt lat="44.12638" lon="7.04328">
        <ele>2024.4000244141</ele>
        <time>2020-07-30T10:55:43.000Z</time>
      </trkpt>
      <trkpt lat="44.12641" lon="7.04324">
        <ele>2025</ele>
        <time>2020-07-30T10:55:46.000Z</time>
      </trkpt>
      <trkpt lat="44.12645" lon="7.04315">
        <ele>2026.4000244141</ele>
        <time>2020-07-30T10:55:51.000Z</time>
      </trkpt>
      <trkpt lat="44.12646" lon="7.04313">
        <ele>2026.5999755859</ele>
        <time>2020-07-30T10:55:52.000Z</time>
      </trkpt>
      <trkpt lat="44.1265" lon="7.04307">
        <ele>2027.5999755859</ele>
        <time>2020-07-30T10:55:55.000Z</time>
      </trkpt>
      <trkpt lat="44.12653" lon="7.04304">
        <ele>2028.5999755859</ele>
        <time>2020-07-30T10:55:58.000Z</time>
      </trkpt>
      <trkpt lat="44.12656" lon="7.04297">
        <ele>2029.5999755859</ele>
        <time>2020-07-30T10:56:03.000Z</time>
      </trkpt>
      <trkpt lat="44.12657" lon="7.04293">
        <ele>2029.8000488281</ele>
        <time>2020-07-30T10:56:05.000Z</time>
      </trkpt>
      <trkpt lat="44.12657" lon="7.04281">
        <ele>2030.5999755859</ele>
        <time>2020-07-30T10:56:11.000Z</time>
      </trkpt>
      <trkpt lat="44.12657" lon="7.04278">
        <ele>2030.5999755859</ele>
        <time>2020-07-30T10:56:12.000Z</time>
      </trkpt>
      <trkpt lat="44.12657" lon="7.04264">
        <ele>2030.8000488281</ele>
        <time>2020-07-30T10:56:20.000Z</time>
      </trkpt>
      <trkpt lat="44.12657" lon="7.04264">
        <ele>2031.4000244141</ele>
        <time>2020-07-30T10:56:25.000Z</time>
      </trkpt>
      <trkpt lat="44.12657" lon="7.04263">
        <ele>2031.5999755859</ele>
        <time>2020-07-30T10:56:29.000Z</time>
      </trkpt>
      <trkpt lat="44.12658" lon="7.04263">
        <ele>2031.8000488281</ele>
        <time>2020-07-30T10:56:32.000Z</time>
      </trkpt>
      <trkpt lat="44.12656" lon="7.04261">
        <ele>2031.5999755859</ele>
        <time>2020-07-30T10:56:36.000Z</time>
      </trkpt>
      <trkpt lat="44.12653" lon="7.04261">
        <ele>2031.1999511719</ele>
        <time>2020-07-30T10:56:41.000Z</time>
      </trkpt>
      <trkpt lat="44.12657" lon="7.04263">
        <ele>2030.8000488281</ele>
        <time>2020-07-30T10:56:48.000Z</time>
      </trkpt>
      <trkpt lat="44.12656" lon="7.04263">
        <ele>2031.8000488281</ele>
        <time>2020-07-30T10:56:56.000Z</time>
      </trkpt>
      <trkpt lat="44.1265" lon="7.0426">
        <ele>2031.4000244141</ele>
        <time>2020-07-30T10:57:02.000Z</time>
      </trkpt>
      <trkpt lat="44.12645" lon="7.0426">
        <ele>2030.5999755859</ele>
        <time>2020-07-30T10:57:07.000Z</time>
      </trkpt>
      <trkpt lat="44.12642" lon="7.04258">
        <ele>2030.1999511719</ele>
        <time>2020-07-30T10:57:10.000Z</time>
      </trkpt>
      <trkpt lat="44.12639" lon="7.04254">
        <ele>2029.5999755859</ele>
        <time>2020-07-30T10:57:14.000Z</time>
      </trkpt>
      <trkpt lat="44.12637" lon="7.0425">
        <ele>2029</ele>
        <time>2020-07-30T10:57:17.000Z</time>
      </trkpt>
      <trkpt lat="44.12635" lon="7.04247">
        <ele>2028.5999755859</ele>
        <time>2020-07-30T10:57:23.000Z</time>
      </trkpt>
      <trkpt lat="44.12635" lon="7.04247">
        <ele>2029.4000244141</ele>
        <time>2020-07-30T10:57:32.000Z</time>
      </trkpt>
      <trkpt lat="44.12635" lon="7.04247">
        <ele>2028.4000244141</ele>
        <time>2020-07-30T10:57:44.000Z</time>
      </trkpt>
      <trkpt lat="44.12635" lon="7.04247">
        <ele>2027.1999511719</ele>
        <time>2020-07-30T10:57:46.000Z</time>
      </trkpt>
      <trkpt lat="44.12635" lon="7.04247">
        <ele>2026</ele>
        <time>2020-07-30T10:57:47.000Z</time>
      </trkpt>
      <trkpt lat="44.12635" lon="7.04244">
        <ele>2026.5999755859</ele>
        <time>2020-07-30T10:57:52.000Z</time>
      </trkpt>
      <trkpt lat="44.12633" lon="7.04242">
        <ele>2026.5999755859</ele>
        <time>2020-07-30T10:57:59.000Z</time>
      </trkpt>
      <trkpt lat="44.12633" lon="7.04242">
        <ele>2027</ele>
        <time>2020-07-30T10:58:02.000Z</time>
      </trkpt>
      <trkpt lat="44.12633" lon="7.04242">
        <ele>2027.1999511719</ele>
        <time>2020-07-30T10:58:10.000Z</time>
      </trkpt>
      <trkpt lat="44.12633" lon="7.04242">
        <ele>2027</ele>
        <time>2020-07-30T10:58:21.000Z</time>
      </trkpt>
      <trkpt lat="44.12634" lon="7.04242">
        <ele>2027</ele>
        <time>2020-07-30T10:58:37.000Z</time>
      </trkpt>
      <trkpt lat="44.12634" lon="7.04242">
        <ele>2028.1999511719</ele>
        <time>2020-07-30T10:58:46.000Z</time>
      </trkpt>
      <trkpt lat="44.12634" lon="7.04241">
        <ele>2029.1999511719</ele>
        <time>2020-07-30T10:58:53.000Z</time>
      </trkpt>
      <trkpt lat="44.12634" lon="7.04241">
        <ele>2029.5999755859</ele>
        <time>2020-07-30T10:58:56.000Z</time>
      </trkpt>
      <trkpt lat="44.12634" lon="7.04241">
        <ele>2029.1999511719</ele>
        <time>2020-07-30T10:59:04.000Z</time>
      </trkpt>
      <trkpt lat="44.12634" lon="7.04241">
        <ele>2029.5999755859</ele>
        <time>2020-07-30T10:59:12.000Z</time>
      </trkpt>
      <trkpt lat="44.12634" lon="7.04241">
        <ele>2030.1999511719</ele>
        <time>2020-07-30T10:59:21.000Z</time>
      </trkpt>
      <trkpt lat="44.12634" lon="7.04241">
        <ele>2030.4000244141</ele>
        <time>2020-07-30T10:59:22.000Z</time>
      </trkpt>
      <trkpt lat="44.12634" lon="7.04241">
        <ele>2029.5999755859</ele>
        <time>2020-07-30T10:59:30.000Z</time>
      </trkpt>
      <trkpt lat="44.12634" lon="7.0424">
        <ele>2029.5999755859</ele>
        <time>2020-07-30T10:59:38.000Z</time>
      </trkpt>
      <trkpt lat="44.12634" lon="7.0424">
        <ele>2029.1999511719</ele>
        <time>2020-07-30T10:59:45.000Z</time>
      </trkpt>
      <trkpt lat="44.12634" lon="7.0424">
        <ele>2029.1999511719</ele>
        <time>2020-07-30T10:59:49.000Z</time>
      </trkpt>
      <trkpt lat="44.12634" lon="7.0424">
        <ele>2029.1999511719</ele>
        <time>2020-07-30T10:59:59.000Z</time>
      </trkpt>
      <trkpt lat="44.12634" lon="7.0424">
        <ele>2029.8000488281</ele>
        <time>2020-07-30T11:00:16.000Z</time>
      </trkpt>
      <trkpt lat="44.12634" lon="7.0424">
        <ele>2029.5999755859</ele>
        <time>2020-07-30T11:00:26.000Z</time>
      </trkpt>
      <trkpt lat="44.12634" lon="7.0424">
        <ele>2029.5999755859</ele>
        <time>2020-07-30T11:00:36.000Z</time>
      </trkpt>
      <trkpt lat="44.12634" lon="7.04241">
        <ele>2029.5999755859</ele>
        <time>2020-07-30T11:00:43.000Z</time>
      </trkpt>
      <trkpt lat="44.12634" lon="7.0424">
        <ele>2029.8000488281</ele>
        <time>2020-07-30T11:00:52.000Z</time>
      </trkpt>
      <trkpt lat="44.12635" lon="7.0424">
        <ele>2029.4000244141</ele>
        <time>2020-07-30T11:01:05.000Z</time>
      </trkpt>
      <trkpt lat="44.12635" lon="7.04239">
        <ele>2030</ele>
        <time>2020-07-30T11:01:14.000Z</time>
      </trkpt>
      <trkpt lat="44.12635" lon="7.0424">
        <ele>2029.4000244141</ele>
        <time>2020-07-30T11:01:29.000Z</time>
      </trkpt>
      <trkpt lat="44.12634" lon="7.0424">
        <ele>2029.5999755859</ele>
        <time>2020-07-30T11:01:45.000Z</time>
      </trkpt>
      <trkpt lat="44.12634" lon="7.04241">
        <ele>2029.4000244141</ele>
        <time>2020-07-30T11:02:05.000Z</time>
      </trkpt>
      <trkpt lat="44.12634" lon="7.04241">
        <ele>2029.1999511719</ele>
        <time>2020-07-30T11:02:18.000Z</time>
      </trkpt>
      <trkpt lat="44.12635" lon="7.0424">
        <ele>2030</ele>
        <time>2020-07-30T11:02:26.000Z</time>
      </trkpt>
      <trkpt lat="44.12636" lon="7.04243">
        <ele>2029.4000244141</ele>
        <time>2020-07-30T11:02:42.000Z</time>
      </trkpt>
      <trkpt lat="44.12637" lon="7.04246">
        <ele>2028.5999755859</ele>
        <time>2020-07-30T11:02:49.000Z</time>
      </trkpt>
      <trkpt lat="44.12638" lon="7.04246">
        <ele>2028.8000488281</ele>
        <time>2020-07-30T11:02:55.000Z</time>
      </trkpt>
      <trkpt lat="44.12636" lon="7.04245">
        <ele>2029.1999511719</ele>
        <time>2020-07-30T11:03:00.000Z</time>
      </trkpt>
      <trkpt lat="44.12636" lon="7.04245">
        <ele>2029</ele>
        <time>2020-07-30T11:03:10.000Z</time>
      </trkpt>
      <trkpt lat="44.12634" lon="7.04245">
        <ele>2028.8000488281</ele>
        <time>2020-07-30T11:03:17.000Z</time>
      </trkpt>
      <trkpt lat="44.12632" lon="7.04245">
        <ele>2028.5999755859</ele>
        <time>2020-07-30T11:03:24.000Z</time>
      </trkpt>
      <trkpt lat="44.12631" lon="7.04243">
        <ele>2028.4000244141</ele>
        <time>2020-07-30T11:03:35.000Z</time>
      </trkpt>
      <trkpt lat="44.12631" lon="7.04243">
        <ele>2029</ele>
        <time>2020-07-30T11:03:41.000Z</time>
      </trkpt>
      <trkpt lat="44.12631" lon="7.04243">
        <ele>2028.8000488281</ele>
        <time>2020-07-30T11:03:46.000Z</time>
      </trkpt>
      <trkpt lat="44.12631" lon="7.04242">
        <ele>2029</ele>
        <time>2020-07-30T11:03:55.000Z</time>
      </trkpt>
      <trkpt lat="44.12631" lon="7.04242">
        <ele>2029.1999511719</ele>
        <time>2020-07-30T11:04:06.000Z</time>
      </trkpt>
      <trkpt lat="44.12631" lon="7.04243">
        <ele>2028.8000488281</ele>
        <time>2020-07-30T11:04:15.000Z</time>
      </trkpt>
      <trkpt lat="44.12631" lon="7.04243">
        <ele>2028.4000244141</ele>
        <time>2020-07-30T11:04:35.000Z</time>
      </trkpt>
      <trkpt lat="44.12631" lon="7.04243">
        <ele>2028.5999755859</ele>
        <time>2020-07-30T11:04:40.000Z</time>
      </trkpt>
      <trkpt lat="44.12631" lon="7.04243">
        <ele>2028.4000244141</ele>
        <time>2020-07-30T11:04:51.000Z</time>
      </trkpt>
      <trkpt lat="44.12631" lon="7.04243">
        <ele>2028.4000244141</ele>
        <time>2020-07-30T11:05:05.000Z</time>
      </trkpt>
      <trkpt lat="44.12631" lon="7.04243">
        <ele>2028.4000244141</ele>
        <time>2020-07-30T11:05:24.000Z</time>
      </trkpt>
      <trkpt lat="44.12631" lon="7.04243">
        <ele>2028.1999511719</ele>
        <time>2020-07-30T11:05:39.000Z</time>
      </trkpt>
      <trkpt lat="44.12632" lon="7.04243">
        <ele>2028.4000244141</ele>
        <time>2020-07-30T11:05:54.000Z</time>
      </trkpt>
      <trkpt lat="44.12631" lon="7.04243">
        <ele>2028.4000244141</ele>
        <time>2020-07-30T11:06:08.000Z</time>
      </trkpt>
      <trkpt lat="44.12632" lon="7.04243">
        <ele>2028.4000244141</ele>
        <time>2020-07-30T11:06:23.000Z</time>
      </trkpt>
      <trkpt lat="44.12633" lon="7.04243">
        <ele>2028.5999755859</ele>
        <time>2020-07-30T11:06:29.000Z</time>
      </trkpt>
      <trkpt lat="44.12634" lon="7.04243">
        <ele>2028</ele>
        <time>2020-07-30T11:06:32.000Z</time>
      </trkpt>
      <trkpt lat="44.12634" lon="7.04243">
        <ele>2027.8000488281</ele>
        <time>2020-07-30T11:06:38.000Z</time>
      </trkpt>
      <trkpt lat="44.12633" lon="7.04243">
        <ele>2028.1999511719</ele>
        <time>2020-07-30T11:06:54.000Z</time>
      </trkpt>
      <trkpt lat="44.12633" lon="7.04244">
        <ele>2028.1999511719</ele>
        <time>2020-07-30T11:07:17.000Z</time>
      </trkpt>
      <trkpt lat="44.12633" lon="7.04244">
        <ele>2028.4000244141</ele>
        <time>2020-07-30T11:07:37.000Z</time>
      </trkpt>
      <trkpt lat="44.12633" lon="7.04243">
        <ele>2028.1999511719</ele>
        <time>2020-07-30T11:07:53.000Z</time>
      </trkpt>
      <trkpt lat="44.12634" lon="7.04242">
        <ele>2028.1999511719</ele>
        <time>2020-07-30T11:08:21.000Z</time>
      </trkpt>
      <trkpt lat="44.12634" lon="7.04242">
        <ele>2028.4000244141</ele>
        <time>2020-07-30T11:08:32.000Z</time>
      </trkpt>
      <trkpt lat="44.12634" lon="7.04242">
        <ele>2028.1999511719</ele>
        <time>2020-07-30T11:08:44.000Z</time>
      </trkpt>
      <trkpt lat="44.12635" lon="7.04244">
        <ele>2027.5999755859</ele>
        <time>2020-07-30T11:08:51.000Z</time>
      </trkpt>
      <trkpt lat="44.12633" lon="7.04243">
        <ele>2027.8000488281</ele>
        <time>2020-07-30T11:08:56.000Z</time>
      </trkpt>
      <trkpt lat="44.12631" lon="7.04242">
        <ele>2027.8000488281</ele>
        <time>2020-07-30T11:09:04.000Z</time>
      </trkpt>
      <trkpt lat="44.12631" lon="7.04242">
        <ele>2027.8000488281</ele>
        <time>2020-07-30T11:09:14.000Z</time>
      </trkpt>
      <trkpt lat="44.12631" lon="7.04242">
        <ele>2028</ele>
        <time>2020-07-30T11:09:25.000Z</time>
      </trkpt>
      <trkpt lat="44.12631" lon="7.04241">
        <ele>2027.5999755859</ele>
        <time>2020-07-30T11:09:38.000Z</time>
      </trkpt>
      <trkpt lat="44.1263" lon="7.04241">
        <ele>2028.4000244141</ele>
        <time>2020-07-30T11:09:50.000Z</time>
      </trkpt>
      <trkpt lat="44.1263" lon="7.04241">
        <ele>2029</ele>
        <time>2020-07-30T11:09:52.000Z</time>
      </trkpt>
      <trkpt lat="44.1263" lon="7.04241">
        <ele>2028.5999755859</ele>
        <time>2020-07-30T11:10:00.000Z</time>
      </trkpt>
      <trkpt lat="44.1263" lon="7.04241">
        <ele>2028</ele>
        <time>2020-07-30T11:10:08.000Z</time>
      </trkpt>
      <trkpt lat="44.1263" lon="7.04241">
        <ele>2028</ele>
        <time>2020-07-30T11:10:09.000Z</time>
      </trkpt>
      <trkpt lat="44.1263" lon="7.04242">
        <ele>2028.4000244141</ele>
        <time>2020-07-30T11:10:23.000Z</time>
      </trkpt>
      <trkpt lat="44.1263" lon="7.04243">
        <ele>2029</ele>
        <time>2020-07-30T11:10:36.000Z</time>
      </trkpt>
      <trkpt lat="44.1263" lon="7.04242">
        <ele>2029.1999511719</ele>
        <time>2020-07-30T11:10:43.000Z</time>
      </trkpt>
      <trkpt lat="44.12631" lon="7.04243">
        <ele>2029.4000244141</ele>
        <time>2020-07-30T11:10:52.000Z</time>
      </trkpt>
      <trkpt lat="44.12631" lon="7.04244">
        <ele>2029.5999755859</ele>
        <time>2020-07-30T11:11:04.000Z</time>
      </trkpt>
      <trkpt lat="44.12634" lon="7.04246">
        <ele>2029.1999511719</ele>
        <time>2020-07-30T11:11:10.000Z</time>
      </trkpt>
      <trkpt lat="44.12636" lon="7.04244">
        <ele>2029.4000244141</ele>
        <time>2020-07-30T11:11:17.000Z</time>
      </trkpt>
      <trkpt lat="44.12635" lon="7.04243">
        <ele>2029</ele>
        <time>2020-07-30T11:11:22.000Z</time>
      </trkpt>
      <trkpt lat="44.12635" lon="7.04243">
        <ele>2029.8000488281</ele>
        <time>2020-07-30T11:11:27.000Z</time>
      </trkpt>
      <trkpt lat="44.12635" lon="7.04243">
        <ele>2029.8000488281</ele>
        <time>2020-07-30T11:11:39.000Z</time>
      </trkpt>
      <trkpt lat="44.12635" lon="7.04243">
        <ele>2029.5999755859</ele>
        <time>2020-07-30T11:11:48.000Z</time>
      </trkpt>
      <trkpt lat="44.12634" lon="7.04242">
        <ele>2029.1999511719</ele>
        <time>2020-07-30T11:11:55.000Z</time>
      </trkpt>
      <trkpt lat="44.12636" lon="7.04244">
        <ele>2029.4000244141</ele>
        <time>2020-07-30T11:12:01.000Z</time>
      </trkpt>
      <trkpt lat="44.12637" lon="7.04243">
        <ele>2029.5999755859</ele>
        <time>2020-07-30T11:12:02.000Z</time>
      </trkpt>
      <trkpt lat="44.12639" lon="7.04243">
        <ele>2029.4000244141</ele>
        <time>2020-07-30T11:12:06.000Z</time>
      </trkpt>
      <trkpt lat="44.1264" lon="7.04243">
        <ele>2029.4000244141</ele>
        <time>2020-07-30T11:12:11.000Z</time>
      </trkpt>
      <trkpt lat="44.12639" lon="7.04244">
        <ele>2029.4000244141</ele>
        <time>2020-07-30T11:12:12.000Z</time>
      </trkpt>
      <trkpt lat="44.12639" lon="7.04245">
        <ele>2029.4000244141</ele>
        <time>2020-07-30T11:12:15.000Z</time>
      </trkpt>
      <trkpt lat="44.12638" lon="7.04245">
        <ele>2030</ele>
        <time>2020-07-30T11:12:24.000Z</time>
      </trkpt>
      <trkpt lat="44.12638" lon="7.04246">
        <ele>2029.4000244141</ele>
        <time>2020-07-30T11:12:31.000Z</time>
      </trkpt>
      <trkpt lat="44.12636" lon="7.04243">
        <ele>2029</ele>
        <time>2020-07-30T11:12:36.000Z</time>
      </trkpt>
      <trkpt lat="44.12636" lon="7.04242">
        <ele>2029.4000244141</ele>
        <time>2020-07-30T11:12:43.000Z</time>
      </trkpt>
      <trkpt lat="44.12636" lon="7.04242">
        <ele>2029.4000244141</ele>
        <time>2020-07-30T11:12:48.000Z</time>
      </trkpt>
      <trkpt lat="44.12637" lon="7.04244">
        <ele>2029.5999755859</ele>
        <time>2020-07-30T11:12:53.000Z</time>
      </trkpt>
      <trkpt lat="44.12638" lon="7.04248">
        <ele>2029.4000244141</ele>
        <time>2020-07-30T11:12:59.000Z</time>
      </trkpt>
      <trkpt lat="44.1264" lon="7.04249">
        <ele>2029.1999511719</ele>
        <time>2020-07-30T11:13:00.000Z</time>
      </trkpt>
      <trkpt lat="44.12643" lon="7.04256">
        <ele>2029.4000244141</ele>
        <time>2020-07-30T11:13:06.000Z</time>
      </trkpt>
      <trkpt lat="44.12648" lon="7.04262">
        <ele>2029.8000488281</ele>
        <time>2020-07-30T11:13:12.000Z</time>
      </trkpt>
      <trkpt lat="44.12652" lon="7.04267">
        <ele>2030.1999511719</ele>
        <time>2020-07-30T11:13:17.000Z</time>
      </trkpt>
      <trkpt lat="44.12654" lon="7.04268">
        <ele>2030.8000488281</ele>
        <time>2020-07-30T11:13:24.000Z</time>
      </trkpt>
      <trkpt lat="44.12656" lon="7.04267">
        <ele>2030.5999755859</ele>
        <time>2020-07-30T11:13:30.000Z</time>
      </trkpt>
      <trkpt lat="44.12656" lon="7.04267">
        <ele>2031</ele>
        <time>2020-07-30T11:13:36.000Z</time>
      </trkpt>
      <trkpt lat="44.12655" lon="7.04268">
        <ele>2031</ele>
        <time>2020-07-30T11:13:38.000Z</time>
      </trkpt>
      <trkpt lat="44.12654" lon="7.04268">
        <ele>2031</ele>
        <time>2020-07-30T11:13:41.000Z</time>
      </trkpt>
      <trkpt lat="44.12658" lon="7.04269">
        <ele>2031.1999511719</ele>
        <time>2020-07-30T11:13:46.000Z</time>
      </trkpt>
      <trkpt lat="44.12659" lon="7.04268">
        <ele>2031.4000244141</ele>
        <time>2020-07-30T11:13:47.000Z</time>
      </trkpt>
      <trkpt lat="44.12664" lon="7.04266">
        <ele>2032.4000244141</ele>
        <time>2020-07-30T11:13:55.000Z</time>
      </trkpt>
      <trkpt lat="44.12665" lon="7.04266">
        <ele>2032.4000244141</ele>
        <time>2020-07-30T11:13:56.000Z</time>
      </trkpt>
      <trkpt lat="44.12672" lon="7.04265">
        <ele>2033.1999511719</ele>
        <time>2020-07-30T11:14:03.000Z</time>
      </trkpt>
      <trkpt lat="44.12673" lon="7.04264">
        <ele>2033.4000244141</ele>
        <time>2020-07-30T11:14:05.000Z</time>
      </trkpt>
      <trkpt lat="44.12679" lon="7.04265">
        <ele>2034</ele>
        <time>2020-07-30T11:14:11.000Z</time>
      </trkpt>
      <trkpt lat="44.12685" lon="7.04265">
        <ele>2034.5999755859</ele>
        <time>2020-07-30T11:14:17.000Z</time>
      </trkpt>
      <trkpt lat="44.12687" lon="7.04265">
        <ele>2035</ele>
        <time>2020-07-30T11:14:20.000Z</time>
      </trkpt>
      <trkpt lat="44.12691" lon="7.04266">
        <ele>2035.5999755859</ele>
        <time>2020-07-30T11:14:25.000Z</time>
      </trkpt>
      <trkpt lat="44.12694" lon="7.04266">
        <ele>2036</ele>
        <time>2020-07-30T11:14:28.000Z</time>
      </trkpt>
      <trkpt lat="44.127" lon="7.04269">
        <ele>2036.8000488281</ele>
        <time>2020-07-30T11:14:35.000Z</time>
      </trkpt>
      <trkpt lat="44.127" lon="7.0427">
        <ele>2036.8000488281</ele>
        <time>2020-07-30T11:14:36.000Z</time>
      </trkpt>
      <trkpt lat="44.12705" lon="7.04275">
        <ele>2037.8000488281</ele>
        <time>2020-07-30T11:14:43.000Z</time>
      </trkpt>
      <trkpt lat="44.12708" lon="7.04277">
        <ele>2038.4000244141</ele>
        <time>2020-07-30T11:14:47.000Z</time>
      </trkpt>
      <trkpt lat="44.12713" lon="7.04279">
        <ele>2039</ele>
        <time>2020-07-30T11:14:53.000Z</time>
      </trkpt>
      <trkpt lat="44.12717" lon="7.04282">
        <ele>2039.5999755859</ele>
        <time>2020-07-30T11:14:58.000Z</time>
      </trkpt>
      <trkpt lat="44.1272" lon="7.04284">
        <ele>2040</ele>
        <time>2020-07-30T11:15:02.000Z</time>
      </trkpt>
      <trkpt lat="44.12724" lon="7.04287">
        <ele>2040.5999755859</ele>
        <time>2020-07-30T11:15:07.000Z</time>
      </trkpt>
      <trkpt lat="44.12727" lon="7.0429">
        <ele>2041</ele>
        <time>2020-07-30T11:15:12.000Z</time>
      </trkpt>
      <trkpt lat="44.12732" lon="7.04292">
        <ele>2041.8000488281</ele>
        <time>2020-07-30T11:15:17.000Z</time>
      </trkpt>
      <trkpt lat="44.12734" lon="7.04293">
        <ele>2042</ele>
        <time>2020-07-30T11:15:21.000Z</time>
      </trkpt>
      <trkpt lat="44.12736" lon="7.04294">
        <ele>2042.4000244141</ele>
        <time>2020-07-30T11:15:24.000Z</time>
      </trkpt>
      <trkpt lat="44.1274" lon="7.04295">
        <ele>2043.1999511719</ele>
        <time>2020-07-30T11:15:30.000Z</time>
      </trkpt>
      <trkpt lat="44.12741" lon="7.04295">
        <ele>2043.4000244141</ele>
        <time>2020-07-30T11:15:31.000Z</time>
      </trkpt>
      <trkpt lat="44.12744" lon="7.04298">
        <ele>2044.4000244141</ele>
        <time>2020-07-30T11:15:36.000Z</time>
      </trkpt>
      <trkpt lat="44.12746" lon="7.043">
        <ele>2044.8000488281</ele>
        <time>2020-07-30T11:15:40.000Z</time>
      </trkpt>
      <trkpt lat="44.12747" lon="7.04302">
        <ele>2045.4000244141</ele>
        <time>2020-07-30T11:15:44.000Z</time>
      </trkpt>
      <trkpt lat="44.12748" lon="7.04303">
        <ele>2046.4000244141</ele>
        <time>2020-07-30T11:15:49.000Z</time>
      </trkpt>
      <trkpt lat="44.12748" lon="7.04303">
        <ele>2046.4000244141</ele>
        <time>2020-07-30T11:15:50.000Z</time>
      </trkpt>
      <trkpt lat="44.12748" lon="7.04303">
        <ele>2046.5999755859</ele>
        <time>2020-07-30T11:16:08.000Z</time>
      </trkpt>
      <trkpt lat="44.12751" lon="7.04305">
        <ele>2046.5999755859</ele>
        <time>2020-07-30T11:16:18.000Z</time>
      </trkpt>
      <trkpt lat="44.12753" lon="7.04303">
        <ele>2047.5999755859</ele>
        <time>2020-07-30T11:16:24.000Z</time>
      </trkpt>
      <trkpt lat="44.12754" lon="7.04302">
        <ele>2047.8000488281</ele>
        <time>2020-07-30T11:16:25.000Z</time>
      </trkpt>
      <trkpt lat="44.12757" lon="7.04301">
        <ele>2048.8000488281</ele>
        <time>2020-07-30T11:16:31.000Z</time>
      </trkpt>
      <trkpt lat="44.1276" lon="7.04301">
        <ele>2049.1999511719</ele>
        <time>2020-07-30T11:16:35.000Z</time>
      </trkpt>
      <trkpt lat="44.12764" lon="7.04301">
        <ele>2050</ele>
        <time>2020-07-30T11:16:40.000Z</time>
      </trkpt>
      <trkpt lat="44.12765" lon="7.04301">
        <ele>2050.1999511719</ele>
        <time>2020-07-30T11:16:42.000Z</time>
      </trkpt>
      <trkpt lat="44.12768" lon="7.04301">
        <ele>2051</ele>
        <time>2020-07-30T11:16:46.000Z</time>
      </trkpt>
      <trkpt lat="44.12771" lon="7.04302">
        <ele>2051.6000976562</ele>
        <time>2020-07-30T11:16:50.000Z</time>
      </trkpt>
      <trkpt lat="44.12773" lon="7.04302">
        <ele>2052</ele>
        <time>2020-07-30T11:16:53.000Z</time>
      </trkpt>
      <trkpt lat="44.12778" lon="7.04301">
        <ele>2052.3999023438</ele>
        <time>2020-07-30T11:16:58.000Z</time>
      </trkpt>
      <trkpt lat="44.12783" lon="7.043">
        <ele>2053.1999511719</ele>
        <time>2020-07-30T11:17:04.000Z</time>
      </trkpt>
      <trkpt lat="44.12787" lon="7.04299">
        <ele>2053.3999023438</ele>
        <time>2020-07-30T11:17:08.000Z</time>
      </trkpt>
      <trkpt lat="44.12793" lon="7.04298">
        <ele>2054.1999511719</ele>
        <time>2020-07-30T11:17:16.000Z</time>
      </trkpt>
      <trkpt lat="44.12796" lon="7.04297">
        <ele>2054.6000976562</ele>
        <time>2020-07-30T11:17:19.000Z</time>
      </trkpt>
      <trkpt lat="44.12799" lon="7.04296">
        <ele>2055.1999511719</ele>
        <time>2020-07-30T11:17:23.000Z</time>
      </trkpt>
      <trkpt lat="44.12805" lon="7.04294">
        <ele>2056</ele>
        <time>2020-07-30T11:17:30.000Z</time>
      </trkpt>
      <trkpt lat="44.12808" lon="7.04293">
        <ele>2056.1999511719</ele>
        <time>2020-07-30T11:17:34.000Z</time>
      </trkpt>
      <trkpt lat="44.12812" lon="7.04292">
        <ele>2057.1999511719</ele>
        <time>2020-07-30T11:17:39.000Z</time>
      </trkpt>
      <trkpt lat="44.12813" lon="7.04292">
        <ele>2057.1999511719</ele>
        <time>2020-07-30T11:17:40.000Z</time>
      </trkpt>
      <trkpt lat="44.12822" lon="7.0429">
        <ele>2058.3999023438</ele>
        <time>2020-07-30T11:17:50.000Z</time>
      </trkpt>
      <trkpt lat="44.12827" lon="7.04289">
        <ele>2059.3999023438</ele>
        <time>2020-07-30T11:17:57.000Z</time>
      </trkpt>
      <trkpt lat="44.12829" lon="7.04289">
        <ele>2059.6000976562</ele>
        <time>2020-07-30T11:17:59.000Z</time>
      </trkpt>
      <trkpt lat="44.12835" lon="7.04289">
        <ele>2060.1999511719</ele>
        <time>2020-07-30T11:18:07.000Z</time>
      </trkpt>
      <trkpt lat="44.12838" lon="7.04288">
        <ele>2060.3999023438</ele>
        <time>2020-07-30T11:18:11.000Z</time>
      </trkpt>
      <trkpt lat="44.12844" lon="7.04287">
        <ele>2061</ele>
        <time>2020-07-30T11:18:17.000Z</time>
      </trkpt>
      <trkpt lat="44.12849" lon="7.04287">
        <ele>2061.3999023438</ele>
        <time>2020-07-30T11:18:26.000Z</time>
      </trkpt>
      <trkpt lat="44.12849" lon="7.04287">
        <ele>2061.6000976562</ele>
        <time>2020-07-30T11:18:27.000Z</time>
      </trkpt>
      <trkpt lat="44.12849" lon="7.04288">
        <ele>2062.1999511719</ele>
        <time>2020-07-30T11:18:37.000Z</time>
      </trkpt>
      <trkpt lat="44.12853" lon="7.04288">
        <ele>2062</ele>
        <time>2020-07-30T11:18:42.000Z</time>
      </trkpt>
      <trkpt lat="44.12856" lon="7.04294">
        <ele>2062.8000488281</ele>
        <time>2020-07-30T11:18:48.000Z</time>
      </trkpt>
      <trkpt lat="44.12858" lon="7.04298">
        <ele>2063.1999511719</ele>
        <time>2020-07-30T11:18:51.000Z</time>
      </trkpt>
      <trkpt lat="44.12862" lon="7.04305">
        <ele>2063.8000488281</ele>
        <time>2020-07-30T11:18:59.000Z</time>
      </trkpt>
      <trkpt lat="44.12863" lon="7.04306">
        <ele>2063.8000488281</ele>
        <time>2020-07-30T11:19:00.000Z</time>
      </trkpt>
      <trkpt lat="44.12869" lon="7.04314">
        <ele>2064.8000488281</ele>
        <time>2020-07-30T11:19:09.000Z</time>
      </trkpt>
      <trkpt lat="44.12869" lon="7.04315">
        <ele>2064.8000488281</ele>
        <time>2020-07-30T11:19:10.000Z</time>
      </trkpt>
      <trkpt lat="44.12875" lon="7.04322">
        <ele>2065.6000976562</ele>
        <time>2020-07-30T11:19:19.000Z</time>
      </trkpt>
      <trkpt lat="44.12878" lon="7.04325">
        <ele>2066</ele>
        <time>2020-07-30T11:19:22.000Z</time>
      </trkpt>
      <trkpt lat="44.12882" lon="7.04329">
        <ele>2066.6000976562</ele>
        <time>2020-07-30T11:19:28.000Z</time>
      </trkpt>
      <trkpt lat="44.12886" lon="7.04331">
        <ele>2067</ele>
        <time>2020-07-30T11:19:32.000Z</time>
      </trkpt>
      <trkpt lat="44.12887" lon="7.04331">
        <ele>2067.3999023438</ele>
        <time>2020-07-30T11:19:35.000Z</time>
      </trkpt>
      <trkpt lat="44.12891" lon="7.04333">
        <ele>2068.1999511719</ele>
        <time>2020-07-30T11:19:40.000Z</time>
      </trkpt>
      <trkpt lat="44.12893" lon="7.04335">
        <ele>2068.6000976562</ele>
        <time>2020-07-30T11:19:44.000Z</time>
      </trkpt>
      <trkpt lat="44.12899" lon="7.04339">
        <ele>2069.1999511719</ele>
        <time>2020-07-30T11:19:51.000Z</time>
      </trkpt>
      <trkpt lat="44.129" lon="7.0434">
        <ele>2069.1999511719</ele>
        <time>2020-07-30T11:19:53.000Z</time>
      </trkpt>
      <trkpt lat="44.12906" lon="7.04343">
        <ele>2070.1999511719</ele>
        <time>2020-07-30T11:20:00.000Z</time>
      </trkpt>
      <trkpt lat="44.12908" lon="7.04344">
        <ele>2070.3999023438</ele>
        <time>2020-07-30T11:20:03.000Z</time>
      </trkpt>
      <trkpt lat="44.12913" lon="7.04346">
        <ele>2071.1999511719</ele>
        <time>2020-07-30T11:20:10.000Z</time>
      </trkpt>
      <trkpt lat="44.12913" lon="7.04347">
        <ele>2071.1999511719</ele>
        <time>2020-07-30T11:20:11.000Z</time>
      </trkpt>
      <trkpt lat="44.12916" lon="7.04347">
        <ele>2072.1999511719</ele>
        <time>2020-07-30T11:20:19.000Z</time>
      </trkpt>
      <trkpt lat="44.12917" lon="7.04347">
        <ele>2072.1999511719</ele>
        <time>2020-07-30T11:20:20.000Z</time>
      </trkpt>
      <trkpt lat="44.12919" lon="7.04349">
        <ele>2072.3999023438</ele>
        <time>2020-07-30T11:20:27.000Z</time>
      </trkpt>
      <trkpt lat="44.1292" lon="7.04349">
        <ele>2072.3999023438</ele>
        <time>2020-07-30T11:20:35.000Z</time>
      </trkpt>
      <trkpt lat="44.12921" lon="7.04349">
        <ele>2072.6000976562</ele>
        <time>2020-07-30T11:20:36.000Z</time>
      </trkpt>
      <trkpt lat="44.12924" lon="7.04349">
        <ele>2072.6000976562</ele>
        <time>2020-07-30T11:20:39.000Z</time>
      </trkpt>
      <trkpt lat="44.12925" lon="7.04349">
        <ele>2072.6000976562</ele>
        <time>2020-07-30T11:20:41.000Z</time>
      </trkpt>
      <trkpt lat="44.12926" lon="7.04347">
        <ele>2073</ele>
        <time>2020-07-30T11:20:48.000Z</time>
      </trkpt>
      <trkpt lat="44.12926" lon="7.04346">
        <ele>2073.3999023438</ele>
        <time>2020-07-30T11:20:51.000Z</time>
      </trkpt>
      <trkpt lat="44.12927" lon="7.04344">
        <ele>2074.1999511719</ele>
        <time>2020-07-30T11:20:54.000Z</time>
      </trkpt>
      <trkpt lat="44.12927" lon="7.04343">
        <ele>2074.6000976562</ele>
        <time>2020-07-30T11:20:56.000Z</time>
      </trkpt>
      <trkpt lat="44.12926" lon="7.0434">
        <ele>2075.1999511719</ele>
        <time>2020-07-30T11:21:01.000Z</time>
      </trkpt>
      <trkpt lat="44.12925" lon="7.04337">
        <ele>2075.6000976562</ele>
        <time>2020-07-30T11:21:05.000Z</time>
      </trkpt>
      <trkpt lat="44.12925" lon="7.04335">
        <ele>2076</ele>
        <time>2020-07-30T11:21:08.000Z</time>
      </trkpt>
      <trkpt lat="44.12926" lon="7.04334">
        <ele>2076.8000488281</ele>
        <time>2020-07-30T11:21:11.000Z</time>
      </trkpt>
      <trkpt lat="44.12926" lon="7.04333">
        <ele>2077.3999023438</ele>
        <time>2020-07-30T11:21:14.000Z</time>
      </trkpt>
      <trkpt lat="44.12925" lon="7.04333">
        <ele>2077.8000488281</ele>
        <time>2020-07-30T11:21:22.000Z</time>
      </trkpt>
      <trkpt lat="44.12925" lon="7.04333">
        <ele>2077.8000488281</ele>
        <time>2020-07-30T11:21:24.000Z</time>
      </trkpt>
      <trkpt lat="44.12927" lon="7.04332">
        <ele>2078</ele>
        <time>2020-07-30T11:21:31.000Z</time>
      </trkpt>
      <trkpt lat="44.12927" lon="7.0433">
        <ele>2078.8000488281</ele>
        <time>2020-07-30T11:21:36.000Z</time>
      </trkpt>
      <trkpt lat="44.12929" lon="7.0433">
        <ele>2079.1999511719</ele>
        <time>2020-07-30T11:21:39.000Z</time>
      </trkpt>
      <trkpt lat="44.12932" lon="7.04329">
        <ele>2079.8000488281</ele>
        <time>2020-07-30T11:21:46.000Z</time>
      </trkpt>
      <trkpt lat="44.12933" lon="7.04329">
        <ele>2080</ele>
        <time>2020-07-30T11:21:47.000Z</time>
      </trkpt>
      <trkpt lat="44.12931" lon="7.04327">
        <ele>2080.3999023438</ele>
        <time>2020-07-30T11:21:52.000Z</time>
      </trkpt>
      <trkpt lat="44.12931" lon="7.04326">
        <ele>2080.3999023438</ele>
        <time>2020-07-30T11:21:53.000Z</time>
      </trkpt>
      <trkpt lat="44.12931" lon="7.04321">
        <ele>2080.8000488281</ele>
        <time>2020-07-30T11:22:00.000Z</time>
      </trkpt>
      <trkpt lat="44.12931" lon="7.04322">
        <ele>2081.1999511719</ele>
        <time>2020-07-30T11:22:01.000Z</time>
      </trkpt>
      <trkpt lat="44.1293" lon="7.04318">
        <ele>2082</ele>
        <time>2020-07-30T11:22:05.000Z</time>
      </trkpt>
      <trkpt lat="44.1293" lon="7.04317">
        <ele>2082.1999511719</ele>
        <time>2020-07-30T11:22:06.000Z</time>
      </trkpt>
      <trkpt lat="44.12931" lon="7.04316">
        <ele>2083.3999023438</ele>
        <time>2020-07-30T11:22:11.000Z</time>
      </trkpt>
      <trkpt lat="44.12932" lon="7.04316">
        <ele>2083.6000976562</ele>
        <time>2020-07-30T11:22:12.000Z</time>
      </trkpt>
      <trkpt lat="44.12934" lon="7.04313">
        <ele>2084.6000976562</ele>
        <time>2020-07-30T11:22:18.000Z</time>
      </trkpt>
      <trkpt lat="44.12934" lon="7.04314">
        <ele>2085.1999511719</ele>
        <time>2020-07-30T11:22:27.000Z</time>
      </trkpt>
      <trkpt lat="44.12934" lon="7.04314">
        <ele>2085.3999023438</ele>
        <time>2020-07-30T11:22:41.000Z</time>
      </trkpt>
      <trkpt lat="44.12934" lon="7.04313">
        <ele>2085.6000976562</ele>
        <time>2020-07-30T11:22:44.000Z</time>
      </trkpt>
      <trkpt lat="44.12934" lon="7.04311">
        <ele>2086</ele>
        <time>2020-07-30T11:22:47.000Z</time>
      </trkpt>
      <trkpt lat="44.12934" lon="7.0431">
        <ele>2086.6000976562</ele>
        <time>2020-07-30T11:22:51.000Z</time>
      </trkpt>
      <trkpt lat="44.12934" lon="7.04308">
        <ele>2087</ele>
        <time>2020-07-30T11:22:54.000Z</time>
      </trkpt>
      <trkpt lat="44.12934" lon="7.04304">
        <ele>2087.6000976562</ele>
        <time>2020-07-30T11:22:59.000Z</time>
      </trkpt>
      <trkpt lat="44.12934" lon="7.04303">
        <ele>2088</ele>
        <time>2020-07-30T11:23:01.000Z</time>
      </trkpt>
      <trkpt lat="44.12934" lon="7.04302">
        <ele>2088.6000976562</ele>
        <time>2020-07-30T11:23:04.000Z</time>
      </trkpt>
      <trkpt lat="44.12934" lon="7.04299">
        <ele>2089.1999511719</ele>
        <time>2020-07-30T11:23:10.000Z</time>
      </trkpt>
      <trkpt lat="44.12936" lon="7.04296">
        <ele>2089.6000976562</ele>
        <time>2020-07-30T11:23:13.000Z</time>
      </trkpt>
      <trkpt lat="44.12936" lon="7.04293">
        <ele>2090.6000976562</ele>
        <time>2020-07-30T11:23:16.000Z</time>
      </trkpt>
      <trkpt lat="44.12936" lon="7.04293">
        <ele>2090.8000488281</ele>
        <time>2020-07-30T11:23:17.000Z</time>
      </trkpt>
      <trkpt lat="44.12936" lon="7.0429">
        <ele>2091.3999023438</ele>
        <time>2020-07-30T11:23:21.000Z</time>
      </trkpt>
      <trkpt lat="44.12936" lon="7.0429">
        <ele>2091.8000488281</ele>
        <time>2020-07-30T11:23:22.000Z</time>
      </trkpt>
      <trkpt lat="44.12939" lon="7.04287">
        <ele>2092.6000976562</ele>
        <time>2020-07-30T11:23:28.000Z</time>
      </trkpt>
      <trkpt lat="44.12939" lon="7.04286">
        <ele>2092.8000488281</ele>
        <time>2020-07-30T11:23:30.000Z</time>
      </trkpt>
      <trkpt lat="44.12941" lon="7.04283">
        <ele>2093.6000976562</ele>
        <time>2020-07-30T11:23:34.000Z</time>
      </trkpt>
      <trkpt lat="44.1294" lon="7.04284">
        <ele>2093.8000488281</ele>
        <time>2020-07-30T11:23:35.000Z</time>
      </trkpt>
      <trkpt lat="44.12943" lon="7.04281">
        <ele>2094.8000488281</ele>
        <time>2020-07-30T11:23:41.000Z</time>
      </trkpt>
      <trkpt lat="44.12944" lon="7.04281">
        <ele>2095</ele>
        <time>2020-07-30T11:23:42.000Z</time>
      </trkpt>
      <trkpt lat="44.12947" lon="7.04279">
        <ele>2096</ele>
        <time>2020-07-30T11:23:49.000Z</time>
      </trkpt>
      <trkpt lat="44.12951" lon="7.0428">
        <ele>2097</ele>
        <time>2020-07-30T11:23:55.000Z</time>
      </trkpt>
      <trkpt lat="44.12952" lon="7.0428">
        <ele>2097.1999511719</ele>
        <time>2020-07-30T11:23:56.000Z</time>
      </trkpt>
      <trkpt lat="44.12956" lon="7.04281">
        <ele>2098</ele>
        <time>2020-07-30T11:24:03.000Z</time>
      </trkpt>
      <trkpt lat="44.12956" lon="7.04281">
        <ele>2098.1999511719</ele>
        <time>2020-07-30T11:24:04.000Z</time>
      </trkpt>
      <trkpt lat="44.12957" lon="7.04279">
        <ele>2099.1999511719</ele>
        <time>2020-07-30T11:24:09.000Z</time>
      </trkpt>
      <trkpt lat="44.12957" lon="7.04276">
        <ele>2099.8000488281</ele>
        <time>2020-07-30T11:24:11.000Z</time>
      </trkpt>
      <trkpt lat="44.12957" lon="7.04274">
        <ele>2100.3999023438</ele>
        <time>2020-07-30T11:24:14.000Z</time>
      </trkpt>
      <trkpt lat="44.12957" lon="7.04271">
        <ele>2101</ele>
        <time>2020-07-30T11:24:18.000Z</time>
      </trkpt>
      <trkpt lat="44.12957" lon="7.04269">
        <ele>2101.3999023438</ele>
        <time>2020-07-30T11:24:22.000Z</time>
      </trkpt>
      <trkpt lat="44.12957" lon="7.04268">
        <ele>2101.8000488281</ele>
        <time>2020-07-30T11:24:24.000Z</time>
      </trkpt>
      <trkpt lat="44.12957" lon="7.04266">
        <ele>2102.6000976562</ele>
        <time>2020-07-30T11:24:27.000Z</time>
      </trkpt>
      <trkpt lat="44.12958" lon="7.04262">
        <ele>2103.1999511719</ele>
        <time>2020-07-30T11:24:31.000Z</time>
      </trkpt>
      <trkpt lat="44.12959" lon="7.04261">
        <ele>2103.6000976562</ele>
        <time>2020-07-30T11:24:33.000Z</time>
      </trkpt>
      <trkpt lat="44.12961" lon="7.0426">
        <ele>2104</ele>
        <time>2020-07-30T11:24:37.000Z</time>
      </trkpt>
      <trkpt lat="44.12962" lon="7.0426">
        <ele>2104</ele>
        <time>2020-07-30T11:24:38.000Z</time>
      </trkpt>
      <trkpt lat="44.12965" lon="7.04258">
        <ele>2104.8000488281</ele>
        <time>2020-07-30T11:24:42.000Z</time>
      </trkpt>
      <trkpt lat="44.12966" lon="7.04258">
        <ele>2105</ele>
        <time>2020-07-30T11:24:43.000Z</time>
      </trkpt>
      <trkpt lat="44.1297" lon="7.0426">
        <ele>2105.3999023438</ele>
        <time>2020-07-30T11:24:49.000Z</time>
      </trkpt>
      <trkpt lat="44.12971" lon="7.0426">
        <ele>2106</ele>
        <time>2020-07-30T11:24:51.000Z</time>
      </trkpt>
      <trkpt lat="44.12973" lon="7.0426">
        <ele>2106.1999511719</ele>
        <time>2020-07-30T11:24:53.000Z</time>
      </trkpt>
      <trkpt lat="44.12979" lon="7.04262">
        <ele>2106.8000488281</ele>
        <time>2020-07-30T11:25:02.000Z</time>
      </trkpt>
      <trkpt lat="44.1298" lon="7.04263">
        <ele>2107</ele>
        <time>2020-07-30T11:25:05.000Z</time>
      </trkpt>
      <trkpt lat="44.1298" lon="7.04262">
        <ele>2107</ele>
        <time>2020-07-30T11:25:06.000Z</time>
      </trkpt>
      <trkpt lat="44.12982" lon="7.04263">
        <ele>2107</ele>
        <time>2020-07-30T11:25:07.000Z</time>
      </trkpt>
      <trkpt lat="44.12983" lon="7.04263">
        <ele>2107.1999511719</ele>
        <time>2020-07-30T11:25:10.000Z</time>
      </trkpt>
      <trkpt lat="44.12987" lon="7.04261">
        <ele>2107.3999023438</ele>
        <time>2020-07-30T11:25:15.000Z</time>
      </trkpt>
      <trkpt lat="44.12991" lon="7.04258">
        <ele>2108.1999511719</ele>
        <time>2020-07-30T11:25:19.000Z</time>
      </trkpt>
      <trkpt lat="44.12994" lon="7.04257">
        <ele>2108.6000976562</ele>
        <time>2020-07-30T11:25:21.000Z</time>
      </trkpt>
      <trkpt lat="44.12997" lon="7.04257">
        <ele>2109.1999511719</ele>
        <time>2020-07-30T11:25:24.000Z</time>
      </trkpt>
      <trkpt lat="44.13" lon="7.04256">
        <ele>2109.8000488281</ele>
        <time>2020-07-30T11:25:27.000Z</time>
      </trkpt>
      <trkpt lat="44.13004" lon="7.04256">
        <ele>2110</ele>
        <time>2020-07-30T11:25:30.000Z</time>
      </trkpt>
      <trkpt lat="44.13006" lon="7.04259">
        <ele>2110.1999511719</ele>
        <time>2020-07-30T11:25:32.000Z</time>
      </trkpt>
      <trkpt lat="44.13011" lon="7.04263">
        <ele>2111.1999511719</ele>
        <time>2020-07-30T11:25:38.000Z</time>
      </trkpt>
      <trkpt lat="44.13013" lon="7.04264">
        <ele>2111.6000976562</ele>
        <time>2020-07-30T11:25:41.000Z</time>
      </trkpt>
      <trkpt lat="44.13014" lon="7.04264">
        <ele>2111.8000488281</ele>
        <time>2020-07-30T11:25:44.000Z</time>
      </trkpt>
      <trkpt lat="44.13015" lon="7.04264">
        <ele>2111.1999511719</ele>
        <time>2020-07-30T11:25:50.000Z</time>
      </trkpt>
      <trkpt lat="44.13014" lon="7.04264">
        <ele>2111.1999511719</ele>
        <time>2020-07-30T11:26:05.000Z</time>
      </trkpt>
      <trkpt lat="44.13013" lon="7.04264">
        <ele>2111</ele>
        <time>2020-07-30T11:26:21.000Z</time>
      </trkpt>
      <trkpt lat="44.13013" lon="7.04263">
        <ele>2111</ele>
        <time>2020-07-30T11:26:28.000Z</time>
      </trkpt>
      <trkpt lat="44.13013" lon="7.04263">
        <ele>2111.1999511719</ele>
        <time>2020-07-30T11:26:40.000Z</time>
      </trkpt>
      <trkpt lat="44.13015" lon="7.04258">
        <ele>2111</ele>
        <time>2020-07-30T11:26:48.000Z</time>
      </trkpt>
      <trkpt lat="44.13015" lon="7.04256">
        <ele>2110.6000976562</ele>
        <time>2020-07-30T11:26:55.000Z</time>
      </trkpt>
      <trkpt lat="44.13015" lon="7.04256">
        <ele>2110.8000488281</ele>
        <time>2020-07-30T11:27:07.000Z</time>
      </trkpt>
      <trkpt lat="44.13014" lon="7.04256">
        <ele>2110.8000488281</ele>
        <time>2020-07-30T11:27:18.000Z</time>
      </trkpt>
      <trkpt lat="44.13014" lon="7.04256">
        <ele>2110.8000488281</ele>
        <time>2020-07-30T11:27:30.000Z</time>
      </trkpt>
      <trkpt lat="44.13014" lon="7.04256">
        <ele>2110.3999023438</ele>
        <time>2020-07-30T11:27:50.000Z</time>
      </trkpt>
      <trkpt lat="44.13014" lon="7.04256">
        <ele>2110.3999023438</ele>
        <time>2020-07-30T11:27:56.000Z</time>
      </trkpt>
      <trkpt lat="44.13013" lon="7.04256">
        <ele>2110.3999023438</ele>
        <time>2020-07-30T11:28:06.000Z</time>
      </trkpt>
      <trkpt lat="44.13013" lon="7.04255">
        <ele>2110.1999511719</ele>
        <time>2020-07-30T11:28:09.000Z</time>
      </trkpt>
      <trkpt lat="44.13013" lon="7.04255">
        <ele>2110</ele>
        <time>2020-07-30T11:28:15.000Z</time>
      </trkpt>
      <trkpt lat="44.13013" lon="7.04255">
        <ele>2110.1999511719</ele>
        <time>2020-07-30T11:28:29.000Z</time>
      </trkpt>
      <trkpt lat="44.13013" lon="7.04255">
        <ele>2110.1999511719</ele>
        <time>2020-07-30T11:28:42.000Z</time>
      </trkpt>
      <trkpt lat="44.13013" lon="7.04255">
        <ele>2110.1999511719</ele>
        <time>2020-07-30T11:28:50.000Z</time>
      </trkpt>
      <trkpt lat="44.13013" lon="7.04255">
        <ele>2110</ele>
        <time>2020-07-30T11:28:58.000Z</time>
      </trkpt>
      <trkpt lat="44.13013" lon="7.04256">
        <ele>2110.1999511719</ele>
        <time>2020-07-30T11:29:06.000Z</time>
      </trkpt>
      <trkpt lat="44.13014" lon="7.04256">
        <ele>2110</ele>
        <time>2020-07-30T11:29:17.000Z</time>
      </trkpt>
      <trkpt lat="44.13014" lon="7.04256">
        <ele>2109.8000488281</ele>
        <time>2020-07-30T11:29:35.000Z</time>
      </trkpt>
      <trkpt lat="44.13014" lon="7.04256">
        <ele>2109.8000488281</ele>
        <time>2020-07-30T11:29:49.000Z</time>
      </trkpt>
      <trkpt lat="44.13014" lon="7.04256">
        <ele>2109.8000488281</ele>
        <time>2020-07-30T11:30:00.000Z</time>
      </trkpt>
      <trkpt lat="44.13015" lon="7.04256">
        <ele>2109.8000488281</ele>
        <time>2020-07-30T11:30:17.000Z</time>
      </trkpt>
      <trkpt lat="44.13014" lon="7.04256">
        <ele>2110.1999511719</ele>
        <time>2020-07-30T11:30:32.000Z</time>
      </trkpt>
      <trkpt lat="44.13015" lon="7.04256">
        <ele>2110.6000976562</ele>
        <time>2020-07-30T11:30:40.000Z</time>
      </trkpt>
      <trkpt lat="44.13014" lon="7.04256">
        <ele>2109.8000488281</ele>
        <time>2020-07-30T11:30:57.000Z</time>
      </trkpt>
      <trkpt lat="44.13014" lon="7.04256">
        <ele>2109.8000488281</ele>
        <time>2020-07-30T11:31:11.000Z</time>
      </trkpt>
      <trkpt lat="44.13014" lon="7.04256">
        <ele>2110</ele>
        <time>2020-07-30T11:31:28.000Z</time>
      </trkpt>
      <trkpt lat="44.13013" lon="7.04256">
        <ele>2109.6000976562</ele>
        <time>2020-07-30T11:31:46.000Z</time>
      </trkpt>
      <trkpt lat="44.13013" lon="7.04256">
        <ele>2109.3999023438</ele>
        <time>2020-07-30T11:31:58.000Z</time>
      </trkpt>
      <trkpt lat="44.13013" lon="7.04256">
        <ele>2109.3999023438</ele>
        <time>2020-07-30T11:32:18.000Z</time>
      </trkpt>
      <trkpt lat="44.13013" lon="7.04256">
        <ele>2109.6000976562</ele>
        <time>2020-07-30T11:32:43.000Z</time>
      </trkpt>
      <trkpt lat="44.13013" lon="7.04257">
        <ele>2109.6000976562</ele>
        <time>2020-07-30T11:32:57.000Z</time>
      </trkpt>
      <trkpt lat="44.13013" lon="7.04256">
        <ele>2109.6000976562</ele>
        <time>2020-07-30T11:33:13.000Z</time>
      </trkpt>
      <trkpt lat="44.13013" lon="7.04256">
        <ele>2109.6000976562</ele>
        <time>2020-07-30T11:33:24.000Z</time>
      </trkpt>
      <trkpt lat="44.13014" lon="7.04256">
        <ele>2110</ele>
        <time>2020-07-30T11:33:40.000Z</time>
      </trkpt>
      <trkpt lat="44.13013" lon="7.04257">
        <ele>2110</ele>
        <time>2020-07-30T11:33:50.000Z</time>
      </trkpt>
      <trkpt lat="44.13013" lon="7.04257">
        <ele>2110.6000976562</ele>
        <time>2020-07-30T11:34:00.000Z</time>
      </trkpt>
      <trkpt lat="44.13013" lon="7.04257">
        <ele>2110.3999023438</ele>
        <time>2020-07-30T11:34:08.000Z</time>
      </trkpt>
      <trkpt lat="44.13013" lon="7.04257">
        <ele>2110.3999023438</ele>
        <time>2020-07-30T11:34:17.000Z</time>
      </trkpt>
      <trkpt lat="44.13013" lon="7.04257">
        <ele>2110.6000976562</ele>
        <time>2020-07-30T11:34:26.000Z</time>
      </trkpt>
      <trkpt lat="44.13013" lon="7.04257">
        <ele>2111</ele>
        <time>2020-07-30T11:34:45.000Z</time>
      </trkpt>
      <trkpt lat="44.13013" lon="7.04257">
        <ele>2111.1999511719</ele>
        <time>2020-07-30T11:34:54.000Z</time>
      </trkpt>
      <trkpt lat="44.13013" lon="7.04257">
        <ele>2111.3999023438</ele>
        <time>2020-07-30T11:35:06.000Z</time>
      </trkpt>
      <trkpt lat="44.13013" lon="7.04259">
        <ele>2111.3999023438</ele>
        <time>2020-07-30T11:35:11.000Z</time>
      </trkpt>
      <trkpt lat="44.13014" lon="7.0426">
        <ele>2111.3999023438</ele>
        <time>2020-07-30T11:35:18.000Z</time>
      </trkpt>
      <trkpt lat="44.13014" lon="7.0426">
        <ele>2111.3999023438</ele>
        <time>2020-07-30T11:35:30.000Z</time>
      </trkpt>
      <trkpt lat="44.13013" lon="7.04262">
        <ele>2111.6000976562</ele>
        <time>2020-07-30T11:35:39.000Z</time>
      </trkpt>
      <trkpt lat="44.13013" lon="7.04262">
        <ele>2111.8000488281</ele>
        <time>2020-07-30T11:35:40.000Z</time>
      </trkpt>
      <trkpt lat="44.13012" lon="7.04262">
        <ele>2111.8000488281</ele>
        <time>2020-07-30T11:35:44.000Z</time>
      </trkpt>
      <trkpt lat="44.13011" lon="7.04263">
        <ele>2112</ele>
        <time>2020-07-30T11:35:52.000Z</time>
      </trkpt>
      <trkpt lat="44.13011" lon="7.04262">
        <ele>2112.1999511719</ele>
        <time>2020-07-30T11:35:57.000Z</time>
      </trkpt>
      <trkpt lat="44.1301" lon="7.04263">
        <ele>2112.1999511719</ele>
        <time>2020-07-30T11:35:59.000Z</time>
      </trkpt>
      <trkpt lat="44.13008" lon="7.04264">
        <ele>2112</ele>
        <time>2020-07-30T11:36:06.000Z</time>
      </trkpt>
      <trkpt lat="44.13008" lon="7.04264">
        <ele>2112</ele>
        <time>2020-07-30T11:36:14.000Z</time>
      </trkpt>
      <trkpt lat="44.13" lon="7.04265">
        <ele>2111.6000976562</ele>
        <time>2020-07-30T11:36:20.000Z</time>
      </trkpt>
      <trkpt lat="44.13" lon="7.04265">
        <ele>2111.1999511719</ele>
        <time>2020-07-30T11:36:23.000Z</time>
      </trkpt>
      <trkpt lat="44.13" lon="7.04265">
        <ele>2111.1999511719</ele>
        <time>2020-07-30T11:36:24.000Z</time>
      </trkpt>
      <trkpt lat="44.12998" lon="7.04265">
        <ele>2111.1999511719</ele>
        <time>2020-07-30T11:36:32.000Z</time>
      </trkpt>
      <trkpt lat="44.12992" lon="7.04264">
        <ele>2111</ele>
        <time>2020-07-30T11:36:34.000Z</time>
      </trkpt>
      <trkpt lat="44.12976" lon="7.04266">
        <ele>2109.8000488281</ele>
        <time>2020-07-30T11:36:37.000Z</time>
      </trkpt>
      <trkpt lat="44.12971" lon="7.04265">
        <ele>2108.6000976562</ele>
        <time>2020-07-30T11:36:38.000Z</time>
      </trkpt>
      <trkpt lat="44.12963" lon="7.04263">
        <ele>2106.6000976562</ele>
        <time>2020-07-30T11:36:40.000Z</time>
      </trkpt>
      <trkpt lat="44.12959" lon="7.04265">
        <ele>2105.3999023438</ele>
        <time>2020-07-30T11:36:42.000Z</time>
      </trkpt>
      <trkpt lat="44.12955" lon="7.04271">
        <ele>2105</ele>
        <time>2020-07-30T11:36:44.000Z</time>
      </trkpt>
      <trkpt lat="44.12952" lon="7.04274">
        <ele>2104.8000488281</ele>
        <time>2020-07-30T11:36:45.000Z</time>
      </trkpt>
      <trkpt lat="44.12944" lon="7.04277">
        <ele>2103.6000976562</ele>
        <time>2020-07-30T11:36:47.000Z</time>
      </trkpt>
      <trkpt lat="44.12937" lon="7.0428">
        <ele>2102.6000976562</ele>
        <time>2020-07-30T11:36:49.000Z</time>
      </trkpt>
      <trkpt lat="44.12933" lon="7.04282">
        <ele>2101.3999023438</ele>
        <time>2020-07-30T11:36:50.000Z</time>
      </trkpt>
      <trkpt lat="44.12931" lon="7.04283">
        <ele>2098.8000488281</ele>
        <time>2020-07-30T11:36:51.000Z</time>
      </trkpt>
      <trkpt lat="44.12929" lon="7.04283">
        <ele>2097.6000976562</ele>
        <time>2020-07-30T11:36:52.000Z</time>
      </trkpt>
      <trkpt lat="44.12926" lon="7.04283">
        <ele>2096.1999511719</ele>
        <time>2020-07-30T11:36:53.000Z</time>
      </trkpt>
      <trkpt lat="44.12924" lon="7.04283">
        <ele>2094.8000488281</ele>
        <time>2020-07-30T11:36:54.000Z</time>
      </trkpt>
      <trkpt lat="44.12918" lon="7.04285">
        <ele>2093.6000976562</ele>
        <time>2020-07-30T11:36:56.000Z</time>
      </trkpt>
      <trkpt lat="44.12913" lon="7.04285">
        <ele>2091.3999023438</ele>
        <time>2020-07-30T11:36:58.000Z</time>
      </trkpt>
      <trkpt lat="44.12909" lon="7.04282">
        <ele>2090</ele>
        <time>2020-07-30T11:37:00.000Z</time>
      </trkpt>
      <trkpt lat="44.12905" lon="7.04278">
        <ele>2088.1999511719</ele>
        <time>2020-07-30T11:37:02.000Z</time>
      </trkpt>
      <trkpt lat="44.12903" lon="7.04276">
        <ele>2087.3999023438</ele>
        <time>2020-07-30T11:37:03.000Z</time>
      </trkpt>
      <trkpt lat="44.12901" lon="7.04274">
        <ele>2087</ele>
        <time>2020-07-30T11:37:04.000Z</time>
      </trkpt>
      <trkpt lat="44.12893" lon="7.04269">
        <ele>2085.6000976562</ele>
        <time>2020-07-30T11:37:07.000Z</time>
      </trkpt>
      <trkpt lat="44.12889" lon="7.04268">
        <ele>2084.3999023438</ele>
        <time>2020-07-30T11:37:08.000Z</time>
      </trkpt>
      <trkpt lat="44.12885" lon="7.04267">
        <ele>2082.6000976562</ele>
        <time>2020-07-30T11:37:09.000Z</time>
      </trkpt>
      <trkpt lat="44.1288" lon="7.04267">
        <ele>2080.6000976562</ele>
        <time>2020-07-30T11:37:10.000Z</time>
      </trkpt>
      <trkpt lat="44.12874" lon="7.04266">
        <ele>2078.8000488281</ele>
        <time>2020-07-30T11:37:11.000Z</time>
      </trkpt>
      <trkpt lat="44.12867" lon="7.04266">
        <ele>2077</ele>
        <time>2020-07-30T11:37:12.000Z</time>
      </trkpt>
      <trkpt lat="44.12859" lon="7.04266">
        <ele>2074.3999023438</ele>
        <time>2020-07-30T11:37:13.000Z</time>
      </trkpt>
      <trkpt lat="44.12851" lon="7.04266">
        <ele>2072</ele>
        <time>2020-07-30T11:37:14.000Z</time>
      </trkpt>
      <trkpt lat="44.12846" lon="7.04266">
        <ele>2069.6000976562</ele>
        <time>2020-07-30T11:37:15.000Z</time>
      </trkpt>
      <trkpt lat="44.12842" lon="7.04266">
        <ele>2067.3999023438</ele>
        <time>2020-07-30T11:37:16.000Z</time>
      </trkpt>
      <trkpt lat="44.12839" lon="7.04267">
        <ele>2064.8000488281</ele>
        <time>2020-07-30T11:37:17.000Z</time>
      </trkpt>
      <trkpt lat="44.12835" lon="7.04269">
        <ele>2063.1999511719</ele>
        <time>2020-07-30T11:37:18.000Z</time>
      </trkpt>
      <trkpt lat="44.12833" lon="7.04271">
        <ele>2062.3999023438</ele>
        <time>2020-07-30T11:37:19.000Z</time>
      </trkpt>
      <trkpt lat="44.1283" lon="7.04273">
        <ele>2062</ele>
        <time>2020-07-30T11:37:20.000Z</time>
      </trkpt>
      <trkpt lat="44.12818" lon="7.04279">
        <ele>2061.6000976562</ele>
        <time>2020-07-30T11:37:24.000Z</time>
      </trkpt>
      <trkpt lat="44.12813" lon="7.04281">
        <ele>2061.3999023438</ele>
        <time>2020-07-30T11:37:25.000Z</time>
      </trkpt>
      <trkpt lat="44.12805" lon="7.04285">
        <ele>2060.6000976562</ele>
        <time>2020-07-30T11:37:27.000Z</time>
      </trkpt>
      <trkpt lat="44.128" lon="7.04288">
        <ele>2059.6000976562</ele>
        <time>2020-07-30T11:37:28.000Z</time>
      </trkpt>
      <trkpt lat="44.12795" lon="7.04291">
        <ele>2058.3999023438</ele>
        <time>2020-07-30T11:37:29.000Z</time>
      </trkpt>
      <trkpt lat="44.12789" lon="7.04293">
        <ele>2057.3999023438</ele>
        <time>2020-07-30T11:37:30.000Z</time>
      </trkpt>
      <trkpt lat="44.12783" lon="7.04296">
        <ele>2056.6000976562</ele>
        <time>2020-07-30T11:37:31.000Z</time>
      </trkpt>
      <trkpt lat="44.12773" lon="7.04302">
        <ele>2054.8000488281</ele>
        <time>2020-07-30T11:37:33.000Z</time>
      </trkpt>
      <trkpt lat="44.12769" lon="7.04305">
        <ele>2053.3999023438</ele>
        <time>2020-07-30T11:37:34.000Z</time>
      </trkpt>
      <trkpt lat="44.12759" lon="7.04309">
        <ele>2051.8000488281</ele>
        <time>2020-07-30T11:37:37.000Z</time>
      </trkpt>
      <trkpt lat="44.12757" lon="7.0431">
        <ele>2051.8000488281</ele>
        <time>2020-07-30T11:37:38.000Z</time>
      </trkpt>
      <trkpt lat="44.12756" lon="7.0431">
        <ele>2050.6000976562</ele>
        <time>2020-07-30T11:37:41.000Z</time>
      </trkpt>
      <trkpt lat="44.12756" lon="7.0431">
        <ele>2050.1999511719</ele>
        <time>2020-07-30T11:37:42.000Z</time>
      </trkpt>
      <trkpt lat="44.12756" lon="7.0431">
        <ele>2050.3999023438</ele>
        <time>2020-07-30T11:37:49.000Z</time>
      </trkpt>
      <trkpt lat="44.12754" lon="7.04311">
        <ele>2050.3999023438</ele>
        <time>2020-07-30T11:37:56.000Z</time>
      </trkpt>
      <trkpt lat="44.12742" lon="7.04306">
        <ele>2050</ele>
        <time>2020-07-30T11:38:00.000Z</time>
      </trkpt>
      <trkpt lat="44.12738" lon="7.04301">
        <ele>2049.3999023438</ele>
        <time>2020-07-30T11:38:01.000Z</time>
      </trkpt>
      <trkpt lat="44.12732" lon="7.04296">
        <ele>2048.1999511719</ele>
        <time>2020-07-30T11:38:02.000Z</time>
      </trkpt>
      <trkpt lat="44.12727" lon="7.0429">
        <ele>2047.1999511719</ele>
        <time>2020-07-30T11:38:03.000Z</time>
      </trkpt>
      <trkpt lat="44.12721" lon="7.04286">
        <ele>2045.4000244141</ele>
        <time>2020-07-30T11:38:04.000Z</time>
      </trkpt>
      <trkpt lat="44.12715" lon="7.04281">
        <ele>2044.4000244141</ele>
        <time>2020-07-30T11:38:05.000Z</time>
      </trkpt>
      <trkpt lat="44.12708" lon="7.04277">
        <ele>2042.8000488281</ele>
        <time>2020-07-30T11:38:06.000Z</time>
      </trkpt>
      <trkpt lat="44.12702" lon="7.04272">
        <ele>2041.8000488281</ele>
        <time>2020-07-30T11:38:07.000Z</time>
      </trkpt>
      <trkpt lat="44.12695" lon="7.04268">
        <ele>2040</ele>
        <time>2020-07-30T11:38:08.000Z</time>
      </trkpt>
      <trkpt lat="44.1268" lon="7.04261">
        <ele>2038</ele>
        <time>2020-07-30T11:38:10.000Z</time>
      </trkpt>
      <trkpt lat="44.12673" lon="7.04259">
        <ele>2037</ele>
        <time>2020-07-30T11:38:11.000Z</time>
      </trkpt>
      <trkpt lat="44.12665" lon="7.04258">
        <ele>2035.8000488281</ele>
        <time>2020-07-30T11:38:12.000Z</time>
      </trkpt>
      <trkpt lat="44.12658" lon="7.04259">
        <ele>2035.5999755859</ele>
        <time>2020-07-30T11:38:13.000Z</time>
      </trkpt>
      <trkpt lat="44.12653" lon="7.04262">
        <ele>2034.5999755859</ele>
        <time>2020-07-30T11:38:14.000Z</time>
      </trkpt>
      <trkpt lat="44.12649" lon="7.04267">
        <ele>2033</ele>
        <time>2020-07-30T11:38:15.000Z</time>
      </trkpt>
      <trkpt lat="44.12646" lon="7.04275">
        <ele>2032.5999755859</ele>
        <time>2020-07-30T11:38:16.000Z</time>
      </trkpt>
      <trkpt lat="44.12644" lon="7.04283">
        <ele>2031.8000488281</ele>
        <time>2020-07-30T11:38:17.000Z</time>
      </trkpt>
      <trkpt lat="44.12641" lon="7.04292">
        <ele>2031.4000244141</ele>
        <time>2020-07-30T11:38:18.000Z</time>
      </trkpt>
      <trkpt lat="44.12639" lon="7.04299">
        <ele>2030.4000244141</ele>
        <time>2020-07-30T11:38:19.000Z</time>
      </trkpt>
      <trkpt lat="44.12637" lon="7.04308">
        <ele>2030</ele>
        <time>2020-07-30T11:38:20.000Z</time>
      </trkpt>
      <trkpt lat="44.12633" lon="7.04323">
        <ele>2028.5999755859</ele>
        <time>2020-07-30T11:38:22.000Z</time>
      </trkpt>
      <trkpt lat="44.12631" lon="7.04329">
        <ele>2028</ele>
        <time>2020-07-30T11:38:23.000Z</time>
      </trkpt>
      <trkpt lat="44.12628" lon="7.04335">
        <ele>2027.4000244141</ele>
        <time>2020-07-30T11:38:24.000Z</time>
      </trkpt>
      <trkpt lat="44.12626" lon="7.04342">
        <ele>2026.4000244141</ele>
        <time>2020-07-30T11:38:25.000Z</time>
      </trkpt>
      <trkpt lat="44.12624" lon="7.04349">
        <ele>2025.1999511719</ele>
        <time>2020-07-30T11:38:26.000Z</time>
      </trkpt>
      <trkpt lat="44.12617" lon="7.04361">
        <ele>2024.1999511719</ele>
        <time>2020-07-30T11:38:28.000Z</time>
      </trkpt>
      <trkpt lat="44.12614" lon="7.04367">
        <ele>2023</ele>
        <time>2020-07-30T11:38:29.000Z</time>
      </trkpt>
      <trkpt lat="44.1261" lon="7.04375">
        <ele>2022.8000488281</ele>
        <time>2020-07-30T11:38:30.000Z</time>
      </trkpt>
      <trkpt lat="44.12606" lon="7.04382">
        <ele>2022</ele>
        <time>2020-07-30T11:38:31.000Z</time>
      </trkpt>
      <trkpt lat="44.12595" lon="7.04404">
        <ele>2021</ele>
        <time>2020-07-30T11:38:34.000Z</time>
      </trkpt>
      <trkpt lat="44.12592" lon="7.04411">
        <ele>2021.4000244141</ele>
        <time>2020-07-30T11:38:35.000Z</time>
      </trkpt>
      <trkpt lat="44.12587" lon="7.04428">
        <ele>2019.5999755859</ele>
        <time>2020-07-30T11:38:37.000Z</time>
      </trkpt>
      <trkpt lat="44.12581" lon="7.04446">
        <ele>2018</ele>
        <time>2020-07-30T11:38:39.000Z</time>
      </trkpt>
      <trkpt lat="44.12579" lon="7.04457">
        <ele>2016.4000244141</ele>
        <time>2020-07-30T11:38:40.000Z</time>
      </trkpt>
      <trkpt lat="44.12574" lon="7.04478">
        <ele>2014.4000244141</ele>
        <time>2020-07-30T11:38:42.000Z</time>
      </trkpt>
      <trkpt lat="44.12572" lon="7.04488">
        <ele>2012.8000488281</ele>
        <time>2020-07-30T11:38:43.000Z</time>
      </trkpt>
      <trkpt lat="44.1257" lon="7.04498">
        <ele>2011.1999511719</ele>
        <time>2020-07-30T11:38:44.000Z</time>
      </trkpt>
      <trkpt lat="44.12567" lon="7.0452">
        <ele>2009.4000244141</ele>
        <time>2020-07-30T11:38:46.000Z</time>
      </trkpt>
      <trkpt lat="44.12566" lon="7.04529">
        <ele>2008.1999511719</ele>
        <time>2020-07-30T11:38:47.000Z</time>
      </trkpt>
      <trkpt lat="44.12564" lon="7.0454">
        <ele>2006.5999755859</ele>
        <time>2020-07-30T11:38:48.000Z</time>
      </trkpt>
      <trkpt lat="44.12563" lon="7.04548">
        <ele>2006</ele>
        <time>2020-07-30T11:38:49.000Z</time>
      </trkpt>
      <trkpt lat="44.12561" lon="7.04557">
        <ele>2004.4000244141</ele>
        <time>2020-07-30T11:38:50.000Z</time>
      </trkpt>
      <trkpt lat="44.1256" lon="7.04566">
        <ele>2003</ele>
        <time>2020-07-30T11:38:51.000Z</time>
      </trkpt>
      <trkpt lat="44.12558" lon="7.04575">
        <ele>2004.1999511719</ele>
        <time>2020-07-30T11:38:52.000Z</time>
      </trkpt>
      <trkpt lat="44.12556" lon="7.04589">
        <ele>2002.1999511719</ele>
        <time>2020-07-30T11:38:54.000Z</time>
      </trkpt>
      <trkpt lat="44.12554" lon="7.04595">
        <ele>2000</ele>
        <time>2020-07-30T11:38:55.000Z</time>
      </trkpt>
      <trkpt lat="44.12554" lon="7.04599">
        <ele>1998</ele>
        <time>2020-07-30T11:38:56.000Z</time>
      </trkpt>
      <trkpt lat="44.12555" lon="7.04601">
        <ele>1996.5999755859</ele>
        <time>2020-07-30T11:38:57.000Z</time>
      </trkpt>
      <trkpt lat="44.12553" lon="7.04607">
        <ele>1995.1999511719</ele>
        <time>2020-07-30T11:38:59.000Z</time>
      </trkpt>
      <trkpt lat="44.12548" lon="7.04614">
        <ele>1994</ele>
        <time>2020-07-30T11:39:01.000Z</time>
      </trkpt>
      <trkpt lat="44.1254" lon="7.04624">
        <ele>1992.4000244141</ele>
        <time>2020-07-30T11:39:03.000Z</time>
      </trkpt>
      <trkpt lat="44.12532" lon="7.04632">
        <ele>1991</ele>
        <time>2020-07-30T11:39:05.000Z</time>
      </trkpt>
      <trkpt lat="44.12523" lon="7.04642">
        <ele>1988.8000488281</ele>
        <time>2020-07-30T11:39:07.000Z</time>
      </trkpt>
      <trkpt lat="44.1252" lon="7.04647">
        <ele>1987.1999511719</ele>
        <time>2020-07-30T11:39:08.000Z</time>
      </trkpt>
      <trkpt lat="44.12511" lon="7.04658">
        <ele>1985</ele>
        <time>2020-07-30T11:39:10.000Z</time>
      </trkpt>
      <trkpt lat="44.12506" lon="7.04664">
        <ele>1983.5999755859</ele>
        <time>2020-07-30T11:39:11.000Z</time>
      </trkpt>
      <trkpt lat="44.12501" lon="7.04669">
        <ele>1981</ele>
        <time>2020-07-30T11:39:12.000Z</time>
      </trkpt>
      <trkpt lat="44.12491" lon="7.04678">
        <ele>1979.4000244141</ele>
        <time>2020-07-30T11:39:14.000Z</time>
      </trkpt>
      <trkpt lat="44.12484" lon="7.04682">
        <ele>1978.1999511719</ele>
        <time>2020-07-30T11:39:15.000Z</time>
      </trkpt>
      <trkpt lat="44.12479" lon="7.04685">
        <ele>1975.8000488281</ele>
        <time>2020-07-30T11:39:16.000Z</time>
      </trkpt>
      <trkpt lat="44.12473" lon="7.04689">
        <ele>1974.4000244141</ele>
        <time>2020-07-30T11:39:17.000Z</time>
      </trkpt>
      <trkpt lat="44.12466" lon="7.04694">
        <ele>1973</ele>
        <time>2020-07-30T11:39:18.000Z</time>
      </trkpt>
      <trkpt lat="44.1246" lon="7.04698">
        <ele>1971.5999755859</ele>
        <time>2020-07-30T11:39:19.000Z</time>
      </trkpt>
      <trkpt lat="44.12453" lon="7.04704">
        <ele>1970.5999755859</ele>
        <time>2020-07-30T11:39:20.000Z</time>
      </trkpt>
      <trkpt lat="44.12448" lon="7.04709">
        <ele>1969.1999511719</ele>
        <time>2020-07-30T11:39:21.000Z</time>
      </trkpt>
      <trkpt lat="44.12442" lon="7.04714">
        <ele>1968</ele>
        <time>2020-07-30T11:39:22.000Z</time>
      </trkpt>
      <trkpt lat="44.12437" lon="7.04721">
        <ele>1966.8000488281</ele>
        <time>2020-07-30T11:39:23.000Z</time>
      </trkpt>
      <trkpt lat="44.12432" lon="7.04729">
        <ele>1965.5999755859</ele>
        <time>2020-07-30T11:39:24.000Z</time>
      </trkpt>
      <trkpt lat="44.12427" lon="7.04738">
        <ele>1964.4000244141</ele>
        <time>2020-07-30T11:39:25.000Z</time>
      </trkpt>
      <trkpt lat="44.12423" lon="7.04745">
        <ele>1963.1999511719</ele>
        <time>2020-07-30T11:39:26.000Z</time>
      </trkpt>
      <trkpt lat="44.12418" lon="7.0475">
        <ele>1961.8000488281</ele>
        <time>2020-07-30T11:39:27.000Z</time>
      </trkpt>
      <trkpt lat="44.12412" lon="7.04753">
        <ele>1961</ele>
        <time>2020-07-30T11:39:28.000Z</time>
      </trkpt>
      <trkpt lat="44.12408" lon="7.04755">
        <ele>1960.5999755859</ele>
        <time>2020-07-30T11:39:29.000Z</time>
      </trkpt>
      <trkpt lat="44.124" lon="7.04759">
        <ele>1959.5999755859</ele>
        <time>2020-07-30T11:39:31.000Z</time>
      </trkpt>
      <trkpt lat="44.12397" lon="7.04761">
        <ele>1959.4000244141</ele>
        <time>2020-07-30T11:39:32.000Z</time>
      </trkpt>
      <trkpt lat="44.12382" lon="7.04776">
        <ele>1958.1999511719</ele>
        <time>2020-07-30T11:39:36.000Z</time>
      </trkpt>
      <trkpt lat="44.12377" lon="7.0478">
        <ele>1958</ele>
        <time>2020-07-30T11:39:37.000Z</time>
      </trkpt>
      <trkpt lat="44.12368" lon="7.04788">
        <ele>1956.5999755859</ele>
        <time>2020-07-30T11:39:39.000Z</time>
      </trkpt>
      <trkpt lat="44.12357" lon="7.04795">
        <ele>1955.5999755859</ele>
        <time>2020-07-30T11:39:41.000Z</time>
      </trkpt>
      <trkpt lat="44.12351" lon="7.04798">
        <ele>1955</ele>
        <time>2020-07-30T11:39:42.000Z</time>
      </trkpt>
      <trkpt lat="44.12346" lon="7.048">
        <ele>1954.4000244141</ele>
        <time>2020-07-30T11:39:43.000Z</time>
      </trkpt>
      <trkpt lat="44.12323" lon="7.0481">
        <ele>1952.8000488281</ele>
        <time>2020-07-30T11:39:47.000Z</time>
      </trkpt>
      <trkpt lat="44.12311" lon="7.04815">
        <ele>1950.8000488281</ele>
        <time>2020-07-30T11:39:49.000Z</time>
      </trkpt>
      <trkpt lat="44.12304" lon="7.04817">
        <ele>1949.5999755859</ele>
        <time>2020-07-30T11:39:50.000Z</time>
      </trkpt>
      <trkpt lat="44.12292" lon="7.0482">
        <ele>1947.5999755859</ele>
        <time>2020-07-30T11:39:52.000Z</time>
      </trkpt>
      <trkpt lat="44.12285" lon="7.04821">
        <ele>1946.4000244141</ele>
        <time>2020-07-30T11:39:53.000Z</time>
      </trkpt>
      <trkpt lat="44.12278" lon="7.04822">
        <ele>1945.1999511719</ele>
        <time>2020-07-30T11:39:54.000Z</time>
      </trkpt>
      <trkpt lat="44.12271" lon="7.04823">
        <ele>1944.1999511719</ele>
        <time>2020-07-30T11:39:55.000Z</time>
      </trkpt>
      <trkpt lat="44.12264" lon="7.04822">
        <ele>1942.8000488281</ele>
        <time>2020-07-30T11:39:56.000Z</time>
      </trkpt>
      <trkpt lat="44.1225" lon="7.04817">
        <ele>1941</ele>
        <time>2020-07-30T11:39:58.000Z</time>
      </trkpt>
      <trkpt lat="44.12238" lon="7.04812">
        <ele>1939.5999755859</ele>
        <time>2020-07-30T11:40:00.000Z</time>
      </trkpt>
      <trkpt lat="44.12233" lon="7.0481">
        <ele>1938.4000244141</ele>
        <time>2020-07-30T11:40:01.000Z</time>
      </trkpt>
      <trkpt lat="44.1223" lon="7.04808">
        <ele>1937.4000244141</ele>
        <time>2020-07-30T11:40:02.000Z</time>
      </trkpt>
      <trkpt lat="44.12224" lon="7.04805">
        <ele>1937.4000244141</ele>
        <time>2020-07-30T11:40:04.000Z</time>
      </trkpt>
      <trkpt lat="44.12217" lon="7.04803">
        <ele>1936</ele>
        <time>2020-07-30T11:40:06.000Z</time>
      </trkpt>
      <trkpt lat="44.12212" lon="7.04802">
        <ele>1934.4000244141</ele>
        <time>2020-07-30T11:40:07.000Z</time>
      </trkpt>
      <trkpt lat="44.12207" lon="7.04803">
        <ele>1932.8000488281</ele>
        <time>2020-07-30T11:40:08.000Z</time>
      </trkpt>
      <trkpt lat="44.12201" lon="7.04803">
        <ele>1931.5999755859</ele>
        <time>2020-07-30T11:40:09.000Z</time>
      </trkpt>
      <trkpt lat="44.12195" lon="7.04802">
        <ele>1930</ele>
        <time>2020-07-30T11:40:10.000Z</time>
      </trkpt>
      <trkpt lat="44.12188" lon="7.04801">
        <ele>1928.8000488281</ele>
        <time>2020-07-30T11:40:11.000Z</time>
      </trkpt>
      <trkpt lat="44.12172" lon="7.04794">
        <ele>1927</ele>
        <time>2020-07-30T11:40:13.000Z</time>
      </trkpt>
      <trkpt lat="44.12167" lon="7.04789">
        <ele>1925.8000488281</ele>
        <time>2020-07-30T11:40:14.000Z</time>
      </trkpt>
      <trkpt lat="44.12161" lon="7.04785">
        <ele>1925.5999755859</ele>
        <time>2020-07-30T11:40:15.000Z</time>
      </trkpt>
      <trkpt lat="44.12157" lon="7.04784">
        <ele>1924.5999755859</ele>
        <time>2020-07-30T11:40:16.000Z</time>
      </trkpt>
      <trkpt lat="44.12149" lon="7.04782">
        <ele>1922.8000488281</ele>
        <time>2020-07-30T11:40:18.000Z</time>
      </trkpt>
      <trkpt lat="44.12138" lon="7.04782">
        <ele>1923.4000244141</ele>
        <time>2020-07-30T11:40:20.000Z</time>
      </trkpt>
      <trkpt lat="44.12133" lon="7.04781">
        <ele>1923</ele>
        <time>2020-07-30T11:40:21.000Z</time>
      </trkpt>
      <trkpt lat="44.12121" lon="7.04774">
        <ele>1919.8000488281</ele>
        <time>2020-07-30T11:40:24.000Z</time>
      </trkpt>
      <trkpt lat="44.12117" lon="7.04775">
        <ele>1917.5999755859</ele>
        <time>2020-07-30T11:40:25.000Z</time>
      </trkpt>
      <trkpt lat="44.12106" lon="7.04778">
        <ele>1916</ele>
        <time>2020-07-30T11:40:27.000Z</time>
      </trkpt>
      <trkpt lat="44.12096" lon="7.04777">
        <ele>1914.8000488281</ele>
        <time>2020-07-30T11:40:29.000Z</time>
      </trkpt>
      <trkpt lat="44.1209" lon="7.04776">
        <ele>1913.8000488281</ele>
        <time>2020-07-30T11:40:30.000Z</time>
      </trkpt>
      <trkpt lat="44.12079" lon="7.04776">
        <ele>1911.4000244141</ele>
        <time>2020-07-30T11:40:32.000Z</time>
      </trkpt>
      <trkpt lat="44.12074" lon="7.04777">
        <ele>1909.8000488281</ele>
        <time>2020-07-30T11:40:33.000Z</time>
      </trkpt>
      <trkpt lat="44.12068" lon="7.04778">
        <ele>1908.4000244141</ele>
        <time>2020-07-30T11:40:34.000Z</time>
      </trkpt>
      <trkpt lat="44.12056" lon="7.04781">
        <ele>1906.4000244141</ele>
        <time>2020-07-30T11:40:36.000Z</time>
      </trkpt>
      <trkpt lat="44.12054" lon="7.04782">
        <ele>1905.5999755859</ele>
        <time>2020-07-30T11:40:37.000Z</time>
      </trkpt>
      <trkpt lat="44.1205" lon="7.04786">
        <ele>1903.8000488281</ele>
        <time>2020-07-30T11:40:38.000Z</time>
      </trkpt>
      <trkpt lat="44.12047" lon="7.04786">
        <ele>1902.8000488281</ele>
        <time>2020-07-30T11:40:39.000Z</time>
      </trkpt>
      <trkpt lat="44.12046" lon="7.04786">
        <ele>1901.5999755859</ele>
        <time>2020-07-30T11:40:40.000Z</time>
      </trkpt>
      <trkpt lat="44.12043" lon="7.04785">
        <ele>1900.4000244141</ele>
        <time>2020-07-30T11:40:41.000Z</time>
      </trkpt>
      <trkpt lat="44.12041" lon="7.04785">
        <ele>1899</ele>
        <time>2020-07-30T11:40:42.000Z</time>
      </trkpt>
      <trkpt lat="44.12035" lon="7.04788">
        <ele>1897</ele>
        <time>2020-07-30T11:40:44.000Z</time>
      </trkpt>
      <trkpt lat="44.1203" lon="7.0479">
        <ele>1896</ele>
        <time>2020-07-30T11:40:45.000Z</time>
      </trkpt>
      <trkpt lat="44.12026" lon="7.04791">
        <ele>1895.1999511719</ele>
        <time>2020-07-30T11:40:46.000Z</time>
      </trkpt>
      <trkpt lat="44.12021" lon="7.04794">
        <ele>1893.8000488281</ele>
        <time>2020-07-30T11:40:48.000Z</time>
      </trkpt>
      <trkpt lat="44.12014" lon="7.04801">
        <ele>1892.5999755859</ele>
        <time>2020-07-30T11:40:51.000Z</time>
      </trkpt>
      <trkpt lat="44.12013" lon="7.04804">
        <ele>1892.1999511719</ele>
        <time>2020-07-30T11:40:52.000Z</time>
      </trkpt>
      <trkpt lat="44.12013" lon="7.04809">
        <ele>1891.4000244141</ele>
        <time>2020-07-30T11:40:55.000Z</time>
      </trkpt>
      <trkpt lat="44.12011" lon="7.04814">
        <ele>1891.1999511719</ele>
        <time>2020-07-30T11:40:57.000Z</time>
      </trkpt>
      <trkpt lat="44.12007" lon="7.04826">
        <ele>1890.1999511719</ele>
        <time>2020-07-30T11:41:00.000Z</time>
      </trkpt>
      <trkpt lat="44.12005" lon="7.0483">
        <ele>1889.8000488281</ele>
        <time>2020-07-30T11:41:01.000Z</time>
      </trkpt>
      <trkpt lat="44.11999" lon="7.04839">
        <ele>1889.1999511719</ele>
        <time>2020-07-30T11:41:03.000Z</time>
      </trkpt>
      <trkpt lat="44.11997" lon="7.04845">
        <ele>1888.4000244141</ele>
        <time>2020-07-30T11:41:05.000Z</time>
      </trkpt>
      <trkpt lat="44.11995" lon="7.04847">
        <ele>1888</ele>
        <time>2020-07-30T11:41:06.000Z</time>
      </trkpt>
      <trkpt lat="44.11991" lon="7.04853">
        <ele>1887</ele>
        <time>2020-07-30T11:41:10.000Z</time>
      </trkpt>
      <trkpt lat="44.1199" lon="7.04854">
        <ele>1886.8000488281</ele>
        <time>2020-07-30T11:41:12.000Z</time>
      </trkpt>
      <trkpt lat="44.11986" lon="7.04861">
        <ele>1886</ele>
        <time>2020-07-30T11:41:16.000Z</time>
      </trkpt>
      <trkpt lat="44.11986" lon="7.04862">
        <ele>1885.5999755859</ele>
        <time>2020-07-30T11:41:17.000Z</time>
      </trkpt>
      <trkpt lat="44.1198" lon="7.04871">
        <ele>1884.8000488281</ele>
        <time>2020-07-30T11:41:20.000Z</time>
      </trkpt>
      <trkpt lat="44.11977" lon="7.04874">
        <ele>1884.5999755859</ele>
        <time>2020-07-30T11:41:21.000Z</time>
      </trkpt>
      <trkpt lat="44.11974" lon="7.04883">
        <ele>1883.5999755859</ele>
        <time>2020-07-30T11:41:24.000Z</time>
      </trkpt>
      <trkpt lat="44.11971" lon="7.04885">
        <ele>1883.1999511719</ele>
        <time>2020-07-30T11:41:25.000Z</time>
      </trkpt>
      <trkpt lat="44.11968" lon="7.04887">
        <ele>1882.4000244141</ele>
        <time>2020-07-30T11:41:26.000Z</time>
      </trkpt>
      <trkpt lat="44.11962" lon="7.04891">
        <ele>1881.4000244141</ele>
        <time>2020-07-30T11:41:28.000Z</time>
      </trkpt>
      <trkpt lat="44.11957" lon="7.04899">
        <ele>1880</ele>
        <time>2020-07-30T11:41:30.000Z</time>
      </trkpt>
      <trkpt lat="44.11951" lon="7.04908">
        <ele>1878.5999755859</ele>
        <time>2020-07-30T11:41:32.000Z</time>
      </trkpt>
      <trkpt lat="44.11949" lon="7.04912">
        <ele>1877.5999755859</ele>
        <time>2020-07-30T11:41:33.000Z</time>
      </trkpt>
      <trkpt lat="44.11944" lon="7.04918">
        <ele>1876.1999511719</ele>
        <time>2020-07-30T11:41:35.000Z</time>
      </trkpt>
      <trkpt lat="44.11942" lon="7.0492">
        <ele>1875</ele>
        <time>2020-07-30T11:41:36.000Z</time>
      </trkpt>
      <trkpt lat="44.11941" lon="7.04922">
        <ele>1874</ele>
        <time>2020-07-30T11:41:37.000Z</time>
      </trkpt>
      <trkpt lat="44.11937" lon="7.04926">
        <ele>1872.4000244141</ele>
        <time>2020-07-30T11:41:39.000Z</time>
      </trkpt>
      <trkpt lat="44.11934" lon="7.04928">
        <ele>1871.1999511719</ele>
        <time>2020-07-30T11:41:40.000Z</time>
      </trkpt>
      <trkpt lat="44.11932" lon="7.04931">
        <ele>1870</ele>
        <time>2020-07-30T11:41:41.000Z</time>
      </trkpt>
      <trkpt lat="44.11931" lon="7.04932">
        <ele>1869</ele>
        <time>2020-07-30T11:41:42.000Z</time>
      </trkpt>
      <trkpt lat="44.1193" lon="7.04935">
        <ele>1867.8000488281</ele>
        <time>2020-07-30T11:41:43.000Z</time>
      </trkpt>
      <trkpt lat="44.11929" lon="7.04939">
        <ele>1866.8000488281</ele>
        <time>2020-07-30T11:41:44.000Z</time>
      </trkpt>
      <trkpt lat="44.11923" lon="7.04945">
        <ele>1865.5999755859</ele>
        <time>2020-07-30T11:41:46.000Z</time>
      </trkpt>
      <trkpt lat="44.1192" lon="7.04953">
        <ele>1864.1999511719</ele>
        <time>2020-07-30T11:41:48.000Z</time>
      </trkpt>
      <trkpt lat="44.11916" lon="7.04956">
        <ele>1863.8000488281</ele>
        <time>2020-07-30T11:41:49.000Z</time>
      </trkpt>
      <trkpt lat="44.11909" lon="7.04958">
        <ele>1863</ele>
        <time>2020-07-30T11:41:50.000Z</time>
      </trkpt>
      <trkpt lat="44.1188" lon="7.04966">
        <ele>1861.4000244141</ele>
        <time>2020-07-30T11:41:54.000Z</time>
      </trkpt>
      <trkpt lat="44.11867" lon="7.04972">
        <ele>1860.1999511719</ele>
        <time>2020-07-30T11:41:56.000Z</time>
      </trkpt>
      <trkpt lat="44.11861" lon="7.04975">
        <ele>1859.4000244141</ele>
        <time>2020-07-30T11:41:57.000Z</time>
      </trkpt>
      <trkpt lat="44.11855" lon="7.04979">
        <ele>1857.8000488281</ele>
        <time>2020-07-30T11:41:58.000Z</time>
      </trkpt>
      <trkpt lat="44.11849" lon="7.04984">
        <ele>1856.8000488281</ele>
        <time>2020-07-30T11:41:59.000Z</time>
      </trkpt>
      <trkpt lat="44.11842" lon="7.04992">
        <ele>1855.4000244141</ele>
        <time>2020-07-30T11:42:00.000Z</time>
      </trkpt>
      <trkpt lat="44.11829" lon="7.05001">
        <ele>1854</ele>
        <time>2020-07-30T11:42:02.000Z</time>
      </trkpt>
      <trkpt lat="44.11824" lon="7.05004">
        <ele>1852.8000488281</ele>
        <time>2020-07-30T11:42:03.000Z</time>
      </trkpt>
      <trkpt lat="44.11812" lon="7.05015">
        <ele>1851.8000488281</ele>
        <time>2020-07-30T11:42:05.000Z</time>
      </trkpt>
      <trkpt lat="44.11806" lon="7.05022">
        <ele>1850.8000488281</ele>
        <time>2020-07-30T11:42:06.000Z</time>
      </trkpt>
      <trkpt lat="44.11801" lon="7.05028">
        <ele>1849.5999755859</ele>
        <time>2020-07-30T11:42:07.000Z</time>
      </trkpt>
      <trkpt lat="44.11794" lon="7.05038">
        <ele>1848.4000244141</ele>
        <time>2020-07-30T11:42:09.000Z</time>
      </trkpt>
      <trkpt lat="44.1179" lon="7.05045">
        <ele>1847.4000244141</ele>
        <time>2020-07-30T11:42:10.000Z</time>
      </trkpt>
      <trkpt lat="44.11787" lon="7.0505">
        <ele>1845.8000488281</ele>
        <time>2020-07-30T11:42:11.000Z</time>
      </trkpt>
      <trkpt lat="44.11781" lon="7.05054">
        <ele>1844.4000244141</ele>
        <time>2020-07-30T11:42:12.000Z</time>
      </trkpt>
      <trkpt lat="44.11776" lon="7.05057">
        <ele>1843.1999511719</ele>
        <time>2020-07-30T11:42:13.000Z</time>
      </trkpt>
      <trkpt lat="44.11769" lon="7.05063">
        <ele>1841.4000244141</ele>
        <time>2020-07-30T11:42:15.000Z</time>
      </trkpt>
      <trkpt lat="44.11765" lon="7.05067">
        <ele>1840.8000488281</ele>
        <time>2020-07-30T11:42:16.000Z</time>
      </trkpt>
      <trkpt lat="44.1176" lon="7.05068">
        <ele>1840</ele>
        <time>2020-07-30T11:42:17.000Z</time>
      </trkpt>
      <trkpt lat="44.11754" lon="7.05071">
        <ele>1838.8000488281</ele>
        <time>2020-07-30T11:42:18.000Z</time>
      </trkpt>
      <trkpt lat="44.1175" lon="7.05076">
        <ele>1838</ele>
        <time>2020-07-30T11:42:19.000Z</time>
      </trkpt>
      <trkpt lat="44.11746" lon="7.05082">
        <ele>1837.1999511719</ele>
        <time>2020-07-30T11:42:20.000Z</time>
      </trkpt>
      <trkpt lat="44.11739" lon="7.05094">
        <ele>1835.8000488281</ele>
        <time>2020-07-30T11:42:22.000Z</time>
      </trkpt>
      <trkpt lat="44.11737" lon="7.05096">
        <ele>1835.8000488281</ele>
        <time>2020-07-30T11:42:23.000Z</time>
      </trkpt>
      <trkpt lat="44.11737" lon="7.05097">
        <ele>1834.5999755859</ele>
        <time>2020-07-30T11:42:25.000Z</time>
      </trkpt>
      <trkpt lat="44.11736" lon="7.05097">
        <ele>1834</ele>
        <time>2020-07-30T11:42:26.000Z</time>
      </trkpt>
      <trkpt lat="44.11736" lon="7.05097">
        <ele>1833.5999755859</ele>
        <time>2020-07-30T11:42:27.000Z</time>
      </trkpt>
      <trkpt lat="44.11736" lon="7.05097">
        <ele>1832.4000244141</ele>
        <time>2020-07-30T11:42:31.000Z</time>
      </trkpt>
      <trkpt lat="44.11733" lon="7.05099">
        <ele>1832</ele>
        <time>2020-07-30T11:42:34.000Z</time>
      </trkpt>
      <trkpt lat="44.11732" lon="7.05102">
        <ele>1831.5999755859</ele>
        <time>2020-07-30T11:42:35.000Z</time>
      </trkpt>
      <trkpt lat="44.11732" lon="7.05105">
        <ele>1831.1999511719</ele>
        <time>2020-07-30T11:42:36.000Z</time>
      </trkpt>
      <trkpt lat="44.1173" lon="7.05109">
        <ele>1830.5999755859</ele>
        <time>2020-07-30T11:42:38.000Z</time>
      </trkpt>
      <trkpt lat="44.11728" lon="7.05113">
        <ele>1830.1999511719</ele>
        <time>2020-07-30T11:42:40.000Z</time>
      </trkpt>
      <trkpt lat="44.11726" lon="7.05118">
        <ele>1829.5999755859</ele>
        <time>2020-07-30T11:42:44.000Z</time>
      </trkpt>
      <trkpt lat="44.11723" lon="7.05129">
        <ele>1829</ele>
        <time>2020-07-30T11:42:48.000Z</time>
      </trkpt>
      <trkpt lat="44.11722" lon="7.05133">
        <ele>1828.8000488281</ele>
        <time>2020-07-30T11:42:49.000Z</time>
      </trkpt>
      <trkpt lat="44.11716" lon="7.05148">
        <ele>1827.1999511719</ele>
        <time>2020-07-30T11:42:52.000Z</time>
      </trkpt>
      <trkpt lat="44.11714" lon="7.05153">
        <ele>1826.8000488281</ele>
        <time>2020-07-30T11:42:53.000Z</time>
      </trkpt>
      <trkpt lat="44.11711" lon="7.05164">
        <ele>1825.8000488281</ele>
        <time>2020-07-30T11:42:55.000Z</time>
      </trkpt>
      <trkpt lat="44.11706" lon="7.05173">
        <ele>1824.4000244141</ele>
        <time>2020-07-30T11:42:57.000Z</time>
      </trkpt>
      <trkpt lat="44.11698" lon="7.05179">
        <ele>1823.8000488281</ele>
        <time>2020-07-30T11:43:00.000Z</time>
      </trkpt>
      <trkpt lat="44.11696" lon="7.05183">
        <ele>1823.4000244141</ele>
        <time>2020-07-30T11:43:01.000Z</time>
      </trkpt>
      <trkpt lat="44.11693" lon="7.05189">
        <ele>1823.5999755859</ele>
        <time>2020-07-30T11:43:02.000Z</time>
      </trkpt>
      <trkpt lat="44.11688" lon="7.05199">
        <ele>1823</ele>
        <time>2020-07-30T11:43:04.000Z</time>
      </trkpt>
      <trkpt lat="44.11685" lon="7.05205">
        <ele>1821.5999755859</ele>
        <time>2020-07-30T11:43:05.000Z</time>
      </trkpt>
      <trkpt lat="44.11681" lon="7.05211">
        <ele>1820.5999755859</ele>
        <time>2020-07-30T11:43:06.000Z</time>
      </trkpt>
      <trkpt lat="44.11677" lon="7.05215">
        <ele>1819.4000244141</ele>
        <time>2020-07-30T11:43:07.000Z</time>
      </trkpt>
      <trkpt lat="44.11668" lon="7.05221">
        <ele>1817.8000488281</ele>
        <time>2020-07-30T11:43:09.000Z</time>
      </trkpt>
      <trkpt lat="44.11659" lon="7.05227">
        <ele>1816.8000488281</ele>
        <time>2020-07-30T11:43:11.000Z</time>
      </trkpt>
      <trkpt lat="44.11655" lon="7.05232">
        <ele>1816.8000488281</ele>
        <time>2020-07-30T11:43:12.000Z</time>
      </trkpt>
      <trkpt lat="44.11649" lon="7.05241">
        <ele>1817</ele>
        <time>2020-07-30T11:43:15.000Z</time>
      </trkpt>
      <trkpt lat="44.11643" lon="7.05255">
        <ele>1816.5999755859</ele>
        <time>2020-07-30T11:43:19.000Z</time>
      </trkpt>
      <trkpt lat="44.1164" lon="7.0526">
        <ele>1816</ele>
        <time>2020-07-30T11:43:20.000Z</time>
      </trkpt>
      <trkpt lat="44.11636" lon="7.05263">
        <ele>1815.5999755859</ele>
        <time>2020-07-30T11:43:21.000Z</time>
      </trkpt>
      <trkpt lat="44.11631" lon="7.05266">
        <ele>1815.1999511719</ele>
        <time>2020-07-30T11:43:22.000Z</time>
      </trkpt>
      <trkpt lat="44.11626" lon="7.0527">
        <ele>1814.1999511719</ele>
        <time>2020-07-30T11:43:23.000Z</time>
      </trkpt>
      <trkpt lat="44.11622" lon="7.05272">
        <ele>1813.8000488281</ele>
        <time>2020-07-30T11:43:24.000Z</time>
      </trkpt>
      <trkpt lat="44.11606" lon="7.05285">
        <ele>1814</ele>
        <time>2020-07-30T11:43:28.000Z</time>
      </trkpt>
      <trkpt lat="44.11592" lon="7.05306">
        <ele>1813.1999511719</ele>
        <time>2020-07-30T11:43:31.000Z</time>
      </trkpt>
      <trkpt lat="44.11587" lon="7.05311">
        <ele>1812.8000488281</ele>
        <time>2020-07-30T11:43:32.000Z</time>
      </trkpt>
      <trkpt lat="44.11581" lon="7.05318">
        <ele>1811.5999755859</ele>
        <time>2020-07-30T11:43:34.000Z</time>
      </trkpt>
      <trkpt lat="44.1158" lon="7.0532">
        <ele>1811</ele>
        <time>2020-07-30T11:43:35.000Z</time>
      </trkpt>
      <trkpt lat="44.11579" lon="7.05323">
        <ele>1810.5999755859</ele>
        <time>2020-07-30T11:43:36.000Z</time>
      </trkpt>
      <trkpt lat="44.11577" lon="7.0533">
        <ele>1808.8000488281</ele>
        <time>2020-07-30T11:43:39.000Z</time>
      </trkpt>
      <trkpt lat="44.11575" lon="7.05334">
        <ele>1808</ele>
        <time>2020-07-30T11:43:40.000Z</time>
      </trkpt>
      <trkpt lat="44.11573" lon="7.05338">
        <ele>1807.5999755859</ele>
        <time>2020-07-30T11:43:41.000Z</time>
      </trkpt>
      <trkpt lat="44.11567" lon="7.05346">
        <ele>1806</ele>
        <time>2020-07-30T11:43:43.000Z</time>
      </trkpt>
      <trkpt lat="44.11562" lon="7.05351">
        <ele>1804.1999511719</ele>
        <time>2020-07-30T11:43:45.000Z</time>
      </trkpt>
      <trkpt lat="44.11557" lon="7.05355">
        <ele>1802.5999755859</ele>
        <time>2020-07-30T11:43:47.000Z</time>
      </trkpt>
      <trkpt lat="44.11548" lon="7.05356">
        <ele>1800.1999511719</ele>
        <time>2020-07-30T11:43:50.000Z</time>
      </trkpt>
      <trkpt lat="44.11544" lon="7.05357">
        <ele>1798.8000488281</ele>
        <time>2020-07-30T11:43:52.000Z</time>
      </trkpt>
      <trkpt lat="44.11542" lon="7.05359">
        <ele>1797.8000488281</ele>
        <time>2020-07-30T11:43:53.000Z</time>
      </trkpt>
      <trkpt lat="44.11539" lon="7.05361">
        <ele>1797</ele>
        <time>2020-07-30T11:43:54.000Z</time>
      </trkpt>
      <trkpt lat="44.11535" lon="7.05364">
        <ele>1796.1999511719</ele>
        <time>2020-07-30T11:43:55.000Z</time>
      </trkpt>
      <trkpt lat="44.1152" lon="7.05373">
        <ele>1795</ele>
        <time>2020-07-30T11:43:58.000Z</time>
      </trkpt>
      <trkpt lat="44.11518" lon="7.05377">
        <ele>1793.8000488281</ele>
        <time>2020-07-30T11:43:59.000Z</time>
      </trkpt>
      <trkpt lat="44.11514" lon="7.05381">
        <ele>1792.4000244141</ele>
        <time>2020-07-30T11:44:00.000Z</time>
      </trkpt>
      <trkpt lat="44.11512" lon="7.05383">
        <ele>1791</ele>
        <time>2020-07-30T11:44:01.000Z</time>
      </trkpt>
      <trkpt lat="44.11512" lon="7.05383">
        <ele>1789.1999511719</ele>
        <time>2020-07-30T11:44:03.000Z</time>
      </trkpt>
      <trkpt lat="44.11511" lon="7.05383">
        <ele>1789.4000244141</ele>
        <time>2020-07-30T11:44:04.000Z</time>
      </trkpt>
      <trkpt lat="44.11512" lon="7.05383">
        <ele>1789.1999511719</ele>
        <time>2020-07-30T11:44:12.000Z</time>
      </trkpt>
      <trkpt lat="44.11512" lon="7.05384">
        <ele>1788.8000488281</ele>
        <time>2020-07-30T11:44:25.000Z</time>
      </trkpt>
      <trkpt lat="44.11509" lon="7.05382">
        <ele>1788.5999755859</ele>
        <time>2020-07-30T11:44:32.000Z</time>
      </trkpt>
      <trkpt lat="44.11507" lon="7.05381">
        <ele>1788.5999755859</ele>
        <time>2020-07-30T11:44:33.000Z</time>
      </trkpt>
      <trkpt lat="44.11503" lon="7.05378">
        <ele>1788</ele>
        <time>2020-07-30T11:44:36.000Z</time>
      </trkpt>
      <trkpt lat="44.115" lon="7.05375">
        <ele>1786.5999755859</ele>
        <time>2020-07-30T11:44:38.000Z</time>
      </trkpt>
      <trkpt lat="44.11499" lon="7.05375">
        <ele>1785.8000488281</ele>
        <time>2020-07-30T11:44:39.000Z</time>
      </trkpt>
      <trkpt lat="44.11498" lon="7.05376">
        <ele>1785</ele>
        <time>2020-07-30T11:44:40.000Z</time>
      </trkpt>
      <trkpt lat="44.11494" lon="7.05379">
        <ele>1784</ele>
        <time>2020-07-30T11:44:42.000Z</time>
      </trkpt>
      <trkpt lat="44.11492" lon="7.05385">
        <ele>1783.1999511719</ele>
        <time>2020-07-30T11:44:44.000Z</time>
      </trkpt>
      <trkpt lat="44.1149" lon="7.05388">
        <ele>1782.8000488281</ele>
        <time>2020-07-30T11:44:45.000Z</time>
      </trkpt>
      <trkpt lat="44.11486" lon="7.05393">
        <ele>1781.5999755859</ele>
        <time>2020-07-30T11:44:49.000Z</time>
      </trkpt>
      <trkpt lat="44.11486" lon="7.05394">
        <ele>1780.4000244141</ele>
        <time>2020-07-30T11:44:52.000Z</time>
      </trkpt>
      <trkpt lat="44.11486" lon="7.05393">
        <ele>1780</ele>
        <time>2020-07-30T11:44:55.000Z</time>
      </trkpt>
      <trkpt lat="44.11484" lon="7.05397">
        <ele>1779.8000488281</ele>
        <time>2020-07-30T11:45:04.000Z</time>
      </trkpt>
      <trkpt lat="44.11479" lon="7.05403">
        <ele>1779.5999755859</ele>
        <time>2020-07-30T11:45:08.000Z</time>
      </trkpt>
      <trkpt lat="44.11473" lon="7.05402">
        <ele>1779</ele>
        <time>2020-07-30T11:45:10.000Z</time>
      </trkpt>
      <trkpt lat="44.11467" lon="7.05401">
        <ele>1777.5999755859</ele>
        <time>2020-07-30T11:45:12.000Z</time>
      </trkpt>
      <trkpt lat="44.11465" lon="7.05402">
        <ele>1776.5999755859</ele>
        <time>2020-07-30T11:45:13.000Z</time>
      </trkpt>
      <trkpt lat="44.11463" lon="7.05404">
        <ele>1775.4000244141</ele>
        <time>2020-07-30T11:45:14.000Z</time>
      </trkpt>
      <trkpt lat="44.11461" lon="7.05407">
        <ele>1774.1999511719</ele>
        <time>2020-07-30T11:45:15.000Z</time>
      </trkpt>
      <trkpt lat="44.11459" lon="7.05409">
        <ele>1772.5999755859</ele>
        <time>2020-07-30T11:45:16.000Z</time>
      </trkpt>
      <trkpt lat="44.11458" lon="7.05409">
        <ele>1771.5999755859</ele>
        <time>2020-07-30T11:45:18.000Z</time>
      </trkpt>
      <trkpt lat="44.11458" lon="7.0541">
        <ele>1771</ele>
        <time>2020-07-30T11:45:19.000Z</time>
      </trkpt>
      <trkpt lat="44.11456" lon="7.05413">
        <ele>1770.4000244141</ele>
        <time>2020-07-30T11:45:23.000Z</time>
      </trkpt>
      <trkpt lat="44.11455" lon="7.05415">
        <ele>1770.1999511719</ele>
        <time>2020-07-30T11:45:25.000Z</time>
      </trkpt>
      <trkpt lat="44.11452" lon="7.05416">
        <ele>1769.4000244141</ele>
        <time>2020-07-30T11:45:29.000Z</time>
      </trkpt>
      <trkpt lat="44.11452" lon="7.05417">
        <ele>1769</ele>
        <time>2020-07-30T11:45:30.000Z</time>
      </trkpt>
      <trkpt lat="44.11449" lon="7.05419">
        <ele>1768.1999511719</ele>
        <time>2020-07-30T11:45:33.000Z</time>
      </trkpt>
      <trkpt lat="44.11446" lon="7.05421">
        <ele>1767</ele>
        <time>2020-07-30T11:45:35.000Z</time>
      </trkpt>
      <trkpt lat="44.11443" lon="7.05421">
        <ele>1766</ele>
        <time>2020-07-30T11:45:37.000Z</time>
      </trkpt>
      <trkpt lat="44.11441" lon="7.05421">
        <ele>1765.1999511719</ele>
        <time>2020-07-30T11:45:39.000Z</time>
      </trkpt>
      <trkpt lat="44.1144" lon="7.05422">
        <ele>1764.8000488281</ele>
        <time>2020-07-30T11:45:40.000Z</time>
      </trkpt>
      <trkpt lat="44.1144" lon="7.05424">
        <ele>1763.5999755859</ele>
        <time>2020-07-30T11:45:42.000Z</time>
      </trkpt>
      <trkpt lat="44.11438" lon="7.05427">
        <ele>1762.5999755859</ele>
        <time>2020-07-30T11:45:44.000Z</time>
      </trkpt>
      <trkpt lat="44.11434" lon="7.0543">
        <ele>1761.5999755859</ele>
        <time>2020-07-30T11:45:46.000Z</time>
      </trkpt>
      <trkpt lat="44.11431" lon="7.05434">
        <ele>1760.5999755859</ele>
        <time>2020-07-30T11:45:48.000Z</time>
      </trkpt>
      <trkpt lat="44.11428" lon="7.05442">
        <ele>1759.4000244141</ele>
        <time>2020-07-30T11:45:50.000Z</time>
      </trkpt>
      <trkpt lat="44.11425" lon="7.05444">
        <ele>1758.5999755859</ele>
        <time>2020-07-30T11:45:51.000Z</time>
      </trkpt>
      <trkpt lat="44.11423" lon="7.05445">
        <ele>1757.8000488281</ele>
        <time>2020-07-30T11:45:52.000Z</time>
      </trkpt>
      <trkpt lat="44.11417" lon="7.05449">
        <ele>1756.4000244141</ele>
        <time>2020-07-30T11:45:54.000Z</time>
      </trkpt>
      <trkpt lat="44.11414" lon="7.05452">
        <ele>1755.5999755859</ele>
        <time>2020-07-30T11:45:55.000Z</time>
      </trkpt>
      <trkpt lat="44.11412" lon="7.05455">
        <ele>1754.8000488281</ele>
        <time>2020-07-30T11:45:56.000Z</time>
      </trkpt>
      <trkpt lat="44.1141" lon="7.05461">
        <ele>1753.1999511719</ele>
        <time>2020-07-30T11:45:58.000Z</time>
      </trkpt>
      <trkpt lat="44.11409" lon="7.05465">
        <ele>1752.1999511719</ele>
        <time>2020-07-30T11:45:59.000Z</time>
      </trkpt>
      <trkpt lat="44.11405" lon="7.05471">
        <ele>1751.5999755859</ele>
        <time>2020-07-30T11:46:00.000Z</time>
      </trkpt>
      <trkpt lat="44.11396" lon="7.05483">
        <ele>1750.4000244141</ele>
        <time>2020-07-30T11:46:02.000Z</time>
      </trkpt>
      <trkpt lat="44.11391" lon="7.0549">
        <ele>1749.1999511719</ele>
        <time>2020-07-30T11:46:03.000Z</time>
      </trkpt>
      <trkpt lat="44.11387" lon="7.05494">
        <ele>1747.8000488281</ele>
        <time>2020-07-30T11:46:04.000Z</time>
      </trkpt>
      <trkpt lat="44.11384" lon="7.05498">
        <ele>1746.4000244141</ele>
        <time>2020-07-30T11:46:05.000Z</time>
      </trkpt>
      <trkpt lat="44.11381" lon="7.05501">
        <ele>1745.1999511719</ele>
        <time>2020-07-30T11:46:06.000Z</time>
      </trkpt>
      <trkpt lat="44.11379" lon="7.05504">
        <ele>1744.1999511719</ele>
        <time>2020-07-30T11:46:07.000Z</time>
      </trkpt>
      <trkpt lat="44.11375" lon="7.05513">
        <ele>1743</ele>
        <time>2020-07-30T11:46:09.000Z</time>
      </trkpt>
      <trkpt lat="44.11372" lon="7.05517">
        <ele>1742.8000488281</ele>
        <time>2020-07-30T11:46:10.000Z</time>
      </trkpt>
      <trkpt lat="44.11369" lon="7.05521">
        <ele>1742.8000488281</ele>
        <time>2020-07-30T11:46:11.000Z</time>
      </trkpt>
      <trkpt lat="44.11363" lon="7.05529">
        <ele>1741.8000488281</ele>
        <time>2020-07-30T11:46:13.000Z</time>
      </trkpt>
      <trkpt lat="44.1136" lon="7.05532">
        <ele>1741.5999755859</ele>
        <time>2020-07-30T11:46:14.000Z</time>
      </trkpt>
      <trkpt lat="44.11354" lon="7.0554">
        <ele>1740.4000244141</ele>
        <time>2020-07-30T11:46:16.000Z</time>
      </trkpt>
      <trkpt lat="44.1135" lon="7.05543">
        <ele>1739.8000488281</ele>
        <time>2020-07-30T11:46:17.000Z</time>
      </trkpt>
      <trkpt lat="44.11345" lon="7.05545">
        <ele>1739.4000244141</ele>
        <time>2020-07-30T11:46:18.000Z</time>
      </trkpt>
      <trkpt lat="44.11341" lon="7.05549">
        <ele>1738.1999511719</ele>
        <time>2020-07-30T11:46:19.000Z</time>
      </trkpt>
      <trkpt lat="44.11334" lon="7.05558">
        <ele>1736.8000488281</ele>
        <time>2020-07-30T11:46:21.000Z</time>
      </trkpt>
      <trkpt lat="44.11332" lon="7.05563">
        <ele>1736.1999511719</ele>
        <time>2020-07-30T11:46:22.000Z</time>
      </trkpt>
      <trkpt lat="44.11328" lon="7.0557">
        <ele>1735.4000244141</ele>
        <time>2020-07-30T11:46:25.000Z</time>
      </trkpt>
      <trkpt lat="44.11324" lon="7.05569">
        <ele>1734.8000488281</ele>
        <time>2020-07-30T11:46:29.000Z</time>
      </trkpt>
      <trkpt lat="44.11323" lon="7.05571">
        <ele>1734.8000488281</ele>
        <time>2020-07-30T11:46:30.000Z</time>
      </trkpt>
      <trkpt lat="44.11319" lon="7.05575">
        <ele>1734.4000244141</ele>
        <time>2020-07-30T11:46:32.000Z</time>
      </trkpt>
      <trkpt lat="44.11316" lon="7.05576">
        <ele>1734</ele>
        <time>2020-07-30T11:46:34.000Z</time>
      </trkpt>
      <trkpt lat="44.1131" lon="7.05584">
        <ele>1732.8000488281</ele>
        <time>2020-07-30T11:46:37.000Z</time>
      </trkpt>
      <trkpt lat="44.11308" lon="7.05586">
        <ele>1732.5999755859</ele>
        <time>2020-07-30T11:46:38.000Z</time>
      </trkpt>
      <trkpt lat="44.11304" lon="7.05589">
        <ele>1731.5999755859</ele>
        <time>2020-07-30T11:46:39.000Z</time>
      </trkpt>
      <trkpt lat="44.113" lon="7.05593">
        <ele>1731</ele>
        <time>2020-07-30T11:46:40.000Z</time>
      </trkpt>
      <trkpt lat="44.11297" lon="7.05597">
        <ele>1730.5999755859</ele>
        <time>2020-07-30T11:46:41.000Z</time>
      </trkpt>
      <trkpt lat="44.11292" lon="7.056">
        <ele>1729.5999755859</ele>
        <time>2020-07-30T11:46:42.000Z</time>
      </trkpt>
      <trkpt lat="44.11288" lon="7.05605">
        <ele>1728.5999755859</ele>
        <time>2020-07-30T11:46:43.000Z</time>
      </trkpt>
      <trkpt lat="44.1128" lon="7.05611">
        <ele>1727.8000488281</ele>
        <time>2020-07-30T11:46:45.000Z</time>
      </trkpt>
      <trkpt lat="44.11276" lon="7.05613">
        <ele>1726.4000244141</ele>
        <time>2020-07-30T11:46:46.000Z</time>
      </trkpt>
      <trkpt lat="44.11274" lon="7.05616">
        <ele>1725.8000488281</ele>
        <time>2020-07-30T11:46:47.000Z</time>
      </trkpt>
      <trkpt lat="44.11273" lon="7.05621">
        <ele>1725</ele>
        <time>2020-07-30T11:46:48.000Z</time>
      </trkpt>
      <trkpt lat="44.11264" lon="7.0563">
        <ele>1723.8000488281</ele>
        <time>2020-07-30T11:46:51.000Z</time>
      </trkpt>
      <trkpt lat="44.11261" lon="7.05635">
        <ele>1724.1999511719</ele>
        <time>2020-07-30T11:46:52.000Z</time>
      </trkpt>
      <trkpt lat="44.11255" lon="7.05647">
        <ele>1724</ele>
        <time>2020-07-30T11:46:55.000Z</time>
      </trkpt>
      <trkpt lat="44.11255" lon="7.05651">
        <ele>1724.1999511719</ele>
        <time>2020-07-30T11:46:56.000Z</time>
      </trkpt>
      <trkpt lat="44.11254" lon="7.05659">
        <ele>1722.1999511719</ele>
        <time>2020-07-30T11:46:59.000Z</time>
      </trkpt>
      <trkpt lat="44.11255" lon="7.05663">
        <ele>1720.8000488281</ele>
        <time>2020-07-30T11:47:01.000Z</time>
      </trkpt>
      <trkpt lat="44.11256" lon="7.0567">
        <ele>1720</ele>
        <time>2020-07-30T11:47:03.000Z</time>
      </trkpt>
      <trkpt lat="44.11254" lon="7.05673">
        <ele>1719</ele>
        <time>2020-07-30T11:47:04.000Z</time>
      </trkpt>
      <trkpt lat="44.11249" lon="7.05685">
        <ele>1717.8000488281</ele>
        <time>2020-07-30T11:47:06.000Z</time>
      </trkpt>
      <trkpt lat="44.11242" lon="7.05695">
        <ele>1715.8000488281</ele>
        <time>2020-07-30T11:47:08.000Z</time>
      </trkpt>
      <trkpt lat="44.11237" lon="7.05703">
        <ele>1714.5999755859</ele>
        <time>2020-07-30T11:47:10.000Z</time>
      </trkpt>
      <trkpt lat="44.11236" lon="7.05705">
        <ele>1713.5999755859</ele>
        <time>2020-07-30T11:47:11.000Z</time>
      </trkpt>
      <trkpt lat="44.1123" lon="7.0572">
        <ele>1713.4000244141</ele>
        <time>2020-07-30T11:47:14.000Z</time>
      </trkpt>
      <trkpt lat="44.11225" lon="7.05731">
        <ele>1712.1999511719</ele>
        <time>2020-07-30T11:47:17.000Z</time>
      </trkpt>
      <trkpt lat="44.11224" lon="7.05734">
        <ele>1711.5999755859</ele>
        <time>2020-07-30T11:47:18.000Z</time>
      </trkpt>
      <trkpt lat="44.11224" lon="7.05738">
        <ele>1711</ele>
        <time>2020-07-30T11:47:19.000Z</time>
      </trkpt>
      <trkpt lat="44.1122" lon="7.05745">
        <ele>1710.4000244141</ele>
        <time>2020-07-30T11:47:21.000Z</time>
      </trkpt>
      <trkpt lat="44.11218" lon="7.05749">
        <ele>1709.5999755859</ele>
        <time>2020-07-30T11:47:22.000Z</time>
      </trkpt>
      <trkpt lat="44.11213" lon="7.05755">
        <ele>1707.8000488281</ele>
        <time>2020-07-30T11:47:24.000Z</time>
      </trkpt>
      <trkpt lat="44.11212" lon="7.05757">
        <ele>1707</ele>
        <time>2020-07-30T11:47:25.000Z</time>
      </trkpt>
      <trkpt lat="44.11211" lon="7.0576">
        <ele>1706.1999511719</ele>
        <time>2020-07-30T11:47:26.000Z</time>
      </trkpt>
      <trkpt lat="44.11209" lon="7.05766">
        <ele>1705</ele>
        <time>2020-07-30T11:47:28.000Z</time>
      </trkpt>
      <trkpt lat="44.11208" lon="7.05768">
        <ele>1704.5999755859</ele>
        <time>2020-07-30T11:47:29.000Z</time>
      </trkpt>
      <trkpt lat="44.11207" lon="7.05771">
        <ele>1704</ele>
        <time>2020-07-30T11:47:30.000Z</time>
      </trkpt>
      <trkpt lat="44.11205" lon="7.05783">
        <ele>1702.1999511719</ele>
        <time>2020-07-30T11:47:33.000Z</time>
      </trkpt>
      <trkpt lat="44.11203" lon="7.05788">
        <ele>1701.1999511719</ele>
        <time>2020-07-30T11:47:34.000Z</time>
      </trkpt>
      <trkpt lat="44.112" lon="7.05794">
        <ele>1700</ele>
        <time>2020-07-30T11:47:35.000Z</time>
      </trkpt>
      <trkpt lat="44.11195" lon="7.05801">
        <ele>1698.8000488281</ele>
        <time>2020-07-30T11:47:36.000Z</time>
      </trkpt>
      <trkpt lat="44.11191" lon="7.05809">
        <ele>1697.4000244141</ele>
        <time>2020-07-30T11:47:37.000Z</time>
      </trkpt>
      <trkpt lat="44.11185" lon="7.05816">
        <ele>1696</ele>
        <time>2020-07-30T11:47:38.000Z</time>
      </trkpt>
      <trkpt lat="44.11173" lon="7.05828">
        <ele>1694.4000244141</ele>
        <time>2020-07-30T11:47:40.000Z</time>
      </trkpt>
      <trkpt lat="44.11168" lon="7.05834">
        <ele>1693.4000244141</ele>
        <time>2020-07-30T11:47:41.000Z</time>
      </trkpt>
      <trkpt lat="44.11159" lon="7.05845">
        <ele>1692</ele>
        <time>2020-07-30T11:47:43.000Z</time>
      </trkpt>
      <trkpt lat="44.11155" lon="7.05849">
        <ele>1691.1999511719</ele>
        <time>2020-07-30T11:47:44.000Z</time>
      </trkpt>
      <trkpt lat="44.1115" lon="7.05854">
        <ele>1690.4000244141</ele>
        <time>2020-07-30T11:47:45.000Z</time>
      </trkpt>
      <trkpt lat="44.11146" lon="7.0586">
        <ele>1689.8000488281</ele>
        <time>2020-07-30T11:47:46.000Z</time>
      </trkpt>
      <trkpt lat="44.11143" lon="7.05868">
        <ele>1689</ele>
        <time>2020-07-30T11:47:47.000Z</time>
      </trkpt>
      <trkpt lat="44.1114" lon="7.05875">
        <ele>1687.8000488281</ele>
        <time>2020-07-30T11:47:48.000Z</time>
      </trkpt>
      <trkpt lat="44.11134" lon="7.05885">
        <ele>1685.8000488281</ele>
        <time>2020-07-30T11:47:50.000Z</time>
      </trkpt>
      <trkpt lat="44.11131" lon="7.05891">
        <ele>1684.8000488281</ele>
        <time>2020-07-30T11:47:51.000Z</time>
      </trkpt>
      <trkpt lat="44.11127" lon="7.05899">
        <ele>1683.8000488281</ele>
        <time>2020-07-30T11:47:52.000Z</time>
      </trkpt>
      <trkpt lat="44.11122" lon="7.05914">
        <ele>1681.5999755859</ele>
        <time>2020-07-30T11:47:54.000Z</time>
      </trkpt>
      <trkpt lat="44.11118" lon="7.05923">
        <ele>1680.1999511719</ele>
        <time>2020-07-30T11:47:55.000Z</time>
      </trkpt>
      <trkpt lat="44.11115" lon="7.05932">
        <ele>1679.1999511719</ele>
        <time>2020-07-30T11:47:56.000Z</time>
      </trkpt>
      <trkpt lat="44.11112" lon="7.0594">
        <ele>1678.1999511719</ele>
        <time>2020-07-30T11:47:57.000Z</time>
      </trkpt>
      <trkpt lat="44.11109" lon="7.05948">
        <ele>1677</ele>
        <time>2020-07-30T11:47:58.000Z</time>
      </trkpt>
      <trkpt lat="44.11103" lon="7.05964">
        <ele>1675.4000244141</ele>
        <time>2020-07-30T11:48:00.000Z</time>
      </trkpt>
      <trkpt lat="44.11099" lon="7.05971">
        <ele>1674</ele>
        <time>2020-07-30T11:48:01.000Z</time>
      </trkpt>
      <trkpt lat="44.11096" lon="7.0598">
        <ele>1673</ele>
        <time>2020-07-30T11:48:02.000Z</time>
      </trkpt>
      <trkpt lat="44.11092" lon="7.05988">
        <ele>1672.1999511719</ele>
        <time>2020-07-30T11:48:03.000Z</time>
      </trkpt>
      <trkpt lat="44.11088" lon="7.05996">
        <ele>1671.1999511719</ele>
        <time>2020-07-30T11:48:04.000Z</time>
      </trkpt>
      <trkpt lat="44.11079" lon="7.06013">
        <ele>1670.1999511719</ele>
        <time>2020-07-30T11:48:06.000Z</time>
      </trkpt>
      <trkpt lat="44.11074" lon="7.06021">
        <ele>1669.4000244141</ele>
        <time>2020-07-30T11:48:07.000Z</time>
      </trkpt>
      <trkpt lat="44.1107" lon="7.0603">
        <ele>1668</ele>
        <time>2020-07-30T11:48:08.000Z</time>
      </trkpt>
      <trkpt lat="44.11068" lon="7.06037">
        <ele>1668.4000244141</ele>
        <time>2020-07-30T11:48:09.000Z</time>
      </trkpt>
      <trkpt lat="44.11063" lon="7.06051">
        <ele>1667.8000488281</ele>
        <time>2020-07-30T11:48:11.000Z</time>
      </trkpt>
      <trkpt lat="44.11061" lon="7.06059">
        <ele>1667.1999511719</ele>
        <time>2020-07-30T11:48:12.000Z</time>
      </trkpt>
      <trkpt lat="44.11059" lon="7.06068">
        <ele>1666.4000244141</ele>
        <time>2020-07-30T11:48:13.000Z</time>
      </trkpt>
      <trkpt lat="44.11052" lon="7.06085">
        <ele>1665.4000244141</ele>
        <time>2020-07-30T11:48:15.000Z</time>
      </trkpt>
      <trkpt lat="44.11049" lon="7.06094">
        <ele>1664.5999755859</ele>
        <time>2020-07-30T11:48:16.000Z</time>
      </trkpt>
      <trkpt lat="44.11044" lon="7.06102">
        <ele>1664</ele>
        <time>2020-07-30T11:48:17.000Z</time>
      </trkpt>
      <trkpt lat="44.11036" lon="7.0612">
        <ele>1663.1999511719</ele>
        <time>2020-07-30T11:48:19.000Z</time>
      </trkpt>
      <trkpt lat="44.1103" lon="7.06127">
        <ele>1663</ele>
        <time>2020-07-30T11:48:20.000Z</time>
      </trkpt>
      <trkpt lat="44.11019" lon="7.06144">
        <ele>1661.8000488281</ele>
        <time>2020-07-30T11:48:22.000Z</time>
      </trkpt>
      <trkpt lat="44.11014" lon="7.06152">
        <ele>1661</ele>
        <time>2020-07-30T11:48:23.000Z</time>
      </trkpt>
      <trkpt lat="44.11009" lon="7.06162">
        <ele>1660.8000488281</ele>
        <time>2020-07-30T11:48:24.000Z</time>
      </trkpt>
      <trkpt lat="44.10998" lon="7.0618">
        <ele>1659.1999511719</ele>
        <time>2020-07-30T11:48:26.000Z</time>
      </trkpt>
      <trkpt lat="44.1099" lon="7.06198">
        <ele>1657.5999755859</ele>
        <time>2020-07-30T11:48:28.000Z</time>
      </trkpt>
      <trkpt lat="44.10986" lon="7.06205">
        <ele>1657</ele>
        <time>2020-07-30T11:48:29.000Z</time>
      </trkpt>
      <trkpt lat="44.1098" lon="7.06214">
        <ele>1656</ele>
        <time>2020-07-30T11:48:30.000Z</time>
      </trkpt>
      <trkpt lat="44.1097" lon="7.0623">
        <ele>1654.4000244141</ele>
        <time>2020-07-30T11:48:32.000Z</time>
      </trkpt>
      <trkpt lat="44.10962" lon="7.06247">
        <ele>1652.4000244141</ele>
        <time>2020-07-30T11:48:34.000Z</time>
      </trkpt>
      <trkpt lat="44.10957" lon="7.06254">
        <ele>1651.4000244141</ele>
        <time>2020-07-30T11:48:35.000Z</time>
      </trkpt>
      <trkpt lat="44.10956" lon="7.06261">
        <ele>1650.1999511719</ele>
        <time>2020-07-30T11:48:36.000Z</time>
      </trkpt>
      <trkpt lat="44.10953" lon="7.06266">
        <ele>1649</ele>
        <time>2020-07-30T11:48:37.000Z</time>
      </trkpt>
      <trkpt lat="44.1095" lon="7.06272">
        <ele>1648.1999511719</ele>
        <time>2020-07-30T11:48:38.000Z</time>
      </trkpt>
      <trkpt lat="44.10947" lon="7.06278">
        <ele>1647.1999511719</ele>
        <time>2020-07-30T11:48:39.000Z</time>
      </trkpt>
      <trkpt lat="44.10937" lon="7.06293">
        <ele>1645.5999755859</ele>
        <time>2020-07-30T11:48:41.000Z</time>
      </trkpt>
      <trkpt lat="44.10927" lon="7.06307">
        <ele>1644.4000244141</ele>
        <time>2020-07-30T11:48:43.000Z</time>
      </trkpt>
      <trkpt lat="44.10922" lon="7.06314">
        <ele>1642.8000488281</ele>
        <time>2020-07-30T11:48:44.000Z</time>
      </trkpt>
      <trkpt lat="44.10912" lon="7.0633">
        <ele>1641</ele>
        <time>2020-07-30T11:48:46.000Z</time>
      </trkpt>
      <trkpt lat="44.10898" lon="7.06353">
        <ele>1639.5999755859</ele>
        <time>2020-07-30T11:48:49.000Z</time>
      </trkpt>
      <trkpt lat="44.10889" lon="7.06369">
        <ele>1638.4000244141</ele>
        <time>2020-07-30T11:48:51.000Z</time>
      </trkpt>
      <trkpt lat="44.1088" lon="7.06385">
        <ele>1637.4000244141</ele>
        <time>2020-07-30T11:48:53.000Z</time>
      </trkpt>
      <trkpt lat="44.10875" lon="7.06395">
        <ele>1637</ele>
        <time>2020-07-30T11:48:54.000Z</time>
      </trkpt>
      <trkpt lat="44.10869" lon="7.06404">
        <ele>1636</ele>
        <time>2020-07-30T11:48:55.000Z</time>
      </trkpt>
      <trkpt lat="44.1086" lon="7.06422">
        <ele>1634.1999511719</ele>
        <time>2020-07-30T11:48:57.000Z</time>
      </trkpt>
      <trkpt lat="44.10857" lon="7.06431">
        <ele>1633.8000488281</ele>
        <time>2020-07-30T11:48:58.000Z</time>
      </trkpt>
      <trkpt lat="44.10855" lon="7.0644">
        <ele>1632.5999755859</ele>
        <time>2020-07-30T11:48:59.000Z</time>
      </trkpt>
      <trkpt lat="44.10853" lon="7.06448">
        <ele>1631.1999511719</ele>
        <time>2020-07-30T11:49:00.000Z</time>
      </trkpt>
      <trkpt lat="44.10852" lon="7.06453">
        <ele>1629.5999755859</ele>
        <time>2020-07-30T11:49:01.000Z</time>
      </trkpt>
      <trkpt lat="44.10852" lon="7.06454">
        <ele>1628.1999511719</ele>
        <time>2020-07-30T11:49:02.000Z</time>
      </trkpt>
      <trkpt lat="44.10852" lon="7.06453">
        <ele>1627.5999755859</ele>
        <time>2020-07-30T11:49:03.000Z</time>
      </trkpt>
      <trkpt lat="44.10851" lon="7.06454">
        <ele>1627.1999511719</ele>
        <time>2020-07-30T11:49:04.000Z</time>
      </trkpt>
      <trkpt lat="44.10851" lon="7.06456">
        <ele>1627.4000244141</ele>
        <time>2020-07-30T11:49:13.000Z</time>
      </trkpt>
      <trkpt lat="44.1085" lon="7.06457">
        <ele>1627.4000244141</ele>
        <time>2020-07-30T11:49:23.000Z</time>
      </trkpt>
      <trkpt lat="44.10849" lon="7.06459">
        <ele>1627.4000244141</ele>
        <time>2020-07-30T11:49:39.000Z</time>
      </trkpt>
      <trkpt lat="44.10847" lon="7.06459">
        <ele>1627.8000488281</ele>
        <time>2020-07-30T11:49:56.000Z</time>
      </trkpt>
      <trkpt lat="44.10846" lon="7.0646">
        <ele>1627.5999755859</ele>
        <time>2020-07-30T11:50:15.000Z</time>
      </trkpt>
      <trkpt lat="44.1085" lon="7.06469">
        <ele>1627.8000488281</ele>
        <time>2020-07-30T11:50:23.000Z</time>
      </trkpt>
      <trkpt lat="44.10849" lon="7.06479">
        <ele>1627.5999755859</ele>
        <time>2020-07-30T11:50:25.000Z</time>
      </trkpt>
      <trkpt lat="44.10848" lon="7.06482">
        <ele>1627.4000244141</ele>
        <time>2020-07-30T11:50:26.000Z</time>
      </trkpt>
      <trkpt lat="44.10849" lon="7.06486">
        <ele>1627.1999511719</ele>
        <time>2020-07-30T11:50:27.000Z</time>
      </trkpt>
      <trkpt lat="44.10855" lon="7.06493">
        <ele>1626.5999755859</ele>
        <time>2020-07-30T11:50:29.000Z</time>
      </trkpt>
      <trkpt lat="44.10858" lon="7.06497">
        <ele>1625.8000488281</ele>
        <time>2020-07-30T11:50:30.000Z</time>
      </trkpt>
      <trkpt lat="44.10862" lon="7.065">
        <ele>1625.4000244141</ele>
        <time>2020-07-30T11:50:31.000Z</time>
      </trkpt>
      <trkpt lat="44.10869" lon="7.0651">
        <ele>1624.4000244141</ele>
        <time>2020-07-30T11:50:33.000Z</time>
      </trkpt>
      <trkpt lat="44.10887" lon="7.06525">
        <ele>1623.1999511719</ele>
        <time>2020-07-30T11:50:37.000Z</time>
      </trkpt>
      <trkpt lat="44.10902" lon="7.06535">
        <ele>1622</ele>
        <time>2020-07-30T11:50:40.000Z</time>
      </trkpt>
      <trkpt lat="44.10916" lon="7.06546">
        <ele>1621.5999755859</ele>
        <time>2020-07-30T11:50:43.000Z</time>
      </trkpt>
      <trkpt lat="44.10929" lon="7.0656">
        <ele>1621.1999511719</ele>
        <time>2020-07-30T11:50:46.000Z</time>
      </trkpt>
      <trkpt lat="44.10937" lon="7.06572">
        <ele>1621.1999511719</ele>
        <time>2020-07-30T11:50:48.000Z</time>
      </trkpt>
      <trkpt lat="44.10939" lon="7.06579">
        <ele>1621</ele>
        <time>2020-07-30T11:50:49.000Z</time>
      </trkpt>
      <trkpt lat="44.1094" lon="7.06587">
        <ele>1620.5999755859</ele>
        <time>2020-07-30T11:50:50.000Z</time>
      </trkpt>
      <trkpt lat="44.10942" lon="7.06593">
        <ele>1620.4000244141</ele>
        <time>2020-07-30T11:50:51.000Z</time>
      </trkpt>
      <trkpt lat="44.10942" lon="7.066">
        <ele>1620</ele>
        <time>2020-07-30T11:50:52.000Z</time>
      </trkpt>
      <trkpt lat="44.10943" lon="7.06607">
        <ele>1619.5999755859</ele>
        <time>2020-07-30T11:50:53.000Z</time>
      </trkpt>
      <trkpt lat="44.10945" lon="7.06616">
        <ele>1618.8000488281</ele>
        <time>2020-07-30T11:50:54.000Z</time>
      </trkpt>
      <trkpt lat="44.10946" lon="7.06628">
        <ele>1618</ele>
        <time>2020-07-30T11:50:55.000Z</time>
      </trkpt>
      <trkpt lat="44.10946" lon="7.06637">
        <ele>1616.5999755859</ele>
        <time>2020-07-30T11:50:56.000Z</time>
      </trkpt>
      <trkpt lat="44.10946" lon="7.06645">
        <ele>1615</ele>
        <time>2020-07-30T11:50:57.000Z</time>
      </trkpt>
      <trkpt lat="44.10945" lon="7.06651">
        <ele>1613.1999511719</ele>
        <time>2020-07-30T11:50:58.000Z</time>
      </trkpt>
      <trkpt lat="44.10944" lon="7.06654">
        <ele>1611.8000488281</ele>
        <time>2020-07-30T11:50:59.000Z</time>
      </trkpt>
      <trkpt lat="44.10944" lon="7.06659">
        <ele>1610.4000244141</ele>
        <time>2020-07-30T11:51:00.000Z</time>
      </trkpt>
      <trkpt lat="44.10943" lon="7.06664">
        <ele>1608.5999755859</ele>
        <time>2020-07-30T11:51:01.000Z</time>
      </trkpt>
      <trkpt lat="44.10944" lon="7.0667">
        <ele>1607.1999511719</ele>
        <time>2020-07-30T11:51:02.000Z</time>
      </trkpt>
      <trkpt lat="44.10945" lon="7.06678">
        <ele>1605.4000244141</ele>
        <time>2020-07-30T11:51:04.000Z</time>
      </trkpt>
      <trkpt lat="44.10945" lon="7.06683">
        <ele>1604.1999511719</ele>
        <time>2020-07-30T11:51:05.000Z</time>
      </trkpt>
      <trkpt lat="44.10945" lon="7.06688">
        <ele>1602</ele>
        <time>2020-07-30T11:51:06.000Z</time>
      </trkpt>
      <trkpt lat="44.10943" lon="7.06698">
        <ele>1600</ele>
        <time>2020-07-30T11:51:08.000Z</time>
      </trkpt>
      <trkpt lat="44.10942" lon="7.06702">
        <ele>1598.4000244141</ele>
        <time>2020-07-30T11:51:09.000Z</time>
      </trkpt>
      <trkpt lat="44.1094" lon="7.06707">
        <ele>1596.8000488281</ele>
        <time>2020-07-30T11:51:10.000Z</time>
      </trkpt>
      <trkpt lat="44.10938" lon="7.06719">
        <ele>1595</ele>
        <time>2020-07-30T11:51:12.000Z</time>
      </trkpt>
      <trkpt lat="44.10937" lon="7.06726">
        <ele>1593.8000488281</ele>
        <time>2020-07-30T11:51:13.000Z</time>
      </trkpt>
      <trkpt lat="44.10937" lon="7.06732">
        <ele>1592.8000488281</ele>
        <time>2020-07-30T11:51:14.000Z</time>
      </trkpt>
      <trkpt lat="44.10939" lon="7.06737">
        <ele>1591.5999755859</ele>
        <time>2020-07-30T11:51:15.000Z</time>
      </trkpt>
      <trkpt lat="44.10939" lon="7.06743">
        <ele>1590</ele>
        <time>2020-07-30T11:51:16.000Z</time>
      </trkpt>
      <trkpt lat="44.10939" lon="7.0675">
        <ele>1589</ele>
        <time>2020-07-30T11:51:17.000Z</time>
      </trkpt>
      <trkpt lat="44.1094" lon="7.06758">
        <ele>1587.5999755859</ele>
        <time>2020-07-30T11:51:18.000Z</time>
      </trkpt>
      <trkpt lat="44.1094" lon="7.06765">
        <ele>1587</ele>
        <time>2020-07-30T11:51:19.000Z</time>
      </trkpt>
      <trkpt lat="44.10941" lon="7.06772">
        <ele>1586.1999511719</ele>
        <time>2020-07-30T11:51:20.000Z</time>
      </trkpt>
      <trkpt lat="44.10944" lon="7.06785">
        <ele>1584.4000244141</ele>
        <time>2020-07-30T11:51:22.000Z</time>
      </trkpt>
      <trkpt lat="44.10944" lon="7.06792">
        <ele>1582.5999755859</ele>
        <time>2020-07-30T11:51:23.000Z</time>
      </trkpt>
      <trkpt lat="44.10946" lon="7.06799">
        <ele>1580.4000244141</ele>
        <time>2020-07-30T11:51:24.000Z</time>
      </trkpt>
      <trkpt lat="44.10948" lon="7.06808">
        <ele>1578.8000488281</ele>
        <time>2020-07-30T11:51:25.000Z</time>
      </trkpt>
      <trkpt lat="44.10948" lon="7.06816">
        <ele>1577</ele>
        <time>2020-07-30T11:51:26.000Z</time>
      </trkpt>
      <trkpt lat="44.10948" lon="7.06825">
        <ele>1575.5999755859</ele>
        <time>2020-07-30T11:51:27.000Z</time>
      </trkpt>
      <trkpt lat="44.10949" lon="7.06832">
        <ele>1574.5999755859</ele>
        <time>2020-07-30T11:51:28.000Z</time>
      </trkpt>
      <trkpt lat="44.10951" lon="7.06838">
        <ele>1573.1999511719</ele>
        <time>2020-07-30T11:51:29.000Z</time>
      </trkpt>
      <trkpt lat="44.10953" lon="7.06845">
        <ele>1572</ele>
        <time>2020-07-30T11:51:30.000Z</time>
      </trkpt>
      <trkpt lat="44.10954" lon="7.06852">
        <ele>1570.5999755859</ele>
        <time>2020-07-30T11:51:31.000Z</time>
      </trkpt>
      <trkpt lat="44.10956" lon="7.0686">
        <ele>1569</ele>
        <time>2020-07-30T11:51:32.000Z</time>
      </trkpt>
      <trkpt lat="44.10959" lon="7.06867">
        <ele>1567.1999511719</ele>
        <time>2020-07-30T11:51:33.000Z</time>
      </trkpt>
      <trkpt lat="44.10963" lon="7.06883">
        <ele>1565.8000488281</ele>
        <time>2020-07-30T11:51:35.000Z</time>
      </trkpt>
      <trkpt lat="44.10966" lon="7.06891">
        <ele>1564.4000244141</ele>
        <time>2020-07-30T11:51:36.000Z</time>
      </trkpt>
      <trkpt lat="44.10969" lon="7.06905">
        <ele>1562.4000244141</ele>
        <time>2020-07-30T11:51:38.000Z</time>
      </trkpt>
      <trkpt lat="44.10969" lon="7.06906">
        <ele>1563.1999511719</ele>
        <time>2020-07-30T11:51:39.000Z</time>
      </trkpt>
      <trkpt lat="44.10969" lon="7.06907">
        <ele>1562.4000244141</ele>
        <time>2020-07-30T11:51:44.000Z</time>
      </trkpt>
      <trkpt lat="44.1097" lon="7.0691">
        <ele>1562.5999755859</ele>
        <time>2020-07-30T11:51:51.000Z</time>
      </trkpt>
      <trkpt lat="44.10971" lon="7.06913">
        <ele>1562.4000244141</ele>
        <time>2020-07-30T11:51:56.000Z</time>
      </trkpt>
      <trkpt lat="44.10973" lon="7.06916">
        <ele>1562</ele>
        <time>2020-07-30T11:52:00.000Z</time>
      </trkpt>
      <trkpt lat="44.10973" lon="7.06917">
        <ele>1561.5999755859</ele>
        <time>2020-07-30T11:52:01.000Z</time>
      </trkpt>
      <trkpt lat="44.10974" lon="7.06919">
        <ele>1561.4000244141</ele>
        <time>2020-07-30T11:52:02.000Z</time>
      </trkpt>
      <trkpt lat="44.10974" lon="7.0692">
        <ele>1560.5999755859</ele>
        <time>2020-07-30T11:52:06.000Z</time>
      </trkpt>
      <trkpt lat="44.10974" lon="7.06921">
        <ele>1560.1999511719</ele>
        <time>2020-07-30T11:52:09.000Z</time>
      </trkpt>
      <trkpt lat="44.10975" lon="7.06926">
        <ele>1560.5999755859</ele>
        <time>2020-07-30T11:52:17.000Z</time>
      </trkpt>
      <trkpt lat="44.10979" lon="7.06941">
        <ele>1559.5999755859</ele>
        <time>2020-07-30T11:52:20.000Z</time>
      </trkpt>
      <trkpt lat="44.10982" lon="7.06948">
        <ele>1559.1999511719</ele>
        <time>2020-07-30T11:52:21.000Z</time>
      </trkpt>
      <trkpt lat="44.10987" lon="7.06962">
        <ele>1558</ele>
        <time>2020-07-30T11:52:23.000Z</time>
      </trkpt>
      <trkpt lat="44.1099" lon="7.06969">
        <ele>1556.5999755859</ele>
        <time>2020-07-30T11:52:24.000Z</time>
      </trkpt>
      <trkpt lat="44.10991" lon="7.06977">
        <ele>1555.4000244141</ele>
        <time>2020-07-30T11:52:25.000Z</time>
      </trkpt>
      <trkpt lat="44.10991" lon="7.06985">
        <ele>1553.5999755859</ele>
        <time>2020-07-30T11:52:26.000Z</time>
      </trkpt>
      <trkpt lat="44.10991" lon="7.06993">
        <ele>1552.4000244141</ele>
        <time>2020-07-30T11:52:27.000Z</time>
      </trkpt>
      <trkpt lat="44.10991" lon="7.07001">
        <ele>1551.1999511719</ele>
        <time>2020-07-30T11:52:28.000Z</time>
      </trkpt>
      <trkpt lat="44.10991" lon="7.07014">
        <ele>1548.8000488281</ele>
        <time>2020-07-30T11:52:30.000Z</time>
      </trkpt>
      <trkpt lat="44.10992" lon="7.07024">
        <ele>1547.4000244141</ele>
        <time>2020-07-30T11:52:32.000Z</time>
      </trkpt>
      <trkpt lat="44.10991" lon="7.07031">
        <ele>1546.1999511719</ele>
        <time>2020-07-30T11:52:33.000Z</time>
      </trkpt>
      <trkpt lat="44.10991" lon="7.07036">
        <ele>1545</ele>
        <time>2020-07-30T11:52:34.000Z</time>
      </trkpt>
      <trkpt lat="44.10994" lon="7.0704">
        <ele>1543.5999755859</ele>
        <time>2020-07-30T11:52:35.000Z</time>
      </trkpt>
      <trkpt lat="44.10999" lon="7.07051">
        <ele>1542.1999511719</ele>
        <time>2020-07-30T11:52:37.000Z</time>
      </trkpt>
      <trkpt lat="44.10997" lon="7.07057">
        <ele>1541.1999511719</ele>
        <time>2020-07-30T11:52:38.000Z</time>
      </trkpt>
      <trkpt lat="44.10995" lon="7.07062">
        <ele>1540.4000244141</ele>
        <time>2020-07-30T11:52:39.000Z</time>
      </trkpt>
      <trkpt lat="44.10996" lon="7.07072">
        <ele>1538.5999755859</ele>
        <time>2020-07-30T11:52:41.000Z</time>
      </trkpt>
      <trkpt lat="44.10999" lon="7.07074">
        <ele>1537.8000488281</ele>
        <time>2020-07-30T11:52:42.000Z</time>
      </trkpt>
      <trkpt lat="44.11003" lon="7.07075">
        <ele>1537.1999511719</ele>
        <time>2020-07-30T11:52:43.000Z</time>
      </trkpt>
      <trkpt lat="44.11005" lon="7.07084">
        <ele>1535.4000244141</ele>
        <time>2020-07-30T11:52:45.000Z</time>
      </trkpt>
      <trkpt lat="44.10998" lon="7.0709">
        <ele>1534.4000244141</ele>
        <time>2020-07-30T11:52:47.000Z</time>
      </trkpt>
      <trkpt lat="44.10994" lon="7.07094">
        <ele>1533.5999755859</ele>
        <time>2020-07-30T11:52:48.000Z</time>
      </trkpt>
      <trkpt lat="44.1099" lon="7.07097">
        <ele>1532.8000488281</ele>
        <time>2020-07-30T11:52:49.000Z</time>
      </trkpt>
      <trkpt lat="44.10985" lon="7.07101">
        <ele>1532.1999511719</ele>
        <time>2020-07-30T11:52:50.000Z</time>
      </trkpt>
      <trkpt lat="44.10979" lon="7.07105">
        <ele>1531</ele>
        <time>2020-07-30T11:52:51.000Z</time>
      </trkpt>
      <trkpt lat="44.10973" lon="7.07108">
        <ele>1530.1999511719</ele>
        <time>2020-07-30T11:52:52.000Z</time>
      </trkpt>
      <trkpt lat="44.10969" lon="7.0711">
        <ele>1528</ele>
        <time>2020-07-30T11:52:53.000Z</time>
      </trkpt>
      <trkpt lat="44.10964" lon="7.07114">
        <ele>1527</ele>
        <time>2020-07-30T11:52:54.000Z</time>
      </trkpt>
      <trkpt lat="44.1096" lon="7.07119">
        <ele>1525.5999755859</ele>
        <time>2020-07-30T11:52:55.000Z</time>
      </trkpt>
      <trkpt lat="44.10957" lon="7.07124">
        <ele>1524.4000244141</ele>
        <time>2020-07-30T11:52:56.000Z</time>
      </trkpt>
      <trkpt lat="44.10952" lon="7.07127">
        <ele>1523.4000244141</ele>
        <time>2020-07-30T11:52:57.000Z</time>
      </trkpt>
      <trkpt lat="44.10948" lon="7.0713">
        <ele>1522.1999511719</ele>
        <time>2020-07-30T11:52:58.000Z</time>
      </trkpt>
      <trkpt lat="44.10943" lon="7.07133">
        <ele>1520.5999755859</ele>
        <time>2020-07-30T11:52:59.000Z</time>
      </trkpt>
      <trkpt lat="44.10938" lon="7.07139">
        <ele>1519.8000488281</ele>
        <time>2020-07-30T11:53:00.000Z</time>
      </trkpt>
      <trkpt lat="44.10934" lon="7.07142">
        <ele>1519</ele>
        <time>2020-07-30T11:53:01.000Z</time>
      </trkpt>
      <trkpt lat="44.1093" lon="7.07147">
        <ele>1517.4000244141</ele>
        <time>2020-07-30T11:53:02.000Z</time>
      </trkpt>
      <trkpt lat="44.10926" lon="7.07151">
        <ele>1516</ele>
        <time>2020-07-30T11:53:03.000Z</time>
      </trkpt>
      <trkpt lat="44.10922" lon="7.07156">
        <ele>1514.8000488281</ele>
        <time>2020-07-30T11:53:04.000Z</time>
      </trkpt>
      <trkpt lat="44.10918" lon="7.0716">
        <ele>1513.8000488281</ele>
        <time>2020-07-30T11:53:05.000Z</time>
      </trkpt>
      <trkpt lat="44.10913" lon="7.07162">
        <ele>1512</ele>
        <time>2020-07-30T11:53:06.000Z</time>
      </trkpt>
      <trkpt lat="44.10906" lon="7.07167">
        <ele>1510.1999511719</ele>
        <time>2020-07-30T11:53:08.000Z</time>
      </trkpt>
      <trkpt lat="44.10903" lon="7.07172">
        <ele>1509.4000244141</ele>
        <time>2020-07-30T11:53:09.000Z</time>
      </trkpt>
      <trkpt lat="44.109" lon="7.07174">
        <ele>1508.1999511719</ele>
        <time>2020-07-30T11:53:10.000Z</time>
      </trkpt>
      <trkpt lat="44.109" lon="7.07174">
        <ele>1507.4000244141</ele>
        <time>2020-07-30T11:53:11.000Z</time>
      </trkpt>
      <trkpt lat="44.10899" lon="7.07175">
        <ele>1506.5999755859</ele>
        <time>2020-07-30T11:53:12.000Z</time>
      </trkpt>
      <trkpt lat="44.10899" lon="7.07174">
        <ele>1505.5999755859</ele>
        <time>2020-07-30T11:53:14.000Z</time>
      </trkpt>
      <trkpt lat="44.10898" lon="7.07176">
        <ele>1505.5999755859</ele>
        <time>2020-07-30T11:53:15.000Z</time>
      </trkpt>
      <trkpt lat="44.10898" lon="7.07177">
        <ele>1504.5999755859</ele>
        <time>2020-07-30T11:53:21.000Z</time>
      </trkpt>
      <trkpt lat="44.10896" lon="7.07181">
        <ele>1504.5999755859</ele>
        <time>2020-07-30T11:53:28.000Z</time>
      </trkpt>
      <trkpt lat="44.10888" lon="7.07189">
        <ele>1504.8000488281</ele>
        <time>2020-07-30T11:53:32.000Z</time>
      </trkpt>
      <trkpt lat="44.10872" lon="7.07211">
        <ele>1503.4000244141</ele>
        <time>2020-07-30T11:53:36.000Z</time>
      </trkpt>
      <trkpt lat="44.10867" lon="7.07226">
        <ele>1502.1999511719</ele>
        <time>2020-07-30T11:53:38.000Z</time>
      </trkpt>
      <trkpt lat="44.10864" lon="7.07234">
        <ele>1500.4000244141</ele>
        <time>2020-07-30T11:53:39.000Z</time>
      </trkpt>
      <trkpt lat="44.10862" lon="7.07242">
        <ele>1499.1999511719</ele>
        <time>2020-07-30T11:53:40.000Z</time>
      </trkpt>
      <trkpt lat="44.10861" lon="7.0725">
        <ele>1498</ele>
        <time>2020-07-30T11:53:41.000Z</time>
      </trkpt>
      <trkpt lat="44.1086" lon="7.0726">
        <ele>1496.1999511719</ele>
        <time>2020-07-30T11:53:42.000Z</time>
      </trkpt>
      <trkpt lat="44.10857" lon="7.07271">
        <ele>1494.5999755859</ele>
        <time>2020-07-30T11:53:43.000Z</time>
      </trkpt>
      <trkpt lat="44.10855" lon="7.07279">
        <ele>1494.1999511719</ele>
        <time>2020-07-30T11:53:44.000Z</time>
      </trkpt>
      <trkpt lat="44.10852" lon="7.07289">
        <ele>1493</ele>
        <time>2020-07-30T11:53:45.000Z</time>
      </trkpt>
      <trkpt lat="44.1085" lon="7.07298">
        <ele>1491.5999755859</ele>
        <time>2020-07-30T11:53:46.000Z</time>
      </trkpt>
      <trkpt lat="44.10847" lon="7.07305">
        <ele>1490.1999511719</ele>
        <time>2020-07-30T11:53:47.000Z</time>
      </trkpt>
      <trkpt lat="44.10843" lon="7.07324">
        <ele>1487.4000244141</ele>
        <time>2020-07-30T11:53:49.000Z</time>
      </trkpt>
      <trkpt lat="44.1084" lon="7.07334">
        <ele>1486.1999511719</ele>
        <time>2020-07-30T11:53:50.000Z</time>
      </trkpt>
      <trkpt lat="44.10839" lon="7.07343">
        <ele>1485</ele>
        <time>2020-07-30T11:53:51.000Z</time>
      </trkpt>
      <trkpt lat="44.10833" lon="7.07362">
        <ele>1482.5999755859</ele>
        <time>2020-07-30T11:53:53.000Z</time>
      </trkpt>
      <trkpt lat="44.10831" lon="7.07371">
        <ele>1481.4000244141</ele>
        <time>2020-07-30T11:53:54.000Z</time>
      </trkpt>
      <trkpt lat="44.10828" lon="7.07377">
        <ele>1480.1999511719</ele>
        <time>2020-07-30T11:53:55.000Z</time>
      </trkpt>
      <trkpt lat="44.10826" lon="7.07384">
        <ele>1478.8000488281</ele>
        <time>2020-07-30T11:53:56.000Z</time>
      </trkpt>
      <trkpt lat="44.10824" lon="7.0739">
        <ele>1477.4000244141</ele>
        <time>2020-07-30T11:53:57.000Z</time>
      </trkpt>
      <trkpt lat="44.10821" lon="7.07397">
        <ele>1476.4000244141</ele>
        <time>2020-07-30T11:53:58.000Z</time>
      </trkpt>
      <trkpt lat="44.10815" lon="7.0741">
        <ele>1473.8000488281</ele>
        <time>2020-07-30T11:54:00.000Z</time>
      </trkpt>
      <trkpt lat="44.10812" lon="7.07417">
        <ele>1472.1999511719</ele>
        <time>2020-07-30T11:54:01.000Z</time>
      </trkpt>
      <trkpt lat="44.10808" lon="7.07424">
        <ele>1471</ele>
        <time>2020-07-30T11:54:02.000Z</time>
      </trkpt>
      <trkpt lat="44.10805" lon="7.07431">
        <ele>1469.1999511719</ele>
        <time>2020-07-30T11:54:03.000Z</time>
      </trkpt>
      <trkpt lat="44.10803" lon="7.07438">
        <ele>1467.4000244141</ele>
        <time>2020-07-30T11:54:04.000Z</time>
      </trkpt>
      <trkpt lat="44.10801" lon="7.07444">
        <ele>1466</ele>
        <time>2020-07-30T11:54:05.000Z</time>
      </trkpt>
      <trkpt lat="44.10799" lon="7.07451">
        <ele>1465</ele>
        <time>2020-07-30T11:54:06.000Z</time>
      </trkpt>
      <trkpt lat="44.10796" lon="7.07458">
        <ele>1463.1999511719</ele>
        <time>2020-07-30T11:54:07.000Z</time>
      </trkpt>
      <trkpt lat="44.10791" lon="7.07472">
        <ele>1462</ele>
        <time>2020-07-30T11:54:09.000Z</time>
      </trkpt>
      <trkpt lat="44.10787" lon="7.07478">
        <ele>1460.1999511719</ele>
        <time>2020-07-30T11:54:10.000Z</time>
      </trkpt>
      <trkpt lat="44.10784" lon="7.07485">
        <ele>1459</ele>
        <time>2020-07-30T11:54:11.000Z</time>
      </trkpt>
      <trkpt lat="44.10782" lon="7.0749">
        <ele>1458</ele>
        <time>2020-07-30T11:54:12.000Z</time>
      </trkpt>
      <trkpt lat="44.10781" lon="7.0749">
        <ele>1456.4000244141</ele>
        <time>2020-07-30T11:54:13.000Z</time>
      </trkpt>
      <trkpt lat="44.10782" lon="7.07489">
        <ele>1455.1999511719</ele>
        <time>2020-07-30T11:54:14.000Z</time>
      </trkpt>
      <trkpt lat="44.10781" lon="7.07492">
        <ele>1455</ele>
        <time>2020-07-30T11:54:18.000Z</time>
      </trkpt>
      <trkpt lat="44.1078" lon="7.07496">
        <ele>1455.4000244141</ele>
        <time>2020-07-30T11:54:19.000Z</time>
      </trkpt>
      <trkpt lat="44.10776" lon="7.07508">
        <ele>1455</ele>
        <time>2020-07-30T11:54:21.000Z</time>
      </trkpt>
      <trkpt lat="44.10773" lon="7.07517">
        <ele>1454.4000244141</ele>
        <time>2020-07-30T11:54:22.000Z</time>
      </trkpt>
      <trkpt lat="44.10771" lon="7.07525">
        <ele>1453.5999755859</ele>
        <time>2020-07-30T11:54:23.000Z</time>
      </trkpt>
      <trkpt lat="44.10765" lon="7.07541">
        <ele>1452</ele>
        <time>2020-07-30T11:54:25.000Z</time>
      </trkpt>
      <trkpt lat="44.10762" lon="7.07549">
        <ele>1450.8000488281</ele>
        <time>2020-07-30T11:54:26.000Z</time>
      </trkpt>
      <trkpt lat="44.10759" lon="7.07558">
        <ele>1449.5999755859</ele>
        <time>2020-07-30T11:54:27.000Z</time>
      </trkpt>
      <trkpt lat="44.10755" lon="7.07565">
        <ele>1448.8000488281</ele>
        <time>2020-07-30T11:54:28.000Z</time>
      </trkpt>
      <trkpt lat="44.10752" lon="7.07571">
        <ele>1447.1999511719</ele>
        <time>2020-07-30T11:54:29.000Z</time>
      </trkpt>
      <trkpt lat="44.1075" lon="7.07579">
        <ele>1446.5999755859</ele>
        <time>2020-07-30T11:54:30.000Z</time>
      </trkpt>
      <trkpt lat="44.10748" lon="7.07594">
        <ele>1445.5999755859</ele>
        <time>2020-07-30T11:54:32.000Z</time>
      </trkpt>
      <trkpt lat="44.10745" lon="7.07613">
        <ele>1444.1999511719</ele>
        <time>2020-07-30T11:54:34.000Z</time>
      </trkpt>
      <trkpt lat="44.10742" lon="7.07621">
        <ele>1442.4000244141</ele>
        <time>2020-07-30T11:54:35.000Z</time>
      </trkpt>
      <trkpt lat="44.1074" lon="7.0763">
        <ele>1440.8000488281</ele>
        <time>2020-07-30T11:54:36.000Z</time>
      </trkpt>
      <trkpt lat="44.10738" lon="7.0764">
        <ele>1439.5999755859</ele>
        <time>2020-07-30T11:54:37.000Z</time>
      </trkpt>
      <trkpt lat="44.10734" lon="7.07649">
        <ele>1438.4000244141</ele>
        <time>2020-07-30T11:54:38.000Z</time>
      </trkpt>
      <trkpt lat="44.10731" lon="7.07658">
        <ele>1437.4000244141</ele>
        <time>2020-07-30T11:54:39.000Z</time>
      </trkpt>
      <trkpt lat="44.10727" lon="7.07667">
        <ele>1436.4000244141</ele>
        <time>2020-07-30T11:54:40.000Z</time>
      </trkpt>
      <trkpt lat="44.10724" lon="7.07674">
        <ele>1435</ele>
        <time>2020-07-30T11:54:41.000Z</time>
      </trkpt>
      <trkpt lat="44.1072" lon="7.07681">
        <ele>1434</ele>
        <time>2020-07-30T11:54:42.000Z</time>
      </trkpt>
      <trkpt lat="44.10719" lon="7.07688">
        <ele>1433</ele>
        <time>2020-07-30T11:54:43.000Z</time>
      </trkpt>
      <trkpt lat="44.10717" lon="7.07695">
        <ele>1431.5999755859</ele>
        <time>2020-07-30T11:54:44.000Z</time>
      </trkpt>
      <trkpt lat="44.10715" lon="7.07704">
        <ele>1430.5999755859</ele>
        <time>2020-07-30T11:54:45.000Z</time>
      </trkpt>
      <trkpt lat="44.10711" lon="7.07712">
        <ele>1430</ele>
        <time>2020-07-30T11:54:46.000Z</time>
      </trkpt>
      <trkpt lat="44.10708" lon="7.0772">
        <ele>1429.4000244141</ele>
        <time>2020-07-30T11:54:47.000Z</time>
      </trkpt>
      <trkpt lat="44.10706" lon="7.0773">
        <ele>1428.5999755859</ele>
        <time>2020-07-30T11:54:48.000Z</time>
      </trkpt>
      <trkpt lat="44.10706" lon="7.07738">
        <ele>1428.1999511719</ele>
        <time>2020-07-30T11:54:49.000Z</time>
      </trkpt>
      <trkpt lat="44.1071" lon="7.07747">
        <ele>1427</ele>
        <time>2020-07-30T11:54:50.000Z</time>
      </trkpt>
      <trkpt lat="44.10713" lon="7.07754">
        <ele>1426.1999511719</ele>
        <time>2020-07-30T11:54:51.000Z</time>
      </trkpt>
      <trkpt lat="44.10714" lon="7.07762">
        <ele>1425.5999755859</ele>
        <time>2020-07-30T11:54:52.000Z</time>
      </trkpt>
      <trkpt lat="44.10715" lon="7.07769">
        <ele>1424.5999755859</ele>
        <time>2020-07-30T11:54:53.000Z</time>
      </trkpt>
      <trkpt lat="44.10715" lon="7.07776">
        <ele>1423.8000488281</ele>
        <time>2020-07-30T11:54:54.000Z</time>
      </trkpt>
      <trkpt lat="44.10708" lon="7.07808">
        <ele>1422.4000244141</ele>
        <time>2020-07-30T11:54:58.000Z</time>
      </trkpt>
      <trkpt lat="44.10703" lon="7.07823">
        <ele>1421.5999755859</ele>
        <time>2020-07-30T11:55:00.000Z</time>
      </trkpt>
      <trkpt lat="44.107" lon="7.07832">
        <ele>1420.8000488281</ele>
        <time>2020-07-30T11:55:01.000Z</time>
      </trkpt>
      <trkpt lat="44.10695" lon="7.07848">
        <ele>1420.1999511719</ele>
        <time>2020-07-30T11:55:03.000Z</time>
      </trkpt>
      <trkpt lat="44.10693" lon="7.07855">
        <ele>1419.4000244141</ele>
        <time>2020-07-30T11:55:04.000Z</time>
      </trkpt>
      <trkpt lat="44.10689" lon="7.07862">
        <ele>1419.1999511719</ele>
        <time>2020-07-30T11:55:05.000Z</time>
      </trkpt>
      <trkpt lat="44.10684" lon="7.07877">
        <ele>1418.5999755859</ele>
        <time>2020-07-30T11:55:07.000Z</time>
      </trkpt>
      <trkpt lat="44.10682" lon="7.07885">
        <ele>1418.4000244141</ele>
        <time>2020-07-30T11:55:08.000Z</time>
      </trkpt>
      <trkpt lat="44.10681" lon="7.07893">
        <ele>1418.1999511719</ele>
        <time>2020-07-30T11:55:09.000Z</time>
      </trkpt>
      <trkpt lat="44.10675" lon="7.07913">
        <ele>1417</ele>
        <time>2020-07-30T11:55:11.000Z</time>
      </trkpt>
      <trkpt lat="44.10667" lon="7.07932">
        <ele>1415.1999511719</ele>
        <time>2020-07-30T11:55:13.000Z</time>
      </trkpt>
      <trkpt lat="44.1066" lon="7.07951">
        <ele>1414</ele>
        <time>2020-07-30T11:55:15.000Z</time>
      </trkpt>
      <trkpt lat="44.10655" lon="7.07967">
        <ele>1413.8000488281</ele>
        <time>2020-07-30T11:55:17.000Z</time>
      </trkpt>
      <trkpt lat="44.1065" lon="7.07985">
        <ele>1412.5999755859</ele>
        <time>2020-07-30T11:55:19.000Z</time>
      </trkpt>
      <trkpt lat="44.10648" lon="7.07992">
        <ele>1411.8000488281</ele>
        <time>2020-07-30T11:55:21.000Z</time>
      </trkpt>
      <trkpt lat="44.10647" lon="7.07995">
        <ele>1410.5999755859</ele>
        <time>2020-07-30T11:55:22.000Z</time>
      </trkpt>
      <trkpt lat="44.10646" lon="7.08001">
        <ele>1409.4000244141</ele>
        <time>2020-07-30T11:55:24.000Z</time>
      </trkpt>
      <trkpt lat="44.10644" lon="7.08007">
        <ele>1408.8000488281</ele>
        <time>2020-07-30T11:55:25.000Z</time>
      </trkpt>
      <trkpt lat="44.10641" lon="7.08012">
        <ele>1408.4000244141</ele>
        <time>2020-07-30T11:55:26.000Z</time>
      </trkpt>
      <trkpt lat="44.10639" lon="7.08018">
        <ele>1408.1999511719</ele>
        <time>2020-07-30T11:55:27.000Z</time>
      </trkpt>
      <trkpt lat="44.10637" lon="7.08025">
        <ele>1408.4000244141</ele>
        <time>2020-07-30T11:55:28.000Z</time>
      </trkpt>
      <trkpt lat="44.10626" lon="7.08056">
        <ele>1406.8000488281</ele>
        <time>2020-07-30T11:55:32.000Z</time>
      </trkpt>
      <trkpt lat="44.1062" lon="7.08071">
        <ele>1405</ele>
        <time>2020-07-30T11:55:34.000Z</time>
      </trkpt>
      <trkpt lat="44.10616" lon="7.08088">
        <ele>1403.4000244141</ele>
        <time>2020-07-30T11:55:36.000Z</time>
      </trkpt>
      <trkpt lat="44.10609" lon="7.08099">
        <ele>1401.8000488281</ele>
        <time>2020-07-30T11:55:38.000Z</time>
      </trkpt>
      <trkpt lat="44.10607" lon="7.08106">
        <ele>1401.1999511719</ele>
        <time>2020-07-30T11:55:39.000Z</time>
      </trkpt>
      <trkpt lat="44.10606" lon="7.08115">
        <ele>1400.5999755859</ele>
        <time>2020-07-30T11:55:40.000Z</time>
      </trkpt>
      <trkpt lat="44.10599" lon="7.08142">
        <ele>1399.4000244141</ele>
        <time>2020-07-30T11:55:43.000Z</time>
      </trkpt>
      <trkpt lat="44.10592" lon="7.08158">
        <ele>1397.8000488281</ele>
        <time>2020-07-30T11:55:45.000Z</time>
      </trkpt>
      <trkpt lat="44.10588" lon="7.08163">
        <ele>1396.1999511719</ele>
        <time>2020-07-30T11:55:46.000Z</time>
      </trkpt>
      <trkpt lat="44.10583" lon="7.08174">
        <ele>1394.8000488281</ele>
        <time>2020-07-30T11:55:48.000Z</time>
      </trkpt>
      <trkpt lat="44.10581" lon="7.0818">
        <ele>1394.1999511719</ele>
        <time>2020-07-30T11:55:49.000Z</time>
      </trkpt>
      <trkpt lat="44.10578" lon="7.08189">
        <ele>1394</ele>
        <time>2020-07-30T11:55:50.000Z</time>
      </trkpt>
      <trkpt lat="44.10575" lon="7.08196">
        <ele>1393</ele>
        <time>2020-07-30T11:55:51.000Z</time>
      </trkpt>
      <trkpt lat="44.1057" lon="7.08211">
        <ele>1392</ele>
        <time>2020-07-30T11:55:53.000Z</time>
      </trkpt>
      <trkpt lat="44.10569" lon="7.08217">
        <ele>1391.1999511719</ele>
        <time>2020-07-30T11:55:54.000Z</time>
      </trkpt>
      <trkpt lat="44.10567" lon="7.08223">
        <ele>1390.4000244141</ele>
        <time>2020-07-30T11:55:55.000Z</time>
      </trkpt>
      <trkpt lat="44.10565" lon="7.08228">
        <ele>1389.4000244141</ele>
        <time>2020-07-30T11:55:56.000Z</time>
      </trkpt>
      <trkpt lat="44.10563" lon="7.08233">
        <ele>1388.4000244141</ele>
        <time>2020-07-30T11:55:57.000Z</time>
      </trkpt>
      <trkpt lat="44.1056" lon="7.0824">
        <ele>1387.4000244141</ele>
        <time>2020-07-30T11:55:58.000Z</time>
      </trkpt>
      <trkpt lat="44.10553" lon="7.08256">
        <ele>1386.4000244141</ele>
        <time>2020-07-30T11:56:00.000Z</time>
      </trkpt>
      <trkpt lat="44.10549" lon="7.08262">
        <ele>1385.8000488281</ele>
        <time>2020-07-30T11:56:01.000Z</time>
      </trkpt>
      <trkpt lat="44.10547" lon="7.08267">
        <ele>1385</ele>
        <time>2020-07-30T11:56:02.000Z</time>
      </trkpt>
      <trkpt lat="44.10546" lon="7.08273">
        <ele>1384.8000488281</ele>
        <time>2020-07-30T11:56:03.000Z</time>
      </trkpt>
      <trkpt lat="44.10545" lon="7.08277">
        <ele>1384</ele>
        <time>2020-07-30T11:56:04.000Z</time>
      </trkpt>
      <trkpt lat="44.10545" lon="7.0828">
        <ele>1383</ele>
        <time>2020-07-30T11:56:05.000Z</time>
      </trkpt>
      <trkpt lat="44.10545" lon="7.08279">
        <ele>1382</ele>
        <time>2020-07-30T11:56:07.000Z</time>
      </trkpt>
      <trkpt lat="44.10545" lon="7.08279">
        <ele>1380.8000488281</ele>
        <time>2020-07-30T11:56:09.000Z</time>
      </trkpt>
      <trkpt lat="44.10545" lon="7.08281">
        <ele>1380.1999511719</ele>
        <time>2020-07-30T11:56:17.000Z</time>
      </trkpt>
      <trkpt lat="44.10546" lon="7.08279">
        <ele>1380</ele>
        <time>2020-07-30T11:56:21.000Z</time>
      </trkpt>
      <trkpt lat="44.10548" lon="7.08277">
        <ele>1380.1999511719</ele>
        <time>2020-07-30T11:56:23.000Z</time>
      </trkpt>
      <trkpt lat="44.1055" lon="7.08274">
        <ele>1380.4000244141</ele>
        <time>2020-07-30T11:56:25.000Z</time>
      </trkpt>
      <trkpt lat="44.10553" lon="7.08268">
        <ele>1380.8000488281</ele>
        <time>2020-07-30T11:56:28.000Z</time>
      </trkpt>
      <trkpt lat="44.10558" lon="7.0826">
        <ele>1381.8000488281</ele>
        <time>2020-07-30T11:56:32.000Z</time>
      </trkpt>
      <trkpt lat="44.10559" lon="7.08259">
        <ele>1382</ele>
        <time>2020-07-30T11:56:33.000Z</time>
      </trkpt>
      <trkpt lat="44.10561" lon="7.08254">
        <ele>1382.4000244141</ele>
        <time>2020-07-30T11:56:35.000Z</time>
      </trkpt>
      <trkpt lat="44.10563" lon="7.08249">
        <ele>1382.8000488281</ele>
        <time>2020-07-30T11:56:37.000Z</time>
      </trkpt>
      <trkpt lat="44.10565" lon="7.08247">
        <ele>1383</ele>
        <time>2020-07-30T11:56:38.000Z</time>
      </trkpt>
      <trkpt lat="44.1057" lon="7.08238">
        <ele>1383.8000488281</ele>
        <time>2020-07-30T11:56:42.000Z</time>
      </trkpt>
      <trkpt lat="44.10574" lon="7.08232">
        <ele>1384.1999511719</ele>
        <time>2020-07-30T11:56:45.000Z</time>
      </trkpt>
      <trkpt lat="44.10577" lon="7.08223">
        <ele>1385</ele>
        <time>2020-07-30T11:56:48.000Z</time>
      </trkpt>
      <trkpt lat="44.10579" lon="7.08215">
        <ele>1385.4000244141</ele>
        <time>2020-07-30T11:56:51.000Z</time>
      </trkpt>
      <trkpt lat="44.10583" lon="7.08205">
        <ele>1386.1999511719</ele>
        <time>2020-07-30T11:56:55.000Z</time>
      </trkpt>
      <trkpt lat="44.10584" lon="7.08203">
        <ele>1386.4000244141</ele>
        <time>2020-07-30T11:56:56.000Z</time>
      </trkpt>
      <trkpt lat="44.10589" lon="7.08195">
        <ele>1387.1999511719</ele>
        <time>2020-07-30T11:57:00.000Z</time>
      </trkpt>
      <trkpt lat="44.10591" lon="7.08193">
        <ele>1387.4000244141</ele>
        <time>2020-07-30T11:57:01.000Z</time>
      </trkpt>
      <trkpt lat="44.10595" lon="7.0818">
        <ele>1388.4000244141</ele>
        <time>2020-07-30T11:57:06.000Z</time>
      </trkpt>
      <trkpt lat="44.10599" lon="7.08171">
        <ele>1389.1999511719</ele>
        <time>2020-07-30T11:57:10.000Z</time>
      </trkpt>
      <trkpt lat="44.106" lon="7.08169">
        <ele>1389.4000244141</ele>
        <time>2020-07-30T11:57:11.000Z</time>
      </trkpt>
      <trkpt lat="44.10601" lon="7.08165">
        <ele>1389.8000488281</ele>
        <time>2020-07-30T11:57:12.000Z</time>
      </trkpt>
      <trkpt lat="44.10604" lon="7.08156">
        <ele>1390.5999755859</ele>
        <time>2020-07-30T11:57:15.000Z</time>
      </trkpt>
      <trkpt lat="44.10605" lon="7.08153">
        <ele>1390.5999755859</ele>
        <time>2020-07-30T11:57:16.000Z</time>
      </trkpt>
      <trkpt lat="44.10607" lon="7.08147">
        <ele>1390.5999755859</ele>
        <time>2020-07-30T11:57:18.000Z</time>
      </trkpt>
      <trkpt lat="44.10615" lon="7.08126">
        <ele>1391.5999755859</ele>
        <time>2020-07-30T11:57:25.000Z</time>
      </trkpt>
      <trkpt lat="44.10624" lon="7.08106">
        <ele>1392.5999755859</ele>
        <time>2020-07-30T11:57:32.000Z</time>
      </trkpt>
      <trkpt lat="44.10634" lon="7.08088">
        <ele>1393.4000244141</ele>
        <time>2020-07-30T11:57:39.000Z</time>
      </trkpt>
      <trkpt lat="44.10639" lon="7.08079">
        <ele>1393.8000488281</ele>
        <time>2020-07-30T11:57:42.000Z</time>
      </trkpt>
      <trkpt lat="44.10641" lon="7.08073">
        <ele>1394</ele>
        <time>2020-07-30T11:57:44.000Z</time>
      </trkpt>
      <trkpt lat="44.1065" lon="7.08055">
        <ele>1394.4000244141</ele>
        <time>2020-07-30T11:57:50.000Z</time>
      </trkpt>
      <trkpt lat="44.10655" lon="7.0804">
        <ele>1394.8000488281</ele>
        <time>2020-07-30T11:57:55.000Z</time>
      </trkpt>
      <trkpt lat="44.10657" lon="7.08034">
        <ele>1394.8000488281</ele>
        <time>2020-07-30T11:57:57.000Z</time>
      </trkpt>
      <trkpt lat="44.10665" lon="7.08017">
        <ele>1395.4000244141</ele>
        <time>2020-07-30T11:58:03.000Z</time>
      </trkpt>
      <trkpt lat="44.10672" lon="7.07994">
        <ele>1395.8000488281</ele>
        <time>2020-07-30T11:58:10.000Z</time>
      </trkpt>
      <trkpt lat="44.10673" lon="7.0799">
        <ele>1396</ele>
        <time>2020-07-30T11:58:11.000Z</time>
      </trkpt>
      <trkpt lat="44.10679" lon="7.07972">
        <ele>1396.4000244141</ele>
        <time>2020-07-30T11:58:17.000Z</time>
      </trkpt>
      <trkpt lat="44.10685" lon="7.07966">
        <ele>1396.8000488281</ele>
        <time>2020-07-30T11:58:20.000Z</time>
      </trkpt>
      <trkpt lat="44.10685" lon="7.07963">
        <ele>1396.8000488281</ele>
        <time>2020-07-30T11:58:21.000Z</time>
      </trkpt>
      <trkpt lat="44.10689" lon="7.07956">
        <ele>1396.5999755859</ele>
        <time>2020-07-30T11:58:24.000Z</time>
      </trkpt>
      <trkpt lat="44.10695" lon="7.07944">
        <ele>1396.1999511719</ele>
        <time>2020-07-30T11:58:28.000Z</time>
      </trkpt>
      <trkpt lat="44.10703" lon="7.07922">
        <ele>1396.4000244141</ele>
        <time>2020-07-30T11:58:35.000Z</time>
      </trkpt>
      <trkpt lat="44.10714" lon="7.079">
        <ele>1396</ele>
        <time>2020-07-30T11:58:42.000Z</time>
      </trkpt>
      <trkpt lat="44.10725" lon="7.07884">
        <ele>1395.8000488281</ele>
        <time>2020-07-30T11:58:48.000Z</time>
      </trkpt>
      <trkpt lat="44.10727" lon="7.07881">
        <ele>1395.8000488281</ele>
        <time>2020-07-30T11:58:49.000Z</time>
      </trkpt>
      <trkpt lat="44.10732" lon="7.07872">
        <ele>1395.8000488281</ele>
        <time>2020-07-30T11:58:52.000Z</time>
      </trkpt>
      <trkpt lat="44.10736" lon="7.0786">
        <ele>1395.5999755859</ele>
        <time>2020-07-30T11:58:55.000Z</time>
      </trkpt>
      <trkpt lat="44.10741" lon="7.07843">
        <ele>1395</ele>
        <time>2020-07-30T11:58:59.000Z</time>
      </trkpt>
      <trkpt lat="44.10743" lon="7.07838">
        <ele>1394.8000488281</ele>
        <time>2020-07-30T11:59:00.000Z</time>
      </trkpt>
      <trkpt lat="44.10749" lon="7.07818">
        <ele>1394.4000244141</ele>
        <time>2020-07-30T11:59:05.000Z</time>
      </trkpt>
      <trkpt lat="44.10752" lon="7.07799">
        <ele>1394.1999511719</ele>
        <time>2020-07-30T11:59:10.000Z</time>
      </trkpt>
      <trkpt lat="44.10755" lon="7.07782">
        <ele>1394</ele>
        <time>2020-07-30T11:59:15.000Z</time>
      </trkpt>
      <trkpt lat="44.10758" lon="7.07771">
        <ele>1394</ele>
        <time>2020-07-30T11:59:18.000Z</time>
      </trkpt>
      <trkpt lat="44.10758" lon="7.07761">
        <ele>1393.8000488281</ele>
        <time>2020-07-30T11:59:20.000Z</time>
      </trkpt>
      <trkpt lat="44.1076" lon="7.07756">
        <ele>1393.8000488281</ele>
        <time>2020-07-30T11:59:21.000Z</time>
      </trkpt>
      <trkpt lat="44.10765" lon="7.07746">
        <ele>1393.4000244141</ele>
        <time>2020-07-30T11:59:23.000Z</time>
      </trkpt>
      <trkpt lat="44.10775" lon="7.07732">
        <ele>1392.8000488281</ele>
        <time>2020-07-30T11:59:26.000Z</time>
      </trkpt>
      <trkpt lat="44.10782" lon="7.07724">
        <ele>1392.1999511719</ele>
        <time>2020-07-30T11:59:28.000Z</time>
      </trkpt>
      <trkpt lat="44.10792" lon="7.07713">
        <ele>1392</ele>
        <time>2020-07-30T11:59:31.000Z</time>
      </trkpt>
      <trkpt lat="44.10802" lon="7.07703">
        <ele>1392</ele>
        <time>2020-07-30T11:59:34.000Z</time>
      </trkpt>
      <trkpt lat="44.10816" lon="7.07681">
        <ele>1392.5999755859</ele>
        <time>2020-07-30T11:59:40.000Z</time>
      </trkpt>
      <trkpt lat="44.10827" lon="7.07662">
        <ele>1393.4000244141</ele>
        <time>2020-07-30T11:59:45.000Z</time>
      </trkpt>
      <trkpt lat="44.10842" lon="7.07644">
        <ele>1393.8000488281</ele>
        <time>2020-07-30T11:59:51.000Z</time>
      </trkpt>
      <trkpt lat="44.10849" lon="7.07637">
        <ele>1393.8000488281</ele>
        <time>2020-07-30T11:59:54.000Z</time>
      </trkpt>
      <trkpt lat="44.10858" lon="7.07626">
        <ele>1394.1999511719</ele>
        <time>2020-07-30T11:59:58.000Z</time>
      </trkpt>
      <trkpt lat="44.10873" lon="7.07605">
        <ele>1394.5999755859</ele>
        <time>2020-07-30T12:00:04.000Z</time>
      </trkpt>
      <trkpt lat="44.10887" lon="7.07582">
        <ele>1394.8000488281</ele>
        <time>2020-07-30T12:00:10.000Z</time>
      </trkpt>
      <trkpt lat="44.10889" lon="7.07578">
        <ele>1395</ele>
        <time>2020-07-30T12:00:11.000Z</time>
      </trkpt>
      <trkpt lat="44.10906" lon="7.07553">
        <ele>1395.4000244141</ele>
        <time>2020-07-30T12:00:18.000Z</time>
      </trkpt>
      <trkpt lat="44.10919" lon="7.07532">
        <ele>1396</ele>
        <time>2020-07-30T12:00:24.000Z</time>
      </trkpt>
      <trkpt lat="44.10922" lon="7.07528">
        <ele>1396.1999511719</ele>
        <time>2020-07-30T12:00:25.000Z</time>
      </trkpt>
      <trkpt lat="44.10938" lon="7.07507">
        <ele>1396.8000488281</ele>
        <time>2020-07-30T12:00:32.000Z</time>
      </trkpt>
      <trkpt lat="44.10939" lon="7.07503">
        <ele>1397</ele>
        <time>2020-07-30T12:00:33.000Z</time>
      </trkpt>
      <trkpt lat="44.10943" lon="7.07498">
        <ele>1397.1999511719</ele>
        <time>2020-07-30T12:00:35.000Z</time>
      </trkpt>
      <trkpt lat="44.10945" lon="7.07495">
        <ele>1397.4000244141</ele>
        <time>2020-07-30T12:00:36.000Z</time>
      </trkpt>
      <trkpt lat="44.10958" lon="7.07478">
        <ele>1398</ele>
        <time>2020-07-30T12:00:42.000Z</time>
      </trkpt>
      <trkpt lat="44.10959" lon="7.07475">
        <ele>1398.1999511719</ele>
        <time>2020-07-30T12:00:43.000Z</time>
      </trkpt>
      <trkpt lat="44.10964" lon="7.07463">
        <ele>1398.8000488281</ele>
        <time>2020-07-30T12:00:47.000Z</time>
      </trkpt>
      <trkpt lat="44.10969" lon="7.07452">
        <ele>1399.4000244141</ele>
        <time>2020-07-30T12:00:51.000Z</time>
      </trkpt>
      <trkpt lat="44.10974" lon="7.07444">
        <ele>1400</ele>
        <time>2020-07-30T12:00:54.000Z</time>
      </trkpt>
      <trkpt lat="44.10978" lon="7.07437">
        <ele>1400.4000244141</ele>
        <time>2020-07-30T12:00:57.000Z</time>
      </trkpt>
      <trkpt lat="44.10984" lon="7.07429">
        <ele>1401.4000244141</ele>
        <time>2020-07-30T12:01:01.000Z</time>
      </trkpt>
      <trkpt lat="44.10986" lon="7.07426">
        <ele>1401.5999755859</ele>
        <time>2020-07-30T12:01:02.000Z</time>
      </trkpt>
      <trkpt lat="44.10992" lon="7.07419">
        <ele>1402</ele>
        <time>2020-07-30T12:01:06.000Z</time>
      </trkpt>
      <trkpt lat="44.10998" lon="7.07414">
        <ele>1402.5999755859</ele>
        <time>2020-07-30T12:01:09.000Z</time>
      </trkpt>
      <trkpt lat="44.11004" lon="7.0741">
        <ele>1403.5999755859</ele>
        <time>2020-07-30T12:01:13.000Z</time>
      </trkpt>
      <trkpt lat="44.11006" lon="7.07409">
        <ele>1403.5999755859</ele>
        <time>2020-07-30T12:01:14.000Z</time>
      </trkpt>
      <trkpt lat="44.11018" lon="7.07407">
        <ele>1404.8000488281</ele>
        <time>2020-07-30T12:01:21.000Z</time>
      </trkpt>
      <trkpt lat="44.1103" lon="7.07406">
        <ele>1405.4000244141</ele>
        <time>2020-07-30T12:01:27.000Z</time>
      </trkpt>
      <trkpt lat="44.11037" lon="7.07404">
        <ele>1405.8000488281</ele>
        <time>2020-07-30T12:01:31.000Z</time>
      </trkpt>
      <trkpt lat="44.11046" lon="7.07403">
        <ele>1406.1999511719</ele>
        <time>2020-07-30T12:01:36.000Z</time>
      </trkpt>
      <trkpt lat="44.11055" lon="7.07403">
        <ele>1407.1999511719</ele>
        <time>2020-07-30T12:01:40.000Z</time>
      </trkpt>
      <trkpt lat="44.11062" lon="7.07403">
        <ele>1407.8000488281</ele>
        <time>2020-07-30T12:01:44.000Z</time>
      </trkpt>
      <trkpt lat="44.11069" lon="7.07404">
        <ele>1408.1999511719</ele>
        <time>2020-07-30T12:01:48.000Z</time>
      </trkpt>
      <trkpt lat="44.11074" lon="7.07404">
        <ele>1408.5999755859</ele>
        <time>2020-07-30T12:01:51.000Z</time>
      </trkpt>
      <trkpt lat="44.11083" lon="7.07404">
        <ele>1409.4000244141</ele>
        <time>2020-07-30T12:01:56.000Z</time>
      </trkpt>
      <trkpt lat="44.11086" lon="7.07405">
        <ele>1409.5999755859</ele>
        <time>2020-07-30T12:01:58.000Z</time>
      </trkpt>
      <trkpt lat="44.11093" lon="7.07407">
        <ele>1410.5999755859</ele>
        <time>2020-07-30T12:02:04.000Z</time>
      </trkpt>
      <trkpt lat="44.11105" lon="7.07406">
        <ele>1411.5999755859</ele>
        <time>2020-07-30T12:02:11.000Z</time>
      </trkpt>
      <trkpt lat="44.11107" lon="7.07407">
        <ele>1411.5999755859</ele>
        <time>2020-07-30T12:02:12.000Z</time>
      </trkpt>
      <trkpt lat="44.1112" lon="7.07408">
        <ele>1412.4000244141</ele>
        <time>2020-07-30T12:02:18.000Z</time>
      </trkpt>
      <trkpt lat="44.11125" lon="7.0741">
        <ele>1412.8000488281</ele>
        <time>2020-07-30T12:02:20.000Z</time>
      </trkpt>
      <trkpt lat="44.11136" lon="7.07413">
        <ele>1413.4000244141</ele>
        <time>2020-07-30T12:02:25.000Z</time>
      </trkpt>
      <trkpt lat="44.11143" lon="7.07417">
        <ele>1413.8000488281</ele>
        <time>2020-07-30T12:02:29.000Z</time>
      </trkpt>
      <trkpt lat="44.11152" lon="7.07421">
        <ele>1414</ele>
        <time>2020-07-30T12:02:33.000Z</time>
      </trkpt>
      <trkpt lat="44.1116" lon="7.07418">
        <ele>1414.1999511719</ele>
        <time>2020-07-30T12:02:37.000Z</time>
      </trkpt>
      <trkpt lat="44.11166" lon="7.07414">
        <ele>1414.8000488281</ele>
        <time>2020-07-30T12:02:41.000Z</time>
      </trkpt>
      <trkpt lat="44.11171" lon="7.07409">
        <ele>1415.1999511719</ele>
        <time>2020-07-30T12:02:44.000Z</time>
      </trkpt>
      <trkpt lat="44.11186" lon="7.074">
        <ele>1415.5999755859</ele>
        <time>2020-07-30T12:02:51.000Z</time>
      </trkpt>
      <trkpt lat="44.11203" lon="7.07389">
        <ele>1415.4000244141</ele>
        <time>2020-07-30T12:02:58.000Z</time>
      </trkpt>
      <trkpt lat="44.11219" lon="7.0737">
        <ele>1415.1999511719</ele>
        <time>2020-07-30T12:03:04.000Z</time>
      </trkpt>
      <trkpt lat="44.11242" lon="7.07335">
        <ele>1414.1999511719</ele>
        <time>2020-07-30T12:03:12.000Z</time>
      </trkpt>
      <trkpt lat="44.11257" lon="7.07315">
        <ele>1413.8000488281</ele>
        <time>2020-07-30T12:03:17.000Z</time>
      </trkpt>
      <trkpt lat="44.11263" lon="7.07306">
        <ele>1413.5999755859</ele>
        <time>2020-07-30T12:03:19.000Z</time>
      </trkpt>
      <trkpt lat="44.11269" lon="7.07297">
        <ele>1413.1999511719</ele>
        <time>2020-07-30T12:03:21.000Z</time>
      </trkpt>
      <trkpt lat="44.11274" lon="7.07287">
        <ele>1412.8000488281</ele>
        <time>2020-07-30T12:03:23.000Z</time>
      </trkpt>
      <trkpt lat="44.11277" lon="7.07282">
        <ele>1412.8000488281</ele>
        <time>2020-07-30T12:03:24.000Z</time>
      </trkpt>
      <trkpt lat="44.11285" lon="7.07279">
        <ele>1412.4000244141</ele>
        <time>2020-07-30T12:03:26.000Z</time>
      </trkpt>
      <trkpt lat="44.11294" lon="7.07268">
        <ele>1411.8000488281</ele>
        <time>2020-07-30T12:03:29.000Z</time>
      </trkpt>
      <trkpt lat="44.11297" lon="7.07263">
        <ele>1411.5999755859</ele>
        <time>2020-07-30T12:03:30.000Z</time>
      </trkpt>
      <trkpt lat="44.113" lon="7.07259">
        <ele>1411.4000244141</ele>
        <time>2020-07-30T12:03:31.000Z</time>
      </trkpt>
      <trkpt lat="44.11304" lon="7.07255">
        <ele>1411.1999511719</ele>
        <time>2020-07-30T12:03:32.000Z</time>
      </trkpt>
      <trkpt lat="44.11308" lon="7.07245">
        <ele>1411</ele>
        <time>2020-07-30T12:03:34.000Z</time>
      </trkpt>
      <trkpt lat="44.11311" lon="7.0724">
        <ele>1410.8000488281</ele>
        <time>2020-07-30T12:03:35.000Z</time>
      </trkpt>
      <trkpt lat="44.11315" lon="7.07237">
        <ele>1410.5999755859</ele>
        <time>2020-07-30T12:03:36.000Z</time>
      </trkpt>
      <trkpt lat="44.11324" lon="7.07238">
        <ele>1410.1999511719</ele>
        <time>2020-07-30T12:03:38.000Z</time>
      </trkpt>
      <trkpt lat="44.11334" lon="7.07246">
        <ele>1409.4000244141</ele>
        <time>2020-07-30T12:03:41.000Z</time>
      </trkpt>
      <trkpt lat="44.11338" lon="7.07248">
        <ele>1409.1999511719</ele>
        <time>2020-07-30T12:03:42.000Z</time>
      </trkpt>
      <trkpt lat="44.11347" lon="7.0725">
        <ele>1408.8000488281</ele>
        <time>2020-07-30T12:03:44.000Z</time>
      </trkpt>
      <trkpt lat="44.11356" lon="7.07251">
        <ele>1408.1999511719</ele>
        <time>2020-07-30T12:03:46.000Z</time>
      </trkpt>
      <trkpt lat="44.1136" lon="7.07251">
        <ele>1408</ele>
        <time>2020-07-30T12:03:47.000Z</time>
      </trkpt>
      <trkpt lat="44.11368" lon="7.07254">
        <ele>1407.8000488281</ele>
        <time>2020-07-30T12:03:49.000Z</time>
      </trkpt>
      <trkpt lat="44.11375" lon="7.0726">
        <ele>1407.5999755859</ele>
        <time>2020-07-30T12:03:51.000Z</time>
      </trkpt>
      <trkpt lat="44.11393" lon="7.07265">
        <ele>1408.1999511719</ele>
        <time>2020-07-30T12:03:56.000Z</time>
      </trkpt>
      <trkpt lat="44.114" lon="7.07255">
        <ele>1408.4000244141</ele>
        <time>2020-07-30T12:03:59.000Z</time>
      </trkpt>
      <trkpt lat="44.11403" lon="7.0725">
        <ele>1408.5999755859</ele>
        <time>2020-07-30T12:04:00.000Z</time>
      </trkpt>
      <trkpt lat="44.11407" lon="7.07242">
        <ele>1408.4000244141</ele>
        <time>2020-07-30T12:04:02.000Z</time>
      </trkpt>
      <trkpt lat="44.11409" lon="7.07237">
        <ele>1408.4000244141</ele>
        <time>2020-07-30T12:04:03.000Z</time>
      </trkpt>
      <trkpt lat="44.11421" lon="7.07209">
        <ele>1407.8000488281</ele>
        <time>2020-07-30T12:04:09.000Z</time>
      </trkpt>
      <trkpt lat="44.11429" lon="7.07173">
        <ele>1407.5999755859</ele>
        <time>2020-07-30T12:04:16.000Z</time>
      </trkpt>
      <trkpt lat="44.11428" lon="7.07169">
        <ele>1407.4000244141</ele>
        <time>2020-07-30T12:04:17.000Z</time>
      </trkpt>
      <trkpt lat="44.11423" lon="7.07157">
        <ele>1407.5999755859</ele>
        <time>2020-07-30T12:04:20.000Z</time>
      </trkpt>
      <trkpt lat="44.11414" lon="7.07133">
        <ele>1407.8000488281</ele>
        <time>2020-07-30T12:04:25.000Z</time>
      </trkpt>
      <trkpt lat="44.11415" lon="7.07114">
        <ele>1407.8000488281</ele>
        <time>2020-07-30T12:04:29.000Z</time>
      </trkpt>
      <trkpt lat="44.1142" lon="7.0709">
        <ele>1407.5999755859</ele>
        <time>2020-07-30T12:04:34.000Z</time>
      </trkpt>
      <trkpt lat="44.11433" lon="7.07075">
        <ele>1407.4000244141</ele>
        <time>2020-07-30T12:04:39.000Z</time>
      </trkpt>
      <trkpt lat="44.11448" lon="7.07069">
        <ele>1407.8000488281</ele>
        <time>2020-07-30T12:04:44.000Z</time>
      </trkpt>
      <trkpt lat="44.11474" lon="7.07054">
        <ele>1408.1999511719</ele>
        <time>2020-07-30T12:04:52.000Z</time>
      </trkpt>
      <trkpt lat="44.11494" lon="7.07035">
        <ele>1408.1999511719</ele>
        <time>2020-07-30T12:04:59.000Z</time>
      </trkpt>
      <trkpt lat="44.11511" lon="7.07013">
        <ele>1408.4000244141</ele>
        <time>2020-07-30T12:05:05.000Z</time>
      </trkpt>
      <trkpt lat="44.11524" lon="7.06988">
        <ele>1408.1999511719</ele>
        <time>2020-07-30T12:05:11.000Z</time>
      </trkpt>
      <trkpt lat="44.11534" lon="7.06961">
        <ele>1408.5999755859</ele>
        <time>2020-07-30T12:05:17.000Z</time>
      </trkpt>
      <trkpt lat="44.11548" lon="7.06938">
        <ele>1409</ele>
        <time>2020-07-30T12:05:23.000Z</time>
      </trkpt>
      <trkpt lat="44.11551" lon="7.06915">
        <ele>1409.1999511719</ele>
        <time>2020-07-30T12:05:28.000Z</time>
      </trkpt>
      <trkpt lat="44.11552" lon="7.06906">
        <ele>1409.1999511719</ele>
        <time>2020-07-30T12:05:30.000Z</time>
      </trkpt>
      <trkpt lat="44.11552" lon="7.06889">
        <ele>1409.1999511719</ele>
        <time>2020-07-30T12:05:34.000Z</time>
      </trkpt>
      <trkpt lat="44.11544" lon="7.06862">
        <ele>1409.5999755859</ele>
        <time>2020-07-30T12:05:40.000Z</time>
      </trkpt>
      <trkpt lat="44.11533" lon="7.06832">
        <ele>1410</ele>
        <time>2020-07-30T12:05:47.000Z</time>
      </trkpt>
      <trkpt lat="44.11523" lon="7.06805">
        <ele>1410.1999511719</ele>
        <time>2020-07-30T12:05:53.000Z</time>
      </trkpt>
      <trkpt lat="44.11523" lon="7.06795">
        <ele>1410</ele>
        <time>2020-07-30T12:05:55.000Z</time>
      </trkpt>
      <trkpt lat="44.11527" lon="7.06785">
        <ele>1409.8000488281</ele>
        <time>2020-07-30T12:05:57.000Z</time>
      </trkpt>
      <trkpt lat="44.11532" lon="7.06779">
        <ele>1409.8000488281</ele>
        <time>2020-07-30T12:05:59.000Z</time>
      </trkpt>
      <trkpt lat="44.11538" lon="7.06773">
        <ele>1410</ele>
        <time>2020-07-30T12:06:01.000Z</time>
      </trkpt>
      <trkpt lat="44.11552" lon="7.06755">
        <ele>1410.4000244141</ele>
        <time>2020-07-30T12:06:07.000Z</time>
      </trkpt>
      <trkpt lat="44.1156" lon="7.06732">
        <ele>1410.1999511719</ele>
        <time>2020-07-30T12:06:12.000Z</time>
      </trkpt>
      <trkpt lat="44.11566" lon="7.06707">
        <ele>1410.5999755859</ele>
        <time>2020-07-30T12:06:18.000Z</time>
      </trkpt>
      <trkpt lat="44.11572" lon="7.06686">
        <ele>1410.8000488281</ele>
        <time>2020-07-30T12:06:23.000Z</time>
      </trkpt>
      <trkpt lat="44.11573" lon="7.06663">
        <ele>1411.1999511719</ele>
        <time>2020-07-30T12:06:28.000Z</time>
      </trkpt>
      <trkpt lat="44.11574" lon="7.06659">
        <ele>1411.4000244141</ele>
        <time>2020-07-30T12:06:29.000Z</time>
      </trkpt>
      <trkpt lat="44.11575" lon="7.06645">
        <ele>1411.4000244141</ele>
        <time>2020-07-30T12:06:32.000Z</time>
      </trkpt>
      <trkpt lat="44.11579" lon="7.06619">
        <ele>1411.8000488281</ele>
        <time>2020-07-30T12:06:38.000Z</time>
      </trkpt>
      <trkpt lat="44.11582" lon="7.06598">
        <ele>1412.4000244141</ele>
        <time>2020-07-30T12:06:43.000Z</time>
      </trkpt>
      <trkpt lat="44.11583" lon="7.06594">
        <ele>1412.4000244141</ele>
        <time>2020-07-30T12:06:44.000Z</time>
      </trkpt>
      <trkpt lat="44.11585" lon="7.0659">
        <ele>1412.5999755859</ele>
        <time>2020-07-30T12:06:45.000Z</time>
      </trkpt>
      <trkpt lat="44.11589" lon="7.06583">
        <ele>1412.5999755859</ele>
        <time>2020-07-30T12:06:47.000Z</time>
      </trkpt>
      <trkpt lat="44.11595" lon="7.06567">
        <ele>1412.5999755859</ele>
        <time>2020-07-30T12:06:51.000Z</time>
      </trkpt>
      <trkpt lat="44.11603" lon="7.06547">
        <ele>1412.8000488281</ele>
        <time>2020-07-30T12:06:56.000Z</time>
      </trkpt>
      <trkpt lat="44.11615" lon="7.06522">
        <ele>1412.8000488281</ele>
        <time>2020-07-30T12:07:02.000Z</time>
      </trkpt>
      <trkpt lat="44.11629" lon="7.06494">
        <ele>1413</ele>
        <time>2020-07-30T12:07:09.000Z</time>
      </trkpt>
      <trkpt lat="44.1164" lon="7.06473">
        <ele>1413.1999511719</ele>
        <time>2020-07-30T12:07:15.000Z</time>
      </trkpt>
      <trkpt lat="44.11644" lon="7.06466">
        <ele>1413.5999755859</ele>
        <time>2020-07-30T12:07:20.000Z</time>
      </trkpt>
      <trkpt lat="44.11643" lon="7.06463">
        <ele>1414.1999511719</ele>
        <time>2020-07-30T12:07:26.000Z</time>
      </trkpt>
      <trkpt lat="44.11643" lon="7.0646">
        <ele>1414.4000244141</ele>
        <time>2020-07-30T12:07:37.000Z</time>
      </trkpt>
      <trkpt lat="44.11644" lon="7.06457">
        <ele>1414</ele>
        <time>2020-07-30T12:07:44.000Z</time>
      </trkpt>
      <trkpt lat="44.11645" lon="7.06454">
        <ele>1413.8000488281</ele>
        <time>2020-07-30T12:07:47.000Z</time>
      </trkpt>
      <trkpt lat="44.11647" lon="7.0645">
        <ele>1414</ele>
        <time>2020-07-30T12:07:49.000Z</time>
      </trkpt>
      <trkpt lat="44.11651" lon="7.06444">
        <ele>1414.1999511719</ele>
        <time>2020-07-30T12:07:52.000Z</time>
      </trkpt>
      <trkpt lat="44.11656" lon="7.06437">
        <ele>1414.4000244141</ele>
        <time>2020-07-30T12:07:55.000Z</time>
      </trkpt>
      <trkpt lat="44.11664" lon="7.06427">
        <ele>1414.5999755859</ele>
        <time>2020-07-30T12:07:59.000Z</time>
      </trkpt>
      <trkpt lat="44.11668" lon="7.0642">
        <ele>1415</ele>
        <time>2020-07-30T12:08:01.000Z</time>
      </trkpt>
      <trkpt lat="44.11681" lon="7.06401">
        <ele>1415.5999755859</ele>
        <time>2020-07-30T12:08:08.000Z</time>
      </trkpt>
      <trkpt lat="44.11693" lon="7.06375">
        <ele>1416.8000488281</ele>
        <time>2020-07-30T12:08:16.000Z</time>
      </trkpt>
      <trkpt lat="44.117" lon="7.06361">
        <ele>1417.8000488281</ele>
        <time>2020-07-30T12:08:21.000Z</time>
      </trkpt>
      <trkpt lat="44.11707" lon="7.06346">
        <ele>1418</ele>
        <time>2020-07-30T12:08:26.000Z</time>
      </trkpt>
      <trkpt lat="44.11714" lon="7.06321">
        <ele>1418.4000244141</ele>
        <time>2020-07-30T12:08:32.000Z</time>
      </trkpt>
      <trkpt lat="44.11716" lon="7.06306">
        <ele>1418.8000488281</ele>
        <time>2020-07-30T12:08:36.000Z</time>
      </trkpt>
      <trkpt lat="44.11716" lon="7.06303">
        <ele>1418.8000488281</ele>
        <time>2020-07-30T12:08:37.000Z</time>
      </trkpt>
      <trkpt lat="44.11715" lon="7.063">
        <ele>1419</ele>
        <time>2020-07-30T12:08:38.000Z</time>
      </trkpt>
      <trkpt lat="44.11713" lon="7.06294">
        <ele>1419.1999511719</ele>
        <time>2020-07-30T12:08:42.000Z</time>
      </trkpt>
      <trkpt lat="44.11712" lon="7.06292">
        <ele>1419.5999755859</ele>
        <time>2020-07-30T12:08:48.000Z</time>
      </trkpt>
      <trkpt lat="44.11711" lon="7.0629">
        <ele>1419.8000488281</ele>
        <time>2020-07-30T12:08:57.000Z</time>
      </trkpt>
      <trkpt lat="44.11713" lon="7.0629">
        <ele>1419.8000488281</ele>
        <time>2020-07-30T12:09:03.000Z</time>
      </trkpt>
      <trkpt lat="44.11713" lon="7.06289">
        <ele>1420</ele>
        <time>2020-07-30T12:09:06.000Z</time>
      </trkpt>
      <trkpt lat="44.11713" lon="7.06289">
        <ele>1420</ele>
        <time>2020-07-30T12:09:11.000Z</time>
      </trkpt>
      <trkpt lat="44.11712" lon="7.06287">
        <ele>1419.5999755859</ele>
        <time>2020-07-30T12:09:23.000Z</time>
      </trkpt>
      <trkpt lat="44.11709" lon="7.06283">
        <ele>1420</ele>
        <time>2020-07-30T12:09:32.000Z</time>
      </trkpt>
      <trkpt lat="44.11708" lon="7.06283">
        <ele>1419.5999755859</ele>
        <time>2020-07-30T12:09:37.000Z</time>
      </trkpt>
      <trkpt lat="44.11707" lon="7.06282">
        <ele>1419.4000244141</ele>
        <time>2020-07-30T12:09:47.000Z</time>
      </trkpt>
      <trkpt lat="44.11706" lon="7.06284">
        <ele>1419.8000488281</ele>
        <time>2020-07-30T12:09:55.000Z</time>
      </trkpt>
      <trkpt lat="44.11704" lon="7.06284">
        <ele>1420</ele>
        <time>2020-07-30T12:10:02.000Z</time>
      </trkpt>
      <trkpt lat="44.11704" lon="7.06283">
        <ele>1419.5999755859</ele>
        <time>2020-07-30T12:10:09.000Z</time>
      </trkpt>
      <trkpt lat="44.11705" lon="7.06282">
        <ele>1419.5999755859</ele>
        <time>2020-07-30T12:10:16.000Z</time>
      </trkpt>
      <trkpt lat="44.11705" lon="7.06281">
        <ele>1419.5999755859</ele>
        <time>2020-07-30T12:10:23.000Z</time>
      </trkpt>
      <trkpt lat="44.11705" lon="7.0628">
        <ele>1419.1999511719</ele>
        <time>2020-07-30T12:10:36.000Z</time>
      </trkpt>
      <trkpt lat="44.11705" lon="7.0628">
        <ele>1419.5999755859</ele>
        <time>2020-07-30T12:10:46.000Z</time>
      </trkpt>
      <trkpt lat="44.11707" lon="7.06279">
        <ele>1419.4000244141</ele>
        <time>2020-07-30T12:10:56.000Z</time>
      </trkpt>
      <trkpt lat="44.11709" lon="7.06278">
        <ele>1419.5999755859</ele>
        <time>2020-07-30T12:11:05.000Z</time>
      </trkpt>
      <trkpt lat="44.11708" lon="7.06278">
        <ele>1419.1999511719</ele>
        <time>2020-07-30T12:11:17.000Z</time>
      </trkpt>
      <trkpt lat="44.11706" lon="7.06278">
        <ele>1419.5999755859</ele>
        <time>2020-07-30T12:11:37.000Z</time>
      </trkpt>
      <trkpt lat="44.11706" lon="7.06277">
        <ele>1419.5999755859</ele>
        <time>2020-07-30T12:11:52.000Z</time>
      </trkpt>
      <trkpt lat="44.11707" lon="7.06276">
        <ele>1419.4000244141</ele>
        <time>2020-07-30T12:12:06.000Z</time>
      </trkpt>
      <trkpt lat="44.11707" lon="7.06275">
        <ele>1419.5999755859</ele>
        <time>2020-07-30T12:12:18.000Z</time>
      </trkpt>
      <trkpt lat="44.11709" lon="7.06276">
        <ele>1419.8000488281</ele>
        <time>2020-07-30T12:12:29.000Z</time>
      </trkpt>
      <trkpt lat="44.11709" lon="7.06276">
        <ele>1419.8000488281</ele>
        <time>2020-07-30T12:12:51.000Z</time>
      </trkpt>
      <trkpt lat="44.1171" lon="7.06276">
        <ele>1419.5999755859</ele>
        <time>2020-07-30T12:13:01.000Z</time>
      </trkpt>
      <trkpt lat="44.11709" lon="7.06276">
        <ele>1419.4000244141</ele>
        <time>2020-07-30T12:13:15.000Z</time>
      </trkpt>
      <trkpt lat="44.11708" lon="7.06276">
        <ele>1419.5999755859</ele>
        <time>2020-07-30T12:13:33.000Z</time>
      </trkpt>
      <trkpt lat="44.11708" lon="7.06276">
        <ele>1419.5999755859</ele>
        <time>2020-07-30T12:13:43.000Z</time>
      </trkpt>
      <trkpt lat="44.11709" lon="7.06277">
        <ele>1419.4000244141</ele>
        <time>2020-07-30T12:14:00.000Z</time>
      </trkpt>
      <trkpt lat="44.1171" lon="7.06278">
        <ele>1419.1999511719</ele>
        <time>2020-07-30T12:14:22.000Z</time>
      </trkpt>
      <trkpt lat="44.1171" lon="7.06279">
        <ele>1419.1999511719</ele>
        <time>2020-07-30T12:14:40.000Z</time>
      </trkpt>
      <trkpt lat="44.1171" lon="7.06279">
        <ele>1419.1999511719</ele>
        <time>2020-07-30T12:15:04.000Z</time>
      </trkpt>
      <trkpt lat="44.1171" lon="7.0628">
        <ele>1419.1999511719</ele>
        <time>2020-07-30T12:15:29.000Z</time>
      </trkpt>
      <trkpt lat="44.1171" lon="7.0628">
        <ele>1419.4000244141</ele>
        <time>2020-07-30T12:15:48.000Z</time>
      </trkpt>
      <trkpt lat="44.11711" lon="7.06281">
        <ele>1419.4000244141</ele>
        <time>2020-07-30T12:16:11.000Z</time>
      </trkpt>
      <trkpt lat="44.11711" lon="7.06281">
        <ele>1419</ele>
        <time>2020-07-30T12:16:19.000Z</time>
      </trkpt>
      <trkpt lat="44.11712" lon="7.0628">
        <ele>1419.1999511719</ele>
        <time>2020-07-30T12:16:27.000Z</time>
      </trkpt>
      <trkpt lat="44.11711" lon="7.06281">
        <ele>1419.4000244141</ele>
        <time>2020-07-30T12:16:36.000Z</time>
      </trkpt>
      <trkpt lat="44.11712" lon="7.06281">
        <ele>1419.1999511719</ele>
        <time>2020-07-30T12:16:44.000Z</time>
      </trkpt>
      <trkpt lat="44.11712" lon="7.06281">
        <ele>1419.1999511719</ele>
        <time>2020-07-30T12:16:58.000Z</time>
      </trkpt>
      <trkpt lat="44.11711" lon="7.06281">
        <ele>1419.1999511719</ele>
        <time>2020-07-30T12:17:13.000Z</time>
      </trkpt>
      <trkpt lat="44.1171" lon="7.0628">
        <ele>1419.1999511719</ele>
        <time>2020-07-30T12:17:25.000Z</time>
      </trkpt>
      <trkpt lat="44.11711" lon="7.0628">
        <ele>1418.5999755859</ele>
        <time>2020-07-30T12:17:30.000Z</time>
      </trkpt>
      <trkpt lat="44.11712" lon="7.0628">
        <ele>1418.4000244141</ele>
        <time>2020-07-30T12:17:32.000Z</time>
      </trkpt>
      <trkpt lat="44.11712" lon="7.06278">
        <ele>1419.1999511719</ele>
        <time>2020-07-30T12:17:43.000Z</time>
      </trkpt>
      <trkpt lat="44.11714" lon="7.06278">
        <ele>1419.5999755859</ele>
        <time>2020-07-30T12:17:46.000Z</time>
      </trkpt>
      <trkpt lat="44.11714" lon="7.06277">
        <ele>1419</ele>
        <time>2020-07-30T12:17:51.000Z</time>
      </trkpt>
      <trkpt lat="44.11713" lon="7.06276">
        <ele>1419.5999755859</ele>
        <time>2020-07-30T12:17:58.000Z</time>
      </trkpt>
      <trkpt lat="44.11712" lon="7.06275">
        <ele>1419.1999511719</ele>
        <time>2020-07-30T12:18:05.000Z</time>
      </trkpt>
      <trkpt lat="44.11714" lon="7.06277">
        <ele>1419.4000244141</ele>
        <time>2020-07-30T12:18:10.000Z</time>
      </trkpt>
      <trkpt lat="44.11716" lon="7.06278">
        <ele>1419.1999511719</ele>
        <time>2020-07-30T12:18:15.000Z</time>
      </trkpt>
      <trkpt lat="44.11717" lon="7.06278">
        <ele>1419.1999511719</ele>
        <time>2020-07-30T12:18:16.000Z</time>
      </trkpt>
      <trkpt lat="44.11722" lon="7.06274">
        <ele>1419</ele>
        <time>2020-07-30T12:18:19.000Z</time>
      </trkpt>
      <trkpt lat="44.11731" lon="7.06287">
        <ele>1417.5999755859</ele>
        <time>2020-07-30T12:18:22.000Z</time>
      </trkpt>
      <trkpt lat="44.11734" lon="7.06294">
        <ele>1417</ele>
        <time>2020-07-30T12:18:23.000Z</time>
      </trkpt>
      <trkpt lat="44.11735" lon="7.06301">
        <ele>1415.8000488281</ele>
        <time>2020-07-30T12:18:24.000Z</time>
      </trkpt>
      <trkpt lat="44.11738" lon="7.06311">
        <ele>1413.8000488281</ele>
        <time>2020-07-30T12:18:26.000Z</time>
      </trkpt>
      <trkpt lat="44.11739" lon="7.06315">
        <ele>1412.5999755859</ele>
        <time>2020-07-30T12:18:27.000Z</time>
      </trkpt>
      <trkpt lat="44.11741" lon="7.06328">
        <ele>1411.4000244141</ele>
        <time>2020-07-30T12:18:29.000Z</time>
      </trkpt>
      <trkpt lat="44.11741" lon="7.06337">
        <ele>1410.5999755859</ele>
        <time>2020-07-30T12:18:30.000Z</time>
      </trkpt>
      <trkpt lat="44.11741" lon="7.06344">
        <ele>1410.1999511719</ele>
        <time>2020-07-30T12:18:31.000Z</time>
      </trkpt>
      <trkpt lat="44.11742" lon="7.06351">
        <ele>1409.5999755859</ele>
        <time>2020-07-30T12:18:32.000Z</time>
      </trkpt>
      <trkpt lat="44.11742" lon="7.06358">
        <ele>1408.8000488281</ele>
        <time>2020-07-30T12:18:33.000Z</time>
      </trkpt>
      <trkpt lat="44.11743" lon="7.06365">
        <ele>1407.5999755859</ele>
        <time>2020-07-30T12:18:34.000Z</time>
      </trkpt>
      <trkpt lat="44.11744" lon="7.06373">
        <ele>1407</ele>
        <time>2020-07-30T12:18:35.000Z</time>
      </trkpt>
      <trkpt lat="44.11747" lon="7.06379">
        <ele>1406.1999511719</ele>
        <time>2020-07-30T12:18:36.000Z</time>
      </trkpt>
      <trkpt lat="44.1175" lon="7.06383">
        <ele>1404.8000488281</ele>
        <time>2020-07-30T12:18:38.000Z</time>
      </trkpt>
      <trkpt lat="44.11749" lon="7.06385">
        <ele>1403.4000244141</ele>
        <time>2020-07-30T12:18:41.000Z</time>
      </trkpt>
      <trkpt lat="44.11748" lon="7.06389">
        <ele>1402.5999755859</ele>
        <time>2020-07-30T12:18:57.000Z</time>
      </trkpt>
      <trkpt lat="44.11747" lon="7.0639">
        <ele>1402.5999755859</ele>
        <time>2020-07-30T12:19:02.000Z</time>
      </trkpt>
      <trkpt lat="44.11746" lon="7.06391">
        <ele>1402.4000244141</ele>
        <time>2020-07-30T12:19:04.000Z</time>
      </trkpt>
      <trkpt lat="44.11742" lon="7.06395">
        <ele>1402.4000244141</ele>
        <time>2020-07-30T12:19:07.000Z</time>
      </trkpt>
      <trkpt lat="44.11741" lon="7.06403">
        <ele>1402.1999511719</ele>
        <time>2020-07-30T12:19:10.000Z</time>
      </trkpt>
      <trkpt lat="44.11743" lon="7.0641">
        <ele>1402</ele>
        <time>2020-07-30T12:19:12.000Z</time>
      </trkpt>
      <trkpt lat="44.11746" lon="7.06422">
        <ele>1401</ele>
        <time>2020-07-30T12:19:15.000Z</time>
      </trkpt>
      <trkpt lat="44.11746" lon="7.06429">
        <ele>1400.1999511719</ele>
        <time>2020-07-30T12:19:17.000Z</time>
      </trkpt>
      <trkpt lat="44.11746" lon="7.06432">
        <ele>1399.5999755859</ele>
        <time>2020-07-30T12:19:18.000Z</time>
      </trkpt>
      <trkpt lat="44.11743" lon="7.0644">
        <ele>1398.5999755859</ele>
        <time>2020-07-30T12:19:21.000Z</time>
      </trkpt>
      <trkpt lat="44.11737" lon="7.06447">
        <ele>1398.1999511719</ele>
        <time>2020-07-30T12:19:23.000Z</time>
      </trkpt>
      <trkpt lat="44.11732" lon="7.06453">
        <ele>1397.4000244141</ele>
        <time>2020-07-30T12:19:25.000Z</time>
      </trkpt>
      <trkpt lat="44.11726" lon="7.06458">
        <ele>1396.1999511719</ele>
        <time>2020-07-30T12:19:27.000Z</time>
      </trkpt>
      <trkpt lat="44.11724" lon="7.06462">
        <ele>1395.5999755859</ele>
        <time>2020-07-30T12:19:28.000Z</time>
      </trkpt>
      <trkpt lat="44.1172" lon="7.06468">
        <ele>1395</ele>
        <time>2020-07-30T12:19:29.000Z</time>
      </trkpt>
      <trkpt lat="44.11716" lon="7.06475">
        <ele>1394.1999511719</ele>
        <time>2020-07-30T12:19:30.000Z</time>
      </trkpt>
      <trkpt lat="44.11711" lon="7.06482">
        <ele>1393</ele>
        <time>2020-07-30T12:19:31.000Z</time>
      </trkpt>
      <trkpt lat="44.11703" lon="7.06499">
        <ele>1391.5999755859</ele>
        <time>2020-07-30T12:19:33.000Z</time>
      </trkpt>
      <trkpt lat="44.11699" lon="7.06506">
        <ele>1390.5999755859</ele>
        <time>2020-07-30T12:19:34.000Z</time>
      </trkpt>
      <trkpt lat="44.11697" lon="7.0651">
        <ele>1389</ele>
        <time>2020-07-30T12:19:35.000Z</time>
      </trkpt>
      <trkpt lat="44.11696" lon="7.06512">
        <ele>1388</ele>
        <time>2020-07-30T12:19:36.000Z</time>
      </trkpt>
      <trkpt lat="44.11696" lon="7.06512">
        <ele>1386.8000488281</ele>
        <time>2020-07-30T12:19:37.000Z</time>
      </trkpt>
      <trkpt lat="44.11696" lon="7.06512">
        <ele>1385.5999755859</ele>
        <time>2020-07-30T12:19:38.000Z</time>
      </trkpt>
      <trkpt lat="44.11696" lon="7.06512">
        <ele>1384.4000244141</ele>
        <time>2020-07-30T12:19:39.000Z</time>
      </trkpt>
      <trkpt lat="44.11697" lon="7.06513">
        <ele>1383.8000488281</ele>
        <time>2020-07-30T12:19:41.000Z</time>
      </trkpt>
      <trkpt lat="44.11698" lon="7.06513">
        <ele>1383.8000488281</ele>
        <time>2020-07-30T12:19:42.000Z</time>
      </trkpt>
      <trkpt lat="44.11706" lon="7.06515">
        <ele>1383.5999755859</ele>
        <time>2020-07-30T12:19:45.000Z</time>
      </trkpt>
      <trkpt lat="44.11708" lon="7.06518">
        <ele>1383.4000244141</ele>
        <time>2020-07-30T12:19:46.000Z</time>
      </trkpt>
      <trkpt lat="44.11711" lon="7.06523">
        <ele>1382.8000488281</ele>
        <time>2020-07-30T12:19:48.000Z</time>
      </trkpt>
      <trkpt lat="44.11713" lon="7.06524">
        <ele>1382.4000244141</ele>
        <time>2020-07-30T12:19:49.000Z</time>
      </trkpt>
      <trkpt lat="44.11713" lon="7.06529">
        <ele>1381</ele>
        <time>2020-07-30T12:19:51.000Z</time>
      </trkpt>
      <trkpt lat="44.11712" lon="7.06531">
        <ele>1380.1999511719</ele>
        <time>2020-07-30T12:19:52.000Z</time>
      </trkpt>
      <trkpt lat="44.11711" lon="7.06534">
        <ele>1379.5999755859</ele>
        <time>2020-07-30T12:19:53.000Z</time>
      </trkpt>
      <trkpt lat="44.11712" lon="7.0654">
        <ele>1378.4000244141</ele>
        <time>2020-07-30T12:19:56.000Z</time>
      </trkpt>
      <trkpt lat="44.11713" lon="7.06542">
        <ele>1377.8000488281</ele>
        <time>2020-07-30T12:19:57.000Z</time>
      </trkpt>
      <trkpt lat="44.11716" lon="7.06546">
        <ele>1377.1999511719</ele>
        <time>2020-07-30T12:19:59.000Z</time>
      </trkpt>
      <trkpt lat="44.11716" lon="7.06547">
        <ele>1376.4000244141</ele>
        <time>2020-07-30T12:20:01.000Z</time>
      </trkpt>
      <trkpt lat="44.11716" lon="7.06547">
        <ele>1375.8000488281</ele>
        <time>2020-07-30T12:20:02.000Z</time>
      </trkpt>
      <trkpt lat="44.11717" lon="7.06548">
        <ele>1374.5999755859</ele>
        <time>2020-07-30T12:20:05.000Z</time>
      </trkpt>
      <trkpt lat="44.11718" lon="7.06548">
        <ele>1374.5999755859</ele>
        <time>2020-07-30T12:20:17.000Z</time>
      </trkpt>
      <trkpt lat="44.11721" lon="7.06549">
        <ele>1374.5999755859</ele>
        <time>2020-07-30T12:20:36.000Z</time>
      </trkpt>
      <trkpt lat="44.11725" lon="7.06548">
        <ele>1374.8000488281</ele>
        <time>2020-07-30T12:20:56.000Z</time>
      </trkpt>
      <trkpt lat="44.11727" lon="7.06548">
        <ele>1375</ele>
        <time>2020-07-30T12:21:12.000Z</time>
      </trkpt>
      <trkpt lat="44.11727" lon="7.06548">
        <ele>1375</ele>
        <time>2020-07-30T12:21:29.000Z</time>
      </trkpt>
      <trkpt lat="44.11724" lon="7.06546">
        <ele>1374.8000488281</ele>
        <time>2020-07-30T12:21:43.000Z</time>
      </trkpt>
      <trkpt lat="44.11723" lon="7.06548">
        <ele>1374.5999755859</ele>
        <time>2020-07-30T12:21:54.000Z</time>
      </trkpt>
      <trkpt lat="44.11724" lon="7.06549">
        <ele>1374.5999755859</ele>
        <time>2020-07-30T12:21:55.000Z</time>
      </trkpt>
      <trkpt lat="44.11721" lon="7.06555">
        <ele>1374.4000244141</ele>
        <time>2020-07-30T12:21:58.000Z</time>
      </trkpt>
      <trkpt lat="44.11719" lon="7.06557">
        <ele>1374.1999511719</ele>
        <time>2020-07-30T12:21:59.000Z</time>
      </trkpt>
      <trkpt lat="44.11719" lon="7.0656">
        <ele>1374</ele>
        <time>2020-07-30T12:22:00.000Z</time>
      </trkpt>
      <trkpt lat="44.11719" lon="7.06561">
        <ele>1373.5999755859</ele>
        <time>2020-07-30T12:22:01.000Z</time>
      </trkpt>
      <trkpt lat="44.11719" lon="7.06561">
        <ele>1373.1999511719</ele>
        <time>2020-07-30T12:22:02.000Z</time>
      </trkpt>
      <trkpt lat="44.1172" lon="7.06562">
        <ele>1372.4000244141</ele>
        <time>2020-07-30T12:22:04.000Z</time>
      </trkpt>
      <trkpt lat="44.11723" lon="7.06568">
        <ele>1371.8000488281</ele>
        <time>2020-07-30T12:22:07.000Z</time>
      </trkpt>
      <trkpt lat="44.11727" lon="7.06577">
        <ele>1371.1999511719</ele>
        <time>2020-07-30T12:22:10.000Z</time>
      </trkpt>
      <trkpt lat="44.11729" lon="7.06582">
        <ele>1369.8000488281</ele>
        <time>2020-07-30T12:22:12.000Z</time>
      </trkpt>
      <trkpt lat="44.11729" lon="7.06583">
        <ele>1369.4000244141</ele>
        <time>2020-07-30T12:22:13.000Z</time>
      </trkpt>
      <trkpt lat="44.11729" lon="7.06583">
        <ele>1368.4000244141</ele>
        <time>2020-07-30T12:22:14.000Z</time>
      </trkpt>
      <trkpt lat="44.11729" lon="7.06583">
        <ele>1367.5999755859</ele>
        <time>2020-07-30T12:22:16.000Z</time>
      </trkpt>
      <trkpt lat="44.11731" lon="7.06585">
        <ele>1367.4000244141</ele>
        <time>2020-07-30T12:22:26.000Z</time>
      </trkpt>
      <trkpt lat="44.11731" lon="7.06585">
        <ele>1367.5999755859</ele>
        <time>2020-07-30T12:22:34.000Z</time>
      </trkpt>
      <trkpt lat="44.11731" lon="7.06586">
        <ele>1367.4000244141</ele>
        <time>2020-07-30T12:22:47.000Z</time>
      </trkpt>
      <trkpt lat="44.11732" lon="7.06587">
        <ele>1367.4000244141</ele>
        <time>2020-07-30T12:22:53.000Z</time>
      </trkpt>
      <trkpt lat="44.11732" lon="7.06587">
        <ele>1367.1999511719</ele>
        <time>2020-07-30T12:23:10.000Z</time>
      </trkpt>
      <trkpt lat="44.11735" lon="7.06589">
        <ele>1366.4000244141</ele>
        <time>2020-07-30T12:23:19.000Z</time>
      </trkpt>
      <trkpt lat="44.11736" lon="7.06589">
        <ele>1366.1999511719</ele>
        <time>2020-07-30T12:23:20.000Z</time>
      </trkpt>
      <trkpt lat="44.11738" lon="7.06588">
        <ele>1366</ele>
        <time>2020-07-30T12:23:25.000Z</time>
      </trkpt>
      <trkpt lat="44.11742" lon="7.06585">
        <ele>1365.4000244141</ele>
        <time>2020-07-30T12:23:33.000Z</time>
      </trkpt>
      <trkpt lat="44.11742" lon="7.06585">
        <ele>1365.1999511719</ele>
        <time>2020-07-30T12:23:35.000Z</time>
      </trkpt>
      <trkpt lat="44.11743" lon="7.06585">
        <ele>1364.8000488281</ele>
        <time>2020-07-30T12:23:46.000Z</time>
      </trkpt>
      <trkpt lat="44.11738" lon="7.06588">
        <ele>1365</ele>
        <time>2020-07-30T12:23:53.000Z</time>
      </trkpt>
      <trkpt lat="44.11733" lon="7.06588">
        <ele>1365.1999511719</ele>
        <time>2020-07-30T12:23:59.000Z</time>
      </trkpt>
      <trkpt lat="44.11727" lon="7.06587">
        <ele>1365.8000488281</ele>
        <time>2020-07-30T12:24:05.000Z</time>
      </trkpt>
      <trkpt lat="44.11721" lon="7.06588">
        <ele>1365.5999755859</ele>
        <time>2020-07-30T12:24:11.000Z</time>
      </trkpt>
      <trkpt lat="44.11718" lon="7.06596">
        <ele>1365.1999511719</ele>
        <time>2020-07-30T12:24:17.000Z</time>
      </trkpt>
      <trkpt lat="44.11715" lon="7.06603">
        <ele>1365.1999511719</ele>
        <time>2020-07-30T12:24:23.000Z</time>
      </trkpt>
      <trkpt lat="44.11714" lon="7.06603">
        <ele>1365.4000244141</ele>
        <time>2020-07-30T12:24:28.000Z</time>
      </trkpt>
      <trkpt lat="44.11714" lon="7.06604">
        <ele>1365.5999755859</ele>
        <time>2020-07-30T12:24:31.000Z</time>
      </trkpt>
      <trkpt lat="44.11712" lon="7.06607">
        <ele>1365.4000244141</ele>
        <time>2020-07-30T12:24:33.000Z</time>
      </trkpt>
      <trkpt lat="44.11704" lon="7.0662">
        <ele>1365.4000244141</ele>
        <time>2020-07-30T12:24:38.000Z</time>
      </trkpt>
      <trkpt lat="44.11697" lon="7.06627">
        <ele>1365</ele>
        <time>2020-07-30T12:24:44.000Z</time>
      </trkpt>
      <trkpt lat="44.11694" lon="7.0663">
        <ele>1365.4000244141</ele>
        <time>2020-07-30T12:24:49.000Z</time>
      </trkpt>
      <trkpt lat="44.1169" lon="7.06632">
        <ele>1365.5999755859</ele>
        <time>2020-07-30T12:24:54.000Z</time>
      </trkpt>
      <trkpt lat="44.11687" lon="7.06635">
        <ele>1365.8000488281</ele>
        <time>2020-07-30T12:25:04.000Z</time>
      </trkpt>
      <trkpt lat="44.11678" lon="7.06646">
        <ele>1365.5999755859</ele>
        <time>2020-07-30T12:25:10.000Z</time>
      </trkpt>
      <trkpt lat="44.1167" lon="7.06653">
        <ele>1365.1999511719</ele>
        <time>2020-07-30T12:25:16.000Z</time>
      </trkpt>
      <trkpt lat="44.11669" lon="7.06651">
        <ele>1365</ele>
        <time>2020-07-30T12:25:21.000Z</time>
      </trkpt>
      <trkpt lat="44.11667" lon="7.06649">
        <ele>1365.4000244141</ele>
        <time>2020-07-30T12:25:27.000Z</time>
      </trkpt>
      <trkpt lat="44.11666" lon="7.06646">
        <ele>1366</ele>
        <time>2020-07-30T12:25:33.000Z</time>
      </trkpt>
      <trkpt lat="44.11666" lon="7.06644">
        <ele>1366.4000244141</ele>
        <time>2020-07-30T12:25:35.000Z</time>
      </trkpt>
      <trkpt lat="44.11667" lon="7.06641">
        <ele>1366.8000488281</ele>
        <time>2020-07-30T12:25:39.000Z</time>
      </trkpt>
      <trkpt lat="44.11667" lon="7.06641">
        <ele>1367</ele>
        <time>2020-07-30T12:25:40.000Z</time>
      </trkpt>
      <trkpt lat="44.11666" lon="7.0664">
        <ele>1367.5999755859</ele>
        <time>2020-07-30T12:25:42.000Z</time>
      </trkpt>
      <trkpt lat="44.11664" lon="7.06639">
        <ele>1368.1999511719</ele>
        <time>2020-07-30T12:25:45.000Z</time>
      </trkpt>
      <trkpt lat="44.11664" lon="7.06639">
        <ele>1368.1999511719</ele>
        <time>2020-07-30T12:25:48.000Z</time>
      </trkpt>
      <trkpt lat="44.11662" lon="7.06638">
        <ele>1368.5999755859</ele>
        <time>2020-07-30T12:25:52.000Z</time>
      </trkpt>
      <trkpt lat="44.11662" lon="7.06638">
        <ele>1368.5999755859</ele>
        <time>2020-07-30T12:25:53.000Z</time>
      </trkpt>
      <trkpt lat="44.11662" lon="7.06634">
        <ele>1369</ele>
        <time>2020-07-30T12:26:00.000Z</time>
      </trkpt>
      <trkpt lat="44.1166" lon="7.06634">
        <ele>1369.8000488281</ele>
        <time>2020-07-30T12:26:04.000Z</time>
      </trkpt>
      <trkpt lat="44.1166" lon="7.06634">
        <ele>1370</ele>
        <time>2020-07-30T12:26:05.000Z</time>
      </trkpt>
      <trkpt lat="44.1166" lon="7.06633">
        <ele>1370</ele>
        <time>2020-07-30T12:26:10.000Z</time>
      </trkpt>
      <trkpt lat="44.11661" lon="7.06632">
        <ele>1370</ele>
        <time>2020-07-30T12:26:13.000Z</time>
      </trkpt>
      <trkpt lat="44.11662" lon="7.06631">
        <ele>1370</ele>
        <time>2020-07-30T12:26:16.000Z</time>
      </trkpt>
      <trkpt lat="44.11662" lon="7.0663">
        <ele>1370</ele>
        <time>2020-07-30T12:26:21.000Z</time>
      </trkpt>
      <trkpt lat="44.11664" lon="7.06633">
        <ele>1370.1999511719</ele>
        <time>2020-07-30T12:26:28.000Z</time>
      </trkpt>
      <trkpt lat="44.11668" lon="7.0664">
        <ele>1369</ele>
        <time>2020-07-30T12:26:35.000Z</time>
      </trkpt>
      <trkpt lat="44.11669" lon="7.06641">
        <ele>1368.5999755859</ele>
        <time>2020-07-30T12:26:36.000Z</time>
      </trkpt>
      <trkpt lat="44.11672" lon="7.06645">
        <ele>1367.4000244141</ele>
        <time>2020-07-30T12:26:40.000Z</time>
      </trkpt>
      <trkpt lat="44.11672" lon="7.06647">
        <ele>1367.1999511719</ele>
        <time>2020-07-30T12:26:41.000Z</time>
      </trkpt>
      <trkpt lat="44.11672" lon="7.06652">
        <ele>1366.1999511719</ele>
        <time>2020-07-30T12:26:44.000Z</time>
      </trkpt>
      <trkpt lat="44.11672" lon="7.06653">
        <ele>1365.4000244141</ele>
        <time>2020-07-30T12:26:47.000Z</time>
      </trkpt>
      <trkpt lat="44.11668" lon="7.06656">
        <ele>1365.4000244141</ele>
        <time>2020-07-30T12:26:52.000Z</time>
      </trkpt>
      <trkpt lat="44.11662" lon="7.06659">
        <ele>1366</ele>
        <time>2020-07-30T12:27:00.000Z</time>
      </trkpt>
      <trkpt lat="44.11662" lon="7.06661">
        <ele>1366</ele>
        <time>2020-07-30T12:27:02.000Z</time>
      </trkpt>
      <trkpt lat="44.11664" lon="7.06666">
        <ele>1365.4000244141</ele>
        <time>2020-07-30T12:27:06.000Z</time>
      </trkpt>
      <trkpt lat="44.11663" lon="7.06668">
        <ele>1365</ele>
        <time>2020-07-30T12:27:08.000Z</time>
      </trkpt>
      <trkpt lat="44.11663" lon="7.06668">
        <ele>1363.8000488281</ele>
        <time>2020-07-30T12:27:12.000Z</time>
      </trkpt>
      <trkpt lat="44.11662" lon="7.06667">
        <ele>1363.8000488281</ele>
        <time>2020-07-30T12:27:29.000Z</time>
      </trkpt>
      <trkpt lat="44.11662" lon="7.06668">
        <ele>1364.4000244141</ele>
        <time>2020-07-30T12:27:49.000Z</time>
      </trkpt>
      <trkpt lat="44.11662" lon="7.06668">
        <ele>1364.5999755859</ele>
        <time>2020-07-30T12:28:14.000Z</time>
      </trkpt>
      <trkpt lat="44.11662" lon="7.06669">
        <ele>1364.1999511719</ele>
        <time>2020-07-30T12:28:39.000Z</time>
      </trkpt>
      <trkpt lat="44.11662" lon="7.06669">
        <ele>1364.1999511719</ele>
        <time>2020-07-30T12:29:03.000Z</time>
      </trkpt>
      <trkpt lat="44.11663" lon="7.0667">
        <ele>1364.1999511719</ele>
        <time>2020-07-30T12:29:20.000Z</time>
      </trkpt>
      <trkpt lat="44.11663" lon="7.0667">
        <ele>1364.4000244141</ele>
        <time>2020-07-30T12:29:28.000Z</time>
      </trkpt>
      <trkpt lat="44.11663" lon="7.0667">
        <ele>1364.4000244141</ele>
        <time>2020-07-30T12:29:52.000Z</time>
      </trkpt>
      <trkpt lat="44.11664" lon="7.0667">
        <ele>1364.5999755859</ele>
        <time>2020-07-30T12:30:03.000Z</time>
      </trkpt>
      <trkpt lat="44.11665" lon="7.0667">
        <ele>1364</ele>
        <time>2020-07-30T12:30:08.000Z</time>
      </trkpt>
      <trkpt lat="44.11673" lon="7.06672">
        <ele>1363.5999755859</ele>
        <time>2020-07-30T12:30:12.000Z</time>
      </trkpt>
      <trkpt lat="44.11683" lon="7.06669">
        <ele>1362.4000244141</ele>
        <time>2020-07-30T12:30:15.000Z</time>
      </trkpt>
      <trkpt lat="44.11685" lon="7.06669">
        <ele>1361.8000488281</ele>
        <time>2020-07-30T12:30:16.000Z</time>
      </trkpt>
      <trkpt lat="44.11688" lon="7.0667">
        <ele>1361.1999511719</ele>
        <time>2020-07-30T12:30:17.000Z</time>
      </trkpt>
      <trkpt lat="44.11693" lon="7.06671">
        <ele>1360.1999511719</ele>
        <time>2020-07-30T12:30:19.000Z</time>
      </trkpt>
      <trkpt lat="44.117" lon="7.06671">
        <ele>1359.1999511719</ele>
        <time>2020-07-30T12:30:21.000Z</time>
      </trkpt>
      <trkpt lat="44.11704" lon="7.06672">
        <ele>1358.5999755859</ele>
        <time>2020-07-30T12:30:22.000Z</time>
      </trkpt>
      <trkpt lat="44.11712" lon="7.06675">
        <ele>1357.4000244141</ele>
        <time>2020-07-30T12:30:24.000Z</time>
      </trkpt>
      <trkpt lat="44.11719" lon="7.06678">
        <ele>1356.4000244141</ele>
        <time>2020-07-30T12:30:26.000Z</time>
      </trkpt>
      <trkpt lat="44.11723" lon="7.0668">
        <ele>1356</ele>
        <time>2020-07-30T12:30:27.000Z</time>
      </trkpt>
      <trkpt lat="44.11727" lon="7.06681">
        <ele>1355</ele>
        <time>2020-07-30T12:30:29.000Z</time>
      </trkpt>
      <trkpt lat="44.1173" lon="7.06682">
        <ele>1353.8000488281</ele>
        <time>2020-07-30T12:30:31.000Z</time>
      </trkpt>
      <trkpt lat="44.11733" lon="7.06685">
        <ele>1352.5999755859</ele>
        <time>2020-07-30T12:30:34.000Z</time>
      </trkpt>
      <trkpt lat="44.11735" lon="7.06687">
        <ele>1352.1999511719</ele>
        <time>2020-07-30T12:30:36.000Z</time>
      </trkpt>
      <trkpt lat="44.11736" lon="7.06689">
        <ele>1351.4000244141</ele>
        <time>2020-07-30T12:30:39.000Z</time>
      </trkpt>
      <trkpt lat="44.11737" lon="7.0669">
        <ele>1351</ele>
        <time>2020-07-30T12:30:42.000Z</time>
      </trkpt>
      <trkpt lat="44.11737" lon="7.06689">
        <ele>1351</ele>
        <time>2020-07-30T12:30:43.000Z</time>
      </trkpt>
      <trkpt lat="44.11737" lon="7.0669">
        <ele>1350.8000488281</ele>
        <time>2020-07-30T12:30:45.000Z</time>
      </trkpt>
      <trkpt lat="44.11737" lon="7.06691">
        <ele>1351</ele>
        <time>2020-07-30T12:30:46.000Z</time>
      </trkpt>
      <trkpt lat="44.11742" lon="7.06702">
        <ele>1351</ele>
        <time>2020-07-30T12:30:49.000Z</time>
      </trkpt>
      <trkpt lat="44.11746" lon="7.0672">
        <ele>1350.1999511719</ele>
        <time>2020-07-30T12:30:52.000Z</time>
      </trkpt>
      <trkpt lat="44.11746" lon="7.06726">
        <ele>1349.8000488281</ele>
        <time>2020-07-30T12:30:53.000Z</time>
      </trkpt>
      <trkpt lat="44.11743" lon="7.06737">
        <ele>1348.8000488281</ele>
        <time>2020-07-30T12:30:55.000Z</time>
      </trkpt>
      <trkpt lat="44.1174" lon="7.06745">
        <ele>1347.4000244141</ele>
        <time>2020-07-30T12:30:57.000Z</time>
      </trkpt>
      <trkpt lat="44.11738" lon="7.06749">
        <ele>1347.1999511719</ele>
        <time>2020-07-30T12:30:58.000Z</time>
      </trkpt>
      <trkpt lat="44.11736" lon="7.06751">
        <ele>1346.1999511719</ele>
        <time>2020-07-30T12:30:59.000Z</time>
      </trkpt>
      <trkpt lat="44.11731" lon="7.06755">
        <ele>1345.1999511719</ele>
        <time>2020-07-30T12:31:02.000Z</time>
      </trkpt>
      <trkpt lat="44.11724" lon="7.06767">
        <ele>1343.8000488281</ele>
        <time>2020-07-30T12:31:06.000Z</time>
      </trkpt>
      <trkpt lat="44.11722" lon="7.06773">
        <ele>1342.5999755859</ele>
        <time>2020-07-30T12:31:08.000Z</time>
      </trkpt>
      <trkpt lat="44.11719" lon="7.06779">
        <ele>1341</ele>
        <time>2020-07-30T12:31:10.000Z</time>
      </trkpt>
      <trkpt lat="44.11715" lon="7.06782">
        <ele>1339.8000488281</ele>
        <time>2020-07-30T12:31:12.000Z</time>
      </trkpt>
      <trkpt lat="44.11713" lon="7.06783">
        <ele>1338.5999755859</ele>
        <time>2020-07-30T12:31:15.000Z</time>
      </trkpt>
      <trkpt lat="44.11713" lon="7.06783">
        <ele>1338.4000244141</ele>
        <time>2020-07-30T12:31:16.000Z</time>
      </trkpt>
      <trkpt lat="44.11712" lon="7.06783">
        <ele>1338.4000244141</ele>
        <time>2020-07-30T12:31:33.000Z</time>
      </trkpt>
      <trkpt lat="44.11706" lon="7.06784">
        <ele>1338.4000244141</ele>
        <time>2020-07-30T12:31:37.000Z</time>
      </trkpt>
      <trkpt lat="44.11694" lon="7.06789">
        <ele>1338.4000244141</ele>
        <time>2020-07-30T12:31:41.000Z</time>
      </trkpt>
      <trkpt lat="44.11682" lon="7.06801">
        <ele>1337.1999511719</ele>
        <time>2020-07-30T12:31:44.000Z</time>
      </trkpt>
      <trkpt lat="44.11678" lon="7.06805">
        <ele>1336.4000244141</ele>
        <time>2020-07-30T12:31:45.000Z</time>
      </trkpt>
      <trkpt lat="44.11675" lon="7.06809">
        <ele>1335.1999511719</ele>
        <time>2020-07-30T12:31:46.000Z</time>
      </trkpt>
      <trkpt lat="44.11672" lon="7.06814">
        <ele>1333.8000488281</ele>
        <time>2020-07-30T12:31:48.000Z</time>
      </trkpt>
      <trkpt lat="44.11669" lon="7.06819">
        <ele>1333</ele>
        <time>2020-07-30T12:31:50.000Z</time>
      </trkpt>
      <trkpt lat="44.11664" lon="7.06829">
        <ele>1332.8000488281</ele>
        <time>2020-07-30T12:31:54.000Z</time>
      </trkpt>
      <trkpt lat="44.11662" lon="7.06835">
        <ele>1332.4000244141</ele>
        <time>2020-07-30T12:31:57.000Z</time>
      </trkpt>
      <trkpt lat="44.11662" lon="7.06837">
        <ele>1332</ele>
        <time>2020-07-30T12:32:01.000Z</time>
      </trkpt>
      <trkpt lat="44.11662" lon="7.06843">
        <ele>1331.8000488281</ele>
        <time>2020-07-30T12:32:16.000Z</time>
      </trkpt>
      <trkpt lat="44.11662" lon="7.06845">
        <ele>1331.5999755859</ele>
        <time>2020-07-30T12:32:18.000Z</time>
      </trkpt>
      <trkpt lat="44.11663" lon="7.06846">
        <ele>1331.1999511719</ele>
        <time>2020-07-30T12:32:21.000Z</time>
      </trkpt>
      <trkpt lat="44.11662" lon="7.06848">
        <ele>1330.8000488281</ele>
        <time>2020-07-30T12:32:31.000Z</time>
      </trkpt>
      <trkpt lat="44.1166" lon="7.06848">
        <ele>1331</ele>
        <time>2020-07-30T12:32:36.000Z</time>
      </trkpt>
      <trkpt lat="44.1166" lon="7.06848">
        <ele>1331.1999511719</ele>
        <time>2020-07-30T12:32:37.000Z</time>
      </trkpt>
      <trkpt lat="44.11657" lon="7.06852">
        <ele>1331.8000488281</ele>
        <time>2020-07-30T12:32:41.000Z</time>
      </trkpt>
      <trkpt lat="44.11656" lon="7.06855">
        <ele>1332</ele>
        <time>2020-07-30T12:32:46.000Z</time>
      </trkpt>
      <trkpt lat="44.11656" lon="7.06855">
        <ele>1332</ele>
        <time>2020-07-30T12:32:47.000Z</time>
      </trkpt>
      <trkpt lat="44.11652" lon="7.06869">
        <ele>1331.5999755859</ele>
        <time>2020-07-30T12:32:51.000Z</time>
      </trkpt>
      <trkpt lat="44.1165" lon="7.06878">
        <ele>1330.5999755859</ele>
        <time>2020-07-30T12:32:53.000Z</time>
      </trkpt>
      <trkpt lat="44.11651" lon="7.06881">
        <ele>1329.4000244141</ele>
        <time>2020-07-30T12:32:54.000Z</time>
      </trkpt>
      <trkpt lat="44.11653" lon="7.06884">
        <ele>1328.4000244141</ele>
        <time>2020-07-30T12:32:55.000Z</time>
      </trkpt>
      <trkpt lat="44.11659" lon="7.0689">
        <ele>1327.1999511719</ele>
        <time>2020-07-30T12:32:58.000Z</time>
      </trkpt>
      <trkpt lat="44.11659" lon="7.06892">
        <ele>1327.1999511719</ele>
        <time>2020-07-30T12:32:59.000Z</time>
      </trkpt>
      <trkpt lat="44.1166" lon="7.06895">
        <ele>1326.1999511719</ele>
        <time>2020-07-30T12:33:03.000Z</time>
      </trkpt>
      <trkpt lat="44.11661" lon="7.06897">
        <ele>1326</ele>
        <time>2020-07-30T12:33:04.000Z</time>
      </trkpt>
      <trkpt lat="44.11664" lon="7.0691">
        <ele>1325.5999755859</ele>
        <time>2020-07-30T12:33:08.000Z</time>
      </trkpt>
      <trkpt lat="44.11665" lon="7.06916">
        <ele>1325.5999755859</ele>
        <time>2020-07-30T12:33:09.000Z</time>
      </trkpt>
      <trkpt lat="44.11666" lon="7.06928">
        <ele>1324.8000488281</ele>
        <time>2020-07-30T12:33:11.000Z</time>
      </trkpt>
      <trkpt lat="44.11667" lon="7.06934">
        <ele>1324.5999755859</ele>
        <time>2020-07-30T12:33:12.000Z</time>
      </trkpt>
      <trkpt lat="44.11667" lon="7.06939">
        <ele>1324.1999511719</ele>
        <time>2020-07-30T12:33:13.000Z</time>
      </trkpt>
      <trkpt lat="44.11668" lon="7.06945">
        <ele>1323.8000488281</ele>
        <time>2020-07-30T12:33:14.000Z</time>
      </trkpt>
      <trkpt lat="44.11669" lon="7.06959">
        <ele>1323</ele>
        <time>2020-07-30T12:33:16.000Z</time>
      </trkpt>
      <trkpt lat="44.11668" lon="7.06968">
        <ele>1322.8000488281</ele>
        <time>2020-07-30T12:33:17.000Z</time>
      </trkpt>
      <trkpt lat="44.11666" lon="7.06985">
        <ele>1321</ele>
        <time>2020-07-30T12:33:19.000Z</time>
      </trkpt>
      <trkpt lat="44.11664" lon="7.06993">
        <ele>1320</ele>
        <time>2020-07-30T12:33:20.000Z</time>
      </trkpt>
      <trkpt lat="44.11662" lon="7.07001">
        <ele>1319.1999511719</ele>
        <time>2020-07-30T12:33:21.000Z</time>
      </trkpt>
      <trkpt lat="44.11657" lon="7.07015">
        <ele>1318.1999511719</ele>
        <time>2020-07-30T12:33:23.000Z</time>
      </trkpt>
      <trkpt lat="44.11653" lon="7.0703">
        <ele>1316.8000488281</ele>
        <time>2020-07-30T12:33:25.000Z</time>
      </trkpt>
      <trkpt lat="44.1165" lon="7.07044">
        <ele>1315.1999511719</ele>
        <time>2020-07-30T12:33:27.000Z</time>
      </trkpt>
      <trkpt lat="44.11646" lon="7.07057">
        <ele>1312.5999755859</ele>
        <time>2020-07-30T12:33:29.000Z</time>
      </trkpt>
      <trkpt lat="44.1164" lon="7.07069">
        <ele>1310.5999755859</ele>
        <time>2020-07-30T12:33:31.000Z</time>
      </trkpt>
      <trkpt lat="44.11637" lon="7.07074">
        <ele>1309.1999511719</ele>
        <time>2020-07-30T12:33:32.000Z</time>
      </trkpt>
      <trkpt lat="44.11635" lon="7.07078">
        <ele>1307.8000488281</ele>
        <time>2020-07-30T12:33:33.000Z</time>
      </trkpt>
      <trkpt lat="44.11632" lon="7.07085">
        <ele>1305.5999755859</ele>
        <time>2020-07-30T12:33:35.000Z</time>
      </trkpt>
      <trkpt lat="44.1163" lon="7.07097">
        <ele>1304.5999755859</ele>
        <time>2020-07-30T12:33:37.000Z</time>
      </trkpt>
      <trkpt lat="44.11629" lon="7.07104">
        <ele>1304.5999755859</ele>
        <time>2020-07-30T12:33:38.000Z</time>
      </trkpt>
      <trkpt lat="44.11626" lon="7.07116">
        <ele>1303.4000244141</ele>
        <time>2020-07-30T12:33:40.000Z</time>
      </trkpt>
      <trkpt lat="44.11625" lon="7.07122">
        <ele>1302.4000244141</ele>
        <time>2020-07-30T12:33:41.000Z</time>
      </trkpt>
      <trkpt lat="44.11623" lon="7.0713">
        <ele>1300.8000488281</ele>
        <time>2020-07-30T12:33:43.000Z</time>
      </trkpt>
      <trkpt lat="44.1162" lon="7.07138">
        <ele>1299</ele>
        <time>2020-07-30T12:33:45.000Z</time>
      </trkpt>
      <trkpt lat="44.11617" lon="7.07146">
        <ele>1297.5999755859</ele>
        <time>2020-07-30T12:33:47.000Z</time>
      </trkpt>
      <trkpt lat="44.11617" lon="7.07151">
        <ele>1297</ele>
        <time>2020-07-30T12:33:48.000Z</time>
      </trkpt>
      <trkpt lat="44.11617" lon="7.07158">
        <ele>1296.4000244141</ele>
        <time>2020-07-30T12:33:49.000Z</time>
      </trkpt>
      <trkpt lat="44.11618" lon="7.07174">
        <ele>1295.8000488281</ele>
        <time>2020-07-30T12:33:51.000Z</time>
      </trkpt>
      <trkpt lat="44.11619" lon="7.07182">
        <ele>1294.4000244141</ele>
        <time>2020-07-30T12:33:52.000Z</time>
      </trkpt>
      <trkpt lat="44.11623" lon="7.07199">
        <ele>1292.1999511719</ele>
        <time>2020-07-30T12:33:54.000Z</time>
      </trkpt>
      <trkpt lat="44.11625" lon="7.07207">
        <ele>1291.1999511719</ele>
        <time>2020-07-30T12:33:55.000Z</time>
      </trkpt>
      <trkpt lat="44.11625" lon="7.07216">
        <ele>1290.5999755859</ele>
        <time>2020-07-30T12:33:56.000Z</time>
      </trkpt>
      <trkpt lat="44.11625" lon="7.07231">
        <ele>1290.1999511719</ele>
        <time>2020-07-30T12:33:58.000Z</time>
      </trkpt>
      <trkpt lat="44.11623" lon="7.07236">
        <ele>1290</ele>
        <time>2020-07-30T12:33:59.000Z</time>
      </trkpt>
      <trkpt lat="44.11618" lon="7.07238">
        <ele>1288.8000488281</ele>
        <time>2020-07-30T12:34:01.000Z</time>
      </trkpt>
      <trkpt lat="44.11615" lon="7.07239">
        <ele>1288</ele>
        <time>2020-07-30T12:34:02.000Z</time>
      </trkpt>
      <trkpt lat="44.11613" lon="7.0724">
        <ele>1287.4000244141</ele>
        <time>2020-07-30T12:34:03.000Z</time>
      </trkpt>
      <trkpt lat="44.11607" lon="7.07241">
        <ele>1285.8000488281</ele>
        <time>2020-07-30T12:34:05.000Z</time>
      </trkpt>
      <trkpt lat="44.11602" lon="7.07244">
        <ele>1284.4000244141</ele>
        <time>2020-07-30T12:34:07.000Z</time>
      </trkpt>
      <trkpt lat="44.11601" lon="7.07247">
        <ele>1283.4000244141</ele>
        <time>2020-07-30T12:34:08.000Z</time>
      </trkpt>
      <trkpt lat="44.11598" lon="7.07253">
        <ele>1281.5999755859</ele>
        <time>2020-07-30T12:34:10.000Z</time>
      </trkpt>
      <trkpt lat="44.11597" lon="7.07256">
        <ele>1280.8000488281</ele>
        <time>2020-07-30T12:34:11.000Z</time>
      </trkpt>
      <trkpt lat="44.11597" lon="7.0726">
        <ele>1280</ele>
        <time>2020-07-30T12:34:12.000Z</time>
      </trkpt>
      <trkpt lat="44.11597" lon="7.07264">
        <ele>1279.5999755859</ele>
        <time>2020-07-30T12:34:13.000Z</time>
      </trkpt>
      <trkpt lat="44.11597" lon="7.07269">
        <ele>1278.8000488281</ele>
        <time>2020-07-30T12:34:14.000Z</time>
      </trkpt>
      <trkpt lat="44.11597" lon="7.07273">
        <ele>1278.1999511719</ele>
        <time>2020-07-30T12:34:15.000Z</time>
      </trkpt>
      <trkpt lat="44.11597" lon="7.07278">
        <ele>1277.4000244141</ele>
        <time>2020-07-30T12:34:16.000Z</time>
      </trkpt>
      <trkpt lat="44.11596" lon="7.07299">
        <ele>1275.8000488281</ele>
        <time>2020-07-30T12:34:19.000Z</time>
      </trkpt>
      <trkpt lat="44.11595" lon="7.07307">
        <ele>1274.5999755859</ele>
        <time>2020-07-30T12:34:20.000Z</time>
      </trkpt>
      <trkpt lat="44.11592" lon="7.07319">
        <ele>1272.5999755859</ele>
        <time>2020-07-30T12:34:22.000Z</time>
      </trkpt>
      <trkpt lat="44.1159" lon="7.07323">
        <ele>1271.4000244141</ele>
        <time>2020-07-30T12:34:23.000Z</time>
      </trkpt>
      <trkpt lat="44.11588" lon="7.07326">
        <ele>1270.1999511719</ele>
        <time>2020-07-30T12:34:24.000Z</time>
      </trkpt>
      <trkpt lat="44.11588" lon="7.07326">
        <ele>1269.4000244141</ele>
        <time>2020-07-30T12:34:25.000Z</time>
      </trkpt>
      <trkpt lat="44.11588" lon="7.07326">
        <ele>1268.8000488281</ele>
        <time>2020-07-30T12:34:26.000Z</time>
      </trkpt>
      <trkpt lat="44.11587" lon="7.07328">
        <ele>1267.5999755859</ele>
        <time>2020-07-30T12:34:29.000Z</time>
      </trkpt>
      <trkpt lat="44.11587" lon="7.07329">
        <ele>1267.1999511719</ele>
        <time>2020-07-30T12:34:31.000Z</time>
      </trkpt>
      <trkpt lat="44.11587" lon="7.07332">
        <ele>1266.8000488281</ele>
        <time>2020-07-30T12:34:38.000Z</time>
      </trkpt>
      <trkpt lat="44.11587" lon="7.07334">
        <ele>1266.5999755859</ele>
        <time>2020-07-30T12:34:41.000Z</time>
      </trkpt>
      <trkpt lat="44.11587" lon="7.07335">
        <ele>1266</ele>
        <time>2020-07-30T12:34:44.000Z</time>
      </trkpt>
      <trkpt lat="44.11589" lon="7.07338">
        <ele>1266</ele>
        <time>2020-07-30T12:34:49.000Z</time>
      </trkpt>
      <trkpt lat="44.11589" lon="7.07339">
        <ele>1266</ele>
        <time>2020-07-30T12:34:50.000Z</time>
      </trkpt>
      <trkpt lat="44.1159" lon="7.0734">
        <ele>1266</ele>
        <time>2020-07-30T12:34:56.000Z</time>
      </trkpt>
      <trkpt lat="44.11591" lon="7.07343">
        <ele>1265.8000488281</ele>
        <time>2020-07-30T12:34:59.000Z</time>
      </trkpt>
      <trkpt lat="44.11592" lon="7.07349">
        <ele>1265.8000488281</ele>
        <time>2020-07-30T12:35:01.000Z</time>
      </trkpt>
      <trkpt lat="44.11593" lon="7.07369">
        <ele>1265.5999755859</ele>
        <time>2020-07-30T12:35:05.000Z</time>
      </trkpt>
      <trkpt lat="44.11593" lon="7.07376">
        <ele>1265.1999511719</ele>
        <time>2020-07-30T12:35:06.000Z</time>
      </trkpt>
      <trkpt lat="44.11594" lon="7.07397">
        <ele>1263.5999755859</ele>
        <time>2020-07-30T12:35:09.000Z</time>
      </trkpt>
      <trkpt lat="44.11597" lon="7.07413">
        <ele>1262.4000244141</ele>
        <time>2020-07-30T12:35:11.000Z</time>
      </trkpt>
      <trkpt lat="44.11599" lon="7.0743">
        <ele>1261</ele>
        <time>2020-07-30T12:35:13.000Z</time>
      </trkpt>
      <trkpt lat="44.11601" lon="7.07439">
        <ele>1260.5999755859</ele>
        <time>2020-07-30T12:35:14.000Z</time>
      </trkpt>
      <trkpt lat="44.11603" lon="7.07447">
        <ele>1259.5999755859</ele>
        <time>2020-07-30T12:35:15.000Z</time>
      </trkpt>
      <trkpt lat="44.11605" lon="7.07455">
        <ele>1258.4000244141</ele>
        <time>2020-07-30T12:35:16.000Z</time>
      </trkpt>
      <trkpt lat="44.11605" lon="7.07462">
        <ele>1257.4000244141</ele>
        <time>2020-07-30T12:35:17.000Z</time>
      </trkpt>
      <trkpt lat="44.11605" lon="7.07474">
        <ele>1256</ele>
        <time>2020-07-30T12:35:19.000Z</time>
      </trkpt>
      <trkpt lat="44.11605" lon="7.07484">
        <ele>1255.4000244141</ele>
        <time>2020-07-30T12:35:21.000Z</time>
      </trkpt>
      <trkpt lat="44.11606" lon="7.0749">
        <ele>1254.4000244141</ele>
        <time>2020-07-30T12:35:22.000Z</time>
      </trkpt>
      <trkpt lat="44.11609" lon="7.07497">
        <ele>1253.1999511719</ele>
        <time>2020-07-30T12:35:23.000Z</time>
      </trkpt>
      <trkpt lat="44.11612" lon="7.07505">
        <ele>1252.1999511719</ele>
        <time>2020-07-30T12:35:24.000Z</time>
      </trkpt>
      <trkpt lat="44.11613" lon="7.07512">
        <ele>1251</ele>
        <time>2020-07-30T12:35:25.000Z</time>
      </trkpt>
      <trkpt lat="44.11614" lon="7.07527">
        <ele>1250</ele>
        <time>2020-07-30T12:35:27.000Z</time>
      </trkpt>
      <trkpt lat="44.11612" lon="7.0754">
        <ele>1248.8000488281</ele>
        <time>2020-07-30T12:35:29.000Z</time>
      </trkpt>
      <trkpt lat="44.11611" lon="7.07547">
        <ele>1247.5999755859</ele>
        <time>2020-07-30T12:35:30.000Z</time>
      </trkpt>
      <trkpt lat="44.1161" lon="7.07555">
        <ele>1246.4000244141</ele>
        <time>2020-07-30T12:35:31.000Z</time>
      </trkpt>
      <trkpt lat="44.11609" lon="7.07563">
        <ele>1245.4000244141</ele>
        <time>2020-07-30T12:35:32.000Z</time>
      </trkpt>
      <trkpt lat="44.11609" lon="7.0757">
        <ele>1244.1999511719</ele>
        <time>2020-07-30T12:35:33.000Z</time>
      </trkpt>
      <trkpt lat="44.11608" lon="7.07576">
        <ele>1242.1999511719</ele>
        <time>2020-07-30T12:35:34.000Z</time>
      </trkpt>
      <trkpt lat="44.11608" lon="7.07583">
        <ele>1240.5999755859</ele>
        <time>2020-07-30T12:35:35.000Z</time>
      </trkpt>
      <trkpt lat="44.11608" lon="7.0759">
        <ele>1239.4000244141</ele>
        <time>2020-07-30T12:35:36.000Z</time>
      </trkpt>
      <trkpt lat="44.11608" lon="7.07595">
        <ele>1237.8000488281</ele>
        <time>2020-07-30T12:35:37.000Z</time>
      </trkpt>
      <trkpt lat="44.11608" lon="7.07599">
        <ele>1236.5999755859</ele>
        <time>2020-07-30T12:35:38.000Z</time>
      </trkpt>
      <trkpt lat="44.1161" lon="7.07605">
        <ele>1235.4000244141</ele>
        <time>2020-07-30T12:35:39.000Z</time>
      </trkpt>
      <trkpt lat="44.11614" lon="7.07617">
        <ele>1233.4000244141</ele>
        <time>2020-07-30T12:35:41.000Z</time>
      </trkpt>
      <trkpt lat="44.11619" lon="7.07632">
        <ele>1231.8000488281</ele>
        <time>2020-07-30T12:35:43.000Z</time>
      </trkpt>
      <trkpt lat="44.11622" lon="7.07641">
        <ele>1231.4000244141</ele>
        <time>2020-07-30T12:35:44.000Z</time>
      </trkpt>
      <trkpt lat="44.11624" lon="7.07652">
        <ele>1230.4000244141</ele>
        <time>2020-07-30T12:35:45.000Z</time>
      </trkpt>
      <trkpt lat="44.11626" lon="7.07662">
        <ele>1229.1999511719</ele>
        <time>2020-07-30T12:35:46.000Z</time>
      </trkpt>
      <trkpt lat="44.11628" lon="7.07682">
        <ele>1227.1999511719</ele>
        <time>2020-07-30T12:35:48.000Z</time>
      </trkpt>
      <trkpt lat="44.11629" lon="7.07692">
        <ele>1226</ele>
        <time>2020-07-30T12:35:49.000Z</time>
      </trkpt>
      <trkpt lat="44.11629" lon="7.07701">
        <ele>1224.5999755859</ele>
        <time>2020-07-30T12:35:50.000Z</time>
      </trkpt>
      <trkpt lat="44.11631" lon="7.07709">
        <ele>1223.1999511719</ele>
        <time>2020-07-30T12:35:51.000Z</time>
      </trkpt>
      <trkpt lat="44.11632" lon="7.07716">
        <ele>1222.4000244141</ele>
        <time>2020-07-30T12:35:52.000Z</time>
      </trkpt>
      <trkpt lat="44.11634" lon="7.07724">
        <ele>1221.1999511719</ele>
        <time>2020-07-30T12:35:53.000Z</time>
      </trkpt>
      <trkpt lat="44.11638" lon="7.07738">
        <ele>1219.1999511719</ele>
        <time>2020-07-30T12:35:55.000Z</time>
      </trkpt>
      <trkpt lat="44.1164" lon="7.07746">
        <ele>1218</ele>
        <time>2020-07-30T12:35:56.000Z</time>
      </trkpt>
      <trkpt lat="44.11643" lon="7.07752">
        <ele>1216.1999511719</ele>
        <time>2020-07-30T12:35:57.000Z</time>
      </trkpt>
      <trkpt lat="44.11645" lon="7.07759">
        <ele>1215.1999511719</ele>
        <time>2020-07-30T12:35:58.000Z</time>
      </trkpt>
      <trkpt lat="44.11647" lon="7.0776">
        <ele>1213.1999511719</ele>
        <time>2020-07-30T12:35:59.000Z</time>
      </trkpt>
      <trkpt lat="44.11648" lon="7.0776">
        <ele>1211.5999755859</ele>
        <time>2020-07-30T12:36:00.000Z</time>
      </trkpt>
      <trkpt lat="44.1165" lon="7.07755">
        <ele>1209.8000488281</ele>
        <time>2020-07-30T12:36:02.000Z</time>
      </trkpt>
      <trkpt lat="44.11652" lon="7.07752">
        <ele>1209.1999511719</ele>
        <time>2020-07-30T12:36:03.000Z</time>
      </trkpt>
      <trkpt lat="44.11653" lon="7.07752">
        <ele>1208.5999755859</ele>
        <time>2020-07-30T12:36:04.000Z</time>
      </trkpt>
      <trkpt lat="44.11655" lon="7.07757">
        <ele>1207.4000244141</ele>
        <time>2020-07-30T12:36:06.000Z</time>
      </trkpt>
      <trkpt lat="44.11656" lon="7.07761">
        <ele>1206.5999755859</ele>
        <time>2020-07-30T12:36:07.000Z</time>
      </trkpt>
      <trkpt lat="44.11657" lon="7.07764">
        <ele>1206</ele>
        <time>2020-07-30T12:36:08.000Z</time>
      </trkpt>
      <trkpt lat="44.11657" lon="7.07766">
        <ele>1204.4000244141</ele>
        <time>2020-07-30T12:36:10.000Z</time>
      </trkpt>
      <trkpt lat="44.11657" lon="7.07767">
        <ele>1203.4000244141</ele>
        <time>2020-07-30T12:36:12.000Z</time>
      </trkpt>
      <trkpt lat="44.11657" lon="7.07766">
        <ele>1202.5999755859</ele>
        <time>2020-07-30T12:36:22.000Z</time>
      </trkpt>
      <trkpt lat="44.11656" lon="7.07767">
        <ele>1202.4000244141</ele>
        <time>2020-07-30T12:36:30.000Z</time>
      </trkpt>
      <trkpt lat="44.11656" lon="7.0777">
        <ele>1202.4000244141</ele>
        <time>2020-07-30T12:36:41.000Z</time>
      </trkpt>
      <trkpt lat="44.11656" lon="7.07771">
        <ele>1202.4000244141</ele>
        <time>2020-07-30T12:36:42.000Z</time>
      </trkpt>
      <trkpt lat="44.11659" lon="7.07772">
        <ele>1202</ele>
        <time>2020-07-30T12:36:44.000Z</time>
      </trkpt>
      <trkpt lat="44.11661" lon="7.07773">
        <ele>1201.8000488281</ele>
        <time>2020-07-30T12:36:45.000Z</time>
      </trkpt>
      <trkpt lat="44.11663" lon="7.07779">
        <ele>1201</ele>
        <time>2020-07-30T12:36:47.000Z</time>
      </trkpt>
      <trkpt lat="44.11663" lon="7.07783">
        <ele>1200.4000244141</ele>
        <time>2020-07-30T12:36:48.000Z</time>
      </trkpt>
      <trkpt lat="44.11661" lon="7.07787">
        <ele>1199.8000488281</ele>
        <time>2020-07-30T12:36:49.000Z</time>
      </trkpt>
      <trkpt lat="44.11658" lon="7.07791">
        <ele>1198</ele>
        <time>2020-07-30T12:36:51.000Z</time>
      </trkpt>
      <trkpt lat="44.11659" lon="7.07793">
        <ele>1196.8000488281</ele>
        <time>2020-07-30T12:36:53.000Z</time>
      </trkpt>
      <trkpt lat="44.11661" lon="7.07794">
        <ele>1196</ele>
        <time>2020-07-30T12:36:54.000Z</time>
      </trkpt>
      <trkpt lat="44.11664" lon="7.07794">
        <ele>1195.4000244141</ele>
        <time>2020-07-30T12:36:55.000Z</time>
      </trkpt>
      <trkpt lat="44.11668" lon="7.07794">
        <ele>1194.1999511719</ele>
        <time>2020-07-30T12:36:58.000Z</time>
      </trkpt>
      <trkpt lat="44.11668" lon="7.07794">
        <ele>1192.5999755859</ele>
        <time>2020-07-30T12:37:00.000Z</time>
      </trkpt>
      <trkpt lat="44.11668" lon="7.07793">
        <ele>1191.8000488281</ele>
        <time>2020-07-30T12:37:04.000Z</time>
      </trkpt>
      <trkpt lat="44.11669" lon="7.07794">
        <ele>1191.8000488281</ele>
        <time>2020-07-30T12:37:07.000Z</time>
      </trkpt>
      <trkpt lat="44.11673" lon="7.07792">
        <ele>1191.8000488281</ele>
        <time>2020-07-30T12:37:09.000Z</time>
      </trkpt>
      <trkpt lat="44.11675" lon="7.0779">
        <ele>1191.5999755859</ele>
        <time>2020-07-30T12:37:10.000Z</time>
      </trkpt>
      <trkpt lat="44.11679" lon="7.07789">
        <ele>1190.5999755859</ele>
        <time>2020-07-30T12:37:13.000Z</time>
      </trkpt>
      <trkpt lat="44.1168" lon="7.07789">
        <ele>1190.1999511719</ele>
        <time>2020-07-30T12:37:14.000Z</time>
      </trkpt>
      <trkpt lat="44.11681" lon="7.0779">
        <ele>1189.8000488281</ele>
        <time>2020-07-30T12:37:15.000Z</time>
      </trkpt>
      <trkpt lat="44.11683" lon="7.07795">
        <ele>1188.5999755859</ele>
        <time>2020-07-30T12:37:17.000Z</time>
      </trkpt>
      <trkpt lat="44.11685" lon="7.07804">
        <ele>1187.1999511719</ele>
        <time>2020-07-30T12:37:19.000Z</time>
      </trkpt>
      <trkpt lat="44.11685" lon="7.07812">
        <ele>1185.8000488281</ele>
        <time>2020-07-30T12:37:21.000Z</time>
      </trkpt>
      <trkpt lat="44.11684" lon="7.07814">
        <ele>1184.8000488281</ele>
        <time>2020-07-30T12:37:22.000Z</time>
      </trkpt>
      <trkpt lat="44.11684" lon="7.07816">
        <ele>1184.1999511719</ele>
        <time>2020-07-30T12:37:23.000Z</time>
      </trkpt>
      <trkpt lat="44.11686" lon="7.07815">
        <ele>1182.8000488281</ele>
        <time>2020-07-30T12:37:25.000Z</time>
      </trkpt>
      <trkpt lat="44.11692" lon="7.07807">
        <ele>1181.4000244141</ele>
        <time>2020-07-30T12:37:28.000Z</time>
      </trkpt>
      <trkpt lat="44.11695" lon="7.07806">
        <ele>1180.4000244141</ele>
        <time>2020-07-30T12:37:30.000Z</time>
      </trkpt>
      <trkpt lat="44.11697" lon="7.07806">
        <ele>1179.8000488281</ele>
        <time>2020-07-30T12:37:31.000Z</time>
      </trkpt>
      <trkpt lat="44.11697" lon="7.07807">
        <ele>1179.4000244141</ele>
        <time>2020-07-30T12:37:32.000Z</time>
      </trkpt>
      <trkpt lat="44.11697" lon="7.07808">
        <ele>1178</ele>
        <time>2020-07-30T12:37:35.000Z</time>
      </trkpt>
      <trkpt lat="44.11698" lon="7.07808">
        <ele>1177</ele>
        <time>2020-07-30T12:37:40.000Z</time>
      </trkpt>
      <trkpt lat="44.11697" lon="7.07814">
        <ele>1177</ele>
        <time>2020-07-30T12:37:47.000Z</time>
      </trkpt>
      <trkpt lat="44.11699" lon="7.07829">
        <ele>1176.5999755859</ele>
        <time>2020-07-30T12:37:51.000Z</time>
      </trkpt>
      <trkpt lat="44.11706" lon="7.07827">
        <ele>1176.4000244141</ele>
        <time>2020-07-30T12:37:54.000Z</time>
      </trkpt>
      <trkpt lat="44.11708" lon="7.07826">
        <ele>1175.8000488281</ele>
        <time>2020-07-30T12:37:55.000Z</time>
      </trkpt>
      <trkpt lat="44.11712" lon="7.07824">
        <ele>1174.5999755859</ele>
        <time>2020-07-30T12:37:57.000Z</time>
      </trkpt>
      <trkpt lat="44.11713" lon="7.07823">
        <ele>1174</ele>
        <time>2020-07-30T12:37:58.000Z</time>
      </trkpt>
      <trkpt lat="44.11715" lon="7.07823">
        <ele>1173.4000244141</ele>
        <time>2020-07-30T12:37:59.000Z</time>
      </trkpt>
      <trkpt lat="44.11717" lon="7.07826">
        <ele>1171.8000488281</ele>
        <time>2020-07-30T12:38:01.000Z</time>
      </trkpt>
      <trkpt lat="44.11719" lon="7.0783">
        <ele>1170.5999755859</ele>
        <time>2020-07-30T12:38:03.000Z</time>
      </trkpt>
      <trkpt lat="44.11721" lon="7.07832">
        <ele>1169.1999511719</ele>
        <time>2020-07-30T12:38:05.000Z</time>
      </trkpt>
      <trkpt lat="44.11721" lon="7.07832">
        <ele>1168</ele>
        <time>2020-07-30T12:38:07.000Z</time>
      </trkpt>
      <trkpt lat="44.11725" lon="7.07832">
        <ele>1167</ele>
        <time>2020-07-30T12:38:09.000Z</time>
      </trkpt>
      <trkpt lat="44.11727" lon="7.07834">
        <ele>1166.5999755859</ele>
        <time>2020-07-30T12:38:10.000Z</time>
      </trkpt>
      <trkpt lat="44.11728" lon="7.07837">
        <ele>1166</ele>
        <time>2020-07-30T12:38:11.000Z</time>
      </trkpt>
      <trkpt lat="44.1173" lon="7.07842">
        <ele>1165.4000244141</ele>
        <time>2020-07-30T12:38:12.000Z</time>
      </trkpt>
      <trkpt lat="44.1173" lon="7.07848">
        <ele>1164.8000488281</ele>
        <time>2020-07-30T12:38:13.000Z</time>
      </trkpt>
      <trkpt lat="44.11731" lon="7.07855">
        <ele>1163.5999755859</ele>
        <time>2020-07-30T12:38:15.000Z</time>
      </trkpt>
      <trkpt lat="44.11735" lon="7.07855">
        <ele>1162.1999511719</ele>
        <time>2020-07-30T12:38:18.000Z</time>
      </trkpt>
      <trkpt lat="44.11739" lon="7.07851">
        <ele>1161.1999511719</ele>
        <time>2020-07-30T12:38:20.000Z</time>
      </trkpt>
      <trkpt lat="44.11741" lon="7.07851">
        <ele>1160.1999511719</ele>
        <time>2020-07-30T12:38:21.000Z</time>
      </trkpt>
      <trkpt lat="44.11741" lon="7.07852">
        <ele>1159.1999511719</ele>
        <time>2020-07-30T12:38:22.000Z</time>
      </trkpt>
      <trkpt lat="44.11742" lon="7.07853">
        <ele>1158.8000488281</ele>
        <time>2020-07-30T12:38:23.000Z</time>
      </trkpt>
      <trkpt lat="44.11743" lon="7.07854">
        <ele>1158.1999511719</ele>
        <time>2020-07-30T12:38:24.000Z</time>
      </trkpt>
      <trkpt lat="44.11744" lon="7.07856">
        <ele>1157.4000244141</ele>
        <time>2020-07-30T12:38:25.000Z</time>
      </trkpt>
      <trkpt lat="44.11745" lon="7.07858">
        <ele>1157</ele>
        <time>2020-07-30T12:38:26.000Z</time>
      </trkpt>
      <trkpt lat="44.11746" lon="7.07861">
        <ele>1156.4000244141</ele>
        <time>2020-07-30T12:38:28.000Z</time>
      </trkpt>
      <trkpt lat="44.11747" lon="7.0786">
        <ele>1155</ele>
        <time>2020-07-30T12:38:29.000Z</time>
      </trkpt>
      <trkpt lat="44.11748" lon="7.07861">
        <ele>1154.4000244141</ele>
        <time>2020-07-30T12:38:30.000Z</time>
      </trkpt>
      <trkpt lat="44.11749" lon="7.07863">
        <ele>1154.1999511719</ele>
        <time>2020-07-30T12:38:31.000Z</time>
      </trkpt>
      <trkpt lat="44.1175" lon="7.07868">
        <ele>1153.8000488281</ele>
        <time>2020-07-30T12:38:33.000Z</time>
      </trkpt>
      <trkpt lat="44.11749" lon="7.0787">
        <ele>1153.4000244141</ele>
        <time>2020-07-30T12:38:34.000Z</time>
      </trkpt>
      <trkpt lat="44.11748" lon="7.07872">
        <ele>1152.1999511719</ele>
        <time>2020-07-30T12:38:36.000Z</time>
      </trkpt>
      <trkpt lat="44.11748" lon="7.07874">
        <ele>1150.8000488281</ele>
        <time>2020-07-30T12:38:38.000Z</time>
      </trkpt>
      <trkpt lat="44.11751" lon="7.07873">
        <ele>1149.1999511719</ele>
        <time>2020-07-30T12:38:40.000Z</time>
      </trkpt>
      <trkpt lat="44.11756" lon="7.07869">
        <ele>1148</ele>
        <time>2020-07-30T12:38:42.000Z</time>
      </trkpt>
      <trkpt lat="44.11759" lon="7.07867">
        <ele>1147.1999511719</ele>
        <time>2020-07-30T12:38:44.000Z</time>
      </trkpt>
      <trkpt lat="44.1176" lon="7.07869">
        <ele>1146.5999755859</ele>
        <time>2020-07-30T12:38:45.000Z</time>
      </trkpt>
      <trkpt lat="44.11759" lon="7.07877">
        <ele>1145</ele>
        <time>2020-07-30T12:38:47.000Z</time>
      </trkpt>
      <trkpt lat="44.1176" lon="7.0788">
        <ele>1144</ele>
        <time>2020-07-30T12:38:48.000Z</time>
      </trkpt>
      <trkpt lat="44.11763" lon="7.07882">
        <ele>1142.8000488281</ele>
        <time>2020-07-30T12:38:49.000Z</time>
      </trkpt>
      <trkpt lat="44.11766" lon="7.07885">
        <ele>1142</ele>
        <time>2020-07-30T12:38:50.000Z</time>
      </trkpt>
      <trkpt lat="44.11769" lon="7.07887">
        <ele>1141</ele>
        <time>2020-07-30T12:38:51.000Z</time>
      </trkpt>
      <trkpt lat="44.11771" lon="7.07891">
        <ele>1139.8000488281</ele>
        <time>2020-07-30T12:38:52.000Z</time>
      </trkpt>
      <trkpt lat="44.11772" lon="7.07896">
        <ele>1138.8000488281</ele>
        <time>2020-07-30T12:38:53.000Z</time>
      </trkpt>
      <trkpt lat="44.11775" lon="7.07901">
        <ele>1137.8000488281</ele>
        <time>2020-07-30T12:38:54.000Z</time>
      </trkpt>
      <trkpt lat="44.11778" lon="7.07903">
        <ele>1136.5999755859</ele>
        <time>2020-07-30T12:38:55.000Z</time>
      </trkpt>
      <trkpt lat="44.1178" lon="7.07903">
        <ele>1135.4000244141</ele>
        <time>2020-07-30T12:38:56.000Z</time>
      </trkpt>
      <trkpt lat="44.11781" lon="7.07903">
        <ele>1133.8000488281</ele>
        <time>2020-07-30T12:38:57.000Z</time>
      </trkpt>
      <trkpt lat="44.11781" lon="7.07903">
        <ele>1132</ele>
        <time>2020-07-30T12:38:59.000Z</time>
      </trkpt>
      <trkpt lat="44.11781" lon="7.07902">
        <ele>1131.1999511719</ele>
        <time>2020-07-30T12:39:00.000Z</time>
      </trkpt>
      <trkpt lat="44.11781" lon="7.07902">
        <ele>1130.8000488281</ele>
        <time>2020-07-30T12:39:01.000Z</time>
      </trkpt>
      <trkpt lat="44.1178" lon="7.07901">
        <ele>1130.1999511719</ele>
        <time>2020-07-30T12:39:08.000Z</time>
      </trkpt>
      <trkpt lat="44.1178" lon="7.07899">
        <ele>1129.5999755859</ele>
        <time>2020-07-30T12:39:12.000Z</time>
      </trkpt>
      <trkpt lat="44.11783" lon="7.079">
        <ele>1128.8000488281</ele>
        <time>2020-07-30T12:39:16.000Z</time>
      </trkpt>
      <trkpt lat="44.11785" lon="7.07902">
        <ele>1128.5999755859</ele>
        <time>2020-07-30T12:39:17.000Z</time>
      </trkpt>
      <trkpt lat="44.11784" lon="7.07909">
        <ele>1128.1999511719</ele>
        <time>2020-07-30T12:39:19.000Z</time>
      </trkpt>
      <trkpt lat="44.11779" lon="7.07923">
        <ele>1127.1999511719</ele>
        <time>2020-07-30T12:39:22.000Z</time>
      </trkpt>
      <trkpt lat="44.11776" lon="7.07926">
        <ele>1126.1999511719</ele>
        <time>2020-07-30T12:39:23.000Z</time>
      </trkpt>
      <trkpt lat="44.11772" lon="7.0793">
        <ele>1125</ele>
        <time>2020-07-30T12:39:24.000Z</time>
      </trkpt>
      <trkpt lat="44.11768" lon="7.07933">
        <ele>1123.5999755859</ele>
        <time>2020-07-30T12:39:25.000Z</time>
      </trkpt>
      <trkpt lat="44.11763" lon="7.07936">
        <ele>1122.1999511719</ele>
        <time>2020-07-30T12:39:26.000Z</time>
      </trkpt>
      <trkpt lat="44.11759" lon="7.07939">
        <ele>1120.8000488281</ele>
        <time>2020-07-30T12:39:27.000Z</time>
      </trkpt>
      <trkpt lat="44.11756" lon="7.07942">
        <ele>1120</ele>
        <time>2020-07-30T12:39:28.000Z</time>
      </trkpt>
      <trkpt lat="44.11752" lon="7.07945">
        <ele>1118.5999755859</ele>
        <time>2020-07-30T12:39:29.000Z</time>
      </trkpt>
      <trkpt lat="44.11745" lon="7.07952">
        <ele>1116.1999511719</ele>
        <time>2020-07-30T12:39:31.000Z</time>
      </trkpt>
      <trkpt lat="44.11741" lon="7.07957">
        <ele>1114.4000244141</ele>
        <time>2020-07-30T12:39:32.000Z</time>
      </trkpt>
      <trkpt lat="44.11735" lon="7.07968">
        <ele>1112.5999755859</ele>
        <time>2020-07-30T12:39:34.000Z</time>
      </trkpt>
      <trkpt lat="44.11732" lon="7.07974">
        <ele>1111.1999511719</ele>
        <time>2020-07-30T12:39:35.000Z</time>
      </trkpt>
      <trkpt lat="44.11729" lon="7.07981">
        <ele>1109.5999755859</ele>
        <time>2020-07-30T12:39:36.000Z</time>
      </trkpt>
      <trkpt lat="44.11722" lon="7.07992">
        <ele>1107.4000244141</ele>
        <time>2020-07-30T12:39:38.000Z</time>
      </trkpt>
      <trkpt lat="44.11715" lon="7.07998">
        <ele>1105</ele>
        <time>2020-07-30T12:39:40.000Z</time>
      </trkpt>
      <trkpt lat="44.11711" lon="7.08">
        <ele>1103.5999755859</ele>
        <time>2020-07-30T12:39:41.000Z</time>
      </trkpt>
      <trkpt lat="44.11709" lon="7.08003">
        <ele>1102.4000244141</ele>
        <time>2020-07-30T12:39:42.000Z</time>
      </trkpt>
      <trkpt lat="44.11708" lon="7.08006">
        <ele>1101.4000244141</ele>
        <time>2020-07-30T12:39:43.000Z</time>
      </trkpt>
      <trkpt lat="44.11703" lon="7.08018">
        <ele>1100</ele>
        <time>2020-07-30T12:39:45.000Z</time>
      </trkpt>
      <trkpt lat="44.11701" lon="7.08023">
        <ele>1099.1999511719</ele>
        <time>2020-07-30T12:39:46.000Z</time>
      </trkpt>
      <trkpt lat="44.11699" lon="7.08028">
        <ele>1098.5999755859</ele>
        <time>2020-07-30T12:39:47.000Z</time>
      </trkpt>
      <trkpt lat="44.11698" lon="7.08029">
        <ele>1097.4000244141</ele>
        <time>2020-07-30T12:39:48.000Z</time>
      </trkpt>
      <trkpt lat="44.11696" lon="7.0803">
        <ele>1096.1999511719</ele>
        <time>2020-07-30T12:39:49.000Z</time>
      </trkpt>
      <trkpt lat="44.11695" lon="7.08031">
        <ele>1094.4000244141</ele>
        <time>2020-07-30T12:39:50.000Z</time>
      </trkpt>
      <trkpt lat="44.11694" lon="7.08031">
        <ele>1093.4000244141</ele>
        <time>2020-07-30T12:39:51.000Z</time>
      </trkpt>
      <trkpt lat="44.11693" lon="7.08031">
        <ele>1092</ele>
        <time>2020-07-30T12:39:53.000Z</time>
      </trkpt>
      <trkpt lat="44.11693" lon="7.08031">
        <ele>1091.8000488281</ele>
        <time>2020-07-30T12:39:54.000Z</time>
      </trkpt>
      <trkpt lat="44.11692" lon="7.08031">
        <ele>1091</ele>
        <time>2020-07-30T12:39:58.000Z</time>
      </trkpt>
      <trkpt lat="44.11691" lon="7.0803">
        <ele>1090.5999755859</ele>
        <time>2020-07-30T12:40:06.000Z</time>
      </trkpt>
      <trkpt lat="44.11686" lon="7.0803">
        <ele>1091.1999511719</ele>
        <time>2020-07-30T12:40:12.000Z</time>
      </trkpt>
      <trkpt lat="44.11684" lon="7.08033">
        <ele>1090.5999755859</ele>
        <time>2020-07-30T12:40:20.000Z</time>
      </trkpt>
      <trkpt lat="44.11683" lon="7.08033">
        <ele>1089.8000488281</ele>
        <time>2020-07-30T12:40:23.000Z</time>
      </trkpt>
      <trkpt lat="44.11682" lon="7.08035">
        <ele>1089.4000244141</ele>
        <time>2020-07-30T12:40:25.000Z</time>
      </trkpt>
      <trkpt lat="44.11681" lon="7.08035">
        <ele>1089</ele>
        <time>2020-07-30T12:40:26.000Z</time>
      </trkpt>
      <trkpt lat="44.11682" lon="7.08035">
        <ele>1088.8000488281</ele>
        <time>2020-07-30T12:40:27.000Z</time>
      </trkpt>
      <trkpt lat="44.11679" lon="7.08038">
        <ele>1087.8000488281</ele>
        <time>2020-07-30T12:40:31.000Z</time>
      </trkpt>
      <trkpt lat="44.11679" lon="7.08039">
        <ele>1087.5999755859</ele>
        <time>2020-07-30T12:40:32.000Z</time>
      </trkpt>
      <trkpt lat="44.11686" lon="7.08044">
        <ele>1086.5999755859</ele>
        <time>2020-07-30T12:40:35.000Z</time>
      </trkpt>
      <trkpt lat="44.1169" lon="7.08045">
        <ele>1086.1999511719</ele>
        <time>2020-07-30T12:40:36.000Z</time>
      </trkpt>
      <trkpt lat="44.11698" lon="7.08046">
        <ele>1084.4000244141</ele>
        <time>2020-07-30T12:40:38.000Z</time>
      </trkpt>
      <trkpt lat="44.11701" lon="7.08046">
        <ele>1083.1999511719</ele>
        <time>2020-07-30T12:40:39.000Z</time>
      </trkpt>
      <trkpt lat="44.11702" lon="7.08045">
        <ele>1082</ele>
        <time>2020-07-30T12:40:40.000Z</time>
      </trkpt>
      <trkpt lat="44.11702" lon="7.08045">
        <ele>1080.8000488281</ele>
        <time>2020-07-30T12:40:41.000Z</time>
      </trkpt>
      <trkpt lat="44.11704" lon="7.08045">
        <ele>1079.8000488281</ele>
        <time>2020-07-30T12:40:42.000Z</time>
      </trkpt>
      <trkpt lat="44.11704" lon="7.08046">
        <ele>1079.1999511719</ele>
        <time>2020-07-30T12:40:43.000Z</time>
      </trkpt>
      <trkpt lat="44.11703" lon="7.08048">
        <ele>1078.5999755859</ele>
        <time>2020-07-30T12:40:45.000Z</time>
      </trkpt>
      <trkpt lat="44.11703" lon="7.08048">
        <ele>1078.5999755859</ele>
        <time>2020-07-30T12:40:47.000Z</time>
      </trkpt>
      <trkpt lat="44.11701" lon="7.0805">
        <ele>1077.5999755859</ele>
        <time>2020-07-30T12:40:52.000Z</time>
      </trkpt>
      <trkpt lat="44.117" lon="7.08049">
        <ele>1077.5999755859</ele>
        <time>2020-07-30T12:40:53.000Z</time>
      </trkpt>
      <trkpt lat="44.11699" lon="7.0805">
        <ele>1077.5999755859</ele>
        <time>2020-07-30T12:40:54.000Z</time>
      </trkpt>
      <trkpt lat="44.11694" lon="7.08055">
        <ele>1077.1999511719</ele>
        <time>2020-07-30T12:40:57.000Z</time>
      </trkpt>
      <trkpt lat="44.11691" lon="7.08058">
        <ele>1077</ele>
        <time>2020-07-30T12:40:58.000Z</time>
      </trkpt>
      <trkpt lat="44.11689" lon="7.08063">
        <ele>1076.5999755859</ele>
        <time>2020-07-30T12:40:59.000Z</time>
      </trkpt>
      <trkpt lat="44.11684" lon="7.08069">
        <ele>1075</ele>
        <time>2020-07-30T12:41:01.000Z</time>
      </trkpt>
      <trkpt lat="44.11682" lon="7.0807">
        <ele>1074.1999511719</ele>
        <time>2020-07-30T12:41:02.000Z</time>
      </trkpt>
      <trkpt lat="44.11682" lon="7.08071">
        <ele>1073.5999755859</ele>
        <time>2020-07-30T12:41:03.000Z</time>
      </trkpt>
      <trkpt lat="44.11684" lon="7.08074">
        <ele>1072</ele>
        <time>2020-07-30T12:41:05.000Z</time>
      </trkpt>
      <trkpt lat="44.11695" lon="7.08078">
        <ele>1070.5999755859</ele>
        <time>2020-07-30T12:41:08.000Z</time>
      </trkpt>
      <trkpt lat="44.11705" lon="7.08079">
        <ele>1069</ele>
        <time>2020-07-30T12:41:10.000Z</time>
      </trkpt>
      <trkpt lat="44.1171" lon="7.08079">
        <ele>1067.8000488281</ele>
        <time>2020-07-30T12:41:11.000Z</time>
      </trkpt>
      <trkpt lat="44.11713" lon="7.08078">
        <ele>1066.5999755859</ele>
        <time>2020-07-30T12:41:12.000Z</time>
      </trkpt>
      <trkpt lat="44.11716" lon="7.08079">
        <ele>1065.4000244141</ele>
        <time>2020-07-30T12:41:13.000Z</time>
      </trkpt>
      <trkpt lat="44.11716" lon="7.08081">
        <ele>1064.1999511719</ele>
        <time>2020-07-30T12:41:14.000Z</time>
      </trkpt>
      <trkpt lat="44.11713" lon="7.08086">
        <ele>1062.4000244141</ele>
        <time>2020-07-30T12:41:16.000Z</time>
      </trkpt>
      <trkpt lat="44.11711" lon="7.0809">
        <ele>1061</ele>
        <time>2020-07-30T12:41:18.000Z</time>
      </trkpt>
      <trkpt lat="44.11711" lon="7.08092">
        <ele>1060.1999511719</ele>
        <time>2020-07-30T12:41:19.000Z</time>
      </trkpt>
      <trkpt lat="44.11713" lon="7.08092">
        <ele>1059.4000244141</ele>
        <time>2020-07-30T12:41:20.000Z</time>
      </trkpt>
      <trkpt lat="44.11719" lon="7.08094">
        <ele>1058.4000244141</ele>
        <time>2020-07-30T12:41:22.000Z</time>
      </trkpt>
      <trkpt lat="44.11721" lon="7.08094">
        <ele>1057.8000488281</ele>
        <time>2020-07-30T12:41:23.000Z</time>
      </trkpt>
      <trkpt lat="44.11724" lon="7.08094">
        <ele>1056.5999755859</ele>
        <time>2020-07-30T12:41:25.000Z</time>
      </trkpt>
      <trkpt lat="44.11725" lon="7.08095">
        <ele>1055.5999755859</ele>
        <time>2020-07-30T12:41:26.000Z</time>
      </trkpt>
      <trkpt lat="44.11725" lon="7.08096">
        <ele>1054.4000244141</ele>
        <time>2020-07-30T12:41:27.000Z</time>
      </trkpt>
      <trkpt lat="44.11724" lon="7.08098">
        <ele>1052.5999755859</ele>
        <time>2020-07-30T12:41:29.000Z</time>
      </trkpt>
      <trkpt lat="44.11722" lon="7.08102">
        <ele>1051.5999755859</ele>
        <time>2020-07-30T12:41:31.000Z</time>
      </trkpt>
      <trkpt lat="44.11722" lon="7.08104">
        <ele>1051.1999511719</ele>
        <time>2020-07-30T12:41:32.000Z</time>
      </trkpt>
      <trkpt lat="44.11726" lon="7.08104">
        <ele>1050.4000244141</ele>
        <time>2020-07-30T12:41:34.000Z</time>
      </trkpt>
      <trkpt lat="44.11728" lon="7.08104">
        <ele>1049.8000488281</ele>
        <time>2020-07-30T12:41:35.000Z</time>
      </trkpt>
      <trkpt lat="44.11733" lon="7.08106">
        <ele>1048.1999511719</ele>
        <time>2020-07-30T12:41:37.000Z</time>
      </trkpt>
      <trkpt lat="44.11733" lon="7.08108">
        <ele>1047.8000488281</ele>
        <time>2020-07-30T12:41:38.000Z</time>
      </trkpt>
      <trkpt lat="44.11733" lon="7.0811">
        <ele>1047</ele>
        <time>2020-07-30T12:41:39.000Z</time>
      </trkpt>
      <trkpt lat="44.11729" lon="7.08115">
        <ele>1045.8000488281</ele>
        <time>2020-07-30T12:41:41.000Z</time>
      </trkpt>
      <trkpt lat="44.11728" lon="7.08116">
        <ele>1045.1999511719</ele>
        <time>2020-07-30T12:41:42.000Z</time>
      </trkpt>
      <trkpt lat="44.11728" lon="7.08117">
        <ele>1044.4000244141</ele>
        <time>2020-07-30T12:41:43.000Z</time>
      </trkpt>
      <trkpt lat="44.11729" lon="7.08118">
        <ele>1043.5999755859</ele>
        <time>2020-07-30T12:41:44.000Z</time>
      </trkpt>
      <trkpt lat="44.11732" lon="7.08118">
        <ele>1042.8000488281</ele>
        <time>2020-07-30T12:41:45.000Z</time>
      </trkpt>
      <trkpt lat="44.11734" lon="7.08118">
        <ele>1042.1999511719</ele>
        <time>2020-07-30T12:41:46.000Z</time>
      </trkpt>
      <trkpt lat="44.11739" lon="7.08119">
        <ele>1041.5999755859</ele>
        <time>2020-07-30T12:41:47.000Z</time>
      </trkpt>
      <trkpt lat="44.11747" lon="7.08121">
        <ele>1040.5999755859</ele>
        <time>2020-07-30T12:41:49.000Z</time>
      </trkpt>
      <trkpt lat="44.1175" lon="7.08123">
        <ele>1039.8000488281</ele>
        <time>2020-07-30T12:41:50.000Z</time>
      </trkpt>
      <trkpt lat="44.11753" lon="7.08122">
        <ele>1038.1999511719</ele>
        <time>2020-07-30T12:41:52.000Z</time>
      </trkpt>
      <trkpt lat="44.11755" lon="7.08122">
        <ele>1037</ele>
        <time>2020-07-30T12:41:53.000Z</time>
      </trkpt>
      <trkpt lat="44.11755" lon="7.08123">
        <ele>1036</ele>
        <time>2020-07-30T12:41:54.000Z</time>
      </trkpt>
      <trkpt lat="44.11755" lon="7.08124">
        <ele>1034.4000244141</ele>
        <time>2020-07-30T12:41:55.000Z</time>
      </trkpt>
      <trkpt lat="44.11753" lon="7.08126">
        <ele>1033.4000244141</ele>
        <time>2020-07-30T12:41:57.000Z</time>
      </trkpt>
      <trkpt lat="44.11752" lon="7.08129">
        <ele>1033.4000244141</ele>
        <time>2020-07-30T12:41:58.000Z</time>
      </trkpt>
      <trkpt lat="44.11749" lon="7.08135">
        <ele>1033</ele>
        <time>2020-07-30T12:41:59.000Z</time>
      </trkpt>
      <trkpt lat="44.11744" lon="7.08142">
        <ele>1032.8000488281</ele>
        <time>2020-07-30T12:42:01.000Z</time>
      </trkpt>
      <trkpt lat="44.11743" lon="7.08144">
        <ele>1032</ele>
        <time>2020-07-30T12:42:02.000Z</time>
      </trkpt>
      <trkpt lat="44.11745" lon="7.08145">
        <ele>1030.1999511719</ele>
        <time>2020-07-30T12:42:04.000Z</time>
      </trkpt>
      <trkpt lat="44.11747" lon="7.08146">
        <ele>1029.1999511719</ele>
        <time>2020-07-30T12:42:05.000Z</time>
      </trkpt>
      <trkpt lat="44.1175" lon="7.08147">
        <ele>1028</ele>
        <time>2020-07-30T12:42:06.000Z</time>
      </trkpt>
      <trkpt lat="44.11757" lon="7.08149">
        <ele>1026.5999755859</ele>
        <time>2020-07-30T12:42:08.000Z</time>
      </trkpt>
      <trkpt lat="44.1176" lon="7.0815">
        <ele>1025.8000488281</ele>
        <time>2020-07-30T12:42:09.000Z</time>
      </trkpt>
      <trkpt lat="44.11764" lon="7.08151">
        <ele>1024.8000488281</ele>
        <time>2020-07-30T12:42:10.000Z</time>
      </trkpt>
      <trkpt lat="44.1177" lon="7.08152">
        <ele>1023.4000244141</ele>
        <time>2020-07-30T12:42:11.000Z</time>
      </trkpt>
      <trkpt lat="44.11774" lon="7.08152">
        <ele>1022</ele>
        <time>2020-07-30T12:42:12.000Z</time>
      </trkpt>
      <trkpt lat="44.11777" lon="7.08152">
        <ele>1020.4000244141</ele>
        <time>2020-07-30T12:42:13.000Z</time>
      </trkpt>
      <trkpt lat="44.11779" lon="7.08151">
        <ele>1018.799987793</ele>
        <time>2020-07-30T12:42:14.000Z</time>
      </trkpt>
      <trkpt lat="44.11781" lon="7.08151">
        <ele>1018.200012207</ele>
        <time>2020-07-30T12:42:15.000Z</time>
      </trkpt>
      <trkpt lat="44.11781" lon="7.08153">
        <ele>1017.200012207</ele>
        <time>2020-07-30T12:42:16.000Z</time>
      </trkpt>
      <trkpt lat="44.11782" lon="7.08157">
        <ele>1016.200012207</ele>
        <time>2020-07-30T12:42:17.000Z</time>
      </trkpt>
      <trkpt lat="44.11781" lon="7.0816">
        <ele>1015.4000244141</ele>
        <time>2020-07-30T12:42:18.000Z</time>
      </trkpt>
      <trkpt lat="44.1178" lon="7.08164">
        <ele>1014.799987793</ele>
        <time>2020-07-30T12:42:19.000Z</time>
      </trkpt>
      <trkpt lat="44.11775" lon="7.08173">
        <ele>1013</ele>
        <time>2020-07-30T12:42:21.000Z</time>
      </trkpt>
      <trkpt lat="44.11772" lon="7.08177">
        <ele>1012.200012207</ele>
        <time>2020-07-30T12:42:22.000Z</time>
      </trkpt>
      <trkpt lat="44.11769" lon="7.08182">
        <ele>1011</ele>
        <time>2020-07-30T12:42:23.000Z</time>
      </trkpt>
      <trkpt lat="44.11765" lon="7.08187">
        <ele>1009.5999755859</ele>
        <time>2020-07-30T12:42:24.000Z</time>
      </trkpt>
      <trkpt lat="44.11763" lon="7.08191">
        <ele>1008.4000244141</ele>
        <time>2020-07-30T12:42:25.000Z</time>
      </trkpt>
      <trkpt lat="44.1176" lon="7.08195">
        <ele>1007.200012207</ele>
        <time>2020-07-30T12:42:26.000Z</time>
      </trkpt>
      <trkpt lat="44.11756" lon="7.08198">
        <ele>1005.799987793</ele>
        <time>2020-07-30T12:42:27.000Z</time>
      </trkpt>
      <trkpt lat="44.11749" lon="7.08206">
        <ele>1003.799987793</ele>
        <time>2020-07-30T12:42:29.000Z</time>
      </trkpt>
      <trkpt lat="44.11744" lon="7.0821">
        <ele>1002.200012207</ele>
        <time>2020-07-30T12:42:30.000Z</time>
      </trkpt>
      <trkpt lat="44.11739" lon="7.08214">
        <ele>1000.799987793</ele>
        <time>2020-07-30T12:42:31.000Z</time>
      </trkpt>
      <trkpt lat="44.11738" lon="7.08218">
        <ele>999.40002441406</ele>
        <time>2020-07-30T12:42:32.000Z</time>
      </trkpt>
      <trkpt lat="44.11738" lon="7.08222">
        <ele>998.40002441406</ele>
        <time>2020-07-30T12:42:33.000Z</time>
      </trkpt>
      <trkpt lat="44.11738" lon="7.08228">
        <ele>997.40002441406</ele>
        <time>2020-07-30T12:42:34.000Z</time>
      </trkpt>
      <trkpt lat="44.11737" lon="7.08232">
        <ele>996.40002441406</ele>
        <time>2020-07-30T12:42:35.000Z</time>
      </trkpt>
      <trkpt lat="44.11734" lon="7.08237">
        <ele>995.40002441406</ele>
        <time>2020-07-30T12:42:36.000Z</time>
      </trkpt>
      <trkpt lat="44.11731" lon="7.08243">
        <ele>994.59997558594</ele>
        <time>2020-07-30T12:42:37.000Z</time>
      </trkpt>
      <trkpt lat="44.11728" lon="7.08249">
        <ele>993.40002441406</ele>
        <time>2020-07-30T12:42:38.000Z</time>
      </trkpt>
      <trkpt lat="44.11724" lon="7.08256">
        <ele>992.20001220703</ele>
        <time>2020-07-30T12:42:39.000Z</time>
      </trkpt>
      <trkpt lat="44.11722" lon="7.0826">
        <ele>990.59997558594</ele>
        <time>2020-07-30T12:42:40.000Z</time>
      </trkpt>
      <trkpt lat="44.1172" lon="7.08263">
        <ele>989</ele>
        <time>2020-07-30T12:42:41.000Z</time>
      </trkpt>
      <trkpt lat="44.11719" lon="7.08264">
        <ele>987.59997558594</ele>
        <time>2020-07-30T12:42:42.000Z</time>
      </trkpt>
      <trkpt lat="44.1172" lon="7.08265">
        <ele>986.20001220703</ele>
        <time>2020-07-30T12:42:43.000Z</time>
      </trkpt>
      <trkpt lat="44.11721" lon="7.08267">
        <ele>985</ele>
        <time>2020-07-30T12:42:44.000Z</time>
      </trkpt>
      <trkpt lat="44.11719" lon="7.0827">
        <ele>983.79998779297</ele>
        <time>2020-07-30T12:42:46.000Z</time>
      </trkpt>
      <trkpt lat="44.11717" lon="7.08275">
        <ele>981.79998779297</ele>
        <time>2020-07-30T12:42:48.000Z</time>
      </trkpt>
      <trkpt lat="44.11714" lon="7.08275">
        <ele>979.79998779297</ele>
        <time>2020-07-30T12:42:50.000Z</time>
      </trkpt>
      <trkpt lat="44.11714" lon="7.08275">
        <ele>978.40002441406</ele>
        <time>2020-07-30T12:42:52.000Z</time>
      </trkpt>
      <trkpt lat="44.11713" lon="7.08274">
        <ele>977</ele>
        <time>2020-07-30T12:42:55.000Z</time>
      </trkpt>
      <trkpt lat="44.11713" lon="7.08274">
        <ele>977</ele>
        <time>2020-07-30T12:42:58.000Z</time>
      </trkpt>
      <trkpt lat="44.11707" lon="7.08273">
        <ele>976.59997558594</ele>
        <time>2020-07-30T12:43:02.000Z</time>
      </trkpt>
      <trkpt lat="44.11701" lon="7.08268">
        <ele>975.79998779297</ele>
        <time>2020-07-30T12:43:05.000Z</time>
      </trkpt>
      <trkpt lat="44.11699" lon="7.08268">
        <ele>975.40002441406</ele>
        <time>2020-07-30T12:43:06.000Z</time>
      </trkpt>
      <trkpt lat="44.11698" lon="7.08269">
        <ele>975.20001220703</ele>
        <time>2020-07-30T12:43:07.000Z</time>
      </trkpt>
      <trkpt lat="44.11694" lon="7.08282">
        <ele>975</ele>
        <time>2020-07-30T12:43:11.000Z</time>
      </trkpt>
      <trkpt lat="44.11695" lon="7.08286">
        <ele>974.79998779297</ele>
        <time>2020-07-30T12:43:12.000Z</time>
      </trkpt>
      <trkpt lat="44.11695" lon="7.0829">
        <ele>974.59997558594</ele>
        <time>2020-07-30T12:43:13.000Z</time>
      </trkpt>
      <trkpt lat="44.11695" lon="7.08293">
        <ele>974.20001220703</ele>
        <time>2020-07-30T12:43:15.000Z</time>
      </trkpt>
      <trkpt lat="44.11696" lon="7.08295">
        <ele>973.59997558594</ele>
        <time>2020-07-30T12:43:17.000Z</time>
      </trkpt>
      <trkpt lat="44.11699" lon="7.08303">
        <ele>973</ele>
        <time>2020-07-30T12:43:20.000Z</time>
      </trkpt>
      <trkpt lat="44.11701" lon="7.08309">
        <ele>972.40002441406</ele>
        <time>2020-07-30T12:43:22.000Z</time>
      </trkpt>
      <trkpt lat="44.11701" lon="7.08311">
        <ele>971.79998779297</ele>
        <time>2020-07-30T12:43:23.000Z</time>
      </trkpt>
      <trkpt lat="44.117" lon="7.08314">
        <ele>971</ele>
        <time>2020-07-30T12:43:24.000Z</time>
      </trkpt>
      <trkpt lat="44.11695" lon="7.08321">
        <ele>969.79998779297</ele>
        <time>2020-07-30T12:43:27.000Z</time>
      </trkpt>
      <trkpt lat="44.11693" lon="7.08323">
        <ele>969.79998779297</ele>
        <time>2020-07-30T12:43:28.000Z</time>
      </trkpt>
      <trkpt lat="44.11691" lon="7.08324">
        <ele>969.59997558594</ele>
        <time>2020-07-30T12:43:29.000Z</time>
      </trkpt>
      <trkpt lat="44.11691" lon="7.08325">
        <ele>969.40002441406</ele>
        <time>2020-07-30T12:43:30.000Z</time>
      </trkpt>
      <trkpt lat="44.11691" lon="7.08331">
        <ele>969.20001220703</ele>
        <time>2020-07-30T12:43:32.000Z</time>
      </trkpt>
      <trkpt lat="44.1169" lon="7.08338">
        <ele>968.40002441406</ele>
        <time>2020-07-30T12:43:34.000Z</time>
      </trkpt>
      <trkpt lat="44.11686" lon="7.08342">
        <ele>967.20001220703</ele>
        <time>2020-07-30T12:43:36.000Z</time>
      </trkpt>
      <trkpt lat="44.11681" lon="7.08344">
        <ele>966</ele>
        <time>2020-07-30T12:43:38.000Z</time>
      </trkpt>
      <trkpt lat="44.11675" lon="7.08344">
        <ele>965</ele>
        <time>2020-07-30T12:43:40.000Z</time>
      </trkpt>
      <trkpt lat="44.11668" lon="7.08343">
        <ele>963.79998779297</ele>
        <time>2020-07-30T12:43:42.000Z</time>
      </trkpt>
      <trkpt lat="44.11659" lon="7.0834">
        <ele>962.40002441406</ele>
        <time>2020-07-30T12:43:45.000Z</time>
      </trkpt>
      <trkpt lat="44.11648" lon="7.08335">
        <ele>961.59997558594</ele>
        <time>2020-07-30T12:43:49.000Z</time>
      </trkpt>
      <trkpt lat="44.11646" lon="7.08333">
        <ele>961.59997558594</ele>
        <time>2020-07-30T12:43:50.000Z</time>
      </trkpt>
      <trkpt lat="44.11646" lon="7.08333">
        <ele>961.40002441406</ele>
        <time>2020-07-30T12:43:52.000Z</time>
      </trkpt>
      <trkpt lat="44.11643" lon="7.08333">
        <ele>961</ele>
        <time>2020-07-30T12:44:11.000Z</time>
      </trkpt>
      <trkpt lat="44.11642" lon="7.08333">
        <ele>961</ele>
        <time>2020-07-30T12:44:13.000Z</time>
      </trkpt>
      <trkpt lat="44.1164" lon="7.08331">
        <ele>961</ele>
        <time>2020-07-30T12:44:15.000Z</time>
      </trkpt>
      <trkpt lat="44.11632" lon="7.08326">
        <ele>961</ele>
        <time>2020-07-30T12:44:19.000Z</time>
      </trkpt>
      <trkpt lat="44.1163" lon="7.08326">
        <ele>960.79998779297</ele>
        <time>2020-07-30T12:44:20.000Z</time>
      </trkpt>
      <trkpt lat="44.11628" lon="7.08331">
        <ele>960</ele>
        <time>2020-07-30T12:44:22.000Z</time>
      </trkpt>
      <trkpt lat="44.11628" lon="7.08341">
        <ele>958.59997558594</ele>
        <time>2020-07-30T12:44:25.000Z</time>
      </trkpt>
      <trkpt lat="44.11628" lon="7.08351">
        <ele>958</ele>
        <time>2020-07-30T12:44:27.000Z</time>
      </trkpt>
      <trkpt lat="44.11626" lon="7.08357">
        <ele>957.59997558594</ele>
        <time>2020-07-30T12:44:28.000Z</time>
      </trkpt>
      <trkpt lat="44.11623" lon="7.08367">
        <ele>956.40002441406</ele>
        <time>2020-07-30T12:44:30.000Z</time>
      </trkpt>
      <trkpt lat="44.11622" lon="7.08381">
        <ele>955.40002441406</ele>
        <time>2020-07-30T12:44:32.000Z</time>
      </trkpt>
      <trkpt lat="44.11615" lon="7.08395">
        <ele>953.79998779297</ele>
        <time>2020-07-30T12:44:35.000Z</time>
      </trkpt>
      <trkpt lat="44.11616" lon="7.08404">
        <ele>952.59997558594</ele>
        <time>2020-07-30T12:44:37.000Z</time>
      </trkpt>
      <trkpt lat="44.11616" lon="7.08408">
        <ele>952.40002441406</ele>
        <time>2020-07-30T12:44:38.000Z</time>
      </trkpt>
      <trkpt lat="44.11612" lon="7.0842">
        <ele>951.40002441406</ele>
        <time>2020-07-30T12:44:40.000Z</time>
      </trkpt>
      <trkpt lat="44.11609" lon="7.08425">
        <ele>951.20001220703</ele>
        <time>2020-07-30T12:44:41.000Z</time>
      </trkpt>
      <trkpt lat="44.11607" lon="7.0843">
        <ele>949.59997558594</ele>
        <time>2020-07-30T12:44:43.000Z</time>
      </trkpt>
      <trkpt lat="44.11606" lon="7.08431">
        <ele>948.79998779297</ele>
        <time>2020-07-30T12:44:44.000Z</time>
      </trkpt>
      <trkpt lat="44.11606" lon="7.08431">
        <ele>947.40002441406</ele>
        <time>2020-07-30T12:44:45.000Z</time>
      </trkpt>
      <trkpt lat="44.11606" lon="7.08431">
        <ele>946.40002441406</ele>
        <time>2020-07-30T12:44:46.000Z</time>
      </trkpt>
      <trkpt lat="44.11606" lon="7.08431">
        <ele>945</ele>
        <time>2020-07-30T12:44:49.000Z</time>
      </trkpt>
      <trkpt lat="44.11606" lon="7.08431">
        <ele>945</ele>
        <time>2020-07-30T12:44:50.000Z</time>
      </trkpt>
      <trkpt lat="44.11605" lon="7.08431">
        <ele>944.59997558594</ele>
        <time>2020-07-30T12:45:07.000Z</time>
      </trkpt>
      <trkpt lat="44.11604" lon="7.08434">
        <ele>944.59997558594</ele>
        <time>2020-07-30T12:45:22.000Z</time>
      </trkpt>
      <trkpt lat="44.11605" lon="7.08436">
        <ele>944.59997558594</ele>
        <time>2020-07-30T12:45:23.000Z</time>
      </trkpt>
      <trkpt lat="44.11605" lon="7.08443">
        <ele>944.59997558594</ele>
        <time>2020-07-30T12:45:25.000Z</time>
      </trkpt>
      <trkpt lat="44.11603" lon="7.08452">
        <ele>944.20001220703</ele>
        <time>2020-07-30T12:45:27.000Z</time>
      </trkpt>
      <trkpt lat="44.11602" lon="7.08457">
        <ele>944</ele>
        <time>2020-07-30T12:45:28.000Z</time>
      </trkpt>
      <trkpt lat="44.11599" lon="7.0846">
        <ele>943.40002441406</ele>
        <time>2020-07-30T12:45:29.000Z</time>
      </trkpt>
      <trkpt lat="44.11593" lon="7.08469">
        <ele>942.59997558594</ele>
        <time>2020-07-30T12:45:31.000Z</time>
      </trkpt>
      <trkpt lat="44.11589" lon="7.08478">
        <ele>941.20001220703</ele>
        <time>2020-07-30T12:45:33.000Z</time>
      </trkpt>
      <trkpt lat="44.11584" lon="7.08486">
        <ele>939.79998779297</ele>
        <time>2020-07-30T12:45:35.000Z</time>
      </trkpt>
      <trkpt lat="44.11582" lon="7.08489">
        <ele>939.20001220703</ele>
        <time>2020-07-30T12:45:36.000Z</time>
      </trkpt>
      <trkpt lat="44.11581" lon="7.08492">
        <ele>938.40002441406</ele>
        <time>2020-07-30T12:45:37.000Z</time>
      </trkpt>
      <trkpt lat="44.11581" lon="7.08493">
        <ele>938.20001220703</ele>
        <time>2020-07-30T12:45:38.000Z</time>
      </trkpt>
      <trkpt lat="44.11582" lon="7.08496">
        <ele>937.59997558594</ele>
        <time>2020-07-30T12:45:39.000Z</time>
      </trkpt>
      <trkpt lat="44.11582" lon="7.08499">
        <ele>937.40002441406</ele>
        <time>2020-07-30T12:45:40.000Z</time>
      </trkpt>
      <trkpt lat="44.11581" lon="7.08504">
        <ele>936.20001220703</ele>
        <time>2020-07-30T12:45:43.000Z</time>
      </trkpt>
      <trkpt lat="44.11581" lon="7.08505">
        <ele>935.20001220703</ele>
        <time>2020-07-30T12:45:47.000Z</time>
      </trkpt>
      <trkpt lat="44.1158" lon="7.08505">
        <ele>934.79998779297</ele>
        <time>2020-07-30T12:45:51.000Z</time>
      </trkpt>
      <trkpt lat="44.11576" lon="7.08511">
        <ele>934.20001220703</ele>
        <time>2020-07-30T12:46:00.000Z</time>
      </trkpt>
      <trkpt lat="44.11574" lon="7.08514">
        <ele>934.20001220703</ele>
        <time>2020-07-30T12:46:01.000Z</time>
      </trkpt>
      <trkpt lat="44.11574" lon="7.08517">
        <ele>934.20001220703</ele>
        <time>2020-07-30T12:46:02.000Z</time>
      </trkpt>
      <trkpt lat="44.11571" lon="7.08525">
        <ele>933.79998779297</ele>
        <time>2020-07-30T12:46:04.000Z</time>
      </trkpt>
      <trkpt lat="44.11566" lon="7.08534">
        <ele>933</ele>
        <time>2020-07-30T12:46:06.000Z</time>
      </trkpt>
      <trkpt lat="44.11564" lon="7.08538">
        <ele>932</ele>
        <time>2020-07-30T12:46:07.000Z</time>
      </trkpt>
      <trkpt lat="44.1156" lon="7.08542">
        <ele>930.59997558594</ele>
        <time>2020-07-30T12:46:09.000Z</time>
      </trkpt>
      <trkpt lat="44.1156" lon="7.08544">
        <ele>929.59997558594</ele>
        <time>2020-07-30T12:46:10.000Z</time>
      </trkpt>
      <trkpt lat="44.1156" lon="7.08547">
        <ele>928.40002441406</ele>
        <time>2020-07-30T12:46:11.000Z</time>
      </trkpt>
      <trkpt lat="44.11561" lon="7.08551">
        <ele>927.20001220703</ele>
        <time>2020-07-30T12:46:12.000Z</time>
      </trkpt>
      <trkpt lat="44.11564" lon="7.08558">
        <ele>925.20001220703</ele>
        <time>2020-07-30T12:46:14.000Z</time>
      </trkpt>
      <trkpt lat="44.11565" lon="7.08558">
        <ele>923.79998779297</ele>
        <time>2020-07-30T12:46:15.000Z</time>
      </trkpt>
      <trkpt lat="44.11567" lon="7.08558">
        <ele>922.59997558594</ele>
        <time>2020-07-30T12:46:16.000Z</time>
      </trkpt>
      <trkpt lat="44.11569" lon="7.08559">
        <ele>921.59997558594</ele>
        <time>2020-07-30T12:46:17.000Z</time>
      </trkpt>
      <trkpt lat="44.1157" lon="7.08565">
        <ele>920</ele>
        <time>2020-07-30T12:46:19.000Z</time>
      </trkpt>
      <trkpt lat="44.11571" lon="7.08573">
        <ele>919.20001220703</ele>
        <time>2020-07-30T12:46:21.000Z</time>
      </trkpt>
      <trkpt lat="44.1157" lon="7.08575">
        <ele>918.20001220703</ele>
        <time>2020-07-30T12:46:22.000Z</time>
      </trkpt>
      <trkpt lat="44.11567" lon="7.08578">
        <ele>917.20001220703</ele>
        <time>2020-07-30T12:46:24.000Z</time>
      </trkpt>
      <trkpt lat="44.11562" lon="7.08579">
        <ele>915.79998779297</ele>
        <time>2020-07-30T12:46:27.000Z</time>
      </trkpt>
      <trkpt lat="44.11561" lon="7.08578">
        <ele>915.59997558594</ele>
        <time>2020-07-30T12:46:28.000Z</time>
      </trkpt>
      <trkpt lat="44.11556" lon="7.0858">
        <ele>915.20001220703</ele>
        <time>2020-07-30T12:46:34.000Z</time>
      </trkpt>
      <trkpt lat="44.11549" lon="7.08581">
        <ele>915.40002441406</ele>
        <time>2020-07-30T12:46:39.000Z</time>
      </trkpt>
      <trkpt lat="44.11536" lon="7.08579">
        <ele>915.79998779297</ele>
        <time>2020-07-30T12:46:46.000Z</time>
      </trkpt>
      <trkpt lat="44.11522" lon="7.08576">
        <ele>916.20001220703</ele>
        <time>2020-07-30T12:46:54.000Z</time>
      </trkpt>
      <trkpt lat="44.1151" lon="7.08572">
        <ele>916.20001220703</ele>
        <time>2020-07-30T12:47:00.000Z</time>
      </trkpt>
      <trkpt lat="44.11504" lon="7.0857">
        <ele>916.59997558594</ele>
        <time>2020-07-30T12:47:06.000Z</time>
      </trkpt>
      <trkpt lat="44.11504" lon="7.08568">
        <ele>916.59997558594</ele>
        <time>2020-07-30T12:47:14.000Z</time>
      </trkpt>
      <trkpt lat="44.11504" lon="7.08568">
        <ele>916.79998779297</ele>
        <time>2020-07-30T12:47:22.000Z</time>
      </trkpt>
      <trkpt lat="44.11504" lon="7.08568">
        <ele>916.79998779297</ele>
        <time>2020-07-30T12:47:27.000Z</time>
      </trkpt>
      <trkpt lat="44.11503" lon="7.08568">
        <ele>917.20001220703</ele>
        <time>2020-07-30T12:47:30.000Z</time>
      </trkpt>
      <trkpt lat="44.11503" lon="7.08568">
        <ele>917.20001220703</ele>
        <time>2020-07-30T12:47:38.000Z</time>
      </trkpt>
      <trkpt lat="44.11503" lon="7.08568">
        <ele>917.20001220703</ele>
        <time>2020-07-30T12:47:45.000Z</time>
      </trkpt>
      <trkpt lat="44.11503" lon="7.0857">
        <ele>916.59997558594</ele>
        <time>2020-07-30T12:47:50.000Z</time>
      </trkpt>
      <trkpt lat="44.11503" lon="7.0857">
        <ele>915.79998779297</ele>
        <time>2020-07-30T12:47:54.000Z</time>
      </trkpt>
      <trkpt lat="44.11503" lon="7.08569">
        <ele>916.20001220703</ele>
        <time>2020-07-30T12:47:58.000Z</time>
      </trkpt>
      <trkpt lat="44.11503" lon="7.08568">
        <ele>916.59997558594</ele>
        <time>2020-07-30T12:48:02.000Z</time>
      </trkpt>
      <trkpt lat="44.11503" lon="7.08567">
        <ele>916.79998779297</ele>
        <time>2020-07-30T12:48:10.000Z</time>
      </trkpt>
      <trkpt lat="44.11502" lon="7.08567">
        <ele>916.59997558594</ele>
        <time>2020-07-30T12:48:20.000Z</time>
      </trkpt>
      <trkpt lat="44.11502" lon="7.08566">
        <ele>916.59997558594</ele>
        <time>2020-07-30T12:48:29.000Z</time>
      </trkpt>
      <trkpt lat="44.11502" lon="7.08566">
        <ele>916.79998779297</ele>
        <time>2020-07-30T12:48:32.000Z</time>
      </trkpt>
      <trkpt lat="44.11502" lon="7.08566">
        <ele>917</ele>
        <time>2020-07-30T12:48:38.000Z</time>
      </trkpt>
      <trkpt lat="44.11501" lon="7.08567">
        <ele>916.59997558594</ele>
        <time>2020-07-30T12:48:47.000Z</time>
      </trkpt>
      <trkpt lat="44.11501" lon="7.08567">
        <ele>917</ele>
        <time>2020-07-30T12:49:03.000Z</time>
      </trkpt>
      <trkpt lat="44.11502" lon="7.08568">
        <ele>916.40002441406</ele>
        <time>2020-07-30T12:49:29.000Z</time>
      </trkpt>
      <trkpt lat="44.11503" lon="7.08568">
        <ele>916.59997558594</ele>
        <time>2020-07-30T12:49:42.000Z</time>
      </trkpt>
      <trkpt lat="44.11503" lon="7.08567">
        <ele>916</ele>
        <time>2020-07-30T12:49:49.000Z</time>
      </trkpt>
      <trkpt lat="44.11503" lon="7.08567">
        <ele>915.79998779297</ele>
        <time>2020-07-30T12:49:52.000Z</time>
      </trkpt>
      <trkpt lat="44.11503" lon="7.08567">
        <ele>915.59997558594</ele>
        <time>2020-07-30T12:49:58.000Z</time>
      </trkpt>
      <trkpt lat="44.11503" lon="7.08567">
        <ele>915.40002441406</ele>
        <time>2020-07-30T12:50:09.000Z</time>
      </trkpt>
      <trkpt lat="44.11503" lon="7.08566">
        <ele>915.40002441406</ele>
        <time>2020-07-30T12:50:17.000Z</time>
      </trkpt>
      <trkpt lat="44.11503" lon="7.08566">
        <ele>915.79998779297</ele>
        <time>2020-07-30T12:50:23.000Z</time>
      </trkpt>
      <trkpt lat="44.11503" lon="7.08565">
        <ele>916.59997558594</ele>
        <time>2020-07-30T12:50:34.000Z</time>
      </trkpt>
      <trkpt lat="44.11503" lon="7.08565">
        <ele>916.79998779297</ele>
        <time>2020-07-30T12:50:37.000Z</time>
      </trkpt>
      <trkpt lat="44.11503" lon="7.08565">
        <ele>917</ele>
        <time>2020-07-30T12:50:44.000Z</time>
      </trkpt>
      <trkpt lat="44.11503" lon="7.08565">
        <ele>916.79998779297</ele>
        <time>2020-07-30T12:50:55.000Z</time>
      </trkpt>
      <trkpt lat="44.11503" lon="7.08566">
        <ele>914.79998779297</ele>
        <time>2020-07-30T12:51:04.000Z</time>
      </trkpt>
      <trkpt lat="44.11503" lon="7.08566">
        <ele>913.40002441406</ele>
        <time>2020-07-30T12:51:05.000Z</time>
      </trkpt>
      <trkpt lat="44.11503" lon="7.08566">
        <ele>911.40002441406</ele>
        <time>2020-07-30T12:51:07.000Z</time>
      </trkpt>
      <trkpt lat="44.11503" lon="7.08566">
        <ele>912.40002441406</ele>
        <time>2020-07-30T12:51:10.000Z</time>
      </trkpt>
      <trkpt lat="44.11503" lon="7.08566">
        <ele>915</ele>
        <time>2020-07-30T12:51:15.000Z</time>
      </trkpt>
      <trkpt lat="44.11503" lon="7.08566">
        <ele>916</ele>
        <time>2020-07-30T12:51:16.000Z</time>
      </trkpt>
      <trkpt lat="44.11503" lon="7.08566">
        <ele>913.79998779297</ele>
        <time>2020-07-30T12:51:20.000Z</time>
      </trkpt>
      <trkpt lat="44.11503" lon="7.08566">
        <ele>912.59997558594</ele>
        <time>2020-07-30T12:51:21.000Z</time>
      </trkpt>
      <trkpt lat="44.11503" lon="7.08566">
        <ele>911.40002441406</ele>
        <time>2020-07-30T12:51:22.000Z</time>
      </trkpt>
      <trkpt lat="44.11503" lon="7.08566">
        <ele>911.59997558594</ele>
        <time>2020-07-30T12:51:23.000Z</time>
      </trkpt>
      <trkpt lat="44.11503" lon="7.08566">
        <ele>910.20001220703</ele>
        <time>2020-07-30T12:51:27.000Z</time>
      </trkpt>
      <trkpt lat="44.11503" lon="7.08566">
        <ele>908.79998779297</ele>
        <time>2020-07-30T12:51:31.000Z</time>
      </trkpt>
      <trkpt lat="44.11503" lon="7.08567">
        <ele>909.79998779297</ele>
        <time>2020-07-30T12:51:34.000Z</time>
      </trkpt>
      <trkpt lat="44.11503" lon="7.08566">
        <ele>911</ele>
        <time>2020-07-30T12:51:36.000Z</time>
      </trkpt>
      <trkpt lat="44.11504" lon="7.08567">
        <ele>912.20001220703</ele>
        <time>2020-07-30T12:51:38.000Z</time>
      </trkpt>
      <trkpt lat="44.11504" lon="7.08567">
        <ele>914</ele>
        <time>2020-07-30T12:51:40.000Z</time>
      </trkpt>
      <trkpt lat="44.11504" lon="7.08567">
        <ele>911.40002441406</ele>
        <time>2020-07-30T12:51:42.000Z</time>
      </trkpt>
      <trkpt lat="44.11504" lon="7.08567">
        <ele>909</ele>
        <time>2020-07-30T12:51:43.000Z</time>
      </trkpt>
      <trkpt lat="44.11504" lon="7.08567">
        <ele>906.59997558594</ele>
        <time>2020-07-30T12:51:44.000Z</time>
      </trkpt>
      <trkpt lat="44.11504" lon="7.08567">
        <ele>905.20001220703</ele>
        <time>2020-07-30T12:51:45.000Z</time>
      </trkpt>
      <trkpt lat="44.11504" lon="7.08567">
        <ele>904</ele>
        <time>2020-07-30T12:51:49.000Z</time>
      </trkpt>
      <trkpt lat="44.11504" lon="7.08567">
        <ele>902.79998779297</ele>
        <time>2020-07-30T12:51:51.000Z</time>
      </trkpt>
      <trkpt lat="44.11504" lon="7.08567">
        <ele>901.40002441406</ele>
        <time>2020-07-30T12:51:53.000Z</time>
      </trkpt>
      <trkpt lat="44.11504" lon="7.08567">
        <ele>900.20001220703</ele>
        <time>2020-07-30T12:51:55.000Z</time>
      </trkpt>
      <trkpt lat="44.11504" lon="7.08567">
        <ele>903.59997558594</ele>
        <time>2020-07-30T12:52:01.000Z</time>
      </trkpt>
      <trkpt lat="44.11504" lon="7.08567">
        <ele>903.59997558594</ele>
        <time>2020-07-30T12:52:12.000Z</time>
      </trkpt>
      <trkpt lat="44.11502" lon="7.0857">
        <ele>903.40002441406</ele>
        <time>2020-07-30T12:52:17.000Z</time>
      </trkpt>
      <trkpt lat="44.11502" lon="7.08571">
        <ele>903.20001220703</ele>
        <time>2020-07-30T12:52:19.000Z</time>
      </trkpt>
      <trkpt lat="44.11501" lon="7.08571">
        <ele>903.20001220703</ele>
        <time>2020-07-30T12:52:20.000Z</time>
      </trkpt>
      <trkpt lat="44.11501" lon="7.08571">
        <ele>902.59997558594</ele>
        <time>2020-07-30T12:52:22.000Z</time>
      </trkpt>
      <trkpt lat="44.11501" lon="7.08571">
        <ele>902.59997558594</ele>
        <time>2020-07-30T12:52:23.000Z</time>
      </trkpt>
      <trkpt lat="44.11503" lon="7.0857">
        <ele>902.40002441406</ele>
        <time>2020-07-30T12:52:26.000Z</time>
      </trkpt>
      <trkpt lat="44.11504" lon="7.0857">
        <ele>902.20001220703</ele>
        <time>2020-07-30T12:52:29.000Z</time>
      </trkpt>
      <trkpt lat="44.11504" lon="7.0857">
        <ele>902.20001220703</ele>
        <time>2020-07-30T12:52:37.000Z</time>
      </trkpt>
      <trkpt lat="44.11505" lon="7.08568">
        <ele>902.40002441406</ele>
        <time>2020-07-30T12:52:48.000Z</time>
      </trkpt>
      <trkpt lat="44.11505" lon="7.08568">
        <ele>903.40002441406</ele>
        <time>2020-07-30T12:52:56.000Z</time>
      </trkpt>
      <trkpt lat="44.11505" lon="7.08568">
        <ele>904.20001220703</ele>
        <time>2020-07-30T12:53:01.000Z</time>
      </trkpt>
      <trkpt lat="44.11505" lon="7.08568">
        <ele>904.59997558594</ele>
        <time>2020-07-30T12:53:05.000Z</time>
      </trkpt>
      <trkpt lat="44.11506" lon="7.08568">
        <ele>905.59997558594</ele>
        <time>2020-07-30T12:53:12.000Z</time>
      </trkpt>
      <trkpt lat="44.11506" lon="7.08568">
        <ele>906.40002441406</ele>
        <time>2020-07-30T12:53:18.000Z</time>
      </trkpt>
      <trkpt lat="44.11506" lon="7.08568">
        <ele>906.59997558594</ele>
        <time>2020-07-30T12:53:20.000Z</time>
      </trkpt>
      <trkpt lat="44.11506" lon="7.08568">
        <ele>907.59997558594</ele>
        <time>2020-07-30T12:53:27.000Z</time>
      </trkpt>
      <trkpt lat="44.11506" lon="7.08568">
        <ele>907.79998779297</ele>
        <time>2020-07-30T12:53:29.000Z</time>
      </trkpt>
      <trkpt lat="44.11506" lon="7.08568">
        <ele>908.79998779297</ele>
        <time>2020-07-30T12:53:33.000Z</time>
      </trkpt>
      <trkpt lat="44.11505" lon="7.08568">
        <ele>909.59997558594</ele>
        <time>2020-07-30T12:53:39.000Z</time>
      </trkpt>
      <trkpt lat="44.11505" lon="7.08568">
        <ele>909.79998779297</ele>
        <time>2020-07-30T12:53:40.000Z</time>
      </trkpt>
      <trkpt lat="44.11505" lon="7.08569">
        <ele>910.79998779297</ele>
        <time>2020-07-30T12:53:48.000Z</time>
      </trkpt>
      <trkpt lat="44.11504" lon="7.08569">
        <ele>911</ele>
        <time>2020-07-30T12:53:49.000Z</time>
      </trkpt>
      <trkpt lat="44.11504" lon="7.08569">
        <ele>911.79998779297</ele>
        <time>2020-07-30T12:53:53.000Z</time>
      </trkpt>
      <trkpt lat="44.11504" lon="7.08568">
        <ele>912.79998779297</ele>
        <time>2020-07-30T12:53:59.000Z</time>
      </trkpt>
      <trkpt lat="44.11503" lon="7.08569">
        <ele>913.79998779297</ele>
        <time>2020-07-30T12:54:06.000Z</time>
      </trkpt>
      <trkpt lat="44.11503" lon="7.08569">
        <ele>914</ele>
        <time>2020-07-30T12:54:07.000Z</time>
      </trkpt>
      <trkpt lat="44.11503" lon="7.08567">
        <ele>914</ele>
        <time>2020-07-30T12:54:11.000Z</time>
      </trkpt>
      <trkpt lat="44.11503" lon="7.08566">
        <ele>913.79998779297</ele>
        <time>2020-07-30T12:54:22.000Z</time>
      </trkpt>
      <trkpt lat="44.11502" lon="7.08567">
        <ele>913.40002441406</ele>
        <time>2020-07-30T12:54:33.000Z</time>
      </trkpt>
      <trkpt lat="44.11502" lon="7.08567">
        <ele>913.40002441406</ele>
        <time>2020-07-30T12:54:50.000Z</time>
      </trkpt>
      <trkpt lat="44.11502" lon="7.08567">
        <ele>915</ele>
        <time>2020-07-30T12:55:01.000Z</time>
      </trkpt>
      <trkpt lat="44.11502" lon="7.08567">
        <ele>915</ele>
        <time>2020-07-30T12:55:07.000Z</time>
      </trkpt>
      <trkpt lat="44.11502" lon="7.08567">
        <ele>914.79998779297</ele>
        <time>2020-07-30T12:55:12.000Z</time>
      </trkpt>
      <trkpt lat="44.11502" lon="7.08567">
        <ele>915.59997558594</ele>
        <time>2020-07-30T12:55:23.000Z</time>
      </trkpt>
      <trkpt lat="44.11502" lon="7.08568">
        <ele>915</ele>
        <time>2020-07-30T12:55:34.000Z</time>
      </trkpt>
      <trkpt lat="44.11502" lon="7.08568">
        <ele>915</ele>
        <time>2020-07-30T12:55:45.000Z</time>
      </trkpt>
      <trkpt lat="44.11501" lon="7.08568">
        <ele>915.40002441406</ele>
        <time>2020-07-30T12:55:55.000Z</time>
      </trkpt>
      <trkpt lat="44.11502" lon="7.08569">
        <ele>915.40002441406</ele>
        <time>2020-07-30T12:56:10.000Z</time>
      </trkpt>
      <trkpt lat="44.11501" lon="7.08569">
        <ele>915.59997558594</ele>
        <time>2020-07-30T12:56:19.000Z</time>
      </trkpt>
      <trkpt lat="44.11501" lon="7.0857">
        <ele>916</ele>
        <time>2020-07-30T12:56:24.000Z</time>
      </trkpt>
      <trkpt lat="44.11502" lon="7.0857">
        <ele>916</ele>
        <time>2020-07-30T12:56:29.000Z</time>
      </trkpt>
      <trkpt lat="44.11496" lon="7.08572">
        <ele>915.59997558594</ele>
        <time>2020-07-30T12:56:36.000Z</time>
      </trkpt>
      <trkpt lat="44.11489" lon="7.08568">
        <ele>915.79998779297</ele>
        <time>2020-07-30T12:56:39.000Z</time>
      </trkpt>
      <trkpt lat="44.11488" lon="7.08565">
        <ele>916</ele>
        <time>2020-07-30T12:56:40.000Z</time>
      </trkpt>
      <trkpt lat="44.11483" lon="7.08549">
        <ele>916</ele>
        <time>2020-07-30T12:56:43.000Z</time>
      </trkpt>
      <trkpt lat="44.11477" lon="7.0854">
        <ele>915.59997558594</ele>
        <time>2020-07-30T12:56:45.000Z</time>
      </trkpt>
      <trkpt lat="44.1147" lon="7.08533">
        <ele>915</ele>
        <time>2020-07-30T12:56:47.000Z</time>
      </trkpt>
      <trkpt lat="44.1146" lon="7.08525">
        <ele>914.20001220703</ele>
        <time>2020-07-30T12:56:50.000Z</time>
      </trkpt>
      <trkpt lat="44.11456" lon="7.08523">
        <ele>914</ele>
        <time>2020-07-30T12:56:51.000Z</time>
      </trkpt>
      <trkpt lat="44.11448" lon="7.0852">
        <ele>914</ele>
        <time>2020-07-30T12:56:53.000Z</time>
      </trkpt>
      <trkpt lat="44.11443" lon="7.08511">
        <ele>913.79998779297</ele>
        <time>2020-07-30T12:56:55.000Z</time>
      </trkpt>
      <trkpt lat="44.11439" lon="7.08501">
        <ele>914</ele>
        <time>2020-07-30T12:56:57.000Z</time>
      </trkpt>
      <trkpt lat="44.11431" lon="7.08482">
        <ele>913.79998779297</ele>
        <time>2020-07-30T12:57:01.000Z</time>
      </trkpt>
      <trkpt lat="44.11424" lon="7.08456">
        <ele>913.59997558594</ele>
        <time>2020-07-30T12:57:07.000Z</time>
      </trkpt>
      <trkpt lat="44.11417" lon="7.08431">
        <ele>913.40002441406</ele>
        <time>2020-07-30T12:57:14.000Z</time>
      </trkpt>
      <trkpt lat="44.11404" lon="7.08428">
        <ele>913.59997558594</ele>
        <time>2020-07-30T12:57:18.000Z</time>
      </trkpt>
      <trkpt lat="44.11396" lon="7.08442">
        <ele>914</ele>
        <time>2020-07-30T12:57:22.000Z</time>
      </trkpt>
      <trkpt lat="44.11384" lon="7.0846">
        <ele>915</ele>
        <time>2020-07-30T12:57:28.000Z</time>
      </trkpt>
      <trkpt lat="44.11382" lon="7.08463">
        <ele>915.20001220703</ele>
        <time>2020-07-30T12:57:29.000Z</time>
      </trkpt>
      <trkpt lat="44.11371" lon="7.08477">
        <ele>916.40002441406</ele>
        <time>2020-07-30T12:57:34.000Z</time>
      </trkpt>
      <trkpt lat="44.11369" lon="7.08479">
        <ele>916.59997558594</ele>
        <time>2020-07-30T12:57:35.000Z</time>
      </trkpt>
      <trkpt lat="44.11351" lon="7.08488">
        <ele>917.20001220703</ele>
        <time>2020-07-30T12:57:41.000Z</time>
      </trkpt>
      <trkpt lat="44.11348" lon="7.08489">
        <ele>917.40002441406</ele>
        <time>2020-07-30T12:57:42.000Z</time>
      </trkpt>
      <trkpt lat="44.11341" lon="7.08497">
        <ele>917.79998779297</ele>
        <time>2020-07-30T12:57:46.000Z</time>
      </trkpt>
      <trkpt lat="44.11338" lon="7.08509">
        <ele>918.40002441406</ele>
        <time>2020-07-30T12:57:50.000Z</time>
      </trkpt>
      <trkpt lat="44.11337" lon="7.08519">
        <ele>919</ele>
        <time>2020-07-30T12:57:53.000Z</time>
      </trkpt>
      <trkpt lat="44.11337" lon="7.08538">
        <ele>919.59997558594</ele>
        <time>2020-07-30T12:57:58.000Z</time>
      </trkpt>
      <trkpt lat="44.11335" lon="7.08549">
        <ele>920.40002441406</ele>
        <time>2020-07-30T12:58:01.000Z</time>
      </trkpt>
      <trkpt lat="44.11333" lon="7.08556">
        <ele>920.59997558594</ele>
        <time>2020-07-30T12:58:03.000Z</time>
      </trkpt>
      <trkpt lat="44.11325" lon="7.08575">
        <ele>921.59997558594</ele>
        <time>2020-07-30T12:58:09.000Z</time>
      </trkpt>
      <trkpt lat="44.11324" lon="7.08578">
        <ele>921.79998779297</ele>
        <time>2020-07-30T12:58:10.000Z</time>
      </trkpt>
      <trkpt lat="44.11314" lon="7.08594">
        <ele>923</ele>
        <time>2020-07-30T12:58:16.000Z</time>
      </trkpt>
      <trkpt lat="44.11312" lon="7.08597">
        <ele>923.20001220703</ele>
        <time>2020-07-30T12:58:17.000Z</time>
      </trkpt>
      <trkpt lat="44.113" lon="7.08611">
        <ele>923.59997558594</ele>
        <time>2020-07-30T12:58:23.000Z</time>
      </trkpt>
      <trkpt lat="44.11293" lon="7.08616">
        <ele>924.20001220703</ele>
        <time>2020-07-30T12:58:26.000Z</time>
      </trkpt>
      <trkpt lat="44.11283" lon="7.08622">
        <ele>925.20001220703</ele>
        <time>2020-07-30T12:58:30.000Z</time>
      </trkpt>
      <trkpt lat="44.11281" lon="7.08624">
        <ele>925.40002441406</ele>
        <time>2020-07-30T12:58:31.000Z</time>
      </trkpt>
      <trkpt lat="44.1127" lon="7.08635">
        <ele>925.79998779297</ele>
        <time>2020-07-30T12:58:36.000Z</time>
      </trkpt>
      <trkpt lat="44.11266" lon="7.08644">
        <ele>926.40002441406</ele>
        <time>2020-07-30T12:58:39.000Z</time>
      </trkpt>
      <trkpt lat="44.11256" lon="7.08662">
        <ele>927.40002441406</ele>
        <time>2020-07-30T12:58:45.000Z</time>
      </trkpt>
      <trkpt lat="44.11254" lon="7.08665">
        <ele>927.59997558594</ele>
        <time>2020-07-30T12:58:46.000Z</time>
      </trkpt>
      <trkpt lat="44.1124" lon="7.08682">
        <ele>928.40002441406</ele>
        <time>2020-07-30T12:58:53.000Z</time>
      </trkpt>
      <trkpt lat="44.11235" lon="7.08685">
        <ele>928.59997558594</ele>
        <time>2020-07-30T12:58:55.000Z</time>
      </trkpt>
      <trkpt lat="44.11222" lon="7.08688">
        <ele>929</ele>
        <time>2020-07-30T12:58:59.000Z</time>
      </trkpt>
      <trkpt lat="44.11195" lon="7.08691">
        <ele>929.40002441406</ele>
        <time>2020-07-30T12:59:07.000Z</time>
      </trkpt>
      <trkpt lat="44.11189" lon="7.0869">
        <ele>929.59997558594</ele>
        <time>2020-07-30T12:59:09.000Z</time>
      </trkpt>
      <trkpt lat="44.11172" lon="7.08691">
        <ele>930.20001220703</ele>
        <time>2020-07-30T12:59:14.000Z</time>
      </trkpt>
      <trkpt lat="44.11169" lon="7.08695">
        <ele>930.20001220703</ele>
        <time>2020-07-30T12:59:15.000Z</time>
      </trkpt>
      <trkpt lat="44.11166" lon="7.08706">
        <ele>930.40002441406</ele>
        <time>2020-07-30T12:59:17.000Z</time>
      </trkpt>
      <trkpt lat="44.11165" lon="7.08712">
        <ele>930.79998779297</ele>
        <time>2020-07-30T12:59:18.000Z</time>
      </trkpt>
      <trkpt lat="44.11164" lon="7.08717">
        <ele>930.79998779297</ele>
        <time>2020-07-30T12:59:19.000Z</time>
      </trkpt>
      <trkpt lat="44.11161" lon="7.08746">
        <ele>931.40002441406</ele>
        <time>2020-07-30T12:59:24.000Z</time>
      </trkpt>
      <trkpt lat="44.11159" lon="7.08756">
        <ele>932</ele>
        <time>2020-07-30T12:59:26.000Z</time>
      </trkpt>
      <trkpt lat="44.11154" lon="7.08776">
        <ele>932.79998779297</ele>
        <time>2020-07-30T12:59:30.000Z</time>
      </trkpt>
      <trkpt lat="44.11146" lon="7.08798">
        <ele>933</ele>
        <time>2020-07-30T12:59:35.000Z</time>
      </trkpt>
      <trkpt lat="44.11142" lon="7.08806">
        <ele>933.40002441406</ele>
        <time>2020-07-30T12:59:37.000Z</time>
      </trkpt>
      <trkpt lat="44.11134" lon="7.08823">
        <ele>934.20001220703</ele>
        <time>2020-07-30T12:59:42.000Z</time>
      </trkpt>
      <trkpt lat="44.11124" lon="7.08842">
        <ele>935</ele>
        <time>2020-07-30T12:59:48.000Z</time>
      </trkpt>
      <trkpt lat="44.11122" lon="7.08846">
        <ele>935.20001220703</ele>
        <time>2020-07-30T12:59:49.000Z</time>
      </trkpt>
      <trkpt lat="44.11113" lon="7.08861">
        <ele>936.40002441406</ele>
        <time>2020-07-30T12:59:54.000Z</time>
      </trkpt>
      <trkpt lat="44.1111" lon="7.08864">
        <ele>936.40002441406</ele>
        <time>2020-07-30T12:59:55.000Z</time>
      </trkpt>
      <trkpt lat="44.111" lon="7.08872">
        <ele>937.40002441406</ele>
        <time>2020-07-30T12:59:59.000Z</time>
      </trkpt>
      <trkpt lat="44.11088" lon="7.08882">
        <ele>938.40002441406</ele>
        <time>2020-07-30T13:00:04.000Z</time>
      </trkpt>
      <trkpt lat="44.11082" lon="7.08896">
        <ele>939</ele>
        <time>2020-07-30T13:00:08.000Z</time>
      </trkpt>
      <trkpt lat="44.11083" lon="7.0891">
        <ele>939.40002441406</ele>
        <time>2020-07-30T13:00:11.000Z</time>
      </trkpt>
      <trkpt lat="44.11082" lon="7.08918">
        <ele>939.79998779297</ele>
        <time>2020-07-30T13:00:13.000Z</time>
      </trkpt>
      <trkpt lat="44.1108" lon="7.08935">
        <ele>940.59997558594</ele>
        <time>2020-07-30T13:00:17.000Z</time>
      </trkpt>
      <trkpt lat="44.11079" lon="7.08939">
        <ele>940.79998779297</ele>
        <time>2020-07-30T13:00:18.000Z</time>
      </trkpt>
      <trkpt lat="44.1107" lon="7.08953">
        <ele>941.59997558594</ele>
        <time>2020-07-30T13:00:23.000Z</time>
      </trkpt>
      <trkpt lat="44.11068" lon="7.08956">
        <ele>941.79998779297</ele>
        <time>2020-07-30T13:00:24.000Z</time>
      </trkpt>
      <trkpt lat="44.1106" lon="7.08973">
        <ele>943</ele>
        <time>2020-07-30T13:00:29.000Z</time>
      </trkpt>
      <trkpt lat="44.11059" lon="7.08976">
        <ele>943.40002441406</ele>
        <time>2020-07-30T13:00:30.000Z</time>
      </trkpt>
      <trkpt lat="44.11054" lon="7.08983">
        <ele>944.20001220703</ele>
        <time>2020-07-30T13:00:33.000Z</time>
      </trkpt>
      <trkpt lat="44.1105" lon="7.08985">
        <ele>944.40002441406</ele>
        <time>2020-07-30T13:00:35.000Z</time>
      </trkpt>
      <trkpt lat="44.11042" lon="7.08991">
        <ele>945.20001220703</ele>
        <time>2020-07-30T13:00:39.000Z</time>
      </trkpt>
      <trkpt lat="44.11039" lon="7.08996">
        <ele>945.40002441406</ele>
        <time>2020-07-30T13:00:41.000Z</time>
      </trkpt>
      <trkpt lat="44.11032" lon="7.09015">
        <ele>946.40002441406</ele>
        <time>2020-07-30T13:00:47.000Z</time>
      </trkpt>
      <trkpt lat="44.11031" lon="7.09018">
        <ele>946.59997558594</ele>
        <time>2020-07-30T13:00:48.000Z</time>
      </trkpt>
      <trkpt lat="44.11025" lon="7.09029">
        <ele>947.59997558594</ele>
        <time>2020-07-30T13:00:52.000Z</time>
      </trkpt>
      <trkpt lat="44.11021" lon="7.09037">
        <ele>948.20001220703</ele>
        <time>2020-07-30T13:00:55.000Z</time>
      </trkpt>
      <trkpt lat="44.11013" lon="7.09046">
        <ele>948.59997558594</ele>
        <time>2020-07-30T13:00:59.000Z</time>
      </trkpt>
      <trkpt lat="44.11007" lon="7.0905">
        <ele>949.20001220703</ele>
        <time>2020-07-30T13:01:02.000Z</time>
      </trkpt>
      <trkpt lat="44.11" lon="7.09054">
        <ele>949.79998779297</ele>
        <time>2020-07-30T13:01:05.000Z</time>
      </trkpt>
      <trkpt lat="44.10992" lon="7.09058">
        <ele>950.40002441406</ele>
        <time>2020-07-30T13:01:09.000Z</time>
      </trkpt>
      <trkpt lat="44.10991" lon="7.09058">
        <ele>950.79998779297</ele>
        <time>2020-07-30T13:01:11.000Z</time>
      </trkpt>
      <trkpt lat="44.1099" lon="7.09058">
        <ele>951.20001220703</ele>
        <time>2020-07-30T13:01:13.000Z</time>
      </trkpt>
      <trkpt lat="44.1099" lon="7.0906">
        <ele>951.40002441406</ele>
        <time>2020-07-30T13:01:18.000Z</time>
      </trkpt>
      <trkpt lat="44.10989" lon="7.09061">
        <ele>951.40002441406</ele>
        <time>2020-07-30T13:01:19.000Z</time>
      </trkpt>
      <trkpt lat="44.10982" lon="7.09066">
        <ele>951.40002441406</ele>
        <time>2020-07-30T13:01:24.000Z</time>
      </trkpt>
      <trkpt lat="44.10977" lon="7.09075">
        <ele>951.59997558594</ele>
        <time>2020-07-30T13:01:28.000Z</time>
      </trkpt>
      <trkpt lat="44.10977" lon="7.09079">
        <ele>951.79998779297</ele>
        <time>2020-07-30T13:01:29.000Z</time>
      </trkpt>
      <trkpt lat="44.10976" lon="7.09082">
        <ele>951.79998779297</ele>
        <time>2020-07-30T13:01:30.000Z</time>
      </trkpt>
      <trkpt lat="44.10977" lon="7.09092">
        <ele>951.79998779297</ele>
        <time>2020-07-30T13:01:33.000Z</time>
      </trkpt>
      <trkpt lat="44.10977" lon="7.09095">
        <ele>952</ele>
        <time>2020-07-30T13:01:34.000Z</time>
      </trkpt>
      <trkpt lat="44.10981" lon="7.09126">
        <ele>952.59997558594</ele>
        <time>2020-07-30T13:01:42.000Z</time>
      </trkpt>
      <trkpt lat="44.1098" lon="7.09133">
        <ele>952.79998779297</ele>
        <time>2020-07-30T13:01:44.000Z</time>
      </trkpt>
      <trkpt lat="44.10975" lon="7.09143">
        <ele>953.40002441406</ele>
        <time>2020-07-30T13:01:47.000Z</time>
      </trkpt>
      <trkpt lat="44.10961" lon="7.09149">
        <ele>954.20001220703</ele>
        <time>2020-07-30T13:01:52.000Z</time>
      </trkpt>
      <trkpt lat="44.10943" lon="7.09162">
        <ele>955.20001220703</ele>
        <time>2020-07-30T13:01:59.000Z</time>
      </trkpt>
      <trkpt lat="44.10925" lon="7.09177">
        <ele>955.79998779297</ele>
        <time>2020-07-30T13:02:06.000Z</time>
      </trkpt>
      <trkpt lat="44.10917" lon="7.0918">
        <ele>956.20001220703</ele>
        <time>2020-07-30T13:02:09.000Z</time>
      </trkpt>
      <trkpt lat="44.10912" lon="7.09184">
        <ele>956.59997558594</ele>
        <time>2020-07-30T13:02:11.000Z</time>
      </trkpt>
      <trkpt lat="44.10903" lon="7.092">
        <ele>957.20001220703</ele>
        <time>2020-07-30T13:02:16.000Z</time>
      </trkpt>
      <trkpt lat="44.109" lon="7.09217">
        <ele>957.40002441406</ele>
        <time>2020-07-30T13:02:20.000Z</time>
      </trkpt>
      <trkpt lat="44.10898" lon="7.09226">
        <ele>957.79998779297</ele>
        <time>2020-07-30T13:02:22.000Z</time>
      </trkpt>
      <trkpt lat="44.10891" lon="7.09241">
        <ele>958.40002441406</ele>
        <time>2020-07-30T13:02:26.000Z</time>
      </trkpt>
      <trkpt lat="44.10883" lon="7.0926">
        <ele>958.79998779297</ele>
        <time>2020-07-30T13:02:31.000Z</time>
      </trkpt>
      <trkpt lat="44.10874" lon="7.09273">
        <ele>959.40002441406</ele>
        <time>2020-07-30T13:02:35.000Z</time>
      </trkpt>
      <trkpt lat="44.10864" lon="7.09283">
        <ele>960.20001220703</ele>
        <time>2020-07-30T13:02:39.000Z</time>
      </trkpt>
      <trkpt lat="44.10859" lon="7.09288">
        <ele>960.40002441406</ele>
        <time>2020-07-30T13:02:41.000Z</time>
      </trkpt>
      <trkpt lat="44.10844" lon="7.09305">
        <ele>961.59997558594</ele>
        <time>2020-07-30T13:02:47.000Z</time>
      </trkpt>
      <trkpt lat="44.10842" lon="7.09307">
        <ele>961.59997558594</ele>
        <time>2020-07-30T13:02:48.000Z</time>
      </trkpt>
      <trkpt lat="44.10825" lon="7.09317">
        <ele>962.59997558594</ele>
        <time>2020-07-30T13:02:55.000Z</time>
      </trkpt>
      <trkpt lat="44.10823" lon="7.09316">
        <ele>962.59997558594</ele>
        <time>2020-07-30T13:02:56.000Z</time>
      </trkpt>
      <trkpt lat="44.10809" lon="7.09309">
        <ele>962.79998779297</ele>
        <time>2020-07-30T13:03:01.000Z</time>
      </trkpt>
      <trkpt lat="44.10797" lon="7.09295">
        <ele>963.79998779297</ele>
        <time>2020-07-30T13:03:06.000Z</time>
      </trkpt>
      <trkpt lat="44.10795" lon="7.09292">
        <ele>964</ele>
        <time>2020-07-30T13:03:07.000Z</time>
      </trkpt>
      <trkpt lat="44.10789" lon="7.09282">
        <ele>964.79998779297</ele>
        <time>2020-07-30T13:03:10.000Z</time>
      </trkpt>
      <trkpt lat="44.10776" lon="7.0927">
        <ele>965.40002441406</ele>
        <time>2020-07-30T13:03:15.000Z</time>
      </trkpt>
      <trkpt lat="44.10771" lon="7.09266">
        <ele>966</ele>
        <time>2020-07-30T13:03:17.000Z</time>
      </trkpt>
      <trkpt lat="44.1076" lon="7.09265">
        <ele>966.40002441406</ele>
        <time>2020-07-30T13:03:21.000Z</time>
      </trkpt>
      <trkpt lat="44.10751" lon="7.09269">
        <ele>967</ele>
        <time>2020-07-30T13:03:24.000Z</time>
      </trkpt>
      <trkpt lat="44.10745" lon="7.09278">
        <ele>967.40002441406</ele>
        <time>2020-07-30T13:03:27.000Z</time>
      </trkpt>
      <trkpt lat="44.10741" lon="7.09289">
        <ele>968</ele>
        <time>2020-07-30T13:03:30.000Z</time>
      </trkpt>
      <trkpt lat="44.10735" lon="7.09301">
        <ele>968.79998779297</ele>
        <time>2020-07-30T13:03:34.000Z</time>
      </trkpt>
      <trkpt lat="44.10733" lon="7.09305">
        <ele>969</ele>
        <time>2020-07-30T13:03:35.000Z</time>
      </trkpt>
      <trkpt lat="44.10719" lon="7.09333">
        <ele>970.20001220703</ele>
        <time>2020-07-30T13:03:44.000Z</time>
      </trkpt>
      <trkpt lat="44.10706" lon="7.09362">
        <ele>971.20001220703</ele>
        <time>2020-07-30T13:03:53.000Z</time>
      </trkpt>
      <trkpt lat="44.10691" lon="7.09377">
        <ele>972</ele>
        <time>2020-07-30T13:04:00.000Z</time>
      </trkpt>
      <trkpt lat="44.10686" lon="7.0938">
        <ele>972.40002441406</ele>
        <time>2020-07-30T13:04:02.000Z</time>
      </trkpt>
      <trkpt lat="44.1067" lon="7.09385">
        <ele>973.40002441406</ele>
        <time>2020-07-30T13:04:08.000Z</time>
      </trkpt>
      <trkpt lat="44.10667" lon="7.09384">
        <ele>973.40002441406</ele>
        <time>2020-07-30T13:04:09.000Z</time>
      </trkpt>
      <trkpt lat="44.10652" lon="7.09379">
        <ele>974.20001220703</ele>
        <time>2020-07-30T13:04:15.000Z</time>
      </trkpt>
      <trkpt lat="44.1065" lon="7.09376">
        <ele>974.40002441406</ele>
        <time>2020-07-30T13:04:16.000Z</time>
      </trkpt>
      <trkpt lat="44.10645" lon="7.09364">
        <ele>975.40002441406</ele>
        <time>2020-07-30T13:04:20.000Z</time>
      </trkpt>
      <trkpt lat="44.10644" lon="7.0936">
        <ele>975.59997558594</ele>
        <time>2020-07-30T13:04:21.000Z</time>
      </trkpt>
      <trkpt lat="44.10638" lon="7.09328">
        <ele>976.59997558594</ele>
        <time>2020-07-30T13:04:30.000Z</time>
      </trkpt>
      <trkpt lat="44.10628" lon="7.09309">
        <ele>977.40002441406</ele>
        <time>2020-07-30T13:04:36.000Z</time>
      </trkpt>
      <trkpt lat="44.10623" lon="7.09306">
        <ele>977.79998779297</ele>
        <time>2020-07-30T13:04:38.000Z</time>
      </trkpt>
      <trkpt lat="44.10613" lon="7.09306">
        <ele>978.20001220703</ele>
        <time>2020-07-30T13:04:41.000Z</time>
      </trkpt>
      <trkpt lat="44.10607" lon="7.0931">
        <ele>978.79998779297</ele>
        <time>2020-07-30T13:04:43.000Z</time>
      </trkpt>
      <trkpt lat="44.106" lon="7.09319">
        <ele>979.20001220703</ele>
        <time>2020-07-30T13:04:46.000Z</time>
      </trkpt>
      <trkpt lat="44.10585" lon="7.09336">
        <ele>979.79998779297</ele>
        <time>2020-07-30T13:04:52.000Z</time>
      </trkpt>
      <trkpt lat="44.10581" lon="7.09341">
        <ele>980.20001220703</ele>
        <time>2020-07-30T13:04:54.000Z</time>
      </trkpt>
      <trkpt lat="44.10572" lon="7.0935">
        <ele>980.79998779297</ele>
        <time>2020-07-30T13:04:58.000Z</time>
      </trkpt>
      <trkpt lat="44.10564" lon="7.09362">
        <ele>981.20001220703</ele>
        <time>2020-07-30T13:05:02.000Z</time>
      </trkpt>
      <trkpt lat="44.10559" lon="7.0937">
        <ele>982</ele>
        <time>2020-07-30T13:05:05.000Z</time>
      </trkpt>
      <trkpt lat="44.10549" lon="7.09382">
        <ele>982.79998779297</ele>
        <time>2020-07-30T13:05:10.000Z</time>
      </trkpt>
      <trkpt lat="44.10545" lon="7.09386">
        <ele>983</ele>
        <time>2020-07-30T13:05:12.000Z</time>
      </trkpt>
      <trkpt lat="44.10533" lon="7.09396">
        <ele>984</ele>
        <time>2020-07-30T13:05:18.000Z</time>
      </trkpt>
      <trkpt lat="44.10532" lon="7.09398">
        <ele>984.20001220703</ele>
        <time>2020-07-30T13:05:19.000Z</time>
      </trkpt>
      <trkpt lat="44.10524" lon="7.0941">
        <ele>985.20001220703</ele>
        <time>2020-07-30T13:05:24.000Z</time>
      </trkpt>
      <trkpt lat="44.10522" lon="7.09412">
        <ele>985.40002441406</ele>
        <time>2020-07-30T13:05:25.000Z</time>
      </trkpt>
      <trkpt lat="44.1051" lon="7.09426">
        <ele>986.40002441406</ele>
        <time>2020-07-30T13:05:32.000Z</time>
      </trkpt>
      <trkpt lat="44.10508" lon="7.09427">
        <ele>986.59997558594</ele>
        <time>2020-07-30T13:05:33.000Z</time>
      </trkpt>
      <trkpt lat="44.10494" lon="7.09434">
        <ele>987.40002441406</ele>
        <time>2020-07-30T13:05:39.000Z</time>
      </trkpt>
      <trkpt lat="44.10492" lon="7.09435">
        <ele>987.79998779297</ele>
        <time>2020-07-30T13:05:40.000Z</time>
      </trkpt>
      <trkpt lat="44.10483" lon="7.09438">
        <ele>988.59997558594</ele>
        <time>2020-07-30T13:05:44.000Z</time>
      </trkpt>
      <trkpt lat="44.10473" lon="7.09443">
        <ele>989.40002441406</ele>
        <time>2020-07-30T13:05:49.000Z</time>
      </trkpt>
      <trkpt lat="44.10471" lon="7.09443">
        <ele>989.59997558594</ele>
        <time>2020-07-30T13:05:50.000Z</time>
      </trkpt>
      <trkpt lat="44.10458" lon="7.09446">
        <ele>990.59997558594</ele>
        <time>2020-07-30T13:05:56.000Z</time>
      </trkpt>
      <trkpt lat="44.10456" lon="7.09447">
        <ele>990.79998779297</ele>
        <time>2020-07-30T13:05:57.000Z</time>
      </trkpt>
      <trkpt lat="44.10441" lon="7.09456">
        <ele>992</ele>
        <time>2020-07-30T13:06:04.000Z</time>
      </trkpt>
      <trkpt lat="44.10424" lon="7.09461">
        <ele>993</ele>
        <time>2020-07-30T13:06:12.000Z</time>
      </trkpt>
      <trkpt lat="44.10419" lon="7.09462">
        <ele>993</ele>
        <time>2020-07-30T13:06:14.000Z</time>
      </trkpt>
      <trkpt lat="44.10407" lon="7.09466">
        <ele>994.20001220703</ele>
        <time>2020-07-30T13:06:19.000Z</time>
      </trkpt>
      <trkpt lat="44.104" lon="7.09467">
        <ele>994.59997558594</ele>
        <time>2020-07-30T13:06:22.000Z</time>
      </trkpt>
      <trkpt lat="44.10393" lon="7.09467">
        <ele>995.20001220703</ele>
        <time>2020-07-30T13:06:25.000Z</time>
      </trkpt>
      <trkpt lat="44.10382" lon="7.09466">
        <ele>995.79998779297</ele>
        <time>2020-07-30T13:06:30.000Z</time>
      </trkpt>
      <trkpt lat="44.10375" lon="7.09465">
        <ele>996.20001220703</ele>
        <time>2020-07-30T13:06:33.000Z</time>
      </trkpt>
      <trkpt lat="44.10358" lon="7.09464">
        <ele>996.79998779297</ele>
        <time>2020-07-30T13:06:40.000Z</time>
      </trkpt>
      <trkpt lat="44.10353" lon="7.09463">
        <ele>997.40002441406</ele>
        <time>2020-07-30T13:06:42.000Z</time>
      </trkpt>
      <trkpt lat="44.10336" lon="7.09461">
        <ele>997.59997558594</ele>
        <time>2020-07-30T13:06:49.000Z</time>
      </trkpt>
      <trkpt lat="44.10324" lon="7.09459">
        <ele>998.40002441406</ele>
        <time>2020-07-30T13:06:54.000Z</time>
      </trkpt>
      <trkpt lat="44.10317" lon="7.09457">
        <ele>999.40002441406</ele>
        <time>2020-07-30T13:06:57.000Z</time>
      </trkpt>
      <trkpt lat="44.10314" lon="7.09456">
        <ele>999.59997558594</ele>
        <time>2020-07-30T13:06:58.000Z</time>
      </trkpt>
      <trkpt lat="44.10304" lon="7.09454">
        <ele>1000.5999755859</ele>
        <time>2020-07-30T13:07:02.000Z</time>
      </trkpt>
      <trkpt lat="44.10286" lon="7.09449">
        <ele>1001.200012207</ele>
        <time>2020-07-30T13:07:09.000Z</time>
      </trkpt>
      <trkpt lat="44.10281" lon="7.09448">
        <ele>1001.5999755859</ele>
        <time>2020-07-30T13:07:11.000Z</time>
      </trkpt>
      <trkpt lat="44.10269" lon="7.09447">
        <ele>1002.799987793</ele>
        <time>2020-07-30T13:07:16.000Z</time>
      </trkpt>
      <trkpt lat="44.10261" lon="7.09447">
        <ele>1003.4000244141</ele>
        <time>2020-07-30T13:07:19.000Z</time>
      </trkpt>
      <trkpt lat="44.10254" lon="7.09448">
        <ele>1004</ele>
        <time>2020-07-30T13:07:22.000Z</time>
      </trkpt>
      <trkpt lat="44.10244" lon="7.09454">
        <ele>1004.5999755859</ele>
        <time>2020-07-30T13:07:27.000Z</time>
      </trkpt>
      <trkpt lat="44.10233" lon="7.09461">
        <ele>1005.4000244141</ele>
        <time>2020-07-30T13:07:31.000Z</time>
      </trkpt>
      <trkpt lat="44.10219" lon="7.0947">
        <ele>1006.4000244141</ele>
        <time>2020-07-30T13:07:37.000Z</time>
      </trkpt>
      <trkpt lat="44.10217" lon="7.09472">
        <ele>1006.5999755859</ele>
        <time>2020-07-30T13:07:38.000Z</time>
      </trkpt>
      <trkpt lat="44.10202" lon="7.09481">
        <ele>1007.5999755859</ele>
        <time>2020-07-30T13:07:44.000Z</time>
      </trkpt>
      <trkpt lat="44.10197" lon="7.09484">
        <ele>1008.200012207</ele>
        <time>2020-07-30T13:07:46.000Z</time>
      </trkpt>
      <trkpt lat="44.10186" lon="7.09492">
        <ele>1008.5999755859</ele>
        <time>2020-07-30T13:07:51.000Z</time>
      </trkpt>
      <trkpt lat="44.10177" lon="7.09499">
        <ele>1009.200012207</ele>
        <time>2020-07-30T13:07:55.000Z</time>
      </trkpt>
      <trkpt lat="44.10159" lon="7.09508">
        <ele>1009.799987793</ele>
        <time>2020-07-30T13:08:02.000Z</time>
      </trkpt>
      <trkpt lat="44.10156" lon="7.09509">
        <ele>1009.799987793</ele>
        <time>2020-07-30T13:08:03.000Z</time>
      </trkpt>
      <trkpt lat="44.10133" lon="7.09516">
        <ele>1010.799987793</ele>
        <time>2020-07-30T13:08:12.000Z</time>
      </trkpt>
      <trkpt lat="44.10131" lon="7.09516">
        <ele>1011</ele>
        <time>2020-07-30T13:08:13.000Z</time>
      </trkpt>
      <trkpt lat="44.10115" lon="7.09519">
        <ele>1012.200012207</ele>
        <time>2020-07-30T13:08:19.000Z</time>
      </trkpt>
      <trkpt lat="44.10109" lon="7.0952">
        <ele>1012.5999755859</ele>
        <time>2020-07-30T13:08:21.000Z</time>
      </trkpt>
      <trkpt lat="44.10094" lon="7.09519">
        <ele>1013.200012207</ele>
        <time>2020-07-30T13:08:27.000Z</time>
      </trkpt>
      <trkpt lat="44.10086" lon="7.09517">
        <ele>1013.5999755859</ele>
        <time>2020-07-30T13:08:30.000Z</time>
      </trkpt>
      <trkpt lat="44.10065" lon="7.09513">
        <ele>1014.4000244141</ele>
        <time>2020-07-30T13:08:38.000Z</time>
      </trkpt>
      <trkpt lat="44.10059" lon="7.09513">
        <ele>1014.5999755859</ele>
        <time>2020-07-30T13:08:40.000Z</time>
      </trkpt>
      <trkpt lat="44.10034" lon="7.09513">
        <ele>1015</ele>
        <time>2020-07-30T13:08:49.000Z</time>
      </trkpt>
      <trkpt lat="44.10029" lon="7.09514">
        <ele>1015.5999755859</ele>
        <time>2020-07-30T13:08:51.000Z</time>
      </trkpt>
      <trkpt lat="44.10013" lon="7.09515">
        <ele>1016.5999755859</ele>
        <time>2020-07-30T13:08:57.000Z</time>
      </trkpt>
      <trkpt lat="44.10011" lon="7.09515">
        <ele>1016.5999755859</ele>
        <time>2020-07-30T13:08:58.000Z</time>
      </trkpt>
      <trkpt lat="44.09998" lon="7.09516">
        <ele>1017.799987793</ele>
        <time>2020-07-30T13:09:03.000Z</time>
      </trkpt>
      <trkpt lat="44.09988" lon="7.09516">
        <ele>1018.200012207</ele>
        <time>2020-07-30T13:09:07.000Z</time>
      </trkpt>
      <trkpt lat="44.09983" lon="7.09515">
        <ele>1018.799987793</ele>
        <time>2020-07-30T13:09:09.000Z</time>
      </trkpt>
      <trkpt lat="44.09967" lon="7.09512">
        <ele>1019.200012207</ele>
        <time>2020-07-30T13:09:16.000Z</time>
      </trkpt>
      <trkpt lat="44.09954" lon="7.09507">
        <ele>1020</ele>
        <time>2020-07-30T13:09:22.000Z</time>
      </trkpt>
      <trkpt lat="44.09947" lon="7.09504">
        <ele>1020.5999755859</ele>
        <time>2020-07-30T13:09:25.000Z</time>
      </trkpt>
      <trkpt lat="44.0994" lon="7.09501">
        <ele>1021</ele>
        <time>2020-07-30T13:09:28.000Z</time>
      </trkpt>
      <trkpt lat="44.09924" lon="7.09492">
        <ele>1022</ele>
        <time>2020-07-30T13:09:35.000Z</time>
      </trkpt>
      <trkpt lat="44.09919" lon="7.0949">
        <ele>1022</ele>
        <time>2020-07-30T13:09:37.000Z</time>
      </trkpt>
      <trkpt lat="44.09904" lon="7.09481">
        <ele>1022.799987793</ele>
        <time>2020-07-30T13:09:44.000Z</time>
      </trkpt>
      <trkpt lat="44.09898" lon="7.09477">
        <ele>1023.200012207</ele>
        <time>2020-07-30T13:09:47.000Z</time>
      </trkpt>
      <trkpt lat="44.09892" lon="7.09473">
        <ele>1024.1999511719</ele>
        <time>2020-07-30T13:09:51.000Z</time>
      </trkpt>
      <trkpt lat="44.0989" lon="7.0947">
        <ele>1024.4000244141</ele>
        <time>2020-07-30T13:09:53.000Z</time>
      </trkpt>
      <trkpt lat="44.09882" lon="7.09464">
        <ele>1024.8000488281</ele>
        <time>2020-07-30T13:09:59.000Z</time>
      </trkpt>
      <trkpt lat="44.09873" lon="7.09463">
        <ele>1025.1999511719</ele>
        <time>2020-07-30T13:10:06.000Z</time>
      </trkpt>
      <trkpt lat="44.09871" lon="7.09462">
        <ele>1025.4000244141</ele>
        <time>2020-07-30T13:10:07.000Z</time>
      </trkpt>
      <trkpt lat="44.09866" lon="7.09464">
        <ele>1026</ele>
        <time>2020-07-30T13:10:11.000Z</time>
      </trkpt>
      <trkpt lat="44.09863" lon="7.09465">
        <ele>1026.1999511719</ele>
        <time>2020-07-30T13:10:13.000Z</time>
      </trkpt>
      <trkpt lat="44.09859" lon="7.09466">
        <ele>1026.5999755859</ele>
        <time>2020-07-30T13:10:15.000Z</time>
      </trkpt>
      <trkpt lat="44.09855" lon="7.0947">
        <ele>1026.8000488281</ele>
        <time>2020-07-30T13:10:18.000Z</time>
      </trkpt>
      <trkpt lat="44.09843" lon="7.09481">
        <ele>1027.8000488281</ele>
        <time>2020-07-30T13:10:25.000Z</time>
      </trkpt>
      <trkpt lat="44.09839" lon="7.09483">
        <ele>1028.1999511719</ele>
        <time>2020-07-30T13:10:27.000Z</time>
      </trkpt>
      <trkpt lat="44.09827" lon="7.09489">
        <ele>1029</ele>
        <time>2020-07-30T13:10:33.000Z</time>
      </trkpt>
      <trkpt lat="44.09826" lon="7.0949">
        <ele>1029.1999511719</ele>
        <time>2020-07-30T13:10:34.000Z</time>
      </trkpt>
      <trkpt lat="44.09821" lon="7.09495">
        <ele>1030</ele>
        <time>2020-07-30T13:10:39.000Z</time>
      </trkpt>
      <trkpt lat="44.09822" lon="7.09495">
        <ele>1030.5999755859</ele>
        <time>2020-07-30T13:10:44.000Z</time>
      </trkpt>
      <trkpt lat="44.09822" lon="7.09495">
        <ele>1031</ele>
        <time>2020-07-30T13:10:47.000Z</time>
      </trkpt>
      <trkpt lat="44.09823" lon="7.09496">
        <ele>1031.1999511719</ele>
        <time>2020-07-30T13:10:51.000Z</time>
      </trkpt>
      <trkpt lat="44.09822" lon="7.09497">
        <ele>1031</ele>
        <time>2020-07-30T13:10:57.000Z</time>
      </trkpt>
      <trkpt lat="44.09822" lon="7.09498">
        <ele>1030.4000244141</ele>
        <time>2020-07-30T13:11:06.000Z</time>
      </trkpt>
      <trkpt lat="44.09822" lon="7.09497">
        <ele>1030</ele>
        <time>2020-07-30T13:11:10.000Z</time>
      </trkpt>
      <trkpt lat="44.09822" lon="7.09498">
        <ele>1030</ele>
        <time>2020-07-30T13:11:14.000Z</time>
      </trkpt>
      <trkpt lat="44.09822" lon="7.09498">
        <ele>1030.1999511719</ele>
        <time>2020-07-30T13:11:37.000Z</time>
      </trkpt>
      <trkpt lat="44.09823" lon="7.09499">
        <ele>1030</ele>
        <time>2020-07-30T13:11:47.000Z</time>
      </trkpt>
      <trkpt lat="44.09823" lon="7.09499">
        <ele>1030</ele>
        <time>2020-07-30T13:12:10.000Z</time>
      </trkpt>
      <trkpt lat="44.09822" lon="7.09498">
        <ele>1030</ele>
        <time>2020-07-30T13:12:35.000Z</time>
      </trkpt>
      <trkpt lat="44.09822" lon="7.09498">
        <ele>1030.1999511719</ele>
        <time>2020-07-30T13:12:46.000Z</time>
      </trkpt>
      <trkpt lat="44.09822" lon="7.09499">
        <ele>1030</ele>
        <time>2020-07-30T13:13:02.000Z</time>
      </trkpt>
      <trkpt lat="44.09823" lon="7.09499">
        <ele>1030</ele>
        <time>2020-07-30T13:13:31.000Z</time>
      </trkpt>
      <trkpt lat="44.09823" lon="7.09499">
        <ele>1029.4000244141</ele>
        <time>2020-07-30T13:14:11.000Z</time>
      </trkpt>
      <trkpt lat="44.09823" lon="7.09499">
        <ele>1029.5999755859</ele>
        <time>2020-07-30T13:14:27.000Z</time>
      </trkpt>
      <trkpt lat="44.09823" lon="7.095">
        <ele>1029.5999755859</ele>
        <time>2020-07-30T13:14:40.000Z</time>
      </trkpt>
      <trkpt lat="44.09823" lon="7.09501">
        <ele>1029.4000244141</ele>
        <time>2020-07-30T13:15:03.000Z</time>
      </trkpt>
      <trkpt lat="44.09823" lon="7.09501">
        <ele>1029</ele>
        <time>2020-07-30T13:15:19.000Z</time>
      </trkpt>
      <trkpt lat="44.09823" lon="7.09501">
        <ele>1028.8000488281</ele>
        <time>2020-07-30T13:15:21.000Z</time>
      </trkpt>
      <trkpt lat="44.09823" lon="7.09502">
        <ele>1028.8000488281</ele>
        <time>2020-07-30T13:15:47.000Z</time>
      </trkpt>
      <trkpt lat="44.09822" lon="7.09502">
        <ele>1029</ele>
        <time>2020-07-30T13:15:59.000Z</time>
      </trkpt>
      <trkpt lat="44.09822" lon="7.09501">
        <ele>1029.1999511719</ele>
        <time>2020-07-30T13:16:30.000Z</time>
      </trkpt>
      <trkpt lat="44.09822" lon="7.095">
        <ele>1029</ele>
        <time>2020-07-30T13:16:58.000Z</time>
      </trkpt>
      <trkpt lat="44.09822" lon="7.095">
        <ele>1029.1999511719</ele>
        <time>2020-07-30T13:17:30.000Z</time>
      </trkpt>
      <trkpt lat="44.09821" lon="7.09501">
        <ele>1029</ele>
        <time>2020-07-30T13:18:01.000Z</time>
      </trkpt>
      <trkpt lat="44.09821" lon="7.095">
        <ele>1028.4000244141</ele>
        <time>2020-07-30T13:18:26.000Z</time>
      </trkpt>
      <trkpt lat="44.09821" lon="7.09501">
        <ele>1028</ele>
        <time>2020-07-30T13:18:38.000Z</time>
      </trkpt>
      <trkpt lat="44.09821" lon="7.09501">
        <ele>1028</ele>
        <time>2020-07-30T13:18:39.000Z</time>
      </trkpt>
      <trkpt lat="44.09821" lon="7.09501">
        <ele>1028</ele>
        <time>2020-07-30T13:18:59.000Z</time>
      </trkpt>
      <trkpt lat="44.09822" lon="7.095">
        <ele>1028.8000488281</ele>
        <time>2020-07-30T13:19:10.000Z</time>
      </trkpt>
      <trkpt lat="44.09822" lon="7.095">
        <ele>1028.5999755859</ele>
        <time>2020-07-30T13:19:27.000Z</time>
      </trkpt>
      <trkpt lat="44.09821" lon="7.095">
        <ele>1028.8000488281</ele>
        <time>2020-07-30T13:19:41.000Z</time>
      </trkpt>
      <trkpt lat="44.09821" lon="7.095">
        <ele>1029.1999511719</ele>
        <time>2020-07-30T13:19:44.000Z</time>
      </trkpt>
      <trkpt lat="44.09821" lon="7.095">
        <ele>1029.1999511719</ele>
        <time>2020-07-30T13:19:45.000Z</time>
      </trkpt>
      <trkpt lat="44.09821" lon="7.095">
        <ele>1028.5999755859</ele>
        <time>2020-07-30T13:19:52.000Z</time>
      </trkpt>
      <trkpt lat="44.0982" lon="7.09501">
        <ele>1028.8000488281</ele>
        <time>2020-07-30T13:20:00.000Z</time>
      </trkpt>
      <trkpt lat="44.0982" lon="7.09502">
        <ele>1030</ele>
        <time>2020-07-30T13:20:08.000Z</time>
      </trkpt>
      <trkpt lat="44.09821" lon="7.09503">
        <ele>1029.8000488281</ele>
        <time>2020-07-30T13:20:14.000Z</time>
      </trkpt>
      <trkpt lat="44.0982" lon="7.09502">
        <ele>1029.5999755859</ele>
        <time>2020-07-30T13:20:19.000Z</time>
      </trkpt>
      <trkpt lat="44.09817" lon="7.09502">
        <ele>1029.4000244141</ele>
        <time>2020-07-30T13:20:26.000Z</time>
      </trkpt>
      <trkpt lat="44.0981" lon="7.09504">
        <ele>1029.4000244141</ele>
        <time>2020-07-30T13:20:31.000Z</time>
      </trkpt>
      <trkpt lat="44.09797" lon="7.09517">
        <ele>1028.4000244141</ele>
        <time>2020-07-30T13:20:36.000Z</time>
      </trkpt>
      <trkpt lat="44.09775" lon="7.09529">
        <ele>1028.4000244141</ele>
        <time>2020-07-30T13:20:41.000Z</time>
      </trkpt>
      <trkpt lat="44.09769" lon="7.0953">
        <ele>1028</ele>
        <time>2020-07-30T13:20:42.000Z</time>
      </trkpt>
      <trkpt lat="44.09751" lon="7.09525">
        <ele>1026.4000244141</ele>
        <time>2020-07-30T13:20:45.000Z</time>
      </trkpt>
      <trkpt lat="44.0974" lon="7.09519">
        <ele>1025.1999511719</ele>
        <time>2020-07-30T13:20:47.000Z</time>
      </trkpt>
      <trkpt lat="44.09733" lon="7.0952">
        <ele>1025</ele>
        <time>2020-07-30T13:20:48.000Z</time>
      </trkpt>
      <trkpt lat="44.0972" lon="7.09526">
        <ele>1024.1999511719</ele>
        <time>2020-07-30T13:20:50.000Z</time>
      </trkpt>
      <trkpt lat="44.09713" lon="7.09528">
        <ele>1023.5999755859</ele>
        <time>2020-07-30T13:20:51.000Z</time>
      </trkpt>
      <trkpt lat="44.09706" lon="7.09527">
        <ele>1022.799987793</ele>
        <time>2020-07-30T13:20:52.000Z</time>
      </trkpt>
      <trkpt lat="44.09693" lon="7.09526">
        <ele>1021.799987793</ele>
        <time>2020-07-30T13:20:54.000Z</time>
      </trkpt>
      <trkpt lat="44.09686" lon="7.09527">
        <ele>1021.200012207</ele>
        <time>2020-07-30T13:20:55.000Z</time>
      </trkpt>
      <trkpt lat="44.09679" lon="7.0953">
        <ele>1020.799987793</ele>
        <time>2020-07-30T13:20:56.000Z</time>
      </trkpt>
      <trkpt lat="44.09674" lon="7.09534">
        <ele>1020.4000244141</ele>
        <time>2020-07-30T13:20:57.000Z</time>
      </trkpt>
      <trkpt lat="44.09665" lon="7.09544">
        <ele>1019.4000244141</ele>
        <time>2020-07-30T13:20:59.000Z</time>
      </trkpt>
      <trkpt lat="44.09655" lon="7.09556">
        <ele>1018.4000244141</ele>
        <time>2020-07-30T13:21:01.000Z</time>
      </trkpt>
      <trkpt lat="44.09651" lon="7.09561">
        <ele>1017.799987793</ele>
        <time>2020-07-30T13:21:02.000Z</time>
      </trkpt>
      <trkpt lat="44.09643" lon="7.09573">
        <ele>1017.200012207</ele>
        <time>2020-07-30T13:21:04.000Z</time>
      </trkpt>
      <trkpt lat="44.09632" lon="7.09583">
        <ele>1016.5999755859</ele>
        <time>2020-07-30T13:21:06.000Z</time>
      </trkpt>
      <trkpt lat="44.09618" lon="7.09593">
        <ele>1015.799987793</ele>
        <time>2020-07-30T13:21:08.000Z</time>
      </trkpt>
      <trkpt lat="44.09604" lon="7.09601">
        <ele>1014.5999755859</ele>
        <time>2020-07-30T13:21:10.000Z</time>
      </trkpt>
      <trkpt lat="44.0959" lon="7.09611">
        <ele>1013</ele>
        <time>2020-07-30T13:21:12.000Z</time>
      </trkpt>
      <trkpt lat="44.09583" lon="7.09614">
        <ele>1012.200012207</ele>
        <time>2020-07-30T13:21:13.000Z</time>
      </trkpt>
      <trkpt lat="44.09577" lon="7.09617">
        <ele>1011.4000244141</ele>
        <time>2020-07-30T13:21:14.000Z</time>
      </trkpt>
      <trkpt lat="44.09563" lon="7.09616">
        <ele>1010.4000244141</ele>
        <time>2020-07-30T13:21:16.000Z</time>
      </trkpt>
      <trkpt lat="44.09557" lon="7.09614">
        <ele>1010</ele>
        <time>2020-07-30T13:21:17.000Z</time>
      </trkpt>
      <trkpt lat="44.09549" lon="7.09614">
        <ele>1009.799987793</ele>
        <time>2020-07-30T13:21:18.000Z</time>
      </trkpt>
      <trkpt lat="44.09536" lon="7.0962">
        <ele>1009.4000244141</ele>
        <time>2020-07-30T13:21:20.000Z</time>
      </trkpt>
      <trkpt lat="44.09521" lon="7.0963">
        <ele>1008</ele>
        <time>2020-07-30T13:21:23.000Z</time>
      </trkpt>
      <trkpt lat="44.09517" lon="7.09634">
        <ele>1007.200012207</ele>
        <time>2020-07-30T13:21:24.000Z</time>
      </trkpt>
      <trkpt lat="44.09512" lon="7.09639">
        <ele>1007</ele>
        <time>2020-07-30T13:21:25.000Z</time>
      </trkpt>
      <trkpt lat="44.09508" lon="7.09644">
        <ele>1006.5999755859</ele>
        <time>2020-07-30T13:21:26.000Z</time>
      </trkpt>
      <trkpt lat="44.09492" lon="7.09658">
        <ele>1005.4000244141</ele>
        <time>2020-07-30T13:21:29.000Z</time>
      </trkpt>
      <trkpt lat="44.09484" lon="7.09663">
        <ele>1005</ele>
        <time>2020-07-30T13:21:30.000Z</time>
      </trkpt>
      <trkpt lat="44.0947" lon="7.09668">
        <ele>1004</ele>
        <time>2020-07-30T13:21:32.000Z</time>
      </trkpt>
      <trkpt lat="44.09456" lon="7.09671">
        <ele>1002.799987793</ele>
        <time>2020-07-30T13:21:34.000Z</time>
      </trkpt>
      <trkpt lat="44.09441" lon="7.09672">
        <ele>1001.799987793</ele>
        <time>2020-07-30T13:21:36.000Z</time>
      </trkpt>
      <trkpt lat="44.09427" lon="7.09673">
        <ele>1000.4000244141</ele>
        <time>2020-07-30T13:21:38.000Z</time>
      </trkpt>
      <trkpt lat="44.09411" lon="7.09675">
        <ele>999.59997558594</ele>
        <time>2020-07-30T13:21:40.000Z</time>
      </trkpt>
      <trkpt lat="44.09404" lon="7.09674">
        <ele>999.20001220703</ele>
        <time>2020-07-30T13:21:41.000Z</time>
      </trkpt>
      <trkpt lat="44.09388" lon="7.09669">
        <ele>997.59997558594</ele>
        <time>2020-07-30T13:21:43.000Z</time>
      </trkpt>
      <trkpt lat="44.09382" lon="7.09666">
        <ele>997</ele>
        <time>2020-07-30T13:21:44.000Z</time>
      </trkpt>
      <trkpt lat="44.09375" lon="7.09663">
        <ele>996</ele>
        <time>2020-07-30T13:21:45.000Z</time>
      </trkpt>
      <trkpt lat="44.09363" lon="7.09655">
        <ele>994.40002441406</ele>
        <time>2020-07-30T13:21:47.000Z</time>
      </trkpt>
      <trkpt lat="44.09345" lon="7.09641">
        <ele>993.20001220703</ele>
        <time>2020-07-30T13:21:50.000Z</time>
      </trkpt>
      <trkpt lat="44.09333" lon="7.0962">
        <ele>991.79998779297</ele>
        <time>2020-07-30T13:21:53.000Z</time>
      </trkpt>
      <trkpt lat="44.09329" lon="7.09611">
        <ele>991.40002441406</ele>
        <time>2020-07-30T13:21:54.000Z</time>
      </trkpt>
      <trkpt lat="44.09326" lon="7.09601">
        <ele>990.79998779297</ele>
        <time>2020-07-30T13:21:55.000Z</time>
      </trkpt>
      <trkpt lat="44.09318" lon="7.09585">
        <ele>989.59997558594</ele>
        <time>2020-07-30T13:21:57.000Z</time>
      </trkpt>
      <trkpt lat="44.09311" lon="7.09568">
        <ele>988.59997558594</ele>
        <time>2020-07-30T13:21:59.000Z</time>
      </trkpt>
      <trkpt lat="44.09305" lon="7.09547">
        <ele>987.20001220703</ele>
        <time>2020-07-30T13:22:01.000Z</time>
      </trkpt>
      <trkpt lat="44.09301" lon="7.09538">
        <ele>986.40002441406</ele>
        <time>2020-07-30T13:22:02.000Z</time>
      </trkpt>
      <trkpt lat="44.09294" lon="7.09532">
        <ele>985.79998779297</ele>
        <time>2020-07-30T13:22:03.000Z</time>
      </trkpt>
      <trkpt lat="44.0928" lon="7.09524">
        <ele>984.20001220703</ele>
        <time>2020-07-30T13:22:05.000Z</time>
      </trkpt>
      <trkpt lat="44.09272" lon="7.09519">
        <ele>983.59997558594</ele>
        <time>2020-07-30T13:22:06.000Z</time>
      </trkpt>
      <trkpt lat="44.09266" lon="7.09513">
        <ele>983.20001220703</ele>
        <time>2020-07-30T13:22:07.000Z</time>
      </trkpt>
      <trkpt lat="44.0926" lon="7.09508">
        <ele>982.59997558594</ele>
        <time>2020-07-30T13:22:08.000Z</time>
      </trkpt>
      <trkpt lat="44.09244" lon="7.09503">
        <ele>982</ele>
        <time>2020-07-30T13:22:10.000Z</time>
      </trkpt>
      <trkpt lat="44.09236" lon="7.09502">
        <ele>981.59997558594</ele>
        <time>2020-07-30T13:22:11.000Z</time>
      </trkpt>
      <trkpt lat="44.09228" lon="7.09502">
        <ele>980.79998779297</ele>
        <time>2020-07-30T13:22:12.000Z</time>
      </trkpt>
      <trkpt lat="44.09214" lon="7.0951">
        <ele>979.79998779297</ele>
        <time>2020-07-30T13:22:14.000Z</time>
      </trkpt>
      <trkpt lat="44.09208" lon="7.09515">
        <ele>979.20001220703</ele>
        <time>2020-07-30T13:22:15.000Z</time>
      </trkpt>
      <trkpt lat="44.09196" lon="7.09523">
        <ele>978.40002441406</ele>
        <time>2020-07-30T13:22:17.000Z</time>
      </trkpt>
      <trkpt lat="44.09183" lon="7.09531">
        <ele>977.59997558594</ele>
        <time>2020-07-30T13:22:19.000Z</time>
      </trkpt>
      <trkpt lat="44.09176" lon="7.09536">
        <ele>977.20001220703</ele>
        <time>2020-07-30T13:22:20.000Z</time>
      </trkpt>
      <trkpt lat="44.0917" lon="7.09541">
        <ele>976.79998779297</ele>
        <time>2020-07-30T13:22:21.000Z</time>
      </trkpt>
      <trkpt lat="44.09158" lon="7.09552">
        <ele>976.20001220703</ele>
        <time>2020-07-30T13:22:23.000Z</time>
      </trkpt>
      <trkpt lat="44.09152" lon="7.09556">
        <ele>975.59997558594</ele>
        <time>2020-07-30T13:22:24.000Z</time>
      </trkpt>
      <trkpt lat="44.09137" lon="7.09557">
        <ele>974.79998779297</ele>
        <time>2020-07-30T13:22:26.000Z</time>
      </trkpt>
      <trkpt lat="44.09123" lon="7.09559">
        <ele>973.40002441406</ele>
        <time>2020-07-30T13:22:28.000Z</time>
      </trkpt>
      <trkpt lat="44.09117" lon="7.09562">
        <ele>973</ele>
        <time>2020-07-30T13:22:29.000Z</time>
      </trkpt>
      <trkpt lat="44.09109" lon="7.09566">
        <ele>972.20001220703</ele>
        <time>2020-07-30T13:22:30.000Z</time>
      </trkpt>
      <trkpt lat="44.09103" lon="7.0957">
        <ele>971.40002441406</ele>
        <time>2020-07-30T13:22:31.000Z</time>
      </trkpt>
      <trkpt lat="44.09096" lon="7.09573">
        <ele>970.79998779297</ele>
        <time>2020-07-30T13:22:32.000Z</time>
      </trkpt>
      <trkpt lat="44.09088" lon="7.09573">
        <ele>970.20001220703</ele>
        <time>2020-07-30T13:22:33.000Z</time>
      </trkpt>
      <trkpt lat="44.09073" lon="7.09571">
        <ele>969.59997558594</ele>
        <time>2020-07-30T13:22:35.000Z</time>
      </trkpt>
      <trkpt lat="44.09057" lon="7.09567">
        <ele>968.79998779297</ele>
        <time>2020-07-30T13:22:37.000Z</time>
      </trkpt>
      <trkpt lat="44.09049" lon="7.09563">
        <ele>968.40002441406</ele>
        <time>2020-07-30T13:22:38.000Z</time>
      </trkpt>
      <trkpt lat="44.09034" lon="7.09554">
        <ele>967</ele>
        <time>2020-07-30T13:22:40.000Z</time>
      </trkpt>
      <trkpt lat="44.09028" lon="7.09548">
        <ele>966.20001220703</ele>
        <time>2020-07-30T13:22:41.000Z</time>
      </trkpt>
      <trkpt lat="44.09023" lon="7.09541">
        <ele>965.40002441406</ele>
        <time>2020-07-30T13:22:42.000Z</time>
      </trkpt>
      <trkpt lat="44.09014" lon="7.09526">
        <ele>964.59997558594</ele>
        <time>2020-07-30T13:22:44.000Z</time>
      </trkpt>
      <trkpt lat="44.0901" lon="7.09518">
        <ele>964.20001220703</ele>
        <time>2020-07-30T13:22:45.000Z</time>
      </trkpt>
      <trkpt lat="44.08998" lon="7.09496">
        <ele>962.79998779297</ele>
        <time>2020-07-30T13:22:48.000Z</time>
      </trkpt>
      <trkpt lat="44.08995" lon="7.09481">
        <ele>962</ele>
        <time>2020-07-30T13:22:50.000Z</time>
      </trkpt>
      <trkpt lat="44.08993" lon="7.09474">
        <ele>961.59997558594</ele>
        <time>2020-07-30T13:22:51.000Z</time>
      </trkpt>
      <trkpt lat="44.0899" lon="7.09465">
        <ele>960.79998779297</ele>
        <time>2020-07-30T13:22:53.000Z</time>
      </trkpt>
      <trkpt lat="44.08988" lon="7.09461">
        <ele>960.40002441406</ele>
        <time>2020-07-30T13:22:54.000Z</time>
      </trkpt>
      <trkpt lat="44.08984" lon="7.09457">
        <ele>959.79998779297</ele>
        <time>2020-07-30T13:22:58.000Z</time>
      </trkpt>
      <trkpt lat="44.08985" lon="7.09456">
        <ele>959.59997558594</ele>
        <time>2020-07-30T13:23:14.000Z</time>
      </trkpt>
      <trkpt lat="44.08979" lon="7.09449">
        <ele>959.59997558594</ele>
        <time>2020-07-30T13:23:19.000Z</time>
      </trkpt>
      <trkpt lat="44.08978" lon="7.09446">
        <ele>959.40002441406</ele>
        <time>2020-07-30T13:23:20.000Z</time>
      </trkpt>
      <trkpt lat="44.08977" lon="7.09446">
        <ele>959.20001220703</ele>
        <time>2020-07-30T13:23:21.000Z</time>
      </trkpt>
      <trkpt lat="44.08976" lon="7.0945">
        <ele>958.40002441406</ele>
        <time>2020-07-30T13:23:23.000Z</time>
      </trkpt>
      <trkpt lat="44.08976" lon="7.09454">
        <ele>957.79998779297</ele>
        <time>2020-07-30T13:23:24.000Z</time>
      </trkpt>
      <trkpt lat="44.08976" lon="7.09459">
        <ele>956.40002441406</ele>
        <time>2020-07-30T13:23:26.000Z</time>
      </trkpt>
      <trkpt lat="44.08976" lon="7.09459">
        <ele>955.40002441406</ele>
        <time>2020-07-30T13:23:27.000Z</time>
      </trkpt>
      <trkpt lat="44.08975" lon="7.09459">
        <ele>955</ele>
        <time>2020-07-30T13:23:28.000Z</time>
      </trkpt>
      <trkpt lat="44.08974" lon="7.09459">
        <ele>953.59997558594</ele>
        <time>2020-07-30T13:23:30.000Z</time>
      </trkpt>
      <trkpt lat="44.08973" lon="7.09457">
        <ele>953.40002441406</ele>
        <time>2020-07-30T13:23:31.000Z</time>
      </trkpt>
      <trkpt lat="44.08972" lon="7.09453">
        <ele>952.79998779297</ele>
        <time>2020-07-30T13:23:35.000Z</time>
      </trkpt>
      <trkpt lat="44.08972" lon="7.09453">
        <ele>952.59997558594</ele>
        <time>2020-07-30T13:23:36.000Z</time>
      </trkpt>
      <trkpt lat="44.08971" lon="7.09455">
        <ele>952</ele>
        <time>2020-07-30T13:23:38.000Z</time>
      </trkpt>
      <trkpt lat="44.08972" lon="7.09459">
        <ele>951.79998779297</ele>
        <time>2020-07-30T13:23:40.000Z</time>
      </trkpt>
      <trkpt lat="44.08973" lon="7.09468">
        <ele>951.40002441406</ele>
        <time>2020-07-30T13:23:42.000Z</time>
      </trkpt>
      <trkpt lat="44.08973" lon="7.09474">
        <ele>951.20001220703</ele>
        <time>2020-07-30T13:23:43.000Z</time>
      </trkpt>
      <trkpt lat="44.08972" lon="7.09481">
        <ele>951.20001220703</ele>
        <time>2020-07-30T13:23:44.000Z</time>
      </trkpt>
      <trkpt lat="44.08969" lon="7.09495">
        <ele>950.59997558594</ele>
        <time>2020-07-30T13:23:46.000Z</time>
      </trkpt>
      <trkpt lat="44.08969" lon="7.095">
        <ele>949.79998779297</ele>
        <time>2020-07-30T13:23:47.000Z</time>
      </trkpt>
      <trkpt lat="44.08969" lon="7.09506">
        <ele>949</ele>
        <time>2020-07-30T13:23:48.000Z</time>
      </trkpt>
      <trkpt lat="44.08969" lon="7.09512">
        <ele>948.20001220703</ele>
        <time>2020-07-30T13:23:49.000Z</time>
      </trkpt>
      <trkpt lat="44.0897" lon="7.09525">
        <ele>946.40002441406</ele>
        <time>2020-07-30T13:23:51.000Z</time>
      </trkpt>
      <trkpt lat="44.08972" lon="7.09529">
        <ele>945.59997558594</ele>
        <time>2020-07-30T13:23:52.000Z</time>
      </trkpt>
      <trkpt lat="44.08974" lon="7.09534">
        <ele>945</ele>
        <time>2020-07-30T13:23:53.000Z</time>
      </trkpt>
      <trkpt lat="44.08977" lon="7.09548">
        <ele>943.40002441406</ele>
        <time>2020-07-30T13:23:55.000Z</time>
      </trkpt>
      <trkpt lat="44.08978" lon="7.09556">
        <ele>942.79998779297</ele>
        <time>2020-07-30T13:23:56.000Z</time>
      </trkpt>
      <trkpt lat="44.0898" lon="7.09563">
        <ele>942.20001220703</ele>
        <time>2020-07-30T13:23:57.000Z</time>
      </trkpt>
      <trkpt lat="44.08983" lon="7.0957">
        <ele>941.20001220703</ele>
        <time>2020-07-30T13:23:58.000Z</time>
      </trkpt>
      <trkpt lat="44.08985" lon="7.09576">
        <ele>940.59997558594</ele>
        <time>2020-07-30T13:23:59.000Z</time>
      </trkpt>
      <trkpt lat="44.08988" lon="7.09583">
        <ele>939.59997558594</ele>
        <time>2020-07-30T13:24:00.000Z</time>
      </trkpt>
      <trkpt lat="44.0899" lon="7.09587">
        <ele>939.20001220703</ele>
        <time>2020-07-30T13:24:01.000Z</time>
      </trkpt>
      <trkpt lat="44.08992" lon="7.0959">
        <ele>938</ele>
        <time>2020-07-30T13:24:02.000Z</time>
      </trkpt>
      <trkpt lat="44.08994" lon="7.09594">
        <ele>938.20001220703</ele>
        <time>2020-07-30T13:24:03.000Z</time>
      </trkpt>
      <trkpt lat="44.08997" lon="7.09598">
        <ele>937.59997558594</ele>
        <time>2020-07-30T13:24:04.000Z</time>
      </trkpt>
      <trkpt lat="44.09007" lon="7.09605">
        <ele>936.40002441406</ele>
        <time>2020-07-30T13:24:06.000Z</time>
      </trkpt>
      <trkpt lat="44.09015" lon="7.09614">
        <ele>935</ele>
        <time>2020-07-30T13:24:08.000Z</time>
      </trkpt>
      <trkpt lat="44.09018" lon="7.09618">
        <ele>934.40002441406</ele>
        <time>2020-07-30T13:24:09.000Z</time>
      </trkpt>
      <trkpt lat="44.09023" lon="7.09622">
        <ele>933.79998779297</ele>
        <time>2020-07-30T13:24:10.000Z</time>
      </trkpt>
      <trkpt lat="44.09027" lon="7.09626">
        <ele>932.59997558594</ele>
        <time>2020-07-30T13:24:11.000Z</time>
      </trkpt>
      <trkpt lat="44.09032" lon="7.09631">
        <ele>931.40002441406</ele>
        <time>2020-07-30T13:24:12.000Z</time>
      </trkpt>
      <trkpt lat="44.09037" lon="7.09636">
        <ele>930.59997558594</ele>
        <time>2020-07-30T13:24:13.000Z</time>
      </trkpt>
      <trkpt lat="44.09039" lon="7.0964">
        <ele>930.20001220703</ele>
        <time>2020-07-30T13:24:14.000Z</time>
      </trkpt>
      <trkpt lat="44.09042" lon="7.09643">
        <ele>929.20001220703</ele>
        <time>2020-07-30T13:24:15.000Z</time>
      </trkpt>
      <trkpt lat="44.09042" lon="7.09646">
        <ele>929.40002441406</ele>
        <time>2020-07-30T13:24:16.000Z</time>
      </trkpt>
      <trkpt lat="44.09035" lon="7.09643">
        <ele>928.79998779297</ele>
        <time>2020-07-30T13:24:19.000Z</time>
      </trkpt>
      <trkpt lat="44.0903" lon="7.09641">
        <ele>928.40002441406</ele>
        <time>2020-07-30T13:24:20.000Z</time>
      </trkpt>
      <trkpt lat="44.09025" lon="7.09639">
        <ele>928</ele>
        <time>2020-07-30T13:24:21.000Z</time>
      </trkpt>
      <trkpt lat="44.09014" lon="7.09636">
        <ele>926.40002441406</ele>
        <time>2020-07-30T13:24:23.000Z</time>
      </trkpt>
      <trkpt lat="44.09007" lon="7.09634">
        <ele>925.79998779297</ele>
        <time>2020-07-30T13:24:24.000Z</time>
      </trkpt>
      <trkpt lat="44.09" lon="7.09633">
        <ele>924.20001220703</ele>
        <time>2020-07-30T13:24:25.000Z</time>
      </trkpt>
      <trkpt lat="44.08994" lon="7.09631">
        <ele>923</ele>
        <time>2020-07-30T13:24:26.000Z</time>
      </trkpt>
      <trkpt lat="44.08981" lon="7.09629">
        <ele>920.40002441406</ele>
        <time>2020-07-30T13:24:28.000Z</time>
      </trkpt>
      <trkpt lat="44.08976" lon="7.09628">
        <ele>919</ele>
        <time>2020-07-30T13:24:29.000Z</time>
      </trkpt>
      <trkpt lat="44.08968" lon="7.09628">
        <ele>918.40002441406</ele>
        <time>2020-07-30T13:24:30.000Z</time>
      </trkpt>
      <trkpt lat="44.08961" lon="7.09628">
        <ele>917.20001220703</ele>
        <time>2020-07-30T13:24:31.000Z</time>
      </trkpt>
      <trkpt lat="44.08956" lon="7.09629">
        <ele>916.20001220703</ele>
        <time>2020-07-30T13:24:32.000Z</time>
      </trkpt>
      <trkpt lat="44.08948" lon="7.09628">
        <ele>915</ele>
        <time>2020-07-30T13:24:34.000Z</time>
      </trkpt>
      <trkpt lat="44.08944" lon="7.09626">
        <ele>914.59997558594</ele>
        <time>2020-07-30T13:24:35.000Z</time>
      </trkpt>
      <trkpt lat="44.08932" lon="7.09618">
        <ele>913.59997558594</ele>
        <time>2020-07-30T13:24:38.000Z</time>
      </trkpt>
      <trkpt lat="44.08927" lon="7.09617">
        <ele>913.59997558594</ele>
        <time>2020-07-30T13:24:39.000Z</time>
      </trkpt>
      <trkpt lat="44.08919" lon="7.09608">
        <ele>912.59997558594</ele>
        <time>2020-07-30T13:24:41.000Z</time>
      </trkpt>
      <trkpt lat="44.08917" lon="7.09602">
        <ele>911.79998779297</ele>
        <time>2020-07-30T13:24:42.000Z</time>
      </trkpt>
      <trkpt lat="44.08915" lon="7.09596">
        <ele>911.20001220703</ele>
        <time>2020-07-30T13:24:43.000Z</time>
      </trkpt>
      <trkpt lat="44.08914" lon="7.0959">
        <ele>910.20001220703</ele>
        <time>2020-07-30T13:24:44.000Z</time>
      </trkpt>
      <trkpt lat="44.08913" lon="7.09582">
        <ele>909.40002441406</ele>
        <time>2020-07-30T13:24:45.000Z</time>
      </trkpt>
      <trkpt lat="44.08911" lon="7.09565">
        <ele>908.20001220703</ele>
        <time>2020-07-30T13:24:47.000Z</time>
      </trkpt>
      <trkpt lat="44.08909" lon="7.09551">
        <ele>906.79998779297</ele>
        <time>2020-07-30T13:24:49.000Z</time>
      </trkpt>
      <trkpt lat="44.08906" lon="7.09545">
        <ele>905.79998779297</ele>
        <time>2020-07-30T13:24:50.000Z</time>
      </trkpt>
      <trkpt lat="44.089" lon="7.0953">
        <ele>904</ele>
        <time>2020-07-30T13:24:52.000Z</time>
      </trkpt>
      <trkpt lat="44.08897" lon="7.09514">
        <ele>902.40002441406</ele>
        <time>2020-07-30T13:24:54.000Z</time>
      </trkpt>
      <trkpt lat="44.08895" lon="7.09498">
        <ele>901.20001220703</ele>
        <time>2020-07-30T13:24:56.000Z</time>
      </trkpt>
      <trkpt lat="44.08894" lon="7.09482">
        <ele>900</ele>
        <time>2020-07-30T13:24:58.000Z</time>
      </trkpt>
      <trkpt lat="44.08895" lon="7.09476">
        <ele>899.40002441406</ele>
        <time>2020-07-30T13:24:59.000Z</time>
      </trkpt>
      <trkpt lat="44.08896" lon="7.09469">
        <ele>898.79998779297</ele>
        <time>2020-07-30T13:25:00.000Z</time>
      </trkpt>
      <trkpt lat="44.08898" lon="7.09464">
        <ele>897.59997558594</ele>
        <time>2020-07-30T13:25:01.000Z</time>
      </trkpt>
      <trkpt lat="44.089" lon="7.09458">
        <ele>896.59997558594</ele>
        <time>2020-07-30T13:25:02.000Z</time>
      </trkpt>
      <trkpt lat="44.08902" lon="7.09453">
        <ele>895.79998779297</ele>
        <time>2020-07-30T13:25:03.000Z</time>
      </trkpt>
      <trkpt lat="44.08905" lon="7.09447">
        <ele>895.20001220703</ele>
        <time>2020-07-30T13:25:04.000Z</time>
      </trkpt>
      <trkpt lat="44.08907" lon="7.09441">
        <ele>894.40002441406</ele>
        <time>2020-07-30T13:25:05.000Z</time>
      </trkpt>
      <trkpt lat="44.08909" lon="7.09434">
        <ele>894</ele>
        <time>2020-07-30T13:25:06.000Z</time>
      </trkpt>
      <trkpt lat="44.08906" lon="7.0942">
        <ele>893</ele>
        <time>2020-07-30T13:25:08.000Z</time>
      </trkpt>
      <trkpt lat="44.08905" lon="7.09414">
        <ele>892.40002441406</ele>
        <time>2020-07-30T13:25:09.000Z</time>
      </trkpt>
      <trkpt lat="44.08903" lon="7.09408">
        <ele>891.79998779297</ele>
        <time>2020-07-30T13:25:10.000Z</time>
      </trkpt>
      <trkpt lat="44.08901" lon="7.09406">
        <ele>890.40002441406</ele>
        <time>2020-07-30T13:25:12.000Z</time>
      </trkpt>
      <trkpt lat="44.08902" lon="7.09418">
        <ele>889.40002441406</ele>
        <time>2020-07-30T13:25:15.000Z</time>
      </trkpt>
      <trkpt lat="44.08901" lon="7.09424">
        <ele>889</ele>
        <time>2020-07-30T13:25:16.000Z</time>
      </trkpt>
      <trkpt lat="44.08897" lon="7.09435">
        <ele>888.40002441406</ele>
        <time>2020-07-30T13:25:18.000Z</time>
      </trkpt>
      <trkpt lat="44.08896" lon="7.0944">
        <ele>887.59997558594</ele>
        <time>2020-07-30T13:25:19.000Z</time>
      </trkpt>
      <trkpt lat="44.08893" lon="7.09446">
        <ele>887</ele>
        <time>2020-07-30T13:25:20.000Z</time>
      </trkpt>
      <trkpt lat="44.0889" lon="7.09451">
        <ele>886.20001220703</ele>
        <time>2020-07-30T13:25:21.000Z</time>
      </trkpt>
      <trkpt lat="44.08886" lon="7.09458">
        <ele>885.59997558594</ele>
        <time>2020-07-30T13:25:22.000Z</time>
      </trkpt>
      <trkpt lat="44.08883" lon="7.09462">
        <ele>884.79998779297</ele>
        <time>2020-07-30T13:25:23.000Z</time>
      </trkpt>
      <trkpt lat="44.08875" lon="7.09473">
        <ele>883.20001220703</ele>
        <time>2020-07-30T13:25:25.000Z</time>
      </trkpt>
      <trkpt lat="44.08872" lon="7.09486">
        <ele>881.40002441406</ele>
        <time>2020-07-30T13:25:27.000Z</time>
      </trkpt>
      <trkpt lat="44.08865" lon="7.09496">
        <ele>880.40002441406</ele>
        <time>2020-07-30T13:25:29.000Z</time>
      </trkpt>
      <trkpt lat="44.0886" lon="7.095">
        <ele>879.59997558594</ele>
        <time>2020-07-30T13:25:30.000Z</time>
      </trkpt>
      <trkpt lat="44.08852" lon="7.09511">
        <ele>879</ele>
        <time>2020-07-30T13:25:33.000Z</time>
      </trkpt>
      <trkpt lat="44.08851" lon="7.09517">
        <ele>878.40002441406</ele>
        <time>2020-07-30T13:25:34.000Z</time>
      </trkpt>
      <trkpt lat="44.0885" lon="7.09523">
        <ele>877.59997558594</ele>
        <time>2020-07-30T13:25:35.000Z</time>
      </trkpt>
      <trkpt lat="44.08846" lon="7.09539">
        <ele>875.79998779297</ele>
        <time>2020-07-30T13:25:37.000Z</time>
      </trkpt>
      <trkpt lat="44.08839" lon="7.09552">
        <ele>874.79998779297</ele>
        <time>2020-07-30T13:25:39.000Z</time>
      </trkpt>
      <trkpt lat="44.08834" lon="7.0956">
        <ele>874.20001220703</ele>
        <time>2020-07-30T13:25:40.000Z</time>
      </trkpt>
      <trkpt lat="44.0883" lon="7.09567">
        <ele>873</ele>
        <time>2020-07-30T13:25:41.000Z</time>
      </trkpt>
      <trkpt lat="44.08827" lon="7.09574">
        <ele>872</ele>
        <time>2020-07-30T13:25:42.000Z</time>
      </trkpt>
      <trkpt lat="44.08826" lon="7.0958">
        <ele>870.40002441406</ele>
        <time>2020-07-30T13:25:43.000Z</time>
      </trkpt>
      <trkpt lat="44.08826" lon="7.09587">
        <ele>869</ele>
        <time>2020-07-30T13:25:44.000Z</time>
      </trkpt>
      <trkpt lat="44.08827" lon="7.09594">
        <ele>867.79998779297</ele>
        <time>2020-07-30T13:25:45.000Z</time>
      </trkpt>
      <trkpt lat="44.08831" lon="7.09604">
        <ele>866</ele>
        <time>2020-07-30T13:25:47.000Z</time>
      </trkpt>
      <trkpt lat="44.08833" lon="7.09609">
        <ele>865.20001220703</ele>
        <time>2020-07-30T13:25:48.000Z</time>
      </trkpt>
      <trkpt lat="44.08834" lon="7.09612">
        <ele>864.79998779297</ele>
        <time>2020-07-30T13:25:49.000Z</time>
      </trkpt>
      <trkpt lat="44.08837" lon="7.09617">
        <ele>864.40002441406</ele>
        <time>2020-07-30T13:25:51.000Z</time>
      </trkpt>
      <trkpt lat="44.08839" lon="7.0962">
        <ele>863.79998779297</ele>
        <time>2020-07-30T13:25:56.000Z</time>
      </trkpt>
      <trkpt lat="44.08839" lon="7.0962">
        <ele>863.59997558594</ele>
        <time>2020-07-30T13:25:57.000Z</time>
      </trkpt>
      <trkpt lat="44.08839" lon="7.09619">
        <ele>863.20001220703</ele>
        <time>2020-07-30T13:26:14.000Z</time>
      </trkpt>
      <trkpt lat="44.08843" lon="7.09625">
        <ele>863.20001220703</ele>
        <time>2020-07-30T13:26:17.000Z</time>
      </trkpt>
      <trkpt lat="44.08849" lon="7.09632">
        <ele>863</ele>
        <time>2020-07-30T13:26:19.000Z</time>
      </trkpt>
      <trkpt lat="44.08852" lon="7.09638">
        <ele>862.59997558594</ele>
        <time>2020-07-30T13:26:20.000Z</time>
      </trkpt>
      <trkpt lat="44.08856" lon="7.09645">
        <ele>862.20001220703</ele>
        <time>2020-07-30T13:26:21.000Z</time>
      </trkpt>
      <trkpt lat="44.08864" lon="7.0966">
        <ele>860.59997558594</ele>
        <time>2020-07-30T13:26:23.000Z</time>
      </trkpt>
      <trkpt lat="44.08868" lon="7.09669">
        <ele>860.59997558594</ele>
        <time>2020-07-30T13:26:24.000Z</time>
      </trkpt>
      <trkpt lat="44.08871" lon="7.09683">
        <ele>859.40002441406</ele>
        <time>2020-07-30T13:26:26.000Z</time>
      </trkpt>
      <trkpt lat="44.0887" lon="7.09685">
        <ele>857.79998779297</ele>
        <time>2020-07-30T13:26:27.000Z</time>
      </trkpt>
      <trkpt lat="44.08867" lon="7.09682">
        <ele>855.79998779297</ele>
        <time>2020-07-30T13:26:29.000Z</time>
      </trkpt>
      <trkpt lat="44.08861" lon="7.09671">
        <ele>854.40002441406</ele>
        <time>2020-07-30T13:26:31.000Z</time>
      </trkpt>
      <trkpt lat="44.08856" lon="7.09665">
        <ele>854</ele>
        <time>2020-07-30T13:26:32.000Z</time>
      </trkpt>
      <trkpt lat="44.08843" lon="7.0966">
        <ele>852.79998779297</ele>
        <time>2020-07-30T13:26:34.000Z</time>
      </trkpt>
      <trkpt lat="44.08835" lon="7.09658">
        <ele>851.79998779297</ele>
        <time>2020-07-30T13:26:35.000Z</time>
      </trkpt>
      <trkpt lat="44.08827" lon="7.09656">
        <ele>850.79998779297</ele>
        <time>2020-07-30T13:26:36.000Z</time>
      </trkpt>
      <trkpt lat="44.08819" lon="7.09655">
        <ele>849.40002441406</ele>
        <time>2020-07-30T13:26:37.000Z</time>
      </trkpt>
      <trkpt lat="44.08806" lon="7.09652">
        <ele>847.59997558594</ele>
        <time>2020-07-30T13:26:39.000Z</time>
      </trkpt>
      <trkpt lat="44.08796" lon="7.09646">
        <ele>846.59997558594</ele>
        <time>2020-07-30T13:26:40.000Z</time>
      </trkpt>
      <trkpt lat="44.08792" lon="7.09641">
        <ele>846.20001220703</ele>
        <time>2020-07-30T13:26:41.000Z</time>
      </trkpt>
      <trkpt lat="44.08785" lon="7.0963">
        <ele>846.40002441406</ele>
        <time>2020-07-30T13:26:43.000Z</time>
      </trkpt>
      <trkpt lat="44.08776" lon="7.09615">
        <ele>844.59997558594</ele>
        <time>2020-07-30T13:26:45.000Z</time>
      </trkpt>
      <trkpt lat="44.08774" lon="7.09605">
        <ele>843.79998779297</ele>
        <time>2020-07-30T13:26:46.000Z</time>
      </trkpt>
      <trkpt lat="44.08774" lon="7.09597">
        <ele>842.59997558594</ele>
        <time>2020-07-30T13:26:47.000Z</time>
      </trkpt>
      <trkpt lat="44.08779" lon="7.09578">
        <ele>840.40002441406</ele>
        <time>2020-07-30T13:26:49.000Z</time>
      </trkpt>
      <trkpt lat="44.08784" lon="7.09556">
        <ele>838.79998779297</ele>
        <time>2020-07-30T13:26:51.000Z</time>
      </trkpt>
      <trkpt lat="44.08785" lon="7.09546">
        <ele>837.79998779297</ele>
        <time>2020-07-30T13:26:52.000Z</time>
      </trkpt>
      <trkpt lat="44.08787" lon="7.09536">
        <ele>836.59997558594</ele>
        <time>2020-07-30T13:26:53.000Z</time>
      </trkpt>
      <trkpt lat="44.08789" lon="7.09528">
        <ele>835.59997558594</ele>
        <time>2020-07-30T13:26:54.000Z</time>
      </trkpt>
      <trkpt lat="44.08792" lon="7.09519">
        <ele>834.40002441406</ele>
        <time>2020-07-30T13:26:55.000Z</time>
      </trkpt>
      <trkpt lat="44.08796" lon="7.09511">
        <ele>833.40002441406</ele>
        <time>2020-07-30T13:26:56.000Z</time>
      </trkpt>
      <trkpt lat="44.088" lon="7.09501">
        <ele>832.40002441406</ele>
        <time>2020-07-30T13:26:57.000Z</time>
      </trkpt>
      <trkpt lat="44.08805" lon="7.09492">
        <ele>831.20001220703</ele>
        <time>2020-07-30T13:26:58.000Z</time>
      </trkpt>
      <trkpt lat="44.08815" lon="7.09472">
        <ele>829.59997558594</ele>
        <time>2020-07-30T13:27:00.000Z</time>
      </trkpt>
      <trkpt lat="44.08818" lon="7.09463">
        <ele>828.59997558594</ele>
        <time>2020-07-30T13:27:01.000Z</time>
      </trkpt>
      <trkpt lat="44.08819" lon="7.09453">
        <ele>827.20001220703</ele>
        <time>2020-07-30T13:27:02.000Z</time>
      </trkpt>
      <trkpt lat="44.08821" lon="7.09441">
        <ele>825.59997558594</ele>
        <time>2020-07-30T13:27:03.000Z</time>
      </trkpt>
      <trkpt lat="44.08822" lon="7.09429">
        <ele>824.40002441406</ele>
        <time>2020-07-30T13:27:04.000Z</time>
      </trkpt>
      <trkpt lat="44.08822" lon="7.09416">
        <ele>824</ele>
        <time>2020-07-30T13:27:05.000Z</time>
      </trkpt>
      <trkpt lat="44.08822" lon="7.09404">
        <ele>822</ele>
        <time>2020-07-30T13:27:06.000Z</time>
      </trkpt>
      <trkpt lat="44.08823" lon="7.09393">
        <ele>820.40002441406</ele>
        <time>2020-07-30T13:27:07.000Z</time>
      </trkpt>
      <trkpt lat="44.08824" lon="7.09385">
        <ele>819.20001220703</ele>
        <time>2020-07-30T13:27:08.000Z</time>
      </trkpt>
      <trkpt lat="44.08825" lon="7.09379">
        <ele>818</ele>
        <time>2020-07-30T13:27:09.000Z</time>
      </trkpt>
      <trkpt lat="44.08824" lon="7.09377">
        <ele>816.79998779297</ele>
        <time>2020-07-30T13:27:10.000Z</time>
      </trkpt>
      <trkpt lat="44.08823" lon="7.09377">
        <ele>815.59997558594</ele>
        <time>2020-07-30T13:27:11.000Z</time>
      </trkpt>
      <trkpt lat="44.08821" lon="7.09388">
        <ele>814.20001220703</ele>
        <time>2020-07-30T13:27:13.000Z</time>
      </trkpt>
      <trkpt lat="44.08819" lon="7.09396">
        <ele>813.79998779297</ele>
        <time>2020-07-30T13:27:14.000Z</time>
      </trkpt>
      <trkpt lat="44.08817" lon="7.09405">
        <ele>813</ele>
        <time>2020-07-30T13:27:15.000Z</time>
      </trkpt>
      <trkpt lat="44.08811" lon="7.09425">
        <ele>812</ele>
        <time>2020-07-30T13:27:17.000Z</time>
      </trkpt>
      <trkpt lat="44.08807" lon="7.09436">
        <ele>811</ele>
        <time>2020-07-30T13:27:18.000Z</time>
      </trkpt>
      <trkpt lat="44.08802" lon="7.09445">
        <ele>810.20001220703</ele>
        <time>2020-07-30T13:27:19.000Z</time>
      </trkpt>
      <trkpt lat="44.08798" lon="7.09456">
        <ele>809.20001220703</ele>
        <time>2020-07-30T13:27:20.000Z</time>
      </trkpt>
      <trkpt lat="44.08792" lon="7.09466">
        <ele>807.59997558594</ele>
        <time>2020-07-30T13:27:21.000Z</time>
      </trkpt>
      <trkpt lat="44.08785" lon="7.09475">
        <ele>805.59997558594</ele>
        <time>2020-07-30T13:27:22.000Z</time>
      </trkpt>
      <trkpt lat="44.08772" lon="7.09495">
        <ele>804</ele>
        <time>2020-07-30T13:27:24.000Z</time>
      </trkpt>
      <trkpt lat="44.08764" lon="7.09505">
        <ele>802.59997558594</ele>
        <time>2020-07-30T13:27:25.000Z</time>
      </trkpt>
      <trkpt lat="44.08757" lon="7.09513">
        <ele>801.40002441406</ele>
        <time>2020-07-30T13:27:26.000Z</time>
      </trkpt>
      <trkpt lat="44.08752" lon="7.0952">
        <ele>800.20001220703</ele>
        <time>2020-07-30T13:27:27.000Z</time>
      </trkpt>
      <trkpt lat="44.08745" lon="7.09525">
        <ele>798.40002441406</ele>
        <time>2020-07-30T13:27:28.000Z</time>
      </trkpt>
      <trkpt lat="44.08739" lon="7.09529">
        <ele>797</ele>
        <time>2020-07-30T13:27:29.000Z</time>
      </trkpt>
      <trkpt lat="44.08732" lon="7.09534">
        <ele>795.59997558594</ele>
        <time>2020-07-30T13:27:30.000Z</time>
      </trkpt>
      <trkpt lat="44.08724" lon="7.09547">
        <ele>793.79998779297</ele>
        <time>2020-07-30T13:27:32.000Z</time>
      </trkpt>
      <trkpt lat="44.0872" lon="7.09555">
        <ele>793</ele>
        <time>2020-07-30T13:27:33.000Z</time>
      </trkpt>
      <trkpt lat="44.08716" lon="7.09564">
        <ele>792.20001220703</ele>
        <time>2020-07-30T13:27:34.000Z</time>
      </trkpt>
      <trkpt lat="44.08712" lon="7.09573">
        <ele>791</ele>
        <time>2020-07-30T13:27:35.000Z</time>
      </trkpt>
      <trkpt lat="44.08706" lon="7.09583">
        <ele>789.79998779297</ele>
        <time>2020-07-30T13:27:36.000Z</time>
      </trkpt>
      <trkpt lat="44.08694" lon="7.09601">
        <ele>787</ele>
        <time>2020-07-30T13:27:38.000Z</time>
      </trkpt>
      <trkpt lat="44.08687" lon="7.09608">
        <ele>785.79998779297</ele>
        <time>2020-07-30T13:27:39.000Z</time>
      </trkpt>
      <trkpt lat="44.08679" lon="7.09616">
        <ele>784.59997558594</ele>
        <time>2020-07-30T13:27:40.000Z</time>
      </trkpt>
      <trkpt lat="44.08672" lon="7.09621">
        <ele>783.79998779297</ele>
        <time>2020-07-30T13:27:41.000Z</time>
      </trkpt>
      <trkpt lat="44.08667" lon="7.09626">
        <ele>782.79998779297</ele>
        <time>2020-07-30T13:27:42.000Z</time>
      </trkpt>
      <trkpt lat="44.08661" lon="7.09641">
        <ele>780.59997558594</ele>
        <time>2020-07-30T13:27:44.000Z</time>
      </trkpt>
      <trkpt lat="44.08657" lon="7.09651">
        <ele>779.79998779297</ele>
        <time>2020-07-30T13:27:45.000Z</time>
      </trkpt>
      <trkpt lat="44.08653" lon="7.09661">
        <ele>779.40002441406</ele>
        <time>2020-07-30T13:27:46.000Z</time>
      </trkpt>
      <trkpt lat="44.08648" lon="7.09669">
        <ele>778.59997558594</ele>
        <time>2020-07-30T13:27:47.000Z</time>
      </trkpt>
      <trkpt lat="44.08642" lon="7.09679">
        <ele>777.79998779297</ele>
        <time>2020-07-30T13:27:48.000Z</time>
      </trkpt>
      <trkpt lat="44.08631" lon="7.09693">
        <ele>775.40002441406</ele>
        <time>2020-07-30T13:27:50.000Z</time>
      </trkpt>
      <trkpt lat="44.08625" lon="7.09697">
        <ele>774</ele>
        <time>2020-07-30T13:27:51.000Z</time>
      </trkpt>
      <trkpt lat="44.0862" lon="7.09701">
        <ele>772.59997558594</ele>
        <time>2020-07-30T13:27:52.000Z</time>
      </trkpt>
      <trkpt lat="44.08616" lon="7.09706">
        <ele>771.40002441406</ele>
        <time>2020-07-30T13:27:53.000Z</time>
      </trkpt>
      <trkpt lat="44.08613" lon="7.09713">
        <ele>770</ele>
        <time>2020-07-30T13:27:54.000Z</time>
      </trkpt>
      <trkpt lat="44.08614" lon="7.09728">
        <ele>768</ele>
        <time>2020-07-30T13:27:56.000Z</time>
      </trkpt>
      <trkpt lat="44.08616" lon="7.09734">
        <ele>766.79998779297</ele>
        <time>2020-07-30T13:27:57.000Z</time>
      </trkpt>
      <trkpt lat="44.08618" lon="7.09741">
        <ele>765.40002441406</ele>
        <time>2020-07-30T13:27:58.000Z</time>
      </trkpt>
      <trkpt lat="44.08621" lon="7.09756">
        <ele>764.20001220703</ele>
        <time>2020-07-30T13:28:00.000Z</time>
      </trkpt>
      <trkpt lat="44.08629" lon="7.09772">
        <ele>762.59997558594</ele>
        <time>2020-07-30T13:28:02.000Z</time>
      </trkpt>
      <trkpt lat="44.08633" lon="7.0978">
        <ele>762</ele>
        <time>2020-07-30T13:28:03.000Z</time>
      </trkpt>
      <trkpt lat="44.08639" lon="7.09785">
        <ele>761.59997558594</ele>
        <time>2020-07-30T13:28:04.000Z</time>
      </trkpt>
      <trkpt lat="44.0865" lon="7.09796">
        <ele>760.40002441406</ele>
        <time>2020-07-30T13:28:06.000Z</time>
      </trkpt>
      <trkpt lat="44.08659" lon="7.09819">
        <ele>759.59997558594</ele>
        <time>2020-07-30T13:28:09.000Z</time>
      </trkpt>
      <trkpt lat="44.0866" lon="7.09822">
        <ele>759</ele>
        <time>2020-07-30T13:28:10.000Z</time>
      </trkpt>
      <trkpt lat="44.08659" lon="7.09825">
        <ele>758.40002441406</ele>
        <time>2020-07-30T13:28:11.000Z</time>
      </trkpt>
      <trkpt lat="44.08657" lon="7.09824">
        <ele>757.59997558594</ele>
        <time>2020-07-30T13:28:12.000Z</time>
      </trkpt>
      <trkpt lat="44.08655" lon="7.09821">
        <ele>757.20001220703</ele>
        <time>2020-07-30T13:28:13.000Z</time>
      </trkpt>
      <trkpt lat="44.08648" lon="7.09812">
        <ele>756.59997558594</ele>
        <time>2020-07-30T13:28:15.000Z</time>
      </trkpt>
      <trkpt lat="44.08644" lon="7.09806">
        <ele>756.20001220703</ele>
        <time>2020-07-30T13:28:17.000Z</time>
      </trkpt>
      <trkpt lat="44.08642" lon="7.09805">
        <ele>755.20001220703</ele>
        <time>2020-07-30T13:28:19.000Z</time>
      </trkpt>
      <trkpt lat="44.08642" lon="7.09805">
        <ele>754.59997558594</ele>
        <time>2020-07-30T13:28:20.000Z</time>
      </trkpt>
      <trkpt lat="44.08642" lon="7.09805">
        <ele>754</ele>
        <time>2020-07-30T13:28:22.000Z</time>
      </trkpt>
      <trkpt lat="44.08642" lon="7.09803">
        <ele>754</ele>
        <time>2020-07-30T13:28:34.000Z</time>
      </trkpt>
      <trkpt lat="44.08643" lon="7.09803">
        <ele>754.20001220703</ele>
        <time>2020-07-30T13:28:41.000Z</time>
      </trkpt>
      <trkpt lat="44.08644" lon="7.09803">
        <ele>754.20001220703</ele>
        <time>2020-07-30T13:28:47.000Z</time>
      </trkpt>
      <trkpt lat="44.08644" lon="7.09803">
        <ele>754.59997558594</ele>
        <time>2020-07-30T13:28:56.000Z</time>
      </trkpt>
      <trkpt lat="44.08644" lon="7.09802">
        <ele>755</ele>
        <time>2020-07-30T13:29:10.000Z</time>
      </trkpt>
      <trkpt lat="44.08644" lon="7.09802">
        <ele>755</ele>
        <time>2020-07-30T13:29:11.000Z</time>
      </trkpt>
      <trkpt lat="44.08644" lon="7.09803">
        <ele>755.20001220703</ele>
        <time>2020-07-30T13:29:16.000Z</time>
      </trkpt>
      <trkpt lat="44.08644" lon="7.09804">
        <ele>755.20001220703</ele>
        <time>2020-07-30T13:29:37.000Z</time>
      </trkpt>
      <trkpt lat="44.08642" lon="7.09803">
        <ele>754.59997558594</ele>
        <time>2020-07-30T13:29:44.000Z</time>
      </trkpt>
      <trkpt lat="44.08643" lon="7.09803">
        <ele>754.79998779297</ele>
        <time>2020-07-30T13:29:54.000Z</time>
      </trkpt>
      <trkpt lat="44.08644" lon="7.09804">
        <ele>754.59997558594</ele>
        <time>2020-07-30T13:30:10.000Z</time>
      </trkpt>
      <trkpt lat="44.08644" lon="7.09804">
        <ele>754.40002441406</ele>
        <time>2020-07-30T13:30:18.000Z</time>
      </trkpt>
      <trkpt lat="44.08644" lon="7.09804">
        <ele>754.59997558594</ele>
        <time>2020-07-30T13:30:28.000Z</time>
      </trkpt>
      <trkpt lat="44.08646" lon="7.09805">
        <ele>754.59997558594</ele>
        <time>2020-07-30T13:30:36.000Z</time>
      </trkpt>
      <trkpt lat="44.08649" lon="7.09818">
        <ele>754</ele>
        <time>2020-07-30T13:30:39.000Z</time>
      </trkpt>
      <trkpt lat="44.0865" lon="7.09825">
        <ele>753.40002441406</ele>
        <time>2020-07-30T13:30:40.000Z</time>
      </trkpt>
      <trkpt lat="44.08653" lon="7.09838">
        <ele>751.79998779297</ele>
        <time>2020-07-30T13:30:42.000Z</time>
      </trkpt>
      <trkpt lat="44.08654" lon="7.09845">
        <ele>750.79998779297</ele>
        <time>2020-07-30T13:30:43.000Z</time>
      </trkpt>
      <trkpt lat="44.08653" lon="7.0985">
        <ele>750</ele>
        <time>2020-07-30T13:30:44.000Z</time>
      </trkpt>
      <trkpt lat="44.08652" lon="7.09857">
        <ele>749.20001220703</ele>
        <time>2020-07-30T13:30:45.000Z</time>
      </trkpt>
      <trkpt lat="44.08652" lon="7.09864">
        <ele>747.79998779297</ele>
        <time>2020-07-30T13:30:46.000Z</time>
      </trkpt>
      <trkpt lat="44.08653" lon="7.0987">
        <ele>746</ele>
        <time>2020-07-30T13:30:47.000Z</time>
      </trkpt>
      <trkpt lat="44.08655" lon="7.09876">
        <ele>744.59997558594</ele>
        <time>2020-07-30T13:30:48.000Z</time>
      </trkpt>
      <trkpt lat="44.08657" lon="7.09888">
        <ele>742.59997558594</ele>
        <time>2020-07-30T13:30:50.000Z</time>
      </trkpt>
      <trkpt lat="44.08662" lon="7.09896">
        <ele>741.79998779297</ele>
        <time>2020-07-30T13:30:52.000Z</time>
      </trkpt>
      <trkpt lat="44.08665" lon="7.09898">
        <ele>741</ele>
        <time>2020-07-30T13:30:53.000Z</time>
      </trkpt>
      <trkpt lat="44.08667" lon="7.09899">
        <ele>740</ele>
        <time>2020-07-30T13:30:54.000Z</time>
      </trkpt>
      <trkpt lat="44.08668" lon="7.09903">
        <ele>738.40002441406</ele>
        <time>2020-07-30T13:30:56.000Z</time>
      </trkpt>
      <trkpt lat="44.08664" lon="7.09905">
        <ele>736.79998779297</ele>
        <time>2020-07-30T13:30:58.000Z</time>
      </trkpt>
      <trkpt lat="44.08661" lon="7.09906">
        <ele>735.79998779297</ele>
        <time>2020-07-30T13:30:59.000Z</time>
      </trkpt>
      <trkpt lat="44.08658" lon="7.09908">
        <ele>735</ele>
        <time>2020-07-30T13:31:00.000Z</time>
      </trkpt>
      <trkpt lat="44.08658" lon="7.09909">
        <ele>734.79998779297</ele>
        <time>2020-07-30T13:31:01.000Z</time>
      </trkpt>
      <trkpt lat="44.08659" lon="7.09911">
        <ele>734.20001220703</ele>
        <time>2020-07-30T13:31:02.000Z</time>
      </trkpt>
      <trkpt lat="44.08661" lon="7.09911">
        <ele>734</ele>
        <time>2020-07-30T13:31:03.000Z</time>
      </trkpt>
      <trkpt lat="44.08665" lon="7.09909">
        <ele>733.20001220703</ele>
        <time>2020-07-30T13:31:05.000Z</time>
      </trkpt>
      <trkpt lat="44.08667" lon="7.0991">
        <ele>732.59997558594</ele>
        <time>2020-07-30T13:31:06.000Z</time>
      </trkpt>
      <trkpt lat="44.08666" lon="7.09914">
        <ele>732</ele>
        <time>2020-07-30T13:31:08.000Z</time>
      </trkpt>
      <trkpt lat="44.08663" lon="7.09915">
        <ele>731.59997558594</ele>
        <time>2020-07-30T13:31:09.000Z</time>
      </trkpt>
      <trkpt lat="44.08658" lon="7.09917">
        <ele>730.79998779297</ele>
        <time>2020-07-30T13:31:11.000Z</time>
      </trkpt>
      <trkpt lat="44.08657" lon="7.09918">
        <ele>730.20001220703</ele>
        <time>2020-07-30T13:31:12.000Z</time>
      </trkpt>
      <trkpt lat="44.08658" lon="7.0992">
        <ele>729.40002441406</ele>
        <time>2020-07-30T13:31:14.000Z</time>
      </trkpt>
      <trkpt lat="44.08658" lon="7.0992">
        <ele>728.79998779297</ele>
        <time>2020-07-30T13:31:15.000Z</time>
      </trkpt>
      <trkpt lat="44.08662" lon="7.0992">
        <ele>728</ele>
        <time>2020-07-30T13:31:17.000Z</time>
      </trkpt>
      <trkpt lat="44.08666" lon="7.09921">
        <ele>727.59997558594</ele>
        <time>2020-07-30T13:31:19.000Z</time>
      </trkpt>
      <trkpt lat="44.08672" lon="7.0992">
        <ele>727</ele>
        <time>2020-07-30T13:31:21.000Z</time>
      </trkpt>
      <trkpt lat="44.08675" lon="7.09922">
        <ele>726.40002441406</ele>
        <time>2020-07-30T13:31:22.000Z</time>
      </trkpt>
      <trkpt lat="44.08681" lon="7.09927">
        <ele>724.79998779297</ele>
        <time>2020-07-30T13:31:24.000Z</time>
      </trkpt>
      <trkpt lat="44.08685" lon="7.09935">
        <ele>723.20001220703</ele>
        <time>2020-07-30T13:31:26.000Z</time>
      </trkpt>
      <trkpt lat="44.08689" lon="7.09943">
        <ele>721.59997558594</ele>
        <time>2020-07-30T13:31:28.000Z</time>
      </trkpt>
      <trkpt lat="44.08691" lon="7.09951">
        <ele>719.40002441406</ele>
        <time>2020-07-30T13:31:30.000Z</time>
      </trkpt>
      <trkpt lat="44.08693" lon="7.09955">
        <ele>718</ele>
        <time>2020-07-30T13:31:31.000Z</time>
      </trkpt>
      <trkpt lat="44.08695" lon="7.09959">
        <ele>716.40002441406</ele>
        <time>2020-07-30T13:31:32.000Z</time>
      </trkpt>
      <trkpt lat="44.08697" lon="7.09963">
        <ele>715</ele>
        <time>2020-07-30T13:31:33.000Z</time>
      </trkpt>
      <trkpt lat="44.08698" lon="7.09968">
        <ele>713.59997558594</ele>
        <time>2020-07-30T13:31:34.000Z</time>
      </trkpt>
      <trkpt lat="44.08699" lon="7.09976">
        <ele>711.79998779297</ele>
        <time>2020-07-30T13:31:35.000Z</time>
      </trkpt>
      <trkpt lat="44.087" lon="7.09982">
        <ele>710.79998779297</ele>
        <time>2020-07-30T13:31:36.000Z</time>
      </trkpt>
      <trkpt lat="44.08702" lon="7.09994">
        <ele>709</ele>
        <time>2020-07-30T13:31:38.000Z</time>
      </trkpt>
      <trkpt lat="44.08702" lon="7.09999">
        <ele>707.59997558594</ele>
        <time>2020-07-30T13:31:39.000Z</time>
      </trkpt>
      <trkpt lat="44.087" lon="7.10005">
        <ele>707.20001220703</ele>
        <time>2020-07-30T13:31:40.000Z</time>
      </trkpt>
      <trkpt lat="44.08698" lon="7.10011">
        <ele>705.79998779297</ele>
        <time>2020-07-30T13:31:41.000Z</time>
      </trkpt>
      <trkpt lat="44.08695" lon="7.10016">
        <ele>705</ele>
        <time>2020-07-30T13:31:42.000Z</time>
      </trkpt>
      <trkpt lat="44.08693" lon="7.1002">
        <ele>703.40002441406</ele>
        <time>2020-07-30T13:31:43.000Z</time>
      </trkpt>
      <trkpt lat="44.08691" lon="7.10024">
        <ele>702.40002441406</ele>
        <time>2020-07-30T13:31:44.000Z</time>
      </trkpt>
      <trkpt lat="44.08689" lon="7.10026">
        <ele>701.40002441406</ele>
        <time>2020-07-30T13:31:45.000Z</time>
      </trkpt>
      <trkpt lat="44.08687" lon="7.10023">
        <ele>699.59997558594</ele>
        <time>2020-07-30T13:31:47.000Z</time>
      </trkpt>
      <trkpt lat="44.08686" lon="7.10023">
        <ele>697.79998779297</ele>
        <time>2020-07-30T13:31:49.000Z</time>
      </trkpt>
      <trkpt lat="44.08686" lon="7.10024">
        <ele>696.59997558594</ele>
        <time>2020-07-30T13:31:51.000Z</time>
      </trkpt>
      <trkpt lat="44.08683" lon="7.10033">
        <ele>695.59997558594</ele>
        <time>2020-07-30T13:31:54.000Z</time>
      </trkpt>
      <trkpt lat="44.08682" lon="7.10038">
        <ele>695.20001220703</ele>
        <time>2020-07-30T13:31:55.000Z</time>
      </trkpt>
      <trkpt lat="44.08681" lon="7.10055">
        <ele>693.40002441406</ele>
        <time>2020-07-30T13:31:58.000Z</time>
      </trkpt>
      <trkpt lat="44.08681" lon="7.1006">
        <ele>692.59997558594</ele>
        <time>2020-07-30T13:31:59.000Z</time>
      </trkpt>
      <trkpt lat="44.08683" lon="7.10064">
        <ele>691.59997558594</ele>
        <time>2020-07-30T13:32:00.000Z</time>
      </trkpt>
      <trkpt lat="44.08688" lon="7.10073">
        <ele>689.79998779297</ele>
        <time>2020-07-30T13:32:02.000Z</time>
      </trkpt>
      <trkpt lat="44.08689" lon="7.10084">
        <ele>688.40002441406</ele>
        <time>2020-07-30T13:32:04.000Z</time>
      </trkpt>
      <trkpt lat="44.08691" lon="7.10092">
        <ele>687</ele>
        <time>2020-07-30T13:32:06.000Z</time>
      </trkpt>
      <trkpt lat="44.08689" lon="7.10098">
        <ele>685.20001220703</ele>
        <time>2020-07-30T13:32:08.000Z</time>
      </trkpt>
      <trkpt lat="44.08684" lon="7.10102">
        <ele>683.59997558594</ele>
        <time>2020-07-30T13:32:10.000Z</time>
      </trkpt>
      <trkpt lat="44.0868" lon="7.10102">
        <ele>682</ele>
        <time>2020-07-30T13:32:12.000Z</time>
      </trkpt>
      <trkpt lat="44.0868" lon="7.10107">
        <ele>680.59997558594</ele>
        <time>2020-07-30T13:32:14.000Z</time>
      </trkpt>
      <trkpt lat="44.08684" lon="7.10114">
        <ele>679.40002441406</ele>
        <time>2020-07-30T13:32:16.000Z</time>
      </trkpt>
      <trkpt lat="44.08688" lon="7.10117">
        <ele>678.79998779297</ele>
        <time>2020-07-30T13:32:17.000Z</time>
      </trkpt>
      <trkpt lat="44.08692" lon="7.1012">
        <ele>678.20001220703</ele>
        <time>2020-07-30T13:32:18.000Z</time>
      </trkpt>
      <trkpt lat="44.08697" lon="7.10124">
        <ele>676.40002441406</ele>
        <time>2020-07-30T13:32:20.000Z</time>
      </trkpt>
      <trkpt lat="44.08697" lon="7.10125">
        <ele>675.79998779297</ele>
        <time>2020-07-30T13:32:21.000Z</time>
      </trkpt>
      <trkpt lat="44.08697" lon="7.10125">
        <ele>675.20001220703</ele>
        <time>2020-07-30T13:32:22.000Z</time>
      </trkpt>
      <trkpt lat="44.08697" lon="7.10126">
        <ele>674.59997558594</ele>
        <time>2020-07-30T13:32:25.000Z</time>
      </trkpt>
      <trkpt lat="44.08697" lon="7.10126">
        <ele>674.20001220703</ele>
        <time>2020-07-30T13:32:28.000Z</time>
      </trkpt>
      <trkpt lat="44.08694" lon="7.10127">
        <ele>674</ele>
        <time>2020-07-30T13:32:36.000Z</time>
      </trkpt>
      <trkpt lat="44.08693" lon="7.10127">
        <ele>674</ele>
        <time>2020-07-30T13:32:37.000Z</time>
      </trkpt>
      <trkpt lat="44.08692" lon="7.10126">
        <ele>673.79998779297</ele>
        <time>2020-07-30T13:32:39.000Z</time>
      </trkpt>
      <trkpt lat="44.08691" lon="7.10126">
        <ele>673.59997558594</ele>
        <time>2020-07-30T13:32:40.000Z</time>
      </trkpt>
      <trkpt lat="44.08691" lon="7.10128">
        <ele>673.20001220703</ele>
        <time>2020-07-30T13:32:42.000Z</time>
      </trkpt>
      <trkpt lat="44.08692" lon="7.1013">
        <ele>672.79998779297</ele>
        <time>2020-07-30T13:32:44.000Z</time>
      </trkpt>
      <trkpt lat="44.08686" lon="7.10133">
        <ele>671.79998779297</ele>
        <time>2020-07-30T13:32:48.000Z</time>
      </trkpt>
      <trkpt lat="44.0868" lon="7.10131">
        <ele>670.59997558594</ele>
        <time>2020-07-30T13:32:51.000Z</time>
      </trkpt>
      <trkpt lat="44.0868" lon="7.10133">
        <ele>669.79998779297</ele>
        <time>2020-07-30T13:32:52.000Z</time>
      </trkpt>
      <trkpt lat="44.0868" lon="7.10135">
        <ele>669.59997558594</ele>
        <time>2020-07-30T13:32:53.000Z</time>
      </trkpt>
      <trkpt lat="44.08682" lon="7.1014">
        <ele>668.79998779297</ele>
        <time>2020-07-30T13:32:54.000Z</time>
      </trkpt>
      <trkpt lat="44.08683" lon="7.10149">
        <ele>667.40002441406</ele>
        <time>2020-07-30T13:32:56.000Z</time>
      </trkpt>
      <trkpt lat="44.08683" lon="7.1016">
        <ele>665.79998779297</ele>
        <time>2020-07-30T13:32:58.000Z</time>
      </trkpt>
      <trkpt lat="44.08683" lon="7.10164">
        <ele>664.20001220703</ele>
        <time>2020-07-30T13:32:59.000Z</time>
      </trkpt>
      <trkpt lat="44.08682" lon="7.10167">
        <ele>663</ele>
        <time>2020-07-30T13:33:00.000Z</time>
      </trkpt>
      <trkpt lat="44.08681" lon="7.10169">
        <ele>662</ele>
        <time>2020-07-30T13:33:01.000Z</time>
      </trkpt>
      <trkpt lat="44.0868" lon="7.10172">
        <ele>659.79998779297</ele>
        <time>2020-07-30T13:33:03.000Z</time>
      </trkpt>
      <trkpt lat="44.08681" lon="7.10173">
        <ele>659.59997558594</ele>
        <time>2020-07-30T13:33:04.000Z</time>
      </trkpt>
      <trkpt lat="44.08686" lon="7.10175">
        <ele>658.59997558594</ele>
        <time>2020-07-30T13:33:06.000Z</time>
      </trkpt>
      <trkpt lat="44.0869" lon="7.10178">
        <ele>658.20001220703</ele>
        <time>2020-07-30T13:33:07.000Z</time>
      </trkpt>
      <trkpt lat="44.08693" lon="7.1018">
        <ele>657.59997558594</ele>
        <time>2020-07-30T13:33:08.000Z</time>
      </trkpt>
      <trkpt lat="44.08695" lon="7.10183">
        <ele>656.79998779297</ele>
        <time>2020-07-30T13:33:09.000Z</time>
      </trkpt>
      <trkpt lat="44.08693" lon="7.10186">
        <ele>656</ele>
        <time>2020-07-30T13:33:10.000Z</time>
      </trkpt>
      <trkpt lat="44.08687" lon="7.10192">
        <ele>654.20001220703</ele>
        <time>2020-07-30T13:33:12.000Z</time>
      </trkpt>
      <trkpt lat="44.08687" lon="7.10196">
        <ele>653.20001220703</ele>
        <time>2020-07-30T13:33:13.000Z</time>
      </trkpt>
      <trkpt lat="44.08688" lon="7.10197">
        <ele>652</ele>
        <time>2020-07-30T13:33:14.000Z</time>
      </trkpt>
      <trkpt lat="44.08689" lon="7.10199">
        <ele>650.40002441406</ele>
        <time>2020-07-30T13:33:15.000Z</time>
      </trkpt>
      <trkpt lat="44.08689" lon="7.102">
        <ele>649.20001220703</ele>
        <time>2020-07-30T13:33:16.000Z</time>
      </trkpt>
      <trkpt lat="44.08688" lon="7.10201">
        <ele>648</ele>
        <time>2020-07-30T13:33:17.000Z</time>
      </trkpt>
      <trkpt lat="44.08682" lon="7.10204">
        <ele>646.79998779297</ele>
        <time>2020-07-30T13:33:19.000Z</time>
      </trkpt>
      <trkpt lat="44.08678" lon="7.10208">
        <ele>645.59997558594</ele>
        <time>2020-07-30T13:33:22.000Z</time>
      </trkpt>
      <trkpt lat="44.08679" lon="7.10209">
        <ele>645</ele>
        <time>2020-07-30T13:33:23.000Z</time>
      </trkpt>
      <trkpt lat="44.08682" lon="7.10209">
        <ele>644.40002441406</ele>
        <time>2020-07-30T13:33:24.000Z</time>
      </trkpt>
      <trkpt lat="44.08688" lon="7.10212">
        <ele>643</ele>
        <time>2020-07-30T13:33:26.000Z</time>
      </trkpt>
      <trkpt lat="44.08684" lon="7.10218">
        <ele>641.59997558594</ele>
        <time>2020-07-30T13:33:28.000Z</time>
      </trkpt>
      <trkpt lat="44.08681" lon="7.1022">
        <ele>640.79998779297</ele>
        <time>2020-07-30T13:33:29.000Z</time>
      </trkpt>
      <trkpt lat="44.08679" lon="7.10223">
        <ele>640.40002441406</ele>
        <time>2020-07-30T13:33:30.000Z</time>
      </trkpt>
      <trkpt lat="44.08675" lon="7.10227">
        <ele>639</ele>
        <time>2020-07-30T13:33:32.000Z</time>
      </trkpt>
      <trkpt lat="44.08672" lon="7.10228">
        <ele>638</ele>
        <time>2020-07-30T13:33:33.000Z</time>
      </trkpt>
      <trkpt lat="44.08667" lon="7.10228">
        <ele>635.79998779297</ele>
        <time>2020-07-30T13:33:35.000Z</time>
      </trkpt>
      <trkpt lat="44.08663" lon="7.10226">
        <ele>634.59997558594</ele>
        <time>2020-07-30T13:33:36.000Z</time>
      </trkpt>
      <trkpt lat="44.08658" lon="7.10226">
        <ele>633</ele>
        <time>2020-07-30T13:33:38.000Z</time>
      </trkpt>
      <trkpt lat="44.08658" lon="7.10227">
        <ele>632.20001220703</ele>
        <time>2020-07-30T13:33:39.000Z</time>
      </trkpt>
      <trkpt lat="44.0866" lon="7.10229">
        <ele>631.79998779297</ele>
        <time>2020-07-30T13:33:40.000Z</time>
      </trkpt>
      <trkpt lat="44.08661" lon="7.1023">
        <ele>631.20001220703</ele>
        <time>2020-07-30T13:33:41.000Z</time>
      </trkpt>
      <trkpt lat="44.08662" lon="7.10231">
        <ele>630.79998779297</ele>
        <time>2020-07-30T13:33:43.000Z</time>
      </trkpt>
      <trkpt lat="44.08662" lon="7.10232">
        <ele>630.59997558594</ele>
        <time>2020-07-30T13:33:45.000Z</time>
      </trkpt>
      <trkpt lat="44.08662" lon="7.10232">
        <ele>630.79998779297</ele>
        <time>2020-07-30T13:33:55.000Z</time>
      </trkpt>
      <trkpt lat="44.08662" lon="7.10231">
        <ele>630.79998779297</ele>
        <time>2020-07-30T13:34:09.000Z</time>
      </trkpt>
      <trkpt lat="44.08663" lon="7.10232">
        <ele>630.79998779297</ele>
        <time>2020-07-30T13:34:27.000Z</time>
      </trkpt>
      <trkpt lat="44.08663" lon="7.10234">
        <ele>630.59997558594</ele>
        <time>2020-07-30T13:34:50.000Z</time>
      </trkpt>
      <trkpt lat="44.08663" lon="7.10234">
        <ele>631.20001220703</ele>
        <time>2020-07-30T13:35:00.000Z</time>
      </trkpt>
      <trkpt lat="44.08664" lon="7.10232">
        <ele>631.20001220703</ele>
        <time>2020-07-30T13:35:07.000Z</time>
      </trkpt>
      <trkpt lat="44.08662" lon="7.10233">
        <ele>630.40002441406</ele>
        <time>2020-07-30T13:35:11.000Z</time>
      </trkpt>
      <trkpt lat="44.08661" lon="7.10232">
        <ele>630.20001220703</ele>
        <time>2020-07-30T13:35:12.000Z</time>
      </trkpt>
      <trkpt lat="44.08659" lon="7.10231">
        <ele>630.40002441406</ele>
        <time>2020-07-30T13:35:14.000Z</time>
      </trkpt>
      <trkpt lat="44.08658" lon="7.1023">
        <ele>630.40002441406</ele>
        <time>2020-07-30T13:35:15.000Z</time>
      </trkpt>
      <trkpt lat="44.08658" lon="7.10225">
        <ele>631</ele>
        <time>2020-07-30T13:35:19.000Z</time>
      </trkpt>
      <trkpt lat="44.08667" lon="7.10227">
        <ele>631.59997558594</ele>
        <time>2020-07-30T13:35:24.000Z</time>
      </trkpt>
      <trkpt lat="44.08669" lon="7.10227">
        <ele>631.59997558594</ele>
        <time>2020-07-30T13:35:25.000Z</time>
      </trkpt>
      <trkpt lat="44.0867" lon="7.10227">
        <ele>631.79998779297</ele>
        <time>2020-07-30T13:35:26.000Z</time>
      </trkpt>
      <trkpt lat="44.08671" lon="7.10227">
        <ele>632.79998779297</ele>
        <time>2020-07-30T13:35:29.000Z</time>
      </trkpt>
      <trkpt lat="44.08674" lon="7.10226">
        <ele>634</ele>
        <time>2020-07-30T13:35:35.000Z</time>
      </trkpt>
      <trkpt lat="44.08677" lon="7.10225">
        <ele>635</ele>
        <time>2020-07-30T13:35:43.000Z</time>
      </trkpt>
      <trkpt lat="44.08679" lon="7.10223">
        <ele>636</ele>
        <time>2020-07-30T13:35:49.000Z</time>
      </trkpt>
      <trkpt lat="44.0868" lon="7.10221">
        <ele>636.20001220703</ele>
        <time>2020-07-30T13:35:53.000Z</time>
      </trkpt>
      <trkpt lat="44.0868" lon="7.10221">
        <ele>636.79998779297</ele>
        <time>2020-07-30T13:35:58.000Z</time>
      </trkpt>
      <trkpt lat="44.08682" lon="7.10217">
        <ele>637</ele>
        <time>2020-07-30T13:36:08.000Z</time>
      </trkpt>
      <trkpt lat="44.08682" lon="7.10217">
        <ele>637.20001220703</ele>
        <time>2020-07-30T13:36:09.000Z</time>
      </trkpt>
      <trkpt lat="44.08684" lon="7.10216">
        <ele>637.79998779297</ele>
        <time>2020-07-30T13:36:13.000Z</time>
      </trkpt>
      <trkpt lat="44.08686" lon="7.10215">
        <ele>637.59997558594</ele>
        <time>2020-07-30T13:36:16.000Z</time>
      </trkpt>
      <trkpt lat="44.08686" lon="7.10215">
        <ele>638</ele>
        <time>2020-07-30T13:36:18.000Z</time>
      </trkpt>
      <trkpt lat="44.08687" lon="7.10215">
        <ele>638.40002441406</ele>
        <time>2020-07-30T13:36:19.000Z</time>
      </trkpt>
      <trkpt lat="44.08687" lon="7.10215">
        <ele>638.59997558594</ele>
        <time>2020-07-30T13:36:23.000Z</time>
      </trkpt>
      <trkpt lat="44.08688" lon="7.10215">
        <ele>639</ele>
        <time>2020-07-30T13:36:29.000Z</time>
      </trkpt>
      <trkpt lat="44.08689" lon="7.10214">
        <ele>638.79998779297</ele>
        <time>2020-07-30T13:36:35.000Z</time>
      </trkpt>
      <trkpt lat="44.08689" lon="7.10215">
        <ele>638.79998779297</ele>
        <time>2020-07-30T13:36:41.000Z</time>
      </trkpt>
      <trkpt lat="44.08689" lon="7.10215">
        <ele>638.59997558594</ele>
        <time>2020-07-30T13:36:50.000Z</time>
      </trkpt>
      <trkpt lat="44.0869" lon="7.10212">
        <ele>639</ele>
        <time>2020-07-30T13:36:56.000Z</time>
      </trkpt>
      <trkpt lat="44.08689" lon="7.10209">
        <ele>639</ele>
        <time>2020-07-30T13:36:58.000Z</time>
      </trkpt>
      <trkpt lat="44.08688" lon="7.10208">
        <ele>639.40002441406</ele>
        <time>2020-07-30T13:37:00.000Z</time>
      </trkpt>
      <trkpt lat="44.08682" lon="7.10208">
        <ele>640.59997558594</ele>
        <time>2020-07-30T13:37:05.000Z</time>
      </trkpt>
      <trkpt lat="44.08682" lon="7.10205">
        <ele>641.59997558594</ele>
        <time>2020-07-30T13:37:08.000Z</time>
      </trkpt>
      <trkpt lat="44.08682" lon="7.10205">
        <ele>642</ele>
        <time>2020-07-30T13:37:09.000Z</time>
      </trkpt>
      <trkpt lat="44.08682" lon="7.10205">
        <ele>641.79998779297</ele>
        <time>2020-07-30T13:37:15.000Z</time>
      </trkpt>
      <trkpt lat="44.08682" lon="7.10204">
        <ele>642.40002441406</ele>
        <time>2020-07-30T13:37:21.000Z</time>
      </trkpt>
      <trkpt lat="44.08683" lon="7.10203">
        <ele>642.79998779297</ele>
        <time>2020-07-30T13:37:27.000Z</time>
      </trkpt>
      <trkpt lat="44.08684" lon="7.10202">
        <ele>643</ele>
        <time>2020-07-30T13:37:29.000Z</time>
      </trkpt>
      <trkpt lat="44.08686" lon="7.10201">
        <ele>643.40002441406</ele>
        <time>2020-07-30T13:37:34.000Z</time>
      </trkpt>
      <trkpt lat="44.08688" lon="7.10201">
        <ele>644</ele>
        <time>2020-07-30T13:37:41.000Z</time>
      </trkpt>
      <trkpt lat="44.08689" lon="7.102">
        <ele>644.20001220703</ele>
        <time>2020-07-30T13:37:45.000Z</time>
      </trkpt>
      <trkpt lat="44.08691" lon="7.10199">
        <ele>644.20001220703</ele>
        <time>2020-07-30T13:37:55.000Z</time>
      </trkpt>
      <trkpt lat="44.08694" lon="7.10197">
        <ele>644.59997558594</ele>
        <time>2020-07-30T13:37:58.000Z</time>
      </trkpt>
      <trkpt lat="44.08693" lon="7.10195">
        <ele>645</ele>
        <time>2020-07-30T13:38:00.000Z</time>
      </trkpt>
      <trkpt lat="44.08693" lon="7.10195">
        <ele>645.79998779297</ele>
        <time>2020-07-30T13:38:05.000Z</time>
      </trkpt>
      <trkpt lat="44.08693" lon="7.10194">
        <ele>646.20001220703</ele>
        <time>2020-07-30T13:38:09.000Z</time>
      </trkpt>
      <trkpt lat="44.08691" lon="7.10194">
        <ele>646.40002441406</ele>
        <time>2020-07-30T13:38:13.000Z</time>
      </trkpt>
      <trkpt lat="44.08692" lon="7.10189">
        <ele>647.20001220703</ele>
        <time>2020-07-30T13:38:19.000Z</time>
      </trkpt>
      <trkpt lat="44.08694" lon="7.10185">
        <ele>648.40002441406</ele>
        <time>2020-07-30T13:38:25.000Z</time>
      </trkpt>
      <trkpt lat="44.08696" lon="7.10184">
        <ele>649</ele>
        <time>2020-07-30T13:38:27.000Z</time>
      </trkpt>
      <trkpt lat="44.08697" lon="7.10183">
        <ele>649.59997558594</ele>
        <time>2020-07-30T13:38:29.000Z</time>
      </trkpt>
      <trkpt lat="44.08699" lon="7.1018">
        <ele>650.79998779297</ele>
        <time>2020-07-30T13:38:35.000Z</time>
      </trkpt>
      <trkpt lat="44.08697" lon="7.10177">
        <ele>651.79998779297</ele>
        <time>2020-07-30T13:38:40.000Z</time>
      </trkpt>
      <trkpt lat="44.08696" lon="7.10176">
        <ele>652.20001220703</ele>
        <time>2020-07-30T13:38:42.000Z</time>
      </trkpt>
      <trkpt lat="44.08696" lon="7.10176">
        <ele>653</ele>
        <time>2020-07-30T13:38:47.000Z</time>
      </trkpt>
      <trkpt lat="44.08696" lon="7.10176">
        <ele>653</ele>
        <time>2020-07-30T13:38:49.000Z</time>
      </trkpt>
      <trkpt lat="44.08691" lon="7.10173">
        <ele>653</ele>
        <time>2020-07-30T13:38:55.000Z</time>
      </trkpt>
      <trkpt lat="44.08685" lon="7.10169">
        <ele>654.20001220703</ele>
        <time>2020-07-30T13:38:59.000Z</time>
      </trkpt>
      <trkpt lat="44.08685" lon="7.10168">
        <ele>655.40002441406</ele>
        <time>2020-07-30T13:39:01.000Z</time>
      </trkpt>
      <trkpt lat="44.08685" lon="7.10166">
        <ele>655.59997558594</ele>
        <time>2020-07-30T13:39:02.000Z</time>
      </trkpt>
      <trkpt lat="44.08685" lon="7.10166">
        <ele>656.40002441406</ele>
        <time>2020-07-30T13:39:05.000Z</time>
      </trkpt>
      <trkpt lat="44.08685" lon="7.10167">
        <ele>656.59997558594</ele>
        <time>2020-07-30T13:39:09.000Z</time>
      </trkpt>
      <trkpt lat="44.08685" lon="7.10167">
        <ele>656.20001220703</ele>
        <time>2020-07-30T13:39:18.000Z</time>
      </trkpt>
      <trkpt lat="44.08687" lon="7.10162">
        <ele>657.59997558594</ele>
        <time>2020-07-30T13:39:27.000Z</time>
      </trkpt>
      <trkpt lat="44.08687" lon="7.10161">
        <ele>658.59997558594</ele>
        <time>2020-07-30T13:39:34.000Z</time>
      </trkpt>
      <trkpt lat="44.08688" lon="7.10158">
        <ele>659</ele>
        <time>2020-07-30T13:39:41.000Z</time>
      </trkpt>
      <trkpt lat="44.08689" lon="7.10156">
        <ele>659.59997558594</ele>
        <time>2020-07-30T13:39:47.000Z</time>
      </trkpt>
      <trkpt lat="44.08689" lon="7.10154">
        <ele>660.20001220703</ele>
        <time>2020-07-30T13:39:50.000Z</time>
      </trkpt>
      <trkpt lat="44.08689" lon="7.10151">
        <ele>660.59997558594</ele>
        <time>2020-07-30T13:39:55.000Z</time>
      </trkpt>
      <trkpt lat="44.08689" lon="7.10151">
        <ele>660.79998779297</ele>
        <time>2020-07-30T13:39:57.000Z</time>
      </trkpt>
      <trkpt lat="44.08689" lon="7.10147">
        <ele>661.59997558594</ele>
        <time>2020-07-30T13:40:05.000Z</time>
      </trkpt>
      <trkpt lat="44.08689" lon="7.10146">
        <ele>661.79998779297</ele>
        <time>2020-07-30T13:40:06.000Z</time>
      </trkpt>
      <trkpt lat="44.08688" lon="7.1014">
        <ele>663</ele>
        <time>2020-07-30T13:40:13.000Z</time>
      </trkpt>
      <trkpt lat="44.08688" lon="7.10138">
        <ele>663.40002441406</ele>
        <time>2020-07-30T13:40:15.000Z</time>
      </trkpt>
      <trkpt lat="44.08687" lon="7.10135">
        <ele>664</ele>
        <time>2020-07-30T13:40:19.000Z</time>
      </trkpt>
      <trkpt lat="44.08685" lon="7.10131">
        <ele>665.20001220703</ele>
        <time>2020-07-30T13:40:23.000Z</time>
      </trkpt>
      <trkpt lat="44.08685" lon="7.10128">
        <ele>665.79998779297</ele>
        <time>2020-07-30T13:40:26.000Z</time>
      </trkpt>
      <trkpt lat="44.08685" lon="7.10128">
        <ele>666.20001220703</ele>
        <time>2020-07-30T13:40:28.000Z</time>
      </trkpt>
      <trkpt lat="44.08685" lon="7.10128">
        <ele>666.59997558594</ele>
        <time>2020-07-30T13:40:31.000Z</time>
      </trkpt>
      <trkpt lat="44.08686" lon="7.10128">
        <ele>667</ele>
        <time>2020-07-30T13:40:42.000Z</time>
      </trkpt>
      <trkpt lat="44.08688" lon="7.10128">
        <ele>667.20001220703</ele>
        <time>2020-07-30T13:40:45.000Z</time>
      </trkpt>
      <trkpt lat="44.08689" lon="7.10129">
        <ele>667.79998779297</ele>
        <time>2020-07-30T13:40:49.000Z</time>
      </trkpt>
      <trkpt lat="44.08691" lon="7.10129">
        <ele>668.40002441406</ele>
        <time>2020-07-30T13:40:53.000Z</time>
      </trkpt>
      <trkpt lat="44.08694" lon="7.10129">
        <ele>669</ele>
        <time>2020-07-30T13:40:57.000Z</time>
      </trkpt>
      <trkpt lat="44.08696" lon="7.10129">
        <ele>669.59997558594</ele>
        <time>2020-07-30T13:41:00.000Z</time>
      </trkpt>
      <trkpt lat="44.08697" lon="7.10127">
        <ele>670.59997558594</ele>
        <time>2020-07-30T13:41:04.000Z</time>
      </trkpt>
      <trkpt lat="44.08697" lon="7.10126">
        <ele>670.79998779297</ele>
        <time>2020-07-30T13:41:05.000Z</time>
      </trkpt>
      <trkpt lat="44.08696" lon="7.10123">
        <ele>671.40002441406</ele>
        <time>2020-07-30T13:41:10.000Z</time>
      </trkpt>
      <trkpt lat="44.08699" lon="7.10124">
        <ele>671.20001220703</ele>
        <time>2020-07-30T13:41:17.000Z</time>
      </trkpt>
      <trkpt lat="44.08701" lon="7.10123">
        <ele>671.59997558594</ele>
        <time>2020-07-30T13:41:19.000Z</time>
      </trkpt>
      <trkpt lat="44.08702" lon="7.10122">
        <ele>672</ele>
        <time>2020-07-30T13:41:21.000Z</time>
      </trkpt>
      <trkpt lat="44.08702" lon="7.10122">
        <ele>672.20001220703</ele>
        <time>2020-07-30T13:41:22.000Z</time>
      </trkpt>
      <trkpt lat="44.08706" lon="7.10122">
        <ele>673</ele>
        <time>2020-07-30T13:41:25.000Z</time>
      </trkpt>
      <trkpt lat="44.0871" lon="7.10122">
        <ele>673.20001220703</ele>
        <time>2020-07-30T13:41:27.000Z</time>
      </trkpt>
      <trkpt lat="44.08716" lon="7.10121">
        <ele>673.20001220703</ele>
        <time>2020-07-30T13:41:30.000Z</time>
      </trkpt>
      <trkpt lat="44.08724" lon="7.10118">
        <ele>673.20001220703</ele>
        <time>2020-07-30T13:41:34.000Z</time>
      </trkpt>
      <trkpt lat="44.0873" lon="7.10114">
        <ele>673</ele>
        <time>2020-07-30T13:41:39.000Z</time>
      </trkpt>
      <trkpt lat="44.08738" lon="7.10108">
        <ele>673</ele>
        <time>2020-07-30T13:41:45.000Z</time>
      </trkpt>
      <trkpt lat="44.08752" lon="7.10098">
        <ele>672.79998779297</ele>
        <time>2020-07-30T13:41:52.000Z</time>
      </trkpt>
      <trkpt lat="44.08761" lon="7.10089">
        <ele>672.59997558594</ele>
        <time>2020-07-30T13:41:56.000Z</time>
      </trkpt>
      <trkpt lat="44.08763" lon="7.10089">
        <ele>672.59997558594</ele>
        <time>2020-07-30T13:41:57.000Z</time>
      </trkpt>
      <trkpt lat="44.08771" lon="7.10089">
        <ele>672.59997558594</ele>
        <time>2020-07-30T13:42:00.000Z</time>
      </trkpt>
      <trkpt lat="44.08773" lon="7.10089">
        <ele>672.79998779297</ele>
        <time>2020-07-30T13:42:01.000Z</time>
      </trkpt>
      <trkpt lat="44.08791" lon="7.10095">
        <ele>672.79998779297</ele>
        <time>2020-07-30T13:42:08.000Z</time>
      </trkpt>
      <trkpt lat="44.08812" lon="7.10114">
        <ele>672.59997558594</ele>
        <time>2020-07-30T13:42:16.000Z</time>
      </trkpt>
      <trkpt lat="44.08829" lon="7.10135">
        <ele>672.40002441406</ele>
        <time>2020-07-30T13:42:22.000Z</time>
      </trkpt>
      <trkpt lat="44.08841" lon="7.10158">
        <ele>672.40002441406</ele>
        <time>2020-07-30T13:42:27.000Z</time>
      </trkpt>
      <trkpt lat="44.08848" lon="7.10171">
        <ele>672.40002441406</ele>
        <time>2020-07-30T13:42:30.000Z</time>
      </trkpt>
      <trkpt lat="44.08862" lon="7.1018">
        <ele>672.59997558594</ele>
        <time>2020-07-30T13:42:34.000Z</time>
      </trkpt>
      <trkpt lat="44.08884" lon="7.10184">
        <ele>672.79998779297</ele>
        <time>2020-07-30T13:42:40.000Z</time>
      </trkpt>
      <trkpt lat="44.08886" lon="7.10187">
        <ele>672.79998779297</ele>
        <time>2020-07-30T13:42:41.000Z</time>
      </trkpt>
      <trkpt lat="44.08893" lon="7.10198">
        <ele>673</ele>
        <time>2020-07-30T13:42:44.000Z</time>
      </trkpt>
      <trkpt lat="44.08909" lon="7.10225">
        <ele>672.79998779297</ele>
        <time>2020-07-30T13:42:51.000Z</time>
      </trkpt>
      <trkpt lat="44.08918" lon="7.10248">
        <ele>672.59997558594</ele>
        <time>2020-07-30T13:42:56.000Z</time>
      </trkpt>
      <trkpt lat="44.08927" lon="7.10286">
        <ele>673.20001220703</ele>
        <time>2020-07-30T13:43:04.000Z</time>
      </trkpt>
      <trkpt lat="44.08929" lon="7.10318">
        <ele>673.20001220703</ele>
        <time>2020-07-30T13:43:10.000Z</time>
      </trkpt>
      <trkpt lat="44.08932" lon="7.10339">
        <ele>673.59997558594</ele>
        <time>2020-07-30T13:43:15.000Z</time>
      </trkpt>
      <trkpt lat="44.08935" lon="7.10346">
        <ele>674.20001220703</ele>
        <time>2020-07-30T13:43:17.000Z</time>
      </trkpt>
      <trkpt lat="44.08939" lon="7.10357">
        <ele>675.20001220703</ele>
        <time>2020-07-30T13:43:20.000Z</time>
      </trkpt>
      <trkpt lat="44.08947" lon="7.10379">
        <ele>675</ele>
        <time>2020-07-30T13:43:27.000Z</time>
      </trkpt>
      <trkpt lat="44.08949" lon="7.10385">
        <ele>675.20001220703</ele>
        <time>2020-07-30T13:43:33.000Z</time>
      </trkpt>
      <trkpt lat="44.08949" lon="7.10386">
        <ele>675</ele>
        <time>2020-07-30T13:43:48.000Z</time>
      </trkpt>
      <trkpt lat="44.08952" lon="7.10389">
        <ele>674.79998779297</ele>
        <time>2020-07-30T13:43:56.000Z</time>
      </trkpt>
      <trkpt lat="44.08957" lon="7.10396">
        <ele>675.59997558594</ele>
        <time>2020-07-30T13:44:02.000Z</time>
      </trkpt>
      <trkpt lat="44.0896" lon="7.104">
        <ele>676.20001220703</ele>
        <time>2020-07-30T13:44:07.000Z</time>
      </trkpt>
      <trkpt lat="44.08961" lon="7.104">
        <ele>676.20001220703</ele>
        <time>2020-07-30T13:44:09.000Z</time>
      </trkpt>
      <trkpt lat="44.08961" lon="7.10401">
        <ele>676.20001220703</ele>
        <time>2020-07-30T13:44:13.000Z</time>
      </trkpt>
      <trkpt lat="44.08963" lon="7.10404">
        <ele>675.59997558594</ele>
        <time>2020-07-30T13:44:21.000Z</time>
      </trkpt>
      <trkpt lat="44.08964" lon="7.10404">
        <ele>675.59997558594</ele>
        <time>2020-07-30T13:44:28.000Z</time>
      </trkpt>
      <trkpt lat="44.08964" lon="7.10404">
        <ele>675.40002441406</ele>
        <time>2020-07-30T13:44:36.000Z</time>
      </trkpt>
      <trkpt lat="44.08966" lon="7.10403">
        <ele>675.59997558594</ele>
        <time>2020-07-30T13:44:44.000Z</time>
      </trkpt>
      <trkpt lat="44.08968" lon="7.10403">
        <ele>675.59997558594</ele>
        <time>2020-07-30T13:44:45.000Z</time>
      </trkpt>
      <trkpt lat="44.08971" lon="7.10404">
        <ele>675.20001220703</ele>
        <time>2020-07-30T13:44:47.000Z</time>
      </trkpt>
      <trkpt lat="44.08972" lon="7.10406">
        <ele>674.20001220703</ele>
        <time>2020-07-30T13:44:48.000Z</time>
      </trkpt>
      <trkpt lat="44.08971" lon="7.10407">
        <ele>673.59997558594</ele>
        <time>2020-07-30T13:44:49.000Z</time>
      </trkpt>
      <trkpt lat="44.08969" lon="7.1041">
        <ele>672.20001220703</ele>
        <time>2020-07-30T13:44:51.000Z</time>
      </trkpt>
      <trkpt lat="44.08964" lon="7.10416">
        <ele>672.20001220703</ele>
        <time>2020-07-30T13:44:53.000Z</time>
      </trkpt>
      <trkpt lat="44.08956" lon="7.1042">
        <ele>671.20001220703</ele>
        <time>2020-07-30T13:44:56.000Z</time>
      </trkpt>
      <trkpt lat="44.08955" lon="7.1042">
        <ele>670.79998779297</ele>
        <time>2020-07-30T13:44:57.000Z</time>
      </trkpt>
      <trkpt lat="44.08952" lon="7.1042">
        <ele>671.20001220703</ele>
        <time>2020-07-30T13:44:59.000Z</time>
      </trkpt>
      <trkpt lat="44.08949" lon="7.10422">
        <ele>672</ele>
        <time>2020-07-30T13:45:01.000Z</time>
      </trkpt>
      <trkpt lat="44.08948" lon="7.10424">
        <ele>672.40002441406</ele>
        <time>2020-07-30T13:45:02.000Z</time>
      </trkpt>
      <trkpt lat="44.08948" lon="7.10429">
        <ele>672.40002441406</ele>
        <time>2020-07-30T13:45:03.000Z</time>
      </trkpt>
      <trkpt lat="44.08942" lon="7.10441">
        <ele>671.40002441406</ele>
        <time>2020-07-30T13:45:07.000Z</time>
      </trkpt>
      <trkpt lat="44.08942" lon="7.10442">
        <ele>670.59997558594</ele>
        <time>2020-07-30T13:45:08.000Z</time>
      </trkpt>
      <trkpt lat="44.08943" lon="7.10443">
        <ele>669.40002441406</ele>
        <time>2020-07-30T13:45:09.000Z</time>
      </trkpt>
      <trkpt lat="44.08944" lon="7.10443">
        <ele>668.40002441406</ele>
        <time>2020-07-30T13:45:10.000Z</time>
      </trkpt>
      <trkpt lat="44.08947" lon="7.10442">
        <ele>667.79998779297</ele>
        <time>2020-07-30T13:45:11.000Z</time>
      </trkpt>
      <trkpt lat="44.08951" lon="7.10442">
        <ele>666.59997558594</ele>
        <time>2020-07-30T13:45:13.000Z</time>
      </trkpt>
      <trkpt lat="44.08952" lon="7.10444">
        <ele>666.40002441406</ele>
        <time>2020-07-30T13:45:14.000Z</time>
      </trkpt>
      <trkpt lat="44.08951" lon="7.10448">
        <ele>665.40002441406</ele>
        <time>2020-07-30T13:45:16.000Z</time>
      </trkpt>
      <trkpt lat="44.08948" lon="7.10451">
        <ele>664.79998779297</ele>
        <time>2020-07-30T13:45:17.000Z</time>
      </trkpt>
      <trkpt lat="44.08945" lon="7.10454">
        <ele>664</ele>
        <time>2020-07-30T13:45:18.000Z</time>
      </trkpt>
      <trkpt lat="44.08943" lon="7.10458">
        <ele>663</ele>
        <time>2020-07-30T13:45:20.000Z</time>
      </trkpt>
      <trkpt lat="44.08944" lon="7.1046">
        <ele>662.40002441406</ele>
        <time>2020-07-30T13:45:21.000Z</time>
      </trkpt>
      <trkpt lat="44.08945" lon="7.10461">
        <ele>662</ele>
        <time>2020-07-30T13:45:22.000Z</time>
      </trkpt>
      <trkpt lat="44.08949" lon="7.10459">
        <ele>660.79998779297</ele>
        <time>2020-07-30T13:45:24.000Z</time>
      </trkpt>
      <trkpt lat="44.08953" lon="7.10455">
        <ele>659.59997558594</ele>
        <time>2020-07-30T13:45:26.000Z</time>
      </trkpt>
      <trkpt lat="44.08958" lon="7.10453">
        <ele>658.40002441406</ele>
        <time>2020-07-30T13:45:28.000Z</time>
      </trkpt>
      <trkpt lat="44.0896" lon="7.10454">
        <ele>657.79998779297</ele>
        <time>2020-07-30T13:45:29.000Z</time>
      </trkpt>
      <trkpt lat="44.0896" lon="7.10457">
        <ele>657.40002441406</ele>
        <time>2020-07-30T13:45:30.000Z</time>
      </trkpt>
      <trkpt lat="44.08958" lon="7.1046">
        <ele>656.79998779297</ele>
        <time>2020-07-30T13:45:31.000Z</time>
      </trkpt>
      <trkpt lat="44.08956" lon="7.10464">
        <ele>656.20001220703</ele>
        <time>2020-07-30T13:45:32.000Z</time>
      </trkpt>
      <trkpt lat="44.08954" lon="7.10471">
        <ele>655</ele>
        <time>2020-07-30T13:45:34.000Z</time>
      </trkpt>
      <trkpt lat="44.08953" lon="7.10475">
        <ele>654.40002441406</ele>
        <time>2020-07-30T13:45:35.000Z</time>
      </trkpt>
      <trkpt lat="44.0895" lon="7.1048">
        <ele>653.40002441406</ele>
        <time>2020-07-30T13:45:37.000Z</time>
      </trkpt>
      <trkpt lat="44.0895" lon="7.10482">
        <ele>652.79998779297</ele>
        <time>2020-07-30T13:45:38.000Z</time>
      </trkpt>
      <trkpt lat="44.0895" lon="7.10482">
        <ele>652.20001220703</ele>
        <time>2020-07-30T13:45:39.000Z</time>
      </trkpt>
      <trkpt lat="44.08951" lon="7.10482">
        <ele>651.59997558594</ele>
        <time>2020-07-30T13:45:40.000Z</time>
      </trkpt>
      <trkpt lat="44.08952" lon="7.10481">
        <ele>651</ele>
        <time>2020-07-30T13:45:41.000Z</time>
      </trkpt>
      <trkpt lat="44.08957" lon="7.10479">
        <ele>650</ele>
        <time>2020-07-30T13:45:43.000Z</time>
      </trkpt>
      <trkpt lat="44.08965" lon="7.10478">
        <ele>648.79998779297</ele>
        <time>2020-07-30T13:45:45.000Z</time>
      </trkpt>
      <trkpt lat="44.08972" lon="7.10477">
        <ele>647.59997558594</ele>
        <time>2020-07-30T13:45:47.000Z</time>
      </trkpt>
      <trkpt lat="44.08977" lon="7.10478">
        <ele>646.20001220703</ele>
        <time>2020-07-30T13:45:49.000Z</time>
      </trkpt>
      <trkpt lat="44.08977" lon="7.1048">
        <ele>645.59997558594</ele>
        <time>2020-07-30T13:45:50.000Z</time>
      </trkpt>
      <trkpt lat="44.08976" lon="7.10482">
        <ele>644.79998779297</ele>
        <time>2020-07-30T13:45:51.000Z</time>
      </trkpt>
      <trkpt lat="44.08974" lon="7.10486">
        <ele>643.59997558594</ele>
        <time>2020-07-30T13:45:53.000Z</time>
      </trkpt>
      <trkpt lat="44.08972" lon="7.10489">
        <ele>643.20001220703</ele>
        <time>2020-07-30T13:45:54.000Z</time>
      </trkpt>
      <trkpt lat="44.08971" lon="7.10492">
        <ele>642.59997558594</ele>
        <time>2020-07-30T13:45:55.000Z</time>
      </trkpt>
      <trkpt lat="44.08972" lon="7.10493">
        <ele>642.20001220703</ele>
        <time>2020-07-30T13:45:56.000Z</time>
      </trkpt>
      <trkpt lat="44.08973" lon="7.10493">
        <ele>641.59997558594</ele>
        <time>2020-07-30T13:45:57.000Z</time>
      </trkpt>
      <trkpt lat="44.08975" lon="7.10493">
        <ele>641</ele>
        <time>2020-07-30T13:45:58.000Z</time>
      </trkpt>
      <trkpt lat="44.0898" lon="7.10492">
        <ele>639.59997558594</ele>
        <time>2020-07-30T13:46:00.000Z</time>
      </trkpt>
      <trkpt lat="44.08984" lon="7.10493">
        <ele>639</ele>
        <time>2020-07-30T13:46:01.000Z</time>
      </trkpt>
      <trkpt lat="44.08989" lon="7.10493">
        <ele>638.59997558594</ele>
        <time>2020-07-30T13:46:02.000Z</time>
      </trkpt>
      <trkpt lat="44.08998" lon="7.10491">
        <ele>637.59997558594</ele>
        <time>2020-07-30T13:46:04.000Z</time>
      </trkpt>
      <trkpt lat="44.09002" lon="7.10491">
        <ele>637.40002441406</ele>
        <time>2020-07-30T13:46:05.000Z</time>
      </trkpt>
      <trkpt lat="44.09013" lon="7.10489">
        <ele>637</ele>
        <time>2020-07-30T13:46:08.000Z</time>
      </trkpt>
      <trkpt lat="44.09015" lon="7.10487">
        <ele>637.20001220703</ele>
        <time>2020-07-30T13:46:09.000Z</time>
      </trkpt>
      <trkpt lat="44.09022" lon="7.10487">
        <ele>637.20001220703</ele>
        <time>2020-07-30T13:46:11.000Z</time>
      </trkpt>
      <trkpt lat="44.09024" lon="7.10488">
        <ele>637.20001220703</ele>
        <time>2020-07-30T13:46:12.000Z</time>
      </trkpt>
      <trkpt lat="44.0903" lon="7.10489">
        <ele>636</ele>
        <time>2020-07-30T13:46:15.000Z</time>
      </trkpt>
      <trkpt lat="44.09031" lon="7.1049">
        <ele>635.20001220703</ele>
        <time>2020-07-30T13:46:16.000Z</time>
      </trkpt>
      <trkpt lat="44.09031" lon="7.10491">
        <ele>634.40002441406</ele>
        <time>2020-07-30T13:46:17.000Z</time>
      </trkpt>
      <trkpt lat="44.0903" lon="7.10492">
        <ele>633.79998779297</ele>
        <time>2020-07-30T13:46:18.000Z</time>
      </trkpt>
      <trkpt lat="44.09027" lon="7.10494">
        <ele>633</ele>
        <time>2020-07-30T13:46:20.000Z</time>
      </trkpt>
      <trkpt lat="44.09025" lon="7.10499">
        <ele>631.79998779297</ele>
        <time>2020-07-30T13:46:24.000Z</time>
      </trkpt>
      <trkpt lat="44.09026" lon="7.10499">
        <ele>630.59997558594</ele>
        <time>2020-07-30T13:46:26.000Z</time>
      </trkpt>
      <trkpt lat="44.09032" lon="7.10499">
        <ele>629.40002441406</ele>
        <time>2020-07-30T13:46:29.000Z</time>
      </trkpt>
      <trkpt lat="44.09033" lon="7.10502">
        <ele>628.40002441406</ele>
        <time>2020-07-30T13:46:31.000Z</time>
      </trkpt>
      <trkpt lat="44.09032" lon="7.10503">
        <ele>627.59997558594</ele>
        <time>2020-07-30T13:46:32.000Z</time>
      </trkpt>
      <trkpt lat="44.09031" lon="7.10504">
        <ele>627</ele>
        <time>2020-07-30T13:46:33.000Z</time>
      </trkpt>
      <trkpt lat="44.09029" lon="7.10506">
        <ele>626.79998779297</ele>
        <time>2020-07-30T13:46:34.000Z</time>
      </trkpt>
      <trkpt lat="44.09022" lon="7.1051">
        <ele>626</ele>
        <time>2020-07-30T13:46:36.000Z</time>
      </trkpt>
      <trkpt lat="44.09017" lon="7.10515">
        <ele>624.79998779297</ele>
        <time>2020-07-30T13:46:38.000Z</time>
      </trkpt>
      <trkpt lat="44.09016" lon="7.10517">
        <ele>624.20001220703</ele>
        <time>2020-07-30T13:46:39.000Z</time>
      </trkpt>
      <trkpt lat="44.09014" lon="7.10519">
        <ele>623.59997558594</ele>
        <time>2020-07-30T13:46:40.000Z</time>
      </trkpt>
      <trkpt lat="44.09011" lon="7.10521">
        <ele>622.40002441406</ele>
        <time>2020-07-30T13:46:42.000Z</time>
      </trkpt>
      <trkpt lat="44.09011" lon="7.10522">
        <ele>621.40002441406</ele>
        <time>2020-07-30T13:46:44.000Z</time>
      </trkpt>
      <trkpt lat="44.09011" lon="7.10522">
        <ele>621</ele>
        <time>2020-07-30T13:46:45.000Z</time>
      </trkpt>
      <trkpt lat="44.09007" lon="7.10529">
        <ele>620.20001220703</ele>
        <time>2020-07-30T13:46:54.000Z</time>
      </trkpt>
      <trkpt lat="44.09005" lon="7.10531">
        <ele>619.79998779297</ele>
        <time>2020-07-30T13:46:56.000Z</time>
      </trkpt>
      <trkpt lat="44.09005" lon="7.10534">
        <ele>619</ele>
        <time>2020-07-30T13:46:58.000Z</time>
      </trkpt>
      <trkpt lat="44.09006" lon="7.10534">
        <ele>618.59997558594</ele>
        <time>2020-07-30T13:46:59.000Z</time>
      </trkpt>
      <trkpt lat="44.09011" lon="7.10533">
        <ele>617.40002441406</ele>
        <time>2020-07-30T13:47:02.000Z</time>
      </trkpt>
      <trkpt lat="44.09017" lon="7.10535">
        <ele>616.40002441406</ele>
        <time>2020-07-30T13:47:04.000Z</time>
      </trkpt>
      <trkpt lat="44.09026" lon="7.10534">
        <ele>615</ele>
        <time>2020-07-30T13:47:06.000Z</time>
      </trkpt>
      <trkpt lat="44.09031" lon="7.10533">
        <ele>614.20001220703</ele>
        <time>2020-07-30T13:47:07.000Z</time>
      </trkpt>
      <trkpt lat="44.09035" lon="7.10532">
        <ele>613.20001220703</ele>
        <time>2020-07-30T13:47:08.000Z</time>
      </trkpt>
      <trkpt lat="44.09037" lon="7.10532">
        <ele>611.59997558594</ele>
        <time>2020-07-30T13:47:10.000Z</time>
      </trkpt>
      <trkpt lat="44.0904" lon="7.10534">
        <ele>610.40002441406</ele>
        <time>2020-07-30T13:47:12.000Z</time>
      </trkpt>
      <trkpt lat="44.09041" lon="7.10535">
        <ele>610.20001220703</ele>
        <time>2020-07-30T13:47:13.000Z</time>
      </trkpt>
      <trkpt lat="44.0904" lon="7.10538">
        <ele>609.40002441406</ele>
        <time>2020-07-30T13:47:15.000Z</time>
      </trkpt>
      <trkpt lat="44.09037" lon="7.10539">
        <ele>608.40002441406</ele>
        <time>2020-07-30T13:47:18.000Z</time>
      </trkpt>
      <trkpt lat="44.09035" lon="7.10539">
        <ele>608.20001220703</ele>
        <time>2020-07-30T13:47:19.000Z</time>
      </trkpt>
      <trkpt lat="44.09032" lon="7.10542">
        <ele>608</ele>
        <time>2020-07-30T13:47:20.000Z</time>
      </trkpt>
      <trkpt lat="44.09022" lon="7.10553">
        <ele>607.40002441406</ele>
        <time>2020-07-30T13:47:23.000Z</time>
      </trkpt>
      <trkpt lat="44.09019" lon="7.10556">
        <ele>607</ele>
        <time>2020-07-30T13:47:24.000Z</time>
      </trkpt>
      <trkpt lat="44.09017" lon="7.10559">
        <ele>605.79998779297</ele>
        <time>2020-07-30T13:47:26.000Z</time>
      </trkpt>
      <trkpt lat="44.09019" lon="7.1056">
        <ele>604.59997558594</ele>
        <time>2020-07-30T13:47:28.000Z</time>
      </trkpt>
      <trkpt lat="44.09021" lon="7.10562">
        <ele>603.59997558594</ele>
        <time>2020-07-30T13:47:30.000Z</time>
      </trkpt>
      <trkpt lat="44.0902" lon="7.10563">
        <ele>603.20001220703</ele>
        <time>2020-07-30T13:47:31.000Z</time>
      </trkpt>
      <trkpt lat="44.09019" lon="7.10564">
        <ele>602.40002441406</ele>
        <time>2020-07-30T13:47:32.000Z</time>
      </trkpt>
      <trkpt lat="44.09017" lon="7.10568">
        <ele>601.79998779297</ele>
        <time>2020-07-30T13:47:34.000Z</time>
      </trkpt>
      <trkpt lat="44.09017" lon="7.1057">
        <ele>601.20001220703</ele>
        <time>2020-07-30T13:47:35.000Z</time>
      </trkpt>
      <trkpt lat="44.09019" lon="7.1057">
        <ele>600.40002441406</ele>
        <time>2020-07-30T13:47:37.000Z</time>
      </trkpt>
      <trkpt lat="44.0903" lon="7.10571">
        <ele>599</ele>
        <time>2020-07-30T13:47:40.000Z</time>
      </trkpt>
      <trkpt lat="44.09039" lon="7.10573">
        <ele>597.79998779297</ele>
        <time>2020-07-30T13:47:42.000Z</time>
      </trkpt>
      <trkpt lat="44.0904" lon="7.10572">
        <ele>596.79998779297</ele>
        <time>2020-07-30T13:47:43.000Z</time>
      </trkpt>
      <trkpt lat="44.09042" lon="7.10571">
        <ele>595.79998779297</ele>
        <time>2020-07-30T13:47:44.000Z</time>
      </trkpt>
      <trkpt lat="44.09044" lon="7.10571">
        <ele>595</ele>
        <time>2020-07-30T13:47:45.000Z</time>
      </trkpt>
      <trkpt lat="44.09043" lon="7.10574">
        <ele>594.20001220703</ele>
        <time>2020-07-30T13:47:47.000Z</time>
      </trkpt>
      <trkpt lat="44.09041" lon="7.10577">
        <ele>594</ele>
        <time>2020-07-30T13:47:48.000Z</time>
      </trkpt>
      <trkpt lat="44.09034" lon="7.10584">
        <ele>593.40002441406</ele>
        <time>2020-07-30T13:47:50.000Z</time>
      </trkpt>
      <trkpt lat="44.0903" lon="7.10587">
        <ele>592.40002441406</ele>
        <time>2020-07-30T13:47:51.000Z</time>
      </trkpt>
      <trkpt lat="44.09029" lon="7.10588">
        <ele>591</ele>
        <time>2020-07-30T13:47:52.000Z</time>
      </trkpt>
      <trkpt lat="44.0903" lon="7.1059">
        <ele>590.20001220703</ele>
        <time>2020-07-30T13:47:53.000Z</time>
      </trkpt>
      <trkpt lat="44.09032" lon="7.10592">
        <ele>589.20001220703</ele>
        <time>2020-07-30T13:47:54.000Z</time>
      </trkpt>
      <trkpt lat="44.09036" lon="7.10592">
        <ele>588.40002441406</ele>
        <time>2020-07-30T13:47:56.000Z</time>
      </trkpt>
      <trkpt lat="44.09038" lon="7.10594">
        <ele>588</ele>
        <time>2020-07-30T13:47:58.000Z</time>
      </trkpt>
      <trkpt lat="44.09037" lon="7.10596">
        <ele>587</ele>
        <time>2020-07-30T13:48:00.000Z</time>
      </trkpt>
      <trkpt lat="44.09036" lon="7.10597">
        <ele>586.59997558594</ele>
        <time>2020-07-30T13:48:01.000Z</time>
      </trkpt>
      <trkpt lat="44.09037" lon="7.10598">
        <ele>585.59997558594</ele>
        <time>2020-07-30T13:48:04.000Z</time>
      </trkpt>
      <trkpt lat="44.09037" lon="7.10598">
        <ele>585.40002441406</ele>
        <time>2020-07-30T13:48:05.000Z</time>
      </trkpt>
      <trkpt lat="44.09038" lon="7.10598">
        <ele>585</ele>
        <time>2020-07-30T13:48:06.000Z</time>
      </trkpt>
      <trkpt lat="44.0904" lon="7.10598">
        <ele>584.59997558594</ele>
        <time>2020-07-30T13:48:07.000Z</time>
      </trkpt>
      <trkpt lat="44.09044" lon="7.10597">
        <ele>583.79998779297</ele>
        <time>2020-07-30T13:48:10.000Z</time>
      </trkpt>
      <trkpt lat="44.09044" lon="7.10597">
        <ele>583.20001220703</ele>
        <time>2020-07-30T13:48:11.000Z</time>
      </trkpt>
      <trkpt lat="44.09046" lon="7.10598">
        <ele>582</ele>
        <time>2020-07-30T13:48:14.000Z</time>
      </trkpt>
      <trkpt lat="44.09045" lon="7.10598">
        <ele>581.79998779297</ele>
        <time>2020-07-30T13:48:15.000Z</time>
      </trkpt>
      <trkpt lat="44.09048" lon="7.10597">
        <ele>581.79998779297</ele>
        <time>2020-07-30T13:48:23.000Z</time>
      </trkpt>
      <trkpt lat="44.09051" lon="7.10595">
        <ele>581.40002441406</ele>
        <time>2020-07-30T13:48:30.000Z</time>
      </trkpt>
      <trkpt lat="44.0905" lon="7.10596">
        <ele>581.40002441406</ele>
        <time>2020-07-30T13:48:31.000Z</time>
      </trkpt>
      <trkpt lat="44.09052" lon="7.10597">
        <ele>581.20001220703</ele>
        <time>2020-07-30T13:48:38.000Z</time>
      </trkpt>
      <trkpt lat="44.09052" lon="7.10597">
        <ele>581</ele>
        <time>2020-07-30T13:48:40.000Z</time>
      </trkpt>
      <trkpt lat="44.09054" lon="7.10597">
        <ele>581</ele>
        <time>2020-07-30T13:48:41.000Z</time>
      </trkpt>
      <trkpt lat="44.09059" lon="7.10597">
        <ele>580.79998779297</ele>
        <time>2020-07-30T13:48:43.000Z</time>
      </trkpt>
      <trkpt lat="44.09066" lon="7.10596">
        <ele>579.79998779297</ele>
        <time>2020-07-30T13:48:45.000Z</time>
      </trkpt>
      <trkpt lat="44.09073" lon="7.10594">
        <ele>578.59997558594</ele>
        <time>2020-07-30T13:48:47.000Z</time>
      </trkpt>
      <trkpt lat="44.09078" lon="7.10595">
        <ele>578</ele>
        <time>2020-07-30T13:48:48.000Z</time>
      </trkpt>
      <trkpt lat="44.09083" lon="7.10596">
        <ele>577.59997558594</ele>
        <time>2020-07-30T13:48:49.000Z</time>
      </trkpt>
      <trkpt lat="44.0909" lon="7.10596">
        <ele>576</ele>
        <time>2020-07-30T13:48:51.000Z</time>
      </trkpt>
      <trkpt lat="44.09093" lon="7.10596">
        <ele>574.79998779297</ele>
        <time>2020-07-30T13:48:52.000Z</time>
      </trkpt>
      <trkpt lat="44.09096" lon="7.10598">
        <ele>573</ele>
        <time>2020-07-30T13:48:54.000Z</time>
      </trkpt>
      <trkpt lat="44.09092" lon="7.10602">
        <ele>571.79998779297</ele>
        <time>2020-07-30T13:48:57.000Z</time>
      </trkpt>
      <trkpt lat="44.09089" lon="7.10608">
        <ele>570.40002441406</ele>
        <time>2020-07-30T13:49:01.000Z</time>
      </trkpt>
      <trkpt lat="44.0909" lon="7.10607">
        <ele>569</ele>
        <time>2020-07-30T13:49:03.000Z</time>
      </trkpt>
      <trkpt lat="44.09093" lon="7.10609">
        <ele>567.79998779297</ele>
        <time>2020-07-30T13:49:05.000Z</time>
      </trkpt>
      <trkpt lat="44.09089" lon="7.10613">
        <ele>566.79998779297</ele>
        <time>2020-07-30T13:49:08.000Z</time>
      </trkpt>
      <trkpt lat="44.09087" lon="7.10615">
        <ele>566.20001220703</ele>
        <time>2020-07-30T13:49:09.000Z</time>
      </trkpt>
      <trkpt lat="44.09084" lon="7.10618">
        <ele>565.59997558594</ele>
        <time>2020-07-30T13:49:10.000Z</time>
      </trkpt>
      <trkpt lat="44.09082" lon="7.10621">
        <ele>564.20001220703</ele>
        <time>2020-07-30T13:49:11.000Z</time>
      </trkpt>
      <trkpt lat="44.0908" lon="7.10624">
        <ele>563.40002441406</ele>
        <time>2020-07-30T13:49:12.000Z</time>
      </trkpt>
      <trkpt lat="44.09078" lon="7.10627">
        <ele>562.59997558594</ele>
        <time>2020-07-30T13:49:13.000Z</time>
      </trkpt>
      <trkpt lat="44.09076" lon="7.10629">
        <ele>561.40002441406</ele>
        <time>2020-07-30T13:49:14.000Z</time>
      </trkpt>
      <trkpt lat="44.09075" lon="7.10633">
        <ele>560.40002441406</ele>
        <time>2020-07-30T13:49:15.000Z</time>
      </trkpt>
      <trkpt lat="44.09074" lon="7.10636">
        <ele>560</ele>
        <time>2020-07-30T13:49:16.000Z</time>
      </trkpt>
      <trkpt lat="44.09071" lon="7.10639">
        <ele>559</ele>
        <time>2020-07-30T13:49:17.000Z</time>
      </trkpt>
      <trkpt lat="44.09069" lon="7.10641">
        <ele>558</ele>
        <time>2020-07-30T13:49:18.000Z</time>
      </trkpt>
      <trkpt lat="44.09066" lon="7.10642">
        <ele>556.20001220703</ele>
        <time>2020-07-30T13:49:19.000Z</time>
      </trkpt>
      <trkpt lat="44.0906" lon="7.10642">
        <ele>554.20001220703</ele>
        <time>2020-07-30T13:49:21.000Z</time>
      </trkpt>
      <trkpt lat="44.09056" lon="7.10644">
        <ele>553.20001220703</ele>
        <time>2020-07-30T13:49:22.000Z</time>
      </trkpt>
      <trkpt lat="44.09049" lon="7.10645">
        <ele>551.59997558594</ele>
        <time>2020-07-30T13:49:24.000Z</time>
      </trkpt>
      <trkpt lat="44.09041" lon="7.10643">
        <ele>550.59997558594</ele>
        <time>2020-07-30T13:49:26.000Z</time>
      </trkpt>
      <trkpt lat="44.09033" lon="7.10643">
        <ele>550</ele>
        <time>2020-07-30T13:49:28.000Z</time>
      </trkpt>
      <trkpt lat="44.09025" lon="7.10645">
        <ele>549.40002441406</ele>
        <time>2020-07-30T13:49:30.000Z</time>
      </trkpt>
      <trkpt lat="44.09015" lon="7.10649">
        <ele>548.20001220703</ele>
        <time>2020-07-30T13:49:33.000Z</time>
      </trkpt>
      <trkpt lat="44.09009" lon="7.10653">
        <ele>547</ele>
        <time>2020-07-30T13:49:35.000Z</time>
      </trkpt>
      <trkpt lat="44.09007" lon="7.10654">
        <ele>545.59997558594</ele>
        <time>2020-07-30T13:49:36.000Z</time>
      </trkpt>
      <trkpt lat="44.09005" lon="7.10654">
        <ele>544.20001220703</ele>
        <time>2020-07-30T13:49:38.000Z</time>
      </trkpt>
      <trkpt lat="44.09003" lon="7.10656">
        <ele>543.40002441406</ele>
        <time>2020-07-30T13:49:39.000Z</time>
      </trkpt>
      <trkpt lat="44.09001" lon="7.10658">
        <ele>542.79998779297</ele>
        <time>2020-07-30T13:49:40.000Z</time>
      </trkpt>
      <trkpt lat="44.08992" lon="7.10666">
        <ele>541.40002441406</ele>
        <time>2020-07-30T13:49:43.000Z</time>
      </trkpt>
      <trkpt lat="44.08987" lon="7.10669">
        <ele>539.79998779297</ele>
        <time>2020-07-30T13:49:45.000Z</time>
      </trkpt>
      <trkpt lat="44.08982" lon="7.10674">
        <ele>538.20001220703</ele>
        <time>2020-07-30T13:49:47.000Z</time>
      </trkpt>
      <trkpt lat="44.08979" lon="7.10677">
        <ele>537.40002441406</ele>
        <time>2020-07-30T13:49:48.000Z</time>
      </trkpt>
      <trkpt lat="44.08975" lon="7.10679">
        <ele>536.59997558594</ele>
        <time>2020-07-30T13:49:49.000Z</time>
      </trkpt>
      <trkpt lat="44.08967" lon="7.1068">
        <ele>535.40002441406</ele>
        <time>2020-07-30T13:49:51.000Z</time>
      </trkpt>
      <trkpt lat="44.08965" lon="7.1068">
        <ele>534.59997558594</ele>
        <time>2020-07-30T13:49:52.000Z</time>
      </trkpt>
      <trkpt lat="44.08962" lon="7.10679">
        <ele>534</ele>
        <time>2020-07-30T13:49:53.000Z</time>
      </trkpt>
      <trkpt lat="44.08953" lon="7.10678">
        <ele>533.40002441406</ele>
        <time>2020-07-30T13:49:57.000Z</time>
      </trkpt>
      <trkpt lat="44.08949" lon="7.10679">
        <ele>533</ele>
        <time>2020-07-30T13:49:58.000Z</time>
      </trkpt>
      <trkpt lat="44.0894" lon="7.10682">
        <ele>532</ele>
        <time>2020-07-30T13:50:00.000Z</time>
      </trkpt>
      <trkpt lat="44.08936" lon="7.10681">
        <ele>531.40002441406</ele>
        <time>2020-07-30T13:50:01.000Z</time>
      </trkpt>
      <trkpt lat="44.08928" lon="7.10682">
        <ele>530.40002441406</ele>
        <time>2020-07-30T13:50:03.000Z</time>
      </trkpt>
      <trkpt lat="44.08923" lon="7.10683">
        <ele>529.79998779297</ele>
        <time>2020-07-30T13:50:04.000Z</time>
      </trkpt>
      <trkpt lat="44.08909" lon="7.10681">
        <ele>529</ele>
        <time>2020-07-30T13:50:07.000Z</time>
      </trkpt>
      <trkpt lat="44.089" lon="7.10679">
        <ele>528</ele>
        <time>2020-07-30T13:50:09.000Z</time>
      </trkpt>
      <trkpt lat="44.08896" lon="7.10676">
        <ele>527.40002441406</ele>
        <time>2020-07-30T13:50:10.000Z</time>
      </trkpt>
      <trkpt lat="44.08893" lon="7.10674">
        <ele>526.79998779297</ele>
        <time>2020-07-30T13:50:11.000Z</time>
      </trkpt>
      <trkpt lat="44.08887" lon="7.10665">
        <ele>526.59997558594</ele>
        <time>2020-07-30T13:50:14.000Z</time>
      </trkpt>
      <trkpt lat="44.08878" lon="7.10653">
        <ele>527.40002441406</ele>
        <time>2020-07-30T13:50:18.000Z</time>
      </trkpt>
      <trkpt lat="44.0887" lon="7.10652">
        <ele>528</ele>
        <time>2020-07-30T13:50:22.000Z</time>
      </trkpt>
      <trkpt lat="44.0886" lon="7.10642">
        <ele>528.79998779297</ele>
        <time>2020-07-30T13:50:28.000Z</time>
      </trkpt>
      <trkpt lat="44.08856" lon="7.1064">
        <ele>529</ele>
        <time>2020-07-30T13:50:30.000Z</time>
      </trkpt>
      <trkpt lat="44.08848" lon="7.10632">
        <ele>529.40002441406</ele>
        <time>2020-07-30T13:50:35.000Z</time>
      </trkpt>
      <trkpt lat="44.08843" lon="7.10627">
        <ele>530</ele>
        <time>2020-07-30T13:50:38.000Z</time>
      </trkpt>
      <trkpt lat="44.0884" lon="7.10621">
        <ele>530.59997558594</ele>
        <time>2020-07-30T13:50:41.000Z</time>
      </trkpt>
      <trkpt lat="44.08834" lon="7.10611">
        <ele>531</ele>
        <time>2020-07-30T13:50:45.000Z</time>
      </trkpt>
      <trkpt lat="44.0883" lon="7.10604">
        <ele>532.20001220703</ele>
        <time>2020-07-30T13:50:48.000Z</time>
      </trkpt>
      <trkpt lat="44.08822" lon="7.10588">
        <ele>532.79998779297</ele>
        <time>2020-07-30T13:50:55.000Z</time>
      </trkpt>
      <trkpt lat="44.08819" lon="7.10581">
        <ele>533.40002441406</ele>
        <time>2020-07-30T13:50:58.000Z</time>
      </trkpt>
      <trkpt lat="44.08815" lon="7.10571">
        <ele>534</ele>
        <time>2020-07-30T13:51:02.000Z</time>
      </trkpt>
      <trkpt lat="44.0881" lon="7.10561">
        <ele>534.40002441406</ele>
        <time>2020-07-30T13:51:06.000Z</time>
      </trkpt>
      <trkpt lat="44.08807" lon="7.10552">
        <ele>534.79998779297</ele>
        <time>2020-07-30T13:51:10.000Z</time>
      </trkpt>
      <trkpt lat="44.08804" lon="7.10545">
        <ele>535.40002441406</ele>
        <time>2020-07-30T13:51:13.000Z</time>
      </trkpt>
      <trkpt lat="44.088" lon="7.10535">
        <ele>536</ele>
        <time>2020-07-30T13:51:18.000Z</time>
      </trkpt>
      <trkpt lat="44.08796" lon="7.10524">
        <ele>536.40002441406</ele>
        <time>2020-07-30T13:51:23.000Z</time>
      </trkpt>
      <trkpt lat="44.08795" lon="7.10521">
        <ele>536.40002441406</ele>
        <time>2020-07-30T13:51:24.000Z</time>
      </trkpt>
      <trkpt lat="44.08787" lon="7.10505">
        <ele>537.40002441406</ele>
        <time>2020-07-30T13:51:31.000Z</time>
      </trkpt>
      <trkpt lat="44.08785" lon="7.10499">
        <ele>537.79998779297</ele>
        <time>2020-07-30T13:51:33.000Z</time>
      </trkpt>
      <trkpt lat="44.08784" lon="7.10479">
        <ele>538.59997558594</ele>
        <time>2020-07-30T13:51:40.000Z</time>
      </trkpt>
      <trkpt lat="44.0878" lon="7.1046">
        <ele>539.40002441406</ele>
        <time>2020-07-30T13:51:47.000Z</time>
      </trkpt>
      <trkpt lat="44.08779" lon="7.10458">
        <ele>539.59997558594</ele>
        <time>2020-07-30T13:51:48.000Z</time>
      </trkpt>
      <trkpt lat="44.08772" lon="7.10447">
        <ele>540.20001220703</ele>
        <time>2020-07-30T13:51:53.000Z</time>
      </trkpt>
      <trkpt lat="44.08767" lon="7.10442">
        <ele>540.79998779297</ele>
        <time>2020-07-30T13:51:56.000Z</time>
      </trkpt>
      <trkpt lat="44.08758" lon="7.10434">
        <ele>541.79998779297</ele>
        <time>2020-07-30T13:52:01.000Z</time>
      </trkpt>
      <trkpt lat="44.08746" lon="7.10423">
        <ele>543</ele>
        <time>2020-07-30T13:52:08.000Z</time>
      </trkpt>
      <trkpt lat="44.08744" lon="7.1042">
        <ele>543.20001220703</ele>
        <time>2020-07-30T13:52:10.000Z</time>
      </trkpt>
      <trkpt lat="44.08738" lon="7.10415">
        <ele>544</ele>
        <time>2020-07-30T13:52:16.000Z</time>
      </trkpt>
      <trkpt lat="44.08737" lon="7.10414">
        <ele>544</ele>
        <time>2020-07-30T13:52:17.000Z</time>
      </trkpt>
      <trkpt lat="44.08726" lon="7.10405">
        <ele>545</ele>
        <time>2020-07-30T13:52:24.000Z</time>
      </trkpt>
      <trkpt lat="44.08715" lon="7.10396">
        <ele>546.20001220703</ele>
        <time>2020-07-30T13:52:30.000Z</time>
      </trkpt>
      <trkpt lat="44.08714" lon="7.10395">
        <ele>546.40002441406</ele>
        <time>2020-07-30T13:52:31.000Z</time>
      </trkpt>
      <trkpt lat="44.08705" lon="7.10387">
        <ele>547.20001220703</ele>
        <time>2020-07-30T13:52:36.000Z</time>
      </trkpt>
      <trkpt lat="44.08698" lon="7.10381">
        <ele>548</ele>
        <time>2020-07-30T13:52:40.000Z</time>
      </trkpt>
      <trkpt lat="44.08695" lon="7.10377">
        <ele>548.40002441406</ele>
        <time>2020-07-30T13:52:42.000Z</time>
      </trkpt>
      <trkpt lat="44.08688" lon="7.10371">
        <ele>548.79998779297</ele>
        <time>2020-07-30T13:52:46.000Z</time>
      </trkpt>
      <trkpt lat="44.08677" lon="7.10371">
        <ele>549.40002441406</ele>
        <time>2020-07-30T13:52:52.000Z</time>
      </trkpt>
      <trkpt lat="44.08662" lon="7.1038">
        <ele>550</ele>
        <time>2020-07-30T13:53:00.000Z</time>
      </trkpt>
      <trkpt lat="44.08658" lon="7.10382">
        <ele>550.40002441406</ele>
        <time>2020-07-30T13:53:02.000Z</time>
      </trkpt>
      <trkpt lat="44.08648" lon="7.10385">
        <ele>551.40002441406</ele>
        <time>2020-07-30T13:53:07.000Z</time>
      </trkpt>
      <trkpt lat="44.08646" lon="7.10385">
        <ele>551.59997558594</ele>
        <time>2020-07-30T13:53:08.000Z</time>
      </trkpt>
      <trkpt lat="44.08632" lon="7.10387">
        <ele>552.20001220703</ele>
        <time>2020-07-30T13:53:16.000Z</time>
      </trkpt>
      <trkpt lat="44.08626" lon="7.10388">
        <ele>552.59997558594</ele>
        <time>2020-07-30T13:53:19.000Z</time>
      </trkpt>
      <trkpt lat="44.08617" lon="7.10385">
        <ele>553.20001220703</ele>
        <time>2020-07-30T13:53:24.000Z</time>
      </trkpt>
      <trkpt lat="44.08613" lon="7.10383">
        <ele>553.79998779297</ele>
        <time>2020-07-30T13:53:26.000Z</time>
      </trkpt>
      <trkpt lat="44.08605" lon="7.10375">
        <ele>554.79998779297</ele>
        <time>2020-07-30T13:53:31.000Z</time>
      </trkpt>
      <trkpt lat="44.08597" lon="7.10367">
        <ele>555.79998779297</ele>
        <time>2020-07-30T13:53:36.000Z</time>
      </trkpt>
      <trkpt lat="44.08594" lon="7.10363">
        <ele>556.20001220703</ele>
        <time>2020-07-30T13:53:38.000Z</time>
      </trkpt>
      <trkpt lat="44.08586" lon="7.10353">
        <ele>557</ele>
        <time>2020-07-30T13:53:43.000Z</time>
      </trkpt>
      <trkpt lat="44.08582" lon="7.10347">
        <ele>557.20001220703</ele>
        <time>2020-07-30T13:53:46.000Z</time>
      </trkpt>
      <trkpt lat="44.08574" lon="7.10333">
        <ele>558.20001220703</ele>
        <time>2020-07-30T13:53:52.000Z</time>
      </trkpt>
      <trkpt lat="44.08573" lon="7.10331">
        <ele>558.20001220703</ele>
        <time>2020-07-30T13:53:53.000Z</time>
      </trkpt>
      <trkpt lat="44.08567" lon="7.10322">
        <ele>559</ele>
        <time>2020-07-30T13:54:00.000Z</time>
      </trkpt>
      <trkpt lat="44.08567" lon="7.10322">
        <ele>559.20001220703</ele>
        <time>2020-07-30T13:54:01.000Z</time>
      </trkpt>
      <trkpt lat="44.08568" lon="7.10323">
        <ele>560</ele>
        <time>2020-07-30T13:54:07.000Z</time>
      </trkpt>
      <trkpt lat="44.08571" lon="7.10325">
        <ele>560</ele>
        <time>2020-07-30T13:54:15.000Z</time>
      </trkpt>
      <trkpt lat="44.08571" lon="7.10325">
        <ele>560.20001220703</ele>
        <time>2020-07-30T13:54:17.000Z</time>
      </trkpt>
      <trkpt lat="44.08571" lon="7.10325">
        <ele>560.20001220703</ele>
        <time>2020-07-30T13:54:25.000Z</time>
      </trkpt>
      <trkpt lat="44.0857" lon="7.10326">
        <ele>559.59997558594</ele>
        <time>2020-07-30T13:54:34.000Z</time>
      </trkpt>
      <trkpt lat="44.0857" lon="7.10327">
        <ele>560</ele>
        <time>2020-07-30T13:54:39.000Z</time>
      </trkpt>
      <trkpt lat="44.08567" lon="7.10327">
        <ele>560</ele>
        <time>2020-07-30T13:54:41.000Z</time>
      </trkpt>
      <trkpt lat="44.08565" lon="7.10326">
        <ele>559.79998779297</ele>
        <time>2020-07-30T13:54:45.000Z</time>
      </trkpt>
      <trkpt lat="44.08564" lon="7.10323">
        <ele>559.59997558594</ele>
        <time>2020-07-30T13:54:46.000Z</time>
      </trkpt>
      <trkpt lat="44.08561" lon="7.10317">
        <ele>558.79998779297</ele>
        <time>2020-07-30T13:54:48.000Z</time>
      </trkpt>
      <trkpt lat="44.08556" lon="7.10312">
        <ele>557.59997558594</ele>
        <time>2020-07-30T13:54:50.000Z</time>
      </trkpt>
      <trkpt lat="44.08554" lon="7.1031">
        <ele>556.59997558594</ele>
        <time>2020-07-30T13:54:51.000Z</time>
      </trkpt>
      <trkpt lat="44.08551" lon="7.10308">
        <ele>556</ele>
        <time>2020-07-30T13:54:52.000Z</time>
      </trkpt>
      <trkpt lat="44.08549" lon="7.10307">
        <ele>554.20001220703</ele>
        <time>2020-07-30T13:54:54.000Z</time>
      </trkpt>
      <trkpt lat="44.08549" lon="7.10309">
        <ele>553.59997558594</ele>
        <time>2020-07-30T13:54:55.000Z</time>
      </trkpt>
      <trkpt lat="44.0855" lon="7.10312">
        <ele>552.59997558594</ele>
        <time>2020-07-30T13:54:56.000Z</time>
      </trkpt>
      <trkpt lat="44.08553" lon="7.10321">
        <ele>551.59997558594</ele>
        <time>2020-07-30T13:54:58.000Z</time>
      </trkpt>
      <trkpt lat="44.08555" lon="7.10325">
        <ele>552</ele>
        <time>2020-07-30T13:54:59.000Z</time>
      </trkpt>
      <trkpt lat="44.08556" lon="7.1033">
        <ele>551.59997558594</ele>
        <time>2020-07-30T13:55:00.000Z</time>
      </trkpt>
      <trkpt lat="44.08554" lon="7.10331">
        <ele>551.40002441406</ele>
        <time>2020-07-30T13:55:01.000Z</time>
      </trkpt>
      <trkpt lat="44.0855" lon="7.10331">
        <ele>550.20001220703</ele>
        <time>2020-07-30T13:55:03.000Z</time>
      </trkpt>
      <trkpt lat="44.0855" lon="7.10333">
        <ele>548.59997558594</ele>
        <time>2020-07-30T13:55:04.000Z</time>
      </trkpt>
      <trkpt lat="44.08549" lon="7.10341">
        <ele>547.20001220703</ele>
        <time>2020-07-30T13:55:06.000Z</time>
      </trkpt>
      <trkpt lat="44.08549" lon="7.10348">
        <ele>546.59997558594</ele>
        <time>2020-07-30T13:55:07.000Z</time>
      </trkpt>
      <trkpt lat="44.08548" lon="7.10355">
        <ele>546</ele>
        <time>2020-07-30T13:55:08.000Z</time>
      </trkpt>
      <trkpt lat="44.08546" lon="7.1037">
        <ele>544.20001220703</ele>
        <time>2020-07-30T13:55:10.000Z</time>
      </trkpt>
      <trkpt lat="44.08544" lon="7.10376">
        <ele>543.20001220703</ele>
        <time>2020-07-30T13:55:11.000Z</time>
      </trkpt>
      <trkpt lat="44.08542" lon="7.10383">
        <ele>542.40002441406</ele>
        <time>2020-07-30T13:55:12.000Z</time>
      </trkpt>
      <trkpt lat="44.08541" lon="7.10389">
        <ele>541.20001220703</ele>
        <time>2020-07-30T13:55:13.000Z</time>
      </trkpt>
      <trkpt lat="44.08541" lon="7.10397">
        <ele>540</ele>
        <time>2020-07-30T13:55:14.000Z</time>
      </trkpt>
      <trkpt lat="44.0854" lon="7.10403">
        <ele>538</ele>
        <time>2020-07-30T13:55:15.000Z</time>
      </trkpt>
      <trkpt lat="44.08541" lon="7.1041">
        <ele>536.59997558594</ele>
        <time>2020-07-30T13:55:16.000Z</time>
      </trkpt>
      <trkpt lat="44.08542" lon="7.10418">
        <ele>535.40002441406</ele>
        <time>2020-07-30T13:55:17.000Z</time>
      </trkpt>
      <trkpt lat="44.08544" lon="7.10434">
        <ele>533.59997558594</ele>
        <time>2020-07-30T13:55:19.000Z</time>
      </trkpt>
      <trkpt lat="44.08547" lon="7.10441">
        <ele>533.20001220703</ele>
        <time>2020-07-30T13:55:20.000Z</time>
      </trkpt>
      <trkpt lat="44.08551" lon="7.10447">
        <ele>533</ele>
        <time>2020-07-30T13:55:21.000Z</time>
      </trkpt>
      <trkpt lat="44.08555" lon="7.1045">
        <ele>531.79998779297</ele>
        <time>2020-07-30T13:55:22.000Z</time>
      </trkpt>
      <trkpt lat="44.08558" lon="7.10457">
        <ele>530.40002441406</ele>
        <time>2020-07-30T13:55:24.000Z</time>
      </trkpt>
      <trkpt lat="44.08557" lon="7.10462">
        <ele>529</ele>
        <time>2020-07-30T13:55:25.000Z</time>
      </trkpt>
      <trkpt lat="44.08554" lon="7.10468">
        <ele>527.59997558594</ele>
        <time>2020-07-30T13:55:26.000Z</time>
      </trkpt>
      <trkpt lat="44.0855" lon="7.10471">
        <ele>527.20001220703</ele>
        <time>2020-07-30T13:55:27.000Z</time>
      </trkpt>
      <trkpt lat="44.08545" lon="7.10474">
        <ele>525.59997558594</ele>
        <time>2020-07-30T13:55:28.000Z</time>
      </trkpt>
      <trkpt lat="44.0854" lon="7.10478">
        <ele>525</ele>
        <time>2020-07-30T13:55:29.000Z</time>
      </trkpt>
      <trkpt lat="44.08533" lon="7.10481">
        <ele>524.20001220703</ele>
        <time>2020-07-30T13:55:30.000Z</time>
      </trkpt>
      <trkpt lat="44.08525" lon="7.10484">
        <ele>523</ele>
        <time>2020-07-30T13:55:31.000Z</time>
      </trkpt>
      <trkpt lat="44.08517" lon="7.10486">
        <ele>521.79998779297</ele>
        <time>2020-07-30T13:55:32.000Z</time>
      </trkpt>
      <trkpt lat="44.08509" lon="7.10488">
        <ele>520.79998779297</ele>
        <time>2020-07-30T13:55:33.000Z</time>
      </trkpt>
      <trkpt lat="44.08502" lon="7.1049">
        <ele>519.59997558594</ele>
        <time>2020-07-30T13:55:34.000Z</time>
      </trkpt>
      <trkpt lat="44.08497" lon="7.10491">
        <ele>518.40002441406</ele>
        <time>2020-07-30T13:55:35.000Z</time>
      </trkpt>
      <trkpt lat="44.08493" lon="7.10493">
        <ele>517.59997558594</ele>
        <time>2020-07-30T13:55:36.000Z</time>
      </trkpt>
      <trkpt lat="44.0849" lon="7.10498">
        <ele>516.59997558594</ele>
        <time>2020-07-30T13:55:37.000Z</time>
      </trkpt>
      <trkpt lat="44.08483" lon="7.1052">
        <ele>515.59997558594</ele>
        <time>2020-07-30T13:55:40.000Z</time>
      </trkpt>
      <trkpt lat="44.0848" lon="7.10526">
        <ele>515.20001220703</ele>
        <time>2020-07-30T13:55:41.000Z</time>
      </trkpt>
      <trkpt lat="44.08467" lon="7.10543">
        <ele>514</ele>
        <time>2020-07-30T13:55:44.000Z</time>
      </trkpt>
      <trkpt lat="44.08462" lon="7.10547">
        <ele>513.59997558594</ele>
        <time>2020-07-30T13:55:45.000Z</time>
      </trkpt>
      <trkpt lat="44.08449" lon="7.10553">
        <ele>513.20001220703</ele>
        <time>2020-07-30T13:55:48.000Z</time>
      </trkpt>
      <trkpt lat="44.08446" lon="7.10553">
        <ele>513.20001220703</ele>
        <time>2020-07-30T13:55:49.000Z</time>
      </trkpt>
      <trkpt lat="44.08437" lon="7.10551">
        <ele>514.20001220703</ele>
        <time>2020-07-30T13:55:53.000Z</time>
      </trkpt>
      <trkpt lat="44.08436" lon="7.10551">
        <ele>514.20001220703</ele>
        <time>2020-07-30T13:55:58.000Z</time>
      </trkpt>
      <trkpt lat="44.08432" lon="7.10551">
        <ele>514.40002441406</ele>
        <time>2020-07-30T13:56:06.000Z</time>
      </trkpt>
      <trkpt lat="44.08426" lon="7.10541">
        <ele>514</ele>
        <time>2020-07-30T13:56:11.000Z</time>
      </trkpt>
      <trkpt lat="44.08421" lon="7.10527">
        <ele>515.40002441406</ele>
        <time>2020-07-30T13:56:17.000Z</time>
      </trkpt>
      <trkpt lat="44.0842" lon="7.10522">
        <ele>516.20001220703</ele>
        <time>2020-07-30T13:56:19.000Z</time>
      </trkpt>
      <trkpt lat="44.08419" lon="7.10519">
        <ele>516.40002441406</ele>
        <time>2020-07-30T13:56:20.000Z</time>
      </trkpt>
      <trkpt lat="44.08412" lon="7.10503">
        <ele>517</ele>
        <time>2020-07-30T13:56:26.000Z</time>
      </trkpt>
      <trkpt lat="44.08409" lon="7.105">
        <ele>517.40002441406</ele>
        <time>2020-07-30T13:56:28.000Z</time>
      </trkpt>
      <trkpt lat="44.08399" lon="7.10496">
        <ele>518</ele>
        <time>2020-07-30T13:56:32.000Z</time>
      </trkpt>
      <trkpt lat="44.0838" lon="7.10497">
        <ele>517.59997558594</ele>
        <time>2020-07-30T13:56:38.000Z</time>
      </trkpt>
      <trkpt lat="44.08363" lon="7.10511">
        <ele>517.40002441406</ele>
        <time>2020-07-30T13:56:43.000Z</time>
      </trkpt>
      <trkpt lat="44.0834" lon="7.10527">
        <ele>516.79998779297</ele>
        <time>2020-07-30T13:56:49.000Z</time>
      </trkpt>
      <trkpt lat="44.08335" lon="7.1053">
        <ele>516.79998779297</ele>
        <time>2020-07-30T13:56:50.000Z</time>
      </trkpt>
      <trkpt lat="44.08299" lon="7.10559">
        <ele>516.79998779297</ele>
        <time>2020-07-30T13:56:58.000Z</time>
      </trkpt>
      <trkpt lat="44.08284" lon="7.1057">
        <ele>516.40002441406</ele>
        <time>2020-07-30T13:57:01.000Z</time>
      </trkpt>
      <trkpt lat="44.0826" lon="7.10589">
        <ele>516.40002441406</ele>
        <time>2020-07-30T13:57:06.000Z</time>
      </trkpt>
      <trkpt lat="44.08227" lon="7.10615">
        <ele>516.40002441406</ele>
        <time>2020-07-30T13:57:13.000Z</time>
      </trkpt>
      <trkpt lat="44.08202" lon="7.10634">
        <ele>515.59997558594</ele>
        <time>2020-07-30T13:57:19.000Z</time>
      </trkpt>
      <trkpt lat="44.08194" lon="7.10641">
        <ele>515.79998779297</ele>
        <time>2020-07-30T13:57:21.000Z</time>
      </trkpt>
      <trkpt lat="44.0819" lon="7.1065">
        <ele>516.59997558594</ele>
        <time>2020-07-30T13:57:23.000Z</time>
      </trkpt>
      <trkpt lat="44.0819" lon="7.10658">
        <ele>517.20001220703</ele>
        <time>2020-07-30T13:57:26.000Z</time>
      </trkpt>
      <trkpt lat="44.08187" lon="7.10665">
        <ele>516.79998779297</ele>
        <time>2020-07-30T13:57:31.000Z</time>
      </trkpt>
      <trkpt lat="44.08187" lon="7.10664">
        <ele>516.79998779297</ele>
        <time>2020-07-30T13:57:35.000Z</time>
      </trkpt>
      <trkpt lat="44.08187" lon="7.10664">
        <ele>516.79998779297</ele>
        <time>2020-07-30T13:57:41.000Z</time>
      </trkpt>
      <trkpt lat="44.08188" lon="7.10665">
        <ele>517</ele>
        <time>2020-07-30T13:57:50.000Z</time>
      </trkpt>
      <trkpt lat="44.08188" lon="7.10665">
        <ele>516.79998779297</ele>
        <time>2020-07-30T13:57:54.000Z</time>
      </trkpt>
      <trkpt lat="44.08188" lon="7.10665">
        <ele>517</ele>
        <time>2020-07-30T13:58:00.000Z</time>
      </trkpt>
      <trkpt lat="44.08188" lon="7.10666">
        <ele>516.59997558594</ele>
        <time>2020-07-30T13:58:06.000Z</time>
      </trkpt>
      <trkpt lat="44.08186" lon="7.10665">
        <ele>516.59997558594</ele>
        <time>2020-07-30T13:58:12.000Z</time>
      </trkpt>
      <trkpt lat="44.08403" lon="7.10422">
        <ele>512</ele>
        <time>2020-07-30T14:51:08.000Z</time>
      </trkpt>
      <trkpt lat="44.084" lon="7.10421">
        <ele>512.20001220703</ele>
        <time>2020-07-30T14:51:09.000Z</time>
      </trkpt>
    </trkseg>
  </trk>
</gpx>